<?xml version="1.0" encoding="UTF-8" standalone="no" ?>
<gpx xmlns="http://www.topografix.com/GPX/1/1" xmlns:xsi="http://www.w3.org/2001/XMLSchema-instance" xsi:schemaLocation="http://www.topografix.com/GPX/1/1 http://www.topografix.com/GPX/1/1/gpx.xsd" version="1.1" creator="VisuGPX - https://www.visugpx.com">
  <metadata>
    <name>Castelculier St Amans</name>
    <desc><![CDATA[Depuis St Amans, commune de Castelculier vers l'ancien château de Laclotte.]]></desc>
  </metadata>
  <trk>
    <name><![CDATA[Castelculier St Amans_1]]></name>
    <extensions>
      <line xmlns="http://www.topografix.com/GPX/gpx_style/0/2">
        <color>0000FF</color>
        <width>4</width>
      </line>
    </extensions>
    <trkseg>
      <trkpt lat="44.18596" lon="0.70007">
        <ele>129</ele>
        <time>2022-08-07T06:06:03.000Z</time>
      </trkpt>
      <trkpt lat="44.18596" lon="0.70006">
        <ele>129</ele>
        <time>2022-08-07T06:06:05.000Z</time>
      </trkpt>
      <trkpt lat="44.18597" lon="0.70005">
        <ele>129</ele>
        <time>2022-08-07T06:06:06.000Z</time>
      </trkpt>
      <trkpt lat="44.18598" lon="0.70004">
        <ele>128</ele>
        <time>2022-08-07T06:06:07.000Z</time>
      </trkpt>
      <trkpt lat="44.186" lon="0.70004">
        <ele>128</ele>
        <time>2022-08-07T06:06:08.000Z</time>
      </trkpt>
      <trkpt lat="44.18601" lon="0.70004">
        <ele>127</ele>
        <time>2022-08-07T06:06:09.000Z</time>
      </trkpt>
      <trkpt lat="44.18603" lon="0.70004">
        <ele>127</ele>
        <time>2022-08-07T06:06:10.000Z</time>
      </trkpt>
      <trkpt lat="44.18605" lon="0.70005">
        <ele>127</ele>
        <time>2022-08-07T06:06:11.000Z</time>
      </trkpt>
      <trkpt lat="44.18607" lon="0.70004">
        <ele>127</ele>
        <time>2022-08-07T06:06:12.000Z</time>
      </trkpt>
      <trkpt lat="44.18609" lon="0.70004">
        <ele>127</ele>
        <time>2022-08-07T06:06:13.000Z</time>
      </trkpt>
      <trkpt lat="44.18611" lon="0.70003">
        <ele>127</ele>
        <time>2022-08-07T06:06:14.000Z</time>
      </trkpt>
      <trkpt lat="44.18613" lon="0.70002">
        <ele>127</ele>
        <time>2022-08-07T06:06:15.000Z</time>
      </trkpt>
      <trkpt lat="44.18615" lon="0.70002">
        <ele>127</ele>
        <time>2022-08-07T06:06:16.000Z</time>
      </trkpt>
      <trkpt lat="44.18617" lon="0.70001">
        <ele>128</ele>
        <time>2022-08-07T06:06:17.000Z</time>
      </trkpt>
      <trkpt lat="44.18619" lon="0.70001">
        <ele>128</ele>
        <time>2022-08-07T06:06:18.000Z</time>
      </trkpt>
      <trkpt lat="44.1862" lon="0.7">
        <ele>129</ele>
        <time>2022-08-07T06:06:19.000Z</time>
      </trkpt>
      <trkpt lat="44.18621" lon="0.7">
        <ele>129</ele>
        <time>2022-08-07T06:06:20.000Z</time>
      </trkpt>
      <trkpt lat="44.18622" lon="0.69999">
        <ele>128</ele>
        <time>2022-08-07T06:06:21.000Z</time>
      </trkpt>
      <trkpt lat="44.18624" lon="0.69997">
        <ele>126</ele>
        <time>2022-08-07T06:06:22.000Z</time>
      </trkpt>
      <trkpt lat="44.18625" lon="0.69995">
        <ele>126</ele>
        <time>2022-08-07T06:06:23.000Z</time>
      </trkpt>
      <trkpt lat="44.18627" lon="0.69992">
        <ele>124</ele>
        <time>2022-08-07T06:06:24.000Z</time>
      </trkpt>
      <trkpt lat="44.18629" lon="0.6999">
        <ele>122</ele>
        <time>2022-08-07T06:06:25.000Z</time>
      </trkpt>
      <trkpt lat="44.18631" lon="0.69987">
        <ele>122</ele>
        <time>2022-08-07T06:06:26.000Z</time>
      </trkpt>
      <trkpt lat="44.18633" lon="0.69984">
        <ele>120</ele>
        <time>2022-08-07T06:06:27.000Z</time>
      </trkpt>
      <trkpt lat="44.18635" lon="0.69982">
        <ele>118</ele>
        <time>2022-08-07T06:06:28.000Z</time>
      </trkpt>
      <trkpt lat="44.18637" lon="0.69979">
        <ele>116</ele>
        <time>2022-08-07T06:06:29.000Z</time>
      </trkpt>
      <trkpt lat="44.18639" lon="0.69976">
        <ele>113</ele>
        <time>2022-08-07T06:06:30.000Z</time>
      </trkpt>
      <trkpt lat="44.18641" lon="0.69972">
        <ele>111</ele>
        <time>2022-08-07T06:06:31.000Z</time>
      </trkpt>
      <trkpt lat="44.18642" lon="0.69968">
        <ele>109</ele>
        <time>2022-08-07T06:06:32.000Z</time>
      </trkpt>
      <trkpt lat="44.18643" lon="0.69965">
        <ele>109</ele>
        <time>2022-08-07T06:06:33.000Z</time>
      </trkpt>
      <trkpt lat="44.18645" lon="0.69964">
        <ele>107</ele>
        <time>2022-08-07T06:06:34.000Z</time>
      </trkpt>
      <trkpt lat="44.18646" lon="0.69962">
        <ele>107</ele>
        <time>2022-08-07T06:06:35.000Z</time>
      </trkpt>
      <trkpt lat="44.18647" lon="0.6996">
        <ele>105</ele>
        <time>2022-08-07T06:06:36.000Z</time>
      </trkpt>
      <trkpt lat="44.18649" lon="0.69958">
        <ele>104</ele>
        <time>2022-08-07T06:06:37.000Z</time>
      </trkpt>
      <trkpt lat="44.1865" lon="0.69956">
        <ele>102</ele>
        <time>2022-08-07T06:06:38.000Z</time>
      </trkpt>
      <trkpt lat="44.18652" lon="0.69954">
        <ele>101</ele>
        <time>2022-08-07T06:06:39.000Z</time>
      </trkpt>
      <trkpt lat="44.18653" lon="0.69952">
        <ele>100</ele>
        <time>2022-08-07T06:06:40.000Z</time>
      </trkpt>
      <trkpt lat="44.18654" lon="0.6995">
        <ele>99</ele>
        <time>2022-08-07T06:06:41.000Z</time>
      </trkpt>
      <trkpt lat="44.18655" lon="0.69948">
        <ele>98</ele>
        <time>2022-08-07T06:06:42.000Z</time>
      </trkpt>
      <trkpt lat="44.18656" lon="0.69945">
        <ele>97</ele>
        <time>2022-08-07T06:06:43.000Z</time>
      </trkpt>
      <trkpt lat="44.18657" lon="0.69942">
        <ele>95</ele>
        <time>2022-08-07T06:06:44.000Z</time>
      </trkpt>
      <trkpt lat="44.18658" lon="0.6994">
        <ele>93</ele>
        <time>2022-08-07T06:06:45.000Z</time>
      </trkpt>
      <trkpt lat="44.18659" lon="0.69937">
        <ele>91</ele>
        <time>2022-08-07T06:06:46.000Z</time>
      </trkpt>
      <trkpt lat="44.1866" lon="0.69935">
        <ele>90</ele>
        <time>2022-08-07T06:06:47.000Z</time>
      </trkpt>
      <trkpt lat="44.18662" lon="0.69932">
        <ele>88</ele>
        <time>2022-08-07T06:06:48.000Z</time>
      </trkpt>
      <trkpt lat="44.18663" lon="0.6993">
        <ele>86</ele>
        <time>2022-08-07T06:06:49.000Z</time>
      </trkpt>
      <trkpt lat="44.18664" lon="0.69928">
        <ele>86</ele>
        <time>2022-08-07T06:06:50.000Z</time>
      </trkpt>
      <trkpt lat="44.18665" lon="0.69926">
        <ele>84</ele>
        <time>2022-08-07T06:06:51.000Z</time>
      </trkpt>
      <trkpt lat="44.18666" lon="0.69923">
        <ele>82</ele>
        <time>2022-08-07T06:06:52.000Z</time>
      </trkpt>
      <trkpt lat="44.18668" lon="0.69921">
        <ele>81</ele>
        <time>2022-08-07T06:06:53.000Z</time>
      </trkpt>
      <trkpt lat="44.18669" lon="0.69918">
        <ele>79</ele>
        <time>2022-08-07T06:06:54.000Z</time>
      </trkpt>
      <trkpt lat="44.1867" lon="0.69916">
        <ele>78</ele>
        <time>2022-08-07T06:06:55.000Z</time>
      </trkpt>
      <trkpt lat="44.18671" lon="0.69914">
        <ele>76</ele>
        <time>2022-08-07T06:06:56.000Z</time>
      </trkpt>
      <trkpt lat="44.18672" lon="0.69913">
        <ele>76</ele>
        <time>2022-08-07T06:06:57.000Z</time>
      </trkpt>
      <trkpt lat="44.18673" lon="0.69911">
        <ele>74</ele>
        <time>2022-08-07T06:06:58.000Z</time>
      </trkpt>
      <trkpt lat="44.18674" lon="0.69909">
        <ele>73</ele>
        <time>2022-08-07T06:06:59.000Z</time>
      </trkpt>
      <trkpt lat="44.18675" lon="0.69907">
        <ele>72</ele>
        <time>2022-08-07T06:07:00.000Z</time>
      </trkpt>
      <trkpt lat="44.18676" lon="0.69905">
        <ele>71</ele>
        <time>2022-08-07T06:07:01.000Z</time>
      </trkpt>
      <trkpt lat="44.18677" lon="0.69902">
        <ele>70</ele>
        <time>2022-08-07T06:07:02.000Z</time>
      </trkpt>
      <trkpt lat="44.18678" lon="0.699">
        <ele>70</ele>
        <time>2022-08-07T06:07:03.000Z</time>
      </trkpt>
      <trkpt lat="44.18679" lon="0.69899">
        <ele>69</ele>
        <time>2022-08-07T06:07:04.000Z</time>
      </trkpt>
      <trkpt lat="44.1868" lon="0.69897">
        <ele>68</ele>
        <time>2022-08-07T06:07:05.000Z</time>
      </trkpt>
      <trkpt lat="44.1868" lon="0.69895">
        <ele>68</ele>
        <time>2022-08-07T06:07:06.000Z</time>
      </trkpt>
      <trkpt lat="44.18681" lon="0.69893">
        <ele>68</ele>
        <time>2022-08-07T06:07:07.000Z</time>
      </trkpt>
      <trkpt lat="44.18681" lon="0.69891">
        <ele>67</ele>
        <time>2022-08-07T06:07:08.000Z</time>
      </trkpt>
      <trkpt lat="44.18682" lon="0.69889">
        <ele>66</ele>
        <time>2022-08-07T06:07:09.000Z</time>
      </trkpt>
      <trkpt lat="44.18683" lon="0.69887">
        <ele>65</ele>
        <time>2022-08-07T06:07:10.000Z</time>
      </trkpt>
      <trkpt lat="44.18684" lon="0.69885">
        <ele>64</ele>
        <time>2022-08-07T06:07:11.000Z</time>
      </trkpt>
      <trkpt lat="44.18685" lon="0.69883">
        <ele>64</ele>
        <time>2022-08-07T06:07:12.000Z</time>
      </trkpt>
      <trkpt lat="44.18685" lon="0.69881">
        <ele>63</ele>
        <time>2022-08-07T06:07:13.000Z</time>
      </trkpt>
      <trkpt lat="44.18686" lon="0.6988">
        <ele>62</ele>
        <time>2022-08-07T06:07:14.000Z</time>
      </trkpt>
      <trkpt lat="44.18687" lon="0.69878">
        <ele>62</ele>
        <time>2022-08-07T06:07:15.000Z</time>
      </trkpt>
      <trkpt lat="44.18688" lon="0.69876">
        <ele>61</ele>
        <time>2022-08-07T06:07:16.000Z</time>
      </trkpt>
      <trkpt lat="44.18688" lon="0.69874">
        <ele>61</ele>
        <time>2022-08-07T06:07:17.000Z</time>
      </trkpt>
      <trkpt lat="44.18689" lon="0.69872">
        <ele>61</ele>
        <time>2022-08-07T06:07:18.000Z</time>
      </trkpt>
      <trkpt lat="44.18689" lon="0.6987">
        <ele>60</ele>
        <time>2022-08-07T06:07:19.000Z</time>
      </trkpt>
      <trkpt lat="44.1869" lon="0.69868">
        <ele>60</ele>
        <time>2022-08-07T06:07:20.000Z</time>
      </trkpt>
      <trkpt lat="44.1869" lon="0.69866">
        <ele>59</ele>
        <time>2022-08-07T06:07:21.000Z</time>
      </trkpt>
      <trkpt lat="44.18691" lon="0.69865">
        <ele>58</ele>
        <time>2022-08-07T06:07:22.000Z</time>
      </trkpt>
      <trkpt lat="44.18691" lon="0.69863">
        <ele>58</ele>
        <time>2022-08-07T06:07:23.000Z</time>
      </trkpt>
      <trkpt lat="44.18692" lon="0.69861">
        <ele>57</ele>
        <time>2022-08-07T06:07:24.000Z</time>
      </trkpt>
      <trkpt lat="44.18693" lon="0.69859">
        <ele>57</ele>
        <time>2022-08-07T06:07:25.000Z</time>
      </trkpt>
      <trkpt lat="44.18694" lon="0.69857">
        <ele>56</ele>
        <time>2022-08-07T06:07:26.000Z</time>
      </trkpt>
      <trkpt lat="44.18694" lon="0.69855">
        <ele>56</ele>
        <time>2022-08-07T06:07:27.000Z</time>
      </trkpt>
      <trkpt lat="44.18695" lon="0.69853">
        <ele>56</ele>
        <time>2022-08-07T06:07:28.000Z</time>
      </trkpt>
      <trkpt lat="44.18696" lon="0.69851">
        <ele>55</ele>
        <time>2022-08-07T06:07:29.000Z</time>
      </trkpt>
      <trkpt lat="44.18696" lon="0.6985">
        <ele>55</ele>
        <time>2022-08-07T06:07:30.000Z</time>
      </trkpt>
      <trkpt lat="44.18697" lon="0.69848">
        <ele>55</ele>
        <time>2022-08-07T06:07:31.000Z</time>
      </trkpt>
      <trkpt lat="44.18697" lon="0.69846">
        <ele>54</ele>
        <time>2022-08-07T06:07:32.000Z</time>
      </trkpt>
      <trkpt lat="44.18698" lon="0.69844">
        <ele>54</ele>
        <time>2022-08-07T06:07:33.000Z</time>
      </trkpt>
      <trkpt lat="44.18698" lon="0.69842">
        <ele>53</ele>
        <time>2022-08-07T06:07:34.000Z</time>
      </trkpt>
      <trkpt lat="44.18699" lon="0.6984">
        <ele>53</ele>
        <time>2022-08-07T06:07:35.000Z</time>
      </trkpt>
      <trkpt lat="44.187" lon="0.69838">
        <ele>53</ele>
        <time>2022-08-07T06:07:36.000Z</time>
      </trkpt>
      <trkpt lat="44.187" lon="0.69836">
        <ele>52</ele>
        <time>2022-08-07T06:07:37.000Z</time>
      </trkpt>
      <trkpt lat="44.18701" lon="0.69834">
        <ele>52</ele>
        <time>2022-08-07T06:07:38.000Z</time>
      </trkpt>
      <trkpt lat="44.18702" lon="0.69832">
        <ele>51</ele>
        <time>2022-08-07T06:07:39.000Z</time>
      </trkpt>
      <trkpt lat="44.18702" lon="0.6983">
        <ele>51</ele>
        <time>2022-08-07T06:07:40.000Z</time>
      </trkpt>
      <trkpt lat="44.18703" lon="0.69829">
        <ele>52</ele>
        <time>2022-08-07T06:07:41.000Z</time>
      </trkpt>
      <trkpt lat="44.18703" lon="0.69827">
        <ele>51</ele>
        <time>2022-08-07T06:07:42.000Z</time>
      </trkpt>
      <trkpt lat="44.18704" lon="0.69825">
        <ele>51</ele>
        <time>2022-08-07T06:07:43.000Z</time>
      </trkpt>
      <trkpt lat="44.18704" lon="0.69823">
        <ele>50</ele>
        <time>2022-08-07T06:07:44.000Z</time>
      </trkpt>
      <trkpt lat="44.18705" lon="0.69822">
        <ele>50</ele>
        <time>2022-08-07T06:07:45.000Z</time>
      </trkpt>
      <trkpt lat="44.18705" lon="0.6982">
        <ele>50</ele>
        <time>2022-08-07T06:07:46.000Z</time>
      </trkpt>
      <trkpt lat="44.18706" lon="0.69818">
        <ele>50</ele>
        <time>2022-08-07T06:07:47.000Z</time>
      </trkpt>
      <trkpt lat="44.18706" lon="0.69816">
        <ele>49</ele>
        <time>2022-08-07T06:07:48.000Z</time>
      </trkpt>
      <trkpt lat="44.18707" lon="0.69814">
        <ele>49</ele>
        <time>2022-08-07T06:07:49.000Z</time>
      </trkpt>
      <trkpt lat="44.18707" lon="0.69812">
        <ele>48</ele>
        <time>2022-08-07T06:07:50.000Z</time>
      </trkpt>
      <trkpt lat="44.18708" lon="0.69811">
        <ele>48</ele>
        <time>2022-08-07T06:07:51.000Z</time>
      </trkpt>
      <trkpt lat="44.18709" lon="0.69809">
        <ele>48</ele>
        <time>2022-08-07T06:07:52.000Z</time>
      </trkpt>
      <trkpt lat="44.18709" lon="0.69808">
        <ele>48</ele>
        <time>2022-08-07T06:07:53.000Z</time>
      </trkpt>
      <trkpt lat="44.1871" lon="0.69806">
        <ele>47</ele>
        <time>2022-08-07T06:07:54.000Z</time>
      </trkpt>
      <trkpt lat="44.18711" lon="0.69804">
        <ele>47</ele>
        <time>2022-08-07T06:07:55.000Z</time>
      </trkpt>
      <trkpt lat="44.18711" lon="0.69802">
        <ele>47</ele>
        <time>2022-08-07T06:07:56.000Z</time>
      </trkpt>
      <trkpt lat="44.18712" lon="0.69801">
        <ele>47</ele>
        <time>2022-08-07T06:07:57.000Z</time>
      </trkpt>
      <trkpt lat="44.18713" lon="0.69799">
        <ele>46</ele>
        <time>2022-08-07T06:07:58.000Z</time>
      </trkpt>
      <trkpt lat="44.18714" lon="0.69797">
        <ele>46</ele>
        <time>2022-08-07T06:07:59.000Z</time>
      </trkpt>
      <trkpt lat="44.18715" lon="0.69795">
        <ele>46</ele>
        <time>2022-08-07T06:08:00.000Z</time>
      </trkpt>
      <trkpt lat="44.18715" lon="0.69794">
        <ele>45</ele>
        <time>2022-08-07T06:08:01.000Z</time>
      </trkpt>
      <trkpt lat="44.18716" lon="0.69792">
        <ele>45</ele>
        <time>2022-08-07T06:08:02.000Z</time>
      </trkpt>
      <trkpt lat="44.18717" lon="0.69791">
        <ele>45</ele>
        <time>2022-08-07T06:08:03.000Z</time>
      </trkpt>
      <trkpt lat="44.18717" lon="0.69789">
        <ele>45</ele>
        <time>2022-08-07T06:08:04.000Z</time>
      </trkpt>
      <trkpt lat="44.18718" lon="0.69788">
        <ele>45</ele>
        <time>2022-08-07T06:08:05.000Z</time>
      </trkpt>
      <trkpt lat="44.18719" lon="0.69786">
        <ele>44</ele>
        <time>2022-08-07T06:08:06.000Z</time>
      </trkpt>
      <trkpt lat="44.1872" lon="0.69784">
        <ele>44</ele>
        <time>2022-08-07T06:08:07.000Z</time>
      </trkpt>
      <trkpt lat="44.1872" lon="0.69783">
        <ele>44</ele>
        <time>2022-08-07T06:08:08.000Z</time>
      </trkpt>
      <trkpt lat="44.18721" lon="0.69781">
        <ele>44</ele>
        <time>2022-08-07T06:08:09.000Z</time>
      </trkpt>
      <trkpt lat="44.18722" lon="0.6978">
        <ele>44</ele>
        <time>2022-08-07T06:08:10.000Z</time>
      </trkpt>
      <trkpt lat="44.18723" lon="0.69778">
        <ele>44</ele>
        <time>2022-08-07T06:08:11.000Z</time>
      </trkpt>
      <trkpt lat="44.18723" lon="0.69777">
        <ele>44</ele>
        <time>2022-08-07T06:08:12.000Z</time>
      </trkpt>
      <trkpt lat="44.18724" lon="0.69775">
        <ele>44</ele>
        <time>2022-08-07T06:08:13.000Z</time>
      </trkpt>
      <trkpt lat="44.18725" lon="0.69774">
        <ele>43</ele>
        <time>2022-08-07T06:08:14.000Z</time>
      </trkpt>
      <trkpt lat="44.18725" lon="0.69772">
        <ele>43</ele>
        <time>2022-08-07T06:08:15.000Z</time>
      </trkpt>
      <trkpt lat="44.18726" lon="0.69771">
        <ele>43</ele>
        <time>2022-08-07T06:08:16.000Z</time>
      </trkpt>
      <trkpt lat="44.18727" lon="0.69769">
        <ele>43</ele>
        <time>2022-08-07T06:08:17.000Z</time>
      </trkpt>
      <trkpt lat="44.18727" lon="0.69767">
        <ele>43</ele>
        <time>2022-08-07T06:08:18.000Z</time>
      </trkpt>
      <trkpt lat="44.18728" lon="0.69766">
        <ele>43</ele>
        <time>2022-08-07T06:08:19.000Z</time>
      </trkpt>
      <trkpt lat="44.18729" lon="0.69764">
        <ele>43</ele>
        <time>2022-08-07T06:08:20.000Z</time>
      </trkpt>
      <trkpt lat="44.18729" lon="0.69762">
        <ele>43</ele>
        <time>2022-08-07T06:08:21.000Z</time>
      </trkpt>
      <trkpt lat="44.1873" lon="0.6976">
        <ele>43</ele>
        <time>2022-08-07T06:08:22.000Z</time>
      </trkpt>
      <trkpt lat="44.18731" lon="0.69759">
        <ele>43</ele>
        <time>2022-08-07T06:08:23.000Z</time>
      </trkpt>
      <trkpt lat="44.18731" lon="0.69757">
        <ele>43</ele>
        <time>2022-08-07T06:08:24.000Z</time>
      </trkpt>
      <trkpt lat="44.18732" lon="0.69756">
        <ele>43</ele>
        <time>2022-08-07T06:08:25.000Z</time>
      </trkpt>
      <trkpt lat="44.18733" lon="0.69755">
        <ele>43</ele>
        <time>2022-08-07T06:08:26.000Z</time>
      </trkpt>
      <trkpt lat="44.18733" lon="0.69753">
        <ele>44</ele>
        <time>2022-08-07T06:08:27.000Z</time>
      </trkpt>
      <trkpt lat="44.18734" lon="0.69751">
        <ele>44</ele>
        <time>2022-08-07T06:08:28.000Z</time>
      </trkpt>
      <trkpt lat="44.18735" lon="0.6975">
        <ele>45</ele>
        <time>2022-08-07T06:08:29.000Z</time>
      </trkpt>
      <trkpt lat="44.18735" lon="0.69748">
        <ele>45</ele>
        <time>2022-08-07T06:08:30.000Z</time>
      </trkpt>
      <trkpt lat="44.18736" lon="0.69746">
        <ele>45</ele>
        <time>2022-08-07T06:08:31.000Z</time>
      </trkpt>
      <trkpt lat="44.18736" lon="0.69744">
        <ele>46</ele>
        <time>2022-08-07T06:08:32.000Z</time>
      </trkpt>
      <trkpt lat="44.18737" lon="0.69743">
        <ele>46</ele>
        <time>2022-08-07T06:08:33.000Z</time>
      </trkpt>
      <trkpt lat="44.18737" lon="0.69742">
        <ele>46</ele>
        <time>2022-08-07T06:08:34.000Z</time>
      </trkpt>
      <trkpt lat="44.18738" lon="0.6974">
        <ele>46</ele>
        <time>2022-08-07T06:08:35.000Z</time>
      </trkpt>
      <trkpt lat="44.18738" lon="0.69739">
        <ele>47</ele>
        <time>2022-08-07T06:08:36.000Z</time>
      </trkpt>
      <trkpt lat="44.18739" lon="0.69737">
        <ele>47</ele>
        <time>2022-08-07T06:08:37.000Z</time>
      </trkpt>
      <trkpt lat="44.18739" lon="0.69735">
        <ele>47</ele>
        <time>2022-08-07T06:08:38.000Z</time>
      </trkpt>
      <trkpt lat="44.1874" lon="0.69734">
        <ele>48</ele>
        <time>2022-08-07T06:08:39.000Z</time>
      </trkpt>
      <trkpt lat="44.18741" lon="0.69732">
        <ele>48</ele>
        <time>2022-08-07T06:08:40.000Z</time>
      </trkpt>
      <trkpt lat="44.18741" lon="0.6973">
        <ele>48</ele>
        <time>2022-08-07T06:08:41.000Z</time>
      </trkpt>
      <trkpt lat="44.18742" lon="0.69729">
        <ele>49</ele>
        <time>2022-08-07T06:08:42.000Z</time>
      </trkpt>
      <trkpt lat="44.18742" lon="0.69727">
        <ele>49</ele>
        <time>2022-08-07T06:08:43.000Z</time>
      </trkpt>
      <trkpt lat="44.18743" lon="0.69726">
        <ele>49</ele>
        <time>2022-08-07T06:08:44.000Z</time>
      </trkpt>
      <trkpt lat="44.18743" lon="0.69724">
        <ele>49</ele>
        <time>2022-08-07T06:08:45.000Z</time>
      </trkpt>
      <trkpt lat="44.18744" lon="0.69723">
        <ele>49</ele>
        <time>2022-08-07T06:08:46.000Z</time>
      </trkpt>
      <trkpt lat="44.18744" lon="0.69721">
        <ele>49</ele>
        <time>2022-08-07T06:08:47.000Z</time>
      </trkpt>
      <trkpt lat="44.18745" lon="0.69719">
        <ele>50</ele>
        <time>2022-08-07T06:08:48.000Z</time>
      </trkpt>
      <trkpt lat="44.18746" lon="0.69718">
        <ele>50</ele>
        <time>2022-08-07T06:08:49.000Z</time>
      </trkpt>
      <trkpt lat="44.18746" lon="0.69716">
        <ele>50</ele>
        <time>2022-08-07T06:08:50.000Z</time>
      </trkpt>
      <trkpt lat="44.18747" lon="0.69714">
        <ele>50</ele>
        <time>2022-08-07T06:08:51.000Z</time>
      </trkpt>
      <trkpt lat="44.18747" lon="0.69713">
        <ele>51</ele>
        <time>2022-08-07T06:08:52.000Z</time>
      </trkpt>
      <trkpt lat="44.18748" lon="0.69711">
        <ele>51</ele>
        <time>2022-08-07T06:08:53.000Z</time>
      </trkpt>
      <trkpt lat="44.18748" lon="0.6971">
        <ele>51</ele>
        <time>2022-08-07T06:08:54.000Z</time>
      </trkpt>
      <trkpt lat="44.18749" lon="0.69708">
        <ele>51</ele>
        <time>2022-08-07T06:08:55.000Z</time>
      </trkpt>
      <trkpt lat="44.1875" lon="0.69707">
        <ele>51</ele>
        <time>2022-08-07T06:08:56.000Z</time>
      </trkpt>
      <trkpt lat="44.1875" lon="0.69706">
        <ele>51</ele>
        <time>2022-08-07T06:08:57.000Z</time>
      </trkpt>
      <trkpt lat="44.18751" lon="0.69704">
        <ele>51</ele>
        <time>2022-08-07T06:08:58.000Z</time>
      </trkpt>
      <trkpt lat="44.18752" lon="0.69702">
        <ele>52</ele>
        <time>2022-08-07T06:08:59.000Z</time>
      </trkpt>
      <trkpt lat="44.18752" lon="0.69701">
        <ele>52</ele>
        <time>2022-08-07T06:09:00.000Z</time>
      </trkpt>
      <trkpt lat="44.18753" lon="0.697">
        <ele>52</ele>
        <time>2022-08-07T06:09:01.000Z</time>
      </trkpt>
      <trkpt lat="44.18754" lon="0.69699">
        <ele>52</ele>
        <time>2022-08-07T06:09:02.000Z</time>
      </trkpt>
      <trkpt lat="44.18754" lon="0.69697">
        <ele>52</ele>
        <time>2022-08-07T06:09:03.000Z</time>
      </trkpt>
      <trkpt lat="44.18754" lon="0.69695">
        <ele>53</ele>
        <time>2022-08-07T06:09:04.000Z</time>
      </trkpt>
      <trkpt lat="44.18754" lon="0.69693">
        <ele>53</ele>
        <time>2022-08-07T06:09:05.000Z</time>
      </trkpt>
      <trkpt lat="44.18755" lon="0.69691">
        <ele>53</ele>
        <time>2022-08-07T06:09:06.000Z</time>
      </trkpt>
      <trkpt lat="44.18755" lon="0.6969">
        <ele>53</ele>
        <time>2022-08-07T06:09:07.000Z</time>
      </trkpt>
      <trkpt lat="44.18756" lon="0.69689">
        <ele>53</ele>
        <time>2022-08-07T06:09:08.000Z</time>
      </trkpt>
      <trkpt lat="44.18756" lon="0.69687">
        <ele>54</ele>
        <time>2022-08-07T06:09:09.000Z</time>
      </trkpt>
      <trkpt lat="44.18756" lon="0.69686">
        <ele>54</ele>
        <time>2022-08-07T06:09:10.000Z</time>
      </trkpt>
      <trkpt lat="44.18757" lon="0.69684">
        <ele>54</ele>
        <time>2022-08-07T06:09:11.000Z</time>
      </trkpt>
      <trkpt lat="44.18757" lon="0.69682">
        <ele>54</ele>
        <time>2022-08-07T06:09:12.000Z</time>
      </trkpt>
      <trkpt lat="44.18758" lon="0.69681">
        <ele>54</ele>
        <time>2022-08-07T06:09:13.000Z</time>
      </trkpt>
      <trkpt lat="44.18759" lon="0.69679">
        <ele>54</ele>
        <time>2022-08-07T06:09:14.000Z</time>
      </trkpt>
      <trkpt lat="44.18759" lon="0.69678">
        <ele>54</ele>
        <time>2022-08-07T06:09:15.000Z</time>
      </trkpt>
      <trkpt lat="44.1876" lon="0.69676">
        <ele>54</ele>
        <time>2022-08-07T06:09:16.000Z</time>
      </trkpt>
      <trkpt lat="44.1876" lon="0.69674">
        <ele>55</ele>
        <time>2022-08-07T06:09:17.000Z</time>
      </trkpt>
      <trkpt lat="44.18761" lon="0.69672">
        <ele>55</ele>
        <time>2022-08-07T06:09:18.000Z</time>
      </trkpt>
      <trkpt lat="44.18761" lon="0.69671">
        <ele>55</ele>
        <time>2022-08-07T06:09:19.000Z</time>
      </trkpt>
      <trkpt lat="44.18761" lon="0.69669">
        <ele>55</ele>
        <time>2022-08-07T06:09:20.000Z</time>
      </trkpt>
      <trkpt lat="44.18761" lon="0.69668">
        <ele>57</ele>
        <time>2022-08-07T06:09:21.000Z</time>
      </trkpt>
      <trkpt lat="44.18761" lon="0.69666">
        <ele>57</ele>
        <time>2022-08-07T06:09:22.000Z</time>
      </trkpt>
      <trkpt lat="44.18761" lon="0.69664">
        <ele>58</ele>
        <time>2022-08-07T06:09:23.000Z</time>
      </trkpt>
      <trkpt lat="44.18761" lon="0.69663">
        <ele>60</ele>
        <time>2022-08-07T06:09:24.000Z</time>
      </trkpt>
      <trkpt lat="44.18761" lon="0.69661">
        <ele>60</ele>
        <time>2022-08-07T06:09:25.000Z</time>
      </trkpt>
      <trkpt lat="44.18762" lon="0.69659">
        <ele>60</ele>
        <time>2022-08-07T06:09:26.000Z</time>
      </trkpt>
      <trkpt lat="44.18762" lon="0.69657">
        <ele>61</ele>
        <time>2022-08-07T06:09:27.000Z</time>
      </trkpt>
      <trkpt lat="44.18762" lon="0.69656">
        <ele>61</ele>
        <time>2022-08-07T06:09:28.000Z</time>
      </trkpt>
      <trkpt lat="44.18762" lon="0.69654">
        <ele>61</ele>
        <time>2022-08-07T06:09:29.000Z</time>
      </trkpt>
      <trkpt lat="44.18763" lon="0.69653">
        <ele>61</ele>
        <time>2022-08-07T06:09:30.000Z</time>
      </trkpt>
      <trkpt lat="44.18763" lon="0.69652">
        <ele>61</ele>
        <time>2022-08-07T06:09:31.000Z</time>
      </trkpt>
      <trkpt lat="44.18764" lon="0.6965">
        <ele>61</ele>
        <time>2022-08-07T06:09:32.000Z</time>
      </trkpt>
      <trkpt lat="44.18764" lon="0.69649">
        <ele>61</ele>
        <time>2022-08-07T06:09:33.000Z</time>
      </trkpt>
      <trkpt lat="44.18765" lon="0.69647">
        <ele>61</ele>
        <time>2022-08-07T06:09:34.000Z</time>
      </trkpt>
      <trkpt lat="44.18765" lon="0.69645">
        <ele>60</ele>
        <time>2022-08-07T06:09:35.000Z</time>
      </trkpt>
      <trkpt lat="44.18766" lon="0.69644">
        <ele>60</ele>
        <time>2022-08-07T06:09:36.000Z</time>
      </trkpt>
      <trkpt lat="44.18766" lon="0.69642">
        <ele>60</ele>
        <time>2022-08-07T06:09:37.000Z</time>
      </trkpt>
      <trkpt lat="44.18767" lon="0.6964">
        <ele>60</ele>
        <time>2022-08-07T06:09:38.000Z</time>
      </trkpt>
      <trkpt lat="44.18767" lon="0.69639">
        <ele>60</ele>
        <time>2022-08-07T06:09:39.000Z</time>
      </trkpt>
      <trkpt lat="44.18768" lon="0.69638">
        <ele>61</ele>
        <time>2022-08-07T06:09:40.000Z</time>
      </trkpt>
      <trkpt lat="44.18768" lon="0.69636">
        <ele>61</ele>
        <time>2022-08-07T06:09:41.000Z</time>
      </trkpt>
      <trkpt lat="44.18768" lon="0.69635">
        <ele>61</ele>
        <time>2022-08-07T06:09:42.000Z</time>
      </trkpt>
      <trkpt lat="44.18768" lon="0.69633">
        <ele>61</ele>
        <time>2022-08-07T06:09:43.000Z</time>
      </trkpt>
      <trkpt lat="44.18769" lon="0.69632">
        <ele>61</ele>
        <time>2022-08-07T06:09:44.000Z</time>
      </trkpt>
      <trkpt lat="44.1877" lon="0.6963">
        <ele>61</ele>
        <time>2022-08-07T06:09:45.000Z</time>
      </trkpt>
      <trkpt lat="44.1877" lon="0.69629">
        <ele>62</ele>
        <time>2022-08-07T06:09:46.000Z</time>
      </trkpt>
      <trkpt lat="44.18771" lon="0.69627">
        <ele>62</ele>
        <time>2022-08-07T06:09:47.000Z</time>
      </trkpt>
      <trkpt lat="44.18771" lon="0.69625">
        <ele>62</ele>
        <time>2022-08-07T06:09:48.000Z</time>
      </trkpt>
      <trkpt lat="44.18771" lon="0.69624">
        <ele>63</ele>
        <time>2022-08-07T06:09:49.000Z</time>
      </trkpt>
      <trkpt lat="44.18772" lon="0.69622">
        <ele>62</ele>
        <time>2022-08-07T06:09:50.000Z</time>
      </trkpt>
      <trkpt lat="44.18772" lon="0.69621">
        <ele>63</ele>
        <time>2022-08-07T06:09:51.000Z</time>
      </trkpt>
      <trkpt lat="44.18772" lon="0.69619">
        <ele>63</ele>
        <time>2022-08-07T06:09:52.000Z</time>
      </trkpt>
      <trkpt lat="44.18772" lon="0.69617">
        <ele>64</ele>
        <time>2022-08-07T06:09:53.000Z</time>
      </trkpt>
      <trkpt lat="44.18772" lon="0.69616">
        <ele>64</ele>
        <time>2022-08-07T06:09:54.000Z</time>
      </trkpt>
      <trkpt lat="44.18772" lon="0.69614">
        <ele>65</ele>
        <time>2022-08-07T06:09:55.000Z</time>
      </trkpt>
      <trkpt lat="44.18772" lon="0.69612">
        <ele>65</ele>
        <time>2022-08-07T06:09:56.000Z</time>
      </trkpt>
      <trkpt lat="44.18773" lon="0.69611">
        <ele>65</ele>
        <time>2022-08-07T06:09:57.000Z</time>
      </trkpt>
      <trkpt lat="44.18773" lon="0.6961">
        <ele>65</ele>
        <time>2022-08-07T06:09:58.000Z</time>
      </trkpt>
      <trkpt lat="44.18773" lon="0.69609">
        <ele>65</ele>
        <time>2022-08-07T06:09:59.000Z</time>
      </trkpt>
      <trkpt lat="44.18773" lon="0.69607">
        <ele>65</ele>
        <time>2022-08-07T06:10:00.000Z</time>
      </trkpt>
      <trkpt lat="44.18774" lon="0.69606">
        <ele>65</ele>
        <time>2022-08-07T06:10:01.000Z</time>
      </trkpt>
      <trkpt lat="44.18774" lon="0.69604">
        <ele>66</ele>
        <time>2022-08-07T06:10:02.000Z</time>
      </trkpt>
      <trkpt lat="44.18774" lon="0.69603">
        <ele>65</ele>
        <time>2022-08-07T06:10:03.000Z</time>
      </trkpt>
      <trkpt lat="44.18775" lon="0.69601">
        <ele>66</ele>
        <time>2022-08-07T06:10:04.000Z</time>
      </trkpt>
      <trkpt lat="44.18775" lon="0.696">
        <ele>66</ele>
        <time>2022-08-07T06:10:05.000Z</time>
      </trkpt>
      <trkpt lat="44.18775" lon="0.69598">
        <ele>65</ele>
        <time>2022-08-07T06:10:06.000Z</time>
      </trkpt>
      <trkpt lat="44.18775" lon="0.69596">
        <ele>66</ele>
        <time>2022-08-07T06:10:07.000Z</time>
      </trkpt>
      <trkpt lat="44.18775" lon="0.69595">
        <ele>66</ele>
        <time>2022-08-07T06:10:08.000Z</time>
      </trkpt>
      <trkpt lat="44.18776" lon="0.69593">
        <ele>66</ele>
        <time>2022-08-07T06:10:09.000Z</time>
      </trkpt>
      <trkpt lat="44.18776" lon="0.69592">
        <ele>66</ele>
        <time>2022-08-07T06:10:10.000Z</time>
      </trkpt>
      <trkpt lat="44.18776" lon="0.6959">
        <ele>66</ele>
        <time>2022-08-07T06:10:11.000Z</time>
      </trkpt>
      <trkpt lat="44.18776" lon="0.69589">
        <ele>66</ele>
        <time>2022-08-07T06:10:12.000Z</time>
      </trkpt>
      <trkpt lat="44.18777" lon="0.69587">
        <ele>65</ele>
        <time>2022-08-07T06:10:13.000Z</time>
      </trkpt>
      <trkpt lat="44.18777" lon="0.69585">
        <ele>66</ele>
        <time>2022-08-07T06:10:14.000Z</time>
      </trkpt>
      <trkpt lat="44.18778" lon="0.69584">
        <ele>66</ele>
        <time>2022-08-07T06:10:15.000Z</time>
      </trkpt>
      <trkpt lat="44.18778" lon="0.69582">
        <ele>66</ele>
        <time>2022-08-07T06:10:16.000Z</time>
      </trkpt>
      <trkpt lat="44.18778" lon="0.6958">
        <ele>66</ele>
        <time>2022-08-07T06:10:17.000Z</time>
      </trkpt>
      <trkpt lat="44.18779" lon="0.69579">
        <ele>66</ele>
        <time>2022-08-07T06:10:18.000Z</time>
      </trkpt>
      <trkpt lat="44.18779" lon="0.69577">
        <ele>66</ele>
        <time>2022-08-07T06:10:19.000Z</time>
      </trkpt>
      <trkpt lat="44.18779" lon="0.69575">
        <ele>66</ele>
        <time>2022-08-07T06:10:20.000Z</time>
      </trkpt>
      <trkpt lat="44.1878" lon="0.69574">
        <ele>66</ele>
        <time>2022-08-07T06:10:21.000Z</time>
      </trkpt>
      <trkpt lat="44.1878" lon="0.69572">
        <ele>66</ele>
        <time>2022-08-07T06:10:22.000Z</time>
      </trkpt>
      <trkpt lat="44.18781" lon="0.6957">
        <ele>66</ele>
        <time>2022-08-07T06:10:23.000Z</time>
      </trkpt>
      <trkpt lat="44.18781" lon="0.69569">
        <ele>66</ele>
        <time>2022-08-07T06:10:24.000Z</time>
      </trkpt>
      <trkpt lat="44.18781" lon="0.69567">
        <ele>67</ele>
        <time>2022-08-07T06:10:25.000Z</time>
      </trkpt>
      <trkpt lat="44.18781" lon="0.69566">
        <ele>67</ele>
        <time>2022-08-07T06:10:26.000Z</time>
      </trkpt>
      <trkpt lat="44.18782" lon="0.69564">
        <ele>67</ele>
        <time>2022-08-07T06:10:27.000Z</time>
      </trkpt>
      <trkpt lat="44.18782" lon="0.69563">
        <ele>67</ele>
        <time>2022-08-07T06:10:28.000Z</time>
      </trkpt>
      <trkpt lat="44.18783" lon="0.69561">
        <ele>66</ele>
        <time>2022-08-07T06:10:29.000Z</time>
      </trkpt>
      <trkpt lat="44.18783" lon="0.6956">
        <ele>66</ele>
        <time>2022-08-07T06:10:30.000Z</time>
      </trkpt>
      <trkpt lat="44.18784" lon="0.69558">
        <ele>66</ele>
        <time>2022-08-07T06:10:31.000Z</time>
      </trkpt>
      <trkpt lat="44.18784" lon="0.69557">
        <ele>66</ele>
        <time>2022-08-07T06:10:32.000Z</time>
      </trkpt>
      <trkpt lat="44.18784" lon="0.69555">
        <ele>66</ele>
        <time>2022-08-07T06:10:33.000Z</time>
      </trkpt>
      <trkpt lat="44.18785" lon="0.69554">
        <ele>66</ele>
        <time>2022-08-07T06:10:34.000Z</time>
      </trkpt>
      <trkpt lat="44.18785" lon="0.69553">
        <ele>65</ele>
        <time>2022-08-07T06:10:35.000Z</time>
      </trkpt>
      <trkpt lat="44.18786" lon="0.69551">
        <ele>65</ele>
        <time>2022-08-07T06:10:36.000Z</time>
      </trkpt>
      <trkpt lat="44.18786" lon="0.69549">
        <ele>64</ele>
        <time>2022-08-07T06:10:37.000Z</time>
      </trkpt>
      <trkpt lat="44.18787" lon="0.69548">
        <ele>65</ele>
        <time>2022-08-07T06:10:38.000Z</time>
      </trkpt>
      <trkpt lat="44.18787" lon="0.69546">
        <ele>64</ele>
        <time>2022-08-07T06:10:39.000Z</time>
      </trkpt>
      <trkpt lat="44.18787" lon="0.69545">
        <ele>64</ele>
        <time>2022-08-07T06:10:40.000Z</time>
      </trkpt>
      <trkpt lat="44.18787" lon="0.69543">
        <ele>65</ele>
        <time>2022-08-07T06:10:41.000Z</time>
      </trkpt>
      <trkpt lat="44.18788" lon="0.69542">
        <ele>65</ele>
        <time>2022-08-07T06:10:42.000Z</time>
      </trkpt>
      <trkpt lat="44.18788" lon="0.6954">
        <ele>64</ele>
        <time>2022-08-07T06:10:43.000Z</time>
      </trkpt>
      <trkpt lat="44.18789" lon="0.69538">
        <ele>64</ele>
        <time>2022-08-07T06:10:44.000Z</time>
      </trkpt>
      <trkpt lat="44.18789" lon="0.69537">
        <ele>64</ele>
        <time>2022-08-07T06:10:45.000Z</time>
      </trkpt>
      <trkpt lat="44.1879" lon="0.69535">
        <ele>64</ele>
        <time>2022-08-07T06:10:46.000Z</time>
      </trkpt>
      <trkpt lat="44.1879" lon="0.69533">
        <ele>64</ele>
        <time>2022-08-07T06:10:47.000Z</time>
      </trkpt>
      <trkpt lat="44.18791" lon="0.69532">
        <ele>64</ele>
        <time>2022-08-07T06:10:48.000Z</time>
      </trkpt>
      <trkpt lat="44.18791" lon="0.6953">
        <ele>63</ele>
        <time>2022-08-07T06:10:49.000Z</time>
      </trkpt>
      <trkpt lat="44.18792" lon="0.69528">
        <ele>63</ele>
        <time>2022-08-07T06:10:50.000Z</time>
      </trkpt>
      <trkpt lat="44.18792" lon="0.69527">
        <ele>64</ele>
        <time>2022-08-07T06:10:51.000Z</time>
      </trkpt>
      <trkpt lat="44.18793" lon="0.69525">
        <ele>64</ele>
        <time>2022-08-07T06:10:52.000Z</time>
      </trkpt>
      <trkpt lat="44.18793" lon="0.69524">
        <ele>63</ele>
        <time>2022-08-07T06:10:53.000Z</time>
      </trkpt>
      <trkpt lat="44.18794" lon="0.69522">
        <ele>63</ele>
        <time>2022-08-07T06:10:54.000Z</time>
      </trkpt>
      <trkpt lat="44.18794" lon="0.69521">
        <ele>63</ele>
        <time>2022-08-07T06:10:55.000Z</time>
      </trkpt>
      <trkpt lat="44.18795" lon="0.69519">
        <ele>64</ele>
        <time>2022-08-07T06:10:56.000Z</time>
      </trkpt>
      <trkpt lat="44.18795" lon="0.69518">
        <ele>64</ele>
        <time>2022-08-07T06:10:57.000Z</time>
      </trkpt>
      <trkpt lat="44.18796" lon="0.69516">
        <ele>63</ele>
        <time>2022-08-07T06:10:58.000Z</time>
      </trkpt>
      <trkpt lat="44.18797" lon="0.69514">
        <ele>63</ele>
        <time>2022-08-07T06:10:59.000Z</time>
      </trkpt>
      <trkpt lat="44.18797" lon="0.69513">
        <ele>63</ele>
        <time>2022-08-07T06:11:00.000Z</time>
      </trkpt>
      <trkpt lat="44.18798" lon="0.69512">
        <ele>62</ele>
        <time>2022-08-07T06:11:01.000Z</time>
      </trkpt>
      <trkpt lat="44.18799" lon="0.6951">
        <ele>62</ele>
        <time>2022-08-07T06:11:02.000Z</time>
      </trkpt>
      <trkpt lat="44.18799" lon="0.69509">
        <ele>62</ele>
        <time>2022-08-07T06:11:03.000Z</time>
      </trkpt>
      <trkpt lat="44.188" lon="0.69508">
        <ele>62</ele>
        <time>2022-08-07T06:11:04.000Z</time>
      </trkpt>
      <trkpt lat="44.18801" lon="0.69507">
        <ele>62</ele>
        <time>2022-08-07T06:11:05.000Z</time>
      </trkpt>
      <trkpt lat="44.18801" lon="0.69505">
        <ele>62</ele>
        <time>2022-08-07T06:11:06.000Z</time>
      </trkpt>
      <trkpt lat="44.18801" lon="0.69504">
        <ele>62</ele>
        <time>2022-08-07T06:11:07.000Z</time>
      </trkpt>
      <trkpt lat="44.18802" lon="0.69502">
        <ele>62</ele>
        <time>2022-08-07T06:11:08.000Z</time>
      </trkpt>
      <trkpt lat="44.18803" lon="0.69501">
        <ele>62</ele>
        <time>2022-08-07T06:11:09.000Z</time>
      </trkpt>
      <trkpt lat="44.18803" lon="0.69499">
        <ele>62</ele>
        <time>2022-08-07T06:11:10.000Z</time>
      </trkpt>
      <trkpt lat="44.18804" lon="0.69498">
        <ele>62</ele>
        <time>2022-08-07T06:11:11.000Z</time>
      </trkpt>
      <trkpt lat="44.18805" lon="0.69496">
        <ele>62</ele>
        <time>2022-08-07T06:11:12.000Z</time>
      </trkpt>
      <trkpt lat="44.18805" lon="0.69495">
        <ele>61</ele>
        <time>2022-08-07T06:11:13.000Z</time>
      </trkpt>
      <trkpt lat="44.18806" lon="0.69494">
        <ele>61</ele>
        <time>2022-08-07T06:11:14.000Z</time>
      </trkpt>
      <trkpt lat="44.18806" lon="0.69492">
        <ele>62</ele>
        <time>2022-08-07T06:11:15.000Z</time>
      </trkpt>
      <trkpt lat="44.18807" lon="0.69491">
        <ele>62</ele>
        <time>2022-08-07T06:11:16.000Z</time>
      </trkpt>
      <trkpt lat="44.18807" lon="0.6949">
        <ele>62</ele>
        <time>2022-08-07T06:11:17.000Z</time>
      </trkpt>
      <trkpt lat="44.18808" lon="0.69488">
        <ele>62</ele>
        <time>2022-08-07T06:11:18.000Z</time>
      </trkpt>
      <trkpt lat="44.18808" lon="0.69486">
        <ele>62</ele>
        <time>2022-08-07T06:11:19.000Z</time>
      </trkpt>
      <trkpt lat="44.18809" lon="0.69485">
        <ele>61</ele>
        <time>2022-08-07T06:11:20.000Z</time>
      </trkpt>
      <trkpt lat="44.18809" lon="0.69484">
        <ele>61</ele>
        <time>2022-08-07T06:11:21.000Z</time>
      </trkpt>
      <trkpt lat="44.1881" lon="0.69483">
        <ele>62</ele>
        <time>2022-08-07T06:11:22.000Z</time>
      </trkpt>
      <trkpt lat="44.1881" lon="0.69482">
        <ele>61</ele>
        <time>2022-08-07T06:11:23.000Z</time>
      </trkpt>
      <trkpt lat="44.1881" lon="0.6948">
        <ele>62</ele>
        <time>2022-08-07T06:11:24.000Z</time>
      </trkpt>
      <trkpt lat="44.18811" lon="0.69479">
        <ele>62</ele>
        <time>2022-08-07T06:11:25.000Z</time>
      </trkpt>
      <trkpt lat="44.18811" lon="0.69477">
        <ele>62</ele>
        <time>2022-08-07T06:11:26.000Z</time>
      </trkpt>
      <trkpt lat="44.18812" lon="0.69476">
        <ele>62</ele>
        <time>2022-08-07T06:11:27.000Z</time>
      </trkpt>
      <trkpt lat="44.18813" lon="0.69474">
        <ele>62</ele>
        <time>2022-08-07T06:11:28.000Z</time>
      </trkpt>
      <trkpt lat="44.18813" lon="0.69472">
        <ele>63</ele>
        <time>2022-08-07T06:11:29.000Z</time>
      </trkpt>
      <trkpt lat="44.18814" lon="0.69471">
        <ele>62</ele>
        <time>2022-08-07T06:11:30.000Z</time>
      </trkpt>
      <trkpt lat="44.18814" lon="0.69469">
        <ele>63</ele>
        <time>2022-08-07T06:11:31.000Z</time>
      </trkpt>
      <trkpt lat="44.18814" lon="0.69468">
        <ele>63</ele>
        <time>2022-08-07T06:11:32.000Z</time>
      </trkpt>
      <trkpt lat="44.18815" lon="0.69466">
        <ele>63</ele>
        <time>2022-08-07T06:11:33.000Z</time>
      </trkpt>
      <trkpt lat="44.18816" lon="0.69465">
        <ele>63</ele>
        <time>2022-08-07T06:11:34.000Z</time>
      </trkpt>
      <trkpt lat="44.18816" lon="0.69463">
        <ele>63</ele>
        <time>2022-08-07T06:11:35.000Z</time>
      </trkpt>
      <trkpt lat="44.18817" lon="0.69462">
        <ele>63</ele>
        <time>2022-08-07T06:11:36.000Z</time>
      </trkpt>
      <trkpt lat="44.18817" lon="0.6946">
        <ele>63</ele>
        <time>2022-08-07T06:11:37.000Z</time>
      </trkpt>
      <trkpt lat="44.18818" lon="0.69459">
        <ele>63</ele>
        <time>2022-08-07T06:11:38.000Z</time>
      </trkpt>
      <trkpt lat="44.18819" lon="0.69457">
        <ele>63</ele>
        <time>2022-08-07T06:11:39.000Z</time>
      </trkpt>
      <trkpt lat="44.18819" lon="0.69455">
        <ele>63</ele>
        <time>2022-08-07T06:11:40.000Z</time>
      </trkpt>
      <trkpt lat="44.1882" lon="0.69454">
        <ele>64</ele>
        <time>2022-08-07T06:11:41.000Z</time>
      </trkpt>
      <trkpt lat="44.18821" lon="0.69453">
        <ele>64</ele>
        <time>2022-08-07T06:11:42.000Z</time>
      </trkpt>
      <trkpt lat="44.18821" lon="0.69451">
        <ele>63</ele>
        <time>2022-08-07T06:11:43.000Z</time>
      </trkpt>
      <trkpt lat="44.18822" lon="0.6945">
        <ele>64</ele>
        <time>2022-08-07T06:11:44.000Z</time>
      </trkpt>
      <trkpt lat="44.18822" lon="0.69448">
        <ele>63</ele>
        <time>2022-08-07T06:11:45.000Z</time>
      </trkpt>
      <trkpt lat="44.18823" lon="0.69447">
        <ele>63</ele>
        <time>2022-08-07T06:11:46.000Z</time>
      </trkpt>
      <trkpt lat="44.18824" lon="0.69445">
        <ele>64</ele>
        <time>2022-08-07T06:11:47.000Z</time>
      </trkpt>
      <trkpt lat="44.18825" lon="0.69444">
        <ele>64</ele>
        <time>2022-08-07T06:11:48.000Z</time>
      </trkpt>
      <trkpt lat="44.18825" lon="0.69442">
        <ele>64</ele>
        <time>2022-08-07T06:11:49.000Z</time>
      </trkpt>
      <trkpt lat="44.18826" lon="0.6944">
        <ele>64</ele>
        <time>2022-08-07T06:11:50.000Z</time>
      </trkpt>
      <trkpt lat="44.18827" lon="0.69439">
        <ele>63</ele>
        <time>2022-08-07T06:11:51.000Z</time>
      </trkpt>
      <trkpt lat="44.18827" lon="0.69437">
        <ele>63</ele>
        <time>2022-08-07T06:11:52.000Z</time>
      </trkpt>
      <trkpt lat="44.18828" lon="0.69436">
        <ele>63</ele>
        <time>2022-08-07T06:11:53.000Z</time>
      </trkpt>
      <trkpt lat="44.18829" lon="0.69434">
        <ele>63</ele>
        <time>2022-08-07T06:11:54.000Z</time>
      </trkpt>
      <trkpt lat="44.18829" lon="0.69433">
        <ele>64</ele>
        <time>2022-08-07T06:11:55.000Z</time>
      </trkpt>
      <trkpt lat="44.1883" lon="0.69432">
        <ele>64</ele>
        <time>2022-08-07T06:11:56.000Z</time>
      </trkpt>
      <trkpt lat="44.18831" lon="0.6943">
        <ele>64</ele>
        <time>2022-08-07T06:11:57.000Z</time>
      </trkpt>
      <trkpt lat="44.18831" lon="0.69429">
        <ele>66</ele>
        <time>2022-08-07T06:11:58.000Z</time>
      </trkpt>
      <trkpt lat="44.18832" lon="0.69427">
        <ele>66</ele>
        <time>2022-08-07T06:11:59.000Z</time>
      </trkpt>
      <trkpt lat="44.18832" lon="0.69426">
        <ele>66</ele>
        <time>2022-08-07T06:12:00.000Z</time>
      </trkpt>
      <trkpt lat="44.18833" lon="0.69425">
        <ele>66</ele>
        <time>2022-08-07T06:12:01.000Z</time>
      </trkpt>
      <trkpt lat="44.18834" lon="0.69424">
        <ele>66</ele>
        <time>2022-08-07T06:12:02.000Z</time>
      </trkpt>
      <trkpt lat="44.18835" lon="0.69423">
        <ele>66</ele>
        <time>2022-08-07T06:12:03.000Z</time>
      </trkpt>
      <trkpt lat="44.18836" lon="0.69422">
        <ele>65</ele>
        <time>2022-08-07T06:12:04.000Z</time>
      </trkpt>
      <trkpt lat="44.18837" lon="0.6942">
        <ele>65</ele>
        <time>2022-08-07T06:12:05.000Z</time>
      </trkpt>
      <trkpt lat="44.18838" lon="0.69419">
        <ele>65</ele>
        <time>2022-08-07T06:12:06.000Z</time>
      </trkpt>
      <trkpt lat="44.18839" lon="0.69418">
        <ele>65</ele>
        <time>2022-08-07T06:12:07.000Z</time>
      </trkpt>
      <trkpt lat="44.1884" lon="0.69418">
        <ele>65</ele>
        <time>2022-08-07T06:12:08.000Z</time>
      </trkpt>
      <trkpt lat="44.18841" lon="0.69417">
        <ele>65</ele>
        <time>2022-08-07T06:12:09.000Z</time>
      </trkpt>
      <trkpt lat="44.18842" lon="0.69416">
        <ele>65</ele>
        <time>2022-08-07T06:12:10.000Z</time>
      </trkpt>
      <trkpt lat="44.18843" lon="0.69415">
        <ele>65</ele>
        <time>2022-08-07T06:12:11.000Z</time>
      </trkpt>
      <trkpt lat="44.18844" lon="0.69414">
        <ele>65</ele>
        <time>2022-08-07T06:12:12.000Z</time>
      </trkpt>
      <trkpt lat="44.18844" lon="0.69413">
        <ele>65</ele>
        <time>2022-08-07T06:12:13.000Z</time>
      </trkpt>
      <trkpt lat="44.18845" lon="0.69412">
        <ele>65</ele>
        <time>2022-08-07T06:12:14.000Z</time>
      </trkpt>
      <trkpt lat="44.18846" lon="0.69411">
        <ele>65</ele>
        <time>2022-08-07T06:12:15.000Z</time>
      </trkpt>
      <trkpt lat="44.18848" lon="0.6941">
        <ele>66</ele>
        <time>2022-08-07T06:12:16.000Z</time>
      </trkpt>
      <trkpt lat="44.18849" lon="0.69409">
        <ele>66</ele>
        <time>2022-08-07T06:12:17.000Z</time>
      </trkpt>
      <trkpt lat="44.1885" lon="0.69408">
        <ele>66</ele>
        <time>2022-08-07T06:12:18.000Z</time>
      </trkpt>
      <trkpt lat="44.18851" lon="0.69406">
        <ele>66</ele>
        <time>2022-08-07T06:12:19.000Z</time>
      </trkpt>
      <trkpt lat="44.18852" lon="0.69405">
        <ele>66</ele>
        <time>2022-08-07T06:12:20.000Z</time>
      </trkpt>
      <trkpt lat="44.18853" lon="0.69404">
        <ele>66</ele>
        <time>2022-08-07T06:12:21.000Z</time>
      </trkpt>
      <trkpt lat="44.18854" lon="0.69403">
        <ele>66</ele>
        <time>2022-08-07T06:12:22.000Z</time>
      </trkpt>
      <trkpt lat="44.18855" lon="0.69403">
        <ele>66</ele>
        <time>2022-08-07T06:12:23.000Z</time>
      </trkpt>
      <trkpt lat="44.18856" lon="0.69402">
        <ele>66</ele>
        <time>2022-08-07T06:12:24.000Z</time>
      </trkpt>
      <trkpt lat="44.18857" lon="0.69401">
        <ele>66</ele>
        <time>2022-08-07T06:12:25.000Z</time>
      </trkpt>
      <trkpt lat="44.18858" lon="0.694">
        <ele>66</ele>
        <time>2022-08-07T06:12:26.000Z</time>
      </trkpt>
      <trkpt lat="44.18859" lon="0.69399">
        <ele>66</ele>
        <time>2022-08-07T06:12:27.000Z</time>
      </trkpt>
      <trkpt lat="44.1886" lon="0.69398">
        <ele>66</ele>
        <time>2022-08-07T06:12:28.000Z</time>
      </trkpt>
      <trkpt lat="44.18861" lon="0.69397">
        <ele>66</ele>
        <time>2022-08-07T06:12:29.000Z</time>
      </trkpt>
      <trkpt lat="44.18862" lon="0.69396">
        <ele>66</ele>
        <time>2022-08-07T06:12:30.000Z</time>
      </trkpt>
      <trkpt lat="44.18863" lon="0.69395">
        <ele>66</ele>
        <time>2022-08-07T06:12:31.000Z</time>
      </trkpt>
      <trkpt lat="44.18863" lon="0.69394">
        <ele>66</ele>
        <time>2022-08-07T06:12:32.000Z</time>
      </trkpt>
      <trkpt lat="44.18864" lon="0.69393">
        <ele>66</ele>
        <time>2022-08-07T06:12:33.000Z</time>
      </trkpt>
      <trkpt lat="44.18865" lon="0.69392">
        <ele>66</ele>
        <time>2022-08-07T06:12:34.000Z</time>
      </trkpt>
      <trkpt lat="44.18866" lon="0.69391">
        <ele>66</ele>
        <time>2022-08-07T06:12:35.000Z</time>
      </trkpt>
      <trkpt lat="44.18867" lon="0.6939">
        <ele>66</ele>
        <time>2022-08-07T06:12:36.000Z</time>
      </trkpt>
      <trkpt lat="44.18869" lon="0.69389">
        <ele>66</ele>
        <time>2022-08-07T06:12:37.000Z</time>
      </trkpt>
      <trkpt lat="44.1887" lon="0.69388">
        <ele>65</ele>
        <time>2022-08-07T06:12:38.000Z</time>
      </trkpt>
      <trkpt lat="44.18871" lon="0.69387">
        <ele>66</ele>
        <time>2022-08-07T06:12:39.000Z</time>
      </trkpt>
      <trkpt lat="44.18872" lon="0.69386">
        <ele>66</ele>
        <time>2022-08-07T06:12:40.000Z</time>
      </trkpt>
      <trkpt lat="44.18873" lon="0.69385">
        <ele>66</ele>
        <time>2022-08-07T06:12:41.000Z</time>
      </trkpt>
      <trkpt lat="44.18874" lon="0.69384">
        <ele>66</ele>
        <time>2022-08-07T06:12:42.000Z</time>
      </trkpt>
      <trkpt lat="44.18875" lon="0.69383">
        <ele>66</ele>
        <time>2022-08-07T06:12:43.000Z</time>
      </trkpt>
      <trkpt lat="44.18876" lon="0.69382">
        <ele>66</ele>
        <time>2022-08-07T06:12:44.000Z</time>
      </trkpt>
      <trkpt lat="44.18876" lon="0.6938">
        <ele>66</ele>
        <time>2022-08-07T06:12:45.000Z</time>
      </trkpt>
      <trkpt lat="44.18877" lon="0.69379">
        <ele>66</ele>
        <time>2022-08-07T06:12:46.000Z</time>
      </trkpt>
      <trkpt lat="44.18878" lon="0.69378">
        <ele>66</ele>
        <time>2022-08-07T06:12:47.000Z</time>
      </trkpt>
      <trkpt lat="44.18879" lon="0.69377">
        <ele>66</ele>
        <time>2022-08-07T06:12:48.000Z</time>
      </trkpt>
      <trkpt lat="44.18879" lon="0.69375">
        <ele>66</ele>
        <time>2022-08-07T06:12:49.000Z</time>
      </trkpt>
      <trkpt lat="44.1888" lon="0.69374">
        <ele>66</ele>
        <time>2022-08-07T06:12:50.000Z</time>
      </trkpt>
      <trkpt lat="44.18881" lon="0.69373">
        <ele>66</ele>
        <time>2022-08-07T06:12:51.000Z</time>
      </trkpt>
      <trkpt lat="44.18882" lon="0.69372">
        <ele>66</ele>
        <time>2022-08-07T06:12:52.000Z</time>
      </trkpt>
      <trkpt lat="44.18883" lon="0.6937">
        <ele>66</ele>
        <time>2022-08-07T06:12:53.000Z</time>
      </trkpt>
      <trkpt lat="44.18884" lon="0.69369">
        <ele>65</ele>
        <time>2022-08-07T06:12:54.000Z</time>
      </trkpt>
      <trkpt lat="44.18885" lon="0.69368">
        <ele>65</ele>
        <time>2022-08-07T06:12:55.000Z</time>
      </trkpt>
      <trkpt lat="44.18886" lon="0.69367">
        <ele>65</ele>
        <time>2022-08-07T06:12:56.000Z</time>
      </trkpt>
      <trkpt lat="44.18887" lon="0.69365">
        <ele>65</ele>
        <time>2022-08-07T06:12:57.000Z</time>
      </trkpt>
      <trkpt lat="44.18888" lon="0.69364">
        <ele>65</ele>
        <time>2022-08-07T06:12:58.000Z</time>
      </trkpt>
      <trkpt lat="44.18888" lon="0.69363">
        <ele>64</ele>
        <time>2022-08-07T06:12:59.000Z</time>
      </trkpt>
      <trkpt lat="44.18889" lon="0.69361">
        <ele>65</ele>
        <time>2022-08-07T06:13:00.000Z</time>
      </trkpt>
      <trkpt lat="44.1889" lon="0.6936">
        <ele>65</ele>
        <time>2022-08-07T06:13:01.000Z</time>
      </trkpt>
      <trkpt lat="44.18891" lon="0.69359">
        <ele>65</ele>
        <time>2022-08-07T06:13:02.000Z</time>
      </trkpt>
      <trkpt lat="44.18891" lon="0.69357">
        <ele>64</ele>
        <time>2022-08-07T06:13:03.000Z</time>
      </trkpt>
      <trkpt lat="44.18892" lon="0.69356">
        <ele>65</ele>
        <time>2022-08-07T06:13:04.000Z</time>
      </trkpt>
      <trkpt lat="44.18892" lon="0.69354">
        <ele>64</ele>
        <time>2022-08-07T06:13:05.000Z</time>
      </trkpt>
      <trkpt lat="44.18893" lon="0.69353">
        <ele>64</ele>
        <time>2022-08-07T06:13:06.000Z</time>
      </trkpt>
      <trkpt lat="44.18894" lon="0.69351">
        <ele>64</ele>
        <time>2022-08-07T06:13:07.000Z</time>
      </trkpt>
      <trkpt lat="44.18895" lon="0.6935">
        <ele>64</ele>
        <time>2022-08-07T06:13:08.000Z</time>
      </trkpt>
      <trkpt lat="44.18896" lon="0.69349">
        <ele>64</ele>
        <time>2022-08-07T06:13:09.000Z</time>
      </trkpt>
      <trkpt lat="44.18896" lon="0.69347">
        <ele>64</ele>
        <time>2022-08-07T06:13:10.000Z</time>
      </trkpt>
      <trkpt lat="44.18897" lon="0.69346">
        <ele>64</ele>
        <time>2022-08-07T06:13:11.000Z</time>
      </trkpt>
      <trkpt lat="44.18898" lon="0.69345">
        <ele>64</ele>
        <time>2022-08-07T06:13:12.000Z</time>
      </trkpt>
      <trkpt lat="44.18898" lon="0.69344">
        <ele>64</ele>
        <time>2022-08-07T06:13:13.000Z</time>
      </trkpt>
      <trkpt lat="44.18899" lon="0.69342">
        <ele>64</ele>
        <time>2022-08-07T06:13:14.000Z</time>
      </trkpt>
      <trkpt lat="44.189" lon="0.6934">
        <ele>64</ele>
        <time>2022-08-07T06:13:15.000Z</time>
      </trkpt>
      <trkpt lat="44.189" lon="0.69339">
        <ele>64</ele>
        <time>2022-08-07T06:13:16.000Z</time>
      </trkpt>
      <trkpt lat="44.18901" lon="0.69338">
        <ele>65</ele>
        <time>2022-08-07T06:13:17.000Z</time>
      </trkpt>
      <trkpt lat="44.18901" lon="0.69337">
        <ele>65</ele>
        <time>2022-08-07T06:13:18.000Z</time>
      </trkpt>
      <trkpt lat="44.18902" lon="0.69335">
        <ele>65</ele>
        <time>2022-08-07T06:13:19.000Z</time>
      </trkpt>
      <trkpt lat="44.18902" lon="0.69334">
        <ele>65</ele>
        <time>2022-08-07T06:13:20.000Z</time>
      </trkpt>
      <trkpt lat="44.18903" lon="0.69333">
        <ele>66</ele>
        <time>2022-08-07T06:13:21.000Z</time>
      </trkpt>
      <trkpt lat="44.18903" lon="0.69332">
        <ele>66</ele>
        <time>2022-08-07T06:13:22.000Z</time>
      </trkpt>
      <trkpt lat="44.18904" lon="0.6933">
        <ele>66</ele>
        <time>2022-08-07T06:13:23.000Z</time>
      </trkpt>
      <trkpt lat="44.18904" lon="0.69329">
        <ele>67</ele>
        <time>2022-08-07T06:13:24.000Z</time>
      </trkpt>
      <trkpt lat="44.18905" lon="0.69328">
        <ele>67</ele>
        <time>2022-08-07T06:13:25.000Z</time>
      </trkpt>
      <trkpt lat="44.18905" lon="0.69327">
        <ele>67</ele>
        <time>2022-08-07T06:13:26.000Z</time>
      </trkpt>
      <trkpt lat="44.18906" lon="0.69326">
        <ele>67</ele>
        <time>2022-08-07T06:13:27.000Z</time>
      </trkpt>
      <trkpt lat="44.18906" lon="0.69324">
        <ele>67</ele>
        <time>2022-08-07T06:13:28.000Z</time>
      </trkpt>
      <trkpt lat="44.18907" lon="0.69323">
        <ele>67</ele>
        <time>2022-08-07T06:13:29.000Z</time>
      </trkpt>
      <trkpt lat="44.18908" lon="0.69322">
        <ele>67</ele>
        <time>2022-08-07T06:13:30.000Z</time>
      </trkpt>
      <trkpt lat="44.18908" lon="0.6932">
        <ele>67</ele>
        <time>2022-08-07T06:13:31.000Z</time>
      </trkpt>
      <trkpt lat="44.18909" lon="0.69319">
        <ele>67</ele>
        <time>2022-08-07T06:13:32.000Z</time>
      </trkpt>
      <trkpt lat="44.1891" lon="0.69317">
        <ele>67</ele>
        <time>2022-08-07T06:13:33.000Z</time>
      </trkpt>
      <trkpt lat="44.18911" lon="0.69316">
        <ele>67</ele>
        <time>2022-08-07T06:13:34.000Z</time>
      </trkpt>
      <trkpt lat="44.18912" lon="0.69314">
        <ele>67</ele>
        <time>2022-08-07T06:13:35.000Z</time>
      </trkpt>
      <trkpt lat="44.18912" lon="0.69313">
        <ele>67</ele>
        <time>2022-08-07T06:13:36.000Z</time>
      </trkpt>
      <trkpt lat="44.18913" lon="0.69311">
        <ele>68</ele>
        <time>2022-08-07T06:13:37.000Z</time>
      </trkpt>
      <trkpt lat="44.18914" lon="0.6931">
        <ele>68</ele>
        <time>2022-08-07T06:13:38.000Z</time>
      </trkpt>
      <trkpt lat="44.18915" lon="0.69309">
        <ele>68</ele>
        <time>2022-08-07T06:13:39.000Z</time>
      </trkpt>
      <trkpt lat="44.18915" lon="0.69308">
        <ele>68</ele>
        <time>2022-08-07T06:13:40.000Z</time>
      </trkpt>
      <trkpt lat="44.18916" lon="0.69307">
        <ele>68</ele>
        <time>2022-08-07T06:13:41.000Z</time>
      </trkpt>
      <trkpt lat="44.18917" lon="0.69305">
        <ele>68</ele>
        <time>2022-08-07T06:13:42.000Z</time>
      </trkpt>
      <trkpt lat="44.18918" lon="0.69304">
        <ele>68</ele>
        <time>2022-08-07T06:13:43.000Z</time>
      </trkpt>
      <trkpt lat="44.18919" lon="0.69302">
        <ele>68</ele>
        <time>2022-08-07T06:13:44.000Z</time>
      </trkpt>
      <trkpt lat="44.1892" lon="0.69301">
        <ele>68</ele>
        <time>2022-08-07T06:13:45.000Z</time>
      </trkpt>
      <trkpt lat="44.1892" lon="0.69299">
        <ele>68</ele>
        <time>2022-08-07T06:13:46.000Z</time>
      </trkpt>
      <trkpt lat="44.18921" lon="0.69298">
        <ele>68</ele>
        <time>2022-08-07T06:13:47.000Z</time>
      </trkpt>
      <trkpt lat="44.18921" lon="0.69297">
        <ele>69</ele>
        <time>2022-08-07T06:13:48.000Z</time>
      </trkpt>
      <trkpt lat="44.18922" lon="0.69296">
        <ele>69</ele>
        <time>2022-08-07T06:13:49.000Z</time>
      </trkpt>
      <trkpt lat="44.18923" lon="0.69295">
        <ele>69</ele>
        <time>2022-08-07T06:13:50.000Z</time>
      </trkpt>
      <trkpt lat="44.18924" lon="0.69293">
        <ele>69</ele>
        <time>2022-08-07T06:13:51.000Z</time>
      </trkpt>
      <trkpt lat="44.18924" lon="0.69292">
        <ele>68</ele>
        <time>2022-08-07T06:13:52.000Z</time>
      </trkpt>
      <trkpt lat="44.18925" lon="0.6929">
        <ele>68</ele>
        <time>2022-08-07T06:13:53.000Z</time>
      </trkpt>
      <trkpt lat="44.18926" lon="0.69289">
        <ele>68</ele>
        <time>2022-08-07T06:13:54.000Z</time>
      </trkpt>
      <trkpt lat="44.18926" lon="0.69288">
        <ele>67</ele>
        <time>2022-08-07T06:13:55.000Z</time>
      </trkpt>
      <trkpt lat="44.18927" lon="0.69286">
        <ele>68</ele>
        <time>2022-08-07T06:13:56.000Z</time>
      </trkpt>
      <trkpt lat="44.18928" lon="0.69285">
        <ele>68</ele>
        <time>2022-08-07T06:13:57.000Z</time>
      </trkpt>
      <trkpt lat="44.18928" lon="0.69283">
        <ele>68</ele>
        <time>2022-08-07T06:13:58.000Z</time>
      </trkpt>
      <trkpt lat="44.18929" lon="0.69282">
        <ele>68</ele>
        <time>2022-08-07T06:13:59.000Z</time>
      </trkpt>
      <trkpt lat="44.1893" lon="0.69281">
        <ele>68</ele>
        <time>2022-08-07T06:14:00.000Z</time>
      </trkpt>
      <trkpt lat="44.1893" lon="0.6928">
        <ele>68</ele>
        <time>2022-08-07T06:14:01.000Z</time>
      </trkpt>
      <trkpt lat="44.18931" lon="0.69278">
        <ele>67</ele>
        <time>2022-08-07T06:14:02.000Z</time>
      </trkpt>
      <trkpt lat="44.18932" lon="0.69277">
        <ele>67</ele>
        <time>2022-08-07T06:14:03.000Z</time>
      </trkpt>
      <trkpt lat="44.18933" lon="0.69276">
        <ele>67</ele>
        <time>2022-08-07T06:14:04.000Z</time>
      </trkpt>
      <trkpt lat="44.18933" lon="0.69275">
        <ele>67</ele>
        <time>2022-08-07T06:14:05.000Z</time>
      </trkpt>
      <trkpt lat="44.18934" lon="0.69274">
        <ele>66</ele>
        <time>2022-08-07T06:14:06.000Z</time>
      </trkpt>
      <trkpt lat="44.18935" lon="0.69272">
        <ele>65</ele>
        <time>2022-08-07T06:14:07.000Z</time>
      </trkpt>
      <trkpt lat="44.18936" lon="0.69271">
        <ele>65</ele>
        <time>2022-08-07T06:14:08.000Z</time>
      </trkpt>
      <trkpt lat="44.18937" lon="0.6927">
        <ele>65</ele>
        <time>2022-08-07T06:14:09.000Z</time>
      </trkpt>
      <trkpt lat="44.18938" lon="0.69268">
        <ele>65</ele>
        <time>2022-08-07T06:14:10.000Z</time>
      </trkpt>
      <trkpt lat="44.18938" lon="0.69267">
        <ele>66</ele>
        <time>2022-08-07T06:14:11.000Z</time>
      </trkpt>
      <trkpt lat="44.18939" lon="0.69265">
        <ele>66</ele>
        <time>2022-08-07T06:14:12.000Z</time>
      </trkpt>
      <trkpt lat="44.1894" lon="0.69264">
        <ele>65</ele>
        <time>2022-08-07T06:14:13.000Z</time>
      </trkpt>
      <trkpt lat="44.1894" lon="0.69262">
        <ele>65</ele>
        <time>2022-08-07T06:14:14.000Z</time>
      </trkpt>
      <trkpt lat="44.18941" lon="0.69261">
        <ele>65</ele>
        <time>2022-08-07T06:14:15.000Z</time>
      </trkpt>
      <trkpt lat="44.18942" lon="0.6926">
        <ele>65</ele>
        <time>2022-08-07T06:14:16.000Z</time>
      </trkpt>
      <trkpt lat="44.18942" lon="0.69258">
        <ele>65</ele>
        <time>2022-08-07T06:14:17.000Z</time>
      </trkpt>
      <trkpt lat="44.18943" lon="0.69257">
        <ele>65</ele>
        <time>2022-08-07T06:14:18.000Z</time>
      </trkpt>
      <trkpt lat="44.18944" lon="0.69255">
        <ele>65</ele>
        <time>2022-08-07T06:14:19.000Z</time>
      </trkpt>
      <trkpt lat="44.18944" lon="0.69254">
        <ele>65</ele>
        <time>2022-08-07T06:14:20.000Z</time>
      </trkpt>
      <trkpt lat="44.18945" lon="0.69252">
        <ele>65</ele>
        <time>2022-08-07T06:14:21.000Z</time>
      </trkpt>
      <trkpt lat="44.18946" lon="0.69251">
        <ele>65</ele>
        <time>2022-08-07T06:14:22.000Z</time>
      </trkpt>
      <trkpt lat="44.18947" lon="0.69249">
        <ele>64</ele>
        <time>2022-08-07T06:14:23.000Z</time>
      </trkpt>
      <trkpt lat="44.18948" lon="0.69248">
        <ele>64</ele>
        <time>2022-08-07T06:14:24.000Z</time>
      </trkpt>
      <trkpt lat="44.18949" lon="0.69246">
        <ele>64</ele>
        <time>2022-08-07T06:14:25.000Z</time>
      </trkpt>
      <trkpt lat="44.18949" lon="0.69245">
        <ele>64</ele>
        <time>2022-08-07T06:14:26.000Z</time>
      </trkpt>
      <trkpt lat="44.1895" lon="0.69244">
        <ele>63</ele>
        <time>2022-08-07T06:14:27.000Z</time>
      </trkpt>
      <trkpt lat="44.18951" lon="0.69242">
        <ele>63</ele>
        <time>2022-08-07T06:14:28.000Z</time>
      </trkpt>
      <trkpt lat="44.18951" lon="0.69241">
        <ele>63</ele>
        <time>2022-08-07T06:14:29.000Z</time>
      </trkpt>
      <trkpt lat="44.18952" lon="0.6924">
        <ele>63</ele>
        <time>2022-08-07T06:14:30.000Z</time>
      </trkpt>
      <trkpt lat="44.18953" lon="0.69238">
        <ele>63</ele>
        <time>2022-08-07T06:14:31.000Z</time>
      </trkpt>
      <trkpt lat="44.18953" lon="0.69237">
        <ele>63</ele>
        <time>2022-08-07T06:14:32.000Z</time>
      </trkpt>
      <trkpt lat="44.18954" lon="0.69235">
        <ele>64</ele>
        <time>2022-08-07T06:14:33.000Z</time>
      </trkpt>
      <trkpt lat="44.18954" lon="0.69234">
        <ele>64</ele>
        <time>2022-08-07T06:14:34.000Z</time>
      </trkpt>
      <trkpt lat="44.18955" lon="0.69233">
        <ele>64</ele>
        <time>2022-08-07T06:14:35.000Z</time>
      </trkpt>
      <trkpt lat="44.18956" lon="0.69232">
        <ele>64</ele>
        <time>2022-08-07T06:14:36.000Z</time>
      </trkpt>
      <trkpt lat="44.18956" lon="0.69231">
        <ele>64</ele>
        <time>2022-08-07T06:14:37.000Z</time>
      </trkpt>
      <trkpt lat="44.18957" lon="0.6923">
        <ele>64</ele>
        <time>2022-08-07T06:14:38.000Z</time>
      </trkpt>
      <trkpt lat="44.18958" lon="0.69229">
        <ele>64</ele>
        <time>2022-08-07T06:14:39.000Z</time>
      </trkpt>
      <trkpt lat="44.18959" lon="0.69227">
        <ele>64</ele>
        <time>2022-08-07T06:14:40.000Z</time>
      </trkpt>
      <trkpt lat="44.18959" lon="0.69226">
        <ele>64</ele>
        <time>2022-08-07T06:14:41.000Z</time>
      </trkpt>
      <trkpt lat="44.1896" lon="0.69225">
        <ele>64</ele>
        <time>2022-08-07T06:14:42.000Z</time>
      </trkpt>
      <trkpt lat="44.18961" lon="0.69224">
        <ele>64</ele>
        <time>2022-08-07T06:14:43.000Z</time>
      </trkpt>
      <trkpt lat="44.18961" lon="0.69223">
        <ele>64</ele>
        <time>2022-08-07T06:14:44.000Z</time>
      </trkpt>
      <trkpt lat="44.18962" lon="0.69221">
        <ele>64</ele>
        <time>2022-08-07T06:14:45.000Z</time>
      </trkpt>
      <trkpt lat="44.18963" lon="0.6922">
        <ele>64</ele>
        <time>2022-08-07T06:14:46.000Z</time>
      </trkpt>
      <trkpt lat="44.18964" lon="0.69219">
        <ele>64</ele>
        <time>2022-08-07T06:14:47.000Z</time>
      </trkpt>
      <trkpt lat="44.18964" lon="0.69218">
        <ele>64</ele>
        <time>2022-08-07T06:14:48.000Z</time>
      </trkpt>
      <trkpt lat="44.18965" lon="0.69217">
        <ele>64</ele>
        <time>2022-08-07T06:14:49.000Z</time>
      </trkpt>
      <trkpt lat="44.18966" lon="0.69216">
        <ele>64</ele>
        <time>2022-08-07T06:14:50.000Z</time>
      </trkpt>
      <trkpt lat="44.18967" lon="0.69215">
        <ele>64</ele>
        <time>2022-08-07T06:14:51.000Z</time>
      </trkpt>
      <trkpt lat="44.18967" lon="0.69214">
        <ele>64</ele>
        <time>2022-08-07T06:14:52.000Z</time>
      </trkpt>
      <trkpt lat="44.18968" lon="0.69213">
        <ele>64</ele>
        <time>2022-08-07T06:14:53.000Z</time>
      </trkpt>
      <trkpt lat="44.18969" lon="0.69212">
        <ele>64</ele>
        <time>2022-08-07T06:14:54.000Z</time>
      </trkpt>
      <trkpt lat="44.1897" lon="0.69211">
        <ele>64</ele>
        <time>2022-08-07T06:14:55.000Z</time>
      </trkpt>
      <trkpt lat="44.1897" lon="0.69209">
        <ele>64</ele>
        <time>2022-08-07T06:14:56.000Z</time>
      </trkpt>
      <trkpt lat="44.18971" lon="0.69208">
        <ele>64</ele>
        <time>2022-08-07T06:14:57.000Z</time>
      </trkpt>
      <trkpt lat="44.18972" lon="0.69206">
        <ele>64</ele>
        <time>2022-08-07T06:14:58.000Z</time>
      </trkpt>
      <trkpt lat="44.18973" lon="0.69205">
        <ele>63</ele>
        <time>2022-08-07T06:14:59.000Z</time>
      </trkpt>
      <trkpt lat="44.18974" lon="0.69204">
        <ele>63</ele>
        <time>2022-08-07T06:15:00.000Z</time>
      </trkpt>
      <trkpt lat="44.18975" lon="0.69203">
        <ele>63</ele>
        <time>2022-08-07T06:15:01.000Z</time>
      </trkpt>
      <trkpt lat="44.18975" lon="0.69202">
        <ele>63</ele>
        <time>2022-08-07T06:15:02.000Z</time>
      </trkpt>
      <trkpt lat="44.18976" lon="0.69201">
        <ele>63</ele>
        <time>2022-08-07T06:15:03.000Z</time>
      </trkpt>
      <trkpt lat="44.18977" lon="0.69199">
        <ele>63</ele>
        <time>2022-08-07T06:15:04.000Z</time>
      </trkpt>
      <trkpt lat="44.18978" lon="0.69198">
        <ele>64</ele>
        <time>2022-08-07T06:15:05.000Z</time>
      </trkpt>
      <trkpt lat="44.18979" lon="0.69196">
        <ele>64</ele>
        <time>2022-08-07T06:15:06.000Z</time>
      </trkpt>
      <trkpt lat="44.18979" lon="0.69195">
        <ele>64</ele>
        <time>2022-08-07T06:15:07.000Z</time>
      </trkpt>
      <trkpt lat="44.1898" lon="0.69194">
        <ele>64</ele>
        <time>2022-08-07T06:15:08.000Z</time>
      </trkpt>
      <trkpt lat="44.18981" lon="0.69192">
        <ele>64</ele>
        <time>2022-08-07T06:15:09.000Z</time>
      </trkpt>
      <trkpt lat="44.18982" lon="0.69191">
        <ele>64</ele>
        <time>2022-08-07T06:15:10.000Z</time>
      </trkpt>
      <trkpt lat="44.18983" lon="0.6919">
        <ele>64</ele>
        <time>2022-08-07T06:15:11.000Z</time>
      </trkpt>
      <trkpt lat="44.18984" lon="0.69188">
        <ele>64</ele>
        <time>2022-08-07T06:15:12.000Z</time>
      </trkpt>
      <trkpt lat="44.18984" lon="0.69187">
        <ele>63</ele>
        <time>2022-08-07T06:15:13.000Z</time>
      </trkpt>
      <trkpt lat="44.18985" lon="0.69185">
        <ele>63</ele>
        <time>2022-08-07T06:15:14.000Z</time>
      </trkpt>
      <trkpt lat="44.18986" lon="0.69184">
        <ele>63</ele>
        <time>2022-08-07T06:15:15.000Z</time>
      </trkpt>
      <trkpt lat="44.18987" lon="0.69183">
        <ele>62</ele>
        <time>2022-08-07T06:15:16.000Z</time>
      </trkpt>
      <trkpt lat="44.18988" lon="0.69182">
        <ele>62</ele>
        <time>2022-08-07T06:15:17.000Z</time>
      </trkpt>
      <trkpt lat="44.18989" lon="0.69181">
        <ele>62</ele>
        <time>2022-08-07T06:15:18.000Z</time>
      </trkpt>
      <trkpt lat="44.18989" lon="0.6918">
        <ele>62</ele>
        <time>2022-08-07T06:15:19.000Z</time>
      </trkpt>
      <trkpt lat="44.1899" lon="0.69179">
        <ele>61</ele>
        <time>2022-08-07T06:15:20.000Z</time>
      </trkpt>
      <trkpt lat="44.18991" lon="0.69177">
        <ele>61</ele>
        <time>2022-08-07T06:15:21.000Z</time>
      </trkpt>
      <trkpt lat="44.18992" lon="0.69175">
        <ele>61</ele>
        <time>2022-08-07T06:15:22.000Z</time>
      </trkpt>
      <trkpt lat="44.18993" lon="0.69174">
        <ele>61</ele>
        <time>2022-08-07T06:15:23.000Z</time>
      </trkpt>
      <trkpt lat="44.18993" lon="0.69172">
        <ele>62</ele>
        <time>2022-08-07T06:15:24.000Z</time>
      </trkpt>
      <trkpt lat="44.18994" lon="0.69171">
        <ele>61</ele>
        <time>2022-08-07T06:15:25.000Z</time>
      </trkpt>
      <trkpt lat="44.18995" lon="0.69169">
        <ele>61</ele>
        <time>2022-08-07T06:15:26.000Z</time>
      </trkpt>
      <trkpt lat="44.18995" lon="0.69168">
        <ele>61</ele>
        <time>2022-08-07T06:15:27.000Z</time>
      </trkpt>
      <trkpt lat="44.18996" lon="0.69166">
        <ele>61</ele>
        <time>2022-08-07T06:15:28.000Z</time>
      </trkpt>
      <trkpt lat="44.18997" lon="0.69165">
        <ele>61</ele>
        <time>2022-08-07T06:15:29.000Z</time>
      </trkpt>
      <trkpt lat="44.18997" lon="0.69163">
        <ele>62</ele>
        <time>2022-08-07T06:15:30.000Z</time>
      </trkpt>
      <trkpt lat="44.18998" lon="0.69161">
        <ele>62</ele>
        <time>2022-08-07T06:15:31.000Z</time>
      </trkpt>
      <trkpt lat="44.18999" lon="0.69159">
        <ele>61</ele>
        <time>2022-08-07T06:15:32.000Z</time>
      </trkpt>
      <trkpt lat="44.19" lon="0.69158">
        <ele>61</ele>
        <time>2022-08-07T06:15:33.000Z</time>
      </trkpt>
      <trkpt lat="44.19001" lon="0.69157">
        <ele>61</ele>
        <time>2022-08-07T06:15:34.000Z</time>
      </trkpt>
      <trkpt lat="44.19001" lon="0.69155">
        <ele>61</ele>
        <time>2022-08-07T06:15:35.000Z</time>
      </trkpt>
      <trkpt lat="44.19002" lon="0.69154">
        <ele>60</ele>
        <time>2022-08-07T06:15:36.000Z</time>
      </trkpt>
      <trkpt lat="44.19003" lon="0.69152">
        <ele>60</ele>
        <time>2022-08-07T06:15:37.000Z</time>
      </trkpt>
      <trkpt lat="44.19003" lon="0.69151">
        <ele>61</ele>
        <time>2022-08-07T06:15:38.000Z</time>
      </trkpt>
      <trkpt lat="44.19004" lon="0.69149">
        <ele>60</ele>
        <time>2022-08-07T06:15:39.000Z</time>
      </trkpt>
      <trkpt lat="44.19004" lon="0.69148">
        <ele>61</ele>
        <time>2022-08-07T06:15:40.000Z</time>
      </trkpt>
      <trkpt lat="44.19005" lon="0.69147">
        <ele>60</ele>
        <time>2022-08-07T06:15:41.000Z</time>
      </trkpt>
      <trkpt lat="44.19005" lon="0.69146">
        <ele>60</ele>
        <time>2022-08-07T06:15:42.000Z</time>
      </trkpt>
      <trkpt lat="44.19006" lon="0.69145">
        <ele>61</ele>
        <time>2022-08-07T06:15:43.000Z</time>
      </trkpt>
      <trkpt lat="44.19007" lon="0.69144">
        <ele>61</ele>
        <time>2022-08-07T06:15:44.000Z</time>
      </trkpt>
      <trkpt lat="44.19007" lon="0.69143">
        <ele>60</ele>
        <time>2022-08-07T06:15:45.000Z</time>
      </trkpt>
      <trkpt lat="44.19007" lon="0.69142">
        <ele>61</ele>
        <time>2022-08-07T06:15:46.000Z</time>
      </trkpt>
      <trkpt lat="44.19007" lon="0.69141">
        <ele>61</ele>
        <time>2022-08-07T06:15:47.000Z</time>
      </trkpt>
      <trkpt lat="44.19008" lon="0.6914">
        <ele>61</ele>
        <time>2022-08-07T06:15:48.000Z</time>
      </trkpt>
      <trkpt lat="44.19008" lon="0.6914">
        <ele>60</ele>
        <time>2022-08-07T06:15:49.000Z</time>
      </trkpt>
      <trkpt lat="44.19008" lon="0.69139">
        <ele>60</ele>
        <time>2022-08-07T06:15:50.000Z</time>
      </trkpt>
      <trkpt lat="44.19009" lon="0.69137">
        <ele>60</ele>
        <time>2022-08-07T06:15:51.000Z</time>
      </trkpt>
      <trkpt lat="44.19009" lon="0.69136">
        <ele>60</ele>
        <time>2022-08-07T06:15:52.000Z</time>
      </trkpt>
      <trkpt lat="44.19009" lon="0.69135">
        <ele>61</ele>
        <time>2022-08-07T06:15:53.000Z</time>
      </trkpt>
      <trkpt lat="44.1901" lon="0.69134">
        <ele>61</ele>
        <time>2022-08-07T06:15:54.000Z</time>
      </trkpt>
      <trkpt lat="44.1901" lon="0.69132">
        <ele>60</ele>
        <time>2022-08-07T06:15:55.000Z</time>
      </trkpt>
      <trkpt lat="44.1901" lon="0.69131">
        <ele>61</ele>
        <time>2022-08-07T06:15:56.000Z</time>
      </trkpt>
      <trkpt lat="44.19011" lon="0.69129">
        <ele>62</ele>
        <time>2022-08-07T06:15:57.000Z</time>
      </trkpt>
      <trkpt lat="44.19011" lon="0.69128">
        <ele>61</ele>
        <time>2022-08-07T06:15:58.000Z</time>
      </trkpt>
      <trkpt lat="44.19012" lon="0.69126">
        <ele>61</ele>
        <time>2022-08-07T06:15:59.000Z</time>
      </trkpt>
      <trkpt lat="44.19012" lon="0.69124">
        <ele>61</ele>
        <time>2022-08-07T06:16:00.000Z</time>
      </trkpt>
      <trkpt lat="44.19013" lon="0.69123">
        <ele>61</ele>
        <time>2022-08-07T06:16:01.000Z</time>
      </trkpt>
      <trkpt lat="44.19013" lon="0.69121">
        <ele>61</ele>
        <time>2022-08-07T06:16:02.000Z</time>
      </trkpt>
      <trkpt lat="44.19013" lon="0.6912">
        <ele>61</ele>
        <time>2022-08-07T06:16:03.000Z</time>
      </trkpt>
      <trkpt lat="44.19014" lon="0.69118">
        <ele>61</ele>
        <time>2022-08-07T06:16:04.000Z</time>
      </trkpt>
      <trkpt lat="44.19015" lon="0.69117">
        <ele>61</ele>
        <time>2022-08-07T06:16:05.000Z</time>
      </trkpt>
      <trkpt lat="44.19016" lon="0.69115">
        <ele>61</ele>
        <time>2022-08-07T06:16:06.000Z</time>
      </trkpt>
      <trkpt lat="44.19016" lon="0.69114">
        <ele>61</ele>
        <time>2022-08-07T06:16:07.000Z</time>
      </trkpt>
      <trkpt lat="44.19017" lon="0.69112">
        <ele>60</ele>
        <time>2022-08-07T06:16:08.000Z</time>
      </trkpt>
      <trkpt lat="44.19018" lon="0.69111">
        <ele>61</ele>
        <time>2022-08-07T06:16:09.000Z</time>
      </trkpt>
      <trkpt lat="44.19018" lon="0.6911">
        <ele>61</ele>
        <time>2022-08-07T06:16:10.000Z</time>
      </trkpt>
      <trkpt lat="44.19019" lon="0.69109">
        <ele>61</ele>
        <time>2022-08-07T06:16:11.000Z</time>
      </trkpt>
      <trkpt lat="44.1902" lon="0.69108">
        <ele>61</ele>
        <time>2022-08-07T06:16:12.000Z</time>
      </trkpt>
      <trkpt lat="44.1902" lon="0.69106">
        <ele>61</ele>
        <time>2022-08-07T06:16:13.000Z</time>
      </trkpt>
      <trkpt lat="44.19021" lon="0.69105">
        <ele>61</ele>
        <time>2022-08-07T06:16:14.000Z</time>
      </trkpt>
      <trkpt lat="44.19022" lon="0.69104">
        <ele>61</ele>
        <time>2022-08-07T06:16:15.000Z</time>
      </trkpt>
      <trkpt lat="44.19023" lon="0.69103">
        <ele>61</ele>
        <time>2022-08-07T06:16:16.000Z</time>
      </trkpt>
      <trkpt lat="44.19024" lon="0.69102">
        <ele>61</ele>
        <time>2022-08-07T06:16:17.000Z</time>
      </trkpt>
      <trkpt lat="44.19025" lon="0.691">
        <ele>60</ele>
        <time>2022-08-07T06:16:18.000Z</time>
      </trkpt>
      <trkpt lat="44.19025" lon="0.69099">
        <ele>60</ele>
        <time>2022-08-07T06:16:19.000Z</time>
      </trkpt>
      <trkpt lat="44.19026" lon="0.69098">
        <ele>60</ele>
        <time>2022-08-07T06:16:20.000Z</time>
      </trkpt>
      <trkpt lat="44.19027" lon="0.69097">
        <ele>60</ele>
        <time>2022-08-07T06:16:21.000Z</time>
      </trkpt>
      <trkpt lat="44.19028" lon="0.69096">
        <ele>61</ele>
        <time>2022-08-07T06:16:22.000Z</time>
      </trkpt>
      <trkpt lat="44.19029" lon="0.69095">
        <ele>61</ele>
        <time>2022-08-07T06:16:23.000Z</time>
      </trkpt>
      <trkpt lat="44.1903" lon="0.69094">
        <ele>61</ele>
        <time>2022-08-07T06:16:24.000Z</time>
      </trkpt>
      <trkpt lat="44.19031" lon="0.69093">
        <ele>61</ele>
        <time>2022-08-07T06:16:25.000Z</time>
      </trkpt>
      <trkpt lat="44.19031" lon="0.69092">
        <ele>61</ele>
        <time>2022-08-07T06:16:26.000Z</time>
      </trkpt>
      <trkpt lat="44.19032" lon="0.69091">
        <ele>61</ele>
        <time>2022-08-07T06:16:27.000Z</time>
      </trkpt>
      <trkpt lat="44.19033" lon="0.6909">
        <ele>61</ele>
        <time>2022-08-07T06:16:28.000Z</time>
      </trkpt>
      <trkpt lat="44.19034" lon="0.69089">
        <ele>61</ele>
        <time>2022-08-07T06:16:29.000Z</time>
      </trkpt>
      <trkpt lat="44.19035" lon="0.69088">
        <ele>61</ele>
        <time>2022-08-07T06:16:30.000Z</time>
      </trkpt>
      <trkpt lat="44.19036" lon="0.69087">
        <ele>61</ele>
        <time>2022-08-07T06:16:31.000Z</time>
      </trkpt>
      <trkpt lat="44.19037" lon="0.69086">
        <ele>61</ele>
        <time>2022-08-07T06:16:32.000Z</time>
      </trkpt>
      <trkpt lat="44.19038" lon="0.69085">
        <ele>61</ele>
        <time>2022-08-07T06:16:33.000Z</time>
      </trkpt>
      <trkpt lat="44.19039" lon="0.69084">
        <ele>61</ele>
        <time>2022-08-07T06:16:34.000Z</time>
      </trkpt>
      <trkpt lat="44.1904" lon="0.69083">
        <ele>61</ele>
        <time>2022-08-07T06:16:35.000Z</time>
      </trkpt>
      <trkpt lat="44.19041" lon="0.69082">
        <ele>61</ele>
        <time>2022-08-07T06:16:36.000Z</time>
      </trkpt>
      <trkpt lat="44.19042" lon="0.69081">
        <ele>61</ele>
        <time>2022-08-07T06:16:37.000Z</time>
      </trkpt>
      <trkpt lat="44.19043" lon="0.69081">
        <ele>62</ele>
        <time>2022-08-07T06:16:38.000Z</time>
      </trkpt>
      <trkpt lat="44.19043" lon="0.6908">
        <ele>62</ele>
        <time>2022-08-07T06:16:39.000Z</time>
      </trkpt>
      <trkpt lat="44.19044" lon="0.69079">
        <ele>61</ele>
        <time>2022-08-07T06:16:40.000Z</time>
      </trkpt>
      <trkpt lat="44.19045" lon="0.69078">
        <ele>61</ele>
        <time>2022-08-07T06:16:41.000Z</time>
      </trkpt>
      <trkpt lat="44.19046" lon="0.69077">
        <ele>61</ele>
        <time>2022-08-07T06:16:42.000Z</time>
      </trkpt>
      <trkpt lat="44.19047" lon="0.69076">
        <ele>61</ele>
        <time>2022-08-07T06:16:43.000Z</time>
      </trkpt>
      <trkpt lat="44.19048" lon="0.69075">
        <ele>61</ele>
        <time>2022-08-07T06:16:44.000Z</time>
      </trkpt>
      <trkpt lat="44.19049" lon="0.69074">
        <ele>61</ele>
        <time>2022-08-07T06:16:45.000Z</time>
      </trkpt>
      <trkpt lat="44.1905" lon="0.69074">
        <ele>61</ele>
        <time>2022-08-07T06:16:46.000Z</time>
      </trkpt>
      <trkpt lat="44.19051" lon="0.69073">
        <ele>62</ele>
        <time>2022-08-07T06:16:47.000Z</time>
      </trkpt>
      <trkpt lat="44.19052" lon="0.69072">
        <ele>61</ele>
        <time>2022-08-07T06:16:48.000Z</time>
      </trkpt>
      <trkpt lat="44.19053" lon="0.69071">
        <ele>61</ele>
        <time>2022-08-07T06:16:49.000Z</time>
      </trkpt>
      <trkpt lat="44.19054" lon="0.69071">
        <ele>61</ele>
        <time>2022-08-07T06:16:50.000Z</time>
      </trkpt>
      <trkpt lat="44.19055" lon="0.6907">
        <ele>61</ele>
        <time>2022-08-07T06:16:51.000Z</time>
      </trkpt>
      <trkpt lat="44.19056" lon="0.69069">
        <ele>61</ele>
        <time>2022-08-07T06:16:52.000Z</time>
      </trkpt>
      <trkpt lat="44.19057" lon="0.69068">
        <ele>61</ele>
        <time>2022-08-07T06:16:53.000Z</time>
      </trkpt>
      <trkpt lat="44.19058" lon="0.69067">
        <ele>61</ele>
        <time>2022-08-07T06:16:54.000Z</time>
      </trkpt>
      <trkpt lat="44.19059" lon="0.69066">
        <ele>62</ele>
        <time>2022-08-07T06:16:55.000Z</time>
      </trkpt>
      <trkpt lat="44.1906" lon="0.69065">
        <ele>62</ele>
        <time>2022-08-07T06:16:56.000Z</time>
      </trkpt>
      <trkpt lat="44.1906" lon="0.69064">
        <ele>62</ele>
        <time>2022-08-07T06:16:57.000Z</time>
      </trkpt>
      <trkpt lat="44.19061" lon="0.69063">
        <ele>62</ele>
        <time>2022-08-07T06:16:58.000Z</time>
      </trkpt>
      <trkpt lat="44.19062" lon="0.69062">
        <ele>62</ele>
        <time>2022-08-07T06:16:59.000Z</time>
      </trkpt>
      <trkpt lat="44.19063" lon="0.69062">
        <ele>62</ele>
        <time>2022-08-07T06:17:00.000Z</time>
      </trkpt>
      <trkpt lat="44.19065" lon="0.69061">
        <ele>62</ele>
        <time>2022-08-07T06:17:01.000Z</time>
      </trkpt>
      <trkpt lat="44.19066" lon="0.6906">
        <ele>63</ele>
        <time>2022-08-07T06:17:02.000Z</time>
      </trkpt>
      <trkpt lat="44.19066" lon="0.69059">
        <ele>65</ele>
        <time>2022-08-07T06:17:03.000Z</time>
      </trkpt>
      <trkpt lat="44.19067" lon="0.69058">
        <ele>65</ele>
        <time>2022-08-07T06:17:04.000Z</time>
      </trkpt>
      <trkpt lat="44.19067" lon="0.69057">
        <ele>65</ele>
        <time>2022-08-07T06:17:05.000Z</time>
      </trkpt>
      <trkpt lat="44.19068" lon="0.69056">
        <ele>66</ele>
        <time>2022-08-07T06:17:06.000Z</time>
      </trkpt>
      <trkpt lat="44.19069" lon="0.69055">
        <ele>66</ele>
        <time>2022-08-07T06:17:07.000Z</time>
      </trkpt>
      <trkpt lat="44.1907" lon="0.69055">
        <ele>66</ele>
        <time>2022-08-07T06:17:08.000Z</time>
      </trkpt>
      <trkpt lat="44.19071" lon="0.69054">
        <ele>66</ele>
        <time>2022-08-07T06:17:09.000Z</time>
      </trkpt>
      <trkpt lat="44.19072" lon="0.69053">
        <ele>66</ele>
        <time>2022-08-07T06:17:10.000Z</time>
      </trkpt>
      <trkpt lat="44.19073" lon="0.69052">
        <ele>66</ele>
        <time>2022-08-07T06:17:11.000Z</time>
      </trkpt>
      <trkpt lat="44.19074" lon="0.69052">
        <ele>66</ele>
        <time>2022-08-07T06:17:12.000Z</time>
      </trkpt>
      <trkpt lat="44.19075" lon="0.69051">
        <ele>66</ele>
        <time>2022-08-07T06:17:13.000Z</time>
      </trkpt>
      <trkpt lat="44.19076" lon="0.6905">
        <ele>66</ele>
        <time>2022-08-07T06:17:14.000Z</time>
      </trkpt>
      <trkpt lat="44.19077" lon="0.69049">
        <ele>66</ele>
        <time>2022-08-07T06:17:15.000Z</time>
      </trkpt>
      <trkpt lat="44.19078" lon="0.69048">
        <ele>67</ele>
        <time>2022-08-07T06:17:16.000Z</time>
      </trkpt>
      <trkpt lat="44.19079" lon="0.69048">
        <ele>67</ele>
        <time>2022-08-07T06:17:17.000Z</time>
      </trkpt>
      <trkpt lat="44.1908" lon="0.69047">
        <ele>66</ele>
        <time>2022-08-07T06:17:18.000Z</time>
      </trkpt>
      <trkpt lat="44.19081" lon="0.69046">
        <ele>66</ele>
        <time>2022-08-07T06:17:19.000Z</time>
      </trkpt>
      <trkpt lat="44.19082" lon="0.69045">
        <ele>67</ele>
        <time>2022-08-07T06:17:20.000Z</time>
      </trkpt>
      <trkpt lat="44.19083" lon="0.69044">
        <ele>66</ele>
        <time>2022-08-07T06:17:21.000Z</time>
      </trkpt>
      <trkpt lat="44.19085" lon="0.69044">
        <ele>67</ele>
        <time>2022-08-07T06:17:22.000Z</time>
      </trkpt>
      <trkpt lat="44.19086" lon="0.69043">
        <ele>66</ele>
        <time>2022-08-07T06:17:23.000Z</time>
      </trkpt>
      <trkpt lat="44.19087" lon="0.69042">
        <ele>66</ele>
        <time>2022-08-07T06:17:24.000Z</time>
      </trkpt>
      <trkpt lat="44.19088" lon="0.69042">
        <ele>66</ele>
        <time>2022-08-07T06:17:25.000Z</time>
      </trkpt>
      <trkpt lat="44.19089" lon="0.69041">
        <ele>66</ele>
        <time>2022-08-07T06:17:26.000Z</time>
      </trkpt>
      <trkpt lat="44.1909" lon="0.6904">
        <ele>66</ele>
        <time>2022-08-07T06:17:27.000Z</time>
      </trkpt>
      <trkpt lat="44.19091" lon="0.69039">
        <ele>66</ele>
        <time>2022-08-07T06:17:28.000Z</time>
      </trkpt>
      <trkpt lat="44.19092" lon="0.69039">
        <ele>66</ele>
        <time>2022-08-07T06:17:29.000Z</time>
      </trkpt>
      <trkpt lat="44.19093" lon="0.69038">
        <ele>66</ele>
        <time>2022-08-07T06:17:30.000Z</time>
      </trkpt>
      <trkpt lat="44.19094" lon="0.69037">
        <ele>66</ele>
        <time>2022-08-07T06:17:31.000Z</time>
      </trkpt>
      <trkpt lat="44.19095" lon="0.69036">
        <ele>66</ele>
        <time>2022-08-07T06:17:32.000Z</time>
      </trkpt>
      <trkpt lat="44.19096" lon="0.69035">
        <ele>66</ele>
        <time>2022-08-07T06:17:33.000Z</time>
      </trkpt>
      <trkpt lat="44.19097" lon="0.69034">
        <ele>66</ele>
        <time>2022-08-07T06:17:34.000Z</time>
      </trkpt>
      <trkpt lat="44.19098" lon="0.69033">
        <ele>66</ele>
        <time>2022-08-07T06:17:35.000Z</time>
      </trkpt>
      <trkpt lat="44.19099" lon="0.69032">
        <ele>66</ele>
        <time>2022-08-07T06:17:36.000Z</time>
      </trkpt>
      <trkpt lat="44.191" lon="0.69032">
        <ele>65</ele>
        <time>2022-08-07T06:17:37.000Z</time>
      </trkpt>
      <trkpt lat="44.19102" lon="0.69031">
        <ele>65</ele>
        <time>2022-08-07T06:17:38.000Z</time>
      </trkpt>
      <trkpt lat="44.19103" lon="0.6903">
        <ele>65</ele>
        <time>2022-08-07T06:17:39.000Z</time>
      </trkpt>
      <trkpt lat="44.19104" lon="0.6903">
        <ele>65</ele>
        <time>2022-08-07T06:17:40.000Z</time>
      </trkpt>
      <trkpt lat="44.19105" lon="0.69029">
        <ele>65</ele>
        <time>2022-08-07T06:17:41.000Z</time>
      </trkpt>
      <trkpt lat="44.19106" lon="0.69028">
        <ele>65</ele>
        <time>2022-08-07T06:17:42.000Z</time>
      </trkpt>
      <trkpt lat="44.19107" lon="0.69027">
        <ele>65</ele>
        <time>2022-08-07T06:17:43.000Z</time>
      </trkpt>
      <trkpt lat="44.19108" lon="0.69026">
        <ele>65</ele>
        <time>2022-08-07T06:17:44.000Z</time>
      </trkpt>
      <trkpt lat="44.19109" lon="0.69025">
        <ele>65</ele>
        <time>2022-08-07T06:17:45.000Z</time>
      </trkpt>
      <trkpt lat="44.1911" lon="0.69024">
        <ele>65</ele>
        <time>2022-08-07T06:17:46.000Z</time>
      </trkpt>
      <trkpt lat="44.19111" lon="0.69023">
        <ele>66</ele>
        <time>2022-08-07T06:17:47.000Z</time>
      </trkpt>
      <trkpt lat="44.19112" lon="0.69022">
        <ele>66</ele>
        <time>2022-08-07T06:17:48.000Z</time>
      </trkpt>
      <trkpt lat="44.19112" lon="0.69022">
        <ele>65</ele>
        <time>2022-08-07T06:17:49.000Z</time>
      </trkpt>
      <trkpt lat="44.19113" lon="0.69021">
        <ele>65</ele>
        <time>2022-08-07T06:17:50.000Z</time>
      </trkpt>
      <trkpt lat="44.19114" lon="0.6902">
        <ele>65</ele>
        <time>2022-08-07T06:17:51.000Z</time>
      </trkpt>
      <trkpt lat="44.19115" lon="0.69019">
        <ele>65</ele>
        <time>2022-08-07T06:17:52.000Z</time>
      </trkpt>
      <trkpt lat="44.19117" lon="0.69018">
        <ele>65</ele>
        <time>2022-08-07T06:17:53.000Z</time>
      </trkpt>
      <trkpt lat="44.19118" lon="0.69018">
        <ele>65</ele>
        <time>2022-08-07T06:17:54.000Z</time>
      </trkpt>
      <trkpt lat="44.19119" lon="0.69017">
        <ele>65</ele>
        <time>2022-08-07T06:17:55.000Z</time>
      </trkpt>
      <trkpt lat="44.1912" lon="0.69016">
        <ele>65</ele>
        <time>2022-08-07T06:17:56.000Z</time>
      </trkpt>
      <trkpt lat="44.19121" lon="0.69015">
        <ele>65</ele>
        <time>2022-08-07T06:17:57.000Z</time>
      </trkpt>
      <trkpt lat="44.19122" lon="0.69015">
        <ele>65</ele>
        <time>2022-08-07T06:17:58.000Z</time>
      </trkpt>
      <trkpt lat="44.19123" lon="0.69014">
        <ele>65</ele>
        <time>2022-08-07T06:17:59.000Z</time>
      </trkpt>
      <trkpt lat="44.19124" lon="0.69013">
        <ele>66</ele>
        <time>2022-08-07T06:18:00.000Z</time>
      </trkpt>
      <trkpt lat="44.19125" lon="0.69012">
        <ele>65</ele>
        <time>2022-08-07T06:18:01.000Z</time>
      </trkpt>
      <trkpt lat="44.19126" lon="0.69011">
        <ele>65</ele>
        <time>2022-08-07T06:18:02.000Z</time>
      </trkpt>
      <trkpt lat="44.19128" lon="0.6901">
        <ele>65</ele>
        <time>2022-08-07T06:18:03.000Z</time>
      </trkpt>
      <trkpt lat="44.19129" lon="0.6901">
        <ele>65</ele>
        <time>2022-08-07T06:18:04.000Z</time>
      </trkpt>
      <trkpt lat="44.19129" lon="0.69009">
        <ele>65</ele>
        <time>2022-08-07T06:18:05.000Z</time>
      </trkpt>
      <trkpt lat="44.1913" lon="0.69008">
        <ele>65</ele>
        <time>2022-08-07T06:18:06.000Z</time>
      </trkpt>
      <trkpt lat="44.19131" lon="0.69007">
        <ele>65</ele>
        <time>2022-08-07T06:18:07.000Z</time>
      </trkpt>
      <trkpt lat="44.19132" lon="0.69006">
        <ele>65</ele>
        <time>2022-08-07T06:18:08.000Z</time>
      </trkpt>
      <trkpt lat="44.19133" lon="0.69005">
        <ele>66</ele>
        <time>2022-08-07T06:18:09.000Z</time>
      </trkpt>
      <trkpt lat="44.19134" lon="0.69004">
        <ele>66</ele>
        <time>2022-08-07T06:18:10.000Z</time>
      </trkpt>
      <trkpt lat="44.19135" lon="0.69003">
        <ele>66</ele>
        <time>2022-08-07T06:18:11.000Z</time>
      </trkpt>
      <trkpt lat="44.19136" lon="0.69002">
        <ele>66</ele>
        <time>2022-08-07T06:18:12.000Z</time>
      </trkpt>
      <trkpt lat="44.19137" lon="0.69001">
        <ele>66</ele>
        <time>2022-08-07T06:18:13.000Z</time>
      </trkpt>
      <trkpt lat="44.19138" lon="0.69">
        <ele>66</ele>
        <time>2022-08-07T06:18:14.000Z</time>
      </trkpt>
      <trkpt lat="44.19139" lon="0.68999">
        <ele>65</ele>
        <time>2022-08-07T06:18:15.000Z</time>
      </trkpt>
      <trkpt lat="44.1914" lon="0.68998">
        <ele>65</ele>
        <time>2022-08-07T06:18:16.000Z</time>
      </trkpt>
      <trkpt lat="44.19141" lon="0.68998">
        <ele>65</ele>
        <time>2022-08-07T06:18:17.000Z</time>
      </trkpt>
      <trkpt lat="44.19142" lon="0.68997">
        <ele>66</ele>
        <time>2022-08-07T06:18:18.000Z</time>
      </trkpt>
      <trkpt lat="44.19143" lon="0.68996">
        <ele>65</ele>
        <time>2022-08-07T06:18:19.000Z</time>
      </trkpt>
      <trkpt lat="44.19144" lon="0.68996">
        <ele>66</ele>
        <time>2022-08-07T06:18:20.000Z</time>
      </trkpt>
      <trkpt lat="44.19146" lon="0.68996">
        <ele>66</ele>
        <time>2022-08-07T06:18:21.000Z</time>
      </trkpt>
      <trkpt lat="44.19147" lon="0.68997">
        <ele>66</ele>
        <time>2022-08-07T06:18:22.000Z</time>
      </trkpt>
      <trkpt lat="44.19148" lon="0.68997">
        <ele>66</ele>
        <time>2022-08-07T06:18:23.000Z</time>
      </trkpt>
      <trkpt lat="44.19149" lon="0.68998">
        <ele>66</ele>
        <time>2022-08-07T06:18:24.000Z</time>
      </trkpt>
      <trkpt lat="44.1915" lon="0.68999">
        <ele>65</ele>
        <time>2022-08-07T06:18:25.000Z</time>
      </trkpt>
      <trkpt lat="44.19151" lon="0.69">
        <ele>65</ele>
        <time>2022-08-07T06:18:26.000Z</time>
      </trkpt>
      <trkpt lat="44.19152" lon="0.69001">
        <ele>64</ele>
        <time>2022-08-07T06:18:27.000Z</time>
      </trkpt>
      <trkpt lat="44.19152" lon="0.69003">
        <ele>64</ele>
        <time>2022-08-07T06:18:28.000Z</time>
      </trkpt>
      <trkpt lat="44.19153" lon="0.69004">
        <ele>64</ele>
        <time>2022-08-07T06:18:29.000Z</time>
      </trkpt>
      <trkpt lat="44.19154" lon="0.69006">
        <ele>63</ele>
        <time>2022-08-07T06:18:30.000Z</time>
      </trkpt>
      <trkpt lat="44.19155" lon="0.69008">
        <ele>63</ele>
        <time>2022-08-07T06:18:31.000Z</time>
      </trkpt>
      <trkpt lat="44.19155" lon="0.69009">
        <ele>63</ele>
        <time>2022-08-07T06:18:32.000Z</time>
      </trkpt>
      <trkpt lat="44.19156" lon="0.69011">
        <ele>63</ele>
        <time>2022-08-07T06:18:33.000Z</time>
      </trkpt>
      <trkpt lat="44.19156" lon="0.69013">
        <ele>63</ele>
        <time>2022-08-07T06:18:34.000Z</time>
      </trkpt>
      <trkpt lat="44.19157" lon="0.69014">
        <ele>62</ele>
        <time>2022-08-07T06:18:35.000Z</time>
      </trkpt>
      <trkpt lat="44.19158" lon="0.69016">
        <ele>62</ele>
        <time>2022-08-07T06:18:36.000Z</time>
      </trkpt>
      <trkpt lat="44.19158" lon="0.69017">
        <ele>62</ele>
        <time>2022-08-07T06:18:37.000Z</time>
      </trkpt>
      <trkpt lat="44.19159" lon="0.69019">
        <ele>61</ele>
        <time>2022-08-07T06:18:38.000Z</time>
      </trkpt>
      <trkpt lat="44.19159" lon="0.6902">
        <ele>61</ele>
        <time>2022-08-07T06:18:39.000Z</time>
      </trkpt>
      <trkpt lat="44.1916" lon="0.69022">
        <ele>61</ele>
        <time>2022-08-07T06:18:40.000Z</time>
      </trkpt>
      <trkpt lat="44.1916" lon="0.69024">
        <ele>61</ele>
        <time>2022-08-07T06:18:41.000Z</time>
      </trkpt>
      <trkpt lat="44.19161" lon="0.69026">
        <ele>61</ele>
        <time>2022-08-07T06:18:42.000Z</time>
      </trkpt>
      <trkpt lat="44.19161" lon="0.69027">
        <ele>61</ele>
        <time>2022-08-07T06:18:43.000Z</time>
      </trkpt>
      <trkpt lat="44.19161" lon="0.69029">
        <ele>61</ele>
        <time>2022-08-07T06:18:44.000Z</time>
      </trkpt>
      <trkpt lat="44.19162" lon="0.6903">
        <ele>60</ele>
        <time>2022-08-07T06:18:45.000Z</time>
      </trkpt>
      <trkpt lat="44.19162" lon="0.69032">
        <ele>60</ele>
        <time>2022-08-07T06:18:46.000Z</time>
      </trkpt>
      <trkpt lat="44.19163" lon="0.69033">
        <ele>60</ele>
        <time>2022-08-07T06:18:47.000Z</time>
      </trkpt>
      <trkpt lat="44.19163" lon="0.69034">
        <ele>59</ele>
        <time>2022-08-07T06:18:48.000Z</time>
      </trkpt>
      <trkpt lat="44.19164" lon="0.69036">
        <ele>59</ele>
        <time>2022-08-07T06:18:49.000Z</time>
      </trkpt>
      <trkpt lat="44.19164" lon="0.69037">
        <ele>58</ele>
        <time>2022-08-07T06:18:50.000Z</time>
      </trkpt>
      <trkpt lat="44.19165" lon="0.69039">
        <ele>58</ele>
        <time>2022-08-07T06:18:51.000Z</time>
      </trkpt>
      <trkpt lat="44.19165" lon="0.6904">
        <ele>58</ele>
        <time>2022-08-07T06:18:52.000Z</time>
      </trkpt>
      <trkpt lat="44.19166" lon="0.69042">
        <ele>58</ele>
        <time>2022-08-07T06:18:53.000Z</time>
      </trkpt>
      <trkpt lat="44.19166" lon="0.69043">
        <ele>57</ele>
        <time>2022-08-07T06:18:54.000Z</time>
      </trkpt>
      <trkpt lat="44.19167" lon="0.69045">
        <ele>59</ele>
        <time>2022-08-07T06:18:55.000Z</time>
      </trkpt>
      <trkpt lat="44.19167" lon="0.69047">
        <ele>59</ele>
        <time>2022-08-07T06:18:56.000Z</time>
      </trkpt>
      <trkpt lat="44.19167" lon="0.6905">
        <ele>60</ele>
        <time>2022-08-07T06:18:57.000Z</time>
      </trkpt>
      <trkpt lat="44.19167" lon="0.69051">
        <ele>59</ele>
        <time>2022-08-07T06:18:58.000Z</time>
      </trkpt>
      <trkpt lat="44.19168" lon="0.69052">
        <ele>60</ele>
        <time>2022-08-07T06:18:59.000Z</time>
      </trkpt>
      <trkpt lat="44.19168" lon="0.69054">
        <ele>59</ele>
        <time>2022-08-07T06:19:00.000Z</time>
      </trkpt>
      <trkpt lat="44.19169" lon="0.69056">
        <ele>60</ele>
        <time>2022-08-07T06:19:01.000Z</time>
      </trkpt>
      <trkpt lat="44.19169" lon="0.69057">
        <ele>60</ele>
        <time>2022-08-07T06:19:02.000Z</time>
      </trkpt>
      <trkpt lat="44.19169" lon="0.69058">
        <ele>60</ele>
        <time>2022-08-07T06:19:03.000Z</time>
      </trkpt>
      <trkpt lat="44.1917" lon="0.6906">
        <ele>60</ele>
        <time>2022-08-07T06:19:04.000Z</time>
      </trkpt>
      <trkpt lat="44.1917" lon="0.69061">
        <ele>60</ele>
        <time>2022-08-07T06:19:05.000Z</time>
      </trkpt>
      <trkpt lat="44.1917" lon="0.69063">
        <ele>60</ele>
        <time>2022-08-07T06:19:06.000Z</time>
      </trkpt>
      <trkpt lat="44.19171" lon="0.69064">
        <ele>60</ele>
        <time>2022-08-07T06:19:07.000Z</time>
      </trkpt>
      <trkpt lat="44.19171" lon="0.69066">
        <ele>59</ele>
        <time>2022-08-07T06:19:08.000Z</time>
      </trkpt>
      <trkpt lat="44.19171" lon="0.69067">
        <ele>59</ele>
        <time>2022-08-07T06:19:09.000Z</time>
      </trkpt>
      <trkpt lat="44.19172" lon="0.69068">
        <ele>59</ele>
        <time>2022-08-07T06:19:10.000Z</time>
      </trkpt>
      <trkpt lat="44.19172" lon="0.6907">
        <ele>59</ele>
        <time>2022-08-07T06:19:11.000Z</time>
      </trkpt>
      <trkpt lat="44.19173" lon="0.69071">
        <ele>59</ele>
        <time>2022-08-07T06:19:12.000Z</time>
      </trkpt>
      <trkpt lat="44.19173" lon="0.69072">
        <ele>59</ele>
        <time>2022-08-07T06:19:13.000Z</time>
      </trkpt>
      <trkpt lat="44.19174" lon="0.69074">
        <ele>59</ele>
        <time>2022-08-07T06:19:14.000Z</time>
      </trkpt>
      <trkpt lat="44.19174" lon="0.69075">
        <ele>59</ele>
        <time>2022-08-07T06:19:15.000Z</time>
      </trkpt>
      <trkpt lat="44.19175" lon="0.69077">
        <ele>60</ele>
        <time>2022-08-07T06:19:16.000Z</time>
      </trkpt>
      <trkpt lat="44.19176" lon="0.69078">
        <ele>60</ele>
        <time>2022-08-07T06:19:17.000Z</time>
      </trkpt>
      <trkpt lat="44.19176" lon="0.6908">
        <ele>60</ele>
        <time>2022-08-07T06:19:18.000Z</time>
      </trkpt>
      <trkpt lat="44.19177" lon="0.69082">
        <ele>59</ele>
        <time>2022-08-07T06:19:19.000Z</time>
      </trkpt>
      <trkpt lat="44.19177" lon="0.69083">
        <ele>60</ele>
        <time>2022-08-07T06:19:20.000Z</time>
      </trkpt>
      <trkpt lat="44.19178" lon="0.69084">
        <ele>60</ele>
        <time>2022-08-07T06:19:21.000Z</time>
      </trkpt>
      <trkpt lat="44.19179" lon="0.69085">
        <ele>61</ele>
        <time>2022-08-07T06:19:22.000Z</time>
      </trkpt>
      <trkpt lat="44.1918" lon="0.69086">
        <ele>62</ele>
        <time>2022-08-07T06:19:23.000Z</time>
      </trkpt>
      <trkpt lat="44.19181" lon="0.69087">
        <ele>62</ele>
        <time>2022-08-07T06:19:24.000Z</time>
      </trkpt>
      <trkpt lat="44.19182" lon="0.69089">
        <ele>63</ele>
        <time>2022-08-07T06:19:25.000Z</time>
      </trkpt>
      <trkpt lat="44.19183" lon="0.6909">
        <ele>63</ele>
        <time>2022-08-07T06:19:26.000Z</time>
      </trkpt>
      <trkpt lat="44.19183" lon="0.69091">
        <ele>64</ele>
        <time>2022-08-07T06:19:27.000Z</time>
      </trkpt>
      <trkpt lat="44.19184" lon="0.69092">
        <ele>64</ele>
        <time>2022-08-07T06:19:28.000Z</time>
      </trkpt>
      <trkpt lat="44.19185" lon="0.69093">
        <ele>64</ele>
        <time>2022-08-07T06:19:29.000Z</time>
      </trkpt>
      <trkpt lat="44.19186" lon="0.69094">
        <ele>65</ele>
        <time>2022-08-07T06:19:30.000Z</time>
      </trkpt>
      <trkpt lat="44.19187" lon="0.69096">
        <ele>65</ele>
        <time>2022-08-07T06:19:31.000Z</time>
      </trkpt>
      <trkpt lat="44.19187" lon="0.69097">
        <ele>65</ele>
        <time>2022-08-07T06:19:32.000Z</time>
      </trkpt>
      <trkpt lat="44.19188" lon="0.69098">
        <ele>65</ele>
        <time>2022-08-07T06:19:33.000Z</time>
      </trkpt>
      <trkpt lat="44.19189" lon="0.69099">
        <ele>65</ele>
        <time>2022-08-07T06:19:34.000Z</time>
      </trkpt>
      <trkpt lat="44.1919" lon="0.691">
        <ele>65</ele>
        <time>2022-08-07T06:19:35.000Z</time>
      </trkpt>
      <trkpt lat="44.19191" lon="0.69101">
        <ele>65</ele>
        <time>2022-08-07T06:19:36.000Z</time>
      </trkpt>
      <trkpt lat="44.19191" lon="0.69103">
        <ele>65</ele>
        <time>2022-08-07T06:19:37.000Z</time>
      </trkpt>
      <trkpt lat="44.19192" lon="0.69104">
        <ele>66</ele>
        <time>2022-08-07T06:19:38.000Z</time>
      </trkpt>
      <trkpt lat="44.19193" lon="0.69105">
        <ele>66</ele>
        <time>2022-08-07T06:19:39.000Z</time>
      </trkpt>
      <trkpt lat="44.19194" lon="0.69106">
        <ele>66</ele>
        <time>2022-08-07T06:19:40.000Z</time>
      </trkpt>
      <trkpt lat="44.19194" lon="0.69108">
        <ele>66</ele>
        <time>2022-08-07T06:19:41.000Z</time>
      </trkpt>
      <trkpt lat="44.19195" lon="0.69109">
        <ele>67</ele>
        <time>2022-08-07T06:19:42.000Z</time>
      </trkpt>
      <trkpt lat="44.19196" lon="0.69111">
        <ele>67</ele>
        <time>2022-08-07T06:19:43.000Z</time>
      </trkpt>
      <trkpt lat="44.19197" lon="0.69112">
        <ele>67</ele>
        <time>2022-08-07T06:19:44.000Z</time>
      </trkpt>
      <trkpt lat="44.19197" lon="0.69113">
        <ele>67</ele>
        <time>2022-08-07T06:19:45.000Z</time>
      </trkpt>
      <trkpt lat="44.19198" lon="0.69114">
        <ele>67</ele>
        <time>2022-08-07T06:19:46.000Z</time>
      </trkpt>
      <trkpt lat="44.19199" lon="0.69115">
        <ele>67</ele>
        <time>2022-08-07T06:19:47.000Z</time>
      </trkpt>
      <trkpt lat="44.192" lon="0.69117">
        <ele>67</ele>
        <time>2022-08-07T06:19:48.000Z</time>
      </trkpt>
      <trkpt lat="44.19201" lon="0.69118">
        <ele>67</ele>
        <time>2022-08-07T06:19:49.000Z</time>
      </trkpt>
      <trkpt lat="44.19202" lon="0.69119">
        <ele>67</ele>
        <time>2022-08-07T06:19:50.000Z</time>
      </trkpt>
      <trkpt lat="44.19202" lon="0.6912">
        <ele>67</ele>
        <time>2022-08-07T06:19:51.000Z</time>
      </trkpt>
      <trkpt lat="44.19203" lon="0.69121">
        <ele>67</ele>
        <time>2022-08-07T06:19:52.000Z</time>
      </trkpt>
      <trkpt lat="44.19204" lon="0.69122">
        <ele>67</ele>
        <time>2022-08-07T06:19:53.000Z</time>
      </trkpt>
      <trkpt lat="44.19204" lon="0.69123">
        <ele>67</ele>
        <time>2022-08-07T06:19:54.000Z</time>
      </trkpt>
      <trkpt lat="44.19205" lon="0.69125">
        <ele>68</ele>
        <time>2022-08-07T06:19:55.000Z</time>
      </trkpt>
      <trkpt lat="44.19206" lon="0.69126">
        <ele>68</ele>
        <time>2022-08-07T06:19:56.000Z</time>
      </trkpt>
      <trkpt lat="44.19207" lon="0.69127">
        <ele>68</ele>
        <time>2022-08-07T06:19:57.000Z</time>
      </trkpt>
      <trkpt lat="44.19208" lon="0.69129">
        <ele>69</ele>
        <time>2022-08-07T06:19:58.000Z</time>
      </trkpt>
      <trkpt lat="44.19209" lon="0.6913">
        <ele>69</ele>
        <time>2022-08-07T06:19:59.000Z</time>
      </trkpt>
      <trkpt lat="44.1921" lon="0.69131">
        <ele>69</ele>
        <time>2022-08-07T06:20:00.000Z</time>
      </trkpt>
      <trkpt lat="44.19211" lon="0.69132">
        <ele>69</ele>
        <time>2022-08-07T06:20:01.000Z</time>
      </trkpt>
      <trkpt lat="44.19212" lon="0.69133">
        <ele>69</ele>
        <time>2022-08-07T06:20:02.000Z</time>
      </trkpt>
      <trkpt lat="44.19212" lon="0.69135">
        <ele>69</ele>
        <time>2022-08-07T06:20:03.000Z</time>
      </trkpt>
      <trkpt lat="44.19213" lon="0.69136">
        <ele>69</ele>
        <time>2022-08-07T06:20:04.000Z</time>
      </trkpt>
      <trkpt lat="44.19214" lon="0.69137">
        <ele>68</ele>
        <time>2022-08-07T06:20:05.000Z</time>
      </trkpt>
      <trkpt lat="44.19214" lon="0.69138">
        <ele>68</ele>
        <time>2022-08-07T06:20:06.000Z</time>
      </trkpt>
      <trkpt lat="44.19215" lon="0.69139">
        <ele>68</ele>
        <time>2022-08-07T06:20:07.000Z</time>
      </trkpt>
      <trkpt lat="44.19215" lon="0.6914">
        <ele>68</ele>
        <time>2022-08-07T06:20:08.000Z</time>
      </trkpt>
      <trkpt lat="44.19216" lon="0.69141">
        <ele>68</ele>
        <time>2022-08-07T06:20:09.000Z</time>
      </trkpt>
      <trkpt lat="44.19217" lon="0.69142">
        <ele>68</ele>
        <time>2022-08-07T06:20:10.000Z</time>
      </trkpt>
      <trkpt lat="44.19218" lon="0.69144">
        <ele>68</ele>
        <time>2022-08-07T06:20:11.000Z</time>
      </trkpt>
      <trkpt lat="44.19218" lon="0.69145">
        <ele>68</ele>
        <time>2022-08-07T06:20:12.000Z</time>
      </trkpt>
      <trkpt lat="44.19219" lon="0.69146">
        <ele>68</ele>
        <time>2022-08-07T06:20:13.000Z</time>
      </trkpt>
      <trkpt lat="44.19219" lon="0.69147">
        <ele>68</ele>
        <time>2022-08-07T06:20:14.000Z</time>
      </trkpt>
      <trkpt lat="44.1922" lon="0.69148">
        <ele>68</ele>
        <time>2022-08-07T06:20:15.000Z</time>
      </trkpt>
      <trkpt lat="44.19221" lon="0.6915">
        <ele>68</ele>
        <time>2022-08-07T06:20:16.000Z</time>
      </trkpt>
      <trkpt lat="44.19221" lon="0.69151">
        <ele>68</ele>
        <time>2022-08-07T06:20:17.000Z</time>
      </trkpt>
      <trkpt lat="44.19222" lon="0.69152">
        <ele>68</ele>
        <time>2022-08-07T06:20:18.000Z</time>
      </trkpt>
      <trkpt lat="44.19222" lon="0.69153">
        <ele>68</ele>
        <time>2022-08-07T06:20:19.000Z</time>
      </trkpt>
      <trkpt lat="44.19223" lon="0.69154">
        <ele>68</ele>
        <time>2022-08-07T06:20:20.000Z</time>
      </trkpt>
      <trkpt lat="44.19224" lon="0.69155">
        <ele>68</ele>
        <time>2022-08-07T06:20:21.000Z</time>
      </trkpt>
      <trkpt lat="44.19224" lon="0.69156">
        <ele>68</ele>
        <time>2022-08-07T06:20:22.000Z</time>
      </trkpt>
      <trkpt lat="44.19225" lon="0.69158">
        <ele>68</ele>
        <time>2022-08-07T06:20:23.000Z</time>
      </trkpt>
      <trkpt lat="44.19225" lon="0.69159">
        <ele>68</ele>
        <time>2022-08-07T06:20:24.000Z</time>
      </trkpt>
      <trkpt lat="44.19226" lon="0.6916">
        <ele>68</ele>
        <time>2022-08-07T06:20:25.000Z</time>
      </trkpt>
      <trkpt lat="44.19226" lon="0.69161">
        <ele>68</ele>
        <time>2022-08-07T06:20:26.000Z</time>
      </trkpt>
      <trkpt lat="44.19227" lon="0.69162">
        <ele>68</ele>
        <time>2022-08-07T06:20:27.000Z</time>
      </trkpt>
      <trkpt lat="44.19227" lon="0.69163">
        <ele>68</ele>
        <time>2022-08-07T06:20:28.000Z</time>
      </trkpt>
      <trkpt lat="44.19228" lon="0.69164">
        <ele>69</ele>
        <time>2022-08-07T06:20:29.000Z</time>
      </trkpt>
      <trkpt lat="44.19228" lon="0.69165">
        <ele>69</ele>
        <time>2022-08-07T06:20:30.000Z</time>
      </trkpt>
      <trkpt lat="44.19229" lon="0.69167">
        <ele>70</ele>
        <time>2022-08-07T06:20:31.000Z</time>
      </trkpt>
      <trkpt lat="44.1923" lon="0.69168">
        <ele>70</ele>
        <time>2022-08-07T06:20:32.000Z</time>
      </trkpt>
      <trkpt lat="44.1923" lon="0.69169">
        <ele>70</ele>
        <time>2022-08-07T06:20:33.000Z</time>
      </trkpt>
      <trkpt lat="44.19231" lon="0.6917">
        <ele>71</ele>
        <time>2022-08-07T06:20:34.000Z</time>
      </trkpt>
      <trkpt lat="44.19231" lon="0.69172">
        <ele>71</ele>
        <time>2022-08-07T06:20:35.000Z</time>
      </trkpt>
      <trkpt lat="44.19232" lon="0.69173">
        <ele>71</ele>
        <time>2022-08-07T06:20:36.000Z</time>
      </trkpt>
      <trkpt lat="44.19233" lon="0.69174">
        <ele>70</ele>
        <time>2022-08-07T06:20:37.000Z</time>
      </trkpt>
      <trkpt lat="44.19234" lon="0.69175">
        <ele>70</ele>
        <time>2022-08-07T06:20:38.000Z</time>
      </trkpt>
      <trkpt lat="44.19235" lon="0.69177">
        <ele>70</ele>
        <time>2022-08-07T06:20:39.000Z</time>
      </trkpt>
      <trkpt lat="44.19236" lon="0.69178">
        <ele>70</ele>
        <time>2022-08-07T06:20:40.000Z</time>
      </trkpt>
      <trkpt lat="44.19237" lon="0.69179">
        <ele>70</ele>
        <time>2022-08-07T06:20:41.000Z</time>
      </trkpt>
      <trkpt lat="44.19238" lon="0.6918">
        <ele>71</ele>
        <time>2022-08-07T06:20:42.000Z</time>
      </trkpt>
      <trkpt lat="44.19239" lon="0.69181">
        <ele>71</ele>
        <time>2022-08-07T06:20:43.000Z</time>
      </trkpt>
      <trkpt lat="44.19239" lon="0.69182">
        <ele>70</ele>
        <time>2022-08-07T06:20:44.000Z</time>
      </trkpt>
      <trkpt lat="44.1924" lon="0.69183">
        <ele>70</ele>
        <time>2022-08-07T06:20:45.000Z</time>
      </trkpt>
      <trkpt lat="44.1924" lon="0.69184">
        <ele>71</ele>
        <time>2022-08-07T06:20:46.000Z</time>
      </trkpt>
      <trkpt lat="44.19241" lon="0.69186">
        <ele>71</ele>
        <time>2022-08-07T06:20:47.000Z</time>
      </trkpt>
      <trkpt lat="44.19242" lon="0.69187">
        <ele>71</ele>
        <time>2022-08-07T06:20:48.000Z</time>
      </trkpt>
      <trkpt lat="44.19243" lon="0.69188">
        <ele>71</ele>
        <time>2022-08-07T06:20:49.000Z</time>
      </trkpt>
      <trkpt lat="44.19243" lon="0.69189">
        <ele>71</ele>
        <time>2022-08-07T06:20:50.000Z</time>
      </trkpt>
      <trkpt lat="44.19243" lon="0.6919">
        <ele>71</ele>
        <time>2022-08-07T06:20:51.000Z</time>
      </trkpt>
      <trkpt lat="44.19244" lon="0.69191">
        <ele>71</ele>
        <time>2022-08-07T06:20:52.000Z</time>
      </trkpt>
      <trkpt lat="44.19245" lon="0.69192">
        <ele>71</ele>
        <time>2022-08-07T06:20:53.000Z</time>
      </trkpt>
      <trkpt lat="44.19245" lon="0.69193">
        <ele>71</ele>
        <time>2022-08-07T06:20:54.000Z</time>
      </trkpt>
      <trkpt lat="44.19246" lon="0.69194">
        <ele>71</ele>
        <time>2022-08-07T06:20:55.000Z</time>
      </trkpt>
      <trkpt lat="44.19247" lon="0.69196">
        <ele>70</ele>
        <time>2022-08-07T06:20:56.000Z</time>
      </trkpt>
      <trkpt lat="44.19248" lon="0.69197">
        <ele>72</ele>
        <time>2022-08-07T06:20:57.000Z</time>
      </trkpt>
      <trkpt lat="44.19249" lon="0.69198">
        <ele>72</ele>
        <time>2022-08-07T06:20:58.000Z</time>
      </trkpt>
      <trkpt lat="44.1925" lon="0.69199">
        <ele>72</ele>
        <time>2022-08-07T06:20:59.000Z</time>
      </trkpt>
      <trkpt lat="44.1925" lon="0.692">
        <ele>71</ele>
        <time>2022-08-07T06:21:00.000Z</time>
      </trkpt>
      <trkpt lat="44.19252" lon="0.69202">
        <ele>72</ele>
        <time>2022-08-07T06:21:01.000Z</time>
      </trkpt>
      <trkpt lat="44.19252" lon="0.69203">
        <ele>71</ele>
        <time>2022-08-07T06:21:02.000Z</time>
      </trkpt>
      <trkpt lat="44.19253" lon="0.69204">
        <ele>71</ele>
        <time>2022-08-07T06:21:03.000Z</time>
      </trkpt>
      <trkpt lat="44.19254" lon="0.69205">
        <ele>71</ele>
        <time>2022-08-07T06:21:04.000Z</time>
      </trkpt>
      <trkpt lat="44.19255" lon="0.69206">
        <ele>71</ele>
        <time>2022-08-07T06:21:05.000Z</time>
      </trkpt>
      <trkpt lat="44.19256" lon="0.69207">
        <ele>71</ele>
        <time>2022-08-07T06:21:06.000Z</time>
      </trkpt>
      <trkpt lat="44.19257" lon="0.69208">
        <ele>71</ele>
        <time>2022-08-07T06:21:07.000Z</time>
      </trkpt>
      <trkpt lat="44.19258" lon="0.6921">
        <ele>72</ele>
        <time>2022-08-07T06:21:08.000Z</time>
      </trkpt>
      <trkpt lat="44.19259" lon="0.69211">
        <ele>73</ele>
        <time>2022-08-07T06:21:09.000Z</time>
      </trkpt>
      <trkpt lat="44.1926" lon="0.69213">
        <ele>72</ele>
        <time>2022-08-07T06:21:10.000Z</time>
      </trkpt>
      <trkpt lat="44.19261" lon="0.69214">
        <ele>72</ele>
        <time>2022-08-07T06:21:11.000Z</time>
      </trkpt>
      <trkpt lat="44.19262" lon="0.69216">
        <ele>72</ele>
        <time>2022-08-07T06:21:12.000Z</time>
      </trkpt>
      <trkpt lat="44.19262" lon="0.69216">
        <ele>72</ele>
        <time>2022-08-07T06:21:13.000Z</time>
      </trkpt>
      <trkpt lat="44.19263" lon="0.69217">
        <ele>72</ele>
        <time>2022-08-07T06:21:14.000Z</time>
      </trkpt>
      <trkpt lat="44.19264" lon="0.69218">
        <ele>72</ele>
        <time>2022-08-07T06:21:15.000Z</time>
      </trkpt>
      <trkpt lat="44.19265" lon="0.69219">
        <ele>73</ele>
        <time>2022-08-07T06:21:16.000Z</time>
      </trkpt>
      <trkpt lat="44.19265" lon="0.69221">
        <ele>73</ele>
        <time>2022-08-07T06:21:17.000Z</time>
      </trkpt>
      <trkpt lat="44.19266" lon="0.69222">
        <ele>73</ele>
        <time>2022-08-07T06:21:18.000Z</time>
      </trkpt>
      <trkpt lat="44.19267" lon="0.69223">
        <ele>72</ele>
        <time>2022-08-07T06:21:19.000Z</time>
      </trkpt>
      <trkpt lat="44.19267" lon="0.69224">
        <ele>72</ele>
        <time>2022-08-07T06:21:20.000Z</time>
      </trkpt>
      <trkpt lat="44.19268" lon="0.69226">
        <ele>72</ele>
        <time>2022-08-07T06:21:21.000Z</time>
      </trkpt>
      <trkpt lat="44.19269" lon="0.69227">
        <ele>72</ele>
        <time>2022-08-07T06:21:22.000Z</time>
      </trkpt>
      <trkpt lat="44.19269" lon="0.69228">
        <ele>72</ele>
        <time>2022-08-07T06:21:23.000Z</time>
      </trkpt>
      <trkpt lat="44.1927" lon="0.69229">
        <ele>72</ele>
        <time>2022-08-07T06:21:24.000Z</time>
      </trkpt>
      <trkpt lat="44.19271" lon="0.6923">
        <ele>72</ele>
        <time>2022-08-07T06:21:25.000Z</time>
      </trkpt>
      <trkpt lat="44.19272" lon="0.69232">
        <ele>72</ele>
        <time>2022-08-07T06:21:26.000Z</time>
      </trkpt>
      <trkpt lat="44.19273" lon="0.69233">
        <ele>73</ele>
        <time>2022-08-07T06:21:27.000Z</time>
      </trkpt>
      <trkpt lat="44.19274" lon="0.69234">
        <ele>73</ele>
        <time>2022-08-07T06:21:28.000Z</time>
      </trkpt>
      <trkpt lat="44.19275" lon="0.69235">
        <ele>73</ele>
        <time>2022-08-07T06:21:29.000Z</time>
      </trkpt>
      <trkpt lat="44.19276" lon="0.69236">
        <ele>73</ele>
        <time>2022-08-07T06:21:30.000Z</time>
      </trkpt>
      <trkpt lat="44.19276" lon="0.69237">
        <ele>73</ele>
        <time>2022-08-07T06:21:31.000Z</time>
      </trkpt>
      <trkpt lat="44.19277" lon="0.69238">
        <ele>74</ele>
        <time>2022-08-07T06:21:32.000Z</time>
      </trkpt>
      <trkpt lat="44.19278" lon="0.69239">
        <ele>73</ele>
        <time>2022-08-07T06:21:33.000Z</time>
      </trkpt>
      <trkpt lat="44.19279" lon="0.69241">
        <ele>73</ele>
        <time>2022-08-07T06:21:34.000Z</time>
      </trkpt>
      <trkpt lat="44.1928" lon="0.69242">
        <ele>73</ele>
        <time>2022-08-07T06:21:35.000Z</time>
      </trkpt>
      <trkpt lat="44.1928" lon="0.69243">
        <ele>74</ele>
        <time>2022-08-07T06:21:36.000Z</time>
      </trkpt>
      <trkpt lat="44.19281" lon="0.69244">
        <ele>74</ele>
        <time>2022-08-07T06:21:37.000Z</time>
      </trkpt>
      <trkpt lat="44.19282" lon="0.69245">
        <ele>74</ele>
        <time>2022-08-07T06:21:38.000Z</time>
      </trkpt>
      <trkpt lat="44.19283" lon="0.69246">
        <ele>74</ele>
        <time>2022-08-07T06:21:39.000Z</time>
      </trkpt>
      <trkpt lat="44.19284" lon="0.69247">
        <ele>74</ele>
        <time>2022-08-07T06:21:40.000Z</time>
      </trkpt>
      <trkpt lat="44.19285" lon="0.69248">
        <ele>73</ele>
        <time>2022-08-07T06:21:41.000Z</time>
      </trkpt>
      <trkpt lat="44.19286" lon="0.69249">
        <ele>73</ele>
        <time>2022-08-07T06:21:42.000Z</time>
      </trkpt>
      <trkpt lat="44.19287" lon="0.6925">
        <ele>73</ele>
        <time>2022-08-07T06:21:43.000Z</time>
      </trkpt>
      <trkpt lat="44.19287" lon="0.69251">
        <ele>73</ele>
        <time>2022-08-07T06:21:44.000Z</time>
      </trkpt>
      <trkpt lat="44.19288" lon="0.69252">
        <ele>73</ele>
        <time>2022-08-07T06:21:45.000Z</time>
      </trkpt>
      <trkpt lat="44.19289" lon="0.69253">
        <ele>73</ele>
        <time>2022-08-07T06:21:46.000Z</time>
      </trkpt>
      <trkpt lat="44.1929" lon="0.69255">
        <ele>73</ele>
        <time>2022-08-07T06:21:47.000Z</time>
      </trkpt>
      <trkpt lat="44.19291" lon="0.69256">
        <ele>73</ele>
        <time>2022-08-07T06:21:48.000Z</time>
      </trkpt>
      <trkpt lat="44.19292" lon="0.69257">
        <ele>73</ele>
        <time>2022-08-07T06:21:49.000Z</time>
      </trkpt>
      <trkpt lat="44.19293" lon="0.69257">
        <ele>73</ele>
        <time>2022-08-07T06:21:50.000Z</time>
      </trkpt>
      <trkpt lat="44.19294" lon="0.69258">
        <ele>73</ele>
        <time>2022-08-07T06:21:51.000Z</time>
      </trkpt>
      <trkpt lat="44.19295" lon="0.69259">
        <ele>73</ele>
        <time>2022-08-07T06:21:52.000Z</time>
      </trkpt>
      <trkpt lat="44.19296" lon="0.6926">
        <ele>73</ele>
        <time>2022-08-07T06:21:53.000Z</time>
      </trkpt>
      <trkpt lat="44.19297" lon="0.69261">
        <ele>73</ele>
        <time>2022-08-07T06:21:54.000Z</time>
      </trkpt>
      <trkpt lat="44.19298" lon="0.69262">
        <ele>73</ele>
        <time>2022-08-07T06:21:55.000Z</time>
      </trkpt>
      <trkpt lat="44.19299" lon="0.69263">
        <ele>73</ele>
        <time>2022-08-07T06:21:56.000Z</time>
      </trkpt>
      <trkpt lat="44.193" lon="0.69264">
        <ele>73</ele>
        <time>2022-08-07T06:21:57.000Z</time>
      </trkpt>
      <trkpt lat="44.19301" lon="0.69265">
        <ele>73</ele>
        <time>2022-08-07T06:21:58.000Z</time>
      </trkpt>
      <trkpt lat="44.19302" lon="0.69266">
        <ele>73</ele>
        <time>2022-08-07T06:21:59.000Z</time>
      </trkpt>
      <trkpt lat="44.19303" lon="0.69267">
        <ele>73</ele>
        <time>2022-08-07T06:22:00.000Z</time>
      </trkpt>
      <trkpt lat="44.19304" lon="0.69268">
        <ele>73</ele>
        <time>2022-08-07T06:22:01.000Z</time>
      </trkpt>
      <trkpt lat="44.19305" lon="0.69269">
        <ele>73</ele>
        <time>2022-08-07T06:22:02.000Z</time>
      </trkpt>
      <trkpt lat="44.19306" lon="0.6927">
        <ele>73</ele>
        <time>2022-08-07T06:22:03.000Z</time>
      </trkpt>
      <trkpt lat="44.19307" lon="0.6927">
        <ele>73</ele>
        <time>2022-08-07T06:22:04.000Z</time>
      </trkpt>
      <trkpt lat="44.19308" lon="0.69271">
        <ele>73</ele>
        <time>2022-08-07T06:22:05.000Z</time>
      </trkpt>
      <trkpt lat="44.19309" lon="0.69272">
        <ele>73</ele>
        <time>2022-08-07T06:22:06.000Z</time>
      </trkpt>
      <trkpt lat="44.1931" lon="0.69273">
        <ele>73</ele>
        <time>2022-08-07T06:22:07.000Z</time>
      </trkpt>
      <trkpt lat="44.19311" lon="0.69274">
        <ele>73</ele>
        <time>2022-08-07T06:22:08.000Z</time>
      </trkpt>
      <trkpt lat="44.19311" lon="0.69275">
        <ele>72</ele>
        <time>2022-08-07T06:22:09.000Z</time>
      </trkpt>
      <trkpt lat="44.19312" lon="0.69275">
        <ele>72</ele>
        <time>2022-08-07T06:22:10.000Z</time>
      </trkpt>
      <trkpt lat="44.19313" lon="0.69276">
        <ele>72</ele>
        <time>2022-08-07T06:22:11.000Z</time>
      </trkpt>
      <trkpt lat="44.19314" lon="0.69277">
        <ele>72</ele>
        <time>2022-08-07T06:22:12.000Z</time>
      </trkpt>
      <trkpt lat="44.19314" lon="0.69277">
        <ele>72</ele>
        <time>2022-08-07T06:22:13.000Z</time>
      </trkpt>
      <trkpt lat="44.19316" lon="0.69279">
        <ele>72</ele>
        <time>2022-08-07T06:22:14.000Z</time>
      </trkpt>
      <trkpt lat="44.19317" lon="0.6928">
        <ele>72</ele>
        <time>2022-08-07T06:22:15.000Z</time>
      </trkpt>
      <trkpt lat="44.19318" lon="0.69281">
        <ele>72</ele>
        <time>2022-08-07T06:22:16.000Z</time>
      </trkpt>
      <trkpt lat="44.19319" lon="0.69282">
        <ele>72</ele>
        <time>2022-08-07T06:22:17.000Z</time>
      </trkpt>
      <trkpt lat="44.1932" lon="0.69283">
        <ele>72</ele>
        <time>2022-08-07T06:22:18.000Z</time>
      </trkpt>
      <trkpt lat="44.19321" lon="0.69284">
        <ele>72</ele>
        <time>2022-08-07T06:22:19.000Z</time>
      </trkpt>
      <trkpt lat="44.19322" lon="0.69284">
        <ele>72</ele>
        <time>2022-08-07T06:22:20.000Z</time>
      </trkpt>
      <trkpt lat="44.19323" lon="0.69285">
        <ele>72</ele>
        <time>2022-08-07T06:22:21.000Z</time>
      </trkpt>
      <trkpt lat="44.19324" lon="0.69286">
        <ele>71</ele>
        <time>2022-08-07T06:22:22.000Z</time>
      </trkpt>
      <trkpt lat="44.19325" lon="0.69287">
        <ele>72</ele>
        <time>2022-08-07T06:22:23.000Z</time>
      </trkpt>
      <trkpt lat="44.19326" lon="0.69288">
        <ele>72</ele>
        <time>2022-08-07T06:22:24.000Z</time>
      </trkpt>
      <trkpt lat="44.19328" lon="0.69289">
        <ele>72</ele>
        <time>2022-08-07T06:22:25.000Z</time>
      </trkpt>
      <trkpt lat="44.19329" lon="0.6929">
        <ele>72</ele>
        <time>2022-08-07T06:22:26.000Z</time>
      </trkpt>
      <trkpt lat="44.1933" lon="0.69291">
        <ele>72</ele>
        <time>2022-08-07T06:22:27.000Z</time>
      </trkpt>
      <trkpt lat="44.19331" lon="0.69292">
        <ele>72</ele>
        <time>2022-08-07T06:22:28.000Z</time>
      </trkpt>
      <trkpt lat="44.19332" lon="0.69293">
        <ele>72</ele>
        <time>2022-08-07T06:22:29.000Z</time>
      </trkpt>
      <trkpt lat="44.19333" lon="0.69293">
        <ele>71</ele>
        <time>2022-08-07T06:22:30.000Z</time>
      </trkpt>
      <trkpt lat="44.19333" lon="0.69294">
        <ele>71</ele>
        <time>2022-08-07T06:22:31.000Z</time>
      </trkpt>
      <trkpt lat="44.19334" lon="0.69295">
        <ele>71</ele>
        <time>2022-08-07T06:22:32.000Z</time>
      </trkpt>
      <trkpt lat="44.19335" lon="0.69296">
        <ele>71</ele>
        <time>2022-08-07T06:22:33.000Z</time>
      </trkpt>
      <trkpt lat="44.19336" lon="0.69297">
        <ele>71</ele>
        <time>2022-08-07T06:22:34.000Z</time>
      </trkpt>
      <trkpt lat="44.19337" lon="0.69298">
        <ele>71</ele>
        <time>2022-08-07T06:22:35.000Z</time>
      </trkpt>
      <trkpt lat="44.19338" lon="0.69299">
        <ele>70</ele>
        <time>2022-08-07T06:22:36.000Z</time>
      </trkpt>
      <trkpt lat="44.19339" lon="0.693">
        <ele>71</ele>
        <time>2022-08-07T06:22:37.000Z</time>
      </trkpt>
      <trkpt lat="44.1934" lon="0.693">
        <ele>71</ele>
        <time>2022-08-07T06:22:38.000Z</time>
      </trkpt>
      <trkpt lat="44.1934" lon="0.69301">
        <ele>70</ele>
        <time>2022-08-07T06:22:39.000Z</time>
      </trkpt>
      <trkpt lat="44.19341" lon="0.69302">
        <ele>70</ele>
        <time>2022-08-07T06:22:40.000Z</time>
      </trkpt>
      <trkpt lat="44.19342" lon="0.69303">
        <ele>70</ele>
        <time>2022-08-07T06:22:41.000Z</time>
      </trkpt>
      <trkpt lat="44.19343" lon="0.69304">
        <ele>71</ele>
        <time>2022-08-07T06:22:42.000Z</time>
      </trkpt>
      <trkpt lat="44.19344" lon="0.69304">
        <ele>71</ele>
        <time>2022-08-07T06:22:43.000Z</time>
      </trkpt>
      <trkpt lat="44.19345" lon="0.69305">
        <ele>70</ele>
        <time>2022-08-07T06:22:44.000Z</time>
      </trkpt>
      <trkpt lat="44.19347" lon="0.69306">
        <ele>70</ele>
        <time>2022-08-07T06:22:45.000Z</time>
      </trkpt>
      <trkpt lat="44.19348" lon="0.69307">
        <ele>70</ele>
        <time>2022-08-07T06:22:46.000Z</time>
      </trkpt>
      <trkpt lat="44.19349" lon="0.69307">
        <ele>70</ele>
        <time>2022-08-07T06:22:47.000Z</time>
      </trkpt>
      <trkpt lat="44.19349" lon="0.69308">
        <ele>70</ele>
        <time>2022-08-07T06:22:48.000Z</time>
      </trkpt>
      <trkpt lat="44.1935" lon="0.69308">
        <ele>70</ele>
        <time>2022-08-07T06:22:49.000Z</time>
      </trkpt>
      <trkpt lat="44.19351" lon="0.69309">
        <ele>70</ele>
        <time>2022-08-07T06:22:50.000Z</time>
      </trkpt>
      <trkpt lat="44.19352" lon="0.6931">
        <ele>70</ele>
        <time>2022-08-07T06:22:51.000Z</time>
      </trkpt>
      <trkpt lat="44.19353" lon="0.6931">
        <ele>70</ele>
        <time>2022-08-07T06:22:52.000Z</time>
      </trkpt>
      <trkpt lat="44.19354" lon="0.69311">
        <ele>70</ele>
        <time>2022-08-07T06:22:53.000Z</time>
      </trkpt>
      <trkpt lat="44.19355" lon="0.69312">
        <ele>70</ele>
        <time>2022-08-07T06:22:54.000Z</time>
      </trkpt>
      <trkpt lat="44.19356" lon="0.69312">
        <ele>70</ele>
        <time>2022-08-07T06:22:55.000Z</time>
      </trkpt>
      <trkpt lat="44.19357" lon="0.69313">
        <ele>70</ele>
        <time>2022-08-07T06:22:56.000Z</time>
      </trkpt>
      <trkpt lat="44.19358" lon="0.69313">
        <ele>70</ele>
        <time>2022-08-07T06:22:57.000Z</time>
      </trkpt>
      <trkpt lat="44.19359" lon="0.69314">
        <ele>70</ele>
        <time>2022-08-07T06:22:58.000Z</time>
      </trkpt>
      <trkpt lat="44.1936" lon="0.69314">
        <ele>70</ele>
        <time>2022-08-07T06:22:59.000Z</time>
      </trkpt>
      <trkpt lat="44.19361" lon="0.69315">
        <ele>70</ele>
        <time>2022-08-07T06:23:00.000Z</time>
      </trkpt>
      <trkpt lat="44.19362" lon="0.69315">
        <ele>70</ele>
        <time>2022-08-07T06:23:01.000Z</time>
      </trkpt>
      <trkpt lat="44.19363" lon="0.69316">
        <ele>70</ele>
        <time>2022-08-07T06:23:02.000Z</time>
      </trkpt>
      <trkpt lat="44.19364" lon="0.69317">
        <ele>70</ele>
        <time>2022-08-07T06:23:03.000Z</time>
      </trkpt>
      <trkpt lat="44.19366" lon="0.69318">
        <ele>71</ele>
        <time>2022-08-07T06:23:04.000Z</time>
      </trkpt>
      <trkpt lat="44.19367" lon="0.69319">
        <ele>71</ele>
        <time>2022-08-07T06:23:05.000Z</time>
      </trkpt>
      <trkpt lat="44.19368" lon="0.69319">
        <ele>70</ele>
        <time>2022-08-07T06:23:06.000Z</time>
      </trkpt>
      <trkpt lat="44.19369" lon="0.6932">
        <ele>70</ele>
        <time>2022-08-07T06:23:07.000Z</time>
      </trkpt>
      <trkpt lat="44.1937" lon="0.69321">
        <ele>70</ele>
        <time>2022-08-07T06:23:08.000Z</time>
      </trkpt>
      <trkpt lat="44.19371" lon="0.69321">
        <ele>70</ele>
        <time>2022-08-07T06:23:09.000Z</time>
      </trkpt>
      <trkpt lat="44.19372" lon="0.69322">
        <ele>70</ele>
        <time>2022-08-07T06:23:10.000Z</time>
      </trkpt>
      <trkpt lat="44.19372" lon="0.69323">
        <ele>70</ele>
        <time>2022-08-07T06:23:11.000Z</time>
      </trkpt>
      <trkpt lat="44.19373" lon="0.69323">
        <ele>69</ele>
        <time>2022-08-07T06:23:12.000Z</time>
      </trkpt>
      <trkpt lat="44.19374" lon="0.69324">
        <ele>69</ele>
        <time>2022-08-07T06:23:13.000Z</time>
      </trkpt>
      <trkpt lat="44.19375" lon="0.69325">
        <ele>69</ele>
        <time>2022-08-07T06:23:14.000Z</time>
      </trkpt>
      <trkpt lat="44.19376" lon="0.69325">
        <ele>69</ele>
        <time>2022-08-07T06:23:15.000Z</time>
      </trkpt>
      <trkpt lat="44.19377" lon="0.69326">
        <ele>69</ele>
        <time>2022-08-07T06:23:16.000Z</time>
      </trkpt>
      <trkpt lat="44.19378" lon="0.69327">
        <ele>68</ele>
        <time>2022-08-07T06:23:17.000Z</time>
      </trkpt>
      <trkpt lat="44.19379" lon="0.69327">
        <ele>68</ele>
        <time>2022-08-07T06:23:18.000Z</time>
      </trkpt>
      <trkpt lat="44.1938" lon="0.69328">
        <ele>68</ele>
        <time>2022-08-07T06:23:19.000Z</time>
      </trkpt>
      <trkpt lat="44.19381" lon="0.69328">
        <ele>68</ele>
        <time>2022-08-07T06:23:20.000Z</time>
      </trkpt>
      <trkpt lat="44.19382" lon="0.69329">
        <ele>68</ele>
        <time>2022-08-07T06:23:21.000Z</time>
      </trkpt>
      <trkpt lat="44.19383" lon="0.69329">
        <ele>68</ele>
        <time>2022-08-07T06:23:22.000Z</time>
      </trkpt>
      <trkpt lat="44.19384" lon="0.6933">
        <ele>68</ele>
        <time>2022-08-07T06:23:23.000Z</time>
      </trkpt>
      <trkpt lat="44.19386" lon="0.69331">
        <ele>68</ele>
        <time>2022-08-07T06:23:24.000Z</time>
      </trkpt>
      <trkpt lat="44.19387" lon="0.69332">
        <ele>69</ele>
        <time>2022-08-07T06:23:25.000Z</time>
      </trkpt>
      <trkpt lat="44.19388" lon="0.69333">
        <ele>69</ele>
        <time>2022-08-07T06:23:26.000Z</time>
      </trkpt>
      <trkpt lat="44.19389" lon="0.69333">
        <ele>69</ele>
        <time>2022-08-07T06:23:27.000Z</time>
      </trkpt>
      <trkpt lat="44.19391" lon="0.69334">
        <ele>69</ele>
        <time>2022-08-07T06:23:28.000Z</time>
      </trkpt>
      <trkpt lat="44.19392" lon="0.69335">
        <ele>69</ele>
        <time>2022-08-07T06:23:29.000Z</time>
      </trkpt>
      <trkpt lat="44.19393" lon="0.69335">
        <ele>69</ele>
        <time>2022-08-07T06:23:30.000Z</time>
      </trkpt>
      <trkpt lat="44.19394" lon="0.69336">
        <ele>70</ele>
        <time>2022-08-07T06:23:31.000Z</time>
      </trkpt>
      <trkpt lat="44.19395" lon="0.69337">
        <ele>70</ele>
        <time>2022-08-07T06:23:32.000Z</time>
      </trkpt>
      <trkpt lat="44.19396" lon="0.69338">
        <ele>70</ele>
        <time>2022-08-07T06:23:33.000Z</time>
      </trkpt>
      <trkpt lat="44.19397" lon="0.69339">
        <ele>71</ele>
        <time>2022-08-07T06:23:34.000Z</time>
      </trkpt>
      <trkpt lat="44.19398" lon="0.6934">
        <ele>71</ele>
        <time>2022-08-07T06:23:35.000Z</time>
      </trkpt>
      <trkpt lat="44.19399" lon="0.6934">
        <ele>71</ele>
        <time>2022-08-07T06:23:36.000Z</time>
      </trkpt>
      <trkpt lat="44.194" lon="0.69341">
        <ele>71</ele>
        <time>2022-08-07T06:23:37.000Z</time>
      </trkpt>
      <trkpt lat="44.19401" lon="0.69342">
        <ele>71</ele>
        <time>2022-08-07T06:23:38.000Z</time>
      </trkpt>
      <trkpt lat="44.19401" lon="0.69342">
        <ele>71</ele>
        <time>2022-08-07T06:23:39.000Z</time>
      </trkpt>
      <trkpt lat="44.19402" lon="0.69343">
        <ele>72</ele>
        <time>2022-08-07T06:23:40.000Z</time>
      </trkpt>
      <trkpt lat="44.19403" lon="0.69344">
        <ele>72</ele>
        <time>2022-08-07T06:23:41.000Z</time>
      </trkpt>
      <trkpt lat="44.19404" lon="0.69344">
        <ele>72</ele>
        <time>2022-08-07T06:23:42.000Z</time>
      </trkpt>
      <trkpt lat="44.19405" lon="0.69345">
        <ele>73</ele>
        <time>2022-08-07T06:23:43.000Z</time>
      </trkpt>
      <trkpt lat="44.19406" lon="0.69346">
        <ele>73</ele>
        <time>2022-08-07T06:23:44.000Z</time>
      </trkpt>
      <trkpt lat="44.19407" lon="0.69346">
        <ele>72</ele>
        <time>2022-08-07T06:23:45.000Z</time>
      </trkpt>
      <trkpt lat="44.19408" lon="0.69347">
        <ele>72</ele>
        <time>2022-08-07T06:23:46.000Z</time>
      </trkpt>
      <trkpt lat="44.19409" lon="0.69347">
        <ele>71</ele>
        <time>2022-08-07T06:23:47.000Z</time>
      </trkpt>
      <trkpt lat="44.1941" lon="0.69348">
        <ele>71</ele>
        <time>2022-08-07T06:23:48.000Z</time>
      </trkpt>
      <trkpt lat="44.19411" lon="0.69349">
        <ele>72</ele>
        <time>2022-08-07T06:23:49.000Z</time>
      </trkpt>
      <trkpt lat="44.19412" lon="0.6935">
        <ele>72</ele>
        <time>2022-08-07T06:23:50.000Z</time>
      </trkpt>
      <trkpt lat="44.19413" lon="0.69351">
        <ele>72</ele>
        <time>2022-08-07T06:23:51.000Z</time>
      </trkpt>
      <trkpt lat="44.19415" lon="0.69352">
        <ele>72</ele>
        <time>2022-08-07T06:23:52.000Z</time>
      </trkpt>
      <trkpt lat="44.19416" lon="0.69352">
        <ele>72</ele>
        <time>2022-08-07T06:23:53.000Z</time>
      </trkpt>
      <trkpt lat="44.19417" lon="0.69353">
        <ele>72</ele>
        <time>2022-08-07T06:23:54.000Z</time>
      </trkpt>
      <trkpt lat="44.19417" lon="0.69354">
        <ele>71</ele>
        <time>2022-08-07T06:23:55.000Z</time>
      </trkpt>
      <trkpt lat="44.19418" lon="0.69355">
        <ele>71</ele>
        <time>2022-08-07T06:23:56.000Z</time>
      </trkpt>
      <trkpt lat="44.19419" lon="0.69356">
        <ele>71</ele>
        <time>2022-08-07T06:23:57.000Z</time>
      </trkpt>
      <trkpt lat="44.1942" lon="0.69357">
        <ele>71</ele>
        <time>2022-08-07T06:23:58.000Z</time>
      </trkpt>
      <trkpt lat="44.19421" lon="0.69358">
        <ele>70</ele>
        <time>2022-08-07T06:23:59.000Z</time>
      </trkpt>
      <trkpt lat="44.19421" lon="0.69359">
        <ele>70</ele>
        <time>2022-08-07T06:24:00.000Z</time>
      </trkpt>
      <trkpt lat="44.19422" lon="0.6936">
        <ele>70</ele>
        <time>2022-08-07T06:24:01.000Z</time>
      </trkpt>
      <trkpt lat="44.19423" lon="0.69361">
        <ele>70</ele>
        <time>2022-08-07T06:24:02.000Z</time>
      </trkpt>
      <trkpt lat="44.19423" lon="0.69362">
        <ele>70</ele>
        <time>2022-08-07T06:24:03.000Z</time>
      </trkpt>
      <trkpt lat="44.19424" lon="0.69364">
        <ele>70</ele>
        <time>2022-08-07T06:24:04.000Z</time>
      </trkpt>
      <trkpt lat="44.19424" lon="0.69365">
        <ele>70</ele>
        <time>2022-08-07T06:24:05.000Z</time>
      </trkpt>
      <trkpt lat="44.19425" lon="0.69366">
        <ele>69</ele>
        <time>2022-08-07T06:24:06.000Z</time>
      </trkpt>
      <trkpt lat="44.19425" lon="0.69367">
        <ele>69</ele>
        <time>2022-08-07T06:24:07.000Z</time>
      </trkpt>
      <trkpt lat="44.19426" lon="0.69368">
        <ele>69</ele>
        <time>2022-08-07T06:24:08.000Z</time>
      </trkpt>
      <trkpt lat="44.19427" lon="0.69369">
        <ele>69</ele>
        <time>2022-08-07T06:24:09.000Z</time>
      </trkpt>
      <trkpt lat="44.19427" lon="0.69371">
        <ele>69</ele>
        <time>2022-08-07T06:24:10.000Z</time>
      </trkpt>
      <trkpt lat="44.19428" lon="0.69373">
        <ele>70</ele>
        <time>2022-08-07T06:24:11.000Z</time>
      </trkpt>
      <trkpt lat="44.19428" lon="0.69375">
        <ele>70</ele>
        <time>2022-08-07T06:24:12.000Z</time>
      </trkpt>
      <trkpt lat="44.19429" lon="0.69376">
        <ele>70</ele>
        <time>2022-08-07T06:24:13.000Z</time>
      </trkpt>
      <trkpt lat="44.1943" lon="0.69378">
        <ele>70</ele>
        <time>2022-08-07T06:24:14.000Z</time>
      </trkpt>
      <trkpt lat="44.1943" lon="0.69379">
        <ele>70</ele>
        <time>2022-08-07T06:24:15.000Z</time>
      </trkpt>
      <trkpt lat="44.19431" lon="0.69381">
        <ele>70</ele>
        <time>2022-08-07T06:24:16.000Z</time>
      </trkpt>
      <trkpt lat="44.19432" lon="0.69382">
        <ele>70</ele>
        <time>2022-08-07T06:24:17.000Z</time>
      </trkpt>
      <trkpt lat="44.19432" lon="0.69383">
        <ele>70</ele>
        <time>2022-08-07T06:24:18.000Z</time>
      </trkpt>
      <trkpt lat="44.19433" lon="0.69384">
        <ele>70</ele>
        <time>2022-08-07T06:24:19.000Z</time>
      </trkpt>
      <trkpt lat="44.19434" lon="0.69385">
        <ele>70</ele>
        <time>2022-08-07T06:24:20.000Z</time>
      </trkpt>
      <trkpt lat="44.19436" lon="0.69386">
        <ele>70</ele>
        <time>2022-08-07T06:24:21.000Z</time>
      </trkpt>
      <trkpt lat="44.19437" lon="0.69387">
        <ele>70</ele>
        <time>2022-08-07T06:24:22.000Z</time>
      </trkpt>
      <trkpt lat="44.19438" lon="0.69388">
        <ele>70</ele>
        <time>2022-08-07T06:24:23.000Z</time>
      </trkpt>
      <trkpt lat="44.1944" lon="0.69389">
        <ele>70</ele>
        <time>2022-08-07T06:24:24.000Z</time>
      </trkpt>
      <trkpt lat="44.19441" lon="0.6939">
        <ele>69</ele>
        <time>2022-08-07T06:24:25.000Z</time>
      </trkpt>
      <trkpt lat="44.19442" lon="0.6939">
        <ele>69</ele>
        <time>2022-08-07T06:24:26.000Z</time>
      </trkpt>
      <trkpt lat="44.19443" lon="0.69391">
        <ele>69</ele>
        <time>2022-08-07T06:24:27.000Z</time>
      </trkpt>
      <trkpt lat="44.19444" lon="0.69392">
        <ele>69</ele>
        <time>2022-08-07T06:24:28.000Z</time>
      </trkpt>
      <trkpt lat="44.19445" lon="0.69393">
        <ele>69</ele>
        <time>2022-08-07T06:24:29.000Z</time>
      </trkpt>
      <trkpt lat="44.19446" lon="0.69394">
        <ele>69</ele>
        <time>2022-08-07T06:24:30.000Z</time>
      </trkpt>
      <trkpt lat="44.19448" lon="0.69395">
        <ele>69</ele>
        <time>2022-08-07T06:24:31.000Z</time>
      </trkpt>
      <trkpt lat="44.19449" lon="0.69396">
        <ele>68</ele>
        <time>2022-08-07T06:24:32.000Z</time>
      </trkpt>
      <trkpt lat="44.1945" lon="0.69397">
        <ele>68</ele>
        <time>2022-08-07T06:24:33.000Z</time>
      </trkpt>
      <trkpt lat="44.19451" lon="0.69397">
        <ele>67</ele>
        <time>2022-08-07T06:24:34.000Z</time>
      </trkpt>
      <trkpt lat="44.19453" lon="0.69398">
        <ele>67</ele>
        <time>2022-08-07T06:24:35.000Z</time>
      </trkpt>
      <trkpt lat="44.19454" lon="0.69399">
        <ele>67</ele>
        <time>2022-08-07T06:24:36.000Z</time>
      </trkpt>
      <trkpt lat="44.19455" lon="0.69399">
        <ele>66</ele>
        <time>2022-08-07T06:24:37.000Z</time>
      </trkpt>
      <trkpt lat="44.19456" lon="0.694">
        <ele>66</ele>
        <time>2022-08-07T06:24:38.000Z</time>
      </trkpt>
      <trkpt lat="44.19457" lon="0.69401">
        <ele>67</ele>
        <time>2022-08-07T06:24:39.000Z</time>
      </trkpt>
      <trkpt lat="44.19458" lon="0.69401">
        <ele>66</ele>
        <time>2022-08-07T06:24:40.000Z</time>
      </trkpt>
      <trkpt lat="44.19459" lon="0.69402">
        <ele>66</ele>
        <time>2022-08-07T06:24:41.000Z</time>
      </trkpt>
      <trkpt lat="44.1946" lon="0.69403">
        <ele>66</ele>
        <time>2022-08-07T06:24:42.000Z</time>
      </trkpt>
      <trkpt lat="44.19462" lon="0.69403">
        <ele>66</ele>
        <time>2022-08-07T06:24:43.000Z</time>
      </trkpt>
      <trkpt lat="44.19463" lon="0.69404">
        <ele>66</ele>
        <time>2022-08-07T06:24:44.000Z</time>
      </trkpt>
      <trkpt lat="44.19464" lon="0.69405">
        <ele>67</ele>
        <time>2022-08-07T06:24:45.000Z</time>
      </trkpt>
      <trkpt lat="44.19466" lon="0.69406">
        <ele>67</ele>
        <time>2022-08-07T06:24:46.000Z</time>
      </trkpt>
      <trkpt lat="44.19467" lon="0.69406">
        <ele>67</ele>
        <time>2022-08-07T06:24:47.000Z</time>
      </trkpt>
      <trkpt lat="44.19467" lon="0.69407">
        <ele>67</ele>
        <time>2022-08-07T06:24:48.000Z</time>
      </trkpt>
      <trkpt lat="44.19468" lon="0.69408">
        <ele>67</ele>
        <time>2022-08-07T06:24:49.000Z</time>
      </trkpt>
      <trkpt lat="44.1947" lon="0.69409">
        <ele>68</ele>
        <time>2022-08-07T06:24:50.000Z</time>
      </trkpt>
      <trkpt lat="44.19471" lon="0.69409">
        <ele>68</ele>
        <time>2022-08-07T06:24:51.000Z</time>
      </trkpt>
      <trkpt lat="44.19472" lon="0.6941">
        <ele>68</ele>
        <time>2022-08-07T06:24:52.000Z</time>
      </trkpt>
      <trkpt lat="44.19472" lon="0.69411">
        <ele>68</ele>
        <time>2022-08-07T06:24:53.000Z</time>
      </trkpt>
      <trkpt lat="44.19473" lon="0.69412">
        <ele>68</ele>
        <time>2022-08-07T06:24:54.000Z</time>
      </trkpt>
      <trkpt lat="44.19474" lon="0.69413">
        <ele>68</ele>
        <time>2022-08-07T06:24:55.000Z</time>
      </trkpt>
      <trkpt lat="44.19475" lon="0.69414">
        <ele>69</ele>
        <time>2022-08-07T06:24:56.000Z</time>
      </trkpt>
      <trkpt lat="44.19476" lon="0.69415">
        <ele>69</ele>
        <time>2022-08-07T06:24:57.000Z</time>
      </trkpt>
      <trkpt lat="44.19477" lon="0.69416">
        <ele>69</ele>
        <time>2022-08-07T06:24:58.000Z</time>
      </trkpt>
      <trkpt lat="44.19478" lon="0.69417">
        <ele>69</ele>
        <time>2022-08-07T06:24:59.000Z</time>
      </trkpt>
      <trkpt lat="44.19479" lon="0.69418">
        <ele>68</ele>
        <time>2022-08-07T06:25:00.000Z</time>
      </trkpt>
      <trkpt lat="44.1948" lon="0.6942">
        <ele>68</ele>
        <time>2022-08-07T06:25:01.000Z</time>
      </trkpt>
      <trkpt lat="44.1948" lon="0.69421">
        <ele>68</ele>
        <time>2022-08-07T06:25:02.000Z</time>
      </trkpt>
      <trkpt lat="44.19481" lon="0.69422">
        <ele>68</ele>
        <time>2022-08-07T06:25:03.000Z</time>
      </trkpt>
      <trkpt lat="44.19481" lon="0.69423">
        <ele>68</ele>
        <time>2022-08-07T06:25:04.000Z</time>
      </trkpt>
      <trkpt lat="44.19482" lon="0.69424">
        <ele>68</ele>
        <time>2022-08-07T06:25:05.000Z</time>
      </trkpt>
      <trkpt lat="44.19482" lon="0.69425">
        <ele>68</ele>
        <time>2022-08-07T06:25:06.000Z</time>
      </trkpt>
      <trkpt lat="44.19483" lon="0.69426">
        <ele>67</ele>
        <time>2022-08-07T06:25:07.000Z</time>
      </trkpt>
      <trkpt lat="44.19483" lon="0.69428">
        <ele>67</ele>
        <time>2022-08-07T06:25:08.000Z</time>
      </trkpt>
      <trkpt lat="44.19483" lon="0.69429">
        <ele>67</ele>
        <time>2022-08-07T06:25:09.000Z</time>
      </trkpt>
      <trkpt lat="44.19483" lon="0.69431">
        <ele>67</ele>
        <time>2022-08-07T06:25:10.000Z</time>
      </trkpt>
      <trkpt lat="44.19484" lon="0.69433">
        <ele>67</ele>
        <time>2022-08-07T06:25:11.000Z</time>
      </trkpt>
      <trkpt lat="44.19484" lon="0.69434">
        <ele>67</ele>
        <time>2022-08-07T06:25:12.000Z</time>
      </trkpt>
      <trkpt lat="44.19485" lon="0.69436">
        <ele>67</ele>
        <time>2022-08-07T06:25:13.000Z</time>
      </trkpt>
      <trkpt lat="44.19485" lon="0.69437">
        <ele>67</ele>
        <time>2022-08-07T06:25:14.000Z</time>
      </trkpt>
      <trkpt lat="44.19485" lon="0.69439">
        <ele>67</ele>
        <time>2022-08-07T06:25:15.000Z</time>
      </trkpt>
      <trkpt lat="44.19485" lon="0.6944">
        <ele>66</ele>
        <time>2022-08-07T06:25:16.000Z</time>
      </trkpt>
      <trkpt lat="44.19486" lon="0.69442">
        <ele>66</ele>
        <time>2022-08-07T06:25:17.000Z</time>
      </trkpt>
      <trkpt lat="44.19486" lon="0.69443">
        <ele>66</ele>
        <time>2022-08-07T06:25:18.000Z</time>
      </trkpt>
      <trkpt lat="44.19486" lon="0.69444">
        <ele>66</ele>
        <time>2022-08-07T06:25:19.000Z</time>
      </trkpt>
      <trkpt lat="44.19487" lon="0.69445">
        <ele>66</ele>
        <time>2022-08-07T06:25:20.000Z</time>
      </trkpt>
      <trkpt lat="44.19487" lon="0.69447">
        <ele>66</ele>
        <time>2022-08-07T06:25:21.000Z</time>
      </trkpt>
      <trkpt lat="44.19488" lon="0.69448">
        <ele>67</ele>
        <time>2022-08-07T06:25:22.000Z</time>
      </trkpt>
      <trkpt lat="44.19488" lon="0.6945">
        <ele>67</ele>
        <time>2022-08-07T06:25:23.000Z</time>
      </trkpt>
      <trkpt lat="44.19489" lon="0.69451">
        <ele>67</ele>
        <time>2022-08-07T06:25:24.000Z</time>
      </trkpt>
      <trkpt lat="44.19489" lon="0.69453">
        <ele>67</ele>
        <time>2022-08-07T06:25:25.000Z</time>
      </trkpt>
      <trkpt lat="44.1949" lon="0.69454">
        <ele>68</ele>
        <time>2022-08-07T06:25:26.000Z</time>
      </trkpt>
      <trkpt lat="44.1949" lon="0.69455">
        <ele>68</ele>
        <time>2022-08-07T06:25:27.000Z</time>
      </trkpt>
      <trkpt lat="44.19491" lon="0.69457">
        <ele>68</ele>
        <time>2022-08-07T06:25:28.000Z</time>
      </trkpt>
      <trkpt lat="44.19491" lon="0.69458">
        <ele>68</ele>
        <time>2022-08-07T06:25:29.000Z</time>
      </trkpt>
      <trkpt lat="44.19492" lon="0.6946">
        <ele>68</ele>
        <time>2022-08-07T06:25:30.000Z</time>
      </trkpt>
      <trkpt lat="44.19492" lon="0.69461">
        <ele>68</ele>
        <time>2022-08-07T06:25:31.000Z</time>
      </trkpt>
      <trkpt lat="44.19492" lon="0.69463">
        <ele>68</ele>
        <time>2022-08-07T06:25:32.000Z</time>
      </trkpt>
      <trkpt lat="44.19493" lon="0.69464">
        <ele>69</ele>
        <time>2022-08-07T06:25:33.000Z</time>
      </trkpt>
      <trkpt lat="44.19493" lon="0.69466">
        <ele>69</ele>
        <time>2022-08-07T06:25:34.000Z</time>
      </trkpt>
      <trkpt lat="44.19493" lon="0.69468">
        <ele>69</ele>
        <time>2022-08-07T06:25:35.000Z</time>
      </trkpt>
      <trkpt lat="44.19493" lon="0.69469">
        <ele>69</ele>
        <time>2022-08-07T06:25:36.000Z</time>
      </trkpt>
      <trkpt lat="44.19493" lon="0.69471">
        <ele>69</ele>
        <time>2022-08-07T06:25:37.000Z</time>
      </trkpt>
      <trkpt lat="44.19494" lon="0.69472">
        <ele>69</ele>
        <time>2022-08-07T06:25:38.000Z</time>
      </trkpt>
      <trkpt lat="44.19494" lon="0.69474">
        <ele>69</ele>
        <time>2022-08-07T06:25:39.000Z</time>
      </trkpt>
      <trkpt lat="44.19494" lon="0.69475">
        <ele>70</ele>
        <time>2022-08-07T06:25:40.000Z</time>
      </trkpt>
      <trkpt lat="44.19495" lon="0.69476">
        <ele>70</ele>
        <time>2022-08-07T06:25:41.000Z</time>
      </trkpt>
      <trkpt lat="44.19495" lon="0.69478">
        <ele>69</ele>
        <time>2022-08-07T06:25:42.000Z</time>
      </trkpt>
      <trkpt lat="44.19496" lon="0.6948">
        <ele>70</ele>
        <time>2022-08-07T06:25:43.000Z</time>
      </trkpt>
      <trkpt lat="44.19497" lon="0.69481">
        <ele>70</ele>
        <time>2022-08-07T06:25:44.000Z</time>
      </trkpt>
      <trkpt lat="44.19497" lon="0.69483">
        <ele>70</ele>
        <time>2022-08-07T06:25:45.000Z</time>
      </trkpt>
      <trkpt lat="44.19498" lon="0.69484">
        <ele>70</ele>
        <time>2022-08-07T06:25:46.000Z</time>
      </trkpt>
      <trkpt lat="44.19499" lon="0.69485">
        <ele>70</ele>
        <time>2022-08-07T06:25:47.000Z</time>
      </trkpt>
      <trkpt lat="44.19499" lon="0.69487">
        <ele>71</ele>
        <time>2022-08-07T06:25:48.000Z</time>
      </trkpt>
      <trkpt lat="44.195" lon="0.69488">
        <ele>71</ele>
        <time>2022-08-07T06:25:49.000Z</time>
      </trkpt>
      <trkpt lat="44.19501" lon="0.69489">
        <ele>71</ele>
        <time>2022-08-07T06:25:50.000Z</time>
      </trkpt>
      <trkpt lat="44.19501" lon="0.6949">
        <ele>71</ele>
        <time>2022-08-07T06:25:51.000Z</time>
      </trkpt>
      <trkpt lat="44.19502" lon="0.69491">
        <ele>71</ele>
        <time>2022-08-07T06:25:52.000Z</time>
      </trkpt>
      <trkpt lat="44.19503" lon="0.69492">
        <ele>71</ele>
        <time>2022-08-07T06:25:53.000Z</time>
      </trkpt>
      <trkpt lat="44.19503" lon="0.69494">
        <ele>71</ele>
        <time>2022-08-07T06:25:54.000Z</time>
      </trkpt>
      <trkpt lat="44.19504" lon="0.69495">
        <ele>72</ele>
        <time>2022-08-07T06:25:55.000Z</time>
      </trkpt>
      <trkpt lat="44.19505" lon="0.69496">
        <ele>72</ele>
        <time>2022-08-07T06:25:56.000Z</time>
      </trkpt>
      <trkpt lat="44.19506" lon="0.69497">
        <ele>72</ele>
        <time>2022-08-07T06:25:57.000Z</time>
      </trkpt>
      <trkpt lat="44.19506" lon="0.69498">
        <ele>73</ele>
        <time>2022-08-07T06:25:58.000Z</time>
      </trkpt>
      <trkpt lat="44.19507" lon="0.69499">
        <ele>73</ele>
        <time>2022-08-07T06:25:59.000Z</time>
      </trkpt>
      <trkpt lat="44.19507" lon="0.695">
        <ele>73</ele>
        <time>2022-08-07T06:26:00.000Z</time>
      </trkpt>
      <trkpt lat="44.19508" lon="0.69501">
        <ele>73</ele>
        <time>2022-08-07T06:26:01.000Z</time>
      </trkpt>
      <trkpt lat="44.19509" lon="0.69502">
        <ele>73</ele>
        <time>2022-08-07T06:26:02.000Z</time>
      </trkpt>
      <trkpt lat="44.19509" lon="0.69503">
        <ele>73</ele>
        <time>2022-08-07T06:26:03.000Z</time>
      </trkpt>
      <trkpt lat="44.1951" lon="0.69504">
        <ele>73</ele>
        <time>2022-08-07T06:26:04.000Z</time>
      </trkpt>
      <trkpt lat="44.19511" lon="0.69506">
        <ele>73</ele>
        <time>2022-08-07T06:26:05.000Z</time>
      </trkpt>
      <trkpt lat="44.19511" lon="0.69507">
        <ele>73</ele>
        <time>2022-08-07T06:26:06.000Z</time>
      </trkpt>
      <trkpt lat="44.19512" lon="0.69508">
        <ele>73</ele>
        <time>2022-08-07T06:26:07.000Z</time>
      </trkpt>
      <trkpt lat="44.19513" lon="0.69508">
        <ele>74</ele>
        <time>2022-08-07T06:26:08.000Z</time>
      </trkpt>
      <trkpt lat="44.19513" lon="0.69509">
        <ele>74</ele>
        <time>2022-08-07T06:26:09.000Z</time>
      </trkpt>
      <trkpt lat="44.19514" lon="0.69511">
        <ele>74</ele>
        <time>2022-08-07T06:26:10.000Z</time>
      </trkpt>
      <trkpt lat="44.19515" lon="0.69512">
        <ele>74</ele>
        <time>2022-08-07T06:26:11.000Z</time>
      </trkpt>
      <trkpt lat="44.19516" lon="0.69513">
        <ele>74</ele>
        <time>2022-08-07T06:26:12.000Z</time>
      </trkpt>
      <trkpt lat="44.19517" lon="0.69514">
        <ele>74</ele>
        <time>2022-08-07T06:26:13.000Z</time>
      </trkpt>
      <trkpt lat="44.19517" lon="0.69515">
        <ele>73</ele>
        <time>2022-08-07T06:26:14.000Z</time>
      </trkpt>
      <trkpt lat="44.19518" lon="0.69516">
        <ele>73</ele>
        <time>2022-08-07T06:26:15.000Z</time>
      </trkpt>
      <trkpt lat="44.19519" lon="0.69517">
        <ele>73</ele>
        <time>2022-08-07T06:26:16.000Z</time>
      </trkpt>
      <trkpt lat="44.1952" lon="0.69518">
        <ele>73</ele>
        <time>2022-08-07T06:26:17.000Z</time>
      </trkpt>
      <trkpt lat="44.1952" lon="0.69519">
        <ele>73</ele>
        <time>2022-08-07T06:26:18.000Z</time>
      </trkpt>
      <trkpt lat="44.19521" lon="0.6952">
        <ele>73</ele>
        <time>2022-08-07T06:26:19.000Z</time>
      </trkpt>
      <trkpt lat="44.19522" lon="0.69521">
        <ele>73</ele>
        <time>2022-08-07T06:26:20.000Z</time>
      </trkpt>
      <trkpt lat="44.19522" lon="0.69522">
        <ele>72</ele>
        <time>2022-08-07T06:26:21.000Z</time>
      </trkpt>
      <trkpt lat="44.19523" lon="0.69523">
        <ele>72</ele>
        <time>2022-08-07T06:26:22.000Z</time>
      </trkpt>
      <trkpt lat="44.19523" lon="0.69524">
        <ele>72</ele>
        <time>2022-08-07T06:26:23.000Z</time>
      </trkpt>
      <trkpt lat="44.19524" lon="0.69525">
        <ele>72</ele>
        <time>2022-08-07T06:26:24.000Z</time>
      </trkpt>
      <trkpt lat="44.19525" lon="0.69527">
        <ele>71</ele>
        <time>2022-08-07T06:26:25.000Z</time>
      </trkpt>
      <trkpt lat="44.19526" lon="0.69528">
        <ele>72</ele>
        <time>2022-08-07T06:26:26.000Z</time>
      </trkpt>
      <trkpt lat="44.19527" lon="0.69529">
        <ele>72</ele>
        <time>2022-08-07T06:26:27.000Z</time>
      </trkpt>
      <trkpt lat="44.19527" lon="0.6953">
        <ele>71</ele>
        <time>2022-08-07T06:26:28.000Z</time>
      </trkpt>
      <trkpt lat="44.19528" lon="0.69531">
        <ele>72</ele>
        <time>2022-08-07T06:26:29.000Z</time>
      </trkpt>
      <trkpt lat="44.19529" lon="0.69533">
        <ele>72</ele>
        <time>2022-08-07T06:26:30.000Z</time>
      </trkpt>
      <trkpt lat="44.1953" lon="0.69534">
        <ele>72</ele>
        <time>2022-08-07T06:26:31.000Z</time>
      </trkpt>
      <trkpt lat="44.19531" lon="0.69536">
        <ele>72</ele>
        <time>2022-08-07T06:26:32.000Z</time>
      </trkpt>
      <trkpt lat="44.19532" lon="0.69537">
        <ele>73</ele>
        <time>2022-08-07T06:26:33.000Z</time>
      </trkpt>
      <trkpt lat="44.19532" lon="0.69538">
        <ele>73</ele>
        <time>2022-08-07T06:26:34.000Z</time>
      </trkpt>
      <trkpt lat="44.19533" lon="0.69539">
        <ele>73</ele>
        <time>2022-08-07T06:26:35.000Z</time>
      </trkpt>
      <trkpt lat="44.19534" lon="0.6954">
        <ele>73</ele>
        <time>2022-08-07T06:26:36.000Z</time>
      </trkpt>
      <trkpt lat="44.19535" lon="0.69542">
        <ele>72</ele>
        <time>2022-08-07T06:26:37.000Z</time>
      </trkpt>
      <trkpt lat="44.19536" lon="0.69543">
        <ele>72</ele>
        <time>2022-08-07T06:26:38.000Z</time>
      </trkpt>
      <trkpt lat="44.19537" lon="0.69545">
        <ele>72</ele>
        <time>2022-08-07T06:26:39.000Z</time>
      </trkpt>
      <trkpt lat="44.19538" lon="0.69546">
        <ele>72</ele>
        <time>2022-08-07T06:26:40.000Z</time>
      </trkpt>
      <trkpt lat="44.19539" lon="0.69548">
        <ele>72</ele>
        <time>2022-08-07T06:26:41.000Z</time>
      </trkpt>
      <trkpt lat="44.19539" lon="0.69549">
        <ele>72</ele>
        <time>2022-08-07T06:26:42.000Z</time>
      </trkpt>
      <trkpt lat="44.1954" lon="0.6955">
        <ele>72</ele>
        <time>2022-08-07T06:26:43.000Z</time>
      </trkpt>
      <trkpt lat="44.19541" lon="0.69551">
        <ele>71</ele>
        <time>2022-08-07T06:26:44.000Z</time>
      </trkpt>
      <trkpt lat="44.19542" lon="0.69552">
        <ele>72</ele>
        <time>2022-08-07T06:26:45.000Z</time>
      </trkpt>
      <trkpt lat="44.19543" lon="0.69554">
        <ele>72</ele>
        <time>2022-08-07T06:26:46.000Z</time>
      </trkpt>
      <trkpt lat="44.19543" lon="0.69555">
        <ele>72</ele>
        <time>2022-08-07T06:26:47.000Z</time>
      </trkpt>
      <trkpt lat="44.19544" lon="0.69557">
        <ele>73</ele>
        <time>2022-08-07T06:26:48.000Z</time>
      </trkpt>
      <trkpt lat="44.19545" lon="0.69558">
        <ele>72</ele>
        <time>2022-08-07T06:26:49.000Z</time>
      </trkpt>
      <trkpt lat="44.19545" lon="0.6956">
        <ele>72</ele>
        <time>2022-08-07T06:26:50.000Z</time>
      </trkpt>
      <trkpt lat="44.19546" lon="0.69561">
        <ele>72</ele>
        <time>2022-08-07T06:26:51.000Z</time>
      </trkpt>
      <trkpt lat="44.19546" lon="0.69563">
        <ele>72</ele>
        <time>2022-08-07T06:26:52.000Z</time>
      </trkpt>
      <trkpt lat="44.19547" lon="0.69564">
        <ele>72</ele>
        <time>2022-08-07T06:26:53.000Z</time>
      </trkpt>
      <trkpt lat="44.19547" lon="0.69566">
        <ele>72</ele>
        <time>2022-08-07T06:26:54.000Z</time>
      </trkpt>
      <trkpt lat="44.19548" lon="0.69567">
        <ele>71</ele>
        <time>2022-08-07T06:26:55.000Z</time>
      </trkpt>
      <trkpt lat="44.19548" lon="0.69569">
        <ele>71</ele>
        <time>2022-08-07T06:26:56.000Z</time>
      </trkpt>
      <trkpt lat="44.19549" lon="0.69571">
        <ele>71</ele>
        <time>2022-08-07T06:26:57.000Z</time>
      </trkpt>
      <trkpt lat="44.19549" lon="0.69573">
        <ele>71</ele>
        <time>2022-08-07T06:26:58.000Z</time>
      </trkpt>
      <trkpt lat="44.1955" lon="0.69574">
        <ele>71</ele>
        <time>2022-08-07T06:26:59.000Z</time>
      </trkpt>
      <trkpt lat="44.1955" lon="0.69575">
        <ele>71</ele>
        <time>2022-08-07T06:27:00.000Z</time>
      </trkpt>
      <trkpt lat="44.19551" lon="0.69577">
        <ele>70</ele>
        <time>2022-08-07T06:27:01.000Z</time>
      </trkpt>
      <trkpt lat="44.19552" lon="0.69578">
        <ele>70</ele>
        <time>2022-08-07T06:27:02.000Z</time>
      </trkpt>
      <trkpt lat="44.19552" lon="0.6958">
        <ele>70</ele>
        <time>2022-08-07T06:27:03.000Z</time>
      </trkpt>
      <trkpt lat="44.19553" lon="0.69581">
        <ele>70</ele>
        <time>2022-08-07T06:27:04.000Z</time>
      </trkpt>
      <trkpt lat="44.19554" lon="0.69582">
        <ele>70</ele>
        <time>2022-08-07T06:27:05.000Z</time>
      </trkpt>
      <trkpt lat="44.19554" lon="0.69584">
        <ele>70</ele>
        <time>2022-08-07T06:27:06.000Z</time>
      </trkpt>
      <trkpt lat="44.19555" lon="0.69586">
        <ele>71</ele>
        <time>2022-08-07T06:27:07.000Z</time>
      </trkpt>
      <trkpt lat="44.19556" lon="0.69587">
        <ele>70</ele>
        <time>2022-08-07T06:27:08.000Z</time>
      </trkpt>
      <trkpt lat="44.19556" lon="0.69589">
        <ele>70</ele>
        <time>2022-08-07T06:27:09.000Z</time>
      </trkpt>
      <trkpt lat="44.19557" lon="0.69591">
        <ele>70</ele>
        <time>2022-08-07T06:27:10.000Z</time>
      </trkpt>
      <trkpt lat="44.19557" lon="0.69592">
        <ele>70</ele>
        <time>2022-08-07T06:27:11.000Z</time>
      </trkpt>
      <trkpt lat="44.19558" lon="0.69594">
        <ele>70</ele>
        <time>2022-08-07T06:27:12.000Z</time>
      </trkpt>
      <trkpt lat="44.19558" lon="0.69596">
        <ele>70</ele>
        <time>2022-08-07T06:27:13.000Z</time>
      </trkpt>
      <trkpt lat="44.19558" lon="0.69598">
        <ele>70</ele>
        <time>2022-08-07T06:27:14.000Z</time>
      </trkpt>
      <trkpt lat="44.19559" lon="0.69599">
        <ele>70</ele>
        <time>2022-08-07T06:27:15.000Z</time>
      </trkpt>
      <trkpt lat="44.19559" lon="0.69601">
        <ele>71</ele>
        <time>2022-08-07T06:27:16.000Z</time>
      </trkpt>
      <trkpt lat="44.19559" lon="0.69601">
        <ele>71</ele>
        <time>2022-08-07T06:27:17.000Z</time>
      </trkpt>
      <trkpt lat="44.19559" lon="0.69602">
        <ele>71</ele>
        <time>2022-08-07T06:27:18.000Z</time>
      </trkpt>
      <trkpt lat="44.19559" lon="0.69602">
        <ele>70</ele>
        <time>2022-08-07T06:27:19.000Z</time>
      </trkpt>
      <trkpt lat="44.19559" lon="0.69602">
        <ele>70</ele>
        <time>2022-08-07T06:27:20.000Z</time>
      </trkpt>
      <trkpt lat="44.19559" lon="0.69603">
        <ele>70</ele>
        <time>2022-08-07T06:27:21.000Z</time>
      </trkpt>
      <trkpt lat="44.19559" lon="0.69603">
        <ele>70</ele>
        <time>2022-08-07T06:27:22.000Z</time>
      </trkpt>
      <trkpt lat="44.19559" lon="0.69603">
        <ele>70</ele>
        <time>2022-08-07T06:27:23.000Z</time>
      </trkpt>
      <trkpt lat="44.19559" lon="0.69603">
        <ele>70</ele>
        <time>2022-08-07T06:27:24.000Z</time>
      </trkpt>
      <trkpt lat="44.19564" lon="0.69604">
        <ele>71</ele>
        <time>2022-08-07T06:27:45.118Z</time>
      </trkpt>
      <trkpt lat="44.19565" lon="0.69605">
        <ele>71</ele>
        <time>2022-08-07T06:27:46.118Z</time>
      </trkpt>
      <trkpt lat="44.19566" lon="0.69606">
        <ele>71</ele>
        <time>2022-08-07T06:27:47.118Z</time>
      </trkpt>
      <trkpt lat="44.19568" lon="0.69607">
        <ele>71</ele>
        <time>2022-08-07T06:27:48.118Z</time>
      </trkpt>
      <trkpt lat="44.19569" lon="0.69609">
        <ele>71</ele>
        <time>2022-08-07T06:27:49.118Z</time>
      </trkpt>
      <trkpt lat="44.1957" lon="0.6961">
        <ele>71</ele>
        <time>2022-08-07T06:27:50.118Z</time>
      </trkpt>
      <trkpt lat="44.19571" lon="0.69611">
        <ele>71</ele>
        <time>2022-08-07T06:27:51.118Z</time>
      </trkpt>
      <trkpt lat="44.19572" lon="0.69612">
        <ele>71</ele>
        <time>2022-08-07T06:27:52.118Z</time>
      </trkpt>
      <trkpt lat="44.19573" lon="0.69613">
        <ele>71</ele>
        <time>2022-08-07T06:27:53.118Z</time>
      </trkpt>
      <trkpt lat="44.19575" lon="0.69615">
        <ele>72</ele>
        <time>2022-08-07T06:27:54.118Z</time>
      </trkpt>
      <trkpt lat="44.19576" lon="0.69616">
        <ele>72</ele>
        <time>2022-08-07T06:27:55.118Z</time>
      </trkpt>
      <trkpt lat="44.19577" lon="0.69617">
        <ele>72</ele>
        <time>2022-08-07T06:27:56.118Z</time>
      </trkpt>
      <trkpt lat="44.19578" lon="0.69618">
        <ele>72</ele>
        <time>2022-08-07T06:27:57.118Z</time>
      </trkpt>
      <trkpt lat="44.19579" lon="0.6962">
        <ele>72</ele>
        <time>2022-08-07T06:27:58.118Z</time>
      </trkpt>
      <trkpt lat="44.1958" lon="0.69621">
        <ele>72</ele>
        <time>2022-08-07T06:27:59.118Z</time>
      </trkpt>
      <trkpt lat="44.19581" lon="0.69622">
        <ele>72</ele>
        <time>2022-08-07T06:28:00.118Z</time>
      </trkpt>
      <trkpt lat="44.19582" lon="0.69624">
        <ele>72</ele>
        <time>2022-08-07T06:28:01.118Z</time>
      </trkpt>
      <trkpt lat="44.19583" lon="0.69625">
        <ele>73</ele>
        <time>2022-08-07T06:28:02.118Z</time>
      </trkpt>
      <trkpt lat="44.19584" lon="0.69626">
        <ele>73</ele>
        <time>2022-08-07T06:28:03.118Z</time>
      </trkpt>
      <trkpt lat="44.19586" lon="0.69628">
        <ele>73</ele>
        <time>2022-08-07T06:28:04.118Z</time>
      </trkpt>
      <trkpt lat="44.19587" lon="0.69629">
        <ele>73</ele>
        <time>2022-08-07T06:28:05.118Z</time>
      </trkpt>
      <trkpt lat="44.19588" lon="0.69631">
        <ele>73</ele>
        <time>2022-08-07T06:28:06.118Z</time>
      </trkpt>
      <trkpt lat="44.19589" lon="0.69632">
        <ele>73</ele>
        <time>2022-08-07T06:28:07.118Z</time>
      </trkpt>
      <trkpt lat="44.1959" lon="0.69634">
        <ele>73</ele>
        <time>2022-08-07T06:28:08.118Z</time>
      </trkpt>
      <trkpt lat="44.19591" lon="0.69635">
        <ele>74</ele>
        <time>2022-08-07T06:28:09.118Z</time>
      </trkpt>
      <trkpt lat="44.19592" lon="0.69636">
        <ele>73</ele>
        <time>2022-08-07T06:28:10.118Z</time>
      </trkpt>
      <trkpt lat="44.19594" lon="0.69637">
        <ele>74</ele>
        <time>2022-08-07T06:28:11.118Z</time>
      </trkpt>
      <trkpt lat="44.19595" lon="0.69638">
        <ele>74</ele>
        <time>2022-08-07T06:28:12.118Z</time>
      </trkpt>
      <trkpt lat="44.19596" lon="0.69639">
        <ele>74</ele>
        <time>2022-08-07T06:28:13.118Z</time>
      </trkpt>
      <trkpt lat="44.19597" lon="0.6964">
        <ele>75</ele>
        <time>2022-08-07T06:28:14.118Z</time>
      </trkpt>
      <trkpt lat="44.19599" lon="0.69642">
        <ele>75</ele>
        <time>2022-08-07T06:28:15.118Z</time>
      </trkpt>
      <trkpt lat="44.19599" lon="0.69643">
        <ele>75</ele>
        <time>2022-08-07T06:28:16.118Z</time>
      </trkpt>
      <trkpt lat="44.196" lon="0.69645">
        <ele>75</ele>
        <time>2022-08-07T06:28:17.118Z</time>
      </trkpt>
      <trkpt lat="44.19601" lon="0.69647">
        <ele>75</ele>
        <time>2022-08-07T06:28:18.118Z</time>
      </trkpt>
      <trkpt lat="44.19602" lon="0.69648">
        <ele>75</ele>
        <time>2022-08-07T06:28:19.118Z</time>
      </trkpt>
      <trkpt lat="44.19604" lon="0.6965">
        <ele>75</ele>
        <time>2022-08-07T06:28:20.118Z</time>
      </trkpt>
      <trkpt lat="44.19605" lon="0.69651">
        <ele>76</ele>
        <time>2022-08-07T06:28:21.118Z</time>
      </trkpt>
      <trkpt lat="44.19606" lon="0.69653">
        <ele>76</ele>
        <time>2022-08-07T06:28:22.118Z</time>
      </trkpt>
      <trkpt lat="44.19607" lon="0.69654">
        <ele>75</ele>
        <time>2022-08-07T06:28:23.118Z</time>
      </trkpt>
      <trkpt lat="44.19608" lon="0.69655">
        <ele>75</ele>
        <time>2022-08-07T06:28:24.118Z</time>
      </trkpt>
      <trkpt lat="44.1961" lon="0.69656">
        <ele>75</ele>
        <time>2022-08-07T06:28:25.118Z</time>
      </trkpt>
      <trkpt lat="44.19611" lon="0.69658">
        <ele>76</ele>
        <time>2022-08-07T06:28:26.118Z</time>
      </trkpt>
      <trkpt lat="44.19612" lon="0.69659">
        <ele>76</ele>
        <time>2022-08-07T06:28:27.118Z</time>
      </trkpt>
      <trkpt lat="44.19613" lon="0.6966">
        <ele>76</ele>
        <time>2022-08-07T06:28:28.118Z</time>
      </trkpt>
      <trkpt lat="44.19614" lon="0.69662">
        <ele>76</ele>
        <time>2022-08-07T06:28:29.118Z</time>
      </trkpt>
      <trkpt lat="44.19615" lon="0.69663">
        <ele>76</ele>
        <time>2022-08-07T06:28:30.118Z</time>
      </trkpt>
      <trkpt lat="44.19615" lon="0.69664">
        <ele>76</ele>
        <time>2022-08-07T06:28:31.118Z</time>
      </trkpt>
      <trkpt lat="44.19616" lon="0.69666">
        <ele>76</ele>
        <time>2022-08-07T06:28:32.118Z</time>
      </trkpt>
      <trkpt lat="44.19616" lon="0.69668">
        <ele>76</ele>
        <time>2022-08-07T06:28:33.118Z</time>
      </trkpt>
      <trkpt lat="44.19617" lon="0.69669">
        <ele>76</ele>
        <time>2022-08-07T06:28:34.118Z</time>
      </trkpt>
      <trkpt lat="44.19617" lon="0.69671">
        <ele>75</ele>
        <time>2022-08-07T06:28:35.118Z</time>
      </trkpt>
      <trkpt lat="44.19617" lon="0.69673">
        <ele>75</ele>
        <time>2022-08-07T06:28:36.118Z</time>
      </trkpt>
      <trkpt lat="44.19618" lon="0.69675">
        <ele>75</ele>
        <time>2022-08-07T06:28:37.118Z</time>
      </trkpt>
      <trkpt lat="44.19618" lon="0.69677">
        <ele>75</ele>
        <time>2022-08-07T06:28:38.118Z</time>
      </trkpt>
      <trkpt lat="44.19619" lon="0.69679">
        <ele>75</ele>
        <time>2022-08-07T06:28:39.118Z</time>
      </trkpt>
      <trkpt lat="44.19619" lon="0.6968">
        <ele>75</ele>
        <time>2022-08-07T06:28:40.118Z</time>
      </trkpt>
      <trkpt lat="44.1962" lon="0.69682">
        <ele>76</ele>
        <time>2022-08-07T06:28:41.118Z</time>
      </trkpt>
      <trkpt lat="44.1962" lon="0.69684">
        <ele>76</ele>
        <time>2022-08-07T06:28:42.118Z</time>
      </trkpt>
      <trkpt lat="44.1962" lon="0.69686">
        <ele>76</ele>
        <time>2022-08-07T06:28:43.118Z</time>
      </trkpt>
      <trkpt lat="44.19621" lon="0.69688">
        <ele>76</ele>
        <time>2022-08-07T06:28:44.118Z</time>
      </trkpt>
      <trkpt lat="44.19621" lon="0.6969">
        <ele>76</ele>
        <time>2022-08-07T06:28:45.118Z</time>
      </trkpt>
      <trkpt lat="44.19622" lon="0.69692">
        <ele>76</ele>
        <time>2022-08-07T06:28:46.118Z</time>
      </trkpt>
      <trkpt lat="44.19622" lon="0.69693">
        <ele>77</ele>
        <time>2022-08-07T06:28:47.118Z</time>
      </trkpt>
      <trkpt lat="44.19622" lon="0.69695">
        <ele>77</ele>
        <time>2022-08-07T06:28:48.118Z</time>
      </trkpt>
      <trkpt lat="44.19622" lon="0.69697">
        <ele>77</ele>
        <time>2022-08-07T06:28:49.118Z</time>
      </trkpt>
      <trkpt lat="44.19622" lon="0.69699">
        <ele>77</ele>
        <time>2022-08-07T06:28:50.118Z</time>
      </trkpt>
      <trkpt lat="44.19622" lon="0.69701">
        <ele>77</ele>
        <time>2022-08-07T06:28:51.118Z</time>
      </trkpt>
      <trkpt lat="44.19623" lon="0.69703">
        <ele>77</ele>
        <time>2022-08-07T06:28:52.118Z</time>
      </trkpt>
      <trkpt lat="44.19623" lon="0.69704">
        <ele>77</ele>
        <time>2022-08-07T06:28:53.118Z</time>
      </trkpt>
      <trkpt lat="44.19623" lon="0.69706">
        <ele>77</ele>
        <time>2022-08-07T06:28:54.118Z</time>
      </trkpt>
      <trkpt lat="44.19623" lon="0.69708">
        <ele>77</ele>
        <time>2022-08-07T06:28:55.118Z</time>
      </trkpt>
      <trkpt lat="44.19623" lon="0.69709">
        <ele>77</ele>
        <time>2022-08-07T06:28:56.118Z</time>
      </trkpt>
      <trkpt lat="44.19623" lon="0.69711">
        <ele>77</ele>
        <time>2022-08-07T06:28:57.118Z</time>
      </trkpt>
      <trkpt lat="44.19623" lon="0.69713">
        <ele>77</ele>
        <time>2022-08-07T06:28:58.118Z</time>
      </trkpt>
      <trkpt lat="44.19622" lon="0.69715">
        <ele>77</ele>
        <time>2022-08-07T06:28:59.118Z</time>
      </trkpt>
      <trkpt lat="44.19622" lon="0.69716">
        <ele>77</ele>
        <time>2022-08-07T06:29:00.118Z</time>
      </trkpt>
      <trkpt lat="44.19621" lon="0.69718">
        <ele>77</ele>
        <time>2022-08-07T06:29:01.118Z</time>
      </trkpt>
      <trkpt lat="44.19621" lon="0.69719">
        <ele>77</ele>
        <time>2022-08-07T06:29:02.118Z</time>
      </trkpt>
      <trkpt lat="44.1962" lon="0.6972">
        <ele>78</ele>
        <time>2022-08-07T06:29:03.118Z</time>
      </trkpt>
      <trkpt lat="44.1962" lon="0.6972">
        <ele>78</ele>
        <time>2022-08-07T06:29:04.118Z</time>
      </trkpt>
      <trkpt lat="44.1962" lon="0.69721">
        <ele>78</ele>
        <time>2022-08-07T06:29:05.118Z</time>
      </trkpt>
      <trkpt lat="44.19619" lon="0.69722">
        <ele>78</ele>
        <time>2022-08-07T06:29:06.118Z</time>
      </trkpt>
      <trkpt lat="44.19618" lon="0.69724">
        <ele>79</ele>
        <time>2022-08-07T06:29:07.118Z</time>
      </trkpt>
      <trkpt lat="44.19617" lon="0.69726">
        <ele>79</ele>
        <time>2022-08-07T06:29:08.118Z</time>
      </trkpt>
      <trkpt lat="44.19617" lon="0.69727">
        <ele>79</ele>
        <time>2022-08-07T06:29:09.118Z</time>
      </trkpt>
      <trkpt lat="44.19616" lon="0.69728">
        <ele>79</ele>
        <time>2022-08-07T06:29:10.118Z</time>
      </trkpt>
      <trkpt lat="44.19615" lon="0.69729">
        <ele>78</ele>
        <time>2022-08-07T06:29:11.118Z</time>
      </trkpt>
      <trkpt lat="44.19614" lon="0.69731">
        <ele>78</ele>
        <time>2022-08-07T06:29:12.118Z</time>
      </trkpt>
      <trkpt lat="44.19613" lon="0.69732">
        <ele>78</ele>
        <time>2022-08-07T06:29:13.118Z</time>
      </trkpt>
      <trkpt lat="44.19612" lon="0.69733">
        <ele>78</ele>
        <time>2022-08-07T06:29:14.118Z</time>
      </trkpt>
      <trkpt lat="44.19611" lon="0.69733">
        <ele>78</ele>
        <time>2022-08-07T06:29:15.118Z</time>
      </trkpt>
      <trkpt lat="44.19611" lon="0.69733">
        <ele>78</ele>
        <time>2022-08-07T06:29:16.118Z</time>
      </trkpt>
      <trkpt lat="44.19611" lon="0.69734">
        <ele>78</ele>
        <time>2022-08-07T06:29:17.118Z</time>
      </trkpt>
      <trkpt lat="44.1961" lon="0.69735">
        <ele>79</ele>
        <time>2022-08-07T06:29:18.118Z</time>
      </trkpt>
      <trkpt lat="44.1961" lon="0.69736">
        <ele>79</ele>
        <time>2022-08-07T06:29:19.118Z</time>
      </trkpt>
      <trkpt lat="44.19609" lon="0.69738">
        <ele>79</ele>
        <time>2022-08-07T06:29:20.118Z</time>
      </trkpt>
      <trkpt lat="44.19608" lon="0.69739">
        <ele>79</ele>
        <time>2022-08-07T06:29:21.118Z</time>
      </trkpt>
      <trkpt lat="44.19607" lon="0.6974">
        <ele>79</ele>
        <time>2022-08-07T06:29:22.118Z</time>
      </trkpt>
      <trkpt lat="44.19606" lon="0.69741">
        <ele>79</ele>
        <time>2022-08-07T06:29:23.118Z</time>
      </trkpt>
      <trkpt lat="44.19605" lon="0.69742">
        <ele>78</ele>
        <time>2022-08-07T06:29:24.118Z</time>
      </trkpt>
      <trkpt lat="44.19604" lon="0.69743">
        <ele>79</ele>
        <time>2022-08-07T06:29:25.118Z</time>
      </trkpt>
      <trkpt lat="44.19603" lon="0.69745">
        <ele>78</ele>
        <time>2022-08-07T06:29:26.118Z</time>
      </trkpt>
      <trkpt lat="44.19602" lon="0.69746">
        <ele>79</ele>
        <time>2022-08-07T06:29:27.118Z</time>
      </trkpt>
      <trkpt lat="44.19601" lon="0.69747">
        <ele>79</ele>
        <time>2022-08-07T06:29:28.118Z</time>
      </trkpt>
      <trkpt lat="44.19601" lon="0.69748">
        <ele>79</ele>
        <time>2022-08-07T06:29:29.118Z</time>
      </trkpt>
      <trkpt lat="44.196" lon="0.6975">
        <ele>79</ele>
        <time>2022-08-07T06:29:30.118Z</time>
      </trkpt>
      <trkpt lat="44.19599" lon="0.69751">
        <ele>80</ele>
        <time>2022-08-07T06:29:31.118Z</time>
      </trkpt>
      <trkpt lat="44.19598" lon="0.69752">
        <ele>80</ele>
        <time>2022-08-07T06:29:32.118Z</time>
      </trkpt>
      <trkpt lat="44.19597" lon="0.69754">
        <ele>80</ele>
        <time>2022-08-07T06:29:33.118Z</time>
      </trkpt>
      <trkpt lat="44.19597" lon="0.69755">
        <ele>80</ele>
        <time>2022-08-07T06:29:34.118Z</time>
      </trkpt>
      <trkpt lat="44.19596" lon="0.69756">
        <ele>80</ele>
        <time>2022-08-07T06:29:35.118Z</time>
      </trkpt>
      <trkpt lat="44.19595" lon="0.69757">
        <ele>80</ele>
        <time>2022-08-07T06:29:36.118Z</time>
      </trkpt>
      <trkpt lat="44.19594" lon="0.69758">
        <ele>80</ele>
        <time>2022-08-07T06:29:37.118Z</time>
      </trkpt>
      <trkpt lat="44.19594" lon="0.69759">
        <ele>80</ele>
        <time>2022-08-07T06:29:38.118Z</time>
      </trkpt>
      <trkpt lat="44.19593" lon="0.6976">
        <ele>80</ele>
        <time>2022-08-07T06:29:39.118Z</time>
      </trkpt>
      <trkpt lat="44.19592" lon="0.69761">
        <ele>80</ele>
        <time>2022-08-07T06:29:40.118Z</time>
      </trkpt>
      <trkpt lat="44.19592" lon="0.69762">
        <ele>80</ele>
        <time>2022-08-07T06:29:41.118Z</time>
      </trkpt>
      <trkpt lat="44.19591" lon="0.69763">
        <ele>80</ele>
        <time>2022-08-07T06:29:42.118Z</time>
      </trkpt>
      <trkpt lat="44.1959" lon="0.69764">
        <ele>80</ele>
        <time>2022-08-07T06:29:43.118Z</time>
      </trkpt>
      <trkpt lat="44.1959" lon="0.69765">
        <ele>81</ele>
        <time>2022-08-07T06:29:44.118Z</time>
      </trkpt>
      <trkpt lat="44.19589" lon="0.69766">
        <ele>81</ele>
        <time>2022-08-07T06:29:45.118Z</time>
      </trkpt>
      <trkpt lat="44.19588" lon="0.69768">
        <ele>81</ele>
        <time>2022-08-07T06:29:46.118Z</time>
      </trkpt>
      <trkpt lat="44.19588" lon="0.69769">
        <ele>81</ele>
        <time>2022-08-07T06:29:47.118Z</time>
      </trkpt>
      <trkpt lat="44.19587" lon="0.6977">
        <ele>81</ele>
        <time>2022-08-07T06:29:48.118Z</time>
      </trkpt>
      <trkpt lat="44.19586" lon="0.69771">
        <ele>82</ele>
        <time>2022-08-07T06:29:49.118Z</time>
      </trkpt>
      <trkpt lat="44.19586" lon="0.69772">
        <ele>82</ele>
        <time>2022-08-07T06:29:50.118Z</time>
      </trkpt>
      <trkpt lat="44.19585" lon="0.69773">
        <ele>82</ele>
        <time>2022-08-07T06:29:51.118Z</time>
      </trkpt>
      <trkpt lat="44.19584" lon="0.69774">
        <ele>82</ele>
        <time>2022-08-07T06:29:52.118Z</time>
      </trkpt>
      <trkpt lat="44.19584" lon="0.69775">
        <ele>82</ele>
        <time>2022-08-07T06:29:53.118Z</time>
      </trkpt>
      <trkpt lat="44.19583" lon="0.69776">
        <ele>82</ele>
        <time>2022-08-07T06:29:54.118Z</time>
      </trkpt>
      <trkpt lat="44.19582" lon="0.69776">
        <ele>81</ele>
        <time>2022-08-07T06:29:55.118Z</time>
      </trkpt>
      <trkpt lat="44.19582" lon="0.69777">
        <ele>81</ele>
        <time>2022-08-07T06:29:56.118Z</time>
      </trkpt>
      <trkpt lat="44.19581" lon="0.69778">
        <ele>82</ele>
        <time>2022-08-07T06:29:57.118Z</time>
      </trkpt>
      <trkpt lat="44.19581" lon="0.69779">
        <ele>81</ele>
        <time>2022-08-07T06:29:58.118Z</time>
      </trkpt>
      <trkpt lat="44.1958" lon="0.69781">
        <ele>82</ele>
        <time>2022-08-07T06:29:59.118Z</time>
      </trkpt>
      <trkpt lat="44.1958" lon="0.69782">
        <ele>82</ele>
        <time>2022-08-07T06:30:00.118Z</time>
      </trkpt>
      <trkpt lat="44.19579" lon="0.69784">
        <ele>82</ele>
        <time>2022-08-07T06:30:01.118Z</time>
      </trkpt>
      <trkpt lat="44.19578" lon="0.69785">
        <ele>82</ele>
        <time>2022-08-07T06:30:02.118Z</time>
      </trkpt>
      <trkpt lat="44.19578" lon="0.69786">
        <ele>83</ele>
        <time>2022-08-07T06:30:03.118Z</time>
      </trkpt>
      <trkpt lat="44.19576" lon="0.69787">
        <ele>83</ele>
        <time>2022-08-07T06:30:04.118Z</time>
      </trkpt>
      <trkpt lat="44.19575" lon="0.69788">
        <ele>83</ele>
        <time>2022-08-07T06:30:05.118Z</time>
      </trkpt>
      <trkpt lat="44.19574" lon="0.69789">
        <ele>83</ele>
        <time>2022-08-07T06:30:06.118Z</time>
      </trkpt>
      <trkpt lat="44.19573" lon="0.6979">
        <ele>83</ele>
        <time>2022-08-07T06:30:07.118Z</time>
      </trkpt>
      <trkpt lat="44.19572" lon="0.69791">
        <ele>83</ele>
        <time>2022-08-07T06:30:08.118Z</time>
      </trkpt>
      <trkpt lat="44.19571" lon="0.69792">
        <ele>83</ele>
        <time>2022-08-07T06:30:09.118Z</time>
      </trkpt>
      <trkpt lat="44.1957" lon="0.69793">
        <ele>83</ele>
        <time>2022-08-07T06:30:10.118Z</time>
      </trkpt>
      <trkpt lat="44.19569" lon="0.69794">
        <ele>83</ele>
        <time>2022-08-07T06:30:11.118Z</time>
      </trkpt>
      <trkpt lat="44.19568" lon="0.69796">
        <ele>83</ele>
        <time>2022-08-07T06:30:12.118Z</time>
      </trkpt>
      <trkpt lat="44.19567" lon="0.69797">
        <ele>83</ele>
        <time>2022-08-07T06:30:13.118Z</time>
      </trkpt>
      <trkpt lat="44.19566" lon="0.69797">
        <ele>84</ele>
        <time>2022-08-07T06:30:14.118Z</time>
      </trkpt>
      <trkpt lat="44.19565" lon="0.69798">
        <ele>84</ele>
        <time>2022-08-07T06:30:15.118Z</time>
      </trkpt>
      <trkpt lat="44.19564" lon="0.69799">
        <ele>84</ele>
        <time>2022-08-07T06:30:16.118Z</time>
      </trkpt>
      <trkpt lat="44.19563" lon="0.698">
        <ele>85</ele>
        <time>2022-08-07T06:30:17.118Z</time>
      </trkpt>
      <trkpt lat="44.19562" lon="0.69801">
        <ele>85</ele>
        <time>2022-08-07T06:30:18.118Z</time>
      </trkpt>
      <trkpt lat="44.19562" lon="0.69802">
        <ele>85</ele>
        <time>2022-08-07T06:30:19.118Z</time>
      </trkpt>
      <trkpt lat="44.19561" lon="0.69802">
        <ele>85</ele>
        <time>2022-08-07T06:30:20.118Z</time>
      </trkpt>
      <trkpt lat="44.1956" lon="0.69803">
        <ele>85</ele>
        <time>2022-08-07T06:30:21.118Z</time>
      </trkpt>
      <trkpt lat="44.19559" lon="0.69804">
        <ele>85</ele>
        <time>2022-08-07T06:30:22.118Z</time>
      </trkpt>
      <trkpt lat="44.19558" lon="0.69805">
        <ele>85</ele>
        <time>2022-08-07T06:30:23.118Z</time>
      </trkpt>
      <trkpt lat="44.19557" lon="0.69805">
        <ele>85</ele>
        <time>2022-08-07T06:30:24.118Z</time>
      </trkpt>
      <trkpt lat="44.19557" lon="0.69806">
        <ele>85</ele>
        <time>2022-08-07T06:30:25.118Z</time>
      </trkpt>
      <trkpt lat="44.19556" lon="0.69807">
        <ele>85</ele>
        <time>2022-08-07T06:30:26.118Z</time>
      </trkpt>
      <trkpt lat="44.19555" lon="0.69807">
        <ele>85</ele>
        <time>2022-08-07T06:30:27.118Z</time>
      </trkpt>
      <trkpt lat="44.19554" lon="0.69808">
        <ele>85</ele>
        <time>2022-08-07T06:30:28.118Z</time>
      </trkpt>
      <trkpt lat="44.19553" lon="0.69808">
        <ele>85</ele>
        <time>2022-08-07T06:30:29.118Z</time>
      </trkpt>
      <trkpt lat="44.19553" lon="0.69809">
        <ele>85</ele>
        <time>2022-08-07T06:30:30.118Z</time>
      </trkpt>
      <trkpt lat="44.19552" lon="0.6981">
        <ele>85</ele>
        <time>2022-08-07T06:30:31.118Z</time>
      </trkpt>
      <trkpt lat="44.19552" lon="0.6981">
        <ele>85</ele>
        <time>2022-08-07T06:30:32.118Z</time>
      </trkpt>
      <trkpt lat="44.19551" lon="0.69811">
        <ele>85</ele>
        <time>2022-08-07T06:30:33.118Z</time>
      </trkpt>
      <trkpt lat="44.1955" lon="0.69811">
        <ele>84</ele>
        <time>2022-08-07T06:30:34.118Z</time>
      </trkpt>
      <trkpt lat="44.19549" lon="0.69812">
        <ele>84</ele>
        <time>2022-08-07T06:30:35.118Z</time>
      </trkpt>
      <trkpt lat="44.19549" lon="0.69813">
        <ele>85</ele>
        <time>2022-08-07T06:30:36.118Z</time>
      </trkpt>
      <trkpt lat="44.19548" lon="0.69813">
        <ele>85</ele>
        <time>2022-08-07T06:30:37.118Z</time>
      </trkpt>
      <trkpt lat="44.19547" lon="0.69814">
        <ele>85</ele>
        <time>2022-08-07T06:30:38.118Z</time>
      </trkpt>
      <trkpt lat="44.19547" lon="0.69815">
        <ele>85</ele>
        <time>2022-08-07T06:30:39.118Z</time>
      </trkpt>
      <trkpt lat="44.19546" lon="0.69815">
        <ele>85</ele>
        <time>2022-08-07T06:30:40.118Z</time>
      </trkpt>
      <trkpt lat="44.19545" lon="0.69816">
        <ele>85</ele>
        <time>2022-08-07T06:30:41.118Z</time>
      </trkpt>
      <trkpt lat="44.19544" lon="0.69817">
        <ele>85</ele>
        <time>2022-08-07T06:30:42.118Z</time>
      </trkpt>
      <trkpt lat="44.19543" lon="0.69818">
        <ele>85</ele>
        <time>2022-08-07T06:30:43.118Z</time>
      </trkpt>
      <trkpt lat="44.19542" lon="0.69819">
        <ele>86</ele>
        <time>2022-08-07T06:30:44.118Z</time>
      </trkpt>
      <trkpt lat="44.19541" lon="0.6982">
        <ele>86</ele>
        <time>2022-08-07T06:30:45.118Z</time>
      </trkpt>
      <trkpt lat="44.1954" lon="0.69821">
        <ele>86</ele>
        <time>2022-08-07T06:30:46.118Z</time>
      </trkpt>
      <trkpt lat="44.19539" lon="0.69822">
        <ele>86</ele>
        <time>2022-08-07T06:30:47.118Z</time>
      </trkpt>
      <trkpt lat="44.19539" lon="0.69823">
        <ele>86</ele>
        <time>2022-08-07T06:30:48.118Z</time>
      </trkpt>
      <trkpt lat="44.19538" lon="0.69823">
        <ele>86</ele>
        <time>2022-08-07T06:30:49.118Z</time>
      </trkpt>
      <trkpt lat="44.19537" lon="0.69824">
        <ele>86</ele>
        <time>2022-08-07T06:30:50.118Z</time>
      </trkpt>
      <trkpt lat="44.19537" lon="0.69825">
        <ele>86</ele>
        <time>2022-08-07T06:30:51.118Z</time>
      </trkpt>
      <trkpt lat="44.19536" lon="0.69825">
        <ele>87</ele>
        <time>2022-08-07T06:30:52.118Z</time>
      </trkpt>
      <trkpt lat="44.19535" lon="0.69826">
        <ele>86</ele>
        <time>2022-08-07T06:30:53.118Z</time>
      </trkpt>
      <trkpt lat="44.19534" lon="0.69826">
        <ele>87</ele>
        <time>2022-08-07T06:30:54.118Z</time>
      </trkpt>
      <trkpt lat="44.19533" lon="0.69827">
        <ele>87</ele>
        <time>2022-08-07T06:30:55.118Z</time>
      </trkpt>
      <trkpt lat="44.19532" lon="0.69827">
        <ele>87</ele>
        <time>2022-08-07T06:30:56.118Z</time>
      </trkpt>
      <trkpt lat="44.19531" lon="0.69828">
        <ele>87</ele>
        <time>2022-08-07T06:30:57.118Z</time>
      </trkpt>
      <trkpt lat="44.1953" lon="0.69829">
        <ele>88</ele>
        <time>2022-08-07T06:30:58.118Z</time>
      </trkpt>
      <trkpt lat="44.19529" lon="0.69829">
        <ele>88</ele>
        <time>2022-08-07T06:30:59.118Z</time>
      </trkpt>
      <trkpt lat="44.19528" lon="0.6983">
        <ele>88</ele>
        <time>2022-08-07T06:31:00.118Z</time>
      </trkpt>
      <trkpt lat="44.19528" lon="0.69831">
        <ele>88</ele>
        <time>2022-08-07T06:31:01.118Z</time>
      </trkpt>
      <trkpt lat="44.19527" lon="0.69832">
        <ele>88</ele>
        <time>2022-08-07T06:31:02.118Z</time>
      </trkpt>
      <trkpt lat="44.19526" lon="0.69833">
        <ele>88</ele>
        <time>2022-08-07T06:31:03.118Z</time>
      </trkpt>
      <trkpt lat="44.19525" lon="0.69834">
        <ele>89</ele>
        <time>2022-08-07T06:31:04.118Z</time>
      </trkpt>
      <trkpt lat="44.19525" lon="0.69834">
        <ele>88</ele>
        <time>2022-08-07T06:31:05.118Z</time>
      </trkpt>
      <trkpt lat="44.19524" lon="0.69835">
        <ele>89</ele>
        <time>2022-08-07T06:31:06.118Z</time>
      </trkpt>
      <trkpt lat="44.19523" lon="0.69836">
        <ele>90</ele>
        <time>2022-08-07T06:31:07.118Z</time>
      </trkpt>
      <trkpt lat="44.19522" lon="0.69837">
        <ele>90</ele>
        <time>2022-08-07T06:31:08.118Z</time>
      </trkpt>
      <trkpt lat="44.19522" lon="0.69838">
        <ele>90</ele>
        <time>2022-08-07T06:31:09.118Z</time>
      </trkpt>
      <trkpt lat="44.19521" lon="0.69839">
        <ele>90</ele>
        <time>2022-08-07T06:31:10.118Z</time>
      </trkpt>
      <trkpt lat="44.1952" lon="0.69839">
        <ele>90</ele>
        <time>2022-08-07T06:31:11.118Z</time>
      </trkpt>
      <trkpt lat="44.1952" lon="0.6984">
        <ele>90</ele>
        <time>2022-08-07T06:31:12.118Z</time>
      </trkpt>
      <trkpt lat="44.19519" lon="0.69841">
        <ele>90</ele>
        <time>2022-08-07T06:31:13.118Z</time>
      </trkpt>
      <trkpt lat="44.19519" lon="0.69842">
        <ele>91</ele>
        <time>2022-08-07T06:31:14.118Z</time>
      </trkpt>
      <trkpt lat="44.19518" lon="0.69843">
        <ele>91</ele>
        <time>2022-08-07T06:31:15.118Z</time>
      </trkpt>
      <trkpt lat="44.19518" lon="0.69844">
        <ele>90</ele>
        <time>2022-08-07T06:31:16.118Z</time>
      </trkpt>
      <trkpt lat="44.19518" lon="0.69845">
        <ele>90</ele>
        <time>2022-08-07T06:31:17.118Z</time>
      </trkpt>
      <trkpt lat="44.19517" lon="0.69846">
        <ele>91</ele>
        <time>2022-08-07T06:31:18.118Z</time>
      </trkpt>
      <trkpt lat="44.19516" lon="0.69847">
        <ele>92</ele>
        <time>2022-08-07T06:31:19.118Z</time>
      </trkpt>
      <trkpt lat="44.19516" lon="0.69848">
        <ele>91</ele>
        <time>2022-08-07T06:31:20.118Z</time>
      </trkpt>
      <trkpt lat="44.19516" lon="0.69848">
        <ele>90</ele>
        <time>2022-08-07T06:31:21.118Z</time>
      </trkpt>
      <trkpt lat="44.19516" lon="0.69848">
        <ele>90</ele>
        <time>2022-08-07T06:31:22.118Z</time>
      </trkpt>
      <trkpt lat="44.19516" lon="0.69848">
        <ele>90</ele>
        <time>2022-08-07T06:31:23.118Z</time>
      </trkpt>
      <trkpt lat="44.19516" lon="0.69848">
        <ele>91</ele>
        <time>2022-08-07T06:31:24.118Z</time>
      </trkpt>
      <trkpt lat="44.19516" lon="0.69848">
        <ele>90</ele>
        <time>2022-08-07T06:31:25.118Z</time>
      </trkpt>
      <trkpt lat="44.19516" lon="0.69848">
        <ele>90</ele>
        <time>2022-08-07T06:31:26.118Z</time>
      </trkpt>
      <trkpt lat="44.19516" lon="0.69848">
        <ele>90</ele>
        <time>2022-08-07T06:31:27.118Z</time>
      </trkpt>
      <trkpt lat="44.19518" lon="0.69851">
        <ele>91</ele>
        <time>2022-08-07T06:31:53.134Z</time>
      </trkpt>
      <trkpt lat="44.19518" lon="0.69852">
        <ele>90</ele>
        <time>2022-08-07T06:31:54.134Z</time>
      </trkpt>
      <trkpt lat="44.19518" lon="0.69853">
        <ele>90</ele>
        <time>2022-08-07T06:31:55.134Z</time>
      </trkpt>
      <trkpt lat="44.19518" lon="0.69855">
        <ele>91</ele>
        <time>2022-08-07T06:31:56.134Z</time>
      </trkpt>
      <trkpt lat="44.19518" lon="0.69857">
        <ele>91</ele>
        <time>2022-08-07T06:31:57.134Z</time>
      </trkpt>
      <trkpt lat="44.19518" lon="0.69858">
        <ele>91</ele>
        <time>2022-08-07T06:31:58.134Z</time>
      </trkpt>
      <trkpt lat="44.19518" lon="0.69859">
        <ele>91</ele>
        <time>2022-08-07T06:31:59.134Z</time>
      </trkpt>
      <trkpt lat="44.19518" lon="0.6986">
        <ele>91</ele>
        <time>2022-08-07T06:32:00.134Z</time>
      </trkpt>
      <trkpt lat="44.19518" lon="0.69861">
        <ele>91</ele>
        <time>2022-08-07T06:32:01.134Z</time>
      </trkpt>
      <trkpt lat="44.19518" lon="0.69862">
        <ele>91</ele>
        <time>2022-08-07T06:32:02.134Z</time>
      </trkpt>
      <trkpt lat="44.19518" lon="0.69863">
        <ele>91</ele>
        <time>2022-08-07T06:32:03.134Z</time>
      </trkpt>
      <trkpt lat="44.19518" lon="0.69864">
        <ele>91</ele>
        <time>2022-08-07T06:32:04.134Z</time>
      </trkpt>
      <trkpt lat="44.19518" lon="0.69865">
        <ele>90</ele>
        <time>2022-08-07T06:32:05.134Z</time>
      </trkpt>
      <trkpt lat="44.19518" lon="0.69866">
        <ele>90</ele>
        <time>2022-08-07T06:32:06.134Z</time>
      </trkpt>
      <trkpt lat="44.19518" lon="0.69867">
        <ele>90</ele>
        <time>2022-08-07T06:32:07.134Z</time>
      </trkpt>
      <trkpt lat="44.19518" lon="0.69868">
        <ele>90</ele>
        <time>2022-08-07T06:32:08.134Z</time>
      </trkpt>
      <trkpt lat="44.19518" lon="0.69869">
        <ele>90</ele>
        <time>2022-08-07T06:32:09.134Z</time>
      </trkpt>
      <trkpt lat="44.19518" lon="0.69871">
        <ele>90</ele>
        <time>2022-08-07T06:32:10.134Z</time>
      </trkpt>
      <trkpt lat="44.19518" lon="0.69872">
        <ele>91</ele>
        <time>2022-08-07T06:32:11.134Z</time>
      </trkpt>
      <trkpt lat="44.19519" lon="0.69873">
        <ele>90</ele>
        <time>2022-08-07T06:32:12.134Z</time>
      </trkpt>
      <trkpt lat="44.19519" lon="0.69874">
        <ele>90</ele>
        <time>2022-08-07T06:32:13.134Z</time>
      </trkpt>
      <trkpt lat="44.19519" lon="0.69876">
        <ele>91</ele>
        <time>2022-08-07T06:32:14.134Z</time>
      </trkpt>
      <trkpt lat="44.1952" lon="0.69877">
        <ele>90</ele>
        <time>2022-08-07T06:32:15.134Z</time>
      </trkpt>
      <trkpt lat="44.1952" lon="0.69879">
        <ele>90</ele>
        <time>2022-08-07T06:32:16.134Z</time>
      </trkpt>
      <trkpt lat="44.1952" lon="0.6988">
        <ele>90</ele>
        <time>2022-08-07T06:32:17.134Z</time>
      </trkpt>
      <trkpt lat="44.1952" lon="0.69881">
        <ele>90</ele>
        <time>2022-08-07T06:32:18.134Z</time>
      </trkpt>
      <trkpt lat="44.1952" lon="0.69882">
        <ele>90</ele>
        <time>2022-08-07T06:32:19.134Z</time>
      </trkpt>
      <trkpt lat="44.1952" lon="0.69883">
        <ele>91</ele>
        <time>2022-08-07T06:32:20.134Z</time>
      </trkpt>
      <trkpt lat="44.1952" lon="0.69884">
        <ele>91</ele>
        <time>2022-08-07T06:32:21.134Z</time>
      </trkpt>
      <trkpt lat="44.19519" lon="0.69885">
        <ele>91</ele>
        <time>2022-08-07T06:32:22.134Z</time>
      </trkpt>
      <trkpt lat="44.19519" lon="0.69886">
        <ele>91</ele>
        <time>2022-08-07T06:32:23.134Z</time>
      </trkpt>
      <trkpt lat="44.19519" lon="0.69886">
        <ele>91</ele>
        <time>2022-08-07T06:32:24.134Z</time>
      </trkpt>
      <trkpt lat="44.19519" lon="0.69887">
        <ele>91</ele>
        <time>2022-08-07T06:32:25.134Z</time>
      </trkpt>
      <trkpt lat="44.19519" lon="0.69888">
        <ele>91</ele>
        <time>2022-08-07T06:32:26.134Z</time>
      </trkpt>
      <trkpt lat="44.19519" lon="0.69889">
        <ele>91</ele>
        <time>2022-08-07T06:32:27.134Z</time>
      </trkpt>
      <trkpt lat="44.1952" lon="0.6989">
        <ele>93</ele>
        <time>2022-08-07T06:32:28.134Z</time>
      </trkpt>
      <trkpt lat="44.1952" lon="0.69892">
        <ele>93</ele>
        <time>2022-08-07T06:32:29.134Z</time>
      </trkpt>
      <trkpt lat="44.1952" lon="0.69893">
        <ele>94</ele>
        <time>2022-08-07T06:32:30.134Z</time>
      </trkpt>
      <trkpt lat="44.1952" lon="0.69894">
        <ele>94</ele>
        <time>2022-08-07T06:32:31.134Z</time>
      </trkpt>
      <trkpt lat="44.1952" lon="0.69895">
        <ele>95</ele>
        <time>2022-08-07T06:32:32.134Z</time>
      </trkpt>
      <trkpt lat="44.1952" lon="0.69896">
        <ele>95</ele>
        <time>2022-08-07T06:32:33.134Z</time>
      </trkpt>
      <trkpt lat="44.1952" lon="0.69897">
        <ele>96</ele>
        <time>2022-08-07T06:32:34.134Z</time>
      </trkpt>
      <trkpt lat="44.1952" lon="0.69898">
        <ele>97</ele>
        <time>2022-08-07T06:32:35.134Z</time>
      </trkpt>
      <trkpt lat="44.1952" lon="0.69899">
        <ele>97</ele>
        <time>2022-08-07T06:32:36.134Z</time>
      </trkpt>
      <trkpt lat="44.1952" lon="0.699">
        <ele>97</ele>
        <time>2022-08-07T06:32:37.134Z</time>
      </trkpt>
      <trkpt lat="44.1952" lon="0.69901">
        <ele>97</ele>
        <time>2022-08-07T06:32:38.134Z</time>
      </trkpt>
      <trkpt lat="44.1952" lon="0.69902">
        <ele>98</ele>
        <time>2022-08-07T06:32:39.134Z</time>
      </trkpt>
      <trkpt lat="44.1952" lon="0.69903">
        <ele>98</ele>
        <time>2022-08-07T06:32:40.134Z</time>
      </trkpt>
      <trkpt lat="44.1952" lon="0.69904">
        <ele>98</ele>
        <time>2022-08-07T06:32:41.134Z</time>
      </trkpt>
      <trkpt lat="44.1952" lon="0.69905">
        <ele>98</ele>
        <time>2022-08-07T06:32:42.134Z</time>
      </trkpt>
      <trkpt lat="44.1952" lon="0.69906">
        <ele>98</ele>
        <time>2022-08-07T06:32:43.134Z</time>
      </trkpt>
      <trkpt lat="44.1952" lon="0.69907">
        <ele>98</ele>
        <time>2022-08-07T06:32:44.134Z</time>
      </trkpt>
      <trkpt lat="44.1952" lon="0.69908">
        <ele>98</ele>
        <time>2022-08-07T06:32:45.134Z</time>
      </trkpt>
      <trkpt lat="44.1952" lon="0.69909">
        <ele>98</ele>
        <time>2022-08-07T06:32:46.134Z</time>
      </trkpt>
      <trkpt lat="44.1952" lon="0.6991">
        <ele>98</ele>
        <time>2022-08-07T06:32:47.134Z</time>
      </trkpt>
      <trkpt lat="44.1952" lon="0.69911">
        <ele>98</ele>
        <time>2022-08-07T06:32:48.134Z</time>
      </trkpt>
      <trkpt lat="44.1952" lon="0.69912">
        <ele>98</ele>
        <time>2022-08-07T06:32:49.134Z</time>
      </trkpt>
      <trkpt lat="44.1952" lon="0.69913">
        <ele>99</ele>
        <time>2022-08-07T06:32:50.134Z</time>
      </trkpt>
      <trkpt lat="44.1952" lon="0.69914">
        <ele>99</ele>
        <time>2022-08-07T06:32:51.134Z</time>
      </trkpt>
      <trkpt lat="44.1952" lon="0.69915">
        <ele>100</ele>
        <time>2022-08-07T06:32:52.134Z</time>
      </trkpt>
      <trkpt lat="44.1952" lon="0.69916">
        <ele>100</ele>
        <time>2022-08-07T06:32:53.134Z</time>
      </trkpt>
      <trkpt lat="44.1952" lon="0.69917">
        <ele>100</ele>
        <time>2022-08-07T06:32:54.134Z</time>
      </trkpt>
      <trkpt lat="44.1952" lon="0.69918">
        <ele>101</ele>
        <time>2022-08-07T06:32:55.134Z</time>
      </trkpt>
      <trkpt lat="44.1952" lon="0.6992">
        <ele>101</ele>
        <time>2022-08-07T06:32:56.134Z</time>
      </trkpt>
      <trkpt lat="44.1952" lon="0.69921">
        <ele>101</ele>
        <time>2022-08-07T06:32:57.134Z</time>
      </trkpt>
      <trkpt lat="44.1952" lon="0.69922">
        <ele>101</ele>
        <time>2022-08-07T06:32:58.134Z</time>
      </trkpt>
      <trkpt lat="44.1952" lon="0.69923">
        <ele>101</ele>
        <time>2022-08-07T06:32:59.134Z</time>
      </trkpt>
      <trkpt lat="44.1952" lon="0.69924">
        <ele>101</ele>
        <time>2022-08-07T06:33:00.134Z</time>
      </trkpt>
      <trkpt lat="44.19519" lon="0.69925">
        <ele>101</ele>
        <time>2022-08-07T06:33:01.134Z</time>
      </trkpt>
      <trkpt lat="44.19519" lon="0.69926">
        <ele>102</ele>
        <time>2022-08-07T06:33:02.134Z</time>
      </trkpt>
      <trkpt lat="44.19519" lon="0.69927">
        <ele>102</ele>
        <time>2022-08-07T06:33:03.134Z</time>
      </trkpt>
      <trkpt lat="44.19519" lon="0.69928">
        <ele>102</ele>
        <time>2022-08-07T06:33:04.134Z</time>
      </trkpt>
      <trkpt lat="44.19519" lon="0.69929">
        <ele>102</ele>
        <time>2022-08-07T06:33:05.134Z</time>
      </trkpt>
      <trkpt lat="44.19519" lon="0.69929">
        <ele>102</ele>
        <time>2022-08-07T06:33:06.134Z</time>
      </trkpt>
      <trkpt lat="44.19519" lon="0.6993">
        <ele>102</ele>
        <time>2022-08-07T06:33:07.134Z</time>
      </trkpt>
      <trkpt lat="44.19519" lon="0.69931">
        <ele>102</ele>
        <time>2022-08-07T06:33:08.134Z</time>
      </trkpt>
      <trkpt lat="44.19519" lon="0.69932">
        <ele>103</ele>
        <time>2022-08-07T06:33:09.134Z</time>
      </trkpt>
      <trkpt lat="44.19519" lon="0.69933">
        <ele>103</ele>
        <time>2022-08-07T06:33:10.134Z</time>
      </trkpt>
      <trkpt lat="44.19519" lon="0.69934">
        <ele>103</ele>
        <time>2022-08-07T06:33:11.134Z</time>
      </trkpt>
      <trkpt lat="44.19519" lon="0.69935">
        <ele>103</ele>
        <time>2022-08-07T06:33:12.134Z</time>
      </trkpt>
      <trkpt lat="44.19519" lon="0.69936">
        <ele>103</ele>
        <time>2022-08-07T06:33:13.134Z</time>
      </trkpt>
      <trkpt lat="44.19519" lon="0.69936">
        <ele>103</ele>
        <time>2022-08-07T06:33:14.134Z</time>
      </trkpt>
      <trkpt lat="44.19519" lon="0.69937">
        <ele>103</ele>
        <time>2022-08-07T06:33:15.134Z</time>
      </trkpt>
      <trkpt lat="44.19519" lon="0.69938">
        <ele>103</ele>
        <time>2022-08-07T06:33:16.134Z</time>
      </trkpt>
      <trkpt lat="44.19518" lon="0.69939">
        <ele>104</ele>
        <time>2022-08-07T06:33:17.134Z</time>
      </trkpt>
      <trkpt lat="44.19518" lon="0.6994">
        <ele>104</ele>
        <time>2022-08-07T06:33:18.134Z</time>
      </trkpt>
      <trkpt lat="44.19518" lon="0.69942">
        <ele>103</ele>
        <time>2022-08-07T06:33:19.134Z</time>
      </trkpt>
      <trkpt lat="44.19518" lon="0.69943">
        <ele>103</ele>
        <time>2022-08-07T06:33:20.134Z</time>
      </trkpt>
      <trkpt lat="44.19518" lon="0.69944">
        <ele>104</ele>
        <time>2022-08-07T06:33:21.134Z</time>
      </trkpt>
      <trkpt lat="44.19519" lon="0.69945">
        <ele>104</ele>
        <time>2022-08-07T06:33:22.134Z</time>
      </trkpt>
      <trkpt lat="44.19519" lon="0.69946">
        <ele>105</ele>
        <time>2022-08-07T06:33:23.134Z</time>
      </trkpt>
      <trkpt lat="44.19519" lon="0.69947">
        <ele>104</ele>
        <time>2022-08-07T06:33:24.134Z</time>
      </trkpt>
      <trkpt lat="44.19519" lon="0.69948">
        <ele>105</ele>
        <time>2022-08-07T06:33:25.134Z</time>
      </trkpt>
      <trkpt lat="44.19518" lon="0.6995">
        <ele>104</ele>
        <time>2022-08-07T06:33:26.134Z</time>
      </trkpt>
      <trkpt lat="44.19518" lon="0.69951">
        <ele>105</ele>
        <time>2022-08-07T06:33:27.134Z</time>
      </trkpt>
      <trkpt lat="44.19518" lon="0.69952">
        <ele>105</ele>
        <time>2022-08-07T06:33:28.134Z</time>
      </trkpt>
      <trkpt lat="44.19518" lon="0.69953">
        <ele>105</ele>
        <time>2022-08-07T06:33:29.134Z</time>
      </trkpt>
      <trkpt lat="44.19518" lon="0.69953">
        <ele>104</ele>
        <time>2022-08-07T06:33:30.134Z</time>
      </trkpt>
      <trkpt lat="44.19518" lon="0.69954">
        <ele>104</ele>
        <time>2022-08-07T06:33:31.134Z</time>
      </trkpt>
      <trkpt lat="44.19518" lon="0.69954">
        <ele>105</ele>
        <time>2022-08-07T06:33:32.134Z</time>
      </trkpt>
      <trkpt lat="44.19518" lon="0.69955">
        <ele>105</ele>
        <time>2022-08-07T06:33:33.134Z</time>
      </trkpt>
      <trkpt lat="44.19518" lon="0.69956">
        <ele>105</ele>
        <time>2022-08-07T06:33:34.134Z</time>
      </trkpt>
      <trkpt lat="44.19518" lon="0.69957">
        <ele>105</ele>
        <time>2022-08-07T06:33:35.134Z</time>
      </trkpt>
      <trkpt lat="44.19518" lon="0.69958">
        <ele>105</ele>
        <time>2022-08-07T06:33:36.134Z</time>
      </trkpt>
      <trkpt lat="44.19518" lon="0.69959">
        <ele>105</ele>
        <time>2022-08-07T06:33:37.134Z</time>
      </trkpt>
      <trkpt lat="44.19518" lon="0.6996">
        <ele>105</ele>
        <time>2022-08-07T06:33:38.134Z</time>
      </trkpt>
      <trkpt lat="44.19518" lon="0.69961">
        <ele>106</ele>
        <time>2022-08-07T06:33:39.134Z</time>
      </trkpt>
      <trkpt lat="44.19517" lon="0.69961">
        <ele>106</ele>
        <time>2022-08-07T06:33:40.134Z</time>
      </trkpt>
      <trkpt lat="44.19517" lon="0.69962">
        <ele>106</ele>
        <time>2022-08-07T06:33:41.134Z</time>
      </trkpt>
      <trkpt lat="44.19517" lon="0.69963">
        <ele>107</ele>
        <time>2022-08-07T06:33:42.134Z</time>
      </trkpt>
      <trkpt lat="44.19517" lon="0.69964">
        <ele>107</ele>
        <time>2022-08-07T06:33:43.134Z</time>
      </trkpt>
      <trkpt lat="44.19517" lon="0.69965">
        <ele>107</ele>
        <time>2022-08-07T06:33:44.134Z</time>
      </trkpt>
      <trkpt lat="44.19517" lon="0.69966">
        <ele>107</ele>
        <time>2022-08-07T06:33:45.134Z</time>
      </trkpt>
      <trkpt lat="44.19517" lon="0.69967">
        <ele>108</ele>
        <time>2022-08-07T06:33:46.134Z</time>
      </trkpt>
      <trkpt lat="44.19516" lon="0.69968">
        <ele>108</ele>
        <time>2022-08-07T06:33:47.134Z</time>
      </trkpt>
      <trkpt lat="44.19516" lon="0.69969">
        <ele>108</ele>
        <time>2022-08-07T06:33:48.134Z</time>
      </trkpt>
      <trkpt lat="44.19516" lon="0.6997">
        <ele>109</ele>
        <time>2022-08-07T06:33:49.134Z</time>
      </trkpt>
      <trkpt lat="44.19516" lon="0.69971">
        <ele>109</ele>
        <time>2022-08-07T06:33:50.134Z</time>
      </trkpt>
      <trkpt lat="44.19516" lon="0.69972">
        <ele>108</ele>
        <time>2022-08-07T06:33:51.134Z</time>
      </trkpt>
      <trkpt lat="44.19517" lon="0.69972">
        <ele>108</ele>
        <time>2022-08-07T06:33:52.134Z</time>
      </trkpt>
      <trkpt lat="44.19517" lon="0.69973">
        <ele>109</ele>
        <time>2022-08-07T06:33:53.134Z</time>
      </trkpt>
      <trkpt lat="44.19517" lon="0.69974">
        <ele>108</ele>
        <time>2022-08-07T06:33:54.134Z</time>
      </trkpt>
      <trkpt lat="44.19517" lon="0.69975">
        <ele>108</ele>
        <time>2022-08-07T06:33:55.134Z</time>
      </trkpt>
      <trkpt lat="44.19517" lon="0.69975">
        <ele>109</ele>
        <time>2022-08-07T06:33:56.134Z</time>
      </trkpt>
      <trkpt lat="44.19517" lon="0.69976">
        <ele>109</ele>
        <time>2022-08-07T06:33:57.134Z</time>
      </trkpt>
      <trkpt lat="44.19517" lon="0.69977">
        <ele>109</ele>
        <time>2022-08-07T06:33:58.134Z</time>
      </trkpt>
      <trkpt lat="44.19517" lon="0.69978">
        <ele>109</ele>
        <time>2022-08-07T06:33:59.134Z</time>
      </trkpt>
      <trkpt lat="44.19517" lon="0.69979">
        <ele>109</ele>
        <time>2022-08-07T06:34:00.134Z</time>
      </trkpt>
      <trkpt lat="44.19516" lon="0.6998">
        <ele>109</ele>
        <time>2022-08-07T06:34:01.134Z</time>
      </trkpt>
      <trkpt lat="44.19516" lon="0.69981">
        <ele>110</ele>
        <time>2022-08-07T06:34:02.134Z</time>
      </trkpt>
      <trkpt lat="44.19516" lon="0.69982">
        <ele>110</ele>
        <time>2022-08-07T06:34:03.134Z</time>
      </trkpt>
      <trkpt lat="44.19516" lon="0.69983">
        <ele>110</ele>
        <time>2022-08-07T06:34:04.134Z</time>
      </trkpt>
      <trkpt lat="44.19516" lon="0.69984">
        <ele>110</ele>
        <time>2022-08-07T06:34:05.134Z</time>
      </trkpt>
      <trkpt lat="44.19516" lon="0.69985">
        <ele>110</ele>
        <time>2022-08-07T06:34:06.134Z</time>
      </trkpt>
      <trkpt lat="44.19516" lon="0.69985">
        <ele>110</ele>
        <time>2022-08-07T06:34:07.134Z</time>
      </trkpt>
      <trkpt lat="44.19516" lon="0.69986">
        <ele>110</ele>
        <time>2022-08-07T06:34:08.134Z</time>
      </trkpt>
      <trkpt lat="44.19516" lon="0.69987">
        <ele>110</ele>
        <time>2022-08-07T06:34:09.134Z</time>
      </trkpt>
      <trkpt lat="44.19516" lon="0.69988">
        <ele>110</ele>
        <time>2022-08-07T06:34:10.134Z</time>
      </trkpt>
      <trkpt lat="44.19516" lon="0.69989">
        <ele>111</ele>
        <time>2022-08-07T06:34:11.134Z</time>
      </trkpt>
      <trkpt lat="44.19515" lon="0.6999">
        <ele>111</ele>
        <time>2022-08-07T06:34:12.134Z</time>
      </trkpt>
      <trkpt lat="44.19515" lon="0.69991">
        <ele>111</ele>
        <time>2022-08-07T06:34:13.134Z</time>
      </trkpt>
      <trkpt lat="44.19515" lon="0.69992">
        <ele>112</ele>
        <time>2022-08-07T06:34:14.134Z</time>
      </trkpt>
      <trkpt lat="44.19515" lon="0.69993">
        <ele>111</ele>
        <time>2022-08-07T06:34:15.134Z</time>
      </trkpt>
      <trkpt lat="44.19515" lon="0.69994">
        <ele>111</ele>
        <time>2022-08-07T06:34:16.134Z</time>
      </trkpt>
      <trkpt lat="44.19515" lon="0.69995">
        <ele>111</ele>
        <time>2022-08-07T06:34:17.134Z</time>
      </trkpt>
      <trkpt lat="44.19515" lon="0.69996">
        <ele>111</ele>
        <time>2022-08-07T06:34:18.134Z</time>
      </trkpt>
      <trkpt lat="44.19515" lon="0.69997">
        <ele>111</ele>
        <time>2022-08-07T06:34:19.134Z</time>
      </trkpt>
      <trkpt lat="44.19515" lon="0.69998">
        <ele>112</ele>
        <time>2022-08-07T06:34:20.134Z</time>
      </trkpt>
      <trkpt lat="44.19515" lon="0.69999">
        <ele>111</ele>
        <time>2022-08-07T06:34:21.134Z</time>
      </trkpt>
      <trkpt lat="44.19515" lon="0.7">
        <ele>111</ele>
        <time>2022-08-07T06:34:22.134Z</time>
      </trkpt>
      <trkpt lat="44.19515" lon="0.70001">
        <ele>112</ele>
        <time>2022-08-07T06:34:23.134Z</time>
      </trkpt>
      <trkpt lat="44.19514" lon="0.70001">
        <ele>112</ele>
        <time>2022-08-07T06:34:24.134Z</time>
      </trkpt>
      <trkpt lat="44.19514" lon="0.70002">
        <ele>112</ele>
        <time>2022-08-07T06:34:25.134Z</time>
      </trkpt>
      <trkpt lat="44.19514" lon="0.70003">
        <ele>112</ele>
        <time>2022-08-07T06:34:26.134Z</time>
      </trkpt>
      <trkpt lat="44.19514" lon="0.70004">
        <ele>112</ele>
        <time>2022-08-07T06:34:27.134Z</time>
      </trkpt>
      <trkpt lat="44.19514" lon="0.70005">
        <ele>112</ele>
        <time>2022-08-07T06:34:28.134Z</time>
      </trkpt>
      <trkpt lat="44.19514" lon="0.70006">
        <ele>112</ele>
        <time>2022-08-07T06:34:29.134Z</time>
      </trkpt>
      <trkpt lat="44.19513" lon="0.70007">
        <ele>112</ele>
        <time>2022-08-07T06:34:30.134Z</time>
      </trkpt>
      <trkpt lat="44.19513" lon="0.70008">
        <ele>113</ele>
        <time>2022-08-07T06:34:31.134Z</time>
      </trkpt>
      <trkpt lat="44.19513" lon="0.70009">
        <ele>113</ele>
        <time>2022-08-07T06:34:32.134Z</time>
      </trkpt>
      <trkpt lat="44.19512" lon="0.7001">
        <ele>113</ele>
        <time>2022-08-07T06:34:33.134Z</time>
      </trkpt>
      <trkpt lat="44.19512" lon="0.70011">
        <ele>114</ele>
        <time>2022-08-07T06:34:34.134Z</time>
      </trkpt>
      <trkpt lat="44.19512" lon="0.70012">
        <ele>114</ele>
        <time>2022-08-07T06:34:35.134Z</time>
      </trkpt>
      <trkpt lat="44.19512" lon="0.70013">
        <ele>114</ele>
        <time>2022-08-07T06:34:36.134Z</time>
      </trkpt>
      <trkpt lat="44.19511" lon="0.70014">
        <ele>114</ele>
        <time>2022-08-07T06:34:37.134Z</time>
      </trkpt>
      <trkpt lat="44.19511" lon="0.70015">
        <ele>114</ele>
        <time>2022-08-07T06:34:38.134Z</time>
      </trkpt>
      <trkpt lat="44.19511" lon="0.70016">
        <ele>114</ele>
        <time>2022-08-07T06:34:39.134Z</time>
      </trkpt>
      <trkpt lat="44.19511" lon="0.70017">
        <ele>115</ele>
        <time>2022-08-07T06:34:40.134Z</time>
      </trkpt>
      <trkpt lat="44.19511" lon="0.70018">
        <ele>115</ele>
        <time>2022-08-07T06:34:41.134Z</time>
      </trkpt>
      <trkpt lat="44.1951" lon="0.7002">
        <ele>115</ele>
        <time>2022-08-07T06:34:42.134Z</time>
      </trkpt>
      <trkpt lat="44.1951" lon="0.70021">
        <ele>115</ele>
        <time>2022-08-07T06:34:43.134Z</time>
      </trkpt>
      <trkpt lat="44.1951" lon="0.70022">
        <ele>116</ele>
        <time>2022-08-07T06:34:44.134Z</time>
      </trkpt>
      <trkpt lat="44.19509" lon="0.70023">
        <ele>116</ele>
        <time>2022-08-07T06:34:45.134Z</time>
      </trkpt>
      <trkpt lat="44.19508" lon="0.70024">
        <ele>116</ele>
        <time>2022-08-07T06:34:46.134Z</time>
      </trkpt>
      <trkpt lat="44.19507" lon="0.70025">
        <ele>116</ele>
        <time>2022-08-07T06:34:47.134Z</time>
      </trkpt>
      <trkpt lat="44.19507" lon="0.70025">
        <ele>115</ele>
        <time>2022-08-07T06:34:48.134Z</time>
      </trkpt>
      <trkpt lat="44.19507" lon="0.70025">
        <ele>115</ele>
        <time>2022-08-07T06:34:49.134Z</time>
      </trkpt>
      <trkpt lat="44.19508" lon="0.70025">
        <ele>115</ele>
        <time>2022-08-07T06:34:50.134Z</time>
      </trkpt>
      <trkpt lat="44.19508" lon="0.70025">
        <ele>115</ele>
        <time>2022-08-07T06:34:51.134Z</time>
      </trkpt>
      <trkpt lat="44.19508" lon="0.70025">
        <ele>115</ele>
        <time>2022-08-07T06:34:52.134Z</time>
      </trkpt>
      <trkpt lat="44.19507" lon="0.70025">
        <ele>116</ele>
        <time>2022-08-07T06:34:53.134Z</time>
      </trkpt>
      <trkpt lat="44.19507" lon="0.70025">
        <ele>116</ele>
        <time>2022-08-07T06:34:54.134Z</time>
      </trkpt>
      <trkpt lat="44.19508" lon="0.70029">
        <ele>115</ele>
        <time>2022-08-07T06:35:11.150Z</time>
      </trkpt>
      <trkpt lat="44.19508" lon="0.7003">
        <ele>115</ele>
        <time>2022-08-07T06:35:12.150Z</time>
      </trkpt>
      <trkpt lat="44.19508" lon="0.70032">
        <ele>115</ele>
        <time>2022-08-07T06:35:13.150Z</time>
      </trkpt>
      <trkpt lat="44.19508" lon="0.70033">
        <ele>115</ele>
        <time>2022-08-07T06:35:14.150Z</time>
      </trkpt>
      <trkpt lat="44.19507" lon="0.70034">
        <ele>115</ele>
        <time>2022-08-07T06:35:15.150Z</time>
      </trkpt>
      <trkpt lat="44.19507" lon="0.70036">
        <ele>115</ele>
        <time>2022-08-07T06:35:16.150Z</time>
      </trkpt>
      <trkpt lat="44.19507" lon="0.70037">
        <ele>115</ele>
        <time>2022-08-07T06:35:17.150Z</time>
      </trkpt>
      <trkpt lat="44.19506" lon="0.70038">
        <ele>116</ele>
        <time>2022-08-07T06:35:18.150Z</time>
      </trkpt>
      <trkpt lat="44.19506" lon="0.70039">
        <ele>115</ele>
        <time>2022-08-07T06:35:19.150Z</time>
      </trkpt>
      <trkpt lat="44.19506" lon="0.7004">
        <ele>116</ele>
        <time>2022-08-07T06:35:20.150Z</time>
      </trkpt>
      <trkpt lat="44.19505" lon="0.70041">
        <ele>116</ele>
        <time>2022-08-07T06:35:21.150Z</time>
      </trkpt>
      <trkpt lat="44.19505" lon="0.70042">
        <ele>116</ele>
        <time>2022-08-07T06:35:22.150Z</time>
      </trkpt>
      <trkpt lat="44.19504" lon="0.70044">
        <ele>116</ele>
        <time>2022-08-07T06:35:23.150Z</time>
      </trkpt>
      <trkpt lat="44.19504" lon="0.70045">
        <ele>116</ele>
        <time>2022-08-07T06:35:24.150Z</time>
      </trkpt>
      <trkpt lat="44.19503" lon="0.70046">
        <ele>116</ele>
        <time>2022-08-07T06:35:25.150Z</time>
      </trkpt>
      <trkpt lat="44.19503" lon="0.70047">
        <ele>116</ele>
        <time>2022-08-07T06:35:26.150Z</time>
      </trkpt>
      <trkpt lat="44.19502" lon="0.70048">
        <ele>116</ele>
        <time>2022-08-07T06:35:27.150Z</time>
      </trkpt>
      <trkpt lat="44.19502" lon="0.7005">
        <ele>117</ele>
        <time>2022-08-07T06:35:28.150Z</time>
      </trkpt>
      <trkpt lat="44.19501" lon="0.70051">
        <ele>117</ele>
        <time>2022-08-07T06:35:29.150Z</time>
      </trkpt>
      <trkpt lat="44.19501" lon="0.70052">
        <ele>117</ele>
        <time>2022-08-07T06:35:30.150Z</time>
      </trkpt>
      <trkpt lat="44.195" lon="0.70054">
        <ele>117</ele>
        <time>2022-08-07T06:35:31.150Z</time>
      </trkpt>
      <trkpt lat="44.195" lon="0.70055">
        <ele>117</ele>
        <time>2022-08-07T06:35:32.150Z</time>
      </trkpt>
      <trkpt lat="44.19499" lon="0.70057">
        <ele>118</ele>
        <time>2022-08-07T06:35:33.150Z</time>
      </trkpt>
      <trkpt lat="44.19499" lon="0.70058">
        <ele>118</ele>
        <time>2022-08-07T06:35:34.150Z</time>
      </trkpt>
      <trkpt lat="44.19499" lon="0.70059">
        <ele>118</ele>
        <time>2022-08-07T06:35:35.150Z</time>
      </trkpt>
      <trkpt lat="44.19498" lon="0.7006">
        <ele>118</ele>
        <time>2022-08-07T06:35:36.150Z</time>
      </trkpt>
      <trkpt lat="44.19498" lon="0.70061">
        <ele>118</ele>
        <time>2022-08-07T06:35:37.150Z</time>
      </trkpt>
      <trkpt lat="44.19498" lon="0.70062">
        <ele>118</ele>
        <time>2022-08-07T06:35:38.150Z</time>
      </trkpt>
      <trkpt lat="44.19497" lon="0.70063">
        <ele>119</ele>
        <time>2022-08-07T06:35:39.150Z</time>
      </trkpt>
      <trkpt lat="44.19497" lon="0.70064">
        <ele>119</ele>
        <time>2022-08-07T06:35:40.150Z</time>
      </trkpt>
      <trkpt lat="44.19496" lon="0.70065">
        <ele>119</ele>
        <time>2022-08-07T06:35:41.150Z</time>
      </trkpt>
      <trkpt lat="44.19496" lon="0.70066">
        <ele>119</ele>
        <time>2022-08-07T06:35:42.150Z</time>
      </trkpt>
      <trkpt lat="44.19495" lon="0.70068">
        <ele>119</ele>
        <time>2022-08-07T06:35:43.150Z</time>
      </trkpt>
      <trkpt lat="44.19495" lon="0.70069">
        <ele>120</ele>
        <time>2022-08-07T06:35:44.150Z</time>
      </trkpt>
      <trkpt lat="44.19494" lon="0.7007">
        <ele>120</ele>
        <time>2022-08-07T06:35:45.150Z</time>
      </trkpt>
      <trkpt lat="44.19494" lon="0.70071">
        <ele>121</ele>
        <time>2022-08-07T06:35:46.150Z</time>
      </trkpt>
      <trkpt lat="44.19493" lon="0.70073">
        <ele>121</ele>
        <time>2022-08-07T06:35:47.150Z</time>
      </trkpt>
      <trkpt lat="44.19493" lon="0.70074">
        <ele>121</ele>
        <time>2022-08-07T06:35:48.150Z</time>
      </trkpt>
      <trkpt lat="44.19492" lon="0.70074">
        <ele>120</ele>
        <time>2022-08-07T06:35:49.150Z</time>
      </trkpt>
      <trkpt lat="44.19492" lon="0.70075">
        <ele>121</ele>
        <time>2022-08-07T06:35:50.150Z</time>
      </trkpt>
      <trkpt lat="44.19491" lon="0.70076">
        <ele>121</ele>
        <time>2022-08-07T06:35:51.150Z</time>
      </trkpt>
      <trkpt lat="44.19491" lon="0.70078">
        <ele>121</ele>
        <time>2022-08-07T06:35:52.150Z</time>
      </trkpt>
      <trkpt lat="44.1949" lon="0.70079">
        <ele>122</ele>
        <time>2022-08-07T06:35:53.150Z</time>
      </trkpt>
      <trkpt lat="44.1949" lon="0.7008">
        <ele>122</ele>
        <time>2022-08-07T06:35:54.150Z</time>
      </trkpt>
      <trkpt lat="44.19489" lon="0.70081">
        <ele>122</ele>
        <time>2022-08-07T06:35:55.150Z</time>
      </trkpt>
      <trkpt lat="44.19489" lon="0.70082">
        <ele>122</ele>
        <time>2022-08-07T06:35:56.150Z</time>
      </trkpt>
      <trkpt lat="44.19488" lon="0.70083">
        <ele>123</ele>
        <time>2022-08-07T06:35:57.150Z</time>
      </trkpt>
      <trkpt lat="44.19488" lon="0.70084">
        <ele>123</ele>
        <time>2022-08-07T06:35:58.150Z</time>
      </trkpt>
      <trkpt lat="44.19487" lon="0.70085">
        <ele>123</ele>
        <time>2022-08-07T06:35:59.150Z</time>
      </trkpt>
      <trkpt lat="44.19487" lon="0.70087">
        <ele>124</ele>
        <time>2022-08-07T06:36:00.150Z</time>
      </trkpt>
      <trkpt lat="44.19486" lon="0.70088">
        <ele>124</ele>
        <time>2022-08-07T06:36:01.150Z</time>
      </trkpt>
      <trkpt lat="44.19485" lon="0.70089">
        <ele>125</ele>
        <time>2022-08-07T06:36:02.150Z</time>
      </trkpt>
      <trkpt lat="44.19485" lon="0.7009">
        <ele>125</ele>
        <time>2022-08-07T06:36:03.150Z</time>
      </trkpt>
      <trkpt lat="44.19484" lon="0.70091">
        <ele>125</ele>
        <time>2022-08-07T06:36:04.150Z</time>
      </trkpt>
      <trkpt lat="44.19484" lon="0.70092">
        <ele>125</ele>
        <time>2022-08-07T06:36:05.150Z</time>
      </trkpt>
      <trkpt lat="44.19483" lon="0.70094">
        <ele>125</ele>
        <time>2022-08-07T06:36:06.150Z</time>
      </trkpt>
      <trkpt lat="44.19483" lon="0.70095">
        <ele>126</ele>
        <time>2022-08-07T06:36:07.150Z</time>
      </trkpt>
      <trkpt lat="44.19482" lon="0.70096">
        <ele>126</ele>
        <time>2022-08-07T06:36:08.150Z</time>
      </trkpt>
      <trkpt lat="44.19481" lon="0.70097">
        <ele>126</ele>
        <time>2022-08-07T06:36:09.150Z</time>
      </trkpt>
      <trkpt lat="44.19481" lon="0.70098">
        <ele>127</ele>
        <time>2022-08-07T06:36:10.150Z</time>
      </trkpt>
      <trkpt lat="44.1948" lon="0.70099">
        <ele>127</ele>
        <time>2022-08-07T06:36:11.150Z</time>
      </trkpt>
      <trkpt lat="44.19479" lon="0.701">
        <ele>127</ele>
        <time>2022-08-07T06:36:12.150Z</time>
      </trkpt>
      <trkpt lat="44.19479" lon="0.70101">
        <ele>128</ele>
        <time>2022-08-07T06:36:13.150Z</time>
      </trkpt>
      <trkpt lat="44.19478" lon="0.70102">
        <ele>128</ele>
        <time>2022-08-07T06:36:14.150Z</time>
      </trkpt>
      <trkpt lat="44.19478" lon="0.70103">
        <ele>128</ele>
        <time>2022-08-07T06:36:15.150Z</time>
      </trkpt>
      <trkpt lat="44.19478" lon="0.70105">
        <ele>128</ele>
        <time>2022-08-07T06:36:16.150Z</time>
      </trkpt>
      <trkpt lat="44.19477" lon="0.70106">
        <ele>128</ele>
        <time>2022-08-07T06:36:17.150Z</time>
      </trkpt>
      <trkpt lat="44.19477" lon="0.70108">
        <ele>128</ele>
        <time>2022-08-07T06:36:18.150Z</time>
      </trkpt>
      <trkpt lat="44.19476" lon="0.70109">
        <ele>129</ele>
        <time>2022-08-07T06:36:19.150Z</time>
      </trkpt>
      <trkpt lat="44.19476" lon="0.7011">
        <ele>129</ele>
        <time>2022-08-07T06:36:20.150Z</time>
      </trkpt>
      <trkpt lat="44.19475" lon="0.70111">
        <ele>129</ele>
        <time>2022-08-07T06:36:21.150Z</time>
      </trkpt>
      <trkpt lat="44.19475" lon="0.70112">
        <ele>130</ele>
        <time>2022-08-07T06:36:22.150Z</time>
      </trkpt>
      <trkpt lat="44.19475" lon="0.70113">
        <ele>130</ele>
        <time>2022-08-07T06:36:23.150Z</time>
      </trkpt>
      <trkpt lat="44.19474" lon="0.70114">
        <ele>131</ele>
        <time>2022-08-07T06:36:24.150Z</time>
      </trkpt>
      <trkpt lat="44.19474" lon="0.70116">
        <ele>131</ele>
        <time>2022-08-07T06:36:25.150Z</time>
      </trkpt>
      <trkpt lat="44.19473" lon="0.70117">
        <ele>130</ele>
        <time>2022-08-07T06:36:26.150Z</time>
      </trkpt>
      <trkpt lat="44.19472" lon="0.70118">
        <ele>130</ele>
        <time>2022-08-07T06:36:27.150Z</time>
      </trkpt>
      <trkpt lat="44.19472" lon="0.70119">
        <ele>130</ele>
        <time>2022-08-07T06:36:28.150Z</time>
      </trkpt>
      <trkpt lat="44.19472" lon="0.7012">
        <ele>130</ele>
        <time>2022-08-07T06:36:29.150Z</time>
      </trkpt>
      <trkpt lat="44.19471" lon="0.70122">
        <ele>129</ele>
        <time>2022-08-07T06:36:30.150Z</time>
      </trkpt>
      <trkpt lat="44.19471" lon="0.70123">
        <ele>129</ele>
        <time>2022-08-07T06:36:31.150Z</time>
      </trkpt>
      <trkpt lat="44.1947" lon="0.70124">
        <ele>129</ele>
        <time>2022-08-07T06:36:32.150Z</time>
      </trkpt>
      <trkpt lat="44.1947" lon="0.70125">
        <ele>129</ele>
        <time>2022-08-07T06:36:33.150Z</time>
      </trkpt>
      <trkpt lat="44.1947" lon="0.70126">
        <ele>129</ele>
        <time>2022-08-07T06:36:34.150Z</time>
      </trkpt>
      <trkpt lat="44.19469" lon="0.70127">
        <ele>129</ele>
        <time>2022-08-07T06:36:35.150Z</time>
      </trkpt>
      <trkpt lat="44.19469" lon="0.70128">
        <ele>129</ele>
        <time>2022-08-07T06:36:36.150Z</time>
      </trkpt>
      <trkpt lat="44.19469" lon="0.7013">
        <ele>129</ele>
        <time>2022-08-07T06:36:37.150Z</time>
      </trkpt>
      <trkpt lat="44.19468" lon="0.70131">
        <ele>129</ele>
        <time>2022-08-07T06:36:38.150Z</time>
      </trkpt>
      <trkpt lat="44.19468" lon="0.70132">
        <ele>129</ele>
        <time>2022-08-07T06:36:39.150Z</time>
      </trkpt>
      <trkpt lat="44.19467" lon="0.70133">
        <ele>129</ele>
        <time>2022-08-07T06:36:40.150Z</time>
      </trkpt>
      <trkpt lat="44.19467" lon="0.70134">
        <ele>129</ele>
        <time>2022-08-07T06:36:41.150Z</time>
      </trkpt>
      <trkpt lat="44.19466" lon="0.70135">
        <ele>130</ele>
        <time>2022-08-07T06:36:42.150Z</time>
      </trkpt>
      <trkpt lat="44.19466" lon="0.70136">
        <ele>130</ele>
        <time>2022-08-07T06:36:43.150Z</time>
      </trkpt>
      <trkpt lat="44.19465" lon="0.70137">
        <ele>130</ele>
        <time>2022-08-07T06:36:44.150Z</time>
      </trkpt>
      <trkpt lat="44.19465" lon="0.70138">
        <ele>130</ele>
        <time>2022-08-07T06:36:45.150Z</time>
      </trkpt>
      <trkpt lat="44.19464" lon="0.70139">
        <ele>131</ele>
        <time>2022-08-07T06:36:46.150Z</time>
      </trkpt>
      <trkpt lat="44.19464" lon="0.7014">
        <ele>131</ele>
        <time>2022-08-07T06:36:47.150Z</time>
      </trkpt>
      <trkpt lat="44.19463" lon="0.70141">
        <ele>131</ele>
        <time>2022-08-07T06:36:48.150Z</time>
      </trkpt>
      <trkpt lat="44.19463" lon="0.70142">
        <ele>131</ele>
        <time>2022-08-07T06:36:49.150Z</time>
      </trkpt>
      <trkpt lat="44.19462" lon="0.70143">
        <ele>132</ele>
        <time>2022-08-07T06:36:50.150Z</time>
      </trkpt>
      <trkpt lat="44.19462" lon="0.70144">
        <ele>132</ele>
        <time>2022-08-07T06:36:51.150Z</time>
      </trkpt>
      <trkpt lat="44.19461" lon="0.70146">
        <ele>132</ele>
        <time>2022-08-07T06:36:52.150Z</time>
      </trkpt>
      <trkpt lat="44.1946" lon="0.70147">
        <ele>132</ele>
        <time>2022-08-07T06:36:53.150Z</time>
      </trkpt>
      <trkpt lat="44.19459" lon="0.70148">
        <ele>134</ele>
        <time>2022-08-07T06:36:54.150Z</time>
      </trkpt>
      <trkpt lat="44.19458" lon="0.70149">
        <ele>134</ele>
        <time>2022-08-07T06:36:55.150Z</time>
      </trkpt>
      <trkpt lat="44.19457" lon="0.7015">
        <ele>134</ele>
        <time>2022-08-07T06:36:56.150Z</time>
      </trkpt>
      <trkpt lat="44.19457" lon="0.70151">
        <ele>134</ele>
        <time>2022-08-07T06:36:57.150Z</time>
      </trkpt>
      <trkpt lat="44.19456" lon="0.70152">
        <ele>134</ele>
        <time>2022-08-07T06:36:58.150Z</time>
      </trkpt>
      <trkpt lat="44.19456" lon="0.70153">
        <ele>134</ele>
        <time>2022-08-07T06:36:59.150Z</time>
      </trkpt>
      <trkpt lat="44.19455" lon="0.70154">
        <ele>134</ele>
        <time>2022-08-07T06:37:00.150Z</time>
      </trkpt>
      <trkpt lat="44.19455" lon="0.70155">
        <ele>135</ele>
        <time>2022-08-07T06:37:01.150Z</time>
      </trkpt>
      <trkpt lat="44.19454" lon="0.70156">
        <ele>135</ele>
        <time>2022-08-07T06:37:02.150Z</time>
      </trkpt>
      <trkpt lat="44.19454" lon="0.70157">
        <ele>135</ele>
        <time>2022-08-07T06:37:03.150Z</time>
      </trkpt>
      <trkpt lat="44.19453" lon="0.70158">
        <ele>135</ele>
        <time>2022-08-07T06:37:04.150Z</time>
      </trkpt>
      <trkpt lat="44.19453" lon="0.70159">
        <ele>135</ele>
        <time>2022-08-07T06:37:05.150Z</time>
      </trkpt>
      <trkpt lat="44.19452" lon="0.7016">
        <ele>135</ele>
        <time>2022-08-07T06:37:06.150Z</time>
      </trkpt>
      <trkpt lat="44.19452" lon="0.70161">
        <ele>136</ele>
        <time>2022-08-07T06:37:07.150Z</time>
      </trkpt>
      <trkpt lat="44.19451" lon="0.70162">
        <ele>136</ele>
        <time>2022-08-07T06:37:08.150Z</time>
      </trkpt>
      <trkpt lat="44.19451" lon="0.70163">
        <ele>136</ele>
        <time>2022-08-07T06:37:09.150Z</time>
      </trkpt>
      <trkpt lat="44.1945" lon="0.70164">
        <ele>136</ele>
        <time>2022-08-07T06:37:10.150Z</time>
      </trkpt>
      <trkpt lat="44.1945" lon="0.70165">
        <ele>136</ele>
        <time>2022-08-07T06:37:11.150Z</time>
      </trkpt>
      <trkpt lat="44.19449" lon="0.70166">
        <ele>136</ele>
        <time>2022-08-07T06:37:12.150Z</time>
      </trkpt>
      <trkpt lat="44.19449" lon="0.70167">
        <ele>136</ele>
        <time>2022-08-07T06:37:13.150Z</time>
      </trkpt>
      <trkpt lat="44.19448" lon="0.70168">
        <ele>136</ele>
        <time>2022-08-07T06:37:14.150Z</time>
      </trkpt>
      <trkpt lat="44.19448" lon="0.70169">
        <ele>136</ele>
        <time>2022-08-07T06:37:15.150Z</time>
      </trkpt>
      <trkpt lat="44.19447" lon="0.7017">
        <ele>136</ele>
        <time>2022-08-07T06:37:16.150Z</time>
      </trkpt>
      <trkpt lat="44.19447" lon="0.7017">
        <ele>136</ele>
        <time>2022-08-07T06:37:17.150Z</time>
      </trkpt>
      <trkpt lat="44.19446" lon="0.70171">
        <ele>136</ele>
        <time>2022-08-07T06:37:18.150Z</time>
      </trkpt>
      <trkpt lat="44.19446" lon="0.70172">
        <ele>136</ele>
        <time>2022-08-07T06:37:19.150Z</time>
      </trkpt>
      <trkpt lat="44.19445" lon="0.70172">
        <ele>136</ele>
        <time>2022-08-07T06:37:20.150Z</time>
      </trkpt>
      <trkpt lat="44.19445" lon="0.70173">
        <ele>137</ele>
        <time>2022-08-07T06:37:21.150Z</time>
      </trkpt>
      <trkpt lat="44.19445" lon="0.70173">
        <ele>137</ele>
        <time>2022-08-07T06:37:22.150Z</time>
      </trkpt>
      <trkpt lat="44.19445" lon="0.70173">
        <ele>137</ele>
        <time>2022-08-07T06:37:23.150Z</time>
      </trkpt>
      <trkpt lat="44.19444" lon="0.70173">
        <ele>137</ele>
        <time>2022-08-07T06:37:24.150Z</time>
      </trkpt>
      <trkpt lat="44.19444" lon="0.70173">
        <ele>138</ele>
        <time>2022-08-07T06:37:25.150Z</time>
      </trkpt>
      <trkpt lat="44.19444" lon="0.70173">
        <ele>138</ele>
        <time>2022-08-07T06:37:26.150Z</time>
      </trkpt>
      <trkpt lat="44.19443" lon="0.70178">
        <ele>139</ele>
        <time>2022-08-07T06:37:45.041Z</time>
      </trkpt>
      <trkpt lat="44.19443" lon="0.70179">
        <ele>139</ele>
        <time>2022-08-07T06:37:46.041Z</time>
      </trkpt>
      <trkpt lat="44.19442" lon="0.70179">
        <ele>139</ele>
        <time>2022-08-07T06:37:47.041Z</time>
      </trkpt>
      <trkpt lat="44.19442" lon="0.7018">
        <ele>139</ele>
        <time>2022-08-07T06:37:48.041Z</time>
      </trkpt>
      <trkpt lat="44.19442" lon="0.7018">
        <ele>139</ele>
        <time>2022-08-07T06:37:49.041Z</time>
      </trkpt>
      <trkpt lat="44.19442" lon="0.7018">
        <ele>139</ele>
        <time>2022-08-07T06:37:50.041Z</time>
      </trkpt>
      <trkpt lat="44.19442" lon="0.7018">
        <ele>139</ele>
        <time>2022-08-07T06:37:51.041Z</time>
      </trkpt>
      <trkpt lat="44.19442" lon="0.7018">
        <ele>139</ele>
        <time>2022-08-07T06:37:52.041Z</time>
      </trkpt>
      <trkpt lat="44.19442" lon="0.7018">
        <ele>139</ele>
        <time>2022-08-07T06:37:53.041Z</time>
      </trkpt>
      <trkpt lat="44.19439" lon="0.70181">
        <ele>143</ele>
        <time>2022-08-07T06:41:02.057Z</time>
      </trkpt>
      <trkpt lat="44.19439" lon="0.70182">
        <ele>142</ele>
        <time>2022-08-07T06:41:03.057Z</time>
      </trkpt>
      <trkpt lat="44.19439" lon="0.70183">
        <ele>141</ele>
        <time>2022-08-07T06:41:04.057Z</time>
      </trkpt>
      <trkpt lat="44.1944" lon="0.70185">
        <ele>141</ele>
        <time>2022-08-07T06:41:05.057Z</time>
      </trkpt>
      <trkpt lat="44.1944" lon="0.70186">
        <ele>141</ele>
        <time>2022-08-07T06:41:06.057Z</time>
      </trkpt>
      <trkpt lat="44.19439" lon="0.70187">
        <ele>141</ele>
        <time>2022-08-07T06:41:07.057Z</time>
      </trkpt>
      <trkpt lat="44.19439" lon="0.70188">
        <ele>141</ele>
        <time>2022-08-07T06:41:08.057Z</time>
      </trkpt>
      <trkpt lat="44.19439" lon="0.70189">
        <ele>141</ele>
        <time>2022-08-07T06:41:09.057Z</time>
      </trkpt>
      <trkpt lat="44.1944" lon="0.70191">
        <ele>141</ele>
        <time>2022-08-07T06:41:10.057Z</time>
      </trkpt>
      <trkpt lat="44.1944" lon="0.70192">
        <ele>141</ele>
        <time>2022-08-07T06:41:11.057Z</time>
      </trkpt>
      <trkpt lat="44.1944" lon="0.70193">
        <ele>141</ele>
        <time>2022-08-07T06:41:12.057Z</time>
      </trkpt>
      <trkpt lat="44.1944" lon="0.70194">
        <ele>141</ele>
        <time>2022-08-07T06:41:13.057Z</time>
      </trkpt>
      <trkpt lat="44.1944" lon="0.70195">
        <ele>141</ele>
        <time>2022-08-07T06:41:14.057Z</time>
      </trkpt>
      <trkpt lat="44.19441" lon="0.70196">
        <ele>141</ele>
        <time>2022-08-07T06:41:15.057Z</time>
      </trkpt>
      <trkpt lat="44.19442" lon="0.70197">
        <ele>142</ele>
        <time>2022-08-07T06:41:16.057Z</time>
      </trkpt>
      <trkpt lat="44.19442" lon="0.70198">
        <ele>141</ele>
        <time>2022-08-07T06:41:17.057Z</time>
      </trkpt>
      <trkpt lat="44.19443" lon="0.70198">
        <ele>141</ele>
        <time>2022-08-07T06:41:18.057Z</time>
      </trkpt>
      <trkpt lat="44.19444" lon="0.70199">
        <ele>141</ele>
        <time>2022-08-07T06:41:19.057Z</time>
      </trkpt>
      <trkpt lat="44.19444" lon="0.70199">
        <ele>141</ele>
        <time>2022-08-07T06:41:20.057Z</time>
      </trkpt>
      <trkpt lat="44.19445" lon="0.70199">
        <ele>142</ele>
        <time>2022-08-07T06:41:21.057Z</time>
      </trkpt>
      <trkpt lat="44.19446" lon="0.70199">
        <ele>142</ele>
        <time>2022-08-07T06:41:22.057Z</time>
      </trkpt>
      <trkpt lat="44.19447" lon="0.70199">
        <ele>142</ele>
        <time>2022-08-07T06:41:23.057Z</time>
      </trkpt>
      <trkpt lat="44.19447" lon="0.702">
        <ele>142</ele>
        <time>2022-08-07T06:41:24.057Z</time>
      </trkpt>
      <trkpt lat="44.19448" lon="0.702">
        <ele>142</ele>
        <time>2022-08-07T06:41:25.057Z</time>
      </trkpt>
      <trkpt lat="44.19449" lon="0.702">
        <ele>142</ele>
        <time>2022-08-07T06:41:26.057Z</time>
      </trkpt>
      <trkpt lat="44.1945" lon="0.702">
        <ele>142</ele>
        <time>2022-08-07T06:41:27.057Z</time>
      </trkpt>
      <trkpt lat="44.19451" lon="0.702">
        <ele>142</ele>
        <time>2022-08-07T06:41:28.057Z</time>
      </trkpt>
      <trkpt lat="44.19452" lon="0.702">
        <ele>142</ele>
        <time>2022-08-07T06:41:29.057Z</time>
      </trkpt>
      <trkpt lat="44.19453" lon="0.702">
        <ele>141</ele>
        <time>2022-08-07T06:41:30.057Z</time>
      </trkpt>
      <trkpt lat="44.19454" lon="0.702">
        <ele>141</ele>
        <time>2022-08-07T06:41:31.057Z</time>
      </trkpt>
      <trkpt lat="44.19455" lon="0.702">
        <ele>141</ele>
        <time>2022-08-07T06:41:32.057Z</time>
      </trkpt>
      <trkpt lat="44.19456" lon="0.70201">
        <ele>141</ele>
        <time>2022-08-07T06:41:33.057Z</time>
      </trkpt>
      <trkpt lat="44.19457" lon="0.70201">
        <ele>142</ele>
        <time>2022-08-07T06:41:34.057Z</time>
      </trkpt>
      <trkpt lat="44.19457" lon="0.70201">
        <ele>141</ele>
        <time>2022-08-07T06:41:35.057Z</time>
      </trkpt>
      <trkpt lat="44.19458" lon="0.70201">
        <ele>142</ele>
        <time>2022-08-07T06:41:36.057Z</time>
      </trkpt>
      <trkpt lat="44.19459" lon="0.70201">
        <ele>141</ele>
        <time>2022-08-07T06:41:37.057Z</time>
      </trkpt>
      <trkpt lat="44.1946" lon="0.70201">
        <ele>141</ele>
        <time>2022-08-07T06:41:38.057Z</time>
      </trkpt>
      <trkpt lat="44.19461" lon="0.70201">
        <ele>141</ele>
        <time>2022-08-07T06:41:39.057Z</time>
      </trkpt>
      <trkpt lat="44.19462" lon="0.70201">
        <ele>141</ele>
        <time>2022-08-07T06:41:40.057Z</time>
      </trkpt>
      <trkpt lat="44.19464" lon="0.70202">
        <ele>141</ele>
        <time>2022-08-07T06:41:41.057Z</time>
      </trkpt>
      <trkpt lat="44.19465" lon="0.70202">
        <ele>141</ele>
        <time>2022-08-07T06:41:42.057Z</time>
      </trkpt>
      <trkpt lat="44.19466" lon="0.70202">
        <ele>141</ele>
        <time>2022-08-07T06:41:43.057Z</time>
      </trkpt>
      <trkpt lat="44.19467" lon="0.70202">
        <ele>141</ele>
        <time>2022-08-07T06:41:44.057Z</time>
      </trkpt>
      <trkpt lat="44.19468" lon="0.70202">
        <ele>142</ele>
        <time>2022-08-07T06:41:45.057Z</time>
      </trkpt>
      <trkpt lat="44.19469" lon="0.70202">
        <ele>142</ele>
        <time>2022-08-07T06:41:46.057Z</time>
      </trkpt>
      <trkpt lat="44.1947" lon="0.70203">
        <ele>142</ele>
        <time>2022-08-07T06:41:47.057Z</time>
      </trkpt>
      <trkpt lat="44.19471" lon="0.70203">
        <ele>143</ele>
        <time>2022-08-07T06:41:48.057Z</time>
      </trkpt>
      <trkpt lat="44.19472" lon="0.70203">
        <ele>143</ele>
        <time>2022-08-07T06:41:49.057Z</time>
      </trkpt>
      <trkpt lat="44.19473" lon="0.70203">
        <ele>143</ele>
        <time>2022-08-07T06:41:50.057Z</time>
      </trkpt>
      <trkpt lat="44.19474" lon="0.70204">
        <ele>144</ele>
        <time>2022-08-07T06:41:51.057Z</time>
      </trkpt>
      <trkpt lat="44.19475" lon="0.70204">
        <ele>144</ele>
        <time>2022-08-07T06:41:52.057Z</time>
      </trkpt>
      <trkpt lat="44.19476" lon="0.70204">
        <ele>144</ele>
        <time>2022-08-07T06:41:53.057Z</time>
      </trkpt>
      <trkpt lat="44.19477" lon="0.70204">
        <ele>144</ele>
        <time>2022-08-07T06:41:54.057Z</time>
      </trkpt>
      <trkpt lat="44.19478" lon="0.70204">
        <ele>144</ele>
        <time>2022-08-07T06:41:55.057Z</time>
      </trkpt>
      <trkpt lat="44.19479" lon="0.70205">
        <ele>144</ele>
        <time>2022-08-07T06:41:56.057Z</time>
      </trkpt>
      <trkpt lat="44.1948" lon="0.70205">
        <ele>144</ele>
        <time>2022-08-07T06:41:57.057Z</time>
      </trkpt>
      <trkpt lat="44.19481" lon="0.70205">
        <ele>144</ele>
        <time>2022-08-07T06:41:58.057Z</time>
      </trkpt>
      <trkpt lat="44.19482" lon="0.70205">
        <ele>145</ele>
        <time>2022-08-07T06:41:59.057Z</time>
      </trkpt>
      <trkpt lat="44.19483" lon="0.70205">
        <ele>145</ele>
        <time>2022-08-07T06:42:00.057Z</time>
      </trkpt>
      <trkpt lat="44.19484" lon="0.70205">
        <ele>145</ele>
        <time>2022-08-07T06:42:01.057Z</time>
      </trkpt>
      <trkpt lat="44.19485" lon="0.70205">
        <ele>145</ele>
        <time>2022-08-07T06:42:02.057Z</time>
      </trkpt>
      <trkpt lat="44.19486" lon="0.70206">
        <ele>145</ele>
        <time>2022-08-07T06:42:03.057Z</time>
      </trkpt>
      <trkpt lat="44.19488" lon="0.70206">
        <ele>144</ele>
        <time>2022-08-07T06:42:04.057Z</time>
      </trkpt>
      <trkpt lat="44.19489" lon="0.70205">
        <ele>143</ele>
        <time>2022-08-07T06:42:05.057Z</time>
      </trkpt>
      <trkpt lat="44.1949" lon="0.70205">
        <ele>143</ele>
        <time>2022-08-07T06:42:06.057Z</time>
      </trkpt>
      <trkpt lat="44.19491" lon="0.70206">
        <ele>143</ele>
        <time>2022-08-07T06:42:07.057Z</time>
      </trkpt>
      <trkpt lat="44.19492" lon="0.70206">
        <ele>144</ele>
        <time>2022-08-07T06:42:08.057Z</time>
      </trkpt>
      <trkpt lat="44.19493" lon="0.70206">
        <ele>144</ele>
        <time>2022-08-07T06:42:09.057Z</time>
      </trkpt>
      <trkpt lat="44.19494" lon="0.70206">
        <ele>144</ele>
        <time>2022-08-07T06:42:10.057Z</time>
      </trkpt>
      <trkpt lat="44.19495" lon="0.70207">
        <ele>145</ele>
        <time>2022-08-07T06:42:11.057Z</time>
      </trkpt>
      <trkpt lat="44.19496" lon="0.70207">
        <ele>145</ele>
        <time>2022-08-07T06:42:12.057Z</time>
      </trkpt>
      <trkpt lat="44.19497" lon="0.70207">
        <ele>145</ele>
        <time>2022-08-07T06:42:13.057Z</time>
      </trkpt>
      <trkpt lat="44.19497" lon="0.70207">
        <ele>145</ele>
        <time>2022-08-07T06:42:14.057Z</time>
      </trkpt>
      <trkpt lat="44.19498" lon="0.70207">
        <ele>145</ele>
        <time>2022-08-07T06:42:15.057Z</time>
      </trkpt>
      <trkpt lat="44.19499" lon="0.70208">
        <ele>144</ele>
        <time>2022-08-07T06:42:16.057Z</time>
      </trkpt>
      <trkpt lat="44.19501" lon="0.70208">
        <ele>144</ele>
        <time>2022-08-07T06:42:17.057Z</time>
      </trkpt>
      <trkpt lat="44.19502" lon="0.70208">
        <ele>144</ele>
        <time>2022-08-07T06:42:18.057Z</time>
      </trkpt>
      <trkpt lat="44.19503" lon="0.70209">
        <ele>144</ele>
        <time>2022-08-07T06:42:19.057Z</time>
      </trkpt>
      <trkpt lat="44.19504" lon="0.70209">
        <ele>145</ele>
        <time>2022-08-07T06:42:20.057Z</time>
      </trkpt>
      <trkpt lat="44.19505" lon="0.70209">
        <ele>145</ele>
        <time>2022-08-07T06:42:21.057Z</time>
      </trkpt>
      <trkpt lat="44.19506" lon="0.7021">
        <ele>145</ele>
        <time>2022-08-07T06:42:22.057Z</time>
      </trkpt>
      <trkpt lat="44.19508" lon="0.7021">
        <ele>144</ele>
        <time>2022-08-07T06:42:23.057Z</time>
      </trkpt>
      <trkpt lat="44.19509" lon="0.7021">
        <ele>144</ele>
        <time>2022-08-07T06:42:24.057Z</time>
      </trkpt>
      <trkpt lat="44.1951" lon="0.7021">
        <ele>145</ele>
        <time>2022-08-07T06:42:25.057Z</time>
      </trkpt>
      <trkpt lat="44.19511" lon="0.70211">
        <ele>145</ele>
        <time>2022-08-07T06:42:26.057Z</time>
      </trkpt>
      <trkpt lat="44.19513" lon="0.70211">
        <ele>145</ele>
        <time>2022-08-07T06:42:27.057Z</time>
      </trkpt>
      <trkpt lat="44.19514" lon="0.70212">
        <ele>144</ele>
        <time>2022-08-07T06:42:28.057Z</time>
      </trkpt>
      <trkpt lat="44.19516" lon="0.70212">
        <ele>143</ele>
        <time>2022-08-07T06:42:29.057Z</time>
      </trkpt>
      <trkpt lat="44.19516" lon="0.70213">
        <ele>144</ele>
        <time>2022-08-07T06:42:30.057Z</time>
      </trkpt>
      <trkpt lat="44.19517" lon="0.70214">
        <ele>144</ele>
        <time>2022-08-07T06:42:31.057Z</time>
      </trkpt>
      <trkpt lat="44.19518" lon="0.70215">
        <ele>144</ele>
        <time>2022-08-07T06:42:32.057Z</time>
      </trkpt>
      <trkpt lat="44.19519" lon="0.70216">
        <ele>143</ele>
        <time>2022-08-07T06:42:33.057Z</time>
      </trkpt>
      <trkpt lat="44.1952" lon="0.70217">
        <ele>143</ele>
        <time>2022-08-07T06:42:34.057Z</time>
      </trkpt>
      <trkpt lat="44.19521" lon="0.70218">
        <ele>143</ele>
        <time>2022-08-07T06:42:35.057Z</time>
      </trkpt>
      <trkpt lat="44.19521" lon="0.70219">
        <ele>143</ele>
        <time>2022-08-07T06:42:36.057Z</time>
      </trkpt>
      <trkpt lat="44.19522" lon="0.7022">
        <ele>143</ele>
        <time>2022-08-07T06:42:37.057Z</time>
      </trkpt>
      <trkpt lat="44.19523" lon="0.70221">
        <ele>143</ele>
        <time>2022-08-07T06:42:38.057Z</time>
      </trkpt>
      <trkpt lat="44.19523" lon="0.70222">
        <ele>143</ele>
        <time>2022-08-07T06:42:39.057Z</time>
      </trkpt>
      <trkpt lat="44.19524" lon="0.70223">
        <ele>143</ele>
        <time>2022-08-07T06:42:40.057Z</time>
      </trkpt>
      <trkpt lat="44.19524" lon="0.70225">
        <ele>143</ele>
        <time>2022-08-07T06:42:41.057Z</time>
      </trkpt>
      <trkpt lat="44.19525" lon="0.70226">
        <ele>143</ele>
        <time>2022-08-07T06:42:42.057Z</time>
      </trkpt>
      <trkpt lat="44.19526" lon="0.70227">
        <ele>143</ele>
        <time>2022-08-07T06:42:43.057Z</time>
      </trkpt>
      <trkpt lat="44.19526" lon="0.70228">
        <ele>143</ele>
        <time>2022-08-07T06:42:44.057Z</time>
      </trkpt>
      <trkpt lat="44.19527" lon="0.70229">
        <ele>143</ele>
        <time>2022-08-07T06:42:45.057Z</time>
      </trkpt>
      <trkpt lat="44.19527" lon="0.7023">
        <ele>143</ele>
        <time>2022-08-07T06:42:46.057Z</time>
      </trkpt>
      <trkpt lat="44.19528" lon="0.70231">
        <ele>143</ele>
        <time>2022-08-07T06:42:47.057Z</time>
      </trkpt>
      <trkpt lat="44.19529" lon="0.70233">
        <ele>142</ele>
        <time>2022-08-07T06:42:48.057Z</time>
      </trkpt>
      <trkpt lat="44.1953" lon="0.70234">
        <ele>143</ele>
        <time>2022-08-07T06:42:49.057Z</time>
      </trkpt>
      <trkpt lat="44.19531" lon="0.70235">
        <ele>143</ele>
        <time>2022-08-07T06:42:50.057Z</time>
      </trkpt>
      <trkpt lat="44.19532" lon="0.70237">
        <ele>143</ele>
        <time>2022-08-07T06:42:51.057Z</time>
      </trkpt>
      <trkpt lat="44.19533" lon="0.70238">
        <ele>143</ele>
        <time>2022-08-07T06:42:52.057Z</time>
      </trkpt>
      <trkpt lat="44.19534" lon="0.70239">
        <ele>144</ele>
        <time>2022-08-07T06:42:53.057Z</time>
      </trkpt>
      <trkpt lat="44.19534" lon="0.7024">
        <ele>144</ele>
        <time>2022-08-07T06:42:54.057Z</time>
      </trkpt>
      <trkpt lat="44.19535" lon="0.70241">
        <ele>144</ele>
        <time>2022-08-07T06:42:55.057Z</time>
      </trkpt>
      <trkpt lat="44.19535" lon="0.70242">
        <ele>144</ele>
        <time>2022-08-07T06:42:56.057Z</time>
      </trkpt>
      <trkpt lat="44.19536" lon="0.70243">
        <ele>143</ele>
        <time>2022-08-07T06:42:57.057Z</time>
      </trkpt>
      <trkpt lat="44.19537" lon="0.70244">
        <ele>144</ele>
        <time>2022-08-07T06:42:58.057Z</time>
      </trkpt>
      <trkpt lat="44.19537" lon="0.70245">
        <ele>144</ele>
        <time>2022-08-07T06:42:59.057Z</time>
      </trkpt>
      <trkpt lat="44.19538" lon="0.70246">
        <ele>144</ele>
        <time>2022-08-07T06:43:00.057Z</time>
      </trkpt>
      <trkpt lat="44.19539" lon="0.70247">
        <ele>144</ele>
        <time>2022-08-07T06:43:01.057Z</time>
      </trkpt>
      <trkpt lat="44.1954" lon="0.70248">
        <ele>144</ele>
        <time>2022-08-07T06:43:02.057Z</time>
      </trkpt>
      <trkpt lat="44.19541" lon="0.70249">
        <ele>144</ele>
        <time>2022-08-07T06:43:03.057Z</time>
      </trkpt>
      <trkpt lat="44.19541" lon="0.7025">
        <ele>144</ele>
        <time>2022-08-07T06:43:04.057Z</time>
      </trkpt>
      <trkpt lat="44.19542" lon="0.70251">
        <ele>145</ele>
        <time>2022-08-07T06:43:05.057Z</time>
      </trkpt>
      <trkpt lat="44.19543" lon="0.70252">
        <ele>145</ele>
        <time>2022-08-07T06:43:06.057Z</time>
      </trkpt>
      <trkpt lat="44.19543" lon="0.70253">
        <ele>145</ele>
        <time>2022-08-07T06:43:07.057Z</time>
      </trkpt>
      <trkpt lat="44.19544" lon="0.70253">
        <ele>145</ele>
        <time>2022-08-07T06:43:08.057Z</time>
      </trkpt>
      <trkpt lat="44.19545" lon="0.70254">
        <ele>145</ele>
        <time>2022-08-07T06:43:09.057Z</time>
      </trkpt>
      <trkpt lat="44.19546" lon="0.70255">
        <ele>145</ele>
        <time>2022-08-07T06:43:10.057Z</time>
      </trkpt>
      <trkpt lat="44.19547" lon="0.70256">
        <ele>145</ele>
        <time>2022-08-07T06:43:11.057Z</time>
      </trkpt>
      <trkpt lat="44.19548" lon="0.70257">
        <ele>145</ele>
        <time>2022-08-07T06:43:12.057Z</time>
      </trkpt>
      <trkpt lat="44.19548" lon="0.70258">
        <ele>145</ele>
        <time>2022-08-07T06:43:13.057Z</time>
      </trkpt>
      <trkpt lat="44.19549" lon="0.70259">
        <ele>144</ele>
        <time>2022-08-07T06:43:14.057Z</time>
      </trkpt>
      <trkpt lat="44.1955" lon="0.7026">
        <ele>144</ele>
        <time>2022-08-07T06:43:15.057Z</time>
      </trkpt>
      <trkpt lat="44.19551" lon="0.70261">
        <ele>144</ele>
        <time>2022-08-07T06:43:16.057Z</time>
      </trkpt>
      <trkpt lat="44.19551" lon="0.70262">
        <ele>143</ele>
        <time>2022-08-07T06:43:17.057Z</time>
      </trkpt>
      <trkpt lat="44.19552" lon="0.70263">
        <ele>143</ele>
        <time>2022-08-07T06:43:18.057Z</time>
      </trkpt>
      <trkpt lat="44.19553" lon="0.70264">
        <ele>143</ele>
        <time>2022-08-07T06:43:19.057Z</time>
      </trkpt>
      <trkpt lat="44.19554" lon="0.70265">
        <ele>143</ele>
        <time>2022-08-07T06:43:20.057Z</time>
      </trkpt>
      <trkpt lat="44.19554" lon="0.70266">
        <ele>143</ele>
        <time>2022-08-07T06:43:21.057Z</time>
      </trkpt>
      <trkpt lat="44.19555" lon="0.70268">
        <ele>142</ele>
        <time>2022-08-07T06:43:22.057Z</time>
      </trkpt>
      <trkpt lat="44.19556" lon="0.70269">
        <ele>143</ele>
        <time>2022-08-07T06:43:23.057Z</time>
      </trkpt>
      <trkpt lat="44.19557" lon="0.7027">
        <ele>143</ele>
        <time>2022-08-07T06:43:24.057Z</time>
      </trkpt>
      <trkpt lat="44.19557" lon="0.70272">
        <ele>142</ele>
        <time>2022-08-07T06:43:25.057Z</time>
      </trkpt>
      <trkpt lat="44.19558" lon="0.70273">
        <ele>142</ele>
        <time>2022-08-07T06:43:26.057Z</time>
      </trkpt>
      <trkpt lat="44.19558" lon="0.70275">
        <ele>143</ele>
        <time>2022-08-07T06:43:27.057Z</time>
      </trkpt>
      <trkpt lat="44.19558" lon="0.70277">
        <ele>143</ele>
        <time>2022-08-07T06:43:28.057Z</time>
      </trkpt>
      <trkpt lat="44.19558" lon="0.70279">
        <ele>144</ele>
        <time>2022-08-07T06:43:29.057Z</time>
      </trkpt>
      <trkpt lat="44.19558" lon="0.7028">
        <ele>143</ele>
        <time>2022-08-07T06:43:30.057Z</time>
      </trkpt>
      <trkpt lat="44.19558" lon="0.70282">
        <ele>144</ele>
        <time>2022-08-07T06:43:31.057Z</time>
      </trkpt>
      <trkpt lat="44.19558" lon="0.70283">
        <ele>144</ele>
        <time>2022-08-07T06:43:32.057Z</time>
      </trkpt>
      <trkpt lat="44.19559" lon="0.70285">
        <ele>144</ele>
        <time>2022-08-07T06:43:33.057Z</time>
      </trkpt>
      <trkpt lat="44.19559" lon="0.70286">
        <ele>144</ele>
        <time>2022-08-07T06:43:34.057Z</time>
      </trkpt>
      <trkpt lat="44.19559" lon="0.70288">
        <ele>144</ele>
        <time>2022-08-07T06:43:35.057Z</time>
      </trkpt>
      <trkpt lat="44.19559" lon="0.7029">
        <ele>144</ele>
        <time>2022-08-07T06:43:36.057Z</time>
      </trkpt>
      <trkpt lat="44.19559" lon="0.70291">
        <ele>144</ele>
        <time>2022-08-07T06:43:37.057Z</time>
      </trkpt>
      <trkpt lat="44.19559" lon="0.70293">
        <ele>144</ele>
        <time>2022-08-07T06:43:38.057Z</time>
      </trkpt>
      <trkpt lat="44.19559" lon="0.70294">
        <ele>144</ele>
        <time>2022-08-07T06:43:39.057Z</time>
      </trkpt>
      <trkpt lat="44.1956" lon="0.70296">
        <ele>145</ele>
        <time>2022-08-07T06:43:40.057Z</time>
      </trkpt>
      <trkpt lat="44.1956" lon="0.70298">
        <ele>146</ele>
        <time>2022-08-07T06:43:41.057Z</time>
      </trkpt>
      <trkpt lat="44.1956" lon="0.703">
        <ele>146</ele>
        <time>2022-08-07T06:43:42.057Z</time>
      </trkpt>
      <trkpt lat="44.1956" lon="0.70302">
        <ele>146</ele>
        <time>2022-08-07T06:43:43.057Z</time>
      </trkpt>
      <trkpt lat="44.1956" lon="0.70304">
        <ele>147</ele>
        <time>2022-08-07T06:43:44.057Z</time>
      </trkpt>
      <trkpt lat="44.1956" lon="0.70306">
        <ele>147</ele>
        <time>2022-08-07T06:43:45.057Z</time>
      </trkpt>
      <trkpt lat="44.1956" lon="0.70308">
        <ele>148</ele>
        <time>2022-08-07T06:43:46.057Z</time>
      </trkpt>
      <trkpt lat="44.19559" lon="0.7031">
        <ele>149</ele>
        <time>2022-08-07T06:43:47.057Z</time>
      </trkpt>
      <trkpt lat="44.19559" lon="0.70312">
        <ele>149</ele>
        <time>2022-08-07T06:43:48.057Z</time>
      </trkpt>
      <trkpt lat="44.1956" lon="0.70313">
        <ele>150</ele>
        <time>2022-08-07T06:43:49.057Z</time>
      </trkpt>
      <trkpt lat="44.1956" lon="0.70315">
        <ele>150</ele>
        <time>2022-08-07T06:43:50.057Z</time>
      </trkpt>
      <trkpt lat="44.19559" lon="0.70317">
        <ele>151</ele>
        <time>2022-08-07T06:43:51.057Z</time>
      </trkpt>
      <trkpt lat="44.19559" lon="0.70319">
        <ele>151</ele>
        <time>2022-08-07T06:43:52.057Z</time>
      </trkpt>
      <trkpt lat="44.19559" lon="0.7032">
        <ele>150</ele>
        <time>2022-08-07T06:43:53.057Z</time>
      </trkpt>
      <trkpt lat="44.19559" lon="0.70322">
        <ele>150</ele>
        <time>2022-08-07T06:43:54.057Z</time>
      </trkpt>
      <trkpt lat="44.19559" lon="0.70324">
        <ele>149</ele>
        <time>2022-08-07T06:43:55.057Z</time>
      </trkpt>
      <trkpt lat="44.19559" lon="0.70325">
        <ele>149</ele>
        <time>2022-08-07T06:43:56.057Z</time>
      </trkpt>
      <trkpt lat="44.19559" lon="0.70327">
        <ele>149</ele>
        <time>2022-08-07T06:43:57.057Z</time>
      </trkpt>
      <trkpt lat="44.19559" lon="0.70328">
        <ele>150</ele>
        <time>2022-08-07T06:43:58.057Z</time>
      </trkpt>
      <trkpt lat="44.19559" lon="0.7033">
        <ele>150</ele>
        <time>2022-08-07T06:43:59.057Z</time>
      </trkpt>
      <trkpt lat="44.19559" lon="0.70331">
        <ele>150</ele>
        <time>2022-08-07T06:44:00.057Z</time>
      </trkpt>
      <trkpt lat="44.19559" lon="0.70333">
        <ele>149</ele>
        <time>2022-08-07T06:44:01.057Z</time>
      </trkpt>
      <trkpt lat="44.19559" lon="0.70334">
        <ele>149</ele>
        <time>2022-08-07T06:44:02.057Z</time>
      </trkpt>
      <trkpt lat="44.19559" lon="0.70336">
        <ele>149</ele>
        <time>2022-08-07T06:44:03.057Z</time>
      </trkpt>
      <trkpt lat="44.1956" lon="0.70338">
        <ele>148</ele>
        <time>2022-08-07T06:44:04.057Z</time>
      </trkpt>
      <trkpt lat="44.1956" lon="0.70339">
        <ele>148</ele>
        <time>2022-08-07T06:44:05.057Z</time>
      </trkpt>
      <trkpt lat="44.1956" lon="0.70341">
        <ele>148</ele>
        <time>2022-08-07T06:44:06.057Z</time>
      </trkpt>
      <trkpt lat="44.1956" lon="0.70342">
        <ele>147</ele>
        <time>2022-08-07T06:44:07.057Z</time>
      </trkpt>
      <trkpt lat="44.19561" lon="0.70344">
        <ele>148</ele>
        <time>2022-08-07T06:44:08.057Z</time>
      </trkpt>
      <trkpt lat="44.19561" lon="0.70346">
        <ele>147</ele>
        <time>2022-08-07T06:44:09.057Z</time>
      </trkpt>
      <trkpt lat="44.19561" lon="0.70347">
        <ele>147</ele>
        <time>2022-08-07T06:44:10.057Z</time>
      </trkpt>
      <trkpt lat="44.19561" lon="0.70349">
        <ele>147</ele>
        <time>2022-08-07T06:44:11.057Z</time>
      </trkpt>
      <trkpt lat="44.19561" lon="0.70351">
        <ele>147</ele>
        <time>2022-08-07T06:44:12.057Z</time>
      </trkpt>
      <trkpt lat="44.19561" lon="0.70352">
        <ele>147</ele>
        <time>2022-08-07T06:44:13.057Z</time>
      </trkpt>
      <trkpt lat="44.19561" lon="0.70354">
        <ele>148</ele>
        <time>2022-08-07T06:44:14.057Z</time>
      </trkpt>
      <trkpt lat="44.19561" lon="0.70356">
        <ele>148</ele>
        <time>2022-08-07T06:44:15.057Z</time>
      </trkpt>
      <trkpt lat="44.19562" lon="0.70358">
        <ele>148</ele>
        <time>2022-08-07T06:44:16.057Z</time>
      </trkpt>
      <trkpt lat="44.19562" lon="0.70359">
        <ele>148</ele>
        <time>2022-08-07T06:44:17.057Z</time>
      </trkpt>
      <trkpt lat="44.19562" lon="0.7036">
        <ele>148</ele>
        <time>2022-08-07T06:44:18.057Z</time>
      </trkpt>
      <trkpt lat="44.19562" lon="0.70362">
        <ele>148</ele>
        <time>2022-08-07T06:44:19.057Z</time>
      </trkpt>
      <trkpt lat="44.19562" lon="0.70364">
        <ele>147</ele>
        <time>2022-08-07T06:44:20.057Z</time>
      </trkpt>
      <trkpt lat="44.19562" lon="0.70365">
        <ele>147</ele>
        <time>2022-08-07T06:44:21.057Z</time>
      </trkpt>
      <trkpt lat="44.19562" lon="0.70367">
        <ele>147</ele>
        <time>2022-08-07T06:44:22.057Z</time>
      </trkpt>
      <trkpt lat="44.19562" lon="0.70368">
        <ele>147</ele>
        <time>2022-08-07T06:44:23.057Z</time>
      </trkpt>
      <trkpt lat="44.19562" lon="0.7037">
        <ele>148</ele>
        <time>2022-08-07T06:44:24.057Z</time>
      </trkpt>
      <trkpt lat="44.19562" lon="0.70371">
        <ele>148</ele>
        <time>2022-08-07T06:44:25.057Z</time>
      </trkpt>
      <trkpt lat="44.19562" lon="0.70373">
        <ele>148</ele>
        <time>2022-08-07T06:44:26.057Z</time>
      </trkpt>
      <trkpt lat="44.19562" lon="0.70375">
        <ele>148</ele>
        <time>2022-08-07T06:44:27.057Z</time>
      </trkpt>
      <trkpt lat="44.19562" lon="0.70377">
        <ele>148</ele>
        <time>2022-08-07T06:44:28.057Z</time>
      </trkpt>
      <trkpt lat="44.19562" lon="0.70378">
        <ele>148</ele>
        <time>2022-08-07T06:44:29.057Z</time>
      </trkpt>
      <trkpt lat="44.19562" lon="0.70379">
        <ele>147</ele>
        <time>2022-08-07T06:44:30.057Z</time>
      </trkpt>
      <trkpt lat="44.19563" lon="0.7038">
        <ele>147</ele>
        <time>2022-08-07T06:44:31.057Z</time>
      </trkpt>
      <trkpt lat="44.19563" lon="0.70382">
        <ele>148</ele>
        <time>2022-08-07T06:44:32.057Z</time>
      </trkpt>
      <trkpt lat="44.19563" lon="0.70383">
        <ele>148</ele>
        <time>2022-08-07T06:44:33.057Z</time>
      </trkpt>
      <trkpt lat="44.19564" lon="0.70383">
        <ele>147</ele>
        <time>2022-08-07T06:44:34.057Z</time>
      </trkpt>
      <trkpt lat="44.19564" lon="0.70384">
        <ele>146</ele>
        <time>2022-08-07T06:44:35.057Z</time>
      </trkpt>
      <trkpt lat="44.19565" lon="0.70385">
        <ele>146</ele>
        <time>2022-08-07T06:44:36.057Z</time>
      </trkpt>
      <trkpt lat="44.19566" lon="0.70386">
        <ele>146</ele>
        <time>2022-08-07T06:44:37.057Z</time>
      </trkpt>
      <trkpt lat="44.19567" lon="0.70387">
        <ele>146</ele>
        <time>2022-08-07T06:44:38.057Z</time>
      </trkpt>
      <trkpt lat="44.19568" lon="0.70387">
        <ele>145</ele>
        <time>2022-08-07T06:44:39.057Z</time>
      </trkpt>
      <trkpt lat="44.19569" lon="0.70388">
        <ele>145</ele>
        <time>2022-08-07T06:44:40.057Z</time>
      </trkpt>
      <trkpt lat="44.1957" lon="0.7039">
        <ele>144</ele>
        <time>2022-08-07T06:44:41.057Z</time>
      </trkpt>
      <trkpt lat="44.19571" lon="0.70391">
        <ele>144</ele>
        <time>2022-08-07T06:44:42.057Z</time>
      </trkpt>
      <trkpt lat="44.19572" lon="0.70392">
        <ele>144</ele>
        <time>2022-08-07T06:44:43.057Z</time>
      </trkpt>
      <trkpt lat="44.19572" lon="0.70393">
        <ele>143</ele>
        <time>2022-08-07T06:44:44.057Z</time>
      </trkpt>
      <trkpt lat="44.19573" lon="0.70394">
        <ele>143</ele>
        <time>2022-08-07T06:44:45.057Z</time>
      </trkpt>
      <trkpt lat="44.19574" lon="0.70394">
        <ele>143</ele>
        <time>2022-08-07T06:44:46.057Z</time>
      </trkpt>
      <trkpt lat="44.19574" lon="0.70395">
        <ele>143</ele>
        <time>2022-08-07T06:44:47.057Z</time>
      </trkpt>
      <trkpt lat="44.19575" lon="0.70396">
        <ele>143</ele>
        <time>2022-08-07T06:44:48.057Z</time>
      </trkpt>
      <trkpt lat="44.19575" lon="0.70397">
        <ele>143</ele>
        <time>2022-08-07T06:44:49.057Z</time>
      </trkpt>
      <trkpt lat="44.19576" lon="0.70398">
        <ele>143</ele>
        <time>2022-08-07T06:44:50.057Z</time>
      </trkpt>
      <trkpt lat="44.19577" lon="0.70398">
        <ele>143</ele>
        <time>2022-08-07T06:44:51.057Z</time>
      </trkpt>
      <trkpt lat="44.19577" lon="0.70399">
        <ele>142</ele>
        <time>2022-08-07T06:44:52.057Z</time>
      </trkpt>
      <trkpt lat="44.19578" lon="0.704">
        <ele>143</ele>
        <time>2022-08-07T06:44:53.057Z</time>
      </trkpt>
      <trkpt lat="44.19579" lon="0.70401">
        <ele>142</ele>
        <time>2022-08-07T06:44:54.057Z</time>
      </trkpt>
      <trkpt lat="44.1958" lon="0.70402">
        <ele>142</ele>
        <time>2022-08-07T06:44:55.057Z</time>
      </trkpt>
      <trkpt lat="44.19581" lon="0.70403">
        <ele>142</ele>
        <time>2022-08-07T06:44:56.057Z</time>
      </trkpt>
      <trkpt lat="44.19582" lon="0.70403">
        <ele>143</ele>
        <time>2022-08-07T06:44:57.057Z</time>
      </trkpt>
      <trkpt lat="44.19582" lon="0.70404">
        <ele>142</ele>
        <time>2022-08-07T06:44:58.057Z</time>
      </trkpt>
      <trkpt lat="44.19583" lon="0.70405">
        <ele>142</ele>
        <time>2022-08-07T06:44:59.057Z</time>
      </trkpt>
      <trkpt lat="44.19584" lon="0.70405">
        <ele>142</ele>
        <time>2022-08-07T06:45:00.057Z</time>
      </trkpt>
      <trkpt lat="44.19585" lon="0.70406">
        <ele>142</ele>
        <time>2022-08-07T06:45:01.057Z</time>
      </trkpt>
      <trkpt lat="44.19585" lon="0.70407">
        <ele>142</ele>
        <time>2022-08-07T06:45:02.057Z</time>
      </trkpt>
      <trkpt lat="44.19586" lon="0.70407">
        <ele>143</ele>
        <time>2022-08-07T06:45:03.057Z</time>
      </trkpt>
      <trkpt lat="44.19587" lon="0.70408">
        <ele>144</ele>
        <time>2022-08-07T06:45:04.057Z</time>
      </trkpt>
      <trkpt lat="44.19588" lon="0.70409">
        <ele>144</ele>
        <time>2022-08-07T06:45:05.057Z</time>
      </trkpt>
      <trkpt lat="44.19589" lon="0.7041">
        <ele>144</ele>
        <time>2022-08-07T06:45:06.057Z</time>
      </trkpt>
      <trkpt lat="44.1959" lon="0.7041">
        <ele>143</ele>
        <time>2022-08-07T06:45:07.057Z</time>
      </trkpt>
      <trkpt lat="44.19591" lon="0.70411">
        <ele>143</ele>
        <time>2022-08-07T06:45:08.057Z</time>
      </trkpt>
      <trkpt lat="44.19591" lon="0.70412">
        <ele>142</ele>
        <time>2022-08-07T06:45:09.057Z</time>
      </trkpt>
      <trkpt lat="44.19592" lon="0.70412">
        <ele>143</ele>
        <time>2022-08-07T06:45:10.057Z</time>
      </trkpt>
      <trkpt lat="44.19594" lon="0.70413">
        <ele>142</ele>
        <time>2022-08-07T06:45:11.057Z</time>
      </trkpt>
      <trkpt lat="44.19595" lon="0.70414">
        <ele>142</ele>
        <time>2022-08-07T06:45:12.057Z</time>
      </trkpt>
      <trkpt lat="44.19596" lon="0.70415">
        <ele>143</ele>
        <time>2022-08-07T06:45:13.057Z</time>
      </trkpt>
      <trkpt lat="44.19597" lon="0.70416">
        <ele>143</ele>
        <time>2022-08-07T06:45:14.057Z</time>
      </trkpt>
      <trkpt lat="44.19598" lon="0.70417">
        <ele>144</ele>
        <time>2022-08-07T06:45:15.057Z</time>
      </trkpt>
      <trkpt lat="44.196" lon="0.70417">
        <ele>144</ele>
        <time>2022-08-07T06:45:16.057Z</time>
      </trkpt>
      <trkpt lat="44.196" lon="0.70418">
        <ele>145</ele>
        <time>2022-08-07T06:45:17.057Z</time>
      </trkpt>
      <trkpt lat="44.19601" lon="0.70419">
        <ele>146</ele>
        <time>2022-08-07T06:45:18.057Z</time>
      </trkpt>
      <trkpt lat="44.19602" lon="0.7042">
        <ele>145</ele>
        <time>2022-08-07T06:45:19.057Z</time>
      </trkpt>
      <trkpt lat="44.19603" lon="0.70421">
        <ele>145</ele>
        <time>2022-08-07T06:45:20.057Z</time>
      </trkpt>
      <trkpt lat="44.19604" lon="0.70422">
        <ele>145</ele>
        <time>2022-08-07T06:45:21.057Z</time>
      </trkpt>
      <trkpt lat="44.19604" lon="0.70422">
        <ele>145</ele>
        <time>2022-08-07T06:45:22.057Z</time>
      </trkpt>
      <trkpt lat="44.19605" lon="0.70423">
        <ele>145</ele>
        <time>2022-08-07T06:45:23.057Z</time>
      </trkpt>
      <trkpt lat="44.19606" lon="0.70423">
        <ele>145</ele>
        <time>2022-08-07T06:45:24.057Z</time>
      </trkpt>
      <trkpt lat="44.19607" lon="0.70424">
        <ele>146</ele>
        <time>2022-08-07T06:45:25.057Z</time>
      </trkpt>
      <trkpt lat="44.19608" lon="0.70425">
        <ele>146</ele>
        <time>2022-08-07T06:45:26.057Z</time>
      </trkpt>
      <trkpt lat="44.19609" lon="0.70425">
        <ele>146</ele>
        <time>2022-08-07T06:45:27.057Z</time>
      </trkpt>
      <trkpt lat="44.1961" lon="0.70426">
        <ele>146</ele>
        <time>2022-08-07T06:45:28.057Z</time>
      </trkpt>
      <trkpt lat="44.1961" lon="0.70427">
        <ele>147</ele>
        <time>2022-08-07T06:45:29.057Z</time>
      </trkpt>
      <trkpt lat="44.19611" lon="0.70428">
        <ele>147</ele>
        <time>2022-08-07T06:45:30.057Z</time>
      </trkpt>
      <trkpt lat="44.19612" lon="0.70428">
        <ele>147</ele>
        <time>2022-08-07T06:45:31.057Z</time>
      </trkpt>
      <trkpt lat="44.19613" lon="0.70429">
        <ele>147</ele>
        <time>2022-08-07T06:45:32.057Z</time>
      </trkpt>
      <trkpt lat="44.19614" lon="0.7043">
        <ele>147</ele>
        <time>2022-08-07T06:45:33.057Z</time>
      </trkpt>
      <trkpt lat="44.19615" lon="0.7043">
        <ele>147</ele>
        <time>2022-08-07T06:45:34.057Z</time>
      </trkpt>
      <trkpt lat="44.19616" lon="0.70431">
        <ele>146</ele>
        <time>2022-08-07T06:45:35.057Z</time>
      </trkpt>
      <trkpt lat="44.19616" lon="0.70431">
        <ele>146</ele>
        <time>2022-08-07T06:45:36.057Z</time>
      </trkpt>
      <trkpt lat="44.19617" lon="0.70432">
        <ele>146</ele>
        <time>2022-08-07T06:45:37.057Z</time>
      </trkpt>
      <trkpt lat="44.19618" lon="0.70432">
        <ele>146</ele>
        <time>2022-08-07T06:45:38.057Z</time>
      </trkpt>
      <trkpt lat="44.19619" lon="0.70433">
        <ele>146</ele>
        <time>2022-08-07T06:45:39.057Z</time>
      </trkpt>
      <trkpt lat="44.1962" lon="0.70434">
        <ele>146</ele>
        <time>2022-08-07T06:45:40.057Z</time>
      </trkpt>
      <trkpt lat="44.19621" lon="0.70434">
        <ele>146</ele>
        <time>2022-08-07T06:45:41.057Z</time>
      </trkpt>
      <trkpt lat="44.19622" lon="0.70435">
        <ele>146</ele>
        <time>2022-08-07T06:45:42.057Z</time>
      </trkpt>
      <trkpt lat="44.19623" lon="0.70435">
        <ele>146</ele>
        <time>2022-08-07T06:45:43.057Z</time>
      </trkpt>
      <trkpt lat="44.19624" lon="0.70436">
        <ele>146</ele>
        <time>2022-08-07T06:45:44.057Z</time>
      </trkpt>
      <trkpt lat="44.19625" lon="0.70437">
        <ele>147</ele>
        <time>2022-08-07T06:45:45.057Z</time>
      </trkpt>
      <trkpt lat="44.19626" lon="0.70437">
        <ele>147</ele>
        <time>2022-08-07T06:45:46.057Z</time>
      </trkpt>
      <trkpt lat="44.19627" lon="0.70439">
        <ele>148</ele>
        <time>2022-08-07T06:45:47.057Z</time>
      </trkpt>
      <trkpt lat="44.19628" lon="0.70439">
        <ele>148</ele>
        <time>2022-08-07T06:45:48.057Z</time>
      </trkpt>
      <trkpt lat="44.1963" lon="0.7044">
        <ele>147</ele>
        <time>2022-08-07T06:45:49.057Z</time>
      </trkpt>
      <trkpt lat="44.19632" lon="0.70441">
        <ele>146</ele>
        <time>2022-08-07T06:45:50.057Z</time>
      </trkpt>
      <trkpt lat="44.19634" lon="0.70442">
        <ele>146</ele>
        <time>2022-08-07T06:45:51.057Z</time>
      </trkpt>
      <trkpt lat="44.19635" lon="0.70443">
        <ele>146</ele>
        <time>2022-08-07T06:45:52.057Z</time>
      </trkpt>
      <trkpt lat="44.19636" lon="0.70443">
        <ele>147</ele>
        <time>2022-08-07T06:45:53.057Z</time>
      </trkpt>
      <trkpt lat="44.19636" lon="0.70444">
        <ele>147</ele>
        <time>2022-08-07T06:45:54.057Z</time>
      </trkpt>
      <trkpt lat="44.19637" lon="0.70444">
        <ele>148</ele>
        <time>2022-08-07T06:45:55.057Z</time>
      </trkpt>
      <trkpt lat="44.19638" lon="0.70445">
        <ele>148</ele>
        <time>2022-08-07T06:45:56.057Z</time>
      </trkpt>
      <trkpt lat="44.19639" lon="0.70446">
        <ele>148</ele>
        <time>2022-08-07T06:45:57.057Z</time>
      </trkpt>
      <trkpt lat="44.1964" lon="0.70446">
        <ele>148</ele>
        <time>2022-08-07T06:45:58.057Z</time>
      </trkpt>
      <trkpt lat="44.19641" lon="0.70447">
        <ele>149</ele>
        <time>2022-08-07T06:45:59.057Z</time>
      </trkpt>
      <trkpt lat="44.19642" lon="0.70447">
        <ele>149</ele>
        <time>2022-08-07T06:46:00.057Z</time>
      </trkpt>
      <trkpt lat="44.19643" lon="0.70448">
        <ele>149</ele>
        <time>2022-08-07T06:46:01.057Z</time>
      </trkpt>
      <trkpt lat="44.19644" lon="0.70448">
        <ele>149</ele>
        <time>2022-08-07T06:46:02.057Z</time>
      </trkpt>
      <trkpt lat="44.19645" lon="0.70448">
        <ele>150</ele>
        <time>2022-08-07T06:46:03.057Z</time>
      </trkpt>
      <trkpt lat="44.19645" lon="0.70449">
        <ele>150</ele>
        <time>2022-08-07T06:46:04.057Z</time>
      </trkpt>
      <trkpt lat="44.19646" lon="0.70449">
        <ele>150</ele>
        <time>2022-08-07T06:46:05.057Z</time>
      </trkpt>
      <trkpt lat="44.19647" lon="0.70449">
        <ele>150</ele>
        <time>2022-08-07T06:46:06.057Z</time>
      </trkpt>
      <trkpt lat="44.19648" lon="0.7045">
        <ele>150</ele>
        <time>2022-08-07T06:46:07.057Z</time>
      </trkpt>
      <trkpt lat="44.19649" lon="0.7045">
        <ele>149</ele>
        <time>2022-08-07T06:46:08.057Z</time>
      </trkpt>
      <trkpt lat="44.1965" lon="0.7045">
        <ele>149</ele>
        <time>2022-08-07T06:46:09.057Z</time>
      </trkpt>
      <trkpt lat="44.1965" lon="0.7045">
        <ele>150</ele>
        <time>2022-08-07T06:46:10.057Z</time>
      </trkpt>
      <trkpt lat="44.19651" lon="0.70451">
        <ele>150</ele>
        <time>2022-08-07T06:46:11.057Z</time>
      </trkpt>
      <trkpt lat="44.19652" lon="0.70451">
        <ele>150</ele>
        <time>2022-08-07T06:46:12.057Z</time>
      </trkpt>
      <trkpt lat="44.19653" lon="0.70451">
        <ele>150</ele>
        <time>2022-08-07T06:46:13.057Z</time>
      </trkpt>
      <trkpt lat="44.19654" lon="0.70451">
        <ele>150</ele>
        <time>2022-08-07T06:46:14.057Z</time>
      </trkpt>
      <trkpt lat="44.19654" lon="0.70452">
        <ele>149</ele>
        <time>2022-08-07T06:46:15.057Z</time>
      </trkpt>
      <trkpt lat="44.19655" lon="0.70452">
        <ele>150</ele>
        <time>2022-08-07T06:46:16.057Z</time>
      </trkpt>
      <trkpt lat="44.19656" lon="0.70452">
        <ele>150</ele>
        <time>2022-08-07T06:46:17.057Z</time>
      </trkpt>
      <trkpt lat="44.19657" lon="0.70453">
        <ele>150</ele>
        <time>2022-08-07T06:46:18.057Z</time>
      </trkpt>
      <trkpt lat="44.19658" lon="0.70453">
        <ele>150</ele>
        <time>2022-08-07T06:46:19.057Z</time>
      </trkpt>
      <trkpt lat="44.19659" lon="0.70454">
        <ele>150</ele>
        <time>2022-08-07T06:46:20.057Z</time>
      </trkpt>
      <trkpt lat="44.1966" lon="0.70454">
        <ele>150</ele>
        <time>2022-08-07T06:46:21.057Z</time>
      </trkpt>
      <trkpt lat="44.19661" lon="0.70454">
        <ele>150</ele>
        <time>2022-08-07T06:46:22.057Z</time>
      </trkpt>
      <trkpt lat="44.19662" lon="0.70454">
        <ele>150</ele>
        <time>2022-08-07T06:46:23.057Z</time>
      </trkpt>
      <trkpt lat="44.19663" lon="0.70455">
        <ele>150</ele>
        <time>2022-08-07T06:46:24.057Z</time>
      </trkpt>
      <trkpt lat="44.19664" lon="0.70455">
        <ele>150</ele>
        <time>2022-08-07T06:46:25.057Z</time>
      </trkpt>
      <trkpt lat="44.19665" lon="0.70455">
        <ele>151</ele>
        <time>2022-08-07T06:46:26.057Z</time>
      </trkpt>
      <trkpt lat="44.19666" lon="0.70455">
        <ele>151</ele>
        <time>2022-08-07T06:46:27.057Z</time>
      </trkpt>
      <trkpt lat="44.19666" lon="0.70456">
        <ele>151</ele>
        <time>2022-08-07T06:46:28.057Z</time>
      </trkpt>
      <trkpt lat="44.19667" lon="0.70456">
        <ele>151</ele>
        <time>2022-08-07T06:46:29.057Z</time>
      </trkpt>
      <trkpt lat="44.19668" lon="0.70456">
        <ele>151</ele>
        <time>2022-08-07T06:46:30.057Z</time>
      </trkpt>
      <trkpt lat="44.19669" lon="0.70456">
        <ele>152</ele>
        <time>2022-08-07T06:46:31.057Z</time>
      </trkpt>
      <trkpt lat="44.1967" lon="0.70456">
        <ele>152</ele>
        <time>2022-08-07T06:46:32.057Z</time>
      </trkpt>
      <trkpt lat="44.1967" lon="0.70456">
        <ele>152</ele>
        <time>2022-08-07T06:46:33.057Z</time>
      </trkpt>
      <trkpt lat="44.19671" lon="0.70456">
        <ele>152</ele>
        <time>2022-08-07T06:46:34.057Z</time>
      </trkpt>
      <trkpt lat="44.19672" lon="0.70456">
        <ele>152</ele>
        <time>2022-08-07T06:46:35.057Z</time>
      </trkpt>
      <trkpt lat="44.19673" lon="0.70455">
        <ele>152</ele>
        <time>2022-08-07T06:46:36.057Z</time>
      </trkpt>
      <trkpt lat="44.19675" lon="0.70455">
        <ele>152</ele>
        <time>2022-08-07T06:46:37.057Z</time>
      </trkpt>
      <trkpt lat="44.19677" lon="0.70455">
        <ele>153</ele>
        <time>2022-08-07T06:46:38.057Z</time>
      </trkpt>
      <trkpt lat="44.19679" lon="0.70455">
        <ele>154</ele>
        <time>2022-08-07T06:46:39.057Z</time>
      </trkpt>
      <trkpt lat="44.19681" lon="0.70455">
        <ele>154</ele>
        <time>2022-08-07T06:46:40.057Z</time>
      </trkpt>
      <trkpt lat="44.19683" lon="0.70455">
        <ele>155</ele>
        <time>2022-08-07T06:46:41.057Z</time>
      </trkpt>
      <trkpt lat="44.19684" lon="0.70455">
        <ele>155</ele>
        <time>2022-08-07T06:46:42.057Z</time>
      </trkpt>
      <trkpt lat="44.19686" lon="0.70454">
        <ele>155</ele>
        <time>2022-08-07T06:46:43.057Z</time>
      </trkpt>
      <trkpt lat="44.19687" lon="0.70454">
        <ele>156</ele>
        <time>2022-08-07T06:46:44.057Z</time>
      </trkpt>
      <trkpt lat="44.19689" lon="0.70454">
        <ele>156</ele>
        <time>2022-08-07T06:46:45.057Z</time>
      </trkpt>
      <trkpt lat="44.1969" lon="0.70453">
        <ele>156</ele>
        <time>2022-08-07T06:46:46.057Z</time>
      </trkpt>
      <trkpt lat="44.19692" lon="0.70453">
        <ele>155</ele>
        <time>2022-08-07T06:46:47.057Z</time>
      </trkpt>
      <trkpt lat="44.19693" lon="0.70453">
        <ele>155</ele>
        <time>2022-08-07T06:46:48.057Z</time>
      </trkpt>
      <trkpt lat="44.19694" lon="0.70453">
        <ele>155</ele>
        <time>2022-08-07T06:46:49.057Z</time>
      </trkpt>
      <trkpt lat="44.19695" lon="0.70452">
        <ele>155</ele>
        <time>2022-08-07T06:46:50.057Z</time>
      </trkpt>
      <trkpt lat="44.19695" lon="0.70452">
        <ele>155</ele>
        <time>2022-08-07T06:46:51.057Z</time>
      </trkpt>
      <trkpt lat="44.19696" lon="0.70452">
        <ele>155</ele>
        <time>2022-08-07T06:46:52.057Z</time>
      </trkpt>
      <trkpt lat="44.19697" lon="0.70452">
        <ele>155</ele>
        <time>2022-08-07T06:46:53.057Z</time>
      </trkpt>
      <trkpt lat="44.19698" lon="0.70452">
        <ele>155</ele>
        <time>2022-08-07T06:46:54.057Z</time>
      </trkpt>
      <trkpt lat="44.19699" lon="0.70452">
        <ele>154</ele>
        <time>2022-08-07T06:46:55.057Z</time>
      </trkpt>
      <trkpt lat="44.197" lon="0.70452">
        <ele>154</ele>
        <time>2022-08-07T06:46:56.057Z</time>
      </trkpt>
      <trkpt lat="44.19701" lon="0.70452">
        <ele>154</ele>
        <time>2022-08-07T06:46:57.057Z</time>
      </trkpt>
      <trkpt lat="44.19702" lon="0.70452">
        <ele>153</ele>
        <time>2022-08-07T06:46:58.057Z</time>
      </trkpt>
      <trkpt lat="44.19703" lon="0.70452">
        <ele>153</ele>
        <time>2022-08-07T06:46:59.057Z</time>
      </trkpt>
      <trkpt lat="44.19704" lon="0.70452">
        <ele>153</ele>
        <time>2022-08-07T06:47:00.057Z</time>
      </trkpt>
      <trkpt lat="44.19704" lon="0.70452">
        <ele>153</ele>
        <time>2022-08-07T06:47:01.057Z</time>
      </trkpt>
      <trkpt lat="44.19705" lon="0.70452">
        <ele>152</ele>
        <time>2022-08-07T06:47:02.057Z</time>
      </trkpt>
      <trkpt lat="44.19706" lon="0.70451">
        <ele>152</ele>
        <time>2022-08-07T06:47:03.057Z</time>
      </trkpt>
      <trkpt lat="44.19706" lon="0.70451">
        <ele>152</ele>
        <time>2022-08-07T06:47:04.057Z</time>
      </trkpt>
      <trkpt lat="44.19707" lon="0.70451">
        <ele>151</ele>
        <time>2022-08-07T06:47:05.057Z</time>
      </trkpt>
      <trkpt lat="44.19708" lon="0.70451">
        <ele>152</ele>
        <time>2022-08-07T06:47:06.057Z</time>
      </trkpt>
      <trkpt lat="44.1971" lon="0.70451">
        <ele>151</ele>
        <time>2022-08-07T06:47:07.057Z</time>
      </trkpt>
      <trkpt lat="44.19711" lon="0.70451">
        <ele>152</ele>
        <time>2022-08-07T06:47:08.057Z</time>
      </trkpt>
      <trkpt lat="44.19712" lon="0.70451">
        <ele>152</ele>
        <time>2022-08-07T06:47:09.057Z</time>
      </trkpt>
      <trkpt lat="44.19713" lon="0.70451">
        <ele>152</ele>
        <time>2022-08-07T06:47:10.057Z</time>
      </trkpt>
      <trkpt lat="44.19714" lon="0.70452">
        <ele>153</ele>
        <time>2022-08-07T06:47:11.057Z</time>
      </trkpt>
      <trkpt lat="44.19716" lon="0.70453">
        <ele>153</ele>
        <time>2022-08-07T06:47:12.057Z</time>
      </trkpt>
      <trkpt lat="44.19717" lon="0.70454">
        <ele>153</ele>
        <time>2022-08-07T06:47:13.057Z</time>
      </trkpt>
      <trkpt lat="44.19719" lon="0.70455">
        <ele>152</ele>
        <time>2022-08-07T06:47:14.057Z</time>
      </trkpt>
      <trkpt lat="44.1972" lon="0.70455">
        <ele>152</ele>
        <time>2022-08-07T06:47:15.057Z</time>
      </trkpt>
      <trkpt lat="44.1972" lon="0.70456">
        <ele>152</ele>
        <time>2022-08-07T06:47:16.057Z</time>
      </trkpt>
      <trkpt lat="44.19721" lon="0.70457">
        <ele>153</ele>
        <time>2022-08-07T06:47:17.057Z</time>
      </trkpt>
      <trkpt lat="44.19722" lon="0.70458">
        <ele>153</ele>
        <time>2022-08-07T06:47:18.057Z</time>
      </trkpt>
      <trkpt lat="44.19723" lon="0.70459">
        <ele>152</ele>
        <time>2022-08-07T06:47:19.057Z</time>
      </trkpt>
      <trkpt lat="44.19724" lon="0.7046">
        <ele>152</ele>
        <time>2022-08-07T06:47:20.057Z</time>
      </trkpt>
      <trkpt lat="44.19725" lon="0.70461">
        <ele>152</ele>
        <time>2022-08-07T06:47:21.057Z</time>
      </trkpt>
      <trkpt lat="44.19725" lon="0.70462">
        <ele>151</ele>
        <time>2022-08-07T06:47:22.057Z</time>
      </trkpt>
      <trkpt lat="44.19726" lon="0.70463">
        <ele>151</ele>
        <time>2022-08-07T06:47:23.057Z</time>
      </trkpt>
      <trkpt lat="44.19726" lon="0.70464">
        <ele>151</ele>
        <time>2022-08-07T06:47:24.057Z</time>
      </trkpt>
      <trkpt lat="44.19727" lon="0.70466">
        <ele>151</ele>
        <time>2022-08-07T06:47:25.057Z</time>
      </trkpt>
      <trkpt lat="44.19727" lon="0.70467">
        <ele>151</ele>
        <time>2022-08-07T06:47:26.057Z</time>
      </trkpt>
      <trkpt lat="44.19728" lon="0.70468">
        <ele>151</ele>
        <time>2022-08-07T06:47:27.057Z</time>
      </trkpt>
      <trkpt lat="44.19728" lon="0.7047">
        <ele>151</ele>
        <time>2022-08-07T06:47:28.057Z</time>
      </trkpt>
      <trkpt lat="44.19728" lon="0.70471">
        <ele>151</ele>
        <time>2022-08-07T06:47:29.057Z</time>
      </trkpt>
      <trkpt lat="44.19729" lon="0.70472">
        <ele>151</ele>
        <time>2022-08-07T06:47:30.057Z</time>
      </trkpt>
      <trkpt lat="44.19729" lon="0.70473">
        <ele>151</ele>
        <time>2022-08-07T06:47:31.057Z</time>
      </trkpt>
      <trkpt lat="44.1973" lon="0.70474">
        <ele>151</ele>
        <time>2022-08-07T06:47:32.057Z</time>
      </trkpt>
      <trkpt lat="44.1973" lon="0.70476">
        <ele>151</ele>
        <time>2022-08-07T06:47:33.057Z</time>
      </trkpt>
      <trkpt lat="44.1973" lon="0.70478">
        <ele>153</ele>
        <time>2022-08-07T06:47:34.057Z</time>
      </trkpt>
      <trkpt lat="44.19731" lon="0.70479">
        <ele>152</ele>
        <time>2022-08-07T06:47:35.057Z</time>
      </trkpt>
      <trkpt lat="44.19731" lon="0.70481">
        <ele>152</ele>
        <time>2022-08-07T06:47:36.057Z</time>
      </trkpt>
      <trkpt lat="44.19732" lon="0.70482">
        <ele>153</ele>
        <time>2022-08-07T06:47:37.057Z</time>
      </trkpt>
      <trkpt lat="44.19733" lon="0.70483">
        <ele>154</ele>
        <time>2022-08-07T06:47:38.057Z</time>
      </trkpt>
      <trkpt lat="44.19733" lon="0.70484">
        <ele>154</ele>
        <time>2022-08-07T06:47:39.057Z</time>
      </trkpt>
      <trkpt lat="44.19734" lon="0.70486">
        <ele>154</ele>
        <time>2022-08-07T06:47:40.057Z</time>
      </trkpt>
      <trkpt lat="44.19735" lon="0.70487">
        <ele>154</ele>
        <time>2022-08-07T06:47:41.057Z</time>
      </trkpt>
      <trkpt lat="44.19735" lon="0.70488">
        <ele>154</ele>
        <time>2022-08-07T06:47:42.057Z</time>
      </trkpt>
      <trkpt lat="44.19736" lon="0.70489">
        <ele>154</ele>
        <time>2022-08-07T06:47:43.057Z</time>
      </trkpt>
      <trkpt lat="44.19736" lon="0.70491">
        <ele>154</ele>
        <time>2022-08-07T06:47:44.057Z</time>
      </trkpt>
      <trkpt lat="44.19736" lon="0.70493">
        <ele>155</ele>
        <time>2022-08-07T06:47:45.057Z</time>
      </trkpt>
      <trkpt lat="44.19737" lon="0.70494">
        <ele>155</ele>
        <time>2022-08-07T06:47:46.057Z</time>
      </trkpt>
      <trkpt lat="44.19737" lon="0.70495">
        <ele>156</ele>
        <time>2022-08-07T06:47:47.057Z</time>
      </trkpt>
      <trkpt lat="44.19738" lon="0.70497">
        <ele>156</ele>
        <time>2022-08-07T06:47:48.057Z</time>
      </trkpt>
      <trkpt lat="44.19739" lon="0.70499">
        <ele>156</ele>
        <time>2022-08-07T06:47:49.057Z</time>
      </trkpt>
      <trkpt lat="44.1974" lon="0.705">
        <ele>156</ele>
        <time>2022-08-07T06:47:50.057Z</time>
      </trkpt>
      <trkpt lat="44.1974" lon="0.70502">
        <ele>157</ele>
        <time>2022-08-07T06:47:51.057Z</time>
      </trkpt>
      <trkpt lat="44.19741" lon="0.70503">
        <ele>156</ele>
        <time>2022-08-07T06:47:52.057Z</time>
      </trkpt>
      <trkpt lat="44.19742" lon="0.70504">
        <ele>157</ele>
        <time>2022-08-07T06:47:53.057Z</time>
      </trkpt>
      <trkpt lat="44.19742" lon="0.70505">
        <ele>157</ele>
        <time>2022-08-07T06:47:54.057Z</time>
      </trkpt>
      <trkpt lat="44.19743" lon="0.70506">
        <ele>157</ele>
        <time>2022-08-07T06:47:55.057Z</time>
      </trkpt>
      <trkpt lat="44.19744" lon="0.70508">
        <ele>157</ele>
        <time>2022-08-07T06:47:56.057Z</time>
      </trkpt>
      <trkpt lat="44.19744" lon="0.70509">
        <ele>157</ele>
        <time>2022-08-07T06:47:57.057Z</time>
      </trkpt>
      <trkpt lat="44.19745" lon="0.7051">
        <ele>157</ele>
        <time>2022-08-07T06:47:58.057Z</time>
      </trkpt>
      <trkpt lat="44.19746" lon="0.70511">
        <ele>157</ele>
        <time>2022-08-07T06:47:59.057Z</time>
      </trkpt>
      <trkpt lat="44.19747" lon="0.70512">
        <ele>157</ele>
        <time>2022-08-07T06:48:00.057Z</time>
      </trkpt>
      <trkpt lat="44.19747" lon="0.70513">
        <ele>157</ele>
        <time>2022-08-07T06:48:01.057Z</time>
      </trkpt>
      <trkpt lat="44.19748" lon="0.70514">
        <ele>158</ele>
        <time>2022-08-07T06:48:02.057Z</time>
      </trkpt>
      <trkpt lat="44.19748" lon="0.70515">
        <ele>158</ele>
        <time>2022-08-07T06:48:03.057Z</time>
      </trkpt>
      <trkpt lat="44.19749" lon="0.70517">
        <ele>158</ele>
        <time>2022-08-07T06:48:04.057Z</time>
      </trkpt>
      <trkpt lat="44.19749" lon="0.70518">
        <ele>158</ele>
        <time>2022-08-07T06:48:05.057Z</time>
      </trkpt>
      <trkpt lat="44.19749" lon="0.7052">
        <ele>158</ele>
        <time>2022-08-07T06:48:06.057Z</time>
      </trkpt>
      <trkpt lat="44.1975" lon="0.70521">
        <ele>159</ele>
        <time>2022-08-07T06:48:07.057Z</time>
      </trkpt>
      <trkpt lat="44.19751" lon="0.70522">
        <ele>159</ele>
        <time>2022-08-07T06:48:08.057Z</time>
      </trkpt>
      <trkpt lat="44.19752" lon="0.70523">
        <ele>159</ele>
        <time>2022-08-07T06:48:09.057Z</time>
      </trkpt>
      <trkpt lat="44.19752" lon="0.70524">
        <ele>159</ele>
        <time>2022-08-07T06:48:10.057Z</time>
      </trkpt>
      <trkpt lat="44.19753" lon="0.70525">
        <ele>159</ele>
        <time>2022-08-07T06:48:11.057Z</time>
      </trkpt>
      <trkpt lat="44.19754" lon="0.70527">
        <ele>159</ele>
        <time>2022-08-07T06:48:12.057Z</time>
      </trkpt>
      <trkpt lat="44.19754" lon="0.70528">
        <ele>160</ele>
        <time>2022-08-07T06:48:13.057Z</time>
      </trkpt>
      <trkpt lat="44.19755" lon="0.70529">
        <ele>160</ele>
        <time>2022-08-07T06:48:14.057Z</time>
      </trkpt>
      <trkpt lat="44.19756" lon="0.70531">
        <ele>160</ele>
        <time>2022-08-07T06:48:15.057Z</time>
      </trkpt>
      <trkpt lat="44.19756" lon="0.70532">
        <ele>160</ele>
        <time>2022-08-07T06:48:16.057Z</time>
      </trkpt>
      <trkpt lat="44.19757" lon="0.70533">
        <ele>160</ele>
        <time>2022-08-07T06:48:17.057Z</time>
      </trkpt>
      <trkpt lat="44.19758" lon="0.70535">
        <ele>160</ele>
        <time>2022-08-07T06:48:18.057Z</time>
      </trkpt>
      <trkpt lat="44.19758" lon="0.70536">
        <ele>160</ele>
        <time>2022-08-07T06:48:19.057Z</time>
      </trkpt>
      <trkpt lat="44.19759" lon="0.70537">
        <ele>160</ele>
        <time>2022-08-07T06:48:20.057Z</time>
      </trkpt>
      <trkpt lat="44.1976" lon="0.70538">
        <ele>160</ele>
        <time>2022-08-07T06:48:21.057Z</time>
      </trkpt>
      <trkpt lat="44.1976" lon="0.70539">
        <ele>160</ele>
        <time>2022-08-07T06:48:22.057Z</time>
      </trkpt>
      <trkpt lat="44.19761" lon="0.7054">
        <ele>160</ele>
        <time>2022-08-07T06:48:23.057Z</time>
      </trkpt>
      <trkpt lat="44.19761" lon="0.70542">
        <ele>160</ele>
        <time>2022-08-07T06:48:24.057Z</time>
      </trkpt>
      <trkpt lat="44.19762" lon="0.70543">
        <ele>160</ele>
        <time>2022-08-07T06:48:25.057Z</time>
      </trkpt>
      <trkpt lat="44.19762" lon="0.70544">
        <ele>160</ele>
        <time>2022-08-07T06:48:26.057Z</time>
      </trkpt>
      <trkpt lat="44.19763" lon="0.70545">
        <ele>160</ele>
        <time>2022-08-07T06:48:27.057Z</time>
      </trkpt>
      <trkpt lat="44.19763" lon="0.70546">
        <ele>160</ele>
        <time>2022-08-07T06:48:28.057Z</time>
      </trkpt>
      <trkpt lat="44.19764" lon="0.70547">
        <ele>160</ele>
        <time>2022-08-07T06:48:29.057Z</time>
      </trkpt>
      <trkpt lat="44.19765" lon="0.70549">
        <ele>160</ele>
        <time>2022-08-07T06:48:30.057Z</time>
      </trkpt>
      <trkpt lat="44.19765" lon="0.7055">
        <ele>161</ele>
        <time>2022-08-07T06:48:31.057Z</time>
      </trkpt>
      <trkpt lat="44.19766" lon="0.70551">
        <ele>160</ele>
        <time>2022-08-07T06:48:32.057Z</time>
      </trkpt>
      <trkpt lat="44.19767" lon="0.70552">
        <ele>160</ele>
        <time>2022-08-07T06:48:33.057Z</time>
      </trkpt>
      <trkpt lat="44.19767" lon="0.70553">
        <ele>161</ele>
        <time>2022-08-07T06:48:34.057Z</time>
      </trkpt>
      <trkpt lat="44.19768" lon="0.70554">
        <ele>161</ele>
        <time>2022-08-07T06:48:35.057Z</time>
      </trkpt>
      <trkpt lat="44.19768" lon="0.70555">
        <ele>161</ele>
        <time>2022-08-07T06:48:36.057Z</time>
      </trkpt>
      <trkpt lat="44.19769" lon="0.70556">
        <ele>161</ele>
        <time>2022-08-07T06:48:37.057Z</time>
      </trkpt>
      <trkpt lat="44.19769" lon="0.70558">
        <ele>161</ele>
        <time>2022-08-07T06:48:38.057Z</time>
      </trkpt>
      <trkpt lat="44.1977" lon="0.70559">
        <ele>161</ele>
        <time>2022-08-07T06:48:39.057Z</time>
      </trkpt>
      <trkpt lat="44.1977" lon="0.7056">
        <ele>161</ele>
        <time>2022-08-07T06:48:40.057Z</time>
      </trkpt>
      <trkpt lat="44.19771" lon="0.70561">
        <ele>161</ele>
        <time>2022-08-07T06:48:41.057Z</time>
      </trkpt>
      <trkpt lat="44.19771" lon="0.70562">
        <ele>161</ele>
        <time>2022-08-07T06:48:42.057Z</time>
      </trkpt>
      <trkpt lat="44.19772" lon="0.70563">
        <ele>161</ele>
        <time>2022-08-07T06:48:43.057Z</time>
      </trkpt>
      <trkpt lat="44.19773" lon="0.70565">
        <ele>161</ele>
        <time>2022-08-07T06:48:44.057Z</time>
      </trkpt>
      <trkpt lat="44.19773" lon="0.70566">
        <ele>161</ele>
        <time>2022-08-07T06:48:45.057Z</time>
      </trkpt>
      <trkpt lat="44.19774" lon="0.70567">
        <ele>161</ele>
        <time>2022-08-07T06:48:46.057Z</time>
      </trkpt>
      <trkpt lat="44.19775" lon="0.70568">
        <ele>161</ele>
        <time>2022-08-07T06:48:47.057Z</time>
      </trkpt>
      <trkpt lat="44.19775" lon="0.70569">
        <ele>161</ele>
        <time>2022-08-07T06:48:48.057Z</time>
      </trkpt>
      <trkpt lat="44.19776" lon="0.7057">
        <ele>161</ele>
        <time>2022-08-07T06:48:49.057Z</time>
      </trkpt>
      <trkpt lat="44.19776" lon="0.70571">
        <ele>161</ele>
        <time>2022-08-07T06:48:50.057Z</time>
      </trkpt>
      <trkpt lat="44.19776" lon="0.70572">
        <ele>161</ele>
        <time>2022-08-07T06:48:51.057Z</time>
      </trkpt>
      <trkpt lat="44.19777" lon="0.70573">
        <ele>161</ele>
        <time>2022-08-07T06:48:52.057Z</time>
      </trkpt>
      <trkpt lat="44.19777" lon="0.70574">
        <ele>161</ele>
        <time>2022-08-07T06:48:53.057Z</time>
      </trkpt>
      <trkpt lat="44.19778" lon="0.70575">
        <ele>161</ele>
        <time>2022-08-07T06:48:54.057Z</time>
      </trkpt>
      <trkpt lat="44.19779" lon="0.70577">
        <ele>161</ele>
        <time>2022-08-07T06:48:55.057Z</time>
      </trkpt>
      <trkpt lat="44.19779" lon="0.70578">
        <ele>161</ele>
        <time>2022-08-07T06:48:56.057Z</time>
      </trkpt>
      <trkpt lat="44.1978" lon="0.70579">
        <ele>161</ele>
        <time>2022-08-07T06:48:57.057Z</time>
      </trkpt>
      <trkpt lat="44.19781" lon="0.70581">
        <ele>161</ele>
        <time>2022-08-07T06:48:58.057Z</time>
      </trkpt>
      <trkpt lat="44.19782" lon="0.70582">
        <ele>161</ele>
        <time>2022-08-07T06:48:59.057Z</time>
      </trkpt>
      <trkpt lat="44.19782" lon="0.70584">
        <ele>161</ele>
        <time>2022-08-07T06:49:00.057Z</time>
      </trkpt>
      <trkpt lat="44.19783" lon="0.70585">
        <ele>161</ele>
        <time>2022-08-07T06:49:01.057Z</time>
      </trkpt>
      <trkpt lat="44.19783" lon="0.70586">
        <ele>161</ele>
        <time>2022-08-07T06:49:02.057Z</time>
      </trkpt>
      <trkpt lat="44.19784" lon="0.70587">
        <ele>161</ele>
        <time>2022-08-07T06:49:03.057Z</time>
      </trkpt>
      <trkpt lat="44.19785" lon="0.70588">
        <ele>161</ele>
        <time>2022-08-07T06:49:04.057Z</time>
      </trkpt>
      <trkpt lat="44.19785" lon="0.7059">
        <ele>161</ele>
        <time>2022-08-07T06:49:05.057Z</time>
      </trkpt>
      <trkpt lat="44.19786" lon="0.70591">
        <ele>161</ele>
        <time>2022-08-07T06:49:06.057Z</time>
      </trkpt>
      <trkpt lat="44.19786" lon="0.70593">
        <ele>161</ele>
        <time>2022-08-07T06:49:07.057Z</time>
      </trkpt>
      <trkpt lat="44.19787" lon="0.70594">
        <ele>161</ele>
        <time>2022-08-07T06:49:08.057Z</time>
      </trkpt>
      <trkpt lat="44.19787" lon="0.70595">
        <ele>160</ele>
        <time>2022-08-07T06:49:09.057Z</time>
      </trkpt>
      <trkpt lat="44.19788" lon="0.70596">
        <ele>160</ele>
        <time>2022-08-07T06:49:10.057Z</time>
      </trkpt>
      <trkpt lat="44.19789" lon="0.70598">
        <ele>160</ele>
        <time>2022-08-07T06:49:11.057Z</time>
      </trkpt>
      <trkpt lat="44.19789" lon="0.70599">
        <ele>160</ele>
        <time>2022-08-07T06:49:12.057Z</time>
      </trkpt>
      <trkpt lat="44.1979" lon="0.706">
        <ele>160</ele>
        <time>2022-08-07T06:49:13.057Z</time>
      </trkpt>
      <trkpt lat="44.1979" lon="0.70602">
        <ele>160</ele>
        <time>2022-08-07T06:49:14.057Z</time>
      </trkpt>
      <trkpt lat="44.19791" lon="0.70603">
        <ele>160</ele>
        <time>2022-08-07T06:49:15.057Z</time>
      </trkpt>
      <trkpt lat="44.19791" lon="0.70605">
        <ele>160</ele>
        <time>2022-08-07T06:49:16.057Z</time>
      </trkpt>
      <trkpt lat="44.19791" lon="0.70606">
        <ele>160</ele>
        <time>2022-08-07T06:49:17.057Z</time>
      </trkpt>
      <trkpt lat="44.19792" lon="0.70608">
        <ele>160</ele>
        <time>2022-08-07T06:49:18.057Z</time>
      </trkpt>
      <trkpt lat="44.19792" lon="0.70609">
        <ele>160</ele>
        <time>2022-08-07T06:49:19.057Z</time>
      </trkpt>
      <trkpt lat="44.19792" lon="0.70611">
        <ele>160</ele>
        <time>2022-08-07T06:49:20.057Z</time>
      </trkpt>
      <trkpt lat="44.19793" lon="0.70612">
        <ele>160</ele>
        <time>2022-08-07T06:49:21.057Z</time>
      </trkpt>
      <trkpt lat="44.19793" lon="0.70614">
        <ele>160</ele>
        <time>2022-08-07T06:49:22.057Z</time>
      </trkpt>
      <trkpt lat="44.19793" lon="0.70615">
        <ele>160</ele>
        <time>2022-08-07T06:49:23.057Z</time>
      </trkpt>
      <trkpt lat="44.19794" lon="0.70616">
        <ele>160</ele>
        <time>2022-08-07T06:49:24.057Z</time>
      </trkpt>
      <trkpt lat="44.19794" lon="0.70618">
        <ele>160</ele>
        <time>2022-08-07T06:49:25.057Z</time>
      </trkpt>
      <trkpt lat="44.19794" lon="0.70619">
        <ele>159</ele>
        <time>2022-08-07T06:49:26.057Z</time>
      </trkpt>
      <trkpt lat="44.19794" lon="0.7062">
        <ele>159</ele>
        <time>2022-08-07T06:49:27.057Z</time>
      </trkpt>
      <trkpt lat="44.19794" lon="0.70622">
        <ele>159</ele>
        <time>2022-08-07T06:49:28.057Z</time>
      </trkpt>
      <trkpt lat="44.19795" lon="0.70623">
        <ele>159</ele>
        <time>2022-08-07T06:49:29.057Z</time>
      </trkpt>
      <trkpt lat="44.19795" lon="0.70625">
        <ele>159</ele>
        <time>2022-08-07T06:49:30.057Z</time>
      </trkpt>
      <trkpt lat="44.19795" lon="0.70626">
        <ele>159</ele>
        <time>2022-08-07T06:49:31.057Z</time>
      </trkpt>
      <trkpt lat="44.19795" lon="0.70628">
        <ele>159</ele>
        <time>2022-08-07T06:49:32.057Z</time>
      </trkpt>
      <trkpt lat="44.19796" lon="0.70629">
        <ele>159</ele>
        <time>2022-08-07T06:49:33.057Z</time>
      </trkpt>
      <trkpt lat="44.19796" lon="0.7063">
        <ele>158</ele>
        <time>2022-08-07T06:49:34.057Z</time>
      </trkpt>
      <trkpt lat="44.19796" lon="0.70631">
        <ele>158</ele>
        <time>2022-08-07T06:49:35.057Z</time>
      </trkpt>
      <trkpt lat="44.19797" lon="0.70632">
        <ele>158</ele>
        <time>2022-08-07T06:49:36.057Z</time>
      </trkpt>
      <trkpt lat="44.19797" lon="0.70633">
        <ele>158</ele>
        <time>2022-08-07T06:49:37.057Z</time>
      </trkpt>
      <trkpt lat="44.19797" lon="0.70634">
        <ele>158</ele>
        <time>2022-08-07T06:49:38.057Z</time>
      </trkpt>
      <trkpt lat="44.19798" lon="0.70635">
        <ele>158</ele>
        <time>2022-08-07T06:49:39.057Z</time>
      </trkpt>
      <trkpt lat="44.19799" lon="0.70636">
        <ele>158</ele>
        <time>2022-08-07T06:49:40.057Z</time>
      </trkpt>
      <trkpt lat="44.19799" lon="0.70637">
        <ele>158</ele>
        <time>2022-08-07T06:49:41.057Z</time>
      </trkpt>
      <trkpt lat="44.198" lon="0.70637">
        <ele>158</ele>
        <time>2022-08-07T06:49:42.057Z</time>
      </trkpt>
      <trkpt lat="44.19801" lon="0.70638">
        <ele>157</ele>
        <time>2022-08-07T06:49:43.057Z</time>
      </trkpt>
      <trkpt lat="44.19801" lon="0.70638">
        <ele>157</ele>
        <time>2022-08-07T06:49:44.057Z</time>
      </trkpt>
      <trkpt lat="44.19802" lon="0.70638">
        <ele>157</ele>
        <time>2022-08-07T06:49:45.057Z</time>
      </trkpt>
      <trkpt lat="44.19803" lon="0.70638">
        <ele>158</ele>
        <time>2022-08-07T06:49:46.057Z</time>
      </trkpt>
      <trkpt lat="44.19803" lon="0.70638">
        <ele>158</ele>
        <time>2022-08-07T06:49:47.057Z</time>
      </trkpt>
      <trkpt lat="44.19803" lon="0.70638">
        <ele>159</ele>
        <time>2022-08-07T06:49:48.057Z</time>
      </trkpt>
      <trkpt lat="44.19803" lon="0.70639">
        <ele>159</ele>
        <time>2022-08-07T06:49:49.057Z</time>
      </trkpt>
      <trkpt lat="44.19803" lon="0.70639">
        <ele>159</ele>
        <time>2022-08-07T06:49:50.057Z</time>
      </trkpt>
      <trkpt lat="44.19804" lon="0.70639">
        <ele>159</ele>
        <time>2022-08-07T06:49:51.057Z</time>
      </trkpt>
      <trkpt lat="44.19804" lon="0.70639">
        <ele>160</ele>
        <time>2022-08-07T06:49:52.057Z</time>
      </trkpt>
      <trkpt lat="44.19804" lon="0.70639">
        <ele>160</ele>
        <time>2022-08-07T06:49:53.057Z</time>
      </trkpt>
      <trkpt lat="44.19804" lon="0.70639">
        <ele>159</ele>
        <time>2022-08-07T06:49:54.057Z</time>
      </trkpt>
      <trkpt lat="44.19805" lon="0.70639">
        <ele>159</ele>
        <time>2022-08-07T06:49:55.057Z</time>
      </trkpt>
      <trkpt lat="44.19805" lon="0.70639">
        <ele>160</ele>
        <time>2022-08-07T06:49:56.057Z</time>
      </trkpt>
      <trkpt lat="44.19805" lon="0.70639">
        <ele>160</ele>
        <time>2022-08-07T06:49:57.057Z</time>
      </trkpt>
      <trkpt lat="44.19805" lon="0.70639">
        <ele>160</ele>
        <time>2022-08-07T06:52:20.065Z</time>
      </trkpt>
      <trkpt lat="44.19805" lon="0.70639">
        <ele>160</ele>
        <time>2022-08-07T06:52:21.065Z</time>
      </trkpt>
      <trkpt lat="44.19806" lon="0.70638">
        <ele>161</ele>
        <time>2022-08-07T06:52:22.065Z</time>
      </trkpt>
      <trkpt lat="44.19807" lon="0.70638">
        <ele>161</ele>
        <time>2022-08-07T06:52:23.065Z</time>
      </trkpt>
      <trkpt lat="44.19808" lon="0.70638">
        <ele>160</ele>
        <time>2022-08-07T06:52:24.065Z</time>
      </trkpt>
      <trkpt lat="44.19809" lon="0.70637">
        <ele>161</ele>
        <time>2022-08-07T06:52:25.065Z</time>
      </trkpt>
      <trkpt lat="44.1981" lon="0.70637">
        <ele>161</ele>
        <time>2022-08-07T06:52:26.065Z</time>
      </trkpt>
      <trkpt lat="44.19811" lon="0.70636">
        <ele>161</ele>
        <time>2022-08-07T06:52:27.065Z</time>
      </trkpt>
      <trkpt lat="44.19812" lon="0.70636">
        <ele>160</ele>
        <time>2022-08-07T06:52:28.065Z</time>
      </trkpt>
      <trkpt lat="44.19813" lon="0.70635">
        <ele>160</ele>
        <time>2022-08-07T06:52:29.065Z</time>
      </trkpt>
      <trkpt lat="44.19815" lon="0.70635">
        <ele>160</ele>
        <time>2022-08-07T06:52:30.065Z</time>
      </trkpt>
      <trkpt lat="44.19816" lon="0.70634">
        <ele>160</ele>
        <time>2022-08-07T06:52:31.065Z</time>
      </trkpt>
      <trkpt lat="44.19817" lon="0.70634">
        <ele>160</ele>
        <time>2022-08-07T06:52:32.065Z</time>
      </trkpt>
      <trkpt lat="44.19818" lon="0.70634">
        <ele>160</ele>
        <time>2022-08-07T06:52:33.065Z</time>
      </trkpt>
      <trkpt lat="44.19819" lon="0.70633">
        <ele>160</ele>
        <time>2022-08-07T06:52:34.065Z</time>
      </trkpt>
      <trkpt lat="44.1982" lon="0.70633">
        <ele>160</ele>
        <time>2022-08-07T06:52:35.065Z</time>
      </trkpt>
      <trkpt lat="44.19821" lon="0.70633">
        <ele>160</ele>
        <time>2022-08-07T06:52:36.065Z</time>
      </trkpt>
      <trkpt lat="44.19822" lon="0.70632">
        <ele>160</ele>
        <time>2022-08-07T06:52:37.065Z</time>
      </trkpt>
      <trkpt lat="44.19823" lon="0.70632">
        <ele>160</ele>
        <time>2022-08-07T06:52:38.065Z</time>
      </trkpt>
      <trkpt lat="44.19825" lon="0.70632">
        <ele>160</ele>
        <time>2022-08-07T06:52:39.065Z</time>
      </trkpt>
      <trkpt lat="44.19826" lon="0.70631">
        <ele>160</ele>
        <time>2022-08-07T06:52:40.065Z</time>
      </trkpt>
      <trkpt lat="44.19827" lon="0.70631">
        <ele>160</ele>
        <time>2022-08-07T06:52:41.065Z</time>
      </trkpt>
      <trkpt lat="44.19828" lon="0.70631">
        <ele>159</ele>
        <time>2022-08-07T06:52:42.065Z</time>
      </trkpt>
      <trkpt lat="44.19829" lon="0.70631">
        <ele>159</ele>
        <time>2022-08-07T06:52:43.065Z</time>
      </trkpt>
      <trkpt lat="44.1983" lon="0.70631">
        <ele>159</ele>
        <time>2022-08-07T06:52:44.065Z</time>
      </trkpt>
      <trkpt lat="44.19831" lon="0.70631">
        <ele>159</ele>
        <time>2022-08-07T06:52:45.065Z</time>
      </trkpt>
      <trkpt lat="44.19832" lon="0.70631">
        <ele>159</ele>
        <time>2022-08-07T06:52:46.065Z</time>
      </trkpt>
      <trkpt lat="44.19834" lon="0.70631">
        <ele>159</ele>
        <time>2022-08-07T06:52:47.065Z</time>
      </trkpt>
      <trkpt lat="44.19835" lon="0.70631">
        <ele>159</ele>
        <time>2022-08-07T06:52:48.065Z</time>
      </trkpt>
      <trkpt lat="44.19836" lon="0.70631">
        <ele>159</ele>
        <time>2022-08-07T06:52:49.065Z</time>
      </trkpt>
      <trkpt lat="44.19837" lon="0.70631">
        <ele>159</ele>
        <time>2022-08-07T06:52:50.065Z</time>
      </trkpt>
      <trkpt lat="44.19838" lon="0.70631">
        <ele>159</ele>
        <time>2022-08-07T06:52:51.065Z</time>
      </trkpt>
      <trkpt lat="44.19839" lon="0.70631">
        <ele>159</ele>
        <time>2022-08-07T06:52:52.065Z</time>
      </trkpt>
      <trkpt lat="44.19841" lon="0.70631">
        <ele>159</ele>
        <time>2022-08-07T06:52:53.065Z</time>
      </trkpt>
      <trkpt lat="44.19842" lon="0.70631">
        <ele>159</ele>
        <time>2022-08-07T06:52:54.065Z</time>
      </trkpt>
      <trkpt lat="44.19843" lon="0.70632">
        <ele>159</ele>
        <time>2022-08-07T06:52:55.065Z</time>
      </trkpt>
      <trkpt lat="44.19844" lon="0.70632">
        <ele>159</ele>
        <time>2022-08-07T06:52:56.065Z</time>
      </trkpt>
      <trkpt lat="44.19846" lon="0.70632">
        <ele>159</ele>
        <time>2022-08-07T06:52:57.065Z</time>
      </trkpt>
      <trkpt lat="44.19847" lon="0.70633">
        <ele>159</ele>
        <time>2022-08-07T06:52:58.065Z</time>
      </trkpt>
      <trkpt lat="44.19848" lon="0.70633">
        <ele>160</ele>
        <time>2022-08-07T06:52:59.065Z</time>
      </trkpt>
      <trkpt lat="44.19849" lon="0.70633">
        <ele>159</ele>
        <time>2022-08-07T06:53:00.065Z</time>
      </trkpt>
      <trkpt lat="44.1985" lon="0.70633">
        <ele>160</ele>
        <time>2022-08-07T06:53:01.065Z</time>
      </trkpt>
      <trkpt lat="44.19851" lon="0.70634">
        <ele>159</ele>
        <time>2022-08-07T06:53:02.065Z</time>
      </trkpt>
      <trkpt lat="44.19852" lon="0.70634">
        <ele>159</ele>
        <time>2022-08-07T06:53:03.065Z</time>
      </trkpt>
      <trkpt lat="44.19853" lon="0.70635">
        <ele>159</ele>
        <time>2022-08-07T06:53:04.065Z</time>
      </trkpt>
      <trkpt lat="44.19854" lon="0.70635">
        <ele>159</ele>
        <time>2022-08-07T06:53:05.065Z</time>
      </trkpt>
      <trkpt lat="44.19855" lon="0.70635">
        <ele>159</ele>
        <time>2022-08-07T06:53:06.065Z</time>
      </trkpt>
      <trkpt lat="44.19857" lon="0.70635">
        <ele>159</ele>
        <time>2022-08-07T06:53:07.065Z</time>
      </trkpt>
      <trkpt lat="44.19858" lon="0.70636">
        <ele>158</ele>
        <time>2022-08-07T06:53:08.065Z</time>
      </trkpt>
      <trkpt lat="44.19859" lon="0.70636">
        <ele>158</ele>
        <time>2022-08-07T06:53:09.065Z</time>
      </trkpt>
      <trkpt lat="44.1986" lon="0.70636">
        <ele>158</ele>
        <time>2022-08-07T06:53:10.065Z</time>
      </trkpt>
      <trkpt lat="44.19861" lon="0.70637">
        <ele>158</ele>
        <time>2022-08-07T06:53:11.065Z</time>
      </trkpt>
      <trkpt lat="44.19862" lon="0.70637">
        <ele>158</ele>
        <time>2022-08-07T06:53:12.065Z</time>
      </trkpt>
      <trkpt lat="44.19863" lon="0.70637">
        <ele>158</ele>
        <time>2022-08-07T06:53:13.065Z</time>
      </trkpt>
      <trkpt lat="44.19864" lon="0.70638">
        <ele>158</ele>
        <time>2022-08-07T06:53:14.065Z</time>
      </trkpt>
      <trkpt lat="44.19865" lon="0.70638">
        <ele>158</ele>
        <time>2022-08-07T06:53:15.065Z</time>
      </trkpt>
      <trkpt lat="44.19867" lon="0.70638">
        <ele>158</ele>
        <time>2022-08-07T06:53:16.065Z</time>
      </trkpt>
      <trkpt lat="44.19868" lon="0.70638">
        <ele>158</ele>
        <time>2022-08-07T06:53:17.065Z</time>
      </trkpt>
      <trkpt lat="44.19869" lon="0.70639">
        <ele>158</ele>
        <time>2022-08-07T06:53:18.065Z</time>
      </trkpt>
      <trkpt lat="44.1987" lon="0.70639">
        <ele>158</ele>
        <time>2022-08-07T06:53:19.065Z</time>
      </trkpt>
      <trkpt lat="44.19871" lon="0.7064">
        <ele>158</ele>
        <time>2022-08-07T06:53:20.065Z</time>
      </trkpt>
      <trkpt lat="44.19872" lon="0.7064">
        <ele>158</ele>
        <time>2022-08-07T06:53:21.065Z</time>
      </trkpt>
      <trkpt lat="44.19873" lon="0.7064">
        <ele>157</ele>
        <time>2022-08-07T06:53:22.065Z</time>
      </trkpt>
      <trkpt lat="44.19875" lon="0.70641">
        <ele>157</ele>
        <time>2022-08-07T06:53:23.065Z</time>
      </trkpt>
      <trkpt lat="44.19876" lon="0.70641">
        <ele>157</ele>
        <time>2022-08-07T06:53:24.065Z</time>
      </trkpt>
      <trkpt lat="44.19877" lon="0.70642">
        <ele>157</ele>
        <time>2022-08-07T06:53:25.065Z</time>
      </trkpt>
      <trkpt lat="44.19878" lon="0.70642">
        <ele>157</ele>
        <time>2022-08-07T06:53:26.065Z</time>
      </trkpt>
      <trkpt lat="44.1988" lon="0.70642">
        <ele>158</ele>
        <time>2022-08-07T06:53:27.065Z</time>
      </trkpt>
      <trkpt lat="44.19881" lon="0.70642">
        <ele>158</ele>
        <time>2022-08-07T06:53:28.065Z</time>
      </trkpt>
      <trkpt lat="44.19882" lon="0.70643">
        <ele>158</ele>
        <time>2022-08-07T06:53:29.065Z</time>
      </trkpt>
      <trkpt lat="44.19883" lon="0.70643">
        <ele>159</ele>
        <time>2022-08-07T06:53:30.065Z</time>
      </trkpt>
      <trkpt lat="44.19884" lon="0.70643">
        <ele>159</ele>
        <time>2022-08-07T06:53:31.065Z</time>
      </trkpt>
      <trkpt lat="44.19885" lon="0.70643">
        <ele>159</ele>
        <time>2022-08-07T06:53:32.065Z</time>
      </trkpt>
      <trkpt lat="44.19886" lon="0.70644">
        <ele>159</ele>
        <time>2022-08-07T06:53:33.065Z</time>
      </trkpt>
      <trkpt lat="44.19887" lon="0.70644">
        <ele>159</ele>
        <time>2022-08-07T06:53:34.065Z</time>
      </trkpt>
      <trkpt lat="44.19889" lon="0.70644">
        <ele>159</ele>
        <time>2022-08-07T06:53:35.065Z</time>
      </trkpt>
      <trkpt lat="44.1989" lon="0.70645">
        <ele>159</ele>
        <time>2022-08-07T06:53:36.065Z</time>
      </trkpt>
      <trkpt lat="44.19891" lon="0.70645">
        <ele>159</ele>
        <time>2022-08-07T06:53:37.065Z</time>
      </trkpt>
      <trkpt lat="44.19892" lon="0.70645">
        <ele>159</ele>
        <time>2022-08-07T06:53:38.065Z</time>
      </trkpt>
      <trkpt lat="44.19893" lon="0.70646">
        <ele>159</ele>
        <time>2022-08-07T06:53:39.065Z</time>
      </trkpt>
      <trkpt lat="44.19894" lon="0.70646">
        <ele>159</ele>
        <time>2022-08-07T06:53:40.065Z</time>
      </trkpt>
      <trkpt lat="44.19895" lon="0.70647">
        <ele>159</ele>
        <time>2022-08-07T06:53:41.065Z</time>
      </trkpt>
      <trkpt lat="44.19896" lon="0.70647">
        <ele>159</ele>
        <time>2022-08-07T06:53:42.065Z</time>
      </trkpt>
      <trkpt lat="44.19897" lon="0.70648">
        <ele>159</ele>
        <time>2022-08-07T06:53:43.065Z</time>
      </trkpt>
      <trkpt lat="44.19898" lon="0.70648">
        <ele>159</ele>
        <time>2022-08-07T06:53:44.065Z</time>
      </trkpt>
      <trkpt lat="44.19899" lon="0.70648">
        <ele>159</ele>
        <time>2022-08-07T06:53:45.065Z</time>
      </trkpt>
      <trkpt lat="44.19901" lon="0.70649">
        <ele>159</ele>
        <time>2022-08-07T06:53:46.065Z</time>
      </trkpt>
      <trkpt lat="44.19902" lon="0.70649">
        <ele>158</ele>
        <time>2022-08-07T06:53:47.065Z</time>
      </trkpt>
      <trkpt lat="44.19903" lon="0.70649">
        <ele>158</ele>
        <time>2022-08-07T06:53:48.065Z</time>
      </trkpt>
      <trkpt lat="44.19904" lon="0.7065">
        <ele>158</ele>
        <time>2022-08-07T06:53:49.065Z</time>
      </trkpt>
      <trkpt lat="44.19906" lon="0.7065">
        <ele>158</ele>
        <time>2022-08-07T06:53:50.065Z</time>
      </trkpt>
      <trkpt lat="44.19906" lon="0.70651">
        <ele>158</ele>
        <time>2022-08-07T06:53:51.065Z</time>
      </trkpt>
      <trkpt lat="44.19907" lon="0.70651">
        <ele>158</ele>
        <time>2022-08-07T06:53:52.065Z</time>
      </trkpt>
      <trkpt lat="44.19908" lon="0.70651">
        <ele>158</ele>
        <time>2022-08-07T06:53:53.065Z</time>
      </trkpt>
      <trkpt lat="44.19909" lon="0.70652">
        <ele>157</ele>
        <time>2022-08-07T06:53:54.065Z</time>
      </trkpt>
      <trkpt lat="44.19911" lon="0.70652">
        <ele>158</ele>
        <time>2022-08-07T06:53:55.065Z</time>
      </trkpt>
      <trkpt lat="44.19912" lon="0.70653">
        <ele>158</ele>
        <time>2022-08-07T06:53:56.065Z</time>
      </trkpt>
      <trkpt lat="44.19913" lon="0.70653">
        <ele>157</ele>
        <time>2022-08-07T06:53:57.065Z</time>
      </trkpt>
      <trkpt lat="44.19914" lon="0.70654">
        <ele>157</ele>
        <time>2022-08-07T06:53:58.065Z</time>
      </trkpt>
      <trkpt lat="44.19915" lon="0.70654">
        <ele>158</ele>
        <time>2022-08-07T06:53:59.065Z</time>
      </trkpt>
      <trkpt lat="44.19916" lon="0.70655">
        <ele>158</ele>
        <time>2022-08-07T06:54:00.065Z</time>
      </trkpt>
      <trkpt lat="44.19917" lon="0.70655">
        <ele>157</ele>
        <time>2022-08-07T06:54:01.065Z</time>
      </trkpt>
      <trkpt lat="44.19918" lon="0.70656">
        <ele>158</ele>
        <time>2022-08-07T06:54:02.065Z</time>
      </trkpt>
      <trkpt lat="44.1992" lon="0.70657">
        <ele>158</ele>
        <time>2022-08-07T06:54:03.065Z</time>
      </trkpt>
      <trkpt lat="44.19921" lon="0.70657">
        <ele>158</ele>
        <time>2022-08-07T06:54:04.065Z</time>
      </trkpt>
      <trkpt lat="44.19922" lon="0.70658">
        <ele>158</ele>
        <time>2022-08-07T06:54:05.065Z</time>
      </trkpt>
      <trkpt lat="44.19923" lon="0.70658">
        <ele>158</ele>
        <time>2022-08-07T06:54:06.065Z</time>
      </trkpt>
      <trkpt lat="44.19924" lon="0.70658">
        <ele>158</ele>
        <time>2022-08-07T06:54:07.065Z</time>
      </trkpt>
      <trkpt lat="44.19925" lon="0.70659">
        <ele>158</ele>
        <time>2022-08-07T06:54:08.065Z</time>
      </trkpt>
      <trkpt lat="44.19926" lon="0.70659">
        <ele>158</ele>
        <time>2022-08-07T06:54:09.065Z</time>
      </trkpt>
      <trkpt lat="44.19927" lon="0.7066">
        <ele>157</ele>
        <time>2022-08-07T06:54:10.065Z</time>
      </trkpt>
      <trkpt lat="44.19928" lon="0.7066">
        <ele>157</ele>
        <time>2022-08-07T06:54:11.065Z</time>
      </trkpt>
      <trkpt lat="44.19929" lon="0.70661">
        <ele>157</ele>
        <time>2022-08-07T06:54:12.065Z</time>
      </trkpt>
      <trkpt lat="44.1993" lon="0.70661">
        <ele>157</ele>
        <time>2022-08-07T06:54:13.065Z</time>
      </trkpt>
      <trkpt lat="44.19931" lon="0.70661">
        <ele>157</ele>
        <time>2022-08-07T06:54:14.065Z</time>
      </trkpt>
      <trkpt lat="44.19933" lon="0.70662">
        <ele>157</ele>
        <time>2022-08-07T06:54:15.065Z</time>
      </trkpt>
      <trkpt lat="44.19934" lon="0.70662">
        <ele>157</ele>
        <time>2022-08-07T06:54:16.065Z</time>
      </trkpt>
      <trkpt lat="44.19935" lon="0.70663">
        <ele>157</ele>
        <time>2022-08-07T06:54:17.065Z</time>
      </trkpt>
      <trkpt lat="44.19936" lon="0.70663">
        <ele>157</ele>
        <time>2022-08-07T06:54:18.065Z</time>
      </trkpt>
      <trkpt lat="44.19937" lon="0.70664">
        <ele>157</ele>
        <time>2022-08-07T06:54:19.065Z</time>
      </trkpt>
      <trkpt lat="44.19938" lon="0.70664">
        <ele>157</ele>
        <time>2022-08-07T06:54:20.065Z</time>
      </trkpt>
      <trkpt lat="44.1994" lon="0.70665">
        <ele>157</ele>
        <time>2022-08-07T06:54:21.065Z</time>
      </trkpt>
      <trkpt lat="44.19941" lon="0.70665">
        <ele>158</ele>
        <time>2022-08-07T06:54:22.065Z</time>
      </trkpt>
      <trkpt lat="44.19942" lon="0.70666">
        <ele>158</ele>
        <time>2022-08-07T06:54:23.065Z</time>
      </trkpt>
      <trkpt lat="44.19943" lon="0.70666">
        <ele>158</ele>
        <time>2022-08-07T06:54:24.065Z</time>
      </trkpt>
      <trkpt lat="44.19945" lon="0.70667">
        <ele>158</ele>
        <time>2022-08-07T06:54:25.065Z</time>
      </trkpt>
      <trkpt lat="44.19946" lon="0.70668">
        <ele>159</ele>
        <time>2022-08-07T06:54:26.065Z</time>
      </trkpt>
      <trkpt lat="44.19947" lon="0.70668">
        <ele>158</ele>
        <time>2022-08-07T06:54:27.065Z</time>
      </trkpt>
      <trkpt lat="44.19948" lon="0.70669">
        <ele>158</ele>
        <time>2022-08-07T06:54:28.065Z</time>
      </trkpt>
      <trkpt lat="44.19949" lon="0.70669">
        <ele>158</ele>
        <time>2022-08-07T06:54:29.065Z</time>
      </trkpt>
      <trkpt lat="44.1995" lon="0.7067">
        <ele>158</ele>
        <time>2022-08-07T06:54:30.065Z</time>
      </trkpt>
      <trkpt lat="44.19951" lon="0.7067">
        <ele>158</ele>
        <time>2022-08-07T06:54:31.065Z</time>
      </trkpt>
      <trkpt lat="44.19952" lon="0.70671">
        <ele>158</ele>
        <time>2022-08-07T06:54:32.065Z</time>
      </trkpt>
      <trkpt lat="44.19953" lon="0.70672">
        <ele>158</ele>
        <time>2022-08-07T06:54:33.065Z</time>
      </trkpt>
      <trkpt lat="44.19954" lon="0.70672">
        <ele>158</ele>
        <time>2022-08-07T06:54:34.065Z</time>
      </trkpt>
      <trkpt lat="44.19955" lon="0.70673">
        <ele>157</ele>
        <time>2022-08-07T06:54:35.065Z</time>
      </trkpt>
      <trkpt lat="44.19956" lon="0.70674">
        <ele>157</ele>
        <time>2022-08-07T06:54:36.065Z</time>
      </trkpt>
      <trkpt lat="44.19957" lon="0.70675">
        <ele>157</ele>
        <time>2022-08-07T06:54:37.065Z</time>
      </trkpt>
      <trkpt lat="44.19958" lon="0.70675">
        <ele>157</ele>
        <time>2022-08-07T06:54:38.065Z</time>
      </trkpt>
      <trkpt lat="44.19959" lon="0.70676">
        <ele>157</ele>
        <time>2022-08-07T06:54:39.065Z</time>
      </trkpt>
      <trkpt lat="44.1996" lon="0.70677">
        <ele>157</ele>
        <time>2022-08-07T06:54:40.065Z</time>
      </trkpt>
      <trkpt lat="44.19961" lon="0.70678">
        <ele>157</ele>
        <time>2022-08-07T06:54:41.065Z</time>
      </trkpt>
      <trkpt lat="44.19962" lon="0.70678">
        <ele>157</ele>
        <time>2022-08-07T06:54:42.065Z</time>
      </trkpt>
      <trkpt lat="44.19963" lon="0.70679">
        <ele>157</ele>
        <time>2022-08-07T06:54:43.065Z</time>
      </trkpt>
      <trkpt lat="44.19964" lon="0.7068">
        <ele>157</ele>
        <time>2022-08-07T06:54:44.065Z</time>
      </trkpt>
      <trkpt lat="44.19965" lon="0.7068">
        <ele>157</ele>
        <time>2022-08-07T06:54:45.065Z</time>
      </trkpt>
      <trkpt lat="44.19966" lon="0.70681">
        <ele>157</ele>
        <time>2022-08-07T06:54:46.065Z</time>
      </trkpt>
      <trkpt lat="44.19967" lon="0.70682">
        <ele>157</ele>
        <time>2022-08-07T06:54:47.065Z</time>
      </trkpt>
      <trkpt lat="44.19968" lon="0.70683">
        <ele>157</ele>
        <time>2022-08-07T06:54:48.065Z</time>
      </trkpt>
      <trkpt lat="44.19969" lon="0.70683">
        <ele>157</ele>
        <time>2022-08-07T06:54:49.065Z</time>
      </trkpt>
      <trkpt lat="44.1997" lon="0.70684">
        <ele>157</ele>
        <time>2022-08-07T06:54:50.065Z</time>
      </trkpt>
      <trkpt lat="44.19971" lon="0.70685">
        <ele>157</ele>
        <time>2022-08-07T06:54:51.065Z</time>
      </trkpt>
      <trkpt lat="44.19972" lon="0.70686">
        <ele>157</ele>
        <time>2022-08-07T06:54:52.065Z</time>
      </trkpt>
      <trkpt lat="44.19973" lon="0.70686">
        <ele>157</ele>
        <time>2022-08-07T06:54:53.065Z</time>
      </trkpt>
      <trkpt lat="44.19974" lon="0.70687">
        <ele>157</ele>
        <time>2022-08-07T06:54:54.065Z</time>
      </trkpt>
      <trkpt lat="44.19975" lon="0.70688">
        <ele>157</ele>
        <time>2022-08-07T06:54:55.065Z</time>
      </trkpt>
      <trkpt lat="44.19977" lon="0.70688">
        <ele>157</ele>
        <time>2022-08-07T06:54:56.065Z</time>
      </trkpt>
      <trkpt lat="44.19978" lon="0.70689">
        <ele>157</ele>
        <time>2022-08-07T06:54:57.065Z</time>
      </trkpt>
      <trkpt lat="44.19979" lon="0.7069">
        <ele>157</ele>
        <time>2022-08-07T06:54:58.065Z</time>
      </trkpt>
      <trkpt lat="44.1998" lon="0.70691">
        <ele>157</ele>
        <time>2022-08-07T06:54:59.065Z</time>
      </trkpt>
      <trkpt lat="44.19981" lon="0.70691">
        <ele>157</ele>
        <time>2022-08-07T06:55:00.065Z</time>
      </trkpt>
      <trkpt lat="44.19982" lon="0.70691">
        <ele>157</ele>
        <time>2022-08-07T06:55:01.065Z</time>
      </trkpt>
      <trkpt lat="44.19983" lon="0.70692">
        <ele>157</ele>
        <time>2022-08-07T06:55:02.065Z</time>
      </trkpt>
      <trkpt lat="44.19984" lon="0.70693">
        <ele>157</ele>
        <time>2022-08-07T06:55:03.065Z</time>
      </trkpt>
      <trkpt lat="44.19985" lon="0.70694">
        <ele>157</ele>
        <time>2022-08-07T06:55:04.065Z</time>
      </trkpt>
      <trkpt lat="44.19986" lon="0.70695">
        <ele>157</ele>
        <time>2022-08-07T06:55:05.065Z</time>
      </trkpt>
      <trkpt lat="44.19987" lon="0.70696">
        <ele>156</ele>
        <time>2022-08-07T06:55:06.065Z</time>
      </trkpt>
      <trkpt lat="44.19987" lon="0.70697">
        <ele>156</ele>
        <time>2022-08-07T06:55:07.065Z</time>
      </trkpt>
      <trkpt lat="44.19988" lon="0.70698">
        <ele>156</ele>
        <time>2022-08-07T06:55:08.065Z</time>
      </trkpt>
      <trkpt lat="44.19989" lon="0.70698">
        <ele>156</ele>
        <time>2022-08-07T06:55:09.065Z</time>
      </trkpt>
      <trkpt lat="44.1999" lon="0.70699">
        <ele>156</ele>
        <time>2022-08-07T06:55:10.065Z</time>
      </trkpt>
      <trkpt lat="44.19991" lon="0.70699">
        <ele>156</ele>
        <time>2022-08-07T06:55:11.065Z</time>
      </trkpt>
      <trkpt lat="44.19992" lon="0.707">
        <ele>156</ele>
        <time>2022-08-07T06:55:12.065Z</time>
      </trkpt>
      <trkpt lat="44.19993" lon="0.70701">
        <ele>156</ele>
        <time>2022-08-07T06:55:13.065Z</time>
      </trkpt>
      <trkpt lat="44.19994" lon="0.70702">
        <ele>156</ele>
        <time>2022-08-07T06:55:14.065Z</time>
      </trkpt>
      <trkpt lat="44.19995" lon="0.70703">
        <ele>156</ele>
        <time>2022-08-07T06:55:15.065Z</time>
      </trkpt>
      <trkpt lat="44.19996" lon="0.70704">
        <ele>156</ele>
        <time>2022-08-07T06:55:16.065Z</time>
      </trkpt>
      <trkpt lat="44.19997" lon="0.70705">
        <ele>156</ele>
        <time>2022-08-07T06:55:17.065Z</time>
      </trkpt>
      <trkpt lat="44.19998" lon="0.70706">
        <ele>156</ele>
        <time>2022-08-07T06:55:18.065Z</time>
      </trkpt>
      <trkpt lat="44.19999" lon="0.70707">
        <ele>155</ele>
        <time>2022-08-07T06:55:19.065Z</time>
      </trkpt>
      <trkpt lat="44.2" lon="0.70708">
        <ele>155</ele>
        <time>2022-08-07T06:55:20.065Z</time>
      </trkpt>
      <trkpt lat="44.20001" lon="0.70709">
        <ele>155</ele>
        <time>2022-08-07T06:55:21.065Z</time>
      </trkpt>
      <trkpt lat="44.20002" lon="0.7071">
        <ele>155</ele>
        <time>2022-08-07T06:55:22.065Z</time>
      </trkpt>
      <trkpt lat="44.20003" lon="0.7071">
        <ele>156</ele>
        <time>2022-08-07T06:55:23.065Z</time>
      </trkpt>
      <trkpt lat="44.20004" lon="0.70711">
        <ele>156</ele>
        <time>2022-08-07T06:55:24.065Z</time>
      </trkpt>
      <trkpt lat="44.20005" lon="0.70712">
        <ele>156</ele>
        <time>2022-08-07T06:55:25.065Z</time>
      </trkpt>
      <trkpt lat="44.20006" lon="0.70713">
        <ele>156</ele>
        <time>2022-08-07T06:55:26.065Z</time>
      </trkpt>
      <trkpt lat="44.20007" lon="0.70713">
        <ele>156</ele>
        <time>2022-08-07T06:55:27.065Z</time>
      </trkpt>
      <trkpt lat="44.20008" lon="0.70714">
        <ele>156</ele>
        <time>2022-08-07T06:55:28.065Z</time>
      </trkpt>
      <trkpt lat="44.2001" lon="0.70716">
        <ele>157</ele>
        <time>2022-08-07T06:55:29.065Z</time>
      </trkpt>
      <trkpt lat="44.20011" lon="0.70717">
        <ele>157</ele>
        <time>2022-08-07T06:55:30.065Z</time>
      </trkpt>
      <trkpt lat="44.20012" lon="0.70718">
        <ele>157</ele>
        <time>2022-08-07T06:55:31.065Z</time>
      </trkpt>
      <trkpt lat="44.20013" lon="0.70719">
        <ele>157</ele>
        <time>2022-08-07T06:55:32.065Z</time>
      </trkpt>
      <trkpt lat="44.20014" lon="0.70719">
        <ele>157</ele>
        <time>2022-08-07T06:55:33.065Z</time>
      </trkpt>
      <trkpt lat="44.20015" lon="0.7072">
        <ele>157</ele>
        <time>2022-08-07T06:55:34.065Z</time>
      </trkpt>
      <trkpt lat="44.20016" lon="0.70721">
        <ele>157</ele>
        <time>2022-08-07T06:55:35.065Z</time>
      </trkpt>
      <trkpt lat="44.20017" lon="0.70722">
        <ele>157</ele>
        <time>2022-08-07T06:55:36.065Z</time>
      </trkpt>
      <trkpt lat="44.20018" lon="0.70723">
        <ele>157</ele>
        <time>2022-08-07T06:55:37.065Z</time>
      </trkpt>
      <trkpt lat="44.20019" lon="0.70724">
        <ele>157</ele>
        <time>2022-08-07T06:55:38.065Z</time>
      </trkpt>
      <trkpt lat="44.2002" lon="0.70725">
        <ele>157</ele>
        <time>2022-08-07T06:55:39.065Z</time>
      </trkpt>
      <trkpt lat="44.20021" lon="0.70726">
        <ele>157</ele>
        <time>2022-08-07T06:55:40.065Z</time>
      </trkpt>
      <trkpt lat="44.20021" lon="0.70727">
        <ele>157</ele>
        <time>2022-08-07T06:55:41.065Z</time>
      </trkpt>
      <trkpt lat="44.20023" lon="0.70728">
        <ele>157</ele>
        <time>2022-08-07T06:55:42.065Z</time>
      </trkpt>
      <trkpt lat="44.20024" lon="0.70729">
        <ele>157</ele>
        <time>2022-08-07T06:55:43.065Z</time>
      </trkpt>
      <trkpt lat="44.20025" lon="0.7073">
        <ele>158</ele>
        <time>2022-08-07T06:55:44.065Z</time>
      </trkpt>
      <trkpt lat="44.20026" lon="0.70731">
        <ele>158</ele>
        <time>2022-08-07T06:55:45.065Z</time>
      </trkpt>
      <trkpt lat="44.20027" lon="0.70732">
        <ele>158</ele>
        <time>2022-08-07T06:55:46.065Z</time>
      </trkpt>
      <trkpt lat="44.20028" lon="0.70733">
        <ele>158</ele>
        <time>2022-08-07T06:55:47.065Z</time>
      </trkpt>
      <trkpt lat="44.20029" lon="0.70735">
        <ele>158</ele>
        <time>2022-08-07T06:55:48.065Z</time>
      </trkpt>
      <trkpt lat="44.2003" lon="0.70736">
        <ele>158</ele>
        <time>2022-08-07T06:55:49.065Z</time>
      </trkpt>
      <trkpt lat="44.20031" lon="0.70737">
        <ele>158</ele>
        <time>2022-08-07T06:55:50.065Z</time>
      </trkpt>
      <trkpt lat="44.20031" lon="0.70738">
        <ele>158</ele>
        <time>2022-08-07T06:55:51.065Z</time>
      </trkpt>
      <trkpt lat="44.20032" lon="0.7074">
        <ele>158</ele>
        <time>2022-08-07T06:55:52.065Z</time>
      </trkpt>
      <trkpt lat="44.20033" lon="0.70741">
        <ele>158</ele>
        <time>2022-08-07T06:55:53.065Z</time>
      </trkpt>
      <trkpt lat="44.20034" lon="0.70742">
        <ele>158</ele>
        <time>2022-08-07T06:55:54.065Z</time>
      </trkpt>
      <trkpt lat="44.20035" lon="0.70743">
        <ele>158</ele>
        <time>2022-08-07T06:55:55.065Z</time>
      </trkpt>
      <trkpt lat="44.20035" lon="0.70744">
        <ele>158</ele>
        <time>2022-08-07T06:55:56.065Z</time>
      </trkpt>
      <trkpt lat="44.20036" lon="0.70746">
        <ele>158</ele>
        <time>2022-08-07T06:55:57.065Z</time>
      </trkpt>
      <trkpt lat="44.20037" lon="0.70747">
        <ele>158</ele>
        <time>2022-08-07T06:55:58.065Z</time>
      </trkpt>
      <trkpt lat="44.20038" lon="0.70748">
        <ele>158</ele>
        <time>2022-08-07T06:55:59.065Z</time>
      </trkpt>
      <trkpt lat="44.20039" lon="0.7075">
        <ele>158</ele>
        <time>2022-08-07T06:56:00.065Z</time>
      </trkpt>
      <trkpt lat="44.2004" lon="0.70751">
        <ele>158</ele>
        <time>2022-08-07T06:56:01.065Z</time>
      </trkpt>
      <trkpt lat="44.20041" lon="0.70752">
        <ele>158</ele>
        <time>2022-08-07T06:56:02.065Z</time>
      </trkpt>
      <trkpt lat="44.20042" lon="0.70753">
        <ele>158</ele>
        <time>2022-08-07T06:56:03.065Z</time>
      </trkpt>
      <trkpt lat="44.20042" lon="0.70754">
        <ele>158</ele>
        <time>2022-08-07T06:56:04.065Z</time>
      </trkpt>
      <trkpt lat="44.20043" lon="0.70756">
        <ele>158</ele>
        <time>2022-08-07T06:56:05.065Z</time>
      </trkpt>
      <trkpt lat="44.20043" lon="0.70757">
        <ele>158</ele>
        <time>2022-08-07T06:56:06.065Z</time>
      </trkpt>
      <trkpt lat="44.20044" lon="0.70758">
        <ele>158</ele>
        <time>2022-08-07T06:56:07.065Z</time>
      </trkpt>
      <trkpt lat="44.20045" lon="0.7076">
        <ele>158</ele>
        <time>2022-08-07T06:56:08.065Z</time>
      </trkpt>
      <trkpt lat="44.20045" lon="0.70761">
        <ele>158</ele>
        <time>2022-08-07T06:56:09.065Z</time>
      </trkpt>
      <trkpt lat="44.20046" lon="0.70762">
        <ele>158</ele>
        <time>2022-08-07T06:56:10.065Z</time>
      </trkpt>
      <trkpt lat="44.20047" lon="0.70763">
        <ele>158</ele>
        <time>2022-08-07T06:56:11.065Z</time>
      </trkpt>
      <trkpt lat="44.20047" lon="0.70764">
        <ele>158</ele>
        <time>2022-08-07T06:56:12.065Z</time>
      </trkpt>
      <trkpt lat="44.20048" lon="0.70765">
        <ele>158</ele>
        <time>2022-08-07T06:56:13.065Z</time>
      </trkpt>
      <trkpt lat="44.20049" lon="0.70767">
        <ele>158</ele>
        <time>2022-08-07T06:56:14.065Z</time>
      </trkpt>
      <trkpt lat="44.2005" lon="0.70768">
        <ele>158</ele>
        <time>2022-08-07T06:56:15.065Z</time>
      </trkpt>
      <trkpt lat="44.20051" lon="0.7077">
        <ele>158</ele>
        <time>2022-08-07T06:56:16.065Z</time>
      </trkpt>
      <trkpt lat="44.20051" lon="0.70771">
        <ele>158</ele>
        <time>2022-08-07T06:56:17.065Z</time>
      </trkpt>
      <trkpt lat="44.20052" lon="0.70772">
        <ele>158</ele>
        <time>2022-08-07T06:56:18.065Z</time>
      </trkpt>
      <trkpt lat="44.20053" lon="0.70774">
        <ele>158</ele>
        <time>2022-08-07T06:56:19.065Z</time>
      </trkpt>
      <trkpt lat="44.20054" lon="0.70775">
        <ele>157</ele>
        <time>2022-08-07T06:56:20.065Z</time>
      </trkpt>
      <trkpt lat="44.20054" lon="0.70777">
        <ele>157</ele>
        <time>2022-08-07T06:56:21.065Z</time>
      </trkpt>
      <trkpt lat="44.20055" lon="0.70778">
        <ele>158</ele>
        <time>2022-08-07T06:56:22.065Z</time>
      </trkpt>
      <trkpt lat="44.20056" lon="0.7078">
        <ele>158</ele>
        <time>2022-08-07T06:56:23.065Z</time>
      </trkpt>
      <trkpt lat="44.20057" lon="0.70781">
        <ele>158</ele>
        <time>2022-08-07T06:56:24.065Z</time>
      </trkpt>
      <trkpt lat="44.20058" lon="0.70782">
        <ele>157</ele>
        <time>2022-08-07T06:56:25.065Z</time>
      </trkpt>
      <trkpt lat="44.20058" lon="0.70783">
        <ele>157</ele>
        <time>2022-08-07T06:56:26.065Z</time>
      </trkpt>
      <trkpt lat="44.20059" lon="0.70784">
        <ele>157</ele>
        <time>2022-08-07T06:56:27.065Z</time>
      </trkpt>
      <trkpt lat="44.2006" lon="0.70785">
        <ele>157</ele>
        <time>2022-08-07T06:56:28.065Z</time>
      </trkpt>
      <trkpt lat="44.20061" lon="0.70786">
        <ele>158</ele>
        <time>2022-08-07T06:56:29.065Z</time>
      </trkpt>
      <trkpt lat="44.20061" lon="0.70788">
        <ele>158</ele>
        <time>2022-08-07T06:56:30.065Z</time>
      </trkpt>
      <trkpt lat="44.20062" lon="0.70789">
        <ele>158</ele>
        <time>2022-08-07T06:56:31.065Z</time>
      </trkpt>
      <trkpt lat="44.20063" lon="0.7079">
        <ele>158</ele>
        <time>2022-08-07T06:56:32.065Z</time>
      </trkpt>
      <trkpt lat="44.20064" lon="0.70791">
        <ele>158</ele>
        <time>2022-08-07T06:56:33.065Z</time>
      </trkpt>
      <trkpt lat="44.20065" lon="0.70792">
        <ele>158</ele>
        <time>2022-08-07T06:56:34.065Z</time>
      </trkpt>
      <trkpt lat="44.20065" lon="0.70794">
        <ele>158</ele>
        <time>2022-08-07T06:56:35.065Z</time>
      </trkpt>
      <trkpt lat="44.20066" lon="0.70795">
        <ele>158</ele>
        <time>2022-08-07T06:56:36.065Z</time>
      </trkpt>
      <trkpt lat="44.20067" lon="0.70796">
        <ele>158</ele>
        <time>2022-08-07T06:56:37.065Z</time>
      </trkpt>
      <trkpt lat="44.20068" lon="0.70797">
        <ele>158</ele>
        <time>2022-08-07T06:56:38.065Z</time>
      </trkpt>
      <trkpt lat="44.20068" lon="0.70798">
        <ele>158</ele>
        <time>2022-08-07T06:56:39.065Z</time>
      </trkpt>
      <trkpt lat="44.20069" lon="0.708">
        <ele>158</ele>
        <time>2022-08-07T06:56:40.065Z</time>
      </trkpt>
      <trkpt lat="44.2007" lon="0.70801">
        <ele>158</ele>
        <time>2022-08-07T06:56:41.065Z</time>
      </trkpt>
      <trkpt lat="44.20071" lon="0.70802">
        <ele>158</ele>
        <time>2022-08-07T06:56:42.065Z</time>
      </trkpt>
      <trkpt lat="44.20071" lon="0.70804">
        <ele>158</ele>
        <time>2022-08-07T06:56:43.065Z</time>
      </trkpt>
      <trkpt lat="44.20072" lon="0.70805">
        <ele>158</ele>
        <time>2022-08-07T06:56:44.065Z</time>
      </trkpt>
      <trkpt lat="44.20073" lon="0.70806">
        <ele>158</ele>
        <time>2022-08-07T06:56:45.065Z</time>
      </trkpt>
      <trkpt lat="44.20073" lon="0.70808">
        <ele>158</ele>
        <time>2022-08-07T06:56:46.065Z</time>
      </trkpt>
      <trkpt lat="44.20074" lon="0.70809">
        <ele>158</ele>
        <time>2022-08-07T06:56:47.065Z</time>
      </trkpt>
      <trkpt lat="44.20075" lon="0.7081">
        <ele>158</ele>
        <time>2022-08-07T06:56:48.065Z</time>
      </trkpt>
      <trkpt lat="44.20076" lon="0.70811">
        <ele>158</ele>
        <time>2022-08-07T06:56:49.065Z</time>
      </trkpt>
      <trkpt lat="44.20076" lon="0.70813">
        <ele>158</ele>
        <time>2022-08-07T06:56:50.065Z</time>
      </trkpt>
      <trkpt lat="44.20077" lon="0.70814">
        <ele>158</ele>
        <time>2022-08-07T06:56:51.065Z</time>
      </trkpt>
      <trkpt lat="44.20077" lon="0.70815">
        <ele>158</ele>
        <time>2022-08-07T06:56:52.065Z</time>
      </trkpt>
      <trkpt lat="44.20078" lon="0.70816">
        <ele>158</ele>
        <time>2022-08-07T06:56:53.065Z</time>
      </trkpt>
      <trkpt lat="44.20079" lon="0.70817">
        <ele>158</ele>
        <time>2022-08-07T06:56:54.065Z</time>
      </trkpt>
      <trkpt lat="44.2008" lon="0.70818">
        <ele>158</ele>
        <time>2022-08-07T06:56:55.065Z</time>
      </trkpt>
      <trkpt lat="44.2008" lon="0.7082">
        <ele>158</ele>
        <time>2022-08-07T06:56:56.065Z</time>
      </trkpt>
      <trkpt lat="44.20081" lon="0.70821">
        <ele>158</ele>
        <time>2022-08-07T06:56:57.065Z</time>
      </trkpt>
      <trkpt lat="44.20082" lon="0.70822">
        <ele>158</ele>
        <time>2022-08-07T06:56:58.065Z</time>
      </trkpt>
      <trkpt lat="44.20083" lon="0.70823">
        <ele>158</ele>
        <time>2022-08-07T06:56:59.065Z</time>
      </trkpt>
      <trkpt lat="44.20083" lon="0.70824">
        <ele>159</ele>
        <time>2022-08-07T06:57:00.065Z</time>
      </trkpt>
      <trkpt lat="44.20084" lon="0.70825">
        <ele>158</ele>
        <time>2022-08-07T06:57:01.065Z</time>
      </trkpt>
      <trkpt lat="44.20085" lon="0.70826">
        <ele>158</ele>
        <time>2022-08-07T06:57:02.065Z</time>
      </trkpt>
      <trkpt lat="44.20085" lon="0.70827">
        <ele>158</ele>
        <time>2022-08-07T06:57:03.065Z</time>
      </trkpt>
      <trkpt lat="44.20086" lon="0.70828">
        <ele>158</ele>
        <time>2022-08-07T06:57:04.065Z</time>
      </trkpt>
      <trkpt lat="44.20086" lon="0.7083">
        <ele>158</ele>
        <time>2022-08-07T06:57:05.065Z</time>
      </trkpt>
      <trkpt lat="44.20087" lon="0.70831">
        <ele>159</ele>
        <time>2022-08-07T06:57:06.065Z</time>
      </trkpt>
      <trkpt lat="44.20088" lon="0.70832">
        <ele>158</ele>
        <time>2022-08-07T06:57:07.065Z</time>
      </trkpt>
      <trkpt lat="44.20089" lon="0.70833">
        <ele>159</ele>
        <time>2022-08-07T06:57:08.065Z</time>
      </trkpt>
      <trkpt lat="44.20089" lon="0.70835">
        <ele>159</ele>
        <time>2022-08-07T06:57:09.065Z</time>
      </trkpt>
      <trkpt lat="44.2009" lon="0.70836">
        <ele>159</ele>
        <time>2022-08-07T06:57:10.065Z</time>
      </trkpt>
      <trkpt lat="44.20091" lon="0.70837">
        <ele>159</ele>
        <time>2022-08-07T06:57:11.065Z</time>
      </trkpt>
      <trkpt lat="44.20091" lon="0.70838">
        <ele>159</ele>
        <time>2022-08-07T06:57:12.065Z</time>
      </trkpt>
      <trkpt lat="44.20092" lon="0.70838">
        <ele>159</ele>
        <time>2022-08-07T06:57:13.065Z</time>
      </trkpt>
      <trkpt lat="44.20093" lon="0.70839">
        <ele>159</ele>
        <time>2022-08-07T06:57:14.065Z</time>
      </trkpt>
      <trkpt lat="44.20094" lon="0.7084">
        <ele>159</ele>
        <time>2022-08-07T06:57:15.065Z</time>
      </trkpt>
      <trkpt lat="44.20095" lon="0.70841">
        <ele>159</ele>
        <time>2022-08-07T06:57:16.065Z</time>
      </trkpt>
      <trkpt lat="44.20096" lon="0.70843">
        <ele>159</ele>
        <time>2022-08-07T06:57:17.065Z</time>
      </trkpt>
      <trkpt lat="44.20097" lon="0.70844">
        <ele>159</ele>
        <time>2022-08-07T06:57:18.065Z</time>
      </trkpt>
      <trkpt lat="44.20098" lon="0.70845">
        <ele>159</ele>
        <time>2022-08-07T06:57:19.065Z</time>
      </trkpt>
      <trkpt lat="44.20098" lon="0.70846">
        <ele>159</ele>
        <time>2022-08-07T06:57:20.065Z</time>
      </trkpt>
      <trkpt lat="44.20099" lon="0.70847">
        <ele>159</ele>
        <time>2022-08-07T06:57:21.065Z</time>
      </trkpt>
      <trkpt lat="44.20099" lon="0.70848">
        <ele>159</ele>
        <time>2022-08-07T06:57:22.065Z</time>
      </trkpt>
      <trkpt lat="44.201" lon="0.70849">
        <ele>159</ele>
        <time>2022-08-07T06:57:23.065Z</time>
      </trkpt>
      <trkpt lat="44.20101" lon="0.7085">
        <ele>159</ele>
        <time>2022-08-07T06:57:24.065Z</time>
      </trkpt>
      <trkpt lat="44.20102" lon="0.70851">
        <ele>159</ele>
        <time>2022-08-07T06:57:25.065Z</time>
      </trkpt>
      <trkpt lat="44.20102" lon="0.70852">
        <ele>160</ele>
        <time>2022-08-07T06:57:26.065Z</time>
      </trkpt>
      <trkpt lat="44.20103" lon="0.70853">
        <ele>160</ele>
        <time>2022-08-07T06:57:27.065Z</time>
      </trkpt>
      <trkpt lat="44.20103" lon="0.70854">
        <ele>159</ele>
        <time>2022-08-07T06:57:28.065Z</time>
      </trkpt>
      <trkpt lat="44.20104" lon="0.70855">
        <ele>158</ele>
        <time>2022-08-07T06:57:29.065Z</time>
      </trkpt>
      <trkpt lat="44.20104" lon="0.70856">
        <ele>159</ele>
        <time>2022-08-07T06:57:30.065Z</time>
      </trkpt>
      <trkpt lat="44.20105" lon="0.70857">
        <ele>159</ele>
        <time>2022-08-07T06:57:31.065Z</time>
      </trkpt>
      <trkpt lat="44.20105" lon="0.70858">
        <ele>160</ele>
        <time>2022-08-07T06:57:32.065Z</time>
      </trkpt>
      <trkpt lat="44.20106" lon="0.7086">
        <ele>160</ele>
        <time>2022-08-07T06:57:33.065Z</time>
      </trkpt>
      <trkpt lat="44.20107" lon="0.70861">
        <ele>160</ele>
        <time>2022-08-07T06:57:34.065Z</time>
      </trkpt>
      <trkpt lat="44.20108" lon="0.70862">
        <ele>160</ele>
        <time>2022-08-07T06:57:35.065Z</time>
      </trkpt>
      <trkpt lat="44.20109" lon="0.70863">
        <ele>161</ele>
        <time>2022-08-07T06:57:36.065Z</time>
      </trkpt>
      <trkpt lat="44.2011" lon="0.70864">
        <ele>161</ele>
        <time>2022-08-07T06:57:37.065Z</time>
      </trkpt>
      <trkpt lat="44.20111" lon="0.70866">
        <ele>161</ele>
        <time>2022-08-07T06:57:38.065Z</time>
      </trkpt>
      <trkpt lat="44.20111" lon="0.70867">
        <ele>162</ele>
        <time>2022-08-07T06:57:39.065Z</time>
      </trkpt>
      <trkpt lat="44.20112" lon="0.70868">
        <ele>162</ele>
        <time>2022-08-07T06:57:40.065Z</time>
      </trkpt>
      <trkpt lat="44.20113" lon="0.70869">
        <ele>162</ele>
        <time>2022-08-07T06:57:41.065Z</time>
      </trkpt>
      <trkpt lat="44.20114" lon="0.7087">
        <ele>163</ele>
        <time>2022-08-07T06:57:42.065Z</time>
      </trkpt>
      <trkpt lat="44.20115" lon="0.70871">
        <ele>163</ele>
        <time>2022-08-07T06:57:43.065Z</time>
      </trkpt>
      <trkpt lat="44.20115" lon="0.70872">
        <ele>163</ele>
        <time>2022-08-07T06:57:44.065Z</time>
      </trkpt>
      <trkpt lat="44.20116" lon="0.70874">
        <ele>163</ele>
        <time>2022-08-07T06:57:45.065Z</time>
      </trkpt>
      <trkpt lat="44.20117" lon="0.70875">
        <ele>163</ele>
        <time>2022-08-07T06:57:46.065Z</time>
      </trkpt>
      <trkpt lat="44.20117" lon="0.70876">
        <ele>163</ele>
        <time>2022-08-07T06:57:47.065Z</time>
      </trkpt>
      <trkpt lat="44.20118" lon="0.70878">
        <ele>164</ele>
        <time>2022-08-07T06:57:48.065Z</time>
      </trkpt>
      <trkpt lat="44.20118" lon="0.70879">
        <ele>164</ele>
        <time>2022-08-07T06:57:49.065Z</time>
      </trkpt>
      <trkpt lat="44.20119" lon="0.7088">
        <ele>164</ele>
        <time>2022-08-07T06:57:50.065Z</time>
      </trkpt>
      <trkpt lat="44.2012" lon="0.70881">
        <ele>165</ele>
        <time>2022-08-07T06:57:51.065Z</time>
      </trkpt>
      <trkpt lat="44.2012" lon="0.70881">
        <ele>166</ele>
        <time>2022-08-07T06:57:52.065Z</time>
      </trkpt>
      <trkpt lat="44.20121" lon="0.70882">
        <ele>166</ele>
        <time>2022-08-07T06:57:53.065Z</time>
      </trkpt>
      <trkpt lat="44.20122" lon="0.70882">
        <ele>166</ele>
        <time>2022-08-07T06:57:54.065Z</time>
      </trkpt>
      <trkpt lat="44.20122" lon="0.70883">
        <ele>167</ele>
        <time>2022-08-07T06:57:55.065Z</time>
      </trkpt>
      <trkpt lat="44.20123" lon="0.70884">
        <ele>167</ele>
        <time>2022-08-07T06:57:56.065Z</time>
      </trkpt>
      <trkpt lat="44.20124" lon="0.70885">
        <ele>167</ele>
        <time>2022-08-07T06:57:57.065Z</time>
      </trkpt>
      <trkpt lat="44.20126" lon="0.70887">
        <ele>167</ele>
        <time>2022-08-07T06:57:58.065Z</time>
      </trkpt>
      <trkpt lat="44.20127" lon="0.70889">
        <ele>167</ele>
        <time>2022-08-07T06:57:59.065Z</time>
      </trkpt>
      <trkpt lat="44.20128" lon="0.70891">
        <ele>167</ele>
        <time>2022-08-07T06:58:00.065Z</time>
      </trkpt>
      <trkpt lat="44.20129" lon="0.70892">
        <ele>167</ele>
        <time>2022-08-07T06:58:01.065Z</time>
      </trkpt>
      <trkpt lat="44.2013" lon="0.70893">
        <ele>167</ele>
        <time>2022-08-07T06:58:02.065Z</time>
      </trkpt>
      <trkpt lat="44.20131" lon="0.70894">
        <ele>168</ele>
        <time>2022-08-07T06:58:03.065Z</time>
      </trkpt>
      <trkpt lat="44.20132" lon="0.70896">
        <ele>168</ele>
        <time>2022-08-07T06:58:04.065Z</time>
      </trkpt>
      <trkpt lat="44.20133" lon="0.70898">
        <ele>169</ele>
        <time>2022-08-07T06:58:05.065Z</time>
      </trkpt>
      <trkpt lat="44.20134" lon="0.709">
        <ele>168</ele>
        <time>2022-08-07T06:58:06.065Z</time>
      </trkpt>
      <trkpt lat="44.20134" lon="0.70901">
        <ele>168</ele>
        <time>2022-08-07T06:58:07.065Z</time>
      </trkpt>
      <trkpt lat="44.20135" lon="0.70902">
        <ele>168</ele>
        <time>2022-08-07T06:58:08.065Z</time>
      </trkpt>
      <trkpt lat="44.20135" lon="0.70903">
        <ele>168</ele>
        <time>2022-08-07T06:58:09.065Z</time>
      </trkpt>
      <trkpt lat="44.20135" lon="0.70904">
        <ele>168</ele>
        <time>2022-08-07T06:58:10.065Z</time>
      </trkpt>
      <trkpt lat="44.20135" lon="0.70906">
        <ele>168</ele>
        <time>2022-08-07T06:58:11.065Z</time>
      </trkpt>
      <trkpt lat="44.20136" lon="0.70907">
        <ele>168</ele>
        <time>2022-08-07T06:58:12.065Z</time>
      </trkpt>
      <trkpt lat="44.20137" lon="0.70908">
        <ele>168</ele>
        <time>2022-08-07T06:58:13.065Z</time>
      </trkpt>
      <trkpt lat="44.20137" lon="0.7091">
        <ele>169</ele>
        <time>2022-08-07T06:58:14.065Z</time>
      </trkpt>
      <trkpt lat="44.20138" lon="0.7091">
        <ele>169</ele>
        <time>2022-08-07T06:58:15.065Z</time>
      </trkpt>
      <trkpt lat="44.20139" lon="0.70911">
        <ele>170</ele>
        <time>2022-08-07T06:58:16.065Z</time>
      </trkpt>
      <trkpt lat="44.2014" lon="0.70912">
        <ele>170</ele>
        <time>2022-08-07T06:58:17.065Z</time>
      </trkpt>
      <trkpt lat="44.2014" lon="0.70913">
        <ele>171</ele>
        <time>2022-08-07T06:58:18.065Z</time>
      </trkpt>
      <trkpt lat="44.20141" lon="0.70915">
        <ele>172</ele>
        <time>2022-08-07T06:58:19.065Z</time>
      </trkpt>
      <trkpt lat="44.20142" lon="0.70916">
        <ele>173</ele>
        <time>2022-08-07T06:58:20.065Z</time>
      </trkpt>
      <trkpt lat="44.20142" lon="0.70918">
        <ele>173</ele>
        <time>2022-08-07T06:58:21.065Z</time>
      </trkpt>
      <trkpt lat="44.20143" lon="0.70919">
        <ele>173</ele>
        <time>2022-08-07T06:58:22.065Z</time>
      </trkpt>
      <trkpt lat="44.20144" lon="0.7092">
        <ele>173</ele>
        <time>2022-08-07T06:58:23.065Z</time>
      </trkpt>
      <trkpt lat="44.20145" lon="0.70921">
        <ele>174</ele>
        <time>2022-08-07T06:58:24.065Z</time>
      </trkpt>
      <trkpt lat="44.20145" lon="0.70923">
        <ele>174</ele>
        <time>2022-08-07T06:58:25.065Z</time>
      </trkpt>
      <trkpt lat="44.20146" lon="0.70924">
        <ele>174</ele>
        <time>2022-08-07T06:58:26.065Z</time>
      </trkpt>
      <trkpt lat="44.20147" lon="0.70925">
        <ele>174</ele>
        <time>2022-08-07T06:58:27.065Z</time>
      </trkpt>
      <trkpt lat="44.20148" lon="0.70927">
        <ele>175</ele>
        <time>2022-08-07T06:58:28.065Z</time>
      </trkpt>
      <trkpt lat="44.20148" lon="0.70929">
        <ele>175</ele>
        <time>2022-08-07T06:58:29.065Z</time>
      </trkpt>
      <trkpt lat="44.20149" lon="0.7093">
        <ele>175</ele>
        <time>2022-08-07T06:58:30.065Z</time>
      </trkpt>
      <trkpt lat="44.2015" lon="0.70932">
        <ele>174</ele>
        <time>2022-08-07T06:58:31.065Z</time>
      </trkpt>
      <trkpt lat="44.20151" lon="0.70933">
        <ele>174</ele>
        <time>2022-08-07T06:58:32.065Z</time>
      </trkpt>
      <trkpt lat="44.20151" lon="0.70935">
        <ele>174</ele>
        <time>2022-08-07T06:58:33.065Z</time>
      </trkpt>
      <trkpt lat="44.20152" lon="0.70936">
        <ele>173</ele>
        <time>2022-08-07T06:58:34.065Z</time>
      </trkpt>
      <trkpt lat="44.20153" lon="0.70937">
        <ele>173</ele>
        <time>2022-08-07T06:58:35.065Z</time>
      </trkpt>
      <trkpt lat="44.20154" lon="0.70938">
        <ele>173</ele>
        <time>2022-08-07T06:58:36.065Z</time>
      </trkpt>
      <trkpt lat="44.20154" lon="0.70939">
        <ele>173</ele>
        <time>2022-08-07T06:58:37.065Z</time>
      </trkpt>
      <trkpt lat="44.20155" lon="0.70941">
        <ele>173</ele>
        <time>2022-08-07T06:58:38.065Z</time>
      </trkpt>
      <trkpt lat="44.20155" lon="0.70942">
        <ele>172</ele>
        <time>2022-08-07T06:58:39.065Z</time>
      </trkpt>
      <trkpt lat="44.20155" lon="0.70943">
        <ele>173</ele>
        <time>2022-08-07T06:58:40.065Z</time>
      </trkpt>
      <trkpt lat="44.20156" lon="0.70944">
        <ele>173</ele>
        <time>2022-08-07T06:58:41.065Z</time>
      </trkpt>
      <trkpt lat="44.20156" lon="0.70945">
        <ele>173</ele>
        <time>2022-08-07T06:58:42.065Z</time>
      </trkpt>
      <trkpt lat="44.20157" lon="0.70947">
        <ele>174</ele>
        <time>2022-08-07T06:58:43.065Z</time>
      </trkpt>
      <trkpt lat="44.20158" lon="0.70948">
        <ele>174</ele>
        <time>2022-08-07T06:58:44.065Z</time>
      </trkpt>
      <trkpt lat="44.20158" lon="0.7095">
        <ele>174</ele>
        <time>2022-08-07T06:58:45.065Z</time>
      </trkpt>
      <trkpt lat="44.20158" lon="0.70951">
        <ele>173</ele>
        <time>2022-08-07T06:58:46.065Z</time>
      </trkpt>
      <trkpt lat="44.20159" lon="0.70953">
        <ele>173</ele>
        <time>2022-08-07T06:58:47.065Z</time>
      </trkpt>
      <trkpt lat="44.20159" lon="0.70954">
        <ele>173</ele>
        <time>2022-08-07T06:58:48.065Z</time>
      </trkpt>
      <trkpt lat="44.2016" lon="0.70956">
        <ele>173</ele>
        <time>2022-08-07T06:58:49.065Z</time>
      </trkpt>
      <trkpt lat="44.2016" lon="0.70957">
        <ele>172</ele>
        <time>2022-08-07T06:58:50.065Z</time>
      </trkpt>
      <trkpt lat="44.20161" lon="0.70958">
        <ele>172</ele>
        <time>2022-08-07T06:58:51.065Z</time>
      </trkpt>
      <trkpt lat="44.20161" lon="0.7096">
        <ele>172</ele>
        <time>2022-08-07T06:58:52.065Z</time>
      </trkpt>
      <trkpt lat="44.20162" lon="0.70962">
        <ele>172</ele>
        <time>2022-08-07T06:58:53.065Z</time>
      </trkpt>
      <trkpt lat="44.20163" lon="0.70963">
        <ele>173</ele>
        <time>2022-08-07T06:58:54.065Z</time>
      </trkpt>
      <trkpt lat="44.20163" lon="0.70965">
        <ele>172</ele>
        <time>2022-08-07T06:58:55.065Z</time>
      </trkpt>
      <trkpt lat="44.20163" lon="0.70966">
        <ele>172</ele>
        <time>2022-08-07T06:58:56.065Z</time>
      </trkpt>
      <trkpt lat="44.20164" lon="0.70968">
        <ele>172</ele>
        <time>2022-08-07T06:58:57.065Z</time>
      </trkpt>
      <trkpt lat="44.20165" lon="0.7097">
        <ele>173</ele>
        <time>2022-08-07T06:58:58.065Z</time>
      </trkpt>
      <trkpt lat="44.20166" lon="0.70972">
        <ele>172</ele>
        <time>2022-08-07T06:58:59.065Z</time>
      </trkpt>
      <trkpt lat="44.20167" lon="0.70974">
        <ele>172</ele>
        <time>2022-08-07T06:59:00.065Z</time>
      </trkpt>
      <trkpt lat="44.20168" lon="0.70976">
        <ele>172</ele>
        <time>2022-08-07T06:59:01.065Z</time>
      </trkpt>
      <trkpt lat="44.20169" lon="0.70978">
        <ele>173</ele>
        <time>2022-08-07T06:59:02.065Z</time>
      </trkpt>
      <trkpt lat="44.2017" lon="0.7098">
        <ele>173</ele>
        <time>2022-08-07T06:59:03.065Z</time>
      </trkpt>
      <trkpt lat="44.2017" lon="0.70981">
        <ele>173</ele>
        <time>2022-08-07T06:59:04.065Z</time>
      </trkpt>
      <trkpt lat="44.20171" lon="0.70983">
        <ele>173</ele>
        <time>2022-08-07T06:59:05.065Z</time>
      </trkpt>
      <trkpt lat="44.20172" lon="0.70984">
        <ele>173</ele>
        <time>2022-08-07T06:59:06.065Z</time>
      </trkpt>
      <trkpt lat="44.20173" lon="0.70985">
        <ele>173</ele>
        <time>2022-08-07T06:59:07.065Z</time>
      </trkpt>
      <trkpt lat="44.20174" lon="0.70987">
        <ele>173</ele>
        <time>2022-08-07T06:59:08.065Z</time>
      </trkpt>
      <trkpt lat="44.20175" lon="0.70988">
        <ele>174</ele>
        <time>2022-08-07T06:59:09.065Z</time>
      </trkpt>
      <trkpt lat="44.20176" lon="0.7099">
        <ele>174</ele>
        <time>2022-08-07T06:59:10.065Z</time>
      </trkpt>
      <trkpt lat="44.20177" lon="0.70991">
        <ele>172</ele>
        <time>2022-08-07T06:59:11.065Z</time>
      </trkpt>
      <trkpt lat="44.20177" lon="0.70992">
        <ele>170</ele>
        <time>2022-08-07T06:59:12.065Z</time>
      </trkpt>
      <trkpt lat="44.20178" lon="0.70992">
        <ele>169</ele>
        <time>2022-08-07T06:59:13.065Z</time>
      </trkpt>
      <trkpt lat="44.20179" lon="0.70993">
        <ele>168</ele>
        <time>2022-08-07T06:59:14.065Z</time>
      </trkpt>
      <trkpt lat="44.2018" lon="0.70994">
        <ele>167</ele>
        <time>2022-08-07T06:59:15.065Z</time>
      </trkpt>
      <trkpt lat="44.20181" lon="0.70995">
        <ele>167</ele>
        <time>2022-08-07T06:59:16.065Z</time>
      </trkpt>
      <trkpt lat="44.20182" lon="0.70996">
        <ele>168</ele>
        <time>2022-08-07T06:59:17.065Z</time>
      </trkpt>
      <trkpt lat="44.20182" lon="0.70997">
        <ele>167</ele>
        <time>2022-08-07T06:59:18.065Z</time>
      </trkpt>
      <trkpt lat="44.20183" lon="0.70997">
        <ele>167</ele>
        <time>2022-08-07T06:59:19.065Z</time>
      </trkpt>
      <trkpt lat="44.20184" lon="0.70998">
        <ele>166</ele>
        <time>2022-08-07T06:59:20.065Z</time>
      </trkpt>
      <trkpt lat="44.20184" lon="0.70999">
        <ele>165</ele>
        <time>2022-08-07T06:59:21.065Z</time>
      </trkpt>
      <trkpt lat="44.20185" lon="0.71001">
        <ele>166</ele>
        <time>2022-08-07T06:59:22.065Z</time>
      </trkpt>
      <trkpt lat="44.20186" lon="0.71002">
        <ele>165</ele>
        <time>2022-08-07T06:59:23.065Z</time>
      </trkpt>
      <trkpt lat="44.20187" lon="0.71003">
        <ele>165</ele>
        <time>2022-08-07T06:59:24.065Z</time>
      </trkpt>
      <trkpt lat="44.20188" lon="0.71004">
        <ele>165</ele>
        <time>2022-08-07T06:59:25.065Z</time>
      </trkpt>
      <trkpt lat="44.20189" lon="0.71005">
        <ele>164</ele>
        <time>2022-08-07T06:59:26.065Z</time>
      </trkpt>
      <trkpt lat="44.20189" lon="0.71006">
        <ele>164</ele>
        <time>2022-08-07T06:59:27.065Z</time>
      </trkpt>
      <trkpt lat="44.2019" lon="0.71007">
        <ele>164</ele>
        <time>2022-08-07T06:59:28.065Z</time>
      </trkpt>
      <trkpt lat="44.20191" lon="0.71008">
        <ele>164</ele>
        <time>2022-08-07T06:59:29.065Z</time>
      </trkpt>
      <trkpt lat="44.20192" lon="0.71009">
        <ele>164</ele>
        <time>2022-08-07T06:59:30.065Z</time>
      </trkpt>
      <trkpt lat="44.20193" lon="0.71011">
        <ele>164</ele>
        <time>2022-08-07T06:59:31.065Z</time>
      </trkpt>
      <trkpt lat="44.20194" lon="0.71012">
        <ele>164</ele>
        <time>2022-08-07T06:59:32.065Z</time>
      </trkpt>
      <trkpt lat="44.20195" lon="0.71013">
        <ele>163</ele>
        <time>2022-08-07T06:59:33.065Z</time>
      </trkpt>
      <trkpt lat="44.20196" lon="0.71014">
        <ele>164</ele>
        <time>2022-08-07T06:59:34.065Z</time>
      </trkpt>
      <trkpt lat="44.20197" lon="0.71015">
        <ele>164</ele>
        <time>2022-08-07T06:59:35.065Z</time>
      </trkpt>
      <trkpt lat="44.20198" lon="0.71017">
        <ele>165</ele>
        <time>2022-08-07T06:59:36.065Z</time>
      </trkpt>
      <trkpt lat="44.20199" lon="0.71019">
        <ele>164</ele>
        <time>2022-08-07T06:59:37.065Z</time>
      </trkpt>
      <trkpt lat="44.20201" lon="0.7102">
        <ele>165</ele>
        <time>2022-08-07T06:59:38.065Z</time>
      </trkpt>
      <trkpt lat="44.20202" lon="0.71022">
        <ele>165</ele>
        <time>2022-08-07T06:59:39.065Z</time>
      </trkpt>
      <trkpt lat="44.20203" lon="0.71023">
        <ele>165</ele>
        <time>2022-08-07T06:59:40.065Z</time>
      </trkpt>
      <trkpt lat="44.20204" lon="0.71024">
        <ele>165</ele>
        <time>2022-08-07T06:59:41.065Z</time>
      </trkpt>
      <trkpt lat="44.20205" lon="0.71025">
        <ele>165</ele>
        <time>2022-08-07T06:59:42.065Z</time>
      </trkpt>
      <trkpt lat="44.20206" lon="0.71027">
        <ele>165</ele>
        <time>2022-08-07T06:59:43.065Z</time>
      </trkpt>
      <trkpt lat="44.20207" lon="0.71028">
        <ele>166</ele>
        <time>2022-08-07T06:59:44.065Z</time>
      </trkpt>
      <trkpt lat="44.20208" lon="0.71029">
        <ele>165</ele>
        <time>2022-08-07T06:59:45.065Z</time>
      </trkpt>
      <trkpt lat="44.20209" lon="0.7103">
        <ele>165</ele>
        <time>2022-08-07T06:59:46.065Z</time>
      </trkpt>
      <trkpt lat="44.20209" lon="0.71031">
        <ele>165</ele>
        <time>2022-08-07T06:59:47.065Z</time>
      </trkpt>
      <trkpt lat="44.2021" lon="0.71032">
        <ele>165</ele>
        <time>2022-08-07T06:59:48.065Z</time>
      </trkpt>
      <trkpt lat="44.2021" lon="0.71033">
        <ele>164</ele>
        <time>2022-08-07T06:59:49.065Z</time>
      </trkpt>
      <trkpt lat="44.20211" lon="0.71034">
        <ele>164</ele>
        <time>2022-08-07T06:59:50.065Z</time>
      </trkpt>
      <trkpt lat="44.20212" lon="0.71036">
        <ele>164</ele>
        <time>2022-08-07T06:59:51.065Z</time>
      </trkpt>
      <trkpt lat="44.20212" lon="0.71037">
        <ele>164</ele>
        <time>2022-08-07T06:59:52.065Z</time>
      </trkpt>
      <trkpt lat="44.20213" lon="0.71038">
        <ele>164</ele>
        <time>2022-08-07T06:59:53.065Z</time>
      </trkpt>
      <trkpt lat="44.20214" lon="0.71039">
        <ele>164</ele>
        <time>2022-08-07T06:59:54.065Z</time>
      </trkpt>
      <trkpt lat="44.20215" lon="0.7104">
        <ele>164</ele>
        <time>2022-08-07T06:59:55.065Z</time>
      </trkpt>
      <trkpt lat="44.20216" lon="0.71041">
        <ele>164</ele>
        <time>2022-08-07T06:59:56.065Z</time>
      </trkpt>
      <trkpt lat="44.20217" lon="0.71042">
        <ele>164</ele>
        <time>2022-08-07T06:59:57.065Z</time>
      </trkpt>
      <trkpt lat="44.20218" lon="0.71044">
        <ele>164</ele>
        <time>2022-08-07T06:59:58.065Z</time>
      </trkpt>
      <trkpt lat="44.20218" lon="0.71045">
        <ele>164</ele>
        <time>2022-08-07T06:59:59.065Z</time>
      </trkpt>
      <trkpt lat="44.20219" lon="0.71046">
        <ele>164</ele>
        <time>2022-08-07T07:00:00.065Z</time>
      </trkpt>
      <trkpt lat="44.2022" lon="0.71047">
        <ele>164</ele>
        <time>2022-08-07T07:00:01.065Z</time>
      </trkpt>
      <trkpt lat="44.20221" lon="0.71048">
        <ele>164</ele>
        <time>2022-08-07T07:00:02.065Z</time>
      </trkpt>
      <trkpt lat="44.20221" lon="0.71049">
        <ele>163</ele>
        <time>2022-08-07T07:00:03.065Z</time>
      </trkpt>
      <trkpt lat="44.20222" lon="0.7105">
        <ele>163</ele>
        <time>2022-08-07T07:00:04.065Z</time>
      </trkpt>
      <trkpt lat="44.20223" lon="0.71051">
        <ele>163</ele>
        <time>2022-08-07T07:00:05.065Z</time>
      </trkpt>
      <trkpt lat="44.20223" lon="0.71053">
        <ele>163</ele>
        <time>2022-08-07T07:00:06.065Z</time>
      </trkpt>
      <trkpt lat="44.20224" lon="0.71054">
        <ele>163</ele>
        <time>2022-08-07T07:00:07.065Z</time>
      </trkpt>
      <trkpt lat="44.20225" lon="0.71055">
        <ele>163</ele>
        <time>2022-08-07T07:00:08.065Z</time>
      </trkpt>
      <trkpt lat="44.20226" lon="0.71056">
        <ele>163</ele>
        <time>2022-08-07T07:00:09.065Z</time>
      </trkpt>
      <trkpt lat="44.20226" lon="0.71057">
        <ele>163</ele>
        <time>2022-08-07T07:00:10.065Z</time>
      </trkpt>
      <trkpt lat="44.20227" lon="0.71058">
        <ele>163</ele>
        <time>2022-08-07T07:00:11.065Z</time>
      </trkpt>
      <trkpt lat="44.20228" lon="0.71059">
        <ele>162</ele>
        <time>2022-08-07T07:00:12.065Z</time>
      </trkpt>
      <trkpt lat="44.20229" lon="0.7106">
        <ele>163</ele>
        <time>2022-08-07T07:00:13.065Z</time>
      </trkpt>
      <trkpt lat="44.20229" lon="0.71061">
        <ele>163</ele>
        <time>2022-08-07T07:00:14.065Z</time>
      </trkpt>
      <trkpt lat="44.2023" lon="0.71061">
        <ele>163</ele>
        <time>2022-08-07T07:00:15.065Z</time>
      </trkpt>
      <trkpt lat="44.2023" lon="0.71062">
        <ele>163</ele>
        <time>2022-08-07T07:00:16.065Z</time>
      </trkpt>
      <trkpt lat="44.2023" lon="0.71062">
        <ele>163</ele>
        <time>2022-08-07T07:00:17.065Z</time>
      </trkpt>
      <trkpt lat="44.2023" lon="0.71063">
        <ele>163</ele>
        <time>2022-08-07T07:00:18.065Z</time>
      </trkpt>
      <trkpt lat="44.20231" lon="0.71063">
        <ele>163</ele>
        <time>2022-08-07T07:00:19.065Z</time>
      </trkpt>
      <trkpt lat="44.20231" lon="0.71063">
        <ele>163</ele>
        <time>2022-08-07T07:00:20.065Z</time>
      </trkpt>
      <trkpt lat="44.20231" lon="0.71063">
        <ele>163</ele>
        <time>2022-08-07T07:00:21.065Z</time>
      </trkpt>
      <trkpt lat="44.20231" lon="0.71064">
        <ele>163</ele>
        <time>2022-08-07T07:00:22.065Z</time>
      </trkpt>
      <trkpt lat="44.20231" lon="0.71064">
        <ele>162</ele>
        <time>2022-08-07T07:00:23.065Z</time>
      </trkpt>
      <trkpt lat="44.20231" lon="0.71064">
        <ele>162</ele>
        <time>2022-08-07T07:00:24.065Z</time>
      </trkpt>
      <trkpt lat="44.20231" lon="0.71064">
        <ele>162</ele>
        <time>2022-08-07T07:00:25.065Z</time>
      </trkpt>
      <trkpt lat="44.2023" lon="0.71064">
        <ele>162</ele>
        <time>2022-08-07T07:00:26.065Z</time>
      </trkpt>
      <trkpt lat="44.2023" lon="0.71063">
        <ele>162</ele>
        <time>2022-08-07T07:00:27.065Z</time>
      </trkpt>
      <trkpt lat="44.2023" lon="0.71063">
        <ele>162</ele>
        <time>2022-08-07T07:00:28.065Z</time>
      </trkpt>
      <trkpt lat="44.2023" lon="0.71063">
        <ele>162</ele>
        <time>2022-08-07T07:00:29.065Z</time>
      </trkpt>
      <trkpt lat="44.20229" lon="0.71062">
        <ele>167</ele>
        <time>2022-08-07T07:02:42.077Z</time>
      </trkpt>
      <trkpt lat="44.20229" lon="0.71062">
        <ele>167</ele>
        <time>2022-08-07T07:02:43.077Z</time>
      </trkpt>
      <trkpt lat="44.20229" lon="0.71062">
        <ele>168</ele>
        <time>2022-08-07T07:02:44.077Z</time>
      </trkpt>
      <trkpt lat="44.20229" lon="0.71062">
        <ele>168</ele>
        <time>2022-08-07T07:02:45.077Z</time>
      </trkpt>
      <trkpt lat="44.20229" lon="0.71063">
        <ele>168</ele>
        <time>2022-08-07T07:02:46.077Z</time>
      </trkpt>
      <trkpt lat="44.20229" lon="0.71063">
        <ele>167</ele>
        <time>2022-08-07T07:02:47.077Z</time>
      </trkpt>
      <trkpt lat="44.20229" lon="0.71064">
        <ele>167</ele>
        <time>2022-08-07T07:02:48.077Z</time>
      </trkpt>
      <trkpt lat="44.20229" lon="0.71065">
        <ele>168</ele>
        <time>2022-08-07T07:02:49.077Z</time>
      </trkpt>
      <trkpt lat="44.20229" lon="0.71065">
        <ele>168</ele>
        <time>2022-08-07T07:02:50.077Z</time>
      </trkpt>
      <trkpt lat="44.20229" lon="0.71066">
        <ele>168</ele>
        <time>2022-08-07T07:02:51.077Z</time>
      </trkpt>
      <trkpt lat="44.20229" lon="0.71067">
        <ele>168</ele>
        <time>2022-08-07T07:02:52.077Z</time>
      </trkpt>
      <trkpt lat="44.20229" lon="0.71067">
        <ele>168</ele>
        <time>2022-08-07T07:02:53.077Z</time>
      </trkpt>
      <trkpt lat="44.20229" lon="0.71068">
        <ele>168</ele>
        <time>2022-08-07T07:02:54.077Z</time>
      </trkpt>
      <trkpt lat="44.20229" lon="0.71069">
        <ele>167</ele>
        <time>2022-08-07T07:02:55.077Z</time>
      </trkpt>
      <trkpt lat="44.20228" lon="0.7107">
        <ele>167</ele>
        <time>2022-08-07T07:02:56.077Z</time>
      </trkpt>
      <trkpt lat="44.20227" lon="0.71071">
        <ele>167</ele>
        <time>2022-08-07T07:02:57.077Z</time>
      </trkpt>
      <trkpt lat="44.20227" lon="0.71071">
        <ele>167</ele>
        <time>2022-08-07T07:02:58.077Z</time>
      </trkpt>
      <trkpt lat="44.20227" lon="0.71072">
        <ele>167</ele>
        <time>2022-08-07T07:02:59.077Z</time>
      </trkpt>
      <trkpt lat="44.20227" lon="0.71073">
        <ele>166</ele>
        <time>2022-08-07T07:03:00.077Z</time>
      </trkpt>
      <trkpt lat="44.20226" lon="0.71074">
        <ele>167</ele>
        <time>2022-08-07T07:03:01.077Z</time>
      </trkpt>
      <trkpt lat="44.20226" lon="0.71074">
        <ele>167</ele>
        <time>2022-08-07T07:03:02.077Z</time>
      </trkpt>
      <trkpt lat="44.20226" lon="0.71075">
        <ele>166</ele>
        <time>2022-08-07T07:03:03.077Z</time>
      </trkpt>
      <trkpt lat="44.20225" lon="0.71076">
        <ele>167</ele>
        <time>2022-08-07T07:03:04.077Z</time>
      </trkpt>
      <trkpt lat="44.20225" lon="0.71077">
        <ele>167</ele>
        <time>2022-08-07T07:03:05.077Z</time>
      </trkpt>
      <trkpt lat="44.20224" lon="0.71077">
        <ele>166</ele>
        <time>2022-08-07T07:03:06.077Z</time>
      </trkpt>
      <trkpt lat="44.20223" lon="0.71078">
        <ele>165</ele>
        <time>2022-08-07T07:03:07.077Z</time>
      </trkpt>
      <trkpt lat="44.20223" lon="0.71079">
        <ele>165</ele>
        <time>2022-08-07T07:03:08.077Z</time>
      </trkpt>
      <trkpt lat="44.20222" lon="0.7108">
        <ele>165</ele>
        <time>2022-08-07T07:03:09.077Z</time>
      </trkpt>
      <trkpt lat="44.20222" lon="0.71081">
        <ele>165</ele>
        <time>2022-08-07T07:03:10.077Z</time>
      </trkpt>
      <trkpt lat="44.20222" lon="0.71082">
        <ele>164</ele>
        <time>2022-08-07T07:03:11.077Z</time>
      </trkpt>
      <trkpt lat="44.20222" lon="0.71083">
        <ele>164</ele>
        <time>2022-08-07T07:03:12.077Z</time>
      </trkpt>
      <trkpt lat="44.20222" lon="0.71084">
        <ele>164</ele>
        <time>2022-08-07T07:03:13.077Z</time>
      </trkpt>
      <trkpt lat="44.20222" lon="0.71086">
        <ele>164</ele>
        <time>2022-08-07T07:03:14.077Z</time>
      </trkpt>
      <trkpt lat="44.20223" lon="0.71087">
        <ele>164</ele>
        <time>2022-08-07T07:03:15.077Z</time>
      </trkpt>
      <trkpt lat="44.20223" lon="0.71088">
        <ele>164</ele>
        <time>2022-08-07T07:03:16.077Z</time>
      </trkpt>
      <trkpt lat="44.20223" lon="0.71089">
        <ele>164</ele>
        <time>2022-08-07T07:03:17.077Z</time>
      </trkpt>
      <trkpt lat="44.20222" lon="0.7109">
        <ele>163</ele>
        <time>2022-08-07T07:03:18.077Z</time>
      </trkpt>
      <trkpt lat="44.20222" lon="0.71091">
        <ele>163</ele>
        <time>2022-08-07T07:03:19.077Z</time>
      </trkpt>
      <trkpt lat="44.20222" lon="0.71093">
        <ele>163</ele>
        <time>2022-08-07T07:03:20.077Z</time>
      </trkpt>
      <trkpt lat="44.20222" lon="0.71094">
        <ele>162</ele>
        <time>2022-08-07T07:03:21.077Z</time>
      </trkpt>
      <trkpt lat="44.20221" lon="0.71094">
        <ele>162</ele>
        <time>2022-08-07T07:03:22.077Z</time>
      </trkpt>
      <trkpt lat="44.2022" lon="0.71095">
        <ele>162</ele>
        <time>2022-08-07T07:03:23.077Z</time>
      </trkpt>
      <trkpt lat="44.2022" lon="0.71096">
        <ele>161</ele>
        <time>2022-08-07T07:03:24.077Z</time>
      </trkpt>
      <trkpt lat="44.20219" lon="0.71097">
        <ele>160</ele>
        <time>2022-08-07T07:03:25.077Z</time>
      </trkpt>
      <trkpt lat="44.20219" lon="0.71098">
        <ele>160</ele>
        <time>2022-08-07T07:03:26.077Z</time>
      </trkpt>
      <trkpt lat="44.20219" lon="0.71099">
        <ele>160</ele>
        <time>2022-08-07T07:03:27.077Z</time>
      </trkpt>
      <trkpt lat="44.20219" lon="0.711">
        <ele>161</ele>
        <time>2022-08-07T07:03:28.077Z</time>
      </trkpt>
      <trkpt lat="44.20218" lon="0.71101">
        <ele>160</ele>
        <time>2022-08-07T07:03:29.077Z</time>
      </trkpt>
      <trkpt lat="44.20218" lon="0.71102">
        <ele>160</ele>
        <time>2022-08-07T07:03:30.077Z</time>
      </trkpt>
      <trkpt lat="44.20218" lon="0.71102">
        <ele>160</ele>
        <time>2022-08-07T07:03:31.077Z</time>
      </trkpt>
      <trkpt lat="44.20217" lon="0.71104">
        <ele>160</ele>
        <time>2022-08-07T07:03:32.077Z</time>
      </trkpt>
      <trkpt lat="44.20217" lon="0.71105">
        <ele>160</ele>
        <time>2022-08-07T07:03:33.077Z</time>
      </trkpt>
      <trkpt lat="44.20217" lon="0.71107">
        <ele>160</ele>
        <time>2022-08-07T07:03:34.077Z</time>
      </trkpt>
      <trkpt lat="44.20217" lon="0.71108">
        <ele>160</ele>
        <time>2022-08-07T07:03:35.077Z</time>
      </trkpt>
      <trkpt lat="44.20217" lon="0.71109">
        <ele>160</ele>
        <time>2022-08-07T07:03:36.077Z</time>
      </trkpt>
      <trkpt lat="44.20217" lon="0.7111">
        <ele>160</ele>
        <time>2022-08-07T07:03:37.077Z</time>
      </trkpt>
      <trkpt lat="44.20217" lon="0.71111">
        <ele>160</ele>
        <time>2022-08-07T07:03:38.077Z</time>
      </trkpt>
      <trkpt lat="44.20217" lon="0.71112">
        <ele>160</ele>
        <time>2022-08-07T07:03:39.077Z</time>
      </trkpt>
      <trkpt lat="44.20217" lon="0.71113">
        <ele>160</ele>
        <time>2022-08-07T07:03:40.077Z</time>
      </trkpt>
      <trkpt lat="44.20217" lon="0.71114">
        <ele>160</ele>
        <time>2022-08-07T07:03:41.077Z</time>
      </trkpt>
      <trkpt lat="44.20216" lon="0.71115">
        <ele>159</ele>
        <time>2022-08-07T07:03:42.077Z</time>
      </trkpt>
      <trkpt lat="44.20216" lon="0.71116">
        <ele>159</ele>
        <time>2022-08-07T07:03:43.077Z</time>
      </trkpt>
      <trkpt lat="44.20216" lon="0.71117">
        <ele>159</ele>
        <time>2022-08-07T07:03:44.077Z</time>
      </trkpt>
      <trkpt lat="44.20216" lon="0.71119">
        <ele>160</ele>
        <time>2022-08-07T07:03:45.077Z</time>
      </trkpt>
      <trkpt lat="44.20216" lon="0.7112">
        <ele>160</ele>
        <time>2022-08-07T07:03:46.077Z</time>
      </trkpt>
      <trkpt lat="44.20217" lon="0.71121">
        <ele>161</ele>
        <time>2022-08-07T07:03:47.077Z</time>
      </trkpt>
      <trkpt lat="44.20216" lon="0.71123">
        <ele>160</ele>
        <time>2022-08-07T07:03:48.077Z</time>
      </trkpt>
      <trkpt lat="44.20216" lon="0.71125">
        <ele>161</ele>
        <time>2022-08-07T07:03:49.077Z</time>
      </trkpt>
      <trkpt lat="44.20215" lon="0.71126">
        <ele>160</ele>
        <time>2022-08-07T07:03:50.077Z</time>
      </trkpt>
      <trkpt lat="44.20214" lon="0.71128">
        <ele>160</ele>
        <time>2022-08-07T07:03:51.077Z</time>
      </trkpt>
      <trkpt lat="44.20213" lon="0.71129">
        <ele>160</ele>
        <time>2022-08-07T07:03:52.077Z</time>
      </trkpt>
      <trkpt lat="44.20213" lon="0.7113">
        <ele>160</ele>
        <time>2022-08-07T07:03:53.077Z</time>
      </trkpt>
      <trkpt lat="44.20212" lon="0.71131">
        <ele>160</ele>
        <time>2022-08-07T07:03:54.077Z</time>
      </trkpt>
      <trkpt lat="44.20212" lon="0.71132">
        <ele>160</ele>
        <time>2022-08-07T07:03:55.077Z</time>
      </trkpt>
      <trkpt lat="44.20211" lon="0.71133">
        <ele>160</ele>
        <time>2022-08-07T07:03:56.077Z</time>
      </trkpt>
      <trkpt lat="44.2021" lon="0.71134">
        <ele>160</ele>
        <time>2022-08-07T07:03:57.077Z</time>
      </trkpt>
      <trkpt lat="44.20209" lon="0.71136">
        <ele>160</ele>
        <time>2022-08-07T07:03:58.077Z</time>
      </trkpt>
      <trkpt lat="44.20208" lon="0.71137">
        <ele>160</ele>
        <time>2022-08-07T07:03:59.077Z</time>
      </trkpt>
      <trkpt lat="44.20207" lon="0.71138">
        <ele>160</ele>
        <time>2022-08-07T07:04:00.077Z</time>
      </trkpt>
      <trkpt lat="44.20206" lon="0.71138">
        <ele>158</ele>
        <time>2022-08-07T07:04:01.077Z</time>
      </trkpt>
      <trkpt lat="44.20205" lon="0.71139">
        <ele>159</ele>
        <time>2022-08-07T07:04:02.077Z</time>
      </trkpt>
      <trkpt lat="44.20204" lon="0.7114">
        <ele>158</ele>
        <time>2022-08-07T07:04:03.077Z</time>
      </trkpt>
      <trkpt lat="44.20203" lon="0.7114">
        <ele>158</ele>
        <time>2022-08-07T07:04:04.077Z</time>
      </trkpt>
      <trkpt lat="44.20202" lon="0.71141">
        <ele>159</ele>
        <time>2022-08-07T07:04:05.077Z</time>
      </trkpt>
      <trkpt lat="44.20201" lon="0.71141">
        <ele>158</ele>
        <time>2022-08-07T07:04:06.077Z</time>
      </trkpt>
      <trkpt lat="44.202" lon="0.71141">
        <ele>159</ele>
        <time>2022-08-07T07:04:07.077Z</time>
      </trkpt>
      <trkpt lat="44.20199" lon="0.71142">
        <ele>159</ele>
        <time>2022-08-07T07:04:08.077Z</time>
      </trkpt>
      <trkpt lat="44.20198" lon="0.71142">
        <ele>159</ele>
        <time>2022-08-07T07:04:09.077Z</time>
      </trkpt>
      <trkpt lat="44.20197" lon="0.71143">
        <ele>160</ele>
        <time>2022-08-07T07:04:10.077Z</time>
      </trkpt>
      <trkpt lat="44.20196" lon="0.71143">
        <ele>160</ele>
        <time>2022-08-07T07:04:11.077Z</time>
      </trkpt>
      <trkpt lat="44.20195" lon="0.71143">
        <ele>160</ele>
        <time>2022-08-07T07:04:12.077Z</time>
      </trkpt>
      <trkpt lat="44.20194" lon="0.71144">
        <ele>160</ele>
        <time>2022-08-07T07:04:13.077Z</time>
      </trkpt>
      <trkpt lat="44.20193" lon="0.71144">
        <ele>160</ele>
        <time>2022-08-07T07:04:14.077Z</time>
      </trkpt>
      <trkpt lat="44.20192" lon="0.71144">
        <ele>160</ele>
        <time>2022-08-07T07:04:15.077Z</time>
      </trkpt>
      <trkpt lat="44.20191" lon="0.71144">
        <ele>161</ele>
        <time>2022-08-07T07:04:16.077Z</time>
      </trkpt>
      <trkpt lat="44.2019" lon="0.71144">
        <ele>162</ele>
        <time>2022-08-07T07:04:17.077Z</time>
      </trkpt>
      <trkpt lat="44.2019" lon="0.71143">
        <ele>162</ele>
        <time>2022-08-07T07:04:18.077Z</time>
      </trkpt>
      <trkpt lat="44.20189" lon="0.71143">
        <ele>162</ele>
        <time>2022-08-07T07:04:19.077Z</time>
      </trkpt>
      <trkpt lat="44.20188" lon="0.71143">
        <ele>161</ele>
        <time>2022-08-07T07:04:20.077Z</time>
      </trkpt>
      <trkpt lat="44.20187" lon="0.71142">
        <ele>161</ele>
        <time>2022-08-07T07:04:21.077Z</time>
      </trkpt>
      <trkpt lat="44.20185" lon="0.71142">
        <ele>162</ele>
        <time>2022-08-07T07:04:22.077Z</time>
      </trkpt>
      <trkpt lat="44.20184" lon="0.71141">
        <ele>162</ele>
        <time>2022-08-07T07:04:23.077Z</time>
      </trkpt>
      <trkpt lat="44.20183" lon="0.71141">
        <ele>162</ele>
        <time>2022-08-07T07:04:24.077Z</time>
      </trkpt>
      <trkpt lat="44.20182" lon="0.71141">
        <ele>163</ele>
        <time>2022-08-07T07:04:25.077Z</time>
      </trkpt>
      <trkpt lat="44.2018" lon="0.71141">
        <ele>163</ele>
        <time>2022-08-07T07:04:26.077Z</time>
      </trkpt>
      <trkpt lat="44.20179" lon="0.71141">
        <ele>163</ele>
        <time>2022-08-07T07:04:27.077Z</time>
      </trkpt>
      <trkpt lat="44.20178" lon="0.71141">
        <ele>163</ele>
        <time>2022-08-07T07:04:28.077Z</time>
      </trkpt>
      <trkpt lat="44.20177" lon="0.71141">
        <ele>163</ele>
        <time>2022-08-07T07:04:29.077Z</time>
      </trkpt>
      <trkpt lat="44.20176" lon="0.71141">
        <ele>163</ele>
        <time>2022-08-07T07:04:30.077Z</time>
      </trkpt>
      <trkpt lat="44.20175" lon="0.7114">
        <ele>164</ele>
        <time>2022-08-07T07:04:31.077Z</time>
      </trkpt>
      <trkpt lat="44.20174" lon="0.71139">
        <ele>166</ele>
        <time>2022-08-07T07:04:32.077Z</time>
      </trkpt>
      <trkpt lat="44.20173" lon="0.71138">
        <ele>166</ele>
        <time>2022-08-07T07:04:33.077Z</time>
      </trkpt>
      <trkpt lat="44.20172" lon="0.71137">
        <ele>167</ele>
        <time>2022-08-07T07:04:34.077Z</time>
      </trkpt>
      <trkpt lat="44.20171" lon="0.71136">
        <ele>167</ele>
        <time>2022-08-07T07:04:35.077Z</time>
      </trkpt>
      <trkpt lat="44.20171" lon="0.71136">
        <ele>167</ele>
        <time>2022-08-07T07:04:36.077Z</time>
      </trkpt>
      <trkpt lat="44.20171" lon="0.71135">
        <ele>167</ele>
        <time>2022-08-07T07:04:37.077Z</time>
      </trkpt>
      <trkpt lat="44.2017" lon="0.71135">
        <ele>167</ele>
        <time>2022-08-07T07:04:38.077Z</time>
      </trkpt>
      <trkpt lat="44.2017" lon="0.71134">
        <ele>168</ele>
        <time>2022-08-07T07:04:39.077Z</time>
      </trkpt>
      <trkpt lat="44.20169" lon="0.71134">
        <ele>169</ele>
        <time>2022-08-07T07:04:40.077Z</time>
      </trkpt>
      <trkpt lat="44.20169" lon="0.71133">
        <ele>168</ele>
        <time>2022-08-07T07:04:41.077Z</time>
      </trkpt>
      <trkpt lat="44.20168" lon="0.71133">
        <ele>169</ele>
        <time>2022-08-07T07:04:42.077Z</time>
      </trkpt>
      <trkpt lat="44.20168" lon="0.71133">
        <ele>169</ele>
        <time>2022-08-07T07:04:43.077Z</time>
      </trkpt>
      <trkpt lat="44.20167" lon="0.71133">
        <ele>169</ele>
        <time>2022-08-07T07:04:44.077Z</time>
      </trkpt>
      <trkpt lat="44.20167" lon="0.71133">
        <ele>169</ele>
        <time>2022-08-07T07:04:45.077Z</time>
      </trkpt>
      <trkpt lat="44.20165" lon="0.71132">
        <ele>169</ele>
        <time>2022-08-07T07:04:46.077Z</time>
      </trkpt>
      <trkpt lat="44.20164" lon="0.71132">
        <ele>169</ele>
        <time>2022-08-07T07:04:47.077Z</time>
      </trkpt>
      <trkpt lat="44.20164" lon="0.71132">
        <ele>169</ele>
        <time>2022-08-07T07:04:48.077Z</time>
      </trkpt>
      <trkpt lat="44.20163" lon="0.71132">
        <ele>169</ele>
        <time>2022-08-07T07:04:49.077Z</time>
      </trkpt>
      <trkpt lat="44.20162" lon="0.71132">
        <ele>170</ele>
        <time>2022-08-07T07:04:50.077Z</time>
      </trkpt>
      <trkpt lat="44.20161" lon="0.71133">
        <ele>170</ele>
        <time>2022-08-07T07:04:51.077Z</time>
      </trkpt>
      <trkpt lat="44.2016" lon="0.71133">
        <ele>170</ele>
        <time>2022-08-07T07:04:52.077Z</time>
      </trkpt>
      <trkpt lat="44.2016" lon="0.71134">
        <ele>171</ele>
        <time>2022-08-07T07:04:53.077Z</time>
      </trkpt>
      <trkpt lat="44.20159" lon="0.71134">
        <ele>170</ele>
        <time>2022-08-07T07:04:54.077Z</time>
      </trkpt>
      <trkpt lat="44.20159" lon="0.71135">
        <ele>170</ele>
        <time>2022-08-07T07:04:55.077Z</time>
      </trkpt>
      <trkpt lat="44.20158" lon="0.71135">
        <ele>169</ele>
        <time>2022-08-07T07:04:56.077Z</time>
      </trkpt>
      <trkpt lat="44.20158" lon="0.71136">
        <ele>169</ele>
        <time>2022-08-07T07:04:57.077Z</time>
      </trkpt>
      <trkpt lat="44.20157" lon="0.71136">
        <ele>169</ele>
        <time>2022-08-07T07:04:58.077Z</time>
      </trkpt>
      <trkpt lat="44.20156" lon="0.71137">
        <ele>169</ele>
        <time>2022-08-07T07:04:59.077Z</time>
      </trkpt>
      <trkpt lat="44.20156" lon="0.71138">
        <ele>169</ele>
        <time>2022-08-07T07:05:00.077Z</time>
      </trkpt>
      <trkpt lat="44.20155" lon="0.71138">
        <ele>168</ele>
        <time>2022-08-07T07:05:01.077Z</time>
      </trkpt>
      <trkpt lat="44.20155" lon="0.71139">
        <ele>168</ele>
        <time>2022-08-07T07:05:02.077Z</time>
      </trkpt>
      <trkpt lat="44.20155" lon="0.7114">
        <ele>168</ele>
        <time>2022-08-07T07:05:03.077Z</time>
      </trkpt>
      <trkpt lat="44.20154" lon="0.71141">
        <ele>167</ele>
        <time>2022-08-07T07:05:04.077Z</time>
      </trkpt>
      <trkpt lat="44.20154" lon="0.71142">
        <ele>166</ele>
        <time>2022-08-07T07:05:05.077Z</time>
      </trkpt>
      <trkpt lat="44.20154" lon="0.71143">
        <ele>167</ele>
        <time>2022-08-07T07:05:06.077Z</time>
      </trkpt>
      <trkpt lat="44.20153" lon="0.71144">
        <ele>167</ele>
        <time>2022-08-07T07:05:07.077Z</time>
      </trkpt>
      <trkpt lat="44.20152" lon="0.71145">
        <ele>166</ele>
        <time>2022-08-07T07:05:08.077Z</time>
      </trkpt>
      <trkpt lat="44.20152" lon="0.71146">
        <ele>166</ele>
        <time>2022-08-07T07:05:09.077Z</time>
      </trkpt>
      <trkpt lat="44.20151" lon="0.71147">
        <ele>166</ele>
        <time>2022-08-07T07:05:10.077Z</time>
      </trkpt>
      <trkpt lat="44.2015" lon="0.71148">
        <ele>166</ele>
        <time>2022-08-07T07:05:11.077Z</time>
      </trkpt>
      <trkpt lat="44.20149" lon="0.71149">
        <ele>166</ele>
        <time>2022-08-07T07:05:12.077Z</time>
      </trkpt>
      <trkpt lat="44.20149" lon="0.7115">
        <ele>166</ele>
        <time>2022-08-07T07:05:13.077Z</time>
      </trkpt>
      <trkpt lat="44.20148" lon="0.71151">
        <ele>166</ele>
        <time>2022-08-07T07:05:14.077Z</time>
      </trkpt>
      <trkpt lat="44.20148" lon="0.71152">
        <ele>167</ele>
        <time>2022-08-07T07:05:15.077Z</time>
      </trkpt>
      <trkpt lat="44.20148" lon="0.71153">
        <ele>167</ele>
        <time>2022-08-07T07:05:16.077Z</time>
      </trkpt>
      <trkpt lat="44.20147" lon="0.71154">
        <ele>166</ele>
        <time>2022-08-07T07:05:17.077Z</time>
      </trkpt>
      <trkpt lat="44.20146" lon="0.71155">
        <ele>163</ele>
        <time>2022-08-07T07:05:18.077Z</time>
      </trkpt>
      <trkpt lat="44.20145" lon="0.71156">
        <ele>162</ele>
        <time>2022-08-07T07:05:19.077Z</time>
      </trkpt>
      <trkpt lat="44.20144" lon="0.71158">
        <ele>162</ele>
        <time>2022-08-07T07:05:20.077Z</time>
      </trkpt>
      <trkpt lat="44.20144" lon="0.71159">
        <ele>162</ele>
        <time>2022-08-07T07:05:21.077Z</time>
      </trkpt>
      <trkpt lat="44.20143" lon="0.7116">
        <ele>162</ele>
        <time>2022-08-07T07:05:22.077Z</time>
      </trkpt>
      <trkpt lat="44.20143" lon="0.71161">
        <ele>162</ele>
        <time>2022-08-07T07:05:23.077Z</time>
      </trkpt>
      <trkpt lat="44.20143" lon="0.71162">
        <ele>162</ele>
        <time>2022-08-07T07:05:24.077Z</time>
      </trkpt>
      <trkpt lat="44.20143" lon="0.71164">
        <ele>162</ele>
        <time>2022-08-07T07:05:25.077Z</time>
      </trkpt>
      <trkpt lat="44.20143" lon="0.71165">
        <ele>161</ele>
        <time>2022-08-07T07:05:26.077Z</time>
      </trkpt>
      <trkpt lat="44.20143" lon="0.71166">
        <ele>161</ele>
        <time>2022-08-07T07:05:27.077Z</time>
      </trkpt>
      <trkpt lat="44.20143" lon="0.71168">
        <ele>161</ele>
        <time>2022-08-07T07:05:28.077Z</time>
      </trkpt>
      <trkpt lat="44.20142" lon="0.71169">
        <ele>161</ele>
        <time>2022-08-07T07:05:29.077Z</time>
      </trkpt>
      <trkpt lat="44.20142" lon="0.7117">
        <ele>160</ele>
        <time>2022-08-07T07:05:30.077Z</time>
      </trkpt>
      <trkpt lat="44.20142" lon="0.71171">
        <ele>159</ele>
        <time>2022-08-07T07:05:31.077Z</time>
      </trkpt>
      <trkpt lat="44.20142" lon="0.71172">
        <ele>159</ele>
        <time>2022-08-07T07:05:32.077Z</time>
      </trkpt>
      <trkpt lat="44.20142" lon="0.71173">
        <ele>159</ele>
        <time>2022-08-07T07:05:33.077Z</time>
      </trkpt>
      <trkpt lat="44.20142" lon="0.71175">
        <ele>159</ele>
        <time>2022-08-07T07:05:34.077Z</time>
      </trkpt>
      <trkpt lat="44.20142" lon="0.71176">
        <ele>159</ele>
        <time>2022-08-07T07:05:35.077Z</time>
      </trkpt>
      <trkpt lat="44.20142" lon="0.71177">
        <ele>159</ele>
        <time>2022-08-07T07:05:36.077Z</time>
      </trkpt>
      <trkpt lat="44.20142" lon="0.71178">
        <ele>158</ele>
        <time>2022-08-07T07:05:37.077Z</time>
      </trkpt>
      <trkpt lat="44.20142" lon="0.71179">
        <ele>158</ele>
        <time>2022-08-07T07:05:38.077Z</time>
      </trkpt>
      <trkpt lat="44.20142" lon="0.7118">
        <ele>157</ele>
        <time>2022-08-07T07:05:39.077Z</time>
      </trkpt>
      <trkpt lat="44.20142" lon="0.71182">
        <ele>158</ele>
        <time>2022-08-07T07:05:40.077Z</time>
      </trkpt>
      <trkpt lat="44.20142" lon="0.71183">
        <ele>157</ele>
        <time>2022-08-07T07:05:41.077Z</time>
      </trkpt>
      <trkpt lat="44.20142" lon="0.71185">
        <ele>157</ele>
        <time>2022-08-07T07:05:42.077Z</time>
      </trkpt>
      <trkpt lat="44.20142" lon="0.71187">
        <ele>158</ele>
        <time>2022-08-07T07:05:43.077Z</time>
      </trkpt>
      <trkpt lat="44.20142" lon="0.71189">
        <ele>158</ele>
        <time>2022-08-07T07:05:44.077Z</time>
      </trkpt>
      <trkpt lat="44.20141" lon="0.71191">
        <ele>157</ele>
        <time>2022-08-07T07:05:45.077Z</time>
      </trkpt>
      <trkpt lat="44.2014" lon="0.71192">
        <ele>155</ele>
        <time>2022-08-07T07:05:46.077Z</time>
      </trkpt>
      <trkpt lat="44.20139" lon="0.71193">
        <ele>154</ele>
        <time>2022-08-07T07:05:47.077Z</time>
      </trkpt>
      <trkpt lat="44.20137" lon="0.71195">
        <ele>152</ele>
        <time>2022-08-07T07:05:48.077Z</time>
      </trkpt>
      <trkpt lat="44.20136" lon="0.71195">
        <ele>151</ele>
        <time>2022-08-07T07:05:49.077Z</time>
      </trkpt>
      <trkpt lat="44.20135" lon="0.71196">
        <ele>151</ele>
        <time>2022-08-07T07:05:50.077Z</time>
      </trkpt>
      <trkpt lat="44.20134" lon="0.71196">
        <ele>151</ele>
        <time>2022-08-07T07:05:51.077Z</time>
      </trkpt>
      <trkpt lat="44.20133" lon="0.71197">
        <ele>151</ele>
        <time>2022-08-07T07:05:52.077Z</time>
      </trkpt>
      <trkpt lat="44.20132" lon="0.71197">
        <ele>151</ele>
        <time>2022-08-07T07:05:53.077Z</time>
      </trkpt>
      <trkpt lat="44.20131" lon="0.71198">
        <ele>151</ele>
        <time>2022-08-07T07:05:54.077Z</time>
      </trkpt>
      <trkpt lat="44.2013" lon="0.71199">
        <ele>151</ele>
        <time>2022-08-07T07:05:55.077Z</time>
      </trkpt>
      <trkpt lat="44.20129" lon="0.712">
        <ele>151</ele>
        <time>2022-08-07T07:05:56.077Z</time>
      </trkpt>
      <trkpt lat="44.20129" lon="0.71201">
        <ele>152</ele>
        <time>2022-08-07T07:05:57.077Z</time>
      </trkpt>
      <trkpt lat="44.20128" lon="0.71202">
        <ele>153</ele>
        <time>2022-08-07T07:05:58.077Z</time>
      </trkpt>
      <trkpt lat="44.20127" lon="0.71203">
        <ele>153</ele>
        <time>2022-08-07T07:05:59.077Z</time>
      </trkpt>
      <trkpt lat="44.20126" lon="0.71205">
        <ele>154</ele>
        <time>2022-08-07T07:06:00.077Z</time>
      </trkpt>
      <trkpt lat="44.20125" lon="0.71207">
        <ele>155</ele>
        <time>2022-08-07T07:06:01.077Z</time>
      </trkpt>
      <trkpt lat="44.20124" lon="0.71208">
        <ele>157</ele>
        <time>2022-08-07T07:06:02.077Z</time>
      </trkpt>
      <trkpt lat="44.20123" lon="0.7121">
        <ele>157</ele>
        <time>2022-08-07T07:06:03.077Z</time>
      </trkpt>
      <trkpt lat="44.20123" lon="0.71211">
        <ele>158</ele>
        <time>2022-08-07T07:06:04.077Z</time>
      </trkpt>
      <trkpt lat="44.20122" lon="0.71212">
        <ele>158</ele>
        <time>2022-08-07T07:06:05.077Z</time>
      </trkpt>
      <trkpt lat="44.2012" lon="0.71212">
        <ele>158</ele>
        <time>2022-08-07T07:06:06.077Z</time>
      </trkpt>
      <trkpt lat="44.20119" lon="0.71213">
        <ele>159</ele>
        <time>2022-08-07T07:06:07.077Z</time>
      </trkpt>
      <trkpt lat="44.20118" lon="0.71214">
        <ele>160</ele>
        <time>2022-08-07T07:06:08.077Z</time>
      </trkpt>
      <trkpt lat="44.20117" lon="0.71214">
        <ele>160</ele>
        <time>2022-08-07T07:06:09.077Z</time>
      </trkpt>
      <trkpt lat="44.20116" lon="0.71215">
        <ele>161</ele>
        <time>2022-08-07T07:06:10.077Z</time>
      </trkpt>
      <trkpt lat="44.20115" lon="0.71216">
        <ele>162</ele>
        <time>2022-08-07T07:06:11.077Z</time>
      </trkpt>
      <trkpt lat="44.20115" lon="0.71216">
        <ele>163</ele>
        <time>2022-08-07T07:06:12.077Z</time>
      </trkpt>
      <trkpt lat="44.20114" lon="0.71217">
        <ele>163</ele>
        <time>2022-08-07T07:06:13.077Z</time>
      </trkpt>
      <trkpt lat="44.20113" lon="0.71218">
        <ele>163</ele>
        <time>2022-08-07T07:06:14.077Z</time>
      </trkpt>
      <trkpt lat="44.20112" lon="0.71218">
        <ele>163</ele>
        <time>2022-08-07T07:06:15.077Z</time>
      </trkpt>
      <trkpt lat="44.20112" lon="0.71218">
        <ele>163</ele>
        <time>2022-08-07T07:06:16.077Z</time>
      </trkpt>
      <trkpt lat="44.2011" lon="0.71219">
        <ele>162</ele>
        <time>2022-08-07T07:06:17.077Z</time>
      </trkpt>
      <trkpt lat="44.20109" lon="0.7122">
        <ele>161</ele>
        <time>2022-08-07T07:06:18.077Z</time>
      </trkpt>
      <trkpt lat="44.20108" lon="0.7122">
        <ele>161</ele>
        <time>2022-08-07T07:06:19.077Z</time>
      </trkpt>
      <trkpt lat="44.20108" lon="0.71221">
        <ele>161</ele>
        <time>2022-08-07T07:06:20.077Z</time>
      </trkpt>
      <trkpt lat="44.20107" lon="0.71221">
        <ele>161</ele>
        <time>2022-08-07T07:06:21.077Z</time>
      </trkpt>
      <trkpt lat="44.20107" lon="0.71222">
        <ele>162</ele>
        <time>2022-08-07T07:06:22.077Z</time>
      </trkpt>
      <trkpt lat="44.20106" lon="0.71223">
        <ele>162</ele>
        <time>2022-08-07T07:06:23.077Z</time>
      </trkpt>
      <trkpt lat="44.20106" lon="0.71224">
        <ele>162</ele>
        <time>2022-08-07T07:06:24.077Z</time>
      </trkpt>
      <trkpt lat="44.20106" lon="0.71225">
        <ele>162</ele>
        <time>2022-08-07T07:06:25.077Z</time>
      </trkpt>
      <trkpt lat="44.20105" lon="0.71226">
        <ele>161</ele>
        <time>2022-08-07T07:06:26.077Z</time>
      </trkpt>
      <trkpt lat="44.20105" lon="0.71227">
        <ele>161</ele>
        <time>2022-08-07T07:06:27.077Z</time>
      </trkpt>
      <trkpt lat="44.20105" lon="0.71228">
        <ele>161</ele>
        <time>2022-08-07T07:06:28.077Z</time>
      </trkpt>
      <trkpt lat="44.20105" lon="0.7123">
        <ele>161</ele>
        <time>2022-08-07T07:06:29.077Z</time>
      </trkpt>
      <trkpt lat="44.20105" lon="0.71231">
        <ele>161</ele>
        <time>2022-08-07T07:06:30.077Z</time>
      </trkpt>
      <trkpt lat="44.20105" lon="0.71233">
        <ele>161</ele>
        <time>2022-08-07T07:06:31.077Z</time>
      </trkpt>
      <trkpt lat="44.20105" lon="0.71234">
        <ele>161</ele>
        <time>2022-08-07T07:06:32.077Z</time>
      </trkpt>
      <trkpt lat="44.20105" lon="0.71234">
        <ele>161</ele>
        <time>2022-08-07T07:06:33.077Z</time>
      </trkpt>
      <trkpt lat="44.20105" lon="0.71235">
        <ele>162</ele>
        <time>2022-08-07T07:06:34.077Z</time>
      </trkpt>
      <trkpt lat="44.20105" lon="0.71236">
        <ele>163</ele>
        <time>2022-08-07T07:06:35.077Z</time>
      </trkpt>
      <trkpt lat="44.20106" lon="0.71237">
        <ele>163</ele>
        <time>2022-08-07T07:06:36.077Z</time>
      </trkpt>
      <trkpt lat="44.20106" lon="0.71239">
        <ele>164</ele>
        <time>2022-08-07T07:06:37.077Z</time>
      </trkpt>
      <trkpt lat="44.20106" lon="0.7124">
        <ele>164</ele>
        <time>2022-08-07T07:06:38.077Z</time>
      </trkpt>
      <trkpt lat="44.20107" lon="0.71241">
        <ele>164</ele>
        <time>2022-08-07T07:06:39.077Z</time>
      </trkpt>
      <trkpt lat="44.20107" lon="0.71242">
        <ele>165</ele>
        <time>2022-08-07T07:06:40.077Z</time>
      </trkpt>
      <trkpt lat="44.20108" lon="0.71244">
        <ele>165</ele>
        <time>2022-08-07T07:06:41.077Z</time>
      </trkpt>
      <trkpt lat="44.20108" lon="0.71246">
        <ele>165</ele>
        <time>2022-08-07T07:06:42.077Z</time>
      </trkpt>
      <trkpt lat="44.20108" lon="0.71248">
        <ele>166</ele>
        <time>2022-08-07T07:06:43.077Z</time>
      </trkpt>
      <trkpt lat="44.20108" lon="0.71249">
        <ele>166</ele>
        <time>2022-08-07T07:06:44.077Z</time>
      </trkpt>
      <trkpt lat="44.20109" lon="0.71251">
        <ele>165</ele>
        <time>2022-08-07T07:06:45.077Z</time>
      </trkpt>
      <trkpt lat="44.20109" lon="0.71252">
        <ele>166</ele>
        <time>2022-08-07T07:06:46.077Z</time>
      </trkpt>
      <trkpt lat="44.20109" lon="0.71253">
        <ele>166</ele>
        <time>2022-08-07T07:06:47.077Z</time>
      </trkpt>
      <trkpt lat="44.20109" lon="0.71255">
        <ele>165</ele>
        <time>2022-08-07T07:06:48.077Z</time>
      </trkpt>
      <trkpt lat="44.2011" lon="0.71256">
        <ele>165</ele>
        <time>2022-08-07T07:06:49.077Z</time>
      </trkpt>
      <trkpt lat="44.2011" lon="0.71257">
        <ele>166</ele>
        <time>2022-08-07T07:06:50.077Z</time>
      </trkpt>
      <trkpt lat="44.20111" lon="0.71258">
        <ele>165</ele>
        <time>2022-08-07T07:06:51.077Z</time>
      </trkpt>
      <trkpt lat="44.20111" lon="0.71259">
        <ele>166</ele>
        <time>2022-08-07T07:06:52.077Z</time>
      </trkpt>
      <trkpt lat="44.20111" lon="0.7126">
        <ele>166</ele>
        <time>2022-08-07T07:06:53.077Z</time>
      </trkpt>
      <trkpt lat="44.20111" lon="0.71261">
        <ele>165</ele>
        <time>2022-08-07T07:06:54.077Z</time>
      </trkpt>
      <trkpt lat="44.20111" lon="0.71262">
        <ele>165</ele>
        <time>2022-08-07T07:06:55.077Z</time>
      </trkpt>
      <trkpt lat="44.20111" lon="0.71263">
        <ele>163</ele>
        <time>2022-08-07T07:06:56.077Z</time>
      </trkpt>
      <trkpt lat="44.20111" lon="0.71264">
        <ele>164</ele>
        <time>2022-08-07T07:06:57.077Z</time>
      </trkpt>
      <trkpt lat="44.20111" lon="0.71265">
        <ele>163</ele>
        <time>2022-08-07T07:06:58.077Z</time>
      </trkpt>
      <trkpt lat="44.20111" lon="0.71266">
        <ele>164</ele>
        <time>2022-08-07T07:06:59.077Z</time>
      </trkpt>
      <trkpt lat="44.20111" lon="0.71267">
        <ele>164</ele>
        <time>2022-08-07T07:07:00.077Z</time>
      </trkpt>
      <trkpt lat="44.20111" lon="0.71269">
        <ele>164</ele>
        <time>2022-08-07T07:07:01.077Z</time>
      </trkpt>
      <trkpt lat="44.20111" lon="0.7127">
        <ele>164</ele>
        <time>2022-08-07T07:07:02.077Z</time>
      </trkpt>
      <trkpt lat="44.20111" lon="0.71271">
        <ele>163</ele>
        <time>2022-08-07T07:07:03.077Z</time>
      </trkpt>
      <trkpt lat="44.20111" lon="0.71272">
        <ele>163</ele>
        <time>2022-08-07T07:07:04.077Z</time>
      </trkpt>
      <trkpt lat="44.20111" lon="0.71274">
        <ele>163</ele>
        <time>2022-08-07T07:07:05.077Z</time>
      </trkpt>
      <trkpt lat="44.20112" lon="0.71275">
        <ele>163</ele>
        <time>2022-08-07T07:07:06.077Z</time>
      </trkpt>
      <trkpt lat="44.20112" lon="0.71276">
        <ele>163</ele>
        <time>2022-08-07T07:07:07.077Z</time>
      </trkpt>
      <trkpt lat="44.20112" lon="0.71277">
        <ele>163</ele>
        <time>2022-08-07T07:07:08.077Z</time>
      </trkpt>
      <trkpt lat="44.20113" lon="0.71278">
        <ele>163</ele>
        <time>2022-08-07T07:07:09.077Z</time>
      </trkpt>
      <trkpt lat="44.20113" lon="0.71279">
        <ele>162</ele>
        <time>2022-08-07T07:07:10.077Z</time>
      </trkpt>
      <trkpt lat="44.20113" lon="0.71281">
        <ele>162</ele>
        <time>2022-08-07T07:07:11.077Z</time>
      </trkpt>
      <trkpt lat="44.20113" lon="0.71283">
        <ele>163</ele>
        <time>2022-08-07T07:07:12.077Z</time>
      </trkpt>
      <trkpt lat="44.20112" lon="0.71284">
        <ele>163</ele>
        <time>2022-08-07T07:07:13.077Z</time>
      </trkpt>
      <trkpt lat="44.20112" lon="0.71285">
        <ele>163</ele>
        <time>2022-08-07T07:07:14.077Z</time>
      </trkpt>
      <trkpt lat="44.20112" lon="0.71287">
        <ele>164</ele>
        <time>2022-08-07T07:07:15.077Z</time>
      </trkpt>
      <trkpt lat="44.20112" lon="0.71288">
        <ele>164</ele>
        <time>2022-08-07T07:07:16.077Z</time>
      </trkpt>
      <trkpt lat="44.20112" lon="0.71289">
        <ele>165</ele>
        <time>2022-08-07T07:07:17.077Z</time>
      </trkpt>
      <trkpt lat="44.20112" lon="0.71291">
        <ele>165</ele>
        <time>2022-08-07T07:07:18.077Z</time>
      </trkpt>
      <trkpt lat="44.20112" lon="0.71292">
        <ele>164</ele>
        <time>2022-08-07T07:07:19.077Z</time>
      </trkpt>
      <trkpt lat="44.20112" lon="0.71294">
        <ele>163</ele>
        <time>2022-08-07T07:07:20.077Z</time>
      </trkpt>
      <trkpt lat="44.20113" lon="0.71296">
        <ele>162</ele>
        <time>2022-08-07T07:07:21.077Z</time>
      </trkpt>
      <trkpt lat="44.20113" lon="0.71297">
        <ele>163</ele>
        <time>2022-08-07T07:07:22.077Z</time>
      </trkpt>
      <trkpt lat="44.20113" lon="0.71298">
        <ele>163</ele>
        <time>2022-08-07T07:07:23.077Z</time>
      </trkpt>
      <trkpt lat="44.20113" lon="0.71299">
        <ele>163</ele>
        <time>2022-08-07T07:07:24.077Z</time>
      </trkpt>
      <trkpt lat="44.20113" lon="0.71301">
        <ele>163</ele>
        <time>2022-08-07T07:07:25.077Z</time>
      </trkpt>
      <trkpt lat="44.20113" lon="0.71302">
        <ele>163</ele>
        <time>2022-08-07T07:07:26.077Z</time>
      </trkpt>
      <trkpt lat="44.20114" lon="0.71304">
        <ele>163</ele>
        <time>2022-08-07T07:07:27.077Z</time>
      </trkpt>
      <trkpt lat="44.20114" lon="0.71305">
        <ele>163</ele>
        <time>2022-08-07T07:07:28.077Z</time>
      </trkpt>
      <trkpt lat="44.20114" lon="0.71307">
        <ele>163</ele>
        <time>2022-08-07T07:07:29.077Z</time>
      </trkpt>
      <trkpt lat="44.20115" lon="0.71309">
        <ele>163</ele>
        <time>2022-08-07T07:07:30.077Z</time>
      </trkpt>
      <trkpt lat="44.20115" lon="0.71311">
        <ele>163</ele>
        <time>2022-08-07T07:07:31.077Z</time>
      </trkpt>
      <trkpt lat="44.20115" lon="0.71312">
        <ele>162</ele>
        <time>2022-08-07T07:07:32.077Z</time>
      </trkpt>
      <trkpt lat="44.20114" lon="0.71314">
        <ele>161</ele>
        <time>2022-08-07T07:07:33.077Z</time>
      </trkpt>
      <trkpt lat="44.20114" lon="0.71316">
        <ele>159</ele>
        <time>2022-08-07T07:07:34.077Z</time>
      </trkpt>
      <trkpt lat="44.20113" lon="0.71317">
        <ele>159</ele>
        <time>2022-08-07T07:07:35.077Z</time>
      </trkpt>
      <trkpt lat="44.20112" lon="0.71319">
        <ele>158</ele>
        <time>2022-08-07T07:07:36.077Z</time>
      </trkpt>
      <trkpt lat="44.20111" lon="0.7132">
        <ele>157</ele>
        <time>2022-08-07T07:07:37.077Z</time>
      </trkpt>
      <trkpt lat="44.2011" lon="0.71321">
        <ele>156</ele>
        <time>2022-08-07T07:07:38.077Z</time>
      </trkpt>
      <trkpt lat="44.2011" lon="0.71322">
        <ele>157</ele>
        <time>2022-08-07T07:07:39.077Z</time>
      </trkpt>
      <trkpt lat="44.20109" lon="0.71323">
        <ele>156</ele>
        <time>2022-08-07T07:07:40.077Z</time>
      </trkpt>
      <trkpt lat="44.20108" lon="0.71324">
        <ele>156</ele>
        <time>2022-08-07T07:07:41.077Z</time>
      </trkpt>
      <trkpt lat="44.20107" lon="0.71325">
        <ele>155</ele>
        <time>2022-08-07T07:07:42.077Z</time>
      </trkpt>
      <trkpt lat="44.20107" lon="0.71326">
        <ele>156</ele>
        <time>2022-08-07T07:07:43.077Z</time>
      </trkpt>
      <trkpt lat="44.20106" lon="0.71327">
        <ele>156</ele>
        <time>2022-08-07T07:07:44.077Z</time>
      </trkpt>
      <trkpt lat="44.20105" lon="0.71328">
        <ele>157</ele>
        <time>2022-08-07T07:07:45.077Z</time>
      </trkpt>
      <trkpt lat="44.20104" lon="0.71329">
        <ele>157</ele>
        <time>2022-08-07T07:07:46.077Z</time>
      </trkpt>
      <trkpt lat="44.20104" lon="0.71331">
        <ele>157</ele>
        <time>2022-08-07T07:07:47.077Z</time>
      </trkpt>
      <trkpt lat="44.20103" lon="0.71332">
        <ele>157</ele>
        <time>2022-08-07T07:07:48.077Z</time>
      </trkpt>
      <trkpt lat="44.20102" lon="0.71333">
        <ele>156</ele>
        <time>2022-08-07T07:07:49.077Z</time>
      </trkpt>
      <trkpt lat="44.20101" lon="0.71334">
        <ele>155</ele>
        <time>2022-08-07T07:07:50.077Z</time>
      </trkpt>
      <trkpt lat="44.201" lon="0.71335">
        <ele>155</ele>
        <time>2022-08-07T07:07:51.077Z</time>
      </trkpt>
      <trkpt lat="44.20099" lon="0.71336">
        <ele>155</ele>
        <time>2022-08-07T07:07:52.077Z</time>
      </trkpt>
      <trkpt lat="44.20099" lon="0.71336">
        <ele>155</ele>
        <time>2022-08-07T07:07:53.077Z</time>
      </trkpt>
      <trkpt lat="44.20098" lon="0.71337">
        <ele>155</ele>
        <time>2022-08-07T07:07:54.077Z</time>
      </trkpt>
      <trkpt lat="44.20097" lon="0.71338">
        <ele>154</ele>
        <time>2022-08-07T07:07:55.077Z</time>
      </trkpt>
      <trkpt lat="44.20096" lon="0.71339">
        <ele>153</ele>
        <time>2022-08-07T07:07:56.077Z</time>
      </trkpt>
      <trkpt lat="44.20096" lon="0.7134">
        <ele>153</ele>
        <time>2022-08-07T07:07:57.077Z</time>
      </trkpt>
      <trkpt lat="44.20095" lon="0.71341">
        <ele>153</ele>
        <time>2022-08-07T07:07:58.077Z</time>
      </trkpt>
      <trkpt lat="44.20094" lon="0.71342">
        <ele>154</ele>
        <time>2022-08-07T07:07:59.077Z</time>
      </trkpt>
      <trkpt lat="44.20093" lon="0.71343">
        <ele>153</ele>
        <time>2022-08-07T07:08:00.077Z</time>
      </trkpt>
      <trkpt lat="44.20093" lon="0.71344">
        <ele>153</ele>
        <time>2022-08-07T07:08:01.077Z</time>
      </trkpt>
      <trkpt lat="44.20092" lon="0.71344">
        <ele>153</ele>
        <time>2022-08-07T07:08:02.077Z</time>
      </trkpt>
      <trkpt lat="44.20091" lon="0.71345">
        <ele>153</ele>
        <time>2022-08-07T07:08:03.077Z</time>
      </trkpt>
      <trkpt lat="44.2009" lon="0.71346">
        <ele>154</ele>
        <time>2022-08-07T07:08:04.077Z</time>
      </trkpt>
      <trkpt lat="44.20089" lon="0.71347">
        <ele>154</ele>
        <time>2022-08-07T07:08:05.077Z</time>
      </trkpt>
      <trkpt lat="44.20089" lon="0.71349">
        <ele>156</ele>
        <time>2022-08-07T07:08:06.077Z</time>
      </trkpt>
      <trkpt lat="44.20088" lon="0.7135">
        <ele>155</ele>
        <time>2022-08-07T07:08:07.077Z</time>
      </trkpt>
      <trkpt lat="44.20087" lon="0.71351">
        <ele>155</ele>
        <time>2022-08-07T07:08:08.077Z</time>
      </trkpt>
      <trkpt lat="44.20085" lon="0.71352">
        <ele>155</ele>
        <time>2022-08-07T07:08:09.077Z</time>
      </trkpt>
      <trkpt lat="44.20084" lon="0.71353">
        <ele>154</ele>
        <time>2022-08-07T07:08:10.077Z</time>
      </trkpt>
      <trkpt lat="44.20084" lon="0.71354">
        <ele>154</ele>
        <time>2022-08-07T07:08:11.077Z</time>
      </trkpt>
      <trkpt lat="44.20083" lon="0.71355">
        <ele>155</ele>
        <time>2022-08-07T07:08:12.077Z</time>
      </trkpt>
      <trkpt lat="44.20082" lon="0.71355">
        <ele>155</ele>
        <time>2022-08-07T07:08:13.077Z</time>
      </trkpt>
      <trkpt lat="44.20081" lon="0.71356">
        <ele>156</ele>
        <time>2022-08-07T07:08:14.077Z</time>
      </trkpt>
      <trkpt lat="44.2008" lon="0.71357">
        <ele>156</ele>
        <time>2022-08-07T07:08:15.077Z</time>
      </trkpt>
      <trkpt lat="44.20079" lon="0.71358">
        <ele>157</ele>
        <time>2022-08-07T07:08:16.077Z</time>
      </trkpt>
      <trkpt lat="44.20079" lon="0.71359">
        <ele>158</ele>
        <time>2022-08-07T07:08:17.077Z</time>
      </trkpt>
      <trkpt lat="44.20078" lon="0.71359">
        <ele>158</ele>
        <time>2022-08-07T07:08:18.077Z</time>
      </trkpt>
      <trkpt lat="44.20077" lon="0.7136">
        <ele>158</ele>
        <time>2022-08-07T07:08:19.077Z</time>
      </trkpt>
      <trkpt lat="44.20076" lon="0.71361">
        <ele>158</ele>
        <time>2022-08-07T07:08:20.077Z</time>
      </trkpt>
      <trkpt lat="44.20075" lon="0.71362">
        <ele>159</ele>
        <time>2022-08-07T07:08:21.077Z</time>
      </trkpt>
      <trkpt lat="44.20074" lon="0.71363">
        <ele>159</ele>
        <time>2022-08-07T07:08:22.077Z</time>
      </trkpt>
      <trkpt lat="44.20073" lon="0.71363">
        <ele>160</ele>
        <time>2022-08-07T07:08:23.077Z</time>
      </trkpt>
      <trkpt lat="44.20072" lon="0.71364">
        <ele>160</ele>
        <time>2022-08-07T07:08:24.077Z</time>
      </trkpt>
      <trkpt lat="44.2007" lon="0.71364">
        <ele>161</ele>
        <time>2022-08-07T07:08:25.077Z</time>
      </trkpt>
      <trkpt lat="44.20069" lon="0.71364">
        <ele>162</ele>
        <time>2022-08-07T07:08:26.077Z</time>
      </trkpt>
      <trkpt lat="44.20068" lon="0.71365">
        <ele>161</ele>
        <time>2022-08-07T07:08:27.077Z</time>
      </trkpt>
      <trkpt lat="44.20066" lon="0.71365">
        <ele>160</ele>
        <time>2022-08-07T07:08:28.077Z</time>
      </trkpt>
      <trkpt lat="44.20065" lon="0.71365">
        <ele>160</ele>
        <time>2022-08-07T07:08:29.077Z</time>
      </trkpt>
      <trkpt lat="44.20064" lon="0.71365">
        <ele>159</ele>
        <time>2022-08-07T07:08:30.077Z</time>
      </trkpt>
      <trkpt lat="44.20063" lon="0.71366">
        <ele>160</ele>
        <time>2022-08-07T07:08:31.077Z</time>
      </trkpt>
      <trkpt lat="44.20062" lon="0.71366">
        <ele>159</ele>
        <time>2022-08-07T07:08:32.077Z</time>
      </trkpt>
      <trkpt lat="44.20061" lon="0.71367">
        <ele>158</ele>
        <time>2022-08-07T07:08:33.077Z</time>
      </trkpt>
      <trkpt lat="44.2006" lon="0.71367">
        <ele>158</ele>
        <time>2022-08-07T07:08:34.077Z</time>
      </trkpt>
      <trkpt lat="44.20059" lon="0.71367">
        <ele>158</ele>
        <time>2022-08-07T07:08:35.077Z</time>
      </trkpt>
      <trkpt lat="44.20058" lon="0.71367">
        <ele>157</ele>
        <time>2022-08-07T07:08:36.077Z</time>
      </trkpt>
      <trkpt lat="44.20057" lon="0.71366">
        <ele>157</ele>
        <time>2022-08-07T07:08:37.077Z</time>
      </trkpt>
      <trkpt lat="44.20056" lon="0.71366">
        <ele>157</ele>
        <time>2022-08-07T07:08:38.077Z</time>
      </trkpt>
      <trkpt lat="44.20055" lon="0.71366">
        <ele>158</ele>
        <time>2022-08-07T07:08:39.077Z</time>
      </trkpt>
      <trkpt lat="44.20054" lon="0.71366">
        <ele>160</ele>
        <time>2022-08-07T07:08:40.077Z</time>
      </trkpt>
      <trkpt lat="44.20053" lon="0.71366">
        <ele>162</ele>
        <time>2022-08-07T07:08:41.077Z</time>
      </trkpt>
      <trkpt lat="44.20053" lon="0.71367">
        <ele>163</ele>
        <time>2022-08-07T07:08:42.077Z</time>
      </trkpt>
      <trkpt lat="44.20052" lon="0.71367">
        <ele>165</ele>
        <time>2022-08-07T07:08:43.077Z</time>
      </trkpt>
      <trkpt lat="44.20051" lon="0.71368">
        <ele>166</ele>
        <time>2022-08-07T07:08:44.077Z</time>
      </trkpt>
      <trkpt lat="44.2005" lon="0.71369">
        <ele>166</ele>
        <time>2022-08-07T07:08:45.077Z</time>
      </trkpt>
      <trkpt lat="44.20049" lon="0.71369">
        <ele>167</ele>
        <time>2022-08-07T07:08:46.077Z</time>
      </trkpt>
      <trkpt lat="44.20047" lon="0.71369">
        <ele>168</ele>
        <time>2022-08-07T07:08:47.077Z</time>
      </trkpt>
      <trkpt lat="44.20046" lon="0.71369">
        <ele>170</ele>
        <time>2022-08-07T07:08:48.077Z</time>
      </trkpt>
      <trkpt lat="44.20046" lon="0.7137">
        <ele>171</ele>
        <time>2022-08-07T07:08:49.077Z</time>
      </trkpt>
      <trkpt lat="44.20045" lon="0.7137">
        <ele>172</ele>
        <time>2022-08-07T07:08:50.077Z</time>
      </trkpt>
      <trkpt lat="44.20044" lon="0.7137">
        <ele>173</ele>
        <time>2022-08-07T07:08:51.077Z</time>
      </trkpt>
      <trkpt lat="44.20044" lon="0.7137">
        <ele>174</ele>
        <time>2022-08-07T07:08:52.077Z</time>
      </trkpt>
      <trkpt lat="44.20043" lon="0.7137">
        <ele>174</ele>
        <time>2022-08-07T07:08:53.077Z</time>
      </trkpt>
      <trkpt lat="44.20042" lon="0.7137">
        <ele>175</ele>
        <time>2022-08-07T07:08:54.077Z</time>
      </trkpt>
      <trkpt lat="44.20041" lon="0.71369">
        <ele>175</ele>
        <time>2022-08-07T07:08:55.077Z</time>
      </trkpt>
      <trkpt lat="44.2004" lon="0.71369">
        <ele>175</ele>
        <time>2022-08-07T07:08:56.077Z</time>
      </trkpt>
      <trkpt lat="44.2004" lon="0.71368">
        <ele>175</ele>
        <time>2022-08-07T07:08:57.077Z</time>
      </trkpt>
      <trkpt lat="44.20039" lon="0.71368">
        <ele>176</ele>
        <time>2022-08-07T07:08:58.077Z</time>
      </trkpt>
      <trkpt lat="44.20039" lon="0.71367">
        <ele>176</ele>
        <time>2022-08-07T07:08:59.077Z</time>
      </trkpt>
      <trkpt lat="44.20038" lon="0.71367">
        <ele>177</ele>
        <time>2022-08-07T07:09:00.077Z</time>
      </trkpt>
      <trkpt lat="44.20038" lon="0.71366">
        <ele>178</ele>
        <time>2022-08-07T07:09:01.077Z</time>
      </trkpt>
      <trkpt lat="44.20038" lon="0.71366">
        <ele>178</ele>
        <time>2022-08-07T07:09:02.077Z</time>
      </trkpt>
      <trkpt lat="44.20037" lon="0.71365">
        <ele>178</ele>
        <time>2022-08-07T07:09:03.077Z</time>
      </trkpt>
      <trkpt lat="44.20036" lon="0.71364">
        <ele>178</ele>
        <time>2022-08-07T07:09:04.077Z</time>
      </trkpt>
      <trkpt lat="44.20035" lon="0.71363">
        <ele>178</ele>
        <time>2022-08-07T07:09:05.077Z</time>
      </trkpt>
      <trkpt lat="44.20033" lon="0.71363">
        <ele>177</ele>
        <time>2022-08-07T07:09:06.077Z</time>
      </trkpt>
      <trkpt lat="44.20033" lon="0.71362">
        <ele>177</ele>
        <time>2022-08-07T07:09:07.077Z</time>
      </trkpt>
      <trkpt lat="44.20032" lon="0.71361">
        <ele>177</ele>
        <time>2022-08-07T07:09:08.077Z</time>
      </trkpt>
      <trkpt lat="44.20031" lon="0.7136">
        <ele>177</ele>
        <time>2022-08-07T07:09:09.077Z</time>
      </trkpt>
      <trkpt lat="44.2003" lon="0.71359">
        <ele>177</ele>
        <time>2022-08-07T07:09:10.077Z</time>
      </trkpt>
      <trkpt lat="44.2003" lon="0.71358">
        <ele>177</ele>
        <time>2022-08-07T07:09:11.077Z</time>
      </trkpt>
      <trkpt lat="44.20029" lon="0.71357">
        <ele>177</ele>
        <time>2022-08-07T07:09:12.077Z</time>
      </trkpt>
      <trkpt lat="44.20028" lon="0.71356">
        <ele>178</ele>
        <time>2022-08-07T07:09:13.077Z</time>
      </trkpt>
      <trkpt lat="44.20027" lon="0.71355">
        <ele>178</ele>
        <time>2022-08-07T07:09:14.077Z</time>
      </trkpt>
      <trkpt lat="44.20026" lon="0.71354">
        <ele>177</ele>
        <time>2022-08-07T07:09:15.077Z</time>
      </trkpt>
      <trkpt lat="44.20026" lon="0.71353">
        <ele>177</ele>
        <time>2022-08-07T07:09:16.077Z</time>
      </trkpt>
      <trkpt lat="44.20025" lon="0.71351">
        <ele>176</ele>
        <time>2022-08-07T07:09:17.077Z</time>
      </trkpt>
      <trkpt lat="44.20024" lon="0.7135">
        <ele>176</ele>
        <time>2022-08-07T07:09:18.077Z</time>
      </trkpt>
      <trkpt lat="44.20023" lon="0.71349">
        <ele>176</ele>
        <time>2022-08-07T07:09:19.077Z</time>
      </trkpt>
      <trkpt lat="44.20022" lon="0.71348">
        <ele>177</ele>
        <time>2022-08-07T07:09:20.077Z</time>
      </trkpt>
      <trkpt lat="44.20021" lon="0.71347">
        <ele>177</ele>
        <time>2022-08-07T07:09:21.077Z</time>
      </trkpt>
      <trkpt lat="44.2002" lon="0.71346">
        <ele>177</ele>
        <time>2022-08-07T07:09:22.077Z</time>
      </trkpt>
      <trkpt lat="44.20019" lon="0.71345">
        <ele>177</ele>
        <time>2022-08-07T07:09:23.077Z</time>
      </trkpt>
      <trkpt lat="44.20019" lon="0.71343">
        <ele>177</ele>
        <time>2022-08-07T07:09:24.077Z</time>
      </trkpt>
      <trkpt lat="44.20018" lon="0.71342">
        <ele>176</ele>
        <time>2022-08-07T07:09:25.077Z</time>
      </trkpt>
      <trkpt lat="44.20017" lon="0.71341">
        <ele>176</ele>
        <time>2022-08-07T07:09:26.077Z</time>
      </trkpt>
      <trkpt lat="44.20016" lon="0.7134">
        <ele>176</ele>
        <time>2022-08-07T07:09:27.077Z</time>
      </trkpt>
      <trkpt lat="44.20015" lon="0.71339">
        <ele>175</ele>
        <time>2022-08-07T07:09:28.077Z</time>
      </trkpt>
      <trkpt lat="44.20015" lon="0.71338">
        <ele>175</ele>
        <time>2022-08-07T07:09:29.077Z</time>
      </trkpt>
      <trkpt lat="44.20014" lon="0.71337">
        <ele>175</ele>
        <time>2022-08-07T07:09:30.077Z</time>
      </trkpt>
      <trkpt lat="44.20013" lon="0.71336">
        <ele>175</ele>
        <time>2022-08-07T07:09:31.077Z</time>
      </trkpt>
      <trkpt lat="44.20012" lon="0.71335">
        <ele>176</ele>
        <time>2022-08-07T07:09:32.077Z</time>
      </trkpt>
      <trkpt lat="44.20011" lon="0.71334">
        <ele>176</ele>
        <time>2022-08-07T07:09:33.077Z</time>
      </trkpt>
      <trkpt lat="44.2001" lon="0.71334">
        <ele>176</ele>
        <time>2022-08-07T07:09:34.077Z</time>
      </trkpt>
      <trkpt lat="44.20009" lon="0.71333">
        <ele>176</ele>
        <time>2022-08-07T07:09:35.077Z</time>
      </trkpt>
      <trkpt lat="44.20009" lon="0.71332">
        <ele>176</ele>
        <time>2022-08-07T07:09:36.077Z</time>
      </trkpt>
      <trkpt lat="44.20008" lon="0.71331">
        <ele>176</ele>
        <time>2022-08-07T07:09:37.077Z</time>
      </trkpt>
      <trkpt lat="44.20008" lon="0.7133">
        <ele>176</ele>
        <time>2022-08-07T07:09:38.077Z</time>
      </trkpt>
      <trkpt lat="44.20008" lon="0.71328">
        <ele>177</ele>
        <time>2022-08-07T07:09:39.077Z</time>
      </trkpt>
      <trkpt lat="44.20008" lon="0.71326">
        <ele>177</ele>
        <time>2022-08-07T07:09:40.077Z</time>
      </trkpt>
      <trkpt lat="44.20008" lon="0.71325">
        <ele>176</ele>
        <time>2022-08-07T07:09:41.077Z</time>
      </trkpt>
      <trkpt lat="44.20008" lon="0.71323">
        <ele>176</ele>
        <time>2022-08-07T07:09:42.077Z</time>
      </trkpt>
      <trkpt lat="44.20008" lon="0.71321">
        <ele>175</ele>
        <time>2022-08-07T07:09:43.077Z</time>
      </trkpt>
      <trkpt lat="44.20008" lon="0.71319">
        <ele>174</ele>
        <time>2022-08-07T07:09:44.077Z</time>
      </trkpt>
      <trkpt lat="44.20008" lon="0.71317">
        <ele>173</ele>
        <time>2022-08-07T07:09:45.077Z</time>
      </trkpt>
      <trkpt lat="44.20008" lon="0.71316">
        <ele>172</ele>
        <time>2022-08-07T07:09:46.077Z</time>
      </trkpt>
      <trkpt lat="44.20008" lon="0.71314">
        <ele>172</ele>
        <time>2022-08-07T07:09:47.077Z</time>
      </trkpt>
      <trkpt lat="44.20008" lon="0.71312">
        <ele>168</ele>
        <time>2022-08-07T07:09:48.077Z</time>
      </trkpt>
      <trkpt lat="44.20008" lon="0.7131">
        <ele>169</ele>
        <time>2022-08-07T07:09:49.077Z</time>
      </trkpt>
      <trkpt lat="44.20008" lon="0.71308">
        <ele>168</ele>
        <time>2022-08-07T07:09:50.077Z</time>
      </trkpt>
      <trkpt lat="44.20008" lon="0.71307">
        <ele>169</ele>
        <time>2022-08-07T07:09:51.077Z</time>
      </trkpt>
      <trkpt lat="44.20007" lon="0.71305">
        <ele>169</ele>
        <time>2022-08-07T07:09:52.077Z</time>
      </trkpt>
      <trkpt lat="44.20007" lon="0.71304">
        <ele>169</ele>
        <time>2022-08-07T07:09:53.077Z</time>
      </trkpt>
      <trkpt lat="44.20007" lon="0.71302">
        <ele>169</ele>
        <time>2022-08-07T07:09:54.077Z</time>
      </trkpt>
      <trkpt lat="44.20007" lon="0.71301">
        <ele>169</ele>
        <time>2022-08-07T07:09:55.077Z</time>
      </trkpt>
      <trkpt lat="44.20007" lon="0.71299">
        <ele>170</ele>
        <time>2022-08-07T07:09:56.077Z</time>
      </trkpt>
      <trkpt lat="44.20007" lon="0.71298">
        <ele>169</ele>
        <time>2022-08-07T07:09:57.077Z</time>
      </trkpt>
      <trkpt lat="44.20007" lon="0.71296">
        <ele>169</ele>
        <time>2022-08-07T07:09:58.077Z</time>
      </trkpt>
      <trkpt lat="44.20007" lon="0.71295">
        <ele>168</ele>
        <time>2022-08-07T07:09:59.077Z</time>
      </trkpt>
      <trkpt lat="44.20007" lon="0.71293">
        <ele>167</ele>
        <time>2022-08-07T07:10:00.077Z</time>
      </trkpt>
      <trkpt lat="44.20007" lon="0.71292">
        <ele>167</ele>
        <time>2022-08-07T07:10:01.077Z</time>
      </trkpt>
      <trkpt lat="44.20007" lon="0.7129">
        <ele>167</ele>
        <time>2022-08-07T07:10:02.077Z</time>
      </trkpt>
      <trkpt lat="44.20008" lon="0.71289">
        <ele>166</ele>
        <time>2022-08-07T07:10:03.077Z</time>
      </trkpt>
      <trkpt lat="44.20009" lon="0.71287">
        <ele>165</ele>
        <time>2022-08-07T07:10:04.077Z</time>
      </trkpt>
      <trkpt lat="44.2001" lon="0.71285">
        <ele>166</ele>
        <time>2022-08-07T07:10:05.077Z</time>
      </trkpt>
      <trkpt lat="44.20011" lon="0.71283">
        <ele>165</ele>
        <time>2022-08-07T07:10:06.077Z</time>
      </trkpt>
      <trkpt lat="44.20011" lon="0.71282">
        <ele>163</ele>
        <time>2022-08-07T07:10:07.077Z</time>
      </trkpt>
      <trkpt lat="44.20012" lon="0.7128">
        <ele>162</ele>
        <time>2022-08-07T07:10:08.077Z</time>
      </trkpt>
      <trkpt lat="44.20012" lon="0.71279">
        <ele>163</ele>
        <time>2022-08-07T07:10:09.077Z</time>
      </trkpt>
      <trkpt lat="44.20013" lon="0.71277">
        <ele>162</ele>
        <time>2022-08-07T07:10:10.077Z</time>
      </trkpt>
      <trkpt lat="44.20013" lon="0.71276">
        <ele>162</ele>
        <time>2022-08-07T07:10:11.077Z</time>
      </trkpt>
      <trkpt lat="44.20014" lon="0.71274">
        <ele>163</ele>
        <time>2022-08-07T07:10:12.077Z</time>
      </trkpt>
      <trkpt lat="44.20014" lon="0.71273">
        <ele>163</ele>
        <time>2022-08-07T07:10:13.077Z</time>
      </trkpt>
      <trkpt lat="44.20014" lon="0.71271">
        <ele>162</ele>
        <time>2022-08-07T07:10:14.077Z</time>
      </trkpt>
      <trkpt lat="44.20015" lon="0.7127">
        <ele>162</ele>
        <time>2022-08-07T07:10:15.077Z</time>
      </trkpt>
      <trkpt lat="44.20016" lon="0.71268">
        <ele>161</ele>
        <time>2022-08-07T07:10:16.077Z</time>
      </trkpt>
      <trkpt lat="44.20017" lon="0.71267">
        <ele>161</ele>
        <time>2022-08-07T07:10:17.077Z</time>
      </trkpt>
      <trkpt lat="44.20017" lon="0.71265">
        <ele>161</ele>
        <time>2022-08-07T07:10:18.077Z</time>
      </trkpt>
      <trkpt lat="44.20018" lon="0.71264">
        <ele>162</ele>
        <time>2022-08-07T07:10:19.077Z</time>
      </trkpt>
      <trkpt lat="44.20019" lon="0.71262">
        <ele>162</ele>
        <time>2022-08-07T07:10:20.077Z</time>
      </trkpt>
      <trkpt lat="44.2002" lon="0.71261">
        <ele>161</ele>
        <time>2022-08-07T07:10:21.077Z</time>
      </trkpt>
      <trkpt lat="44.2002" lon="0.7126">
        <ele>163</ele>
        <time>2022-08-07T07:10:22.077Z</time>
      </trkpt>
      <trkpt lat="44.20021" lon="0.71258">
        <ele>163</ele>
        <time>2022-08-07T07:10:23.077Z</time>
      </trkpt>
      <trkpt lat="44.20022" lon="0.71257">
        <ele>162</ele>
        <time>2022-08-07T07:10:24.077Z</time>
      </trkpt>
      <trkpt lat="44.20022" lon="0.71256">
        <ele>162</ele>
        <time>2022-08-07T07:10:25.077Z</time>
      </trkpt>
      <trkpt lat="44.20023" lon="0.71255">
        <ele>162</ele>
        <time>2022-08-07T07:10:26.077Z</time>
      </trkpt>
      <trkpt lat="44.20023" lon="0.71253">
        <ele>162</ele>
        <time>2022-08-07T07:10:27.077Z</time>
      </trkpt>
      <trkpt lat="44.20024" lon="0.71252">
        <ele>162</ele>
        <time>2022-08-07T07:10:28.077Z</time>
      </trkpt>
      <trkpt lat="44.20024" lon="0.7125">
        <ele>162</ele>
        <time>2022-08-07T07:10:29.077Z</time>
      </trkpt>
      <trkpt lat="44.20025" lon="0.71249">
        <ele>163</ele>
        <time>2022-08-07T07:10:30.077Z</time>
      </trkpt>
      <trkpt lat="44.20026" lon="0.71248">
        <ele>162</ele>
        <time>2022-08-07T07:10:31.077Z</time>
      </trkpt>
      <trkpt lat="44.20027" lon="0.71247">
        <ele>162</ele>
        <time>2022-08-07T07:10:32.077Z</time>
      </trkpt>
      <trkpt lat="44.20028" lon="0.71246">
        <ele>163</ele>
        <time>2022-08-07T07:10:33.077Z</time>
      </trkpt>
      <trkpt lat="44.20028" lon="0.71245">
        <ele>163</ele>
        <time>2022-08-07T07:10:34.077Z</time>
      </trkpt>
      <trkpt lat="44.20029" lon="0.71243">
        <ele>163</ele>
        <time>2022-08-07T07:10:35.077Z</time>
      </trkpt>
      <trkpt lat="44.20029" lon="0.71242">
        <ele>163</ele>
        <time>2022-08-07T07:10:36.077Z</time>
      </trkpt>
      <trkpt lat="44.2003" lon="0.71241">
        <ele>163</ele>
        <time>2022-08-07T07:10:37.077Z</time>
      </trkpt>
      <trkpt lat="44.20031" lon="0.7124">
        <ele>164</ele>
        <time>2022-08-07T07:10:38.077Z</time>
      </trkpt>
      <trkpt lat="44.20032" lon="0.71239">
        <ele>164</ele>
        <time>2022-08-07T07:10:39.077Z</time>
      </trkpt>
      <trkpt lat="44.20032" lon="0.71238">
        <ele>164</ele>
        <time>2022-08-07T07:10:40.077Z</time>
      </trkpt>
      <trkpt lat="44.20033" lon="0.71237">
        <ele>164</ele>
        <time>2022-08-07T07:10:41.077Z</time>
      </trkpt>
      <trkpt lat="44.20033" lon="0.71236">
        <ele>165</ele>
        <time>2022-08-07T07:10:42.077Z</time>
      </trkpt>
      <trkpt lat="44.20034" lon="0.71235">
        <ele>165</ele>
        <time>2022-08-07T07:10:43.077Z</time>
      </trkpt>
      <trkpt lat="44.20035" lon="0.71233">
        <ele>166</ele>
        <time>2022-08-07T07:10:44.077Z</time>
      </trkpt>
      <trkpt lat="44.20036" lon="0.71232">
        <ele>168</ele>
        <time>2022-08-07T07:10:45.077Z</time>
      </trkpt>
      <trkpt lat="44.20036" lon="0.71231">
        <ele>168</ele>
        <time>2022-08-07T07:10:46.077Z</time>
      </trkpt>
      <trkpt lat="44.20036" lon="0.7123">
        <ele>168</ele>
        <time>2022-08-07T07:10:47.077Z</time>
      </trkpt>
      <trkpt lat="44.20037" lon="0.71229">
        <ele>168</ele>
        <time>2022-08-07T07:10:48.077Z</time>
      </trkpt>
      <trkpt lat="44.20038" lon="0.71227">
        <ele>167</ele>
        <time>2022-08-07T07:10:49.077Z</time>
      </trkpt>
      <trkpt lat="44.20038" lon="0.71225">
        <ele>168</ele>
        <time>2022-08-07T07:10:50.077Z</time>
      </trkpt>
      <trkpt lat="44.20039" lon="0.71224">
        <ele>168</ele>
        <time>2022-08-07T07:10:51.077Z</time>
      </trkpt>
      <trkpt lat="44.2004" lon="0.71222">
        <ele>166</ele>
        <time>2022-08-07T07:10:52.077Z</time>
      </trkpt>
      <trkpt lat="44.20041" lon="0.71222">
        <ele>166</ele>
        <time>2022-08-07T07:10:53.077Z</time>
      </trkpt>
      <trkpt lat="44.20042" lon="0.71221">
        <ele>164</ele>
        <time>2022-08-07T07:10:54.077Z</time>
      </trkpt>
      <trkpt lat="44.20042" lon="0.71221">
        <ele>164</ele>
        <time>2022-08-07T07:10:55.077Z</time>
      </trkpt>
      <trkpt lat="44.20043" lon="0.71221">
        <ele>165</ele>
        <time>2022-08-07T07:10:56.077Z</time>
      </trkpt>
      <trkpt lat="44.20043" lon="0.7122">
        <ele>166</ele>
        <time>2022-08-07T07:10:57.077Z</time>
      </trkpt>
      <trkpt lat="44.20044" lon="0.71218">
        <ele>167</ele>
        <time>2022-08-07T07:11:43.081Z</time>
      </trkpt>
      <trkpt lat="44.20044" lon="0.71217">
        <ele>167</ele>
        <time>2022-08-07T07:11:44.081Z</time>
      </trkpt>
      <trkpt lat="44.20045" lon="0.71216">
        <ele>167</ele>
        <time>2022-08-07T07:11:45.081Z</time>
      </trkpt>
      <trkpt lat="44.20045" lon="0.71215">
        <ele>167</ele>
        <time>2022-08-07T07:11:46.081Z</time>
      </trkpt>
      <trkpt lat="44.20045" lon="0.71214">
        <ele>166</ele>
        <time>2022-08-07T07:11:47.081Z</time>
      </trkpt>
      <trkpt lat="44.20046" lon="0.71213">
        <ele>166</ele>
        <time>2022-08-07T07:11:48.081Z</time>
      </trkpt>
      <trkpt lat="44.20046" lon="0.71212">
        <ele>166</ele>
        <time>2022-08-07T07:11:49.081Z</time>
      </trkpt>
      <trkpt lat="44.20047" lon="0.71211">
        <ele>166</ele>
        <time>2022-08-07T07:11:50.081Z</time>
      </trkpt>
      <trkpt lat="44.20047" lon="0.7121">
        <ele>166</ele>
        <time>2022-08-07T07:11:51.081Z</time>
      </trkpt>
      <trkpt lat="44.20048" lon="0.71209">
        <ele>166</ele>
        <time>2022-08-07T07:11:52.081Z</time>
      </trkpt>
      <trkpt lat="44.20049" lon="0.71208">
        <ele>167</ele>
        <time>2022-08-07T07:11:53.081Z</time>
      </trkpt>
      <trkpt lat="44.20049" lon="0.71207">
        <ele>167</ele>
        <time>2022-08-07T07:11:54.081Z</time>
      </trkpt>
      <trkpt lat="44.2005" lon="0.71206">
        <ele>166</ele>
        <time>2022-08-07T07:11:55.081Z</time>
      </trkpt>
      <trkpt lat="44.2005" lon="0.71205">
        <ele>166</ele>
        <time>2022-08-07T07:11:56.081Z</time>
      </trkpt>
      <trkpt lat="44.20051" lon="0.71204">
        <ele>166</ele>
        <time>2022-08-07T07:11:57.081Z</time>
      </trkpt>
      <trkpt lat="44.20052" lon="0.71203">
        <ele>166</ele>
        <time>2022-08-07T07:11:58.081Z</time>
      </trkpt>
      <trkpt lat="44.20052" lon="0.71201">
        <ele>165</ele>
        <time>2022-08-07T07:11:59.081Z</time>
      </trkpt>
      <trkpt lat="44.20053" lon="0.71199">
        <ele>164</ele>
        <time>2022-08-07T07:12:00.081Z</time>
      </trkpt>
      <trkpt lat="44.20054" lon="0.71198">
        <ele>164</ele>
        <time>2022-08-07T07:12:01.081Z</time>
      </trkpt>
      <trkpt lat="44.20054" lon="0.71197">
        <ele>163</ele>
        <time>2022-08-07T07:12:02.081Z</time>
      </trkpt>
      <trkpt lat="44.20055" lon="0.71196">
        <ele>164</ele>
        <time>2022-08-07T07:12:03.081Z</time>
      </trkpt>
      <trkpt lat="44.20056" lon="0.71195">
        <ele>164</ele>
        <time>2022-08-07T07:12:04.081Z</time>
      </trkpt>
      <trkpt lat="44.20057" lon="0.71194">
        <ele>163</ele>
        <time>2022-08-07T07:12:05.081Z</time>
      </trkpt>
      <trkpt lat="44.20057" lon="0.71192">
        <ele>163</ele>
        <time>2022-08-07T07:12:06.081Z</time>
      </trkpt>
      <trkpt lat="44.20058" lon="0.71191">
        <ele>163</ele>
        <time>2022-08-07T07:12:07.081Z</time>
      </trkpt>
      <trkpt lat="44.20058" lon="0.71189">
        <ele>163</ele>
        <time>2022-08-07T07:12:08.081Z</time>
      </trkpt>
      <trkpt lat="44.20059" lon="0.71188">
        <ele>163</ele>
        <time>2022-08-07T07:12:09.081Z</time>
      </trkpt>
      <trkpt lat="44.20059" lon="0.71187">
        <ele>163</ele>
        <time>2022-08-07T07:12:10.081Z</time>
      </trkpt>
      <trkpt lat="44.2006" lon="0.71186">
        <ele>163</ele>
        <time>2022-08-07T07:12:11.081Z</time>
      </trkpt>
      <trkpt lat="44.2006" lon="0.71185">
        <ele>163</ele>
        <time>2022-08-07T07:12:12.081Z</time>
      </trkpt>
      <trkpt lat="44.20061" lon="0.71184">
        <ele>163</ele>
        <time>2022-08-07T07:12:13.081Z</time>
      </trkpt>
      <trkpt lat="44.20061" lon="0.71183">
        <ele>163</ele>
        <time>2022-08-07T07:12:14.081Z</time>
      </trkpt>
      <trkpt lat="44.20062" lon="0.71182">
        <ele>163</ele>
        <time>2022-08-07T07:12:15.081Z</time>
      </trkpt>
      <trkpt lat="44.20062" lon="0.71181">
        <ele>163</ele>
        <time>2022-08-07T07:12:16.081Z</time>
      </trkpt>
      <trkpt lat="44.20063" lon="0.7118">
        <ele>163</ele>
        <time>2022-08-07T07:12:17.081Z</time>
      </trkpt>
      <trkpt lat="44.20063" lon="0.71179">
        <ele>163</ele>
        <time>2022-08-07T07:12:18.081Z</time>
      </trkpt>
      <trkpt lat="44.20064" lon="0.71177">
        <ele>163</ele>
        <time>2022-08-07T07:12:19.081Z</time>
      </trkpt>
      <trkpt lat="44.20064" lon="0.71176">
        <ele>164</ele>
        <time>2022-08-07T07:12:20.081Z</time>
      </trkpt>
      <trkpt lat="44.20065" lon="0.71175">
        <ele>164</ele>
        <time>2022-08-07T07:12:21.081Z</time>
      </trkpt>
      <trkpt lat="44.20065" lon="0.71174">
        <ele>164</ele>
        <time>2022-08-07T07:12:22.081Z</time>
      </trkpt>
      <trkpt lat="44.20066" lon="0.71173">
        <ele>164</ele>
        <time>2022-08-07T07:12:23.081Z</time>
      </trkpt>
      <trkpt lat="44.20067" lon="0.71172">
        <ele>165</ele>
        <time>2022-08-07T07:12:24.081Z</time>
      </trkpt>
      <trkpt lat="44.20068" lon="0.71171">
        <ele>165</ele>
        <time>2022-08-07T07:12:25.081Z</time>
      </trkpt>
      <trkpt lat="44.20069" lon="0.7117">
        <ele>165</ele>
        <time>2022-08-07T07:12:26.081Z</time>
      </trkpt>
      <trkpt lat="44.2007" lon="0.71168">
        <ele>166</ele>
        <time>2022-08-07T07:12:27.081Z</time>
      </trkpt>
      <trkpt lat="44.2007" lon="0.71166">
        <ele>165</ele>
        <time>2022-08-07T07:12:28.081Z</time>
      </trkpt>
      <trkpt lat="44.20071" lon="0.71165">
        <ele>164</ele>
        <time>2022-08-07T07:12:29.081Z</time>
      </trkpt>
      <trkpt lat="44.20071" lon="0.71163">
        <ele>164</ele>
        <time>2022-08-07T07:12:30.081Z</time>
      </trkpt>
      <trkpt lat="44.20072" lon="0.71162">
        <ele>163</ele>
        <time>2022-08-07T07:12:31.081Z</time>
      </trkpt>
      <trkpt lat="44.20072" lon="0.71161">
        <ele>164</ele>
        <time>2022-08-07T07:12:32.081Z</time>
      </trkpt>
      <trkpt lat="44.20073" lon="0.7116">
        <ele>164</ele>
        <time>2022-08-07T07:12:33.081Z</time>
      </trkpt>
      <trkpt lat="44.20074" lon="0.71158">
        <ele>164</ele>
        <time>2022-08-07T07:12:34.081Z</time>
      </trkpt>
      <trkpt lat="44.20075" lon="0.71157">
        <ele>164</ele>
        <time>2022-08-07T07:12:35.081Z</time>
      </trkpt>
      <trkpt lat="44.20075" lon="0.71156">
        <ele>163</ele>
        <time>2022-08-07T07:12:36.081Z</time>
      </trkpt>
      <trkpt lat="44.20076" lon="0.71155">
        <ele>164</ele>
        <time>2022-08-07T07:12:37.081Z</time>
      </trkpt>
      <trkpt lat="44.20077" lon="0.71155">
        <ele>164</ele>
        <time>2022-08-07T07:12:38.081Z</time>
      </trkpt>
      <trkpt lat="44.20078" lon="0.71154">
        <ele>164</ele>
        <time>2022-08-07T07:12:39.081Z</time>
      </trkpt>
      <trkpt lat="44.20079" lon="0.71152">
        <ele>164</ele>
        <time>2022-08-07T07:12:40.081Z</time>
      </trkpt>
      <trkpt lat="44.2008" lon="0.71151">
        <ele>164</ele>
        <time>2022-08-07T07:12:41.081Z</time>
      </trkpt>
      <trkpt lat="44.2008" lon="0.7115">
        <ele>164</ele>
        <time>2022-08-07T07:12:42.081Z</time>
      </trkpt>
      <trkpt lat="44.2008" lon="0.71148">
        <ele>164</ele>
        <time>2022-08-07T07:12:43.081Z</time>
      </trkpt>
      <trkpt lat="44.2008" lon="0.71146">
        <ele>164</ele>
        <time>2022-08-07T07:12:44.081Z</time>
      </trkpt>
      <trkpt lat="44.2008" lon="0.71144">
        <ele>165</ele>
        <time>2022-08-07T07:12:45.081Z</time>
      </trkpt>
      <trkpt lat="44.20081" lon="0.71143">
        <ele>165</ele>
        <time>2022-08-07T07:12:46.081Z</time>
      </trkpt>
      <trkpt lat="44.20081" lon="0.71141">
        <ele>165</ele>
        <time>2022-08-07T07:12:47.081Z</time>
      </trkpt>
      <trkpt lat="44.20082" lon="0.7114">
        <ele>165</ele>
        <time>2022-08-07T07:12:48.081Z</time>
      </trkpt>
      <trkpt lat="44.20082" lon="0.71139">
        <ele>165</ele>
        <time>2022-08-07T07:12:49.081Z</time>
      </trkpt>
      <trkpt lat="44.20082" lon="0.71138">
        <ele>164</ele>
        <time>2022-08-07T07:12:50.081Z</time>
      </trkpt>
      <trkpt lat="44.20082" lon="0.71136">
        <ele>164</ele>
        <time>2022-08-07T07:12:51.081Z</time>
      </trkpt>
      <trkpt lat="44.20082" lon="0.71135">
        <ele>164</ele>
        <time>2022-08-07T07:12:52.081Z</time>
      </trkpt>
      <trkpt lat="44.20083" lon="0.71133">
        <ele>163</ele>
        <time>2022-08-07T07:12:53.081Z</time>
      </trkpt>
      <trkpt lat="44.20083" lon="0.71131">
        <ele>163</ele>
        <time>2022-08-07T07:12:54.081Z</time>
      </trkpt>
      <trkpt lat="44.20084" lon="0.7113">
        <ele>163</ele>
        <time>2022-08-07T07:12:55.081Z</time>
      </trkpt>
      <trkpt lat="44.20085" lon="0.71128">
        <ele>162</ele>
        <time>2022-08-07T07:12:56.081Z</time>
      </trkpt>
      <trkpt lat="44.20085" lon="0.71127">
        <ele>162</ele>
        <time>2022-08-07T07:12:57.081Z</time>
      </trkpt>
      <trkpt lat="44.20086" lon="0.71125">
        <ele>161</ele>
        <time>2022-08-07T07:12:58.081Z</time>
      </trkpt>
      <trkpt lat="44.20086" lon="0.71123">
        <ele>161</ele>
        <time>2022-08-07T07:12:59.081Z</time>
      </trkpt>
      <trkpt lat="44.20086" lon="0.71121">
        <ele>161</ele>
        <time>2022-08-07T07:13:00.081Z</time>
      </trkpt>
      <trkpt lat="44.20086" lon="0.7112">
        <ele>161</ele>
        <time>2022-08-07T07:13:01.081Z</time>
      </trkpt>
      <trkpt lat="44.20087" lon="0.71118">
        <ele>161</ele>
        <time>2022-08-07T07:13:02.081Z</time>
      </trkpt>
      <trkpt lat="44.20088" lon="0.71118">
        <ele>162</ele>
        <time>2022-08-07T07:13:03.081Z</time>
      </trkpt>
      <trkpt lat="44.20088" lon="0.71116">
        <ele>162</ele>
        <time>2022-08-07T07:13:04.081Z</time>
      </trkpt>
      <trkpt lat="44.20089" lon="0.71115">
        <ele>163</ele>
        <time>2022-08-07T07:13:05.081Z</time>
      </trkpt>
      <trkpt lat="44.20089" lon="0.71114">
        <ele>162</ele>
        <time>2022-08-07T07:13:06.081Z</time>
      </trkpt>
      <trkpt lat="44.2009" lon="0.71112">
        <ele>163</ele>
        <time>2022-08-07T07:13:07.081Z</time>
      </trkpt>
      <trkpt lat="44.20091" lon="0.71111">
        <ele>163</ele>
        <time>2022-08-07T07:13:08.081Z</time>
      </trkpt>
      <trkpt lat="44.20092" lon="0.7111">
        <ele>164</ele>
        <time>2022-08-07T07:13:09.081Z</time>
      </trkpt>
      <trkpt lat="44.20092" lon="0.71109">
        <ele>164</ele>
        <time>2022-08-07T07:13:10.081Z</time>
      </trkpt>
      <trkpt lat="44.20093" lon="0.71108">
        <ele>164</ele>
        <time>2022-08-07T07:13:11.081Z</time>
      </trkpt>
      <trkpt lat="44.20093" lon="0.71107">
        <ele>164</ele>
        <time>2022-08-07T07:13:12.081Z</time>
      </trkpt>
      <trkpt lat="44.20094" lon="0.71106">
        <ele>164</ele>
        <time>2022-08-07T07:13:13.081Z</time>
      </trkpt>
      <trkpt lat="44.20095" lon="0.71104">
        <ele>163</ele>
        <time>2022-08-07T07:13:14.081Z</time>
      </trkpt>
      <trkpt lat="44.20095" lon="0.71103">
        <ele>163</ele>
        <time>2022-08-07T07:13:15.081Z</time>
      </trkpt>
      <trkpt lat="44.20096" lon="0.71101">
        <ele>163</ele>
        <time>2022-08-07T07:13:16.081Z</time>
      </trkpt>
      <trkpt lat="44.20096" lon="0.71099">
        <ele>162</ele>
        <time>2022-08-07T07:13:17.081Z</time>
      </trkpt>
      <trkpt lat="44.20096" lon="0.71097">
        <ele>162</ele>
        <time>2022-08-07T07:13:18.081Z</time>
      </trkpt>
      <trkpt lat="44.20097" lon="0.71096">
        <ele>161</ele>
        <time>2022-08-07T07:13:19.081Z</time>
      </trkpt>
      <trkpt lat="44.20097" lon="0.71094">
        <ele>162</ele>
        <time>2022-08-07T07:13:20.081Z</time>
      </trkpt>
      <trkpt lat="44.20098" lon="0.71093">
        <ele>161</ele>
        <time>2022-08-07T07:13:21.081Z</time>
      </trkpt>
      <trkpt lat="44.20098" lon="0.71091">
        <ele>162</ele>
        <time>2022-08-07T07:13:22.081Z</time>
      </trkpt>
      <trkpt lat="44.20098" lon="0.7109">
        <ele>162</ele>
        <time>2022-08-07T07:13:23.081Z</time>
      </trkpt>
      <trkpt lat="44.20099" lon="0.71088">
        <ele>162</ele>
        <time>2022-08-07T07:13:24.081Z</time>
      </trkpt>
      <trkpt lat="44.201" lon="0.71087">
        <ele>163</ele>
        <time>2022-08-07T07:13:25.081Z</time>
      </trkpt>
      <trkpt lat="44.201" lon="0.71086">
        <ele>163</ele>
        <time>2022-08-07T07:13:26.081Z</time>
      </trkpt>
      <trkpt lat="44.201" lon="0.71085">
        <ele>164</ele>
        <time>2022-08-07T07:13:27.081Z</time>
      </trkpt>
      <trkpt lat="44.20101" lon="0.71083">
        <ele>165</ele>
        <time>2022-08-07T07:13:28.081Z</time>
      </trkpt>
      <trkpt lat="44.20101" lon="0.71082">
        <ele>166</ele>
        <time>2022-08-07T07:13:29.081Z</time>
      </trkpt>
      <trkpt lat="44.20101" lon="0.7108">
        <ele>165</ele>
        <time>2022-08-07T07:13:30.081Z</time>
      </trkpt>
      <trkpt lat="44.20102" lon="0.71079">
        <ele>165</ele>
        <time>2022-08-07T07:13:31.081Z</time>
      </trkpt>
      <trkpt lat="44.20102" lon="0.71078">
        <ele>165</ele>
        <time>2022-08-07T07:13:32.081Z</time>
      </trkpt>
      <trkpt lat="44.20102" lon="0.71076">
        <ele>164</ele>
        <time>2022-08-07T07:13:33.081Z</time>
      </trkpt>
      <trkpt lat="44.20103" lon="0.71075">
        <ele>165</ele>
        <time>2022-08-07T07:13:34.081Z</time>
      </trkpt>
      <trkpt lat="44.20103" lon="0.71073">
        <ele>165</ele>
        <time>2022-08-07T07:13:35.081Z</time>
      </trkpt>
      <trkpt lat="44.20104" lon="0.71072">
        <ele>165</ele>
        <time>2022-08-07T07:13:36.081Z</time>
      </trkpt>
      <trkpt lat="44.20104" lon="0.7107">
        <ele>165</ele>
        <time>2022-08-07T07:13:37.081Z</time>
      </trkpt>
      <trkpt lat="44.20104" lon="0.71069">
        <ele>165</ele>
        <time>2022-08-07T07:13:38.081Z</time>
      </trkpt>
      <trkpt lat="44.20104" lon="0.71068">
        <ele>165</ele>
        <time>2022-08-07T07:13:39.081Z</time>
      </trkpt>
      <trkpt lat="44.20105" lon="0.71067">
        <ele>165</ele>
        <time>2022-08-07T07:13:40.081Z</time>
      </trkpt>
      <trkpt lat="44.20105" lon="0.71066">
        <ele>165</ele>
        <time>2022-08-07T07:13:41.081Z</time>
      </trkpt>
      <trkpt lat="44.20105" lon="0.71065">
        <ele>165</ele>
        <time>2022-08-07T07:13:42.081Z</time>
      </trkpt>
      <trkpt lat="44.20105" lon="0.71063">
        <ele>166</ele>
        <time>2022-08-07T07:13:43.081Z</time>
      </trkpt>
      <trkpt lat="44.20105" lon="0.71062">
        <ele>166</ele>
        <time>2022-08-07T07:13:44.081Z</time>
      </trkpt>
      <trkpt lat="44.20104" lon="0.71061">
        <ele>165</ele>
        <time>2022-08-07T07:13:45.081Z</time>
      </trkpt>
      <trkpt lat="44.20104" lon="0.7106">
        <ele>165</ele>
        <time>2022-08-07T07:13:46.081Z</time>
      </trkpt>
      <trkpt lat="44.20104" lon="0.71058">
        <ele>165</ele>
        <time>2022-08-07T07:13:47.081Z</time>
      </trkpt>
      <trkpt lat="44.20104" lon="0.71057">
        <ele>165</ele>
        <time>2022-08-07T07:13:48.081Z</time>
      </trkpt>
      <trkpt lat="44.20104" lon="0.71055">
        <ele>165</ele>
        <time>2022-08-07T07:13:49.081Z</time>
      </trkpt>
      <trkpt lat="44.20104" lon="0.71054">
        <ele>165</ele>
        <time>2022-08-07T07:13:50.081Z</time>
      </trkpt>
      <trkpt lat="44.20103" lon="0.71052">
        <ele>165</ele>
        <time>2022-08-07T07:13:51.081Z</time>
      </trkpt>
      <trkpt lat="44.20103" lon="0.71051">
        <ele>165</ele>
        <time>2022-08-07T07:13:52.081Z</time>
      </trkpt>
      <trkpt lat="44.20102" lon="0.7105">
        <ele>165</ele>
        <time>2022-08-07T07:13:53.081Z</time>
      </trkpt>
      <trkpt lat="44.20102" lon="0.71048">
        <ele>167</ele>
        <time>2022-08-07T07:13:54.081Z</time>
      </trkpt>
      <trkpt lat="44.20101" lon="0.71047">
        <ele>168</ele>
        <time>2022-08-07T07:13:55.081Z</time>
      </trkpt>
      <trkpt lat="44.20101" lon="0.71046">
        <ele>169</ele>
        <time>2022-08-07T07:13:56.081Z</time>
      </trkpt>
      <trkpt lat="44.201" lon="0.71045">
        <ele>170</ele>
        <time>2022-08-07T07:13:57.081Z</time>
      </trkpt>
      <trkpt lat="44.201" lon="0.71044">
        <ele>170</ele>
        <time>2022-08-07T07:13:58.081Z</time>
      </trkpt>
      <trkpt lat="44.20099" lon="0.71042">
        <ele>170</ele>
        <time>2022-08-07T07:13:59.081Z</time>
      </trkpt>
      <trkpt lat="44.20098" lon="0.71041">
        <ele>170</ele>
        <time>2022-08-07T07:14:00.081Z</time>
      </trkpt>
      <trkpt lat="44.20098" lon="0.7104">
        <ele>170</ele>
        <time>2022-08-07T07:14:01.081Z</time>
      </trkpt>
      <trkpt lat="44.20097" lon="0.71038">
        <ele>171</ele>
        <time>2022-08-07T07:14:02.081Z</time>
      </trkpt>
      <trkpt lat="44.20096" lon="0.71037">
        <ele>171</ele>
        <time>2022-08-07T07:14:03.081Z</time>
      </trkpt>
      <trkpt lat="44.20096" lon="0.71036">
        <ele>171</ele>
        <time>2022-08-07T07:14:04.081Z</time>
      </trkpt>
      <trkpt lat="44.20095" lon="0.71035">
        <ele>171</ele>
        <time>2022-08-07T07:14:05.081Z</time>
      </trkpt>
      <trkpt lat="44.20095" lon="0.71034">
        <ele>171</ele>
        <time>2022-08-07T07:14:06.081Z</time>
      </trkpt>
      <trkpt lat="44.20094" lon="0.71033">
        <ele>171</ele>
        <time>2022-08-07T07:14:07.081Z</time>
      </trkpt>
      <trkpt lat="44.20093" lon="0.71032">
        <ele>171</ele>
        <time>2022-08-07T07:14:08.081Z</time>
      </trkpt>
      <trkpt lat="44.20093" lon="0.71031">
        <ele>171</ele>
        <time>2022-08-07T07:14:09.081Z</time>
      </trkpt>
      <trkpt lat="44.20092" lon="0.7103">
        <ele>172</ele>
        <time>2022-08-07T07:14:10.081Z</time>
      </trkpt>
      <trkpt lat="44.20092" lon="0.71029">
        <ele>173</ele>
        <time>2022-08-07T07:14:11.081Z</time>
      </trkpt>
      <trkpt lat="44.20091" lon="0.71028">
        <ele>173</ele>
        <time>2022-08-07T07:14:12.081Z</time>
      </trkpt>
      <trkpt lat="44.2009" lon="0.71027">
        <ele>172</ele>
        <time>2022-08-07T07:14:13.081Z</time>
      </trkpt>
      <trkpt lat="44.2009" lon="0.71026">
        <ele>172</ele>
        <time>2022-08-07T07:14:14.081Z</time>
      </trkpt>
      <trkpt lat="44.20089" lon="0.71026">
        <ele>172</ele>
        <time>2022-08-07T07:14:15.081Z</time>
      </trkpt>
      <trkpt lat="44.20089" lon="0.71025">
        <ele>173</ele>
        <time>2022-08-07T07:14:16.081Z</time>
      </trkpt>
      <trkpt lat="44.20088" lon="0.71023">
        <ele>173</ele>
        <time>2022-08-07T07:14:17.081Z</time>
      </trkpt>
      <trkpt lat="44.20088" lon="0.71022">
        <ele>173</ele>
        <time>2022-08-07T07:14:18.081Z</time>
      </trkpt>
      <trkpt lat="44.20087" lon="0.71021">
        <ele>173</ele>
        <time>2022-08-07T07:14:19.081Z</time>
      </trkpt>
      <trkpt lat="44.20087" lon="0.71021">
        <ele>174</ele>
        <time>2022-08-07T07:14:20.081Z</time>
      </trkpt>
      <trkpt lat="44.20087" lon="0.7102">
        <ele>173</ele>
        <time>2022-08-07T07:14:21.081Z</time>
      </trkpt>
      <trkpt lat="44.20086" lon="0.71018">
        <ele>174</ele>
        <time>2022-08-07T07:14:22.081Z</time>
      </trkpt>
      <trkpt lat="44.20086" lon="0.71017">
        <ele>175</ele>
        <time>2022-08-07T07:14:23.081Z</time>
      </trkpt>
      <trkpt lat="44.20085" lon="0.71015">
        <ele>174</ele>
        <time>2022-08-07T07:14:24.081Z</time>
      </trkpt>
      <trkpt lat="44.20085" lon="0.71014">
        <ele>174</ele>
        <time>2022-08-07T07:14:25.081Z</time>
      </trkpt>
      <trkpt lat="44.20084" lon="0.71012">
        <ele>173</ele>
        <time>2022-08-07T07:14:26.081Z</time>
      </trkpt>
      <trkpt lat="44.20084" lon="0.71011">
        <ele>174</ele>
        <time>2022-08-07T07:14:27.081Z</time>
      </trkpt>
      <trkpt lat="44.20083" lon="0.7101">
        <ele>174</ele>
        <time>2022-08-07T07:14:28.081Z</time>
      </trkpt>
      <trkpt lat="44.20082" lon="0.71008">
        <ele>174</ele>
        <time>2022-08-07T07:14:29.081Z</time>
      </trkpt>
      <trkpt lat="44.20081" lon="0.71007">
        <ele>174</ele>
        <time>2022-08-07T07:14:30.081Z</time>
      </trkpt>
      <trkpt lat="44.2008" lon="0.71006">
        <ele>174</ele>
        <time>2022-08-07T07:14:31.081Z</time>
      </trkpt>
      <trkpt lat="44.2008" lon="0.71004">
        <ele>174</ele>
        <time>2022-08-07T07:14:32.081Z</time>
      </trkpt>
      <trkpt lat="44.2008" lon="0.71003">
        <ele>174</ele>
        <time>2022-08-07T07:14:33.081Z</time>
      </trkpt>
      <trkpt lat="44.20079" lon="0.71002">
        <ele>174</ele>
        <time>2022-08-07T07:14:34.081Z</time>
      </trkpt>
      <trkpt lat="44.20078" lon="0.71">
        <ele>174</ele>
        <time>2022-08-07T07:14:35.081Z</time>
      </trkpt>
      <trkpt lat="44.20077" lon="0.70999">
        <ele>174</ele>
        <time>2022-08-07T07:14:36.081Z</time>
      </trkpt>
      <trkpt lat="44.20076" lon="0.70998">
        <ele>174</ele>
        <time>2022-08-07T07:14:37.081Z</time>
      </trkpt>
      <trkpt lat="44.20076" lon="0.70997">
        <ele>173</ele>
        <time>2022-08-07T07:14:38.081Z</time>
      </trkpt>
      <trkpt lat="44.20075" lon="0.70996">
        <ele>173</ele>
        <time>2022-08-07T07:14:39.081Z</time>
      </trkpt>
      <trkpt lat="44.20075" lon="0.70994">
        <ele>173</ele>
        <time>2022-08-07T07:14:40.081Z</time>
      </trkpt>
      <trkpt lat="44.20074" lon="0.70993">
        <ele>173</ele>
        <time>2022-08-07T07:14:41.081Z</time>
      </trkpt>
      <trkpt lat="44.20073" lon="0.70992">
        <ele>172</ele>
        <time>2022-08-07T07:14:42.081Z</time>
      </trkpt>
      <trkpt lat="44.20072" lon="0.70991">
        <ele>172</ele>
        <time>2022-08-07T07:14:43.081Z</time>
      </trkpt>
      <trkpt lat="44.20072" lon="0.7099">
        <ele>172</ele>
        <time>2022-08-07T07:14:44.081Z</time>
      </trkpt>
      <trkpt lat="44.20071" lon="0.70989">
        <ele>171</ele>
        <time>2022-08-07T07:14:45.081Z</time>
      </trkpt>
      <trkpt lat="44.2007" lon="0.70988">
        <ele>171</ele>
        <time>2022-08-07T07:14:46.081Z</time>
      </trkpt>
      <trkpt lat="44.2007" lon="0.70987">
        <ele>171</ele>
        <time>2022-08-07T07:14:47.081Z</time>
      </trkpt>
      <trkpt lat="44.20069" lon="0.70986">
        <ele>172</ele>
        <time>2022-08-07T07:14:48.081Z</time>
      </trkpt>
      <trkpt lat="44.20068" lon="0.70984">
        <ele>171</ele>
        <time>2022-08-07T07:14:49.081Z</time>
      </trkpt>
      <trkpt lat="44.20067" lon="0.70983">
        <ele>171</ele>
        <time>2022-08-07T07:14:50.081Z</time>
      </trkpt>
      <trkpt lat="44.20066" lon="0.70981">
        <ele>169</ele>
        <time>2022-08-07T07:14:51.081Z</time>
      </trkpt>
      <trkpt lat="44.20066" lon="0.70979">
        <ele>169</ele>
        <time>2022-08-07T07:14:52.081Z</time>
      </trkpt>
      <trkpt lat="44.20065" lon="0.70978">
        <ele>168</ele>
        <time>2022-08-07T07:14:53.081Z</time>
      </trkpt>
      <trkpt lat="44.20065" lon="0.70976">
        <ele>167</ele>
        <time>2022-08-07T07:14:54.081Z</time>
      </trkpt>
      <trkpt lat="44.20064" lon="0.70975">
        <ele>166</ele>
        <time>2022-08-07T07:14:55.081Z</time>
      </trkpt>
      <trkpt lat="44.20063" lon="0.70973">
        <ele>165</ele>
        <time>2022-08-07T07:14:56.081Z</time>
      </trkpt>
      <trkpt lat="44.20063" lon="0.70971">
        <ele>164</ele>
        <time>2022-08-07T07:14:57.081Z</time>
      </trkpt>
      <trkpt lat="44.20062" lon="0.7097">
        <ele>164</ele>
        <time>2022-08-07T07:14:58.081Z</time>
      </trkpt>
      <trkpt lat="44.20061" lon="0.70968">
        <ele>163</ele>
        <time>2022-08-07T07:14:59.081Z</time>
      </trkpt>
      <trkpt lat="44.20061" lon="0.70967">
        <ele>162</ele>
        <time>2022-08-07T07:15:00.081Z</time>
      </trkpt>
      <trkpt lat="44.2006" lon="0.70965">
        <ele>162</ele>
        <time>2022-08-07T07:15:01.081Z</time>
      </trkpt>
      <trkpt lat="44.20059" lon="0.70964">
        <ele>161</ele>
        <time>2022-08-07T07:15:02.081Z</time>
      </trkpt>
      <trkpt lat="44.20059" lon="0.70963">
        <ele>161</ele>
        <time>2022-08-07T07:15:03.081Z</time>
      </trkpt>
      <trkpt lat="44.20058" lon="0.70961">
        <ele>160</ele>
        <time>2022-08-07T07:15:04.081Z</time>
      </trkpt>
      <trkpt lat="44.20058" lon="0.7096">
        <ele>160</ele>
        <time>2022-08-07T07:15:05.081Z</time>
      </trkpt>
      <trkpt lat="44.20057" lon="0.70959">
        <ele>159</ele>
        <time>2022-08-07T07:15:06.081Z</time>
      </trkpt>
      <trkpt lat="44.20057" lon="0.70957">
        <ele>159</ele>
        <time>2022-08-07T07:15:07.081Z</time>
      </trkpt>
      <trkpt lat="44.20056" lon="0.70956">
        <ele>159</ele>
        <time>2022-08-07T07:15:08.081Z</time>
      </trkpt>
      <trkpt lat="44.20055" lon="0.70955">
        <ele>158</ele>
        <time>2022-08-07T07:15:09.081Z</time>
      </trkpt>
      <trkpt lat="44.20055" lon="0.70954">
        <ele>159</ele>
        <time>2022-08-07T07:15:10.081Z</time>
      </trkpt>
      <trkpt lat="44.20055" lon="0.70953">
        <ele>159</ele>
        <time>2022-08-07T07:15:11.081Z</time>
      </trkpt>
      <trkpt lat="44.20054" lon="0.70952">
        <ele>160</ele>
        <time>2022-08-07T07:15:12.081Z</time>
      </trkpt>
      <trkpt lat="44.20053" lon="0.70951">
        <ele>160</ele>
        <time>2022-08-07T07:15:13.081Z</time>
      </trkpt>
      <trkpt lat="44.20053" lon="0.7095">
        <ele>160</ele>
        <time>2022-08-07T07:15:14.081Z</time>
      </trkpt>
      <trkpt lat="44.20052" lon="0.70949">
        <ele>160</ele>
        <time>2022-08-07T07:15:15.081Z</time>
      </trkpt>
      <trkpt lat="44.20052" lon="0.70947">
        <ele>159</ele>
        <time>2022-08-07T07:15:16.081Z</time>
      </trkpt>
      <trkpt lat="44.20051" lon="0.70946">
        <ele>159</ele>
        <time>2022-08-07T07:15:17.081Z</time>
      </trkpt>
      <trkpt lat="44.20051" lon="0.70945">
        <ele>159</ele>
        <time>2022-08-07T07:15:18.081Z</time>
      </trkpt>
      <trkpt lat="44.2005" lon="0.70944">
        <ele>159</ele>
        <time>2022-08-07T07:15:19.081Z</time>
      </trkpt>
      <trkpt lat="44.2005" lon="0.70943">
        <ele>159</ele>
        <time>2022-08-07T07:15:20.081Z</time>
      </trkpt>
      <trkpt lat="44.20049" lon="0.70942">
        <ele>160</ele>
        <time>2022-08-07T07:15:21.081Z</time>
      </trkpt>
      <trkpt lat="44.20049" lon="0.70941">
        <ele>161</ele>
        <time>2022-08-07T07:15:22.081Z</time>
      </trkpt>
      <trkpt lat="44.20049" lon="0.7094">
        <ele>161</ele>
        <time>2022-08-07T07:15:23.081Z</time>
      </trkpt>
      <trkpt lat="44.20049" lon="0.7094">
        <ele>161</ele>
        <time>2022-08-07T07:15:24.081Z</time>
      </trkpt>
      <trkpt lat="44.20048" lon="0.70939">
        <ele>161</ele>
        <time>2022-08-07T07:15:25.081Z</time>
      </trkpt>
      <trkpt lat="44.20048" lon="0.70938">
        <ele>160</ele>
        <time>2022-08-07T07:15:26.081Z</time>
      </trkpt>
      <trkpt lat="44.20047" lon="0.70938">
        <ele>159</ele>
        <time>2022-08-07T07:15:27.081Z</time>
      </trkpt>
      <trkpt lat="44.20046" lon="0.70937">
        <ele>159</ele>
        <time>2022-08-07T07:15:28.081Z</time>
      </trkpt>
      <trkpt lat="44.20046" lon="0.70937">
        <ele>159</ele>
        <time>2022-08-07T07:15:29.081Z</time>
      </trkpt>
      <trkpt lat="44.20046" lon="0.70936">
        <ele>159</ele>
        <time>2022-08-07T07:15:30.081Z</time>
      </trkpt>
      <trkpt lat="44.20045" lon="0.70936">
        <ele>159</ele>
        <time>2022-08-07T07:15:31.081Z</time>
      </trkpt>
      <trkpt lat="44.20045" lon="0.70935">
        <ele>159</ele>
        <time>2022-08-07T07:15:32.081Z</time>
      </trkpt>
      <trkpt lat="44.20046" lon="0.70934">
        <ele>158</ele>
        <time>2022-08-07T07:15:33.081Z</time>
      </trkpt>
      <trkpt lat="44.20046" lon="0.70933">
        <ele>158</ele>
        <time>2022-08-07T07:15:34.081Z</time>
      </trkpt>
      <trkpt lat="44.20046" lon="0.70932">
        <ele>158</ele>
        <time>2022-08-07T07:15:35.081Z</time>
      </trkpt>
      <trkpt lat="44.20046" lon="0.7093">
        <ele>158</ele>
        <time>2022-08-07T07:15:36.081Z</time>
      </trkpt>
      <trkpt lat="44.20047" lon="0.70928">
        <ele>158</ele>
        <time>2022-08-07T07:15:37.081Z</time>
      </trkpt>
      <trkpt lat="44.20047" lon="0.70926">
        <ele>158</ele>
        <time>2022-08-07T07:15:38.081Z</time>
      </trkpt>
      <trkpt lat="44.20047" lon="0.70925">
        <ele>157</ele>
        <time>2022-08-07T07:15:39.081Z</time>
      </trkpt>
      <trkpt lat="44.20047" lon="0.70923">
        <ele>158</ele>
        <time>2022-08-07T07:15:40.081Z</time>
      </trkpt>
      <trkpt lat="44.20048" lon="0.70922">
        <ele>158</ele>
        <time>2022-08-07T07:15:41.081Z</time>
      </trkpt>
      <trkpt lat="44.20048" lon="0.70921">
        <ele>158</ele>
        <time>2022-08-07T07:15:42.081Z</time>
      </trkpt>
      <trkpt lat="44.20049" lon="0.70919">
        <ele>159</ele>
        <time>2022-08-07T07:15:43.081Z</time>
      </trkpt>
      <trkpt lat="44.20049" lon="0.70918">
        <ele>158</ele>
        <time>2022-08-07T07:15:44.081Z</time>
      </trkpt>
      <trkpt lat="44.20049" lon="0.70918">
        <ele>160</ele>
        <time>2022-08-07T07:15:45.081Z</time>
      </trkpt>
      <trkpt lat="44.2005" lon="0.70917">
        <ele>160</ele>
        <time>2022-08-07T07:15:46.081Z</time>
      </trkpt>
      <trkpt lat="44.2005" lon="0.70917">
        <ele>161</ele>
        <time>2022-08-07T07:15:47.081Z</time>
      </trkpt>
      <trkpt lat="44.2005" lon="0.70917">
        <ele>161</ele>
        <time>2022-08-07T07:15:48.081Z</time>
      </trkpt>
      <trkpt lat="44.2005" lon="0.70916">
        <ele>161</ele>
        <time>2022-08-07T07:15:49.081Z</time>
      </trkpt>
      <trkpt lat="44.2005" lon="0.70916">
        <ele>161</ele>
        <time>2022-08-07T07:15:50.081Z</time>
      </trkpt>
      <trkpt lat="44.20049" lon="0.70915">
        <ele>160</ele>
        <time>2022-08-07T07:15:51.081Z</time>
      </trkpt>
      <trkpt lat="44.20048" lon="0.70916">
        <ele>165</ele>
        <time>2022-08-07T07:16:34.093Z</time>
      </trkpt>
      <trkpt lat="44.20048" lon="0.70917">
        <ele>166</ele>
        <time>2022-08-07T07:16:35.093Z</time>
      </trkpt>
      <trkpt lat="44.20047" lon="0.70919">
        <ele>166</ele>
        <time>2022-08-07T07:16:36.093Z</time>
      </trkpt>
      <trkpt lat="44.20047" lon="0.7092">
        <ele>166</ele>
        <time>2022-08-07T07:16:37.093Z</time>
      </trkpt>
      <trkpt lat="44.20047" lon="0.70922">
        <ele>166</ele>
        <time>2022-08-07T07:16:38.093Z</time>
      </trkpt>
      <trkpt lat="44.20046" lon="0.70923">
        <ele>166</ele>
        <time>2022-08-07T07:16:39.093Z</time>
      </trkpt>
      <trkpt lat="44.20046" lon="0.70924">
        <ele>167</ele>
        <time>2022-08-07T07:16:40.093Z</time>
      </trkpt>
      <trkpt lat="44.20046" lon="0.70925">
        <ele>167</ele>
        <time>2022-08-07T07:16:41.093Z</time>
      </trkpt>
      <trkpt lat="44.20046" lon="0.70926">
        <ele>167</ele>
        <time>2022-08-07T07:16:42.093Z</time>
      </trkpt>
      <trkpt lat="44.20046" lon="0.70927">
        <ele>168</ele>
        <time>2022-08-07T07:16:43.093Z</time>
      </trkpt>
      <trkpt lat="44.20046" lon="0.70928">
        <ele>168</ele>
        <time>2022-08-07T07:16:44.093Z</time>
      </trkpt>
      <trkpt lat="44.20045" lon="0.70929">
        <ele>168</ele>
        <time>2022-08-07T07:16:45.093Z</time>
      </trkpt>
      <trkpt lat="44.20045" lon="0.7093">
        <ele>169</ele>
        <time>2022-08-07T07:16:46.093Z</time>
      </trkpt>
      <trkpt lat="44.20045" lon="0.7093">
        <ele>169</ele>
        <time>2022-08-07T07:16:47.093Z</time>
      </trkpt>
      <trkpt lat="44.20044" lon="0.70931">
        <ele>169</ele>
        <time>2022-08-07T07:16:48.093Z</time>
      </trkpt>
      <trkpt lat="44.20045" lon="0.70931">
        <ele>169</ele>
        <time>2022-08-07T07:16:49.093Z</time>
      </trkpt>
      <trkpt lat="44.20045" lon="0.70931">
        <ele>170</ele>
        <time>2022-08-07T07:16:50.093Z</time>
      </trkpt>
      <trkpt lat="44.20045" lon="0.70931">
        <ele>170</ele>
        <time>2022-08-07T07:16:51.093Z</time>
      </trkpt>
      <trkpt lat="44.20045" lon="0.70931">
        <ele>170</ele>
        <time>2022-08-07T07:16:52.093Z</time>
      </trkpt>
      <trkpt lat="44.20045" lon="0.70932">
        <ele>170</ele>
        <time>2022-08-07T07:16:53.093Z</time>
      </trkpt>
      <trkpt lat="44.20045" lon="0.70932">
        <ele>170</ele>
        <time>2022-08-07T07:16:54.093Z</time>
      </trkpt>
      <trkpt lat="44.20042" lon="0.70933">
        <ele>168</ele>
        <time>2022-08-07T07:17:10.101Z</time>
      </trkpt>
      <trkpt lat="44.20042" lon="0.70933">
        <ele>168</ele>
        <time>2022-08-07T07:17:11.101Z</time>
      </trkpt>
      <trkpt lat="44.20041" lon="0.70933">
        <ele>167</ele>
        <time>2022-08-07T07:17:12.101Z</time>
      </trkpt>
      <trkpt lat="44.2004" lon="0.70933">
        <ele>167</ele>
        <time>2022-08-07T07:17:13.101Z</time>
      </trkpt>
      <trkpt lat="44.20039" lon="0.70933">
        <ele>167</ele>
        <time>2022-08-07T07:17:14.101Z</time>
      </trkpt>
      <trkpt lat="44.20039" lon="0.70934">
        <ele>167</ele>
        <time>2022-08-07T07:17:15.101Z</time>
      </trkpt>
      <trkpt lat="44.20038" lon="0.70934">
        <ele>167</ele>
        <time>2022-08-07T07:17:16.101Z</time>
      </trkpt>
      <trkpt lat="44.20036" lon="0.70934">
        <ele>167</ele>
        <time>2022-08-07T07:17:17.101Z</time>
      </trkpt>
      <trkpt lat="44.20035" lon="0.70934">
        <ele>167</ele>
        <time>2022-08-07T07:17:18.101Z</time>
      </trkpt>
      <trkpt lat="44.20034" lon="0.70934">
        <ele>167</ele>
        <time>2022-08-07T07:17:19.101Z</time>
      </trkpt>
      <trkpt lat="44.20033" lon="0.70934">
        <ele>167</ele>
        <time>2022-08-07T07:17:20.101Z</time>
      </trkpt>
      <trkpt lat="44.20032" lon="0.70933">
        <ele>167</ele>
        <time>2022-08-07T07:17:21.101Z</time>
      </trkpt>
      <trkpt lat="44.20031" lon="0.70933">
        <ele>166</ele>
        <time>2022-08-07T07:17:22.101Z</time>
      </trkpt>
      <trkpt lat="44.2003" lon="0.70933">
        <ele>166</ele>
        <time>2022-08-07T07:17:23.101Z</time>
      </trkpt>
      <trkpt lat="44.20029" lon="0.70933">
        <ele>166</ele>
        <time>2022-08-07T07:17:24.101Z</time>
      </trkpt>
      <trkpt lat="44.20028" lon="0.70933">
        <ele>165</ele>
        <time>2022-08-07T07:17:25.101Z</time>
      </trkpt>
      <trkpt lat="44.20027" lon="0.70933">
        <ele>165</ele>
        <time>2022-08-07T07:17:26.101Z</time>
      </trkpt>
      <trkpt lat="44.20026" lon="0.70933">
        <ele>165</ele>
        <time>2022-08-07T07:17:27.101Z</time>
      </trkpt>
      <trkpt lat="44.20025" lon="0.70933">
        <ele>164</ele>
        <time>2022-08-07T07:17:28.101Z</time>
      </trkpt>
      <trkpt lat="44.20024" lon="0.70933">
        <ele>165</ele>
        <time>2022-08-07T07:17:29.101Z</time>
      </trkpt>
      <trkpt lat="44.20023" lon="0.70932">
        <ele>165</ele>
        <time>2022-08-07T07:17:30.101Z</time>
      </trkpt>
      <trkpt lat="44.20022" lon="0.70932">
        <ele>165</ele>
        <time>2022-08-07T07:17:31.101Z</time>
      </trkpt>
      <trkpt lat="44.20021" lon="0.70932">
        <ele>164</ele>
        <time>2022-08-07T07:17:32.101Z</time>
      </trkpt>
      <trkpt lat="44.2002" lon="0.70932">
        <ele>164</ele>
        <time>2022-08-07T07:17:33.101Z</time>
      </trkpt>
      <trkpt lat="44.20019" lon="0.70932">
        <ele>164</ele>
        <time>2022-08-07T07:17:34.101Z</time>
      </trkpt>
      <trkpt lat="44.20019" lon="0.70932">
        <ele>163</ele>
        <time>2022-08-07T07:17:35.101Z</time>
      </trkpt>
      <trkpt lat="44.20018" lon="0.70932">
        <ele>162</ele>
        <time>2022-08-07T07:17:36.101Z</time>
      </trkpt>
      <trkpt lat="44.20017" lon="0.70932">
        <ele>162</ele>
        <time>2022-08-07T07:17:37.101Z</time>
      </trkpt>
      <trkpt lat="44.20017" lon="0.70931">
        <ele>163</ele>
        <time>2022-08-07T07:17:38.101Z</time>
      </trkpt>
      <trkpt lat="44.20017" lon="0.70931">
        <ele>163</ele>
        <time>2022-08-07T07:17:39.101Z</time>
      </trkpt>
      <trkpt lat="44.20017" lon="0.70932">
        <ele>164</ele>
        <time>2022-08-07T07:17:40.101Z</time>
      </trkpt>
      <trkpt lat="44.20017" lon="0.70932">
        <ele>164</ele>
        <time>2022-08-07T07:17:41.101Z</time>
      </trkpt>
      <trkpt lat="44.20017" lon="0.70931">
        <ele>164</ele>
        <time>2022-08-07T07:17:42.101Z</time>
      </trkpt>
      <trkpt lat="44.20017" lon="0.70932">
        <ele>165</ele>
        <time>2022-08-07T07:17:43.101Z</time>
      </trkpt>
      <trkpt lat="44.20017" lon="0.70932">
        <ele>165</ele>
        <time>2022-08-07T07:17:44.101Z</time>
      </trkpt>
      <trkpt lat="44.20013" lon="0.70933">
        <ele>163</ele>
        <time>2022-08-07T07:17:50.109Z</time>
      </trkpt>
      <trkpt lat="44.20012" lon="0.70933">
        <ele>162</ele>
        <time>2022-08-07T07:17:51.109Z</time>
      </trkpt>
      <trkpt lat="44.20011" lon="0.70933">
        <ele>162</ele>
        <time>2022-08-07T07:17:52.109Z</time>
      </trkpt>
      <trkpt lat="44.2001" lon="0.70933">
        <ele>162</ele>
        <time>2022-08-07T07:17:53.109Z</time>
      </trkpt>
      <trkpt lat="44.20009" lon="0.70933">
        <ele>162</ele>
        <time>2022-08-07T07:17:54.109Z</time>
      </trkpt>
      <trkpt lat="44.20008" lon="0.70933">
        <ele>162</ele>
        <time>2022-08-07T07:17:55.109Z</time>
      </trkpt>
      <trkpt lat="44.20007" lon="0.70933">
        <ele>162</ele>
        <time>2022-08-07T07:17:56.109Z</time>
      </trkpt>
      <trkpt lat="44.20006" lon="0.70933">
        <ele>162</ele>
        <time>2022-08-07T07:17:57.109Z</time>
      </trkpt>
      <trkpt lat="44.20005" lon="0.70934">
        <ele>161</ele>
        <time>2022-08-07T07:17:58.109Z</time>
      </trkpt>
      <trkpt lat="44.20004" lon="0.70934">
        <ele>162</ele>
        <time>2022-08-07T07:17:59.109Z</time>
      </trkpt>
      <trkpt lat="44.20003" lon="0.70934">
        <ele>161</ele>
        <time>2022-08-07T07:18:00.109Z</time>
      </trkpt>
      <trkpt lat="44.20002" lon="0.70934">
        <ele>161</ele>
        <time>2022-08-07T07:18:01.109Z</time>
      </trkpt>
      <trkpt lat="44.20002" lon="0.70934">
        <ele>161</ele>
        <time>2022-08-07T07:18:02.109Z</time>
      </trkpt>
      <trkpt lat="44.20001" lon="0.70934">
        <ele>160</ele>
        <time>2022-08-07T07:18:03.109Z</time>
      </trkpt>
      <trkpt lat="44.2" lon="0.70934">
        <ele>160</ele>
        <time>2022-08-07T07:18:04.109Z</time>
      </trkpt>
      <trkpt lat="44.19999" lon="0.70934">
        <ele>160</ele>
        <time>2022-08-07T07:18:05.109Z</time>
      </trkpt>
      <trkpt lat="44.19998" lon="0.70934">
        <ele>160</ele>
        <time>2022-08-07T07:18:06.109Z</time>
      </trkpt>
      <trkpt lat="44.19997" lon="0.70934">
        <ele>161</ele>
        <time>2022-08-07T07:18:07.109Z</time>
      </trkpt>
      <trkpt lat="44.19996" lon="0.70934">
        <ele>161</ele>
        <time>2022-08-07T07:18:08.109Z</time>
      </trkpt>
      <trkpt lat="44.19995" lon="0.70934">
        <ele>161</ele>
        <time>2022-08-07T07:18:09.109Z</time>
      </trkpt>
      <trkpt lat="44.19994" lon="0.70934">
        <ele>160</ele>
        <time>2022-08-07T07:18:10.109Z</time>
      </trkpt>
      <trkpt lat="44.19992" lon="0.70934">
        <ele>158</ele>
        <time>2022-08-07T07:18:11.109Z</time>
      </trkpt>
      <trkpt lat="44.1999" lon="0.70934">
        <ele>158</ele>
        <time>2022-08-07T07:18:12.109Z</time>
      </trkpt>
      <trkpt lat="44.19988" lon="0.70933">
        <ele>157</ele>
        <time>2022-08-07T07:18:13.109Z</time>
      </trkpt>
      <trkpt lat="44.19987" lon="0.70933">
        <ele>156</ele>
        <time>2022-08-07T07:18:14.109Z</time>
      </trkpt>
      <trkpt lat="44.19986" lon="0.70933">
        <ele>154</ele>
        <time>2022-08-07T07:18:15.109Z</time>
      </trkpt>
      <trkpt lat="44.19985" lon="0.70933">
        <ele>155</ele>
        <time>2022-08-07T07:18:16.109Z</time>
      </trkpt>
      <trkpt lat="44.19984" lon="0.70933">
        <ele>155</ele>
        <time>2022-08-07T07:18:17.109Z</time>
      </trkpt>
      <trkpt lat="44.19982" lon="0.70933">
        <ele>155</ele>
        <time>2022-08-07T07:18:18.109Z</time>
      </trkpt>
      <trkpt lat="44.19981" lon="0.70934">
        <ele>155</ele>
        <time>2022-08-07T07:18:19.109Z</time>
      </trkpt>
      <trkpt lat="44.1998" lon="0.70934">
        <ele>155</ele>
        <time>2022-08-07T07:18:20.109Z</time>
      </trkpt>
      <trkpt lat="44.19979" lon="0.70934">
        <ele>155</ele>
        <time>2022-08-07T07:18:21.109Z</time>
      </trkpt>
      <trkpt lat="44.19978" lon="0.70934">
        <ele>154</ele>
        <time>2022-08-07T07:18:22.109Z</time>
      </trkpt>
      <trkpt lat="44.19977" lon="0.70934">
        <ele>154</ele>
        <time>2022-08-07T07:18:23.109Z</time>
      </trkpt>
      <trkpt lat="44.19976" lon="0.70933">
        <ele>154</ele>
        <time>2022-08-07T07:18:24.109Z</time>
      </trkpt>
      <trkpt lat="44.19974" lon="0.70933">
        <ele>155</ele>
        <time>2022-08-07T07:18:25.109Z</time>
      </trkpt>
      <trkpt lat="44.19973" lon="0.70934">
        <ele>155</ele>
        <time>2022-08-07T07:18:26.109Z</time>
      </trkpt>
      <trkpt lat="44.19972" lon="0.70934">
        <ele>155</ele>
        <time>2022-08-07T07:18:27.109Z</time>
      </trkpt>
      <trkpt lat="44.19971" lon="0.70934">
        <ele>155</ele>
        <time>2022-08-07T07:18:28.109Z</time>
      </trkpt>
      <trkpt lat="44.1997" lon="0.70934">
        <ele>155</ele>
        <time>2022-08-07T07:18:29.109Z</time>
      </trkpt>
      <trkpt lat="44.19969" lon="0.70934">
        <ele>154</ele>
        <time>2022-08-07T07:18:30.109Z</time>
      </trkpt>
      <trkpt lat="44.19968" lon="0.70934">
        <ele>155</ele>
        <time>2022-08-07T07:18:31.109Z</time>
      </trkpt>
      <trkpt lat="44.19967" lon="0.70933">
        <ele>155</ele>
        <time>2022-08-07T07:18:32.109Z</time>
      </trkpt>
      <trkpt lat="44.19965" lon="0.70933">
        <ele>155</ele>
        <time>2022-08-07T07:18:33.109Z</time>
      </trkpt>
      <trkpt lat="44.19964" lon="0.70933">
        <ele>155</ele>
        <time>2022-08-07T07:18:34.109Z</time>
      </trkpt>
      <trkpt lat="44.19963" lon="0.70933">
        <ele>154</ele>
        <time>2022-08-07T07:18:35.109Z</time>
      </trkpt>
      <trkpt lat="44.19961" lon="0.70934">
        <ele>154</ele>
        <time>2022-08-07T07:18:36.109Z</time>
      </trkpt>
      <trkpt lat="44.1996" lon="0.70934">
        <ele>154</ele>
        <time>2022-08-07T07:18:37.109Z</time>
      </trkpt>
      <trkpt lat="44.19958" lon="0.70934">
        <ele>154</ele>
        <time>2022-08-07T07:18:38.109Z</time>
      </trkpt>
      <trkpt lat="44.19957" lon="0.70934">
        <ele>154</ele>
        <time>2022-08-07T07:18:39.109Z</time>
      </trkpt>
      <trkpt lat="44.19956" lon="0.70934">
        <ele>154</ele>
        <time>2022-08-07T07:18:40.109Z</time>
      </trkpt>
      <trkpt lat="44.19954" lon="0.70934">
        <ele>155</ele>
        <time>2022-08-07T07:18:41.109Z</time>
      </trkpt>
      <trkpt lat="44.19953" lon="0.70934">
        <ele>155</ele>
        <time>2022-08-07T07:18:42.109Z</time>
      </trkpt>
      <trkpt lat="44.19952" lon="0.70934">
        <ele>156</ele>
        <time>2022-08-07T07:18:43.109Z</time>
      </trkpt>
      <trkpt lat="44.19951" lon="0.70934">
        <ele>156</ele>
        <time>2022-08-07T07:18:44.109Z</time>
      </trkpt>
      <trkpt lat="44.1995" lon="0.70934">
        <ele>157</ele>
        <time>2022-08-07T07:18:45.109Z</time>
      </trkpt>
      <trkpt lat="44.19949" lon="0.70934">
        <ele>157</ele>
        <time>2022-08-07T07:18:46.109Z</time>
      </trkpt>
      <trkpt lat="44.19948" lon="0.70934">
        <ele>158</ele>
        <time>2022-08-07T07:18:47.109Z</time>
      </trkpt>
      <trkpt lat="44.19947" lon="0.70933">
        <ele>158</ele>
        <time>2022-08-07T07:18:48.109Z</time>
      </trkpt>
      <trkpt lat="44.19946" lon="0.70933">
        <ele>159</ele>
        <time>2022-08-07T07:18:49.109Z</time>
      </trkpt>
      <trkpt lat="44.19945" lon="0.70932">
        <ele>160</ele>
        <time>2022-08-07T07:18:50.109Z</time>
      </trkpt>
      <trkpt lat="44.19944" lon="0.70931">
        <ele>161</ele>
        <time>2022-08-07T07:18:51.109Z</time>
      </trkpt>
      <trkpt lat="44.19943" lon="0.7093">
        <ele>161</ele>
        <time>2022-08-07T07:18:52.109Z</time>
      </trkpt>
      <trkpt lat="44.19942" lon="0.70929">
        <ele>161</ele>
        <time>2022-08-07T07:18:53.109Z</time>
      </trkpt>
      <trkpt lat="44.19941" lon="0.70928">
        <ele>161</ele>
        <time>2022-08-07T07:18:54.109Z</time>
      </trkpt>
      <trkpt lat="44.19941" lon="0.70927">
        <ele>163</ele>
        <time>2022-08-07T07:18:55.109Z</time>
      </trkpt>
      <trkpt lat="44.19941" lon="0.70925">
        <ele>164</ele>
        <time>2022-08-07T07:18:56.109Z</time>
      </trkpt>
      <trkpt lat="44.1994" lon="0.70924">
        <ele>165</ele>
        <time>2022-08-07T07:18:57.109Z</time>
      </trkpt>
      <trkpt lat="44.19941" lon="0.70923">
        <ele>165</ele>
        <time>2022-08-07T07:18:58.109Z</time>
      </trkpt>
      <trkpt lat="44.19941" lon="0.70922">
        <ele>165</ele>
        <time>2022-08-07T07:18:59.109Z</time>
      </trkpt>
      <trkpt lat="44.19941" lon="0.70921">
        <ele>166</ele>
        <time>2022-08-07T07:19:00.109Z</time>
      </trkpt>
      <trkpt lat="44.19941" lon="0.7092">
        <ele>166</ele>
        <time>2022-08-07T07:19:01.109Z</time>
      </trkpt>
      <trkpt lat="44.19941" lon="0.70919">
        <ele>166</ele>
        <time>2022-08-07T07:19:02.109Z</time>
      </trkpt>
      <trkpt lat="44.19941" lon="0.70917">
        <ele>167</ele>
        <time>2022-08-07T07:19:03.109Z</time>
      </trkpt>
      <trkpt lat="44.19941" lon="0.70915">
        <ele>166</ele>
        <time>2022-08-07T07:19:04.109Z</time>
      </trkpt>
      <trkpt lat="44.19941" lon="0.70914">
        <ele>166</ele>
        <time>2022-08-07T07:19:05.109Z</time>
      </trkpt>
      <trkpt lat="44.19942" lon="0.70913">
        <ele>166</ele>
        <time>2022-08-07T07:19:06.109Z</time>
      </trkpt>
      <trkpt lat="44.19942" lon="0.70911">
        <ele>165</ele>
        <time>2022-08-07T07:19:07.109Z</time>
      </trkpt>
      <trkpt lat="44.19942" lon="0.7091">
        <ele>164</ele>
        <time>2022-08-07T07:19:08.109Z</time>
      </trkpt>
      <trkpt lat="44.19943" lon="0.70908">
        <ele>165</ele>
        <time>2022-08-07T07:19:09.109Z</time>
      </trkpt>
      <trkpt lat="44.19943" lon="0.70906">
        <ele>164</ele>
        <time>2022-08-07T07:19:10.109Z</time>
      </trkpt>
      <trkpt lat="44.19943" lon="0.70904">
        <ele>164</ele>
        <time>2022-08-07T07:19:11.109Z</time>
      </trkpt>
      <trkpt lat="44.19943" lon="0.70903">
        <ele>164</ele>
        <time>2022-08-07T07:19:12.109Z</time>
      </trkpt>
      <trkpt lat="44.19944" lon="0.70901">
        <ele>164</ele>
        <time>2022-08-07T07:19:13.109Z</time>
      </trkpt>
      <trkpt lat="44.19944" lon="0.709">
        <ele>164</ele>
        <time>2022-08-07T07:19:14.109Z</time>
      </trkpt>
      <trkpt lat="44.19944" lon="0.70899">
        <ele>163</ele>
        <time>2022-08-07T07:19:15.109Z</time>
      </trkpt>
      <trkpt lat="44.19944" lon="0.70897">
        <ele>164</ele>
        <time>2022-08-07T07:19:16.109Z</time>
      </trkpt>
      <trkpt lat="44.19945" lon="0.70895">
        <ele>164</ele>
        <time>2022-08-07T07:19:17.109Z</time>
      </trkpt>
      <trkpt lat="44.19945" lon="0.70894">
        <ele>164</ele>
        <time>2022-08-07T07:19:18.109Z</time>
      </trkpt>
      <trkpt lat="44.19945" lon="0.70893">
        <ele>163</ele>
        <time>2022-08-07T07:19:19.109Z</time>
      </trkpt>
      <trkpt lat="44.19945" lon="0.70892">
        <ele>164</ele>
        <time>2022-08-07T07:19:20.109Z</time>
      </trkpt>
      <trkpt lat="44.19945" lon="0.7089">
        <ele>164</ele>
        <time>2022-08-07T07:19:21.109Z</time>
      </trkpt>
      <trkpt lat="44.19945" lon="0.70889">
        <ele>165</ele>
        <time>2022-08-07T07:19:22.109Z</time>
      </trkpt>
      <trkpt lat="44.19946" lon="0.70887">
        <ele>166</ele>
        <time>2022-08-07T07:19:23.109Z</time>
      </trkpt>
      <trkpt lat="44.19946" lon="0.70885">
        <ele>166</ele>
        <time>2022-08-07T07:19:24.109Z</time>
      </trkpt>
      <trkpt lat="44.19946" lon="0.70884">
        <ele>166</ele>
        <time>2022-08-07T07:19:25.109Z</time>
      </trkpt>
      <trkpt lat="44.19947" lon="0.70882">
        <ele>166</ele>
        <time>2022-08-07T07:19:26.109Z</time>
      </trkpt>
      <trkpt lat="44.19947" lon="0.70881">
        <ele>167</ele>
        <time>2022-08-07T07:19:27.109Z</time>
      </trkpt>
      <trkpt lat="44.19947" lon="0.7088">
        <ele>167</ele>
        <time>2022-08-07T07:19:28.109Z</time>
      </trkpt>
      <trkpt lat="44.19947" lon="0.70879">
        <ele>167</ele>
        <time>2022-08-07T07:19:29.109Z</time>
      </trkpt>
      <trkpt lat="44.19947" lon="0.70878">
        <ele>167</ele>
        <time>2022-08-07T07:19:30.109Z</time>
      </trkpt>
      <trkpt lat="44.19947" lon="0.70876">
        <ele>167</ele>
        <time>2022-08-07T07:19:31.109Z</time>
      </trkpt>
      <trkpt lat="44.19947" lon="0.70875">
        <ele>167</ele>
        <time>2022-08-07T07:19:32.109Z</time>
      </trkpt>
      <trkpt lat="44.19947" lon="0.70873">
        <ele>167</ele>
        <time>2022-08-07T07:19:33.109Z</time>
      </trkpt>
      <trkpt lat="44.19947" lon="0.70872">
        <ele>168</ele>
        <time>2022-08-07T07:19:34.109Z</time>
      </trkpt>
      <trkpt lat="44.19948" lon="0.7087">
        <ele>167</ele>
        <time>2022-08-07T07:19:35.109Z</time>
      </trkpt>
      <trkpt lat="44.19948" lon="0.70869">
        <ele>167</ele>
        <time>2022-08-07T07:19:36.109Z</time>
      </trkpt>
      <trkpt lat="44.19949" lon="0.70867">
        <ele>168</ele>
        <time>2022-08-07T07:19:37.109Z</time>
      </trkpt>
      <trkpt lat="44.19949" lon="0.70865">
        <ele>167</ele>
        <time>2022-08-07T07:19:38.109Z</time>
      </trkpt>
      <trkpt lat="44.1995" lon="0.70864">
        <ele>167</ele>
        <time>2022-08-07T07:19:39.109Z</time>
      </trkpt>
      <trkpt lat="44.19951" lon="0.70862">
        <ele>166</ele>
        <time>2022-08-07T07:19:40.109Z</time>
      </trkpt>
      <trkpt lat="44.19951" lon="0.7086">
        <ele>166</ele>
        <time>2022-08-07T07:19:41.109Z</time>
      </trkpt>
      <trkpt lat="44.19951" lon="0.70858">
        <ele>166</ele>
        <time>2022-08-07T07:19:42.109Z</time>
      </trkpt>
      <trkpt lat="44.19952" lon="0.70856">
        <ele>165</ele>
        <time>2022-08-07T07:19:43.109Z</time>
      </trkpt>
      <trkpt lat="44.19952" lon="0.70854">
        <ele>165</ele>
        <time>2022-08-07T07:19:44.109Z</time>
      </trkpt>
      <trkpt lat="44.19952" lon="0.70852">
        <ele>164</ele>
        <time>2022-08-07T07:19:45.109Z</time>
      </trkpt>
      <trkpt lat="44.19952" lon="0.7085">
        <ele>163</ele>
        <time>2022-08-07T07:19:46.109Z</time>
      </trkpt>
      <trkpt lat="44.19952" lon="0.70849">
        <ele>162</ele>
        <time>2022-08-07T07:19:47.109Z</time>
      </trkpt>
      <trkpt lat="44.19953" lon="0.70848">
        <ele>162</ele>
        <time>2022-08-07T07:19:48.109Z</time>
      </trkpt>
      <trkpt lat="44.19953" lon="0.70846">
        <ele>161</ele>
        <time>2022-08-07T07:19:49.109Z</time>
      </trkpt>
      <trkpt lat="44.19953" lon="0.70845">
        <ele>161</ele>
        <time>2022-08-07T07:19:50.109Z</time>
      </trkpt>
      <trkpt lat="44.19953" lon="0.70844">
        <ele>161</ele>
        <time>2022-08-07T07:19:51.109Z</time>
      </trkpt>
      <trkpt lat="44.19953" lon="0.70842">
        <ele>162</ele>
        <time>2022-08-07T07:19:52.109Z</time>
      </trkpt>
      <trkpt lat="44.19954" lon="0.70841">
        <ele>164</ele>
        <time>2022-08-07T07:19:53.109Z</time>
      </trkpt>
      <trkpt lat="44.19954" lon="0.70839">
        <ele>162</ele>
        <time>2022-08-07T07:19:54.109Z</time>
      </trkpt>
      <trkpt lat="44.19955" lon="0.70837">
        <ele>162</ele>
        <time>2022-08-07T07:19:55.109Z</time>
      </trkpt>
      <trkpt lat="44.19955" lon="0.70835">
        <ele>162</ele>
        <time>2022-08-07T07:19:56.109Z</time>
      </trkpt>
      <trkpt lat="44.19955" lon="0.70833">
        <ele>162</ele>
        <time>2022-08-07T07:19:57.109Z</time>
      </trkpt>
      <trkpt lat="44.19955" lon="0.70832">
        <ele>162</ele>
        <time>2022-08-07T07:19:58.109Z</time>
      </trkpt>
      <trkpt lat="44.19956" lon="0.7083">
        <ele>162</ele>
        <time>2022-08-07T07:19:59.109Z</time>
      </trkpt>
      <trkpt lat="44.19956" lon="0.70829">
        <ele>162</ele>
        <time>2022-08-07T07:20:00.109Z</time>
      </trkpt>
      <trkpt lat="44.19956" lon="0.70827">
        <ele>162</ele>
        <time>2022-08-07T07:20:01.109Z</time>
      </trkpt>
      <trkpt lat="44.19956" lon="0.70825">
        <ele>163</ele>
        <time>2022-08-07T07:20:02.109Z</time>
      </trkpt>
      <trkpt lat="44.19956" lon="0.70823">
        <ele>164</ele>
        <time>2022-08-07T07:20:03.109Z</time>
      </trkpt>
      <trkpt lat="44.19956" lon="0.70822">
        <ele>163</ele>
        <time>2022-08-07T07:20:04.109Z</time>
      </trkpt>
      <trkpt lat="44.19955" lon="0.70821">
        <ele>163</ele>
        <time>2022-08-07T07:20:05.109Z</time>
      </trkpt>
      <trkpt lat="44.19955" lon="0.7082">
        <ele>162</ele>
        <time>2022-08-07T07:20:06.109Z</time>
      </trkpt>
      <trkpt lat="44.19954" lon="0.70819">
        <ele>162</ele>
        <time>2022-08-07T07:20:07.109Z</time>
      </trkpt>
      <trkpt lat="44.19953" lon="0.70818">
        <ele>162</ele>
        <time>2022-08-07T07:20:08.109Z</time>
      </trkpt>
      <trkpt lat="44.19952" lon="0.70817">
        <ele>162</ele>
        <time>2022-08-07T07:20:09.109Z</time>
      </trkpt>
      <trkpt lat="44.19952" lon="0.70816">
        <ele>162</ele>
        <time>2022-08-07T07:20:10.109Z</time>
      </trkpt>
      <trkpt lat="44.19951" lon="0.70815">
        <ele>162</ele>
        <time>2022-08-07T07:20:11.109Z</time>
      </trkpt>
      <trkpt lat="44.1995" lon="0.70815">
        <ele>162</ele>
        <time>2022-08-07T07:20:12.109Z</time>
      </trkpt>
      <trkpt lat="44.1995" lon="0.70814">
        <ele>163</ele>
        <time>2022-08-07T07:20:13.109Z</time>
      </trkpt>
      <trkpt lat="44.19949" lon="0.70813">
        <ele>163</ele>
        <time>2022-08-07T07:20:14.109Z</time>
      </trkpt>
      <trkpt lat="44.19948" lon="0.70812">
        <ele>163</ele>
        <time>2022-08-07T07:20:15.109Z</time>
      </trkpt>
      <trkpt lat="44.19947" lon="0.70811">
        <ele>163</ele>
        <time>2022-08-07T07:20:16.109Z</time>
      </trkpt>
      <trkpt lat="44.19946" lon="0.7081">
        <ele>163</ele>
        <time>2022-08-07T07:20:17.109Z</time>
      </trkpt>
      <trkpt lat="44.19945" lon="0.7081">
        <ele>163</ele>
        <time>2022-08-07T07:20:18.109Z</time>
      </trkpt>
      <trkpt lat="44.19945" lon="0.70809">
        <ele>163</ele>
        <time>2022-08-07T07:20:19.109Z</time>
      </trkpt>
      <trkpt lat="44.19944" lon="0.70808">
        <ele>164</ele>
        <time>2022-08-07T07:20:20.109Z</time>
      </trkpt>
      <trkpt lat="44.19943" lon="0.70807">
        <ele>164</ele>
        <time>2022-08-07T07:20:21.109Z</time>
      </trkpt>
      <trkpt lat="44.19942" lon="0.70807">
        <ele>164</ele>
        <time>2022-08-07T07:20:22.109Z</time>
      </trkpt>
      <trkpt lat="44.19942" lon="0.70806">
        <ele>164</ele>
        <time>2022-08-07T07:20:23.109Z</time>
      </trkpt>
      <trkpt lat="44.19941" lon="0.70806">
        <ele>164</ele>
        <time>2022-08-07T07:20:24.109Z</time>
      </trkpt>
      <trkpt lat="44.1994" lon="0.70805">
        <ele>164</ele>
        <time>2022-08-07T07:20:25.109Z</time>
      </trkpt>
      <trkpt lat="44.19939" lon="0.70804">
        <ele>165</ele>
        <time>2022-08-07T07:20:26.109Z</time>
      </trkpt>
      <trkpt lat="44.19938" lon="0.70803">
        <ele>165</ele>
        <time>2022-08-07T07:20:27.109Z</time>
      </trkpt>
      <trkpt lat="44.19937" lon="0.70803">
        <ele>164</ele>
        <time>2022-08-07T07:20:28.109Z</time>
      </trkpt>
      <trkpt lat="44.19936" lon="0.70802">
        <ele>164</ele>
        <time>2022-08-07T07:20:29.109Z</time>
      </trkpt>
      <trkpt lat="44.19936" lon="0.70801">
        <ele>164</ele>
        <time>2022-08-07T07:20:30.109Z</time>
      </trkpt>
      <trkpt lat="44.19935" lon="0.708">
        <ele>165</ele>
        <time>2022-08-07T07:20:31.109Z</time>
      </trkpt>
      <trkpt lat="44.19934" lon="0.70799">
        <ele>165</ele>
        <time>2022-08-07T07:20:32.109Z</time>
      </trkpt>
      <trkpt lat="44.19933" lon="0.70798">
        <ele>164</ele>
        <time>2022-08-07T07:20:33.109Z</time>
      </trkpt>
      <trkpt lat="44.19932" lon="0.70797">
        <ele>165</ele>
        <time>2022-08-07T07:20:34.109Z</time>
      </trkpt>
      <trkpt lat="44.19931" lon="0.70796">
        <ele>164</ele>
        <time>2022-08-07T07:20:35.109Z</time>
      </trkpt>
      <trkpt lat="44.1993" lon="0.70795">
        <ele>164</ele>
        <time>2022-08-07T07:20:36.109Z</time>
      </trkpt>
      <trkpt lat="44.1993" lon="0.70795">
        <ele>164</ele>
        <time>2022-08-07T07:20:37.109Z</time>
      </trkpt>
      <trkpt lat="44.19929" lon="0.70794">
        <ele>164</ele>
        <time>2022-08-07T07:20:38.109Z</time>
      </trkpt>
      <trkpt lat="44.19928" lon="0.70793">
        <ele>165</ele>
        <time>2022-08-07T07:20:39.109Z</time>
      </trkpt>
      <trkpt lat="44.19927" lon="0.70792">
        <ele>165</ele>
        <time>2022-08-07T07:20:40.109Z</time>
      </trkpt>
      <trkpt lat="44.19926" lon="0.7079">
        <ele>165</ele>
        <time>2022-08-07T07:20:41.109Z</time>
      </trkpt>
      <trkpt lat="44.19925" lon="0.70789">
        <ele>165</ele>
        <time>2022-08-07T07:20:42.109Z</time>
      </trkpt>
      <trkpt lat="44.19925" lon="0.70788">
        <ele>165</ele>
        <time>2022-08-07T07:20:43.109Z</time>
      </trkpt>
      <trkpt lat="44.19923" lon="0.70787">
        <ele>165</ele>
        <time>2022-08-07T07:20:44.109Z</time>
      </trkpt>
      <trkpt lat="44.19923" lon="0.70786">
        <ele>165</ele>
        <time>2022-08-07T07:20:45.109Z</time>
      </trkpt>
      <trkpt lat="44.19922" lon="0.70785">
        <ele>165</ele>
        <time>2022-08-07T07:20:46.109Z</time>
      </trkpt>
      <trkpt lat="44.19922" lon="0.70785">
        <ele>165</ele>
        <time>2022-08-07T07:20:47.109Z</time>
      </trkpt>
      <trkpt lat="44.19922" lon="0.70785">
        <ele>165</ele>
        <time>2022-08-07T07:20:48.109Z</time>
      </trkpt>
      <trkpt lat="44.19922" lon="0.70784">
        <ele>165</ele>
        <time>2022-08-07T07:20:49.109Z</time>
      </trkpt>
      <trkpt lat="44.19921" lon="0.70784">
        <ele>165</ele>
        <time>2022-08-07T07:20:50.109Z</time>
      </trkpt>
      <trkpt lat="44.1992" lon="0.70783">
        <ele>165</ele>
        <time>2022-08-07T07:20:51.109Z</time>
      </trkpt>
      <trkpt lat="44.1992" lon="0.70782">
        <ele>165</ele>
        <time>2022-08-07T07:20:52.109Z</time>
      </trkpt>
      <trkpt lat="44.19919" lon="0.70782">
        <ele>164</ele>
        <time>2022-08-07T07:20:53.109Z</time>
      </trkpt>
      <trkpt lat="44.19918" lon="0.70781">
        <ele>164</ele>
        <time>2022-08-07T07:20:54.109Z</time>
      </trkpt>
      <trkpt lat="44.19918" lon="0.7078">
        <ele>164</ele>
        <time>2022-08-07T07:20:55.109Z</time>
      </trkpt>
      <trkpt lat="44.19917" lon="0.7078">
        <ele>164</ele>
        <time>2022-08-07T07:20:56.109Z</time>
      </trkpt>
      <trkpt lat="44.19916" lon="0.70779">
        <ele>163</ele>
        <time>2022-08-07T07:20:57.109Z</time>
      </trkpt>
      <trkpt lat="44.19916" lon="0.70779">
        <ele>163</ele>
        <time>2022-08-07T07:20:58.109Z</time>
      </trkpt>
      <trkpt lat="44.19915" lon="0.70778">
        <ele>163</ele>
        <time>2022-08-07T07:20:59.109Z</time>
      </trkpt>
      <trkpt lat="44.19914" lon="0.70778">
        <ele>163</ele>
        <time>2022-08-07T07:21:00.109Z</time>
      </trkpt>
      <trkpt lat="44.19914" lon="0.70777">
        <ele>162</ele>
        <time>2022-08-07T07:21:01.109Z</time>
      </trkpt>
      <trkpt lat="44.19913" lon="0.70777">
        <ele>162</ele>
        <time>2022-08-07T07:21:02.109Z</time>
      </trkpt>
      <trkpt lat="44.19912" lon="0.70777">
        <ele>162</ele>
        <time>2022-08-07T07:21:03.109Z</time>
      </trkpt>
      <trkpt lat="44.19911" lon="0.70777">
        <ele>162</ele>
        <time>2022-08-07T07:21:04.109Z</time>
      </trkpt>
      <trkpt lat="44.1991" lon="0.70777">
        <ele>162</ele>
        <time>2022-08-07T07:21:05.109Z</time>
      </trkpt>
      <trkpt lat="44.19909" lon="0.70777">
        <ele>162</ele>
        <time>2022-08-07T07:21:06.109Z</time>
      </trkpt>
      <trkpt lat="44.19909" lon="0.70777">
        <ele>162</ele>
        <time>2022-08-07T07:21:07.109Z</time>
      </trkpt>
      <trkpt lat="44.19908" lon="0.70776">
        <ele>162</ele>
        <time>2022-08-07T07:21:08.109Z</time>
      </trkpt>
      <trkpt lat="44.19908" lon="0.70776">
        <ele>161</ele>
        <time>2022-08-07T07:21:09.109Z</time>
      </trkpt>
      <trkpt lat="44.19908" lon="0.70775">
        <ele>162</ele>
        <time>2022-08-07T07:21:10.109Z</time>
      </trkpt>
      <trkpt lat="44.19908" lon="0.70775">
        <ele>161</ele>
        <time>2022-08-07T07:21:11.109Z</time>
      </trkpt>
      <trkpt lat="44.19908" lon="0.70775">
        <ele>161</ele>
        <time>2022-08-07T07:21:12.109Z</time>
      </trkpt>
      <trkpt lat="44.19908" lon="0.70775">
        <ele>161</ele>
        <time>2022-08-07T07:21:13.109Z</time>
      </trkpt>
      <trkpt lat="44.19908" lon="0.70775">
        <ele>161</ele>
        <time>2022-08-07T07:21:14.109Z</time>
      </trkpt>
      <trkpt lat="44.19908" lon="0.70775">
        <ele>161</ele>
        <time>2022-08-07T07:21:15.109Z</time>
      </trkpt>
      <trkpt lat="44.19902" lon="0.70774">
        <ele>158</ele>
        <time>2022-08-07T07:21:49.117Z</time>
      </trkpt>
      <trkpt lat="44.19901" lon="0.70774">
        <ele>158</ele>
        <time>2022-08-07T07:21:50.117Z</time>
      </trkpt>
      <trkpt lat="44.19901" lon="0.70775">
        <ele>158</ele>
        <time>2022-08-07T07:21:51.117Z</time>
      </trkpt>
      <trkpt lat="44.199" lon="0.70776">
        <ele>157</ele>
        <time>2022-08-07T07:21:52.117Z</time>
      </trkpt>
      <trkpt lat="44.199" lon="0.70776">
        <ele>157</ele>
        <time>2022-08-07T07:21:53.117Z</time>
      </trkpt>
      <trkpt lat="44.19899" lon="0.70777">
        <ele>156</ele>
        <time>2022-08-07T07:21:54.117Z</time>
      </trkpt>
      <trkpt lat="44.19898" lon="0.70777">
        <ele>156</ele>
        <time>2022-08-07T07:21:55.117Z</time>
      </trkpt>
      <trkpt lat="44.19897" lon="0.70778">
        <ele>154</ele>
        <time>2022-08-07T07:21:56.117Z</time>
      </trkpt>
      <trkpt lat="44.19896" lon="0.70779">
        <ele>154</ele>
        <time>2022-08-07T07:21:57.117Z</time>
      </trkpt>
      <trkpt lat="44.19896" lon="0.70779">
        <ele>153</ele>
        <time>2022-08-07T07:21:58.117Z</time>
      </trkpt>
      <trkpt lat="44.19895" lon="0.7078">
        <ele>153</ele>
        <time>2022-08-07T07:21:59.117Z</time>
      </trkpt>
      <trkpt lat="44.19894" lon="0.7078">
        <ele>152</ele>
        <time>2022-08-07T07:22:00.117Z</time>
      </trkpt>
      <trkpt lat="44.19894" lon="0.70781">
        <ele>152</ele>
        <time>2022-08-07T07:22:01.117Z</time>
      </trkpt>
      <trkpt lat="44.19893" lon="0.70781">
        <ele>151</ele>
        <time>2022-08-07T07:22:02.117Z</time>
      </trkpt>
      <trkpt lat="44.19893" lon="0.70782">
        <ele>150</ele>
        <time>2022-08-07T07:22:03.117Z</time>
      </trkpt>
      <trkpt lat="44.19892" lon="0.70782">
        <ele>150</ele>
        <time>2022-08-07T07:22:04.117Z</time>
      </trkpt>
      <trkpt lat="44.19892" lon="0.70783">
        <ele>149</ele>
        <time>2022-08-07T07:22:05.117Z</time>
      </trkpt>
      <trkpt lat="44.19893" lon="0.70784">
        <ele>149</ele>
        <time>2022-08-07T07:22:06.117Z</time>
      </trkpt>
      <trkpt lat="44.19893" lon="0.70785">
        <ele>148</ele>
        <time>2022-08-07T07:22:07.117Z</time>
      </trkpt>
      <trkpt lat="44.19893" lon="0.70786">
        <ele>148</ele>
        <time>2022-08-07T07:22:08.117Z</time>
      </trkpt>
      <trkpt lat="44.19894" lon="0.70787">
        <ele>149</ele>
        <time>2022-08-07T07:22:09.117Z</time>
      </trkpt>
      <trkpt lat="44.19894" lon="0.70788">
        <ele>148</ele>
        <time>2022-08-07T07:22:10.117Z</time>
      </trkpt>
      <trkpt lat="44.19895" lon="0.70789">
        <ele>148</ele>
        <time>2022-08-07T07:22:11.117Z</time>
      </trkpt>
      <trkpt lat="44.19896" lon="0.70789">
        <ele>148</ele>
        <time>2022-08-07T07:22:12.117Z</time>
      </trkpt>
      <trkpt lat="44.19896" lon="0.7079">
        <ele>147</ele>
        <time>2022-08-07T07:22:13.117Z</time>
      </trkpt>
      <trkpt lat="44.19896" lon="0.70791">
        <ele>148</ele>
        <time>2022-08-07T07:22:14.117Z</time>
      </trkpt>
      <trkpt lat="44.19897" lon="0.70792">
        <ele>148</ele>
        <time>2022-08-07T07:22:15.117Z</time>
      </trkpt>
      <trkpt lat="44.19897" lon="0.70793">
        <ele>147</ele>
        <time>2022-08-07T07:22:16.117Z</time>
      </trkpt>
      <trkpt lat="44.19897" lon="0.70793">
        <ele>147</ele>
        <time>2022-08-07T07:22:17.117Z</time>
      </trkpt>
      <trkpt lat="44.19898" lon="0.70794">
        <ele>147</ele>
        <time>2022-08-07T07:22:18.117Z</time>
      </trkpt>
      <trkpt lat="44.19898" lon="0.70795">
        <ele>147</ele>
        <time>2022-08-07T07:22:19.117Z</time>
      </trkpt>
      <trkpt lat="44.19899" lon="0.70796">
        <ele>147</ele>
        <time>2022-08-07T07:22:20.117Z</time>
      </trkpt>
      <trkpt lat="44.19899" lon="0.70797">
        <ele>147</ele>
        <time>2022-08-07T07:22:21.117Z</time>
      </trkpt>
      <trkpt lat="44.199" lon="0.70798">
        <ele>147</ele>
        <time>2022-08-07T07:22:22.117Z</time>
      </trkpt>
      <trkpt lat="44.19901" lon="0.708">
        <ele>147</ele>
        <time>2022-08-07T07:22:23.117Z</time>
      </trkpt>
      <trkpt lat="44.19901" lon="0.70801">
        <ele>147</ele>
        <time>2022-08-07T07:22:24.117Z</time>
      </trkpt>
      <trkpt lat="44.19901" lon="0.70802">
        <ele>147</ele>
        <time>2022-08-07T07:22:25.117Z</time>
      </trkpt>
      <trkpt lat="44.19901" lon="0.70803">
        <ele>147</ele>
        <time>2022-08-07T07:22:26.117Z</time>
      </trkpt>
      <trkpt lat="44.19901" lon="0.70803">
        <ele>148</ele>
        <time>2022-08-07T07:22:27.117Z</time>
      </trkpt>
      <trkpt lat="44.19901" lon="0.70804">
        <ele>149</ele>
        <time>2022-08-07T07:22:28.117Z</time>
      </trkpt>
      <trkpt lat="44.19901" lon="0.70804">
        <ele>150</ele>
        <time>2022-08-07T07:22:29.117Z</time>
      </trkpt>
      <trkpt lat="44.19901" lon="0.70804">
        <ele>151</ele>
        <time>2022-08-07T07:22:30.117Z</time>
      </trkpt>
      <trkpt lat="44.19902" lon="0.70805">
        <ele>151</ele>
        <time>2022-08-07T07:22:31.117Z</time>
      </trkpt>
      <trkpt lat="44.19902" lon="0.70806">
        <ele>152</ele>
        <time>2022-08-07T07:22:32.117Z</time>
      </trkpt>
      <trkpt lat="44.19902" lon="0.70807">
        <ele>151</ele>
        <time>2022-08-07T07:22:33.117Z</time>
      </trkpt>
      <trkpt lat="44.19903" lon="0.70808">
        <ele>152</ele>
        <time>2022-08-07T07:22:34.117Z</time>
      </trkpt>
      <trkpt lat="44.19904" lon="0.70809">
        <ele>152</ele>
        <time>2022-08-07T07:22:35.117Z</time>
      </trkpt>
      <trkpt lat="44.19904" lon="0.7081">
        <ele>151</ele>
        <time>2022-08-07T07:22:36.117Z</time>
      </trkpt>
      <trkpt lat="44.19905" lon="0.70811">
        <ele>152</ele>
        <time>2022-08-07T07:22:37.117Z</time>
      </trkpt>
      <trkpt lat="44.19905" lon="0.70812">
        <ele>152</ele>
        <time>2022-08-07T07:22:38.117Z</time>
      </trkpt>
      <trkpt lat="44.19905" lon="0.70813">
        <ele>152</ele>
        <time>2022-08-07T07:22:39.117Z</time>
      </trkpt>
      <trkpt lat="44.19906" lon="0.70814">
        <ele>151</ele>
        <time>2022-08-07T07:22:40.117Z</time>
      </trkpt>
      <trkpt lat="44.19905" lon="0.70815">
        <ele>150</ele>
        <time>2022-08-07T07:22:41.117Z</time>
      </trkpt>
      <trkpt lat="44.19905" lon="0.70817">
        <ele>150</ele>
        <time>2022-08-07T07:22:42.117Z</time>
      </trkpt>
      <trkpt lat="44.19905" lon="0.70819">
        <ele>150</ele>
        <time>2022-08-07T07:22:43.117Z</time>
      </trkpt>
      <trkpt lat="44.19905" lon="0.7082">
        <ele>150</ele>
        <time>2022-08-07T07:22:44.117Z</time>
      </trkpt>
      <trkpt lat="44.19905" lon="0.70821">
        <ele>150</ele>
        <time>2022-08-07T07:22:45.117Z</time>
      </trkpt>
      <trkpt lat="44.19905" lon="0.70822">
        <ele>150</ele>
        <time>2022-08-07T07:22:46.117Z</time>
      </trkpt>
      <trkpt lat="44.19905" lon="0.70824">
        <ele>150</ele>
        <time>2022-08-07T07:22:47.117Z</time>
      </trkpt>
      <trkpt lat="44.19905" lon="0.70825">
        <ele>150</ele>
        <time>2022-08-07T07:22:48.117Z</time>
      </trkpt>
      <trkpt lat="44.19906" lon="0.70827">
        <ele>151</ele>
        <time>2022-08-07T07:22:49.117Z</time>
      </trkpt>
      <trkpt lat="44.19906" lon="0.70828">
        <ele>150</ele>
        <time>2022-08-07T07:22:50.117Z</time>
      </trkpt>
      <trkpt lat="44.19906" lon="0.7083">
        <ele>150</ele>
        <time>2022-08-07T07:22:51.117Z</time>
      </trkpt>
      <trkpt lat="44.19906" lon="0.70832">
        <ele>149</ele>
        <time>2022-08-07T07:22:52.117Z</time>
      </trkpt>
      <trkpt lat="44.19906" lon="0.70834">
        <ele>148</ele>
        <time>2022-08-07T07:22:53.117Z</time>
      </trkpt>
      <trkpt lat="44.19906" lon="0.70836">
        <ele>148</ele>
        <time>2022-08-07T07:22:54.117Z</time>
      </trkpt>
      <trkpt lat="44.19906" lon="0.70838">
        <ele>149</ele>
        <time>2022-08-07T07:22:55.117Z</time>
      </trkpt>
      <trkpt lat="44.19906" lon="0.70839">
        <ele>149</ele>
        <time>2022-08-07T07:22:56.117Z</time>
      </trkpt>
      <trkpt lat="44.19907" lon="0.70841">
        <ele>150</ele>
        <time>2022-08-07T07:22:57.117Z</time>
      </trkpt>
      <trkpt lat="44.19907" lon="0.70842">
        <ele>149</ele>
        <time>2022-08-07T07:22:58.117Z</time>
      </trkpt>
      <trkpt lat="44.19907" lon="0.70844">
        <ele>149</ele>
        <time>2022-08-07T07:22:59.117Z</time>
      </trkpt>
      <trkpt lat="44.19907" lon="0.70845">
        <ele>149</ele>
        <time>2022-08-07T07:23:00.117Z</time>
      </trkpt>
      <trkpt lat="44.19907" lon="0.70847">
        <ele>150</ele>
        <time>2022-08-07T07:23:01.117Z</time>
      </trkpt>
      <trkpt lat="44.19907" lon="0.70848">
        <ele>150</ele>
        <time>2022-08-07T07:23:02.117Z</time>
      </trkpt>
      <trkpt lat="44.19907" lon="0.7085">
        <ele>149</ele>
        <time>2022-08-07T07:23:03.117Z</time>
      </trkpt>
      <trkpt lat="44.19907" lon="0.70851">
        <ele>148</ele>
        <time>2022-08-07T07:23:04.117Z</time>
      </trkpt>
      <trkpt lat="44.19907" lon="0.70853">
        <ele>149</ele>
        <time>2022-08-07T07:23:05.117Z</time>
      </trkpt>
      <trkpt lat="44.19907" lon="0.70854">
        <ele>148</ele>
        <time>2022-08-07T07:23:06.117Z</time>
      </trkpt>
      <trkpt lat="44.19906" lon="0.70855">
        <ele>147</ele>
        <time>2022-08-07T07:23:07.117Z</time>
      </trkpt>
      <trkpt lat="44.19906" lon="0.70857">
        <ele>147</ele>
        <time>2022-08-07T07:23:08.117Z</time>
      </trkpt>
      <trkpt lat="44.19906" lon="0.70858">
        <ele>146</ele>
        <time>2022-08-07T07:23:09.117Z</time>
      </trkpt>
      <trkpt lat="44.19905" lon="0.70859">
        <ele>147</ele>
        <time>2022-08-07T07:23:10.117Z</time>
      </trkpt>
      <trkpt lat="44.19906" lon="0.7086">
        <ele>147</ele>
        <time>2022-08-07T07:23:11.117Z</time>
      </trkpt>
      <trkpt lat="44.19906" lon="0.70861">
        <ele>147</ele>
        <time>2022-08-07T07:23:12.117Z</time>
      </trkpt>
      <trkpt lat="44.19906" lon="0.70862">
        <ele>147</ele>
        <time>2022-08-07T07:23:13.117Z</time>
      </trkpt>
      <trkpt lat="44.19906" lon="0.70864">
        <ele>148</ele>
        <time>2022-08-07T07:23:14.117Z</time>
      </trkpt>
      <trkpt lat="44.19906" lon="0.70866">
        <ele>150</ele>
        <time>2022-08-07T07:23:15.117Z</time>
      </trkpt>
      <trkpt lat="44.19906" lon="0.70868">
        <ele>150</ele>
        <time>2022-08-07T07:23:16.117Z</time>
      </trkpt>
      <trkpt lat="44.19906" lon="0.70869">
        <ele>151</ele>
        <time>2022-08-07T07:23:17.117Z</time>
      </trkpt>
      <trkpt lat="44.19906" lon="0.70871">
        <ele>150</ele>
        <time>2022-08-07T07:23:18.117Z</time>
      </trkpt>
      <trkpt lat="44.19906" lon="0.70873">
        <ele>150</ele>
        <time>2022-08-07T07:23:19.117Z</time>
      </trkpt>
      <trkpt lat="44.19906" lon="0.70874">
        <ele>150</ele>
        <time>2022-08-07T07:23:20.117Z</time>
      </trkpt>
      <trkpt lat="44.19907" lon="0.70876">
        <ele>150</ele>
        <time>2022-08-07T07:23:21.117Z</time>
      </trkpt>
      <trkpt lat="44.19907" lon="0.70877">
        <ele>150</ele>
        <time>2022-08-07T07:23:22.117Z</time>
      </trkpt>
      <trkpt lat="44.19907" lon="0.70879">
        <ele>150</ele>
        <time>2022-08-07T07:23:23.117Z</time>
      </trkpt>
      <trkpt lat="44.19907" lon="0.7088">
        <ele>150</ele>
        <time>2022-08-07T07:23:24.117Z</time>
      </trkpt>
      <trkpt lat="44.19907" lon="0.70881">
        <ele>151</ele>
        <time>2022-08-07T07:23:25.117Z</time>
      </trkpt>
      <trkpt lat="44.19907" lon="0.70883">
        <ele>152</ele>
        <time>2022-08-07T07:23:26.117Z</time>
      </trkpt>
      <trkpt lat="44.19907" lon="0.70885">
        <ele>153</ele>
        <time>2022-08-07T07:23:27.117Z</time>
      </trkpt>
      <trkpt lat="44.19907" lon="0.70886">
        <ele>153</ele>
        <time>2022-08-07T07:23:28.117Z</time>
      </trkpt>
      <trkpt lat="44.19907" lon="0.70887">
        <ele>153</ele>
        <time>2022-08-07T07:23:29.117Z</time>
      </trkpt>
      <trkpt lat="44.19907" lon="0.70889">
        <ele>154</ele>
        <time>2022-08-07T07:23:30.117Z</time>
      </trkpt>
      <trkpt lat="44.19907" lon="0.70891">
        <ele>155</ele>
        <time>2022-08-07T07:23:31.117Z</time>
      </trkpt>
      <trkpt lat="44.19907" lon="0.70893">
        <ele>154</ele>
        <time>2022-08-07T07:23:32.117Z</time>
      </trkpt>
      <trkpt lat="44.19907" lon="0.70894">
        <ele>155</ele>
        <time>2022-08-07T07:23:33.117Z</time>
      </trkpt>
      <trkpt lat="44.19907" lon="0.70896">
        <ele>154</ele>
        <time>2022-08-07T07:23:34.117Z</time>
      </trkpt>
      <trkpt lat="44.19907" lon="0.70897">
        <ele>155</ele>
        <time>2022-08-07T07:23:35.117Z</time>
      </trkpt>
      <trkpt lat="44.19907" lon="0.70898">
        <ele>155</ele>
        <time>2022-08-07T07:23:36.117Z</time>
      </trkpt>
      <trkpt lat="44.19908" lon="0.709">
        <ele>156</ele>
        <time>2022-08-07T07:23:37.117Z</time>
      </trkpt>
      <trkpt lat="44.19908" lon="0.70901">
        <ele>156</ele>
        <time>2022-08-07T07:23:38.117Z</time>
      </trkpt>
      <trkpt lat="44.19907" lon="0.70903">
        <ele>156</ele>
        <time>2022-08-07T07:23:39.117Z</time>
      </trkpt>
      <trkpt lat="44.19907" lon="0.70905">
        <ele>156</ele>
        <time>2022-08-07T07:23:40.117Z</time>
      </trkpt>
      <trkpt lat="44.19908" lon="0.70906">
        <ele>157</ele>
        <time>2022-08-07T07:23:41.117Z</time>
      </trkpt>
      <trkpt lat="44.19908" lon="0.70908">
        <ele>157</ele>
        <time>2022-08-07T07:23:42.117Z</time>
      </trkpt>
      <trkpt lat="44.19908" lon="0.70909">
        <ele>156</ele>
        <time>2022-08-07T07:23:43.117Z</time>
      </trkpt>
      <trkpt lat="44.19908" lon="0.70911">
        <ele>156</ele>
        <time>2022-08-07T07:23:44.117Z</time>
      </trkpt>
      <trkpt lat="44.19907" lon="0.70912">
        <ele>156</ele>
        <time>2022-08-07T07:23:45.117Z</time>
      </trkpt>
      <trkpt lat="44.19908" lon="0.70914">
        <ele>157</ele>
        <time>2022-08-07T07:23:46.117Z</time>
      </trkpt>
      <trkpt lat="44.19908" lon="0.70915">
        <ele>157</ele>
        <time>2022-08-07T07:23:47.117Z</time>
      </trkpt>
      <trkpt lat="44.19908" lon="0.70916">
        <ele>157</ele>
        <time>2022-08-07T07:23:48.117Z</time>
      </trkpt>
      <trkpt lat="44.19908" lon="0.70918">
        <ele>156</ele>
        <time>2022-08-07T07:23:49.117Z</time>
      </trkpt>
      <trkpt lat="44.19907" lon="0.70919">
        <ele>156</ele>
        <time>2022-08-07T07:23:50.117Z</time>
      </trkpt>
      <trkpt lat="44.19907" lon="0.70921">
        <ele>156</ele>
        <time>2022-08-07T07:23:51.117Z</time>
      </trkpt>
      <trkpt lat="44.19907" lon="0.70923">
        <ele>156</ele>
        <time>2022-08-07T07:23:52.117Z</time>
      </trkpt>
      <trkpt lat="44.19907" lon="0.70925">
        <ele>156</ele>
        <time>2022-08-07T07:23:53.117Z</time>
      </trkpt>
      <trkpt lat="44.19908" lon="0.70926">
        <ele>155</ele>
        <time>2022-08-07T07:23:54.117Z</time>
      </trkpt>
      <trkpt lat="44.19908" lon="0.70927">
        <ele>155</ele>
        <time>2022-08-07T07:23:55.117Z</time>
      </trkpt>
      <trkpt lat="44.19907" lon="0.70928">
        <ele>154</ele>
        <time>2022-08-07T07:23:56.117Z</time>
      </trkpt>
      <trkpt lat="44.19907" lon="0.70929">
        <ele>153</ele>
        <time>2022-08-07T07:23:57.117Z</time>
      </trkpt>
      <trkpt lat="44.19907" lon="0.70931">
        <ele>153</ele>
        <time>2022-08-07T07:23:58.117Z</time>
      </trkpt>
      <trkpt lat="44.19907" lon="0.70933">
        <ele>154</ele>
        <time>2022-08-07T07:23:59.117Z</time>
      </trkpt>
      <trkpt lat="44.19907" lon="0.70934">
        <ele>154</ele>
        <time>2022-08-07T07:24:00.117Z</time>
      </trkpt>
      <trkpt lat="44.19907" lon="0.70936">
        <ele>154</ele>
        <time>2022-08-07T07:24:01.117Z</time>
      </trkpt>
      <trkpt lat="44.19907" lon="0.70937">
        <ele>154</ele>
        <time>2022-08-07T07:24:02.117Z</time>
      </trkpt>
      <trkpt lat="44.19906" lon="0.70938">
        <ele>153</ele>
        <time>2022-08-07T07:24:03.117Z</time>
      </trkpt>
      <trkpt lat="44.19906" lon="0.7094">
        <ele>153</ele>
        <time>2022-08-07T07:24:04.117Z</time>
      </trkpt>
      <trkpt lat="44.19905" lon="0.70941">
        <ele>152</ele>
        <time>2022-08-07T07:24:05.117Z</time>
      </trkpt>
      <trkpt lat="44.19905" lon="0.70942">
        <ele>152</ele>
        <time>2022-08-07T07:24:06.117Z</time>
      </trkpt>
      <trkpt lat="44.19905" lon="0.70942">
        <ele>151</ele>
        <time>2022-08-07T07:24:07.117Z</time>
      </trkpt>
      <trkpt lat="44.19905" lon="0.70943">
        <ele>150</ele>
        <time>2022-08-07T07:24:08.117Z</time>
      </trkpt>
      <trkpt lat="44.19905" lon="0.70944">
        <ele>150</ele>
        <time>2022-08-07T07:24:09.117Z</time>
      </trkpt>
      <trkpt lat="44.19905" lon="0.70945">
        <ele>150</ele>
        <time>2022-08-07T07:24:10.117Z</time>
      </trkpt>
      <trkpt lat="44.19904" lon="0.70946">
        <ele>149</ele>
        <time>2022-08-07T07:24:11.117Z</time>
      </trkpt>
      <trkpt lat="44.19903" lon="0.70947">
        <ele>149</ele>
        <time>2022-08-07T07:24:12.117Z</time>
      </trkpt>
      <trkpt lat="44.19902" lon="0.70948">
        <ele>148</ele>
        <time>2022-08-07T07:24:13.117Z</time>
      </trkpt>
      <trkpt lat="44.19901" lon="0.70949">
        <ele>146</ele>
        <time>2022-08-07T07:24:14.117Z</time>
      </trkpt>
      <trkpt lat="44.199" lon="0.7095">
        <ele>147</ele>
        <time>2022-08-07T07:24:15.117Z</time>
      </trkpt>
      <trkpt lat="44.19899" lon="0.70951">
        <ele>147</ele>
        <time>2022-08-07T07:24:16.117Z</time>
      </trkpt>
      <trkpt lat="44.19898" lon="0.70952">
        <ele>147</ele>
        <time>2022-08-07T07:24:17.117Z</time>
      </trkpt>
      <trkpt lat="44.19898" lon="0.70953">
        <ele>146</ele>
        <time>2022-08-07T07:24:18.117Z</time>
      </trkpt>
      <trkpt lat="44.19897" lon="0.70953">
        <ele>146</ele>
        <time>2022-08-07T07:24:19.117Z</time>
      </trkpt>
      <trkpt lat="44.19897" lon="0.70953">
        <ele>146</ele>
        <time>2022-08-07T07:24:20.117Z</time>
      </trkpt>
      <trkpt lat="44.19897" lon="0.70953">
        <ele>147</ele>
        <time>2022-08-07T07:24:21.117Z</time>
      </trkpt>
      <trkpt lat="44.19901" lon="0.70964">
        <ele>146</ele>
        <time>2022-08-07T07:25:18.121Z</time>
      </trkpt>
      <trkpt lat="44.19902" lon="0.70965">
        <ele>146</ele>
        <time>2022-08-07T07:25:19.121Z</time>
      </trkpt>
      <trkpt lat="44.19903" lon="0.70967">
        <ele>146</ele>
        <time>2022-08-07T07:25:20.121Z</time>
      </trkpt>
      <trkpt lat="44.19903" lon="0.70968">
        <ele>146</ele>
        <time>2022-08-07T07:25:21.121Z</time>
      </trkpt>
      <trkpt lat="44.19904" lon="0.7097">
        <ele>146</ele>
        <time>2022-08-07T07:25:22.121Z</time>
      </trkpt>
      <trkpt lat="44.19904" lon="0.70972">
        <ele>146</ele>
        <time>2022-08-07T07:25:23.121Z</time>
      </trkpt>
      <trkpt lat="44.19904" lon="0.70974">
        <ele>146</ele>
        <time>2022-08-07T07:25:24.121Z</time>
      </trkpt>
      <trkpt lat="44.19904" lon="0.70976">
        <ele>146</ele>
        <time>2022-08-07T07:25:25.121Z</time>
      </trkpt>
      <trkpt lat="44.19904" lon="0.70978">
        <ele>146</ele>
        <time>2022-08-07T07:25:26.121Z</time>
      </trkpt>
      <trkpt lat="44.19904" lon="0.70979">
        <ele>145</ele>
        <time>2022-08-07T07:25:27.121Z</time>
      </trkpt>
      <trkpt lat="44.19905" lon="0.7098">
        <ele>145</ele>
        <time>2022-08-07T07:25:28.121Z</time>
      </trkpt>
      <trkpt lat="44.19905" lon="0.70982">
        <ele>145</ele>
        <time>2022-08-07T07:25:29.121Z</time>
      </trkpt>
      <trkpt lat="44.19905" lon="0.70983">
        <ele>145</ele>
        <time>2022-08-07T07:25:30.121Z</time>
      </trkpt>
      <trkpt lat="44.19906" lon="0.70985">
        <ele>145</ele>
        <time>2022-08-07T07:25:31.121Z</time>
      </trkpt>
      <trkpt lat="44.19906" lon="0.70987">
        <ele>146</ele>
        <time>2022-08-07T07:25:32.121Z</time>
      </trkpt>
      <trkpt lat="44.19906" lon="0.70988">
        <ele>146</ele>
        <time>2022-08-07T07:25:33.121Z</time>
      </trkpt>
      <trkpt lat="44.19907" lon="0.70989">
        <ele>146</ele>
        <time>2022-08-07T07:25:34.121Z</time>
      </trkpt>
      <trkpt lat="44.19909" lon="0.7099">
        <ele>146</ele>
        <time>2022-08-07T07:25:35.121Z</time>
      </trkpt>
      <trkpt lat="44.1991" lon="0.70991">
        <ele>147</ele>
        <time>2022-08-07T07:25:36.121Z</time>
      </trkpt>
      <trkpt lat="44.19912" lon="0.70991">
        <ele>147</ele>
        <time>2022-08-07T07:25:37.121Z</time>
      </trkpt>
      <trkpt lat="44.19913" lon="0.70991">
        <ele>148</ele>
        <time>2022-08-07T07:25:38.121Z</time>
      </trkpt>
      <trkpt lat="44.19913" lon="0.70991">
        <ele>148</ele>
        <time>2022-08-07T07:25:39.121Z</time>
      </trkpt>
      <trkpt lat="44.19914" lon="0.70991">
        <ele>149</ele>
        <time>2022-08-07T07:25:40.121Z</time>
      </trkpt>
      <trkpt lat="44.19915" lon="0.70992">
        <ele>150</ele>
        <time>2022-08-07T07:25:41.121Z</time>
      </trkpt>
      <trkpt lat="44.19916" lon="0.70992">
        <ele>151</ele>
        <time>2022-08-07T07:25:42.121Z</time>
      </trkpt>
      <trkpt lat="44.19918" lon="0.70992">
        <ele>151</ele>
        <time>2022-08-07T07:25:43.121Z</time>
      </trkpt>
      <trkpt lat="44.19919" lon="0.70991">
        <ele>152</ele>
        <time>2022-08-07T07:25:44.121Z</time>
      </trkpt>
      <trkpt lat="44.19921" lon="0.70991">
        <ele>153</ele>
        <time>2022-08-07T07:25:45.121Z</time>
      </trkpt>
      <trkpt lat="44.19922" lon="0.70991">
        <ele>154</ele>
        <time>2022-08-07T07:25:46.121Z</time>
      </trkpt>
      <trkpt lat="44.19924" lon="0.70991">
        <ele>154</ele>
        <time>2022-08-07T07:25:47.121Z</time>
      </trkpt>
      <trkpt lat="44.19925" lon="0.70991">
        <ele>154</ele>
        <time>2022-08-07T07:25:48.121Z</time>
      </trkpt>
      <trkpt lat="44.19927" lon="0.70991">
        <ele>154</ele>
        <time>2022-08-07T07:25:49.121Z</time>
      </trkpt>
      <trkpt lat="44.19928" lon="0.7099">
        <ele>155</ele>
        <time>2022-08-07T07:25:50.121Z</time>
      </trkpt>
      <trkpt lat="44.1993" lon="0.70989">
        <ele>156</ele>
        <time>2022-08-07T07:25:51.121Z</time>
      </trkpt>
      <trkpt lat="44.19931" lon="0.70987">
        <ele>157</ele>
        <time>2022-08-07T07:25:52.121Z</time>
      </trkpt>
      <trkpt lat="44.19932" lon="0.70987">
        <ele>157</ele>
        <time>2022-08-07T07:25:53.121Z</time>
      </trkpt>
      <trkpt lat="44.19934" lon="0.70986">
        <ele>158</ele>
        <time>2022-08-07T07:25:54.121Z</time>
      </trkpt>
      <trkpt lat="44.19935" lon="0.70985">
        <ele>159</ele>
        <time>2022-08-07T07:25:55.121Z</time>
      </trkpt>
      <trkpt lat="44.19936" lon="0.70985">
        <ele>159</ele>
        <time>2022-08-07T07:25:56.121Z</time>
      </trkpt>
      <trkpt lat="44.19937" lon="0.70984">
        <ele>159</ele>
        <time>2022-08-07T07:25:57.121Z</time>
      </trkpt>
      <trkpt lat="44.19938" lon="0.70984">
        <ele>159</ele>
        <time>2022-08-07T07:25:58.121Z</time>
      </trkpt>
      <trkpt lat="44.19939" lon="0.70984">
        <ele>159</ele>
        <time>2022-08-07T07:25:59.121Z</time>
      </trkpt>
      <trkpt lat="44.1994" lon="0.70983">
        <ele>159</ele>
        <time>2022-08-07T07:26:00.121Z</time>
      </trkpt>
      <trkpt lat="44.19941" lon="0.70983">
        <ele>159</ele>
        <time>2022-08-07T07:26:01.121Z</time>
      </trkpt>
      <trkpt lat="44.19943" lon="0.70983">
        <ele>159</ele>
        <time>2022-08-07T07:26:02.121Z</time>
      </trkpt>
      <trkpt lat="44.19944" lon="0.70983">
        <ele>159</ele>
        <time>2022-08-07T07:26:03.121Z</time>
      </trkpt>
      <trkpt lat="44.19945" lon="0.70983">
        <ele>159</ele>
        <time>2022-08-07T07:26:04.121Z</time>
      </trkpt>
      <trkpt lat="44.19946" lon="0.70982">
        <ele>159</ele>
        <time>2022-08-07T07:26:05.121Z</time>
      </trkpt>
      <trkpt lat="44.19946" lon="0.70981">
        <ele>158</ele>
        <time>2022-08-07T07:26:06.121Z</time>
      </trkpt>
      <trkpt lat="44.19947" lon="0.7098">
        <ele>158</ele>
        <time>2022-08-07T07:26:07.121Z</time>
      </trkpt>
      <trkpt lat="44.19948" lon="0.70979">
        <ele>158</ele>
        <time>2022-08-07T07:26:08.121Z</time>
      </trkpt>
      <trkpt lat="44.19949" lon="0.70979">
        <ele>159</ele>
        <time>2022-08-07T07:26:09.121Z</time>
      </trkpt>
      <trkpt lat="44.1995" lon="0.70978">
        <ele>159</ele>
        <time>2022-08-07T07:26:10.121Z</time>
      </trkpt>
      <trkpt lat="44.19952" lon="0.70977">
        <ele>159</ele>
        <time>2022-08-07T07:26:11.121Z</time>
      </trkpt>
      <trkpt lat="44.19953" lon="0.70976">
        <ele>160</ele>
        <time>2022-08-07T07:26:12.121Z</time>
      </trkpt>
      <trkpt lat="44.19954" lon="0.70975">
        <ele>160</ele>
        <time>2022-08-07T07:26:13.121Z</time>
      </trkpt>
      <trkpt lat="44.19955" lon="0.70974">
        <ele>160</ele>
        <time>2022-08-07T07:26:14.121Z</time>
      </trkpt>
      <trkpt lat="44.19956" lon="0.70973">
        <ele>160</ele>
        <time>2022-08-07T07:26:15.121Z</time>
      </trkpt>
      <trkpt lat="44.19957" lon="0.70973">
        <ele>160</ele>
        <time>2022-08-07T07:26:16.121Z</time>
      </trkpt>
      <trkpt lat="44.19959" lon="0.70973">
        <ele>160</ele>
        <time>2022-08-07T07:26:17.121Z</time>
      </trkpt>
      <trkpt lat="44.1996" lon="0.70973">
        <ele>160</ele>
        <time>2022-08-07T07:26:18.121Z</time>
      </trkpt>
      <trkpt lat="44.19962" lon="0.70973">
        <ele>160</ele>
        <time>2022-08-07T07:26:19.121Z</time>
      </trkpt>
      <trkpt lat="44.19963" lon="0.70973">
        <ele>159</ele>
        <time>2022-08-07T07:26:20.121Z</time>
      </trkpt>
      <trkpt lat="44.19964" lon="0.70973">
        <ele>159</ele>
        <time>2022-08-07T07:26:21.121Z</time>
      </trkpt>
      <trkpt lat="44.19965" lon="0.70974">
        <ele>158</ele>
        <time>2022-08-07T07:26:22.121Z</time>
      </trkpt>
      <trkpt lat="44.19966" lon="0.70974">
        <ele>158</ele>
        <time>2022-08-07T07:26:23.121Z</time>
      </trkpt>
      <trkpt lat="44.19968" lon="0.70976">
        <ele>157</ele>
        <time>2022-08-07T07:26:24.121Z</time>
      </trkpt>
      <trkpt lat="44.1997" lon="0.70977">
        <ele>155</ele>
        <time>2022-08-07T07:26:25.121Z</time>
      </trkpt>
      <trkpt lat="44.19972" lon="0.70978">
        <ele>154</ele>
        <time>2022-08-07T07:26:26.121Z</time>
      </trkpt>
      <trkpt lat="44.19973" lon="0.70979">
        <ele>153</ele>
        <time>2022-08-07T07:26:27.121Z</time>
      </trkpt>
      <trkpt lat="44.19975" lon="0.7098">
        <ele>152</ele>
        <time>2022-08-07T07:26:28.121Z</time>
      </trkpt>
      <trkpt lat="44.19976" lon="0.7098">
        <ele>150</ele>
        <time>2022-08-07T07:26:29.121Z</time>
      </trkpt>
      <trkpt lat="44.19978" lon="0.70981">
        <ele>148</ele>
        <time>2022-08-07T07:26:30.121Z</time>
      </trkpt>
      <trkpt lat="44.1998" lon="0.70981">
        <ele>146</ele>
        <time>2022-08-07T07:26:31.121Z</time>
      </trkpt>
      <trkpt lat="44.19981" lon="0.70982">
        <ele>146</ele>
        <time>2022-08-07T07:26:32.121Z</time>
      </trkpt>
      <trkpt lat="44.19983" lon="0.70982">
        <ele>146</ele>
        <time>2022-08-07T07:26:33.121Z</time>
      </trkpt>
      <trkpt lat="44.19984" lon="0.70983">
        <ele>145</ele>
        <time>2022-08-07T07:26:34.121Z</time>
      </trkpt>
      <trkpt lat="44.19985" lon="0.70983">
        <ele>145</ele>
        <time>2022-08-07T07:26:35.121Z</time>
      </trkpt>
      <trkpt lat="44.19986" lon="0.70984">
        <ele>145</ele>
        <time>2022-08-07T07:26:36.121Z</time>
      </trkpt>
      <trkpt lat="44.19987" lon="0.70984">
        <ele>144</ele>
        <time>2022-08-07T07:26:37.121Z</time>
      </trkpt>
      <trkpt lat="44.19989" lon="0.70985">
        <ele>144</ele>
        <time>2022-08-07T07:26:38.121Z</time>
      </trkpt>
      <trkpt lat="44.1999" lon="0.70985">
        <ele>144</ele>
        <time>2022-08-07T07:26:39.121Z</time>
      </trkpt>
      <trkpt lat="44.19991" lon="0.70985">
        <ele>145</ele>
        <time>2022-08-07T07:26:40.121Z</time>
      </trkpt>
      <trkpt lat="44.19991" lon="0.70986">
        <ele>144</ele>
        <time>2022-08-07T07:26:41.121Z</time>
      </trkpt>
      <trkpt lat="44.19992" lon="0.70986">
        <ele>143</ele>
        <time>2022-08-07T07:26:42.121Z</time>
      </trkpt>
      <trkpt lat="44.19994" lon="0.70986">
        <ele>144</ele>
        <time>2022-08-07T07:26:43.121Z</time>
      </trkpt>
      <trkpt lat="44.19995" lon="0.70986">
        <ele>144</ele>
        <time>2022-08-07T07:26:44.121Z</time>
      </trkpt>
      <trkpt lat="44.19996" lon="0.70987">
        <ele>144</ele>
        <time>2022-08-07T07:26:45.121Z</time>
      </trkpt>
      <trkpt lat="44.19997" lon="0.70987">
        <ele>143</ele>
        <time>2022-08-07T07:26:46.121Z</time>
      </trkpt>
      <trkpt lat="44.19998" lon="0.70988">
        <ele>143</ele>
        <time>2022-08-07T07:26:47.121Z</time>
      </trkpt>
      <trkpt lat="44.19999" lon="0.70988">
        <ele>143</ele>
        <time>2022-08-07T07:26:48.121Z</time>
      </trkpt>
      <trkpt lat="44.2" lon="0.70988">
        <ele>142</ele>
        <time>2022-08-07T07:26:49.121Z</time>
      </trkpt>
      <trkpt lat="44.20001" lon="0.70989">
        <ele>141</ele>
        <time>2022-08-07T07:26:50.121Z</time>
      </trkpt>
      <trkpt lat="44.20002" lon="0.7099">
        <ele>140</ele>
        <time>2022-08-07T07:26:51.121Z</time>
      </trkpt>
      <trkpt lat="44.20003" lon="0.7099">
        <ele>139</ele>
        <time>2022-08-07T07:26:52.121Z</time>
      </trkpt>
      <trkpt lat="44.20004" lon="0.70991">
        <ele>139</ele>
        <time>2022-08-07T07:26:53.121Z</time>
      </trkpt>
      <trkpt lat="44.20005" lon="0.70991">
        <ele>138</ele>
        <time>2022-08-07T07:26:54.121Z</time>
      </trkpt>
      <trkpt lat="44.20006" lon="0.70991">
        <ele>138</ele>
        <time>2022-08-07T07:26:55.121Z</time>
      </trkpt>
      <trkpt lat="44.20008" lon="0.70992">
        <ele>137</ele>
        <time>2022-08-07T07:26:56.121Z</time>
      </trkpt>
      <trkpt lat="44.20009" lon="0.70993">
        <ele>137</ele>
        <time>2022-08-07T07:26:57.121Z</time>
      </trkpt>
      <trkpt lat="44.20009" lon="0.70994">
        <ele>136</ele>
        <time>2022-08-07T07:26:58.121Z</time>
      </trkpt>
      <trkpt lat="44.2001" lon="0.70995">
        <ele>136</ele>
        <time>2022-08-07T07:26:59.121Z</time>
      </trkpt>
      <trkpt lat="44.20011" lon="0.70997">
        <ele>135</ele>
        <time>2022-08-07T07:27:00.121Z</time>
      </trkpt>
      <trkpt lat="44.20012" lon="0.70998">
        <ele>136</ele>
        <time>2022-08-07T07:27:01.121Z</time>
      </trkpt>
      <trkpt lat="44.20013" lon="0.70999">
        <ele>136</ele>
        <time>2022-08-07T07:27:02.121Z</time>
      </trkpt>
      <trkpt lat="44.20014" lon="0.71">
        <ele>136</ele>
        <time>2022-08-07T07:27:03.121Z</time>
      </trkpt>
      <trkpt lat="44.20015" lon="0.71002">
        <ele>136</ele>
        <time>2022-08-07T07:27:04.121Z</time>
      </trkpt>
      <trkpt lat="44.20016" lon="0.71004">
        <ele>135</ele>
        <time>2022-08-07T07:27:05.121Z</time>
      </trkpt>
      <trkpt lat="44.20016" lon="0.71006">
        <ele>135</ele>
        <time>2022-08-07T07:27:06.121Z</time>
      </trkpt>
      <trkpt lat="44.20017" lon="0.71008">
        <ele>136</ele>
        <time>2022-08-07T07:27:07.121Z</time>
      </trkpt>
      <trkpt lat="44.20017" lon="0.71009">
        <ele>135</ele>
        <time>2022-08-07T07:27:08.121Z</time>
      </trkpt>
      <trkpt lat="44.20018" lon="0.71011">
        <ele>134</ele>
        <time>2022-08-07T07:27:09.121Z</time>
      </trkpt>
      <trkpt lat="44.20019" lon="0.71013">
        <ele>134</ele>
        <time>2022-08-07T07:27:10.121Z</time>
      </trkpt>
      <trkpt lat="44.2002" lon="0.71015">
        <ele>134</ele>
        <time>2022-08-07T07:27:11.121Z</time>
      </trkpt>
      <trkpt lat="44.2002" lon="0.71016">
        <ele>134</ele>
        <time>2022-08-07T07:27:12.121Z</time>
      </trkpt>
      <trkpt lat="44.2002" lon="0.71018">
        <ele>133</ele>
        <time>2022-08-07T07:27:13.121Z</time>
      </trkpt>
      <trkpt lat="44.2002" lon="0.7102">
        <ele>133</ele>
        <time>2022-08-07T07:27:14.121Z</time>
      </trkpt>
      <trkpt lat="44.20021" lon="0.71022">
        <ele>134</ele>
        <time>2022-08-07T07:27:15.121Z</time>
      </trkpt>
      <trkpt lat="44.20021" lon="0.71024">
        <ele>135</ele>
        <time>2022-08-07T07:27:16.121Z</time>
      </trkpt>
      <trkpt lat="44.20022" lon="0.71026">
        <ele>135</ele>
        <time>2022-08-07T07:27:17.121Z</time>
      </trkpt>
      <trkpt lat="44.20022" lon="0.71028">
        <ele>135</ele>
        <time>2022-08-07T07:27:18.121Z</time>
      </trkpt>
      <trkpt lat="44.20023" lon="0.7103">
        <ele>135</ele>
        <time>2022-08-07T07:27:19.121Z</time>
      </trkpt>
      <trkpt lat="44.20023" lon="0.71031">
        <ele>135</ele>
        <time>2022-08-07T07:27:20.121Z</time>
      </trkpt>
      <trkpt lat="44.20024" lon="0.71032">
        <ele>134</ele>
        <time>2022-08-07T07:27:21.121Z</time>
      </trkpt>
      <trkpt lat="44.20024" lon="0.71033">
        <ele>133</ele>
        <time>2022-08-07T07:27:22.121Z</time>
      </trkpt>
      <trkpt lat="44.20024" lon="0.71034">
        <ele>130</ele>
        <time>2022-08-07T07:27:23.121Z</time>
      </trkpt>
      <trkpt lat="44.20024" lon="0.71034">
        <ele>130</ele>
        <time>2022-08-07T07:27:24.121Z</time>
      </trkpt>
      <trkpt lat="44.20024" lon="0.71035">
        <ele>130</ele>
        <time>2022-08-07T07:27:25.121Z</time>
      </trkpt>
      <trkpt lat="44.20023" lon="0.71037">
        <ele>130</ele>
        <time>2022-08-07T07:27:26.121Z</time>
      </trkpt>
      <trkpt lat="44.20023" lon="0.71038">
        <ele>130</ele>
        <time>2022-08-07T07:27:27.121Z</time>
      </trkpt>
      <trkpt lat="44.20023" lon="0.71039">
        <ele>130</ele>
        <time>2022-08-07T07:27:28.121Z</time>
      </trkpt>
      <trkpt lat="44.20023" lon="0.7104">
        <ele>130</ele>
        <time>2022-08-07T07:27:29.121Z</time>
      </trkpt>
      <trkpt lat="44.20023" lon="0.71042">
        <ele>131</ele>
        <time>2022-08-07T07:27:30.121Z</time>
      </trkpt>
      <trkpt lat="44.20023" lon="0.71044">
        <ele>132</ele>
        <time>2022-08-07T07:27:31.121Z</time>
      </trkpt>
      <trkpt lat="44.20022" lon="0.71045">
        <ele>133</ele>
        <time>2022-08-07T07:27:32.121Z</time>
      </trkpt>
      <trkpt lat="44.20022" lon="0.71047">
        <ele>133</ele>
        <time>2022-08-07T07:27:33.121Z</time>
      </trkpt>
      <trkpt lat="44.20022" lon="0.71048">
        <ele>134</ele>
        <time>2022-08-07T07:27:34.121Z</time>
      </trkpt>
      <trkpt lat="44.20022" lon="0.7105">
        <ele>135</ele>
        <time>2022-08-07T07:27:35.121Z</time>
      </trkpt>
      <trkpt lat="44.20022" lon="0.71052">
        <ele>135</ele>
        <time>2022-08-07T07:27:36.121Z</time>
      </trkpt>
      <trkpt lat="44.20021" lon="0.71054">
        <ele>136</ele>
        <time>2022-08-07T07:27:37.121Z</time>
      </trkpt>
      <trkpt lat="44.20021" lon="0.71055">
        <ele>136</ele>
        <time>2022-08-07T07:27:38.121Z</time>
      </trkpt>
      <trkpt lat="44.2002" lon="0.71057">
        <ele>138</ele>
        <time>2022-08-07T07:27:39.121Z</time>
      </trkpt>
      <trkpt lat="44.2002" lon="0.71059">
        <ele>138</ele>
        <time>2022-08-07T07:27:40.121Z</time>
      </trkpt>
      <trkpt lat="44.20019" lon="0.7106">
        <ele>138</ele>
        <time>2022-08-07T07:27:41.121Z</time>
      </trkpt>
      <trkpt lat="44.20019" lon="0.71062">
        <ele>138</ele>
        <time>2022-08-07T07:27:42.121Z</time>
      </trkpt>
      <trkpt lat="44.20018" lon="0.71063">
        <ele>138</ele>
        <time>2022-08-07T07:27:43.121Z</time>
      </trkpt>
      <trkpt lat="44.20017" lon="0.71064">
        <ele>138</ele>
        <time>2022-08-07T07:27:44.121Z</time>
      </trkpt>
      <trkpt lat="44.20017" lon="0.71065">
        <ele>138</ele>
        <time>2022-08-07T07:27:45.121Z</time>
      </trkpt>
      <trkpt lat="44.20016" lon="0.71066">
        <ele>137</ele>
        <time>2022-08-07T07:27:46.121Z</time>
      </trkpt>
      <trkpt lat="44.20015" lon="0.71067">
        <ele>137</ele>
        <time>2022-08-07T07:27:47.121Z</time>
      </trkpt>
      <trkpt lat="44.20014" lon="0.71069">
        <ele>136</ele>
        <time>2022-08-07T07:27:48.121Z</time>
      </trkpt>
      <trkpt lat="44.20013" lon="0.7107">
        <ele>136</ele>
        <time>2022-08-07T07:27:49.121Z</time>
      </trkpt>
      <trkpt lat="44.20012" lon="0.71071">
        <ele>135</ele>
        <time>2022-08-07T07:27:50.121Z</time>
      </trkpt>
      <trkpt lat="44.20011" lon="0.71072">
        <ele>134</ele>
        <time>2022-08-07T07:27:51.121Z</time>
      </trkpt>
      <trkpt lat="44.2001" lon="0.71073">
        <ele>134</ele>
        <time>2022-08-07T07:27:52.121Z</time>
      </trkpt>
      <trkpt lat="44.20009" lon="0.71074">
        <ele>134</ele>
        <time>2022-08-07T07:27:53.121Z</time>
      </trkpt>
      <trkpt lat="44.20008" lon="0.71075">
        <ele>133</ele>
        <time>2022-08-07T07:27:54.121Z</time>
      </trkpt>
      <trkpt lat="44.20008" lon="0.71076">
        <ele>133</ele>
        <time>2022-08-07T07:27:55.121Z</time>
      </trkpt>
      <trkpt lat="44.20007" lon="0.71077">
        <ele>133</ele>
        <time>2022-08-07T07:27:56.121Z</time>
      </trkpt>
      <trkpt lat="44.20006" lon="0.71077">
        <ele>133</ele>
        <time>2022-08-07T07:27:57.121Z</time>
      </trkpt>
      <trkpt lat="44.20005" lon="0.71078">
        <ele>133</ele>
        <time>2022-08-07T07:27:58.121Z</time>
      </trkpt>
      <trkpt lat="44.20004" lon="0.71079">
        <ele>132</ele>
        <time>2022-08-07T07:27:59.121Z</time>
      </trkpt>
      <trkpt lat="44.20003" lon="0.71079">
        <ele>132</ele>
        <time>2022-08-07T07:28:00.121Z</time>
      </trkpt>
      <trkpt lat="44.20002" lon="0.71079">
        <ele>132</ele>
        <time>2022-08-07T07:28:01.121Z</time>
      </trkpt>
      <trkpt lat="44.20001" lon="0.71079">
        <ele>131</ele>
        <time>2022-08-07T07:28:02.121Z</time>
      </trkpt>
      <trkpt lat="44.2" lon="0.7108">
        <ele>132</ele>
        <time>2022-08-07T07:28:03.121Z</time>
      </trkpt>
      <trkpt lat="44.19999" lon="0.7108">
        <ele>132</ele>
        <time>2022-08-07T07:28:04.121Z</time>
      </trkpt>
      <trkpt lat="44.19998" lon="0.71081">
        <ele>133</ele>
        <time>2022-08-07T07:28:05.121Z</time>
      </trkpt>
      <trkpt lat="44.19997" lon="0.71081">
        <ele>133</ele>
        <time>2022-08-07T07:28:06.121Z</time>
      </trkpt>
      <trkpt lat="44.19996" lon="0.71082">
        <ele>132</ele>
        <time>2022-08-07T07:28:07.121Z</time>
      </trkpt>
      <trkpt lat="44.19995" lon="0.71083">
        <ele>132</ele>
        <time>2022-08-07T07:28:08.121Z</time>
      </trkpt>
      <trkpt lat="44.19994" lon="0.71083">
        <ele>131</ele>
        <time>2022-08-07T07:28:09.121Z</time>
      </trkpt>
      <trkpt lat="44.19993" lon="0.71083">
        <ele>131</ele>
        <time>2022-08-07T07:28:10.121Z</time>
      </trkpt>
      <trkpt lat="44.19991" lon="0.71084">
        <ele>131</ele>
        <time>2022-08-07T07:28:11.121Z</time>
      </trkpt>
      <trkpt lat="44.1999" lon="0.71085">
        <ele>131</ele>
        <time>2022-08-07T07:28:12.121Z</time>
      </trkpt>
      <trkpt lat="44.19989" lon="0.71086">
        <ele>131</ele>
        <time>2022-08-07T07:28:13.121Z</time>
      </trkpt>
      <trkpt lat="44.19987" lon="0.71087">
        <ele>130</ele>
        <time>2022-08-07T07:28:14.121Z</time>
      </trkpt>
      <trkpt lat="44.19986" lon="0.71088">
        <ele>129</ele>
        <time>2022-08-07T07:28:15.121Z</time>
      </trkpt>
      <trkpt lat="44.19985" lon="0.71088">
        <ele>127</ele>
        <time>2022-08-07T07:28:16.121Z</time>
      </trkpt>
      <trkpt lat="44.19984" lon="0.71089">
        <ele>128</ele>
        <time>2022-08-07T07:28:17.121Z</time>
      </trkpt>
      <trkpt lat="44.19983" lon="0.71089">
        <ele>127</ele>
        <time>2022-08-07T07:28:18.121Z</time>
      </trkpt>
      <trkpt lat="44.19982" lon="0.7109">
        <ele>127</ele>
        <time>2022-08-07T07:28:19.121Z</time>
      </trkpt>
      <trkpt lat="44.1998" lon="0.71091">
        <ele>127</ele>
        <time>2022-08-07T07:28:20.121Z</time>
      </trkpt>
      <trkpt lat="44.19978" lon="0.71092">
        <ele>124</ele>
        <time>2022-08-07T07:28:21.121Z</time>
      </trkpt>
      <trkpt lat="44.19977" lon="0.71092">
        <ele>123</ele>
        <time>2022-08-07T07:28:22.121Z</time>
      </trkpt>
      <trkpt lat="44.19975" lon="0.71092">
        <ele>123</ele>
        <time>2022-08-07T07:28:23.121Z</time>
      </trkpt>
      <trkpt lat="44.19973" lon="0.71093">
        <ele>123</ele>
        <time>2022-08-07T07:28:24.121Z</time>
      </trkpt>
      <trkpt lat="44.19972" lon="0.71093">
        <ele>123</ele>
        <time>2022-08-07T07:28:25.121Z</time>
      </trkpt>
      <trkpt lat="44.19971" lon="0.71093">
        <ele>122</ele>
        <time>2022-08-07T07:28:26.121Z</time>
      </trkpt>
      <trkpt lat="44.19969" lon="0.71094">
        <ele>121</ele>
        <time>2022-08-07T07:28:27.121Z</time>
      </trkpt>
      <trkpt lat="44.19968" lon="0.71094">
        <ele>121</ele>
        <time>2022-08-07T07:28:28.121Z</time>
      </trkpt>
      <trkpt lat="44.19966" lon="0.71095">
        <ele>121</ele>
        <time>2022-08-07T07:28:29.121Z</time>
      </trkpt>
      <trkpt lat="44.19965" lon="0.71095">
        <ele>121</ele>
        <time>2022-08-07T07:28:30.121Z</time>
      </trkpt>
      <trkpt lat="44.19963" lon="0.71095">
        <ele>120</ele>
        <time>2022-08-07T07:28:31.121Z</time>
      </trkpt>
      <trkpt lat="44.19962" lon="0.71096">
        <ele>119</ele>
        <time>2022-08-07T07:28:32.121Z</time>
      </trkpt>
      <trkpt lat="44.1996" lon="0.71096">
        <ele>119</ele>
        <time>2022-08-07T07:28:33.121Z</time>
      </trkpt>
      <trkpt lat="44.19959" lon="0.71097">
        <ele>119</ele>
        <time>2022-08-07T07:28:34.121Z</time>
      </trkpt>
      <trkpt lat="44.19958" lon="0.71097">
        <ele>118</ele>
        <time>2022-08-07T07:28:35.121Z</time>
      </trkpt>
      <trkpt lat="44.19956" lon="0.71098">
        <ele>118</ele>
        <time>2022-08-07T07:28:36.121Z</time>
      </trkpt>
      <trkpt lat="44.19955" lon="0.71098">
        <ele>117</ele>
        <time>2022-08-07T07:28:37.121Z</time>
      </trkpt>
      <trkpt lat="44.19953" lon="0.71098">
        <ele>117</ele>
        <time>2022-08-07T07:28:38.121Z</time>
      </trkpt>
      <trkpt lat="44.19952" lon="0.71099">
        <ele>117</ele>
        <time>2022-08-07T07:28:39.121Z</time>
      </trkpt>
      <trkpt lat="44.1995" lon="0.71099">
        <ele>118</ele>
        <time>2022-08-07T07:28:40.121Z</time>
      </trkpt>
      <trkpt lat="44.19949" lon="0.711">
        <ele>118</ele>
        <time>2022-08-07T07:28:41.121Z</time>
      </trkpt>
      <trkpt lat="44.19948" lon="0.711">
        <ele>118</ele>
        <time>2022-08-07T07:28:42.121Z</time>
      </trkpt>
      <trkpt lat="44.19947" lon="0.711">
        <ele>118</ele>
        <time>2022-08-07T07:28:43.121Z</time>
      </trkpt>
      <trkpt lat="44.19946" lon="0.711">
        <ele>117</ele>
        <time>2022-08-07T07:28:44.121Z</time>
      </trkpt>
      <trkpt lat="44.19944" lon="0.71101">
        <ele>117</ele>
        <time>2022-08-07T07:28:45.121Z</time>
      </trkpt>
      <trkpt lat="44.19943" lon="0.71101">
        <ele>118</ele>
        <time>2022-08-07T07:28:46.121Z</time>
      </trkpt>
      <trkpt lat="44.19942" lon="0.71101">
        <ele>118</ele>
        <time>2022-08-07T07:28:47.121Z</time>
      </trkpt>
      <trkpt lat="44.19941" lon="0.71101">
        <ele>119</ele>
        <time>2022-08-07T07:28:48.121Z</time>
      </trkpt>
      <trkpt lat="44.1994" lon="0.71102">
        <ele>121</ele>
        <time>2022-08-07T07:28:49.121Z</time>
      </trkpt>
      <trkpt lat="44.19939" lon="0.71103">
        <ele>121</ele>
        <time>2022-08-07T07:28:50.121Z</time>
      </trkpt>
      <trkpt lat="44.19938" lon="0.71103">
        <ele>123</ele>
        <time>2022-08-07T07:28:51.121Z</time>
      </trkpt>
      <trkpt lat="44.19937" lon="0.71103">
        <ele>122</ele>
        <time>2022-08-07T07:28:52.121Z</time>
      </trkpt>
      <trkpt lat="44.19936" lon="0.71103">
        <ele>123</ele>
        <time>2022-08-07T07:28:53.121Z</time>
      </trkpt>
      <trkpt lat="44.19935" lon="0.71103">
        <ele>123</ele>
        <time>2022-08-07T07:28:54.121Z</time>
      </trkpt>
      <trkpt lat="44.19933" lon="0.71102">
        <ele>123</ele>
        <time>2022-08-07T07:28:55.121Z</time>
      </trkpt>
      <trkpt lat="44.19932" lon="0.71102">
        <ele>122</ele>
        <time>2022-08-07T07:28:56.121Z</time>
      </trkpt>
      <trkpt lat="44.19932" lon="0.71101">
        <ele>124</ele>
        <time>2022-08-07T07:28:57.121Z</time>
      </trkpt>
      <trkpt lat="44.19931" lon="0.711">
        <ele>125</ele>
        <time>2022-08-07T07:28:58.121Z</time>
      </trkpt>
      <trkpt lat="44.19932" lon="0.711">
        <ele>125</ele>
        <time>2022-08-07T07:28:59.121Z</time>
      </trkpt>
      <trkpt lat="44.19932" lon="0.711">
        <ele>125</ele>
        <time>2022-08-07T07:29:00.121Z</time>
      </trkpt>
      <trkpt lat="44.19931" lon="0.711">
        <ele>124</ele>
        <time>2022-08-07T07:29:01.121Z</time>
      </trkpt>
      <trkpt lat="44.19931" lon="0.711">
        <ele>125</ele>
        <time>2022-08-07T07:29:02.121Z</time>
      </trkpt>
      <trkpt lat="44.19931" lon="0.711">
        <ele>125</ele>
        <time>2022-08-07T07:29:03.121Z</time>
      </trkpt>
      <trkpt lat="44.19931" lon="0.711">
        <ele>125</ele>
        <time>2022-08-07T07:29:04.121Z</time>
      </trkpt>
      <trkpt lat="44.1993" lon="0.711">
        <ele>124</ele>
        <time>2022-08-07T07:29:05.121Z</time>
      </trkpt>
      <trkpt lat="44.1993" lon="0.711">
        <ele>123</ele>
        <time>2022-08-07T07:29:06.121Z</time>
      </trkpt>
      <trkpt lat="44.19928" lon="0.71103">
        <ele>125</ele>
        <time>2022-08-07T07:29:28.132Z</time>
      </trkpt>
      <trkpt lat="44.19928" lon="0.71104">
        <ele>125</ele>
        <time>2022-08-07T07:29:29.132Z</time>
      </trkpt>
      <trkpt lat="44.19927" lon="0.71104">
        <ele>125</ele>
        <time>2022-08-07T07:29:30.132Z</time>
      </trkpt>
      <trkpt lat="44.19926" lon="0.71105">
        <ele>124</ele>
        <time>2022-08-07T07:29:31.132Z</time>
      </trkpt>
      <trkpt lat="44.19925" lon="0.71106">
        <ele>124</ele>
        <time>2022-08-07T07:29:32.132Z</time>
      </trkpt>
      <trkpt lat="44.19924" lon="0.71107">
        <ele>124</ele>
        <time>2022-08-07T07:29:33.132Z</time>
      </trkpt>
      <trkpt lat="44.19923" lon="0.71107">
        <ele>124</ele>
        <time>2022-08-07T07:29:34.132Z</time>
      </trkpt>
      <trkpt lat="44.19922" lon="0.71107">
        <ele>124</ele>
        <time>2022-08-07T07:29:35.132Z</time>
      </trkpt>
      <trkpt lat="44.1992" lon="0.71108">
        <ele>125</ele>
        <time>2022-08-07T07:29:36.132Z</time>
      </trkpt>
      <trkpt lat="44.1992" lon="0.71108">
        <ele>125</ele>
        <time>2022-08-07T07:29:37.132Z</time>
      </trkpt>
      <trkpt lat="44.19919" lon="0.71109">
        <ele>125</ele>
        <time>2022-08-07T07:29:38.132Z</time>
      </trkpt>
      <trkpt lat="44.19917" lon="0.71109">
        <ele>125</ele>
        <time>2022-08-07T07:29:39.132Z</time>
      </trkpt>
      <trkpt lat="44.19916" lon="0.7111">
        <ele>125</ele>
        <time>2022-08-07T07:29:40.132Z</time>
      </trkpt>
      <trkpt lat="44.19914" lon="0.7111">
        <ele>124</ele>
        <time>2022-08-07T07:29:41.132Z</time>
      </trkpt>
      <trkpt lat="44.19913" lon="0.71111">
        <ele>125</ele>
        <time>2022-08-07T07:29:42.132Z</time>
      </trkpt>
      <trkpt lat="44.19912" lon="0.71111">
        <ele>126</ele>
        <time>2022-08-07T07:29:43.132Z</time>
      </trkpt>
      <trkpt lat="44.19911" lon="0.71112">
        <ele>126</ele>
        <time>2022-08-07T07:29:44.132Z</time>
      </trkpt>
      <trkpt lat="44.1991" lon="0.71112">
        <ele>127</ele>
        <time>2022-08-07T07:29:45.132Z</time>
      </trkpt>
      <trkpt lat="44.19909" lon="0.71113">
        <ele>127</ele>
        <time>2022-08-07T07:29:46.132Z</time>
      </trkpt>
      <trkpt lat="44.19908" lon="0.71114">
        <ele>127</ele>
        <time>2022-08-07T07:29:47.132Z</time>
      </trkpt>
      <trkpt lat="44.19907" lon="0.71114">
        <ele>128</ele>
        <time>2022-08-07T07:29:48.132Z</time>
      </trkpt>
      <trkpt lat="44.19905" lon="0.71115">
        <ele>128</ele>
        <time>2022-08-07T07:29:49.132Z</time>
      </trkpt>
      <trkpt lat="44.19904" lon="0.71116">
        <ele>128</ele>
        <time>2022-08-07T07:29:50.132Z</time>
      </trkpt>
      <trkpt lat="44.19902" lon="0.71116">
        <ele>128</ele>
        <time>2022-08-07T07:29:51.132Z</time>
      </trkpt>
      <trkpt lat="44.19901" lon="0.71117">
        <ele>129</ele>
        <time>2022-08-07T07:29:52.132Z</time>
      </trkpt>
      <trkpt lat="44.199" lon="0.71118">
        <ele>129</ele>
        <time>2022-08-07T07:29:53.132Z</time>
      </trkpt>
      <trkpt lat="44.19899" lon="0.71118">
        <ele>129</ele>
        <time>2022-08-07T07:29:54.132Z</time>
      </trkpt>
      <trkpt lat="44.19898" lon="0.71119">
        <ele>129</ele>
        <time>2022-08-07T07:29:55.132Z</time>
      </trkpt>
      <trkpt lat="44.19896" lon="0.71119">
        <ele>129</ele>
        <time>2022-08-07T07:29:56.132Z</time>
      </trkpt>
      <trkpt lat="44.19895" lon="0.7112">
        <ele>129</ele>
        <time>2022-08-07T07:29:57.132Z</time>
      </trkpt>
      <trkpt lat="44.19894" lon="0.7112">
        <ele>129</ele>
        <time>2022-08-07T07:29:58.132Z</time>
      </trkpt>
      <trkpt lat="44.19893" lon="0.71121">
        <ele>129</ele>
        <time>2022-08-07T07:29:59.132Z</time>
      </trkpt>
      <trkpt lat="44.19892" lon="0.71121">
        <ele>130</ele>
        <time>2022-08-07T07:30:00.132Z</time>
      </trkpt>
      <trkpt lat="44.1989" lon="0.71121">
        <ele>130</ele>
        <time>2022-08-07T07:30:01.132Z</time>
      </trkpt>
      <trkpt lat="44.19889" lon="0.71121">
        <ele>129</ele>
        <time>2022-08-07T07:30:02.132Z</time>
      </trkpt>
      <trkpt lat="44.19888" lon="0.71121">
        <ele>129</ele>
        <time>2022-08-07T07:30:03.132Z</time>
      </trkpt>
      <trkpt lat="44.19887" lon="0.71122">
        <ele>128</ele>
        <time>2022-08-07T07:30:04.132Z</time>
      </trkpt>
      <trkpt lat="44.19886" lon="0.71123">
        <ele>128</ele>
        <time>2022-08-07T07:30:05.132Z</time>
      </trkpt>
      <trkpt lat="44.19884" lon="0.71123">
        <ele>128</ele>
        <time>2022-08-07T07:30:06.132Z</time>
      </trkpt>
      <trkpt lat="44.19883" lon="0.71123">
        <ele>128</ele>
        <time>2022-08-07T07:30:07.132Z</time>
      </trkpt>
      <trkpt lat="44.19882" lon="0.71124">
        <ele>128</ele>
        <time>2022-08-07T07:30:08.132Z</time>
      </trkpt>
      <trkpt lat="44.1988" lon="0.71124">
        <ele>127</ele>
        <time>2022-08-07T07:30:09.132Z</time>
      </trkpt>
      <trkpt lat="44.19879" lon="0.71125">
        <ele>127</ele>
        <time>2022-08-07T07:30:10.132Z</time>
      </trkpt>
      <trkpt lat="44.19878" lon="0.71125">
        <ele>127</ele>
        <time>2022-08-07T07:30:11.132Z</time>
      </trkpt>
      <trkpt lat="44.19877" lon="0.71126">
        <ele>128</ele>
        <time>2022-08-07T07:30:12.132Z</time>
      </trkpt>
      <trkpt lat="44.19875" lon="0.71126">
        <ele>129</ele>
        <time>2022-08-07T07:30:13.132Z</time>
      </trkpt>
      <trkpt lat="44.19874" lon="0.71127">
        <ele>129</ele>
        <time>2022-08-07T07:30:14.132Z</time>
      </trkpt>
      <trkpt lat="44.19873" lon="0.71127">
        <ele>129</ele>
        <time>2022-08-07T07:30:15.132Z</time>
      </trkpt>
      <trkpt lat="44.19872" lon="0.71128">
        <ele>128</ele>
        <time>2022-08-07T07:30:16.132Z</time>
      </trkpt>
      <trkpt lat="44.19871" lon="0.71128">
        <ele>128</ele>
        <time>2022-08-07T07:30:17.132Z</time>
      </trkpt>
      <trkpt lat="44.1987" lon="0.71129">
        <ele>128</ele>
        <time>2022-08-07T07:30:18.132Z</time>
      </trkpt>
      <trkpt lat="44.19869" lon="0.71129">
        <ele>127</ele>
        <time>2022-08-07T07:30:19.132Z</time>
      </trkpt>
      <trkpt lat="44.19868" lon="0.71129">
        <ele>127</ele>
        <time>2022-08-07T07:30:20.132Z</time>
      </trkpt>
      <trkpt lat="44.19868" lon="0.71129">
        <ele>127</ele>
        <time>2022-08-07T07:30:21.132Z</time>
      </trkpt>
      <trkpt lat="44.19867" lon="0.7113">
        <ele>127</ele>
        <time>2022-08-07T07:30:22.132Z</time>
      </trkpt>
      <trkpt lat="44.19866" lon="0.7113">
        <ele>126</ele>
        <time>2022-08-07T07:30:23.132Z</time>
      </trkpt>
      <trkpt lat="44.19865" lon="0.7113">
        <ele>126</ele>
        <time>2022-08-07T07:30:24.132Z</time>
      </trkpt>
      <trkpt lat="44.19864" lon="0.71131">
        <ele>127</ele>
        <time>2022-08-07T07:30:25.132Z</time>
      </trkpt>
      <trkpt lat="44.19863" lon="0.71131">
        <ele>127</ele>
        <time>2022-08-07T07:30:26.132Z</time>
      </trkpt>
      <trkpt lat="44.19862" lon="0.71131">
        <ele>127</ele>
        <time>2022-08-07T07:30:27.132Z</time>
      </trkpt>
      <trkpt lat="44.19861" lon="0.71132">
        <ele>127</ele>
        <time>2022-08-07T07:30:28.132Z</time>
      </trkpt>
      <trkpt lat="44.19861" lon="0.71132">
        <ele>127</ele>
        <time>2022-08-07T07:30:29.132Z</time>
      </trkpt>
      <trkpt lat="44.1986" lon="0.71132">
        <ele>127</ele>
        <time>2022-08-07T07:30:30.132Z</time>
      </trkpt>
      <trkpt lat="44.19858" lon="0.71132">
        <ele>127</ele>
        <time>2022-08-07T07:30:31.132Z</time>
      </trkpt>
      <trkpt lat="44.19857" lon="0.71133">
        <ele>128</ele>
        <time>2022-08-07T07:30:32.132Z</time>
      </trkpt>
      <trkpt lat="44.19856" lon="0.71133">
        <ele>127</ele>
        <time>2022-08-07T07:30:33.132Z</time>
      </trkpt>
      <trkpt lat="44.19855" lon="0.71134">
        <ele>127</ele>
        <time>2022-08-07T07:30:34.132Z</time>
      </trkpt>
      <trkpt lat="44.19855" lon="0.71134">
        <ele>128</ele>
        <time>2022-08-07T07:30:35.132Z</time>
      </trkpt>
      <trkpt lat="44.19853" lon="0.71134">
        <ele>127</ele>
        <time>2022-08-07T07:30:36.132Z</time>
      </trkpt>
      <trkpt lat="44.19852" lon="0.71134">
        <ele>127</ele>
        <time>2022-08-07T07:30:37.132Z</time>
      </trkpt>
      <trkpt lat="44.1985" lon="0.71135">
        <ele>127</ele>
        <time>2022-08-07T07:30:38.132Z</time>
      </trkpt>
      <trkpt lat="44.19849" lon="0.71135">
        <ele>127</ele>
        <time>2022-08-07T07:30:39.132Z</time>
      </trkpt>
      <trkpt lat="44.19848" lon="0.71136">
        <ele>127</ele>
        <time>2022-08-07T07:30:40.132Z</time>
      </trkpt>
      <trkpt lat="44.19847" lon="0.71136">
        <ele>127</ele>
        <time>2022-08-07T07:30:41.132Z</time>
      </trkpt>
      <trkpt lat="44.19845" lon="0.71136">
        <ele>127</ele>
        <time>2022-08-07T07:30:42.132Z</time>
      </trkpt>
      <trkpt lat="44.19844" lon="0.71137">
        <ele>127</ele>
        <time>2022-08-07T07:30:43.132Z</time>
      </trkpt>
      <trkpt lat="44.19843" lon="0.71137">
        <ele>127</ele>
        <time>2022-08-07T07:30:44.132Z</time>
      </trkpt>
      <trkpt lat="44.19842" lon="0.71138">
        <ele>126</ele>
        <time>2022-08-07T07:30:45.132Z</time>
      </trkpt>
      <trkpt lat="44.1984" lon="0.71138">
        <ele>126</ele>
        <time>2022-08-07T07:30:46.132Z</time>
      </trkpt>
      <trkpt lat="44.19839" lon="0.71138">
        <ele>126</ele>
        <time>2022-08-07T07:30:47.132Z</time>
      </trkpt>
      <trkpt lat="44.19838" lon="0.71138">
        <ele>126</ele>
        <time>2022-08-07T07:30:48.132Z</time>
      </trkpt>
      <trkpt lat="44.19837" lon="0.71138">
        <ele>126</ele>
        <time>2022-08-07T07:30:49.132Z</time>
      </trkpt>
      <trkpt lat="44.19836" lon="0.71139">
        <ele>126</ele>
        <time>2022-08-07T07:30:50.132Z</time>
      </trkpt>
      <trkpt lat="44.19835" lon="0.7114">
        <ele>126</ele>
        <time>2022-08-07T07:30:51.132Z</time>
      </trkpt>
      <trkpt lat="44.19833" lon="0.7114">
        <ele>126</ele>
        <time>2022-08-07T07:30:52.132Z</time>
      </trkpt>
      <trkpt lat="44.19832" lon="0.71141">
        <ele>127</ele>
        <time>2022-08-07T07:30:53.132Z</time>
      </trkpt>
      <trkpt lat="44.1983" lon="0.71142">
        <ele>128</ele>
        <time>2022-08-07T07:30:54.132Z</time>
      </trkpt>
      <trkpt lat="44.19829" lon="0.71142">
        <ele>127</ele>
        <time>2022-08-07T07:30:55.132Z</time>
      </trkpt>
      <trkpt lat="44.19828" lon="0.71143">
        <ele>128</ele>
        <time>2022-08-07T07:30:56.132Z</time>
      </trkpt>
      <trkpt lat="44.19827" lon="0.71143">
        <ele>128</ele>
        <time>2022-08-07T07:30:57.132Z</time>
      </trkpt>
      <trkpt lat="44.19826" lon="0.71143">
        <ele>128</ele>
        <time>2022-08-07T07:30:58.132Z</time>
      </trkpt>
      <trkpt lat="44.19824" lon="0.71143">
        <ele>127</ele>
        <time>2022-08-07T07:30:59.132Z</time>
      </trkpt>
      <trkpt lat="44.19823" lon="0.71143">
        <ele>126</ele>
        <time>2022-08-07T07:31:00.132Z</time>
      </trkpt>
      <trkpt lat="44.19821" lon="0.71143">
        <ele>127</ele>
        <time>2022-08-07T07:31:01.132Z</time>
      </trkpt>
      <trkpt lat="44.19819" lon="0.71143">
        <ele>127</ele>
        <time>2022-08-07T07:31:02.132Z</time>
      </trkpt>
      <trkpt lat="44.19817" lon="0.71142">
        <ele>127</ele>
        <time>2022-08-07T07:31:03.132Z</time>
      </trkpt>
      <trkpt lat="44.19816" lon="0.71142">
        <ele>127</ele>
        <time>2022-08-07T07:31:04.132Z</time>
      </trkpt>
      <trkpt lat="44.19814" lon="0.71142">
        <ele>127</ele>
        <time>2022-08-07T07:31:05.132Z</time>
      </trkpt>
      <trkpt lat="44.19813" lon="0.71142">
        <ele>127</ele>
        <time>2022-08-07T07:31:06.132Z</time>
      </trkpt>
      <trkpt lat="44.19811" lon="0.71141">
        <ele>127</ele>
        <time>2022-08-07T07:31:07.132Z</time>
      </trkpt>
      <trkpt lat="44.19809" lon="0.7114">
        <ele>127</ele>
        <time>2022-08-07T07:31:08.132Z</time>
      </trkpt>
      <trkpt lat="44.19808" lon="0.71139">
        <ele>126</ele>
        <time>2022-08-07T07:31:09.132Z</time>
      </trkpt>
      <trkpt lat="44.19807" lon="0.71138">
        <ele>126</ele>
        <time>2022-08-07T07:31:10.132Z</time>
      </trkpt>
      <trkpt lat="44.19806" lon="0.71137">
        <ele>125</ele>
        <time>2022-08-07T07:31:11.132Z</time>
      </trkpt>
      <trkpt lat="44.19804" lon="0.71136">
        <ele>125</ele>
        <time>2022-08-07T07:31:12.132Z</time>
      </trkpt>
      <trkpt lat="44.19803" lon="0.71135">
        <ele>125</ele>
        <time>2022-08-07T07:31:13.132Z</time>
      </trkpt>
      <trkpt lat="44.19802" lon="0.71134">
        <ele>125</ele>
        <time>2022-08-07T07:31:14.132Z</time>
      </trkpt>
      <trkpt lat="44.19801" lon="0.71133">
        <ele>125</ele>
        <time>2022-08-07T07:31:15.132Z</time>
      </trkpt>
      <trkpt lat="44.198" lon="0.71133">
        <ele>124</ele>
        <time>2022-08-07T07:31:16.132Z</time>
      </trkpt>
      <trkpt lat="44.19799" lon="0.71132">
        <ele>124</ele>
        <time>2022-08-07T07:31:17.132Z</time>
      </trkpt>
      <trkpt lat="44.19798" lon="0.71131">
        <ele>124</ele>
        <time>2022-08-07T07:31:18.132Z</time>
      </trkpt>
      <trkpt lat="44.19797" lon="0.7113">
        <ele>124</ele>
        <time>2022-08-07T07:31:19.132Z</time>
      </trkpt>
      <trkpt lat="44.19796" lon="0.71129">
        <ele>124</ele>
        <time>2022-08-07T07:31:20.132Z</time>
      </trkpt>
      <trkpt lat="44.19794" lon="0.71128">
        <ele>124</ele>
        <time>2022-08-07T07:31:21.132Z</time>
      </trkpt>
      <trkpt lat="44.19793" lon="0.71127">
        <ele>124</ele>
        <time>2022-08-07T07:31:22.132Z</time>
      </trkpt>
      <trkpt lat="44.19792" lon="0.71126">
        <ele>123</ele>
        <time>2022-08-07T07:31:23.132Z</time>
      </trkpt>
      <trkpt lat="44.1979" lon="0.71125">
        <ele>123</ele>
        <time>2022-08-07T07:31:24.132Z</time>
      </trkpt>
      <trkpt lat="44.19789" lon="0.71124">
        <ele>123</ele>
        <time>2022-08-07T07:31:25.132Z</time>
      </trkpt>
      <trkpt lat="44.19788" lon="0.71123">
        <ele>123</ele>
        <time>2022-08-07T07:31:26.132Z</time>
      </trkpt>
      <trkpt lat="44.19787" lon="0.71121">
        <ele>123</ele>
        <time>2022-08-07T07:31:27.132Z</time>
      </trkpt>
      <trkpt lat="44.19786" lon="0.7112">
        <ele>122</ele>
        <time>2022-08-07T07:31:28.132Z</time>
      </trkpt>
      <trkpt lat="44.19784" lon="0.71119">
        <ele>122</ele>
        <time>2022-08-07T07:31:29.132Z</time>
      </trkpt>
      <trkpt lat="44.19783" lon="0.71118">
        <ele>122</ele>
        <time>2022-08-07T07:31:30.132Z</time>
      </trkpt>
      <trkpt lat="44.19782" lon="0.71117">
        <ele>122</ele>
        <time>2022-08-07T07:31:31.132Z</time>
      </trkpt>
      <trkpt lat="44.19781" lon="0.71115">
        <ele>122</ele>
        <time>2022-08-07T07:31:32.132Z</time>
      </trkpt>
      <trkpt lat="44.19781" lon="0.71114">
        <ele>122</ele>
        <time>2022-08-07T07:31:33.132Z</time>
      </trkpt>
      <trkpt lat="44.19779" lon="0.71112">
        <ele>122</ele>
        <time>2022-08-07T07:31:34.132Z</time>
      </trkpt>
      <trkpt lat="44.19778" lon="0.7111">
        <ele>120</ele>
        <time>2022-08-07T07:31:35.132Z</time>
      </trkpt>
      <trkpt lat="44.19776" lon="0.71109">
        <ele>120</ele>
        <time>2022-08-07T07:31:36.132Z</time>
      </trkpt>
      <trkpt lat="44.19775" lon="0.71108">
        <ele>119</ele>
        <time>2022-08-07T07:31:37.132Z</time>
      </trkpt>
      <trkpt lat="44.19774" lon="0.71107">
        <ele>120</ele>
        <time>2022-08-07T07:31:38.132Z</time>
      </trkpt>
      <trkpt lat="44.19773" lon="0.71106">
        <ele>119</ele>
        <time>2022-08-07T07:31:39.132Z</time>
      </trkpt>
      <trkpt lat="44.19772" lon="0.71105">
        <ele>119</ele>
        <time>2022-08-07T07:31:40.132Z</time>
      </trkpt>
      <trkpt lat="44.19772" lon="0.71105">
        <ele>118</ele>
        <time>2022-08-07T07:31:41.132Z</time>
      </trkpt>
      <trkpt lat="44.19771" lon="0.71104">
        <ele>118</ele>
        <time>2022-08-07T07:31:42.132Z</time>
      </trkpt>
      <trkpt lat="44.19771" lon="0.71104">
        <ele>118</ele>
        <time>2022-08-07T07:31:43.132Z</time>
      </trkpt>
      <trkpt lat="44.19771" lon="0.71104">
        <ele>117</ele>
        <time>2022-08-07T07:31:44.132Z</time>
      </trkpt>
      <trkpt lat="44.19771" lon="0.71104">
        <ele>117</ele>
        <time>2022-08-07T07:31:45.132Z</time>
      </trkpt>
      <trkpt lat="44.19771" lon="0.71104">
        <ele>117</ele>
        <time>2022-08-07T07:31:46.132Z</time>
      </trkpt>
      <trkpt lat="44.19771" lon="0.71104">
        <ele>117</ele>
        <time>2022-08-07T07:31:47.132Z</time>
      </trkpt>
      <trkpt lat="44.19771" lon="0.71104">
        <ele>117</ele>
        <time>2022-08-07T07:31:48.132Z</time>
      </trkpt>
      <trkpt lat="44.19771" lon="0.71104">
        <ele>117</ele>
        <time>2022-08-07T07:31:49.132Z</time>
      </trkpt>
      <trkpt lat="44.19766" lon="0.71103">
        <ele>113</ele>
        <time>2022-08-07T07:31:57.143Z</time>
      </trkpt>
      <trkpt lat="44.19765" lon="0.71103">
        <ele>113</ele>
        <time>2022-08-07T07:31:58.143Z</time>
      </trkpt>
      <trkpt lat="44.19763" lon="0.71103">
        <ele>113</ele>
        <time>2022-08-07T07:31:59.143Z</time>
      </trkpt>
      <trkpt lat="44.19762" lon="0.71104">
        <ele>113</ele>
        <time>2022-08-07T07:32:00.143Z</time>
      </trkpt>
      <trkpt lat="44.19761" lon="0.71104">
        <ele>112</ele>
        <time>2022-08-07T07:32:01.143Z</time>
      </trkpt>
      <trkpt lat="44.19759" lon="0.71105">
        <ele>112</ele>
        <time>2022-08-07T07:32:02.143Z</time>
      </trkpt>
      <trkpt lat="44.19758" lon="0.71105">
        <ele>112</ele>
        <time>2022-08-07T07:32:03.143Z</time>
      </trkpt>
      <trkpt lat="44.19757" lon="0.71106">
        <ele>111</ele>
        <time>2022-08-07T07:32:04.143Z</time>
      </trkpt>
      <trkpt lat="44.19756" lon="0.71106">
        <ele>111</ele>
        <time>2022-08-07T07:32:05.143Z</time>
      </trkpt>
      <trkpt lat="44.19755" lon="0.71107">
        <ele>110</ele>
        <time>2022-08-07T07:32:06.143Z</time>
      </trkpt>
      <trkpt lat="44.19753" lon="0.71108">
        <ele>109</ele>
        <time>2022-08-07T07:32:07.143Z</time>
      </trkpt>
      <trkpt lat="44.19752" lon="0.71108">
        <ele>109</ele>
        <time>2022-08-07T07:32:08.143Z</time>
      </trkpt>
      <trkpt lat="44.19751" lon="0.71108">
        <ele>108</ele>
        <time>2022-08-07T07:32:09.143Z</time>
      </trkpt>
      <trkpt lat="44.1975" lon="0.71109">
        <ele>108</ele>
        <time>2022-08-07T07:32:10.143Z</time>
      </trkpt>
      <trkpt lat="44.19749" lon="0.7111">
        <ele>107</ele>
        <time>2022-08-07T07:32:11.143Z</time>
      </trkpt>
      <trkpt lat="44.19747" lon="0.71111">
        <ele>107</ele>
        <time>2022-08-07T07:32:12.143Z</time>
      </trkpt>
      <trkpt lat="44.19746" lon="0.71111">
        <ele>107</ele>
        <time>2022-08-07T07:32:13.143Z</time>
      </trkpt>
      <trkpt lat="44.19745" lon="0.71112">
        <ele>106</ele>
        <time>2022-08-07T07:32:14.143Z</time>
      </trkpt>
      <trkpt lat="44.19744" lon="0.71113">
        <ele>106</ele>
        <time>2022-08-07T07:32:15.143Z</time>
      </trkpt>
      <trkpt lat="44.19743" lon="0.71114">
        <ele>106</ele>
        <time>2022-08-07T07:32:16.143Z</time>
      </trkpt>
      <trkpt lat="44.19741" lon="0.71115">
        <ele>105</ele>
        <time>2022-08-07T07:32:17.143Z</time>
      </trkpt>
      <trkpt lat="44.1974" lon="0.71115">
        <ele>104</ele>
        <time>2022-08-07T07:32:18.143Z</time>
      </trkpt>
      <trkpt lat="44.19739" lon="0.71116">
        <ele>104</ele>
        <time>2022-08-07T07:32:19.143Z</time>
      </trkpt>
      <trkpt lat="44.19737" lon="0.71117">
        <ele>103</ele>
        <time>2022-08-07T07:32:20.143Z</time>
      </trkpt>
      <trkpt lat="44.19735" lon="0.71117">
        <ele>103</ele>
        <time>2022-08-07T07:32:21.143Z</time>
      </trkpt>
      <trkpt lat="44.19734" lon="0.71118">
        <ele>102</ele>
        <time>2022-08-07T07:32:22.143Z</time>
      </trkpt>
      <trkpt lat="44.19732" lon="0.71118">
        <ele>101</ele>
        <time>2022-08-07T07:32:23.143Z</time>
      </trkpt>
      <trkpt lat="44.19731" lon="0.71119">
        <ele>101</ele>
        <time>2022-08-07T07:32:24.143Z</time>
      </trkpt>
      <trkpt lat="44.1973" lon="0.7112">
        <ele>101</ele>
        <time>2022-08-07T07:32:25.143Z</time>
      </trkpt>
      <trkpt lat="44.19728" lon="0.71121">
        <ele>102</ele>
        <time>2022-08-07T07:32:26.143Z</time>
      </trkpt>
      <trkpt lat="44.19727" lon="0.71122">
        <ele>102</ele>
        <time>2022-08-07T07:32:27.143Z</time>
      </trkpt>
      <trkpt lat="44.19726" lon="0.71123">
        <ele>101</ele>
        <time>2022-08-07T07:32:28.143Z</time>
      </trkpt>
      <trkpt lat="44.19724" lon="0.71124">
        <ele>102</ele>
        <time>2022-08-07T07:32:29.143Z</time>
      </trkpt>
      <trkpt lat="44.19723" lon="0.71125">
        <ele>103</ele>
        <time>2022-08-07T07:32:30.143Z</time>
      </trkpt>
      <trkpt lat="44.19722" lon="0.71126">
        <ele>102</ele>
        <time>2022-08-07T07:32:31.143Z</time>
      </trkpt>
      <trkpt lat="44.19721" lon="0.71127">
        <ele>102</ele>
        <time>2022-08-07T07:32:32.143Z</time>
      </trkpt>
      <trkpt lat="44.1972" lon="0.71128">
        <ele>102</ele>
        <time>2022-08-07T07:32:33.143Z</time>
      </trkpt>
      <trkpt lat="44.19719" lon="0.71128">
        <ele>101</ele>
        <time>2022-08-07T07:32:34.143Z</time>
      </trkpt>
      <trkpt lat="44.19717" lon="0.71129">
        <ele>102</ele>
        <time>2022-08-07T07:32:35.143Z</time>
      </trkpt>
      <trkpt lat="44.19716" lon="0.7113">
        <ele>102</ele>
        <time>2022-08-07T07:32:36.143Z</time>
      </trkpt>
      <trkpt lat="44.19715" lon="0.71131">
        <ele>101</ele>
        <time>2022-08-07T07:32:37.143Z</time>
      </trkpt>
      <trkpt lat="44.19713" lon="0.71132">
        <ele>100</ele>
        <time>2022-08-07T07:32:38.143Z</time>
      </trkpt>
      <trkpt lat="44.19712" lon="0.71132">
        <ele>99</ele>
        <time>2022-08-07T07:32:39.143Z</time>
      </trkpt>
      <trkpt lat="44.19711" lon="0.71132">
        <ele>100</ele>
        <time>2022-08-07T07:32:40.143Z</time>
      </trkpt>
      <trkpt lat="44.1971" lon="0.71133">
        <ele>100</ele>
        <time>2022-08-07T07:32:41.143Z</time>
      </trkpt>
      <trkpt lat="44.19709" lon="0.71133">
        <ele>100</ele>
        <time>2022-08-07T07:32:42.143Z</time>
      </trkpt>
      <trkpt lat="44.19707" lon="0.71134">
        <ele>99</ele>
        <time>2022-08-07T07:32:43.143Z</time>
      </trkpt>
      <trkpt lat="44.19706" lon="0.71134">
        <ele>100</ele>
        <time>2022-08-07T07:32:44.143Z</time>
      </trkpt>
      <trkpt lat="44.19705" lon="0.71134">
        <ele>100</ele>
        <time>2022-08-07T07:32:45.143Z</time>
      </trkpt>
      <trkpt lat="44.19704" lon="0.71134">
        <ele>101</ele>
        <time>2022-08-07T07:32:46.143Z</time>
      </trkpt>
      <trkpt lat="44.19703" lon="0.71134">
        <ele>102</ele>
        <time>2022-08-07T07:32:47.143Z</time>
      </trkpt>
      <trkpt lat="44.19703" lon="0.71133">
        <ele>103</ele>
        <time>2022-08-07T07:32:48.143Z</time>
      </trkpt>
      <trkpt lat="44.19703" lon="0.71133">
        <ele>103</ele>
        <time>2022-08-07T07:32:49.143Z</time>
      </trkpt>
      <trkpt lat="44.19703" lon="0.71133">
        <ele>103</ele>
        <time>2022-08-07T07:32:50.143Z</time>
      </trkpt>
      <trkpt lat="44.19703" lon="0.71133">
        <ele>102</ele>
        <time>2022-08-07T07:32:51.143Z</time>
      </trkpt>
      <trkpt lat="44.19702" lon="0.71133">
        <ele>101</ele>
        <time>2022-08-07T07:32:52.143Z</time>
      </trkpt>
      <trkpt lat="44.19702" lon="0.71133">
        <ele>101</ele>
        <time>2022-08-07T07:32:53.143Z</time>
      </trkpt>
      <trkpt lat="44.19701" lon="0.71134">
        <ele>100</ele>
        <time>2022-08-07T07:32:54.143Z</time>
      </trkpt>
      <trkpt lat="44.19701" lon="0.71135">
        <ele>101</ele>
        <time>2022-08-07T07:32:55.143Z</time>
      </trkpt>
      <trkpt lat="44.197" lon="0.71137">
        <ele>101</ele>
        <time>2022-08-07T07:32:56.143Z</time>
      </trkpt>
      <trkpt lat="44.197" lon="0.71138">
        <ele>101</ele>
        <time>2022-08-07T07:32:57.143Z</time>
      </trkpt>
      <trkpt lat="44.197" lon="0.71139">
        <ele>101</ele>
        <time>2022-08-07T07:32:58.143Z</time>
      </trkpt>
      <trkpt lat="44.19699" lon="0.7114">
        <ele>101</ele>
        <time>2022-08-07T07:32:59.143Z</time>
      </trkpt>
      <trkpt lat="44.19698" lon="0.7114">
        <ele>101</ele>
        <time>2022-08-07T07:33:00.143Z</time>
      </trkpt>
      <trkpt lat="44.19697" lon="0.71141">
        <ele>100</ele>
        <time>2022-08-07T07:33:01.143Z</time>
      </trkpt>
      <trkpt lat="44.19695" lon="0.71141">
        <ele>100</ele>
        <time>2022-08-07T07:33:02.143Z</time>
      </trkpt>
      <trkpt lat="44.19694" lon="0.71142">
        <ele>100</ele>
        <time>2022-08-07T07:33:03.143Z</time>
      </trkpt>
      <trkpt lat="44.19693" lon="0.71143">
        <ele>100</ele>
        <time>2022-08-07T07:33:04.143Z</time>
      </trkpt>
      <trkpt lat="44.19691" lon="0.71144">
        <ele>99</ele>
        <time>2022-08-07T07:33:05.143Z</time>
      </trkpt>
      <trkpt lat="44.1969" lon="0.71145">
        <ele>99</ele>
        <time>2022-08-07T07:33:06.143Z</time>
      </trkpt>
      <trkpt lat="44.19688" lon="0.71147">
        <ele>98</ele>
        <time>2022-08-07T07:33:07.143Z</time>
      </trkpt>
      <trkpt lat="44.19687" lon="0.71148">
        <ele>98</ele>
        <time>2022-08-07T07:33:08.143Z</time>
      </trkpt>
      <trkpt lat="44.19685" lon="0.71149">
        <ele>98</ele>
        <time>2022-08-07T07:33:09.143Z</time>
      </trkpt>
      <trkpt lat="44.19684" lon="0.7115">
        <ele>97</ele>
        <time>2022-08-07T07:33:10.143Z</time>
      </trkpt>
      <trkpt lat="44.19683" lon="0.71151">
        <ele>97</ele>
        <time>2022-08-07T07:33:11.143Z</time>
      </trkpt>
      <trkpt lat="44.19681" lon="0.71152">
        <ele>97</ele>
        <time>2022-08-07T07:33:12.143Z</time>
      </trkpt>
      <trkpt lat="44.1968" lon="0.71153">
        <ele>96</ele>
        <time>2022-08-07T07:33:13.143Z</time>
      </trkpt>
      <trkpt lat="44.19678" lon="0.71155">
        <ele>96</ele>
        <time>2022-08-07T07:33:14.143Z</time>
      </trkpt>
      <trkpt lat="44.19677" lon="0.71156">
        <ele>96</ele>
        <time>2022-08-07T07:33:15.143Z</time>
      </trkpt>
      <trkpt lat="44.19676" lon="0.71157">
        <ele>95</ele>
        <time>2022-08-07T07:33:16.143Z</time>
      </trkpt>
      <trkpt lat="44.19675" lon="0.71158">
        <ele>96</ele>
        <time>2022-08-07T07:33:17.143Z</time>
      </trkpt>
      <trkpt lat="44.19674" lon="0.71159">
        <ele>96</ele>
        <time>2022-08-07T07:33:18.143Z</time>
      </trkpt>
      <trkpt lat="44.19673" lon="0.7116">
        <ele>95</ele>
        <time>2022-08-07T07:33:19.143Z</time>
      </trkpt>
      <trkpt lat="44.19672" lon="0.71161">
        <ele>94</ele>
        <time>2022-08-07T07:33:20.143Z</time>
      </trkpt>
      <trkpt lat="44.1967" lon="0.71163">
        <ele>95</ele>
        <time>2022-08-07T07:33:21.143Z</time>
      </trkpt>
      <trkpt lat="44.19669" lon="0.71164">
        <ele>94</ele>
        <time>2022-08-07T07:33:22.143Z</time>
      </trkpt>
      <trkpt lat="44.19668" lon="0.71165">
        <ele>93</ele>
        <time>2022-08-07T07:33:23.143Z</time>
      </trkpt>
      <trkpt lat="44.19667" lon="0.71166">
        <ele>93</ele>
        <time>2022-08-07T07:33:24.143Z</time>
      </trkpt>
      <trkpt lat="44.19666" lon="0.71168">
        <ele>93</ele>
        <time>2022-08-07T07:33:25.143Z</time>
      </trkpt>
      <trkpt lat="44.19665" lon="0.71169">
        <ele>92</ele>
        <time>2022-08-07T07:33:26.143Z</time>
      </trkpt>
      <trkpt lat="44.19664" lon="0.7117">
        <ele>92</ele>
        <time>2022-08-07T07:33:27.143Z</time>
      </trkpt>
      <trkpt lat="44.19663" lon="0.71171">
        <ele>92</ele>
        <time>2022-08-07T07:33:28.143Z</time>
      </trkpt>
      <trkpt lat="44.19662" lon="0.71172">
        <ele>92</ele>
        <time>2022-08-07T07:33:29.143Z</time>
      </trkpt>
      <trkpt lat="44.19661" lon="0.71173">
        <ele>91</ele>
        <time>2022-08-07T07:33:30.143Z</time>
      </trkpt>
      <trkpt lat="44.19661" lon="0.71174">
        <ele>91</ele>
        <time>2022-08-07T07:33:31.143Z</time>
      </trkpt>
      <trkpt lat="44.19661" lon="0.71175">
        <ele>91</ele>
        <time>2022-08-07T07:33:32.143Z</time>
      </trkpt>
      <trkpt lat="44.1966" lon="0.71176">
        <ele>90</ele>
        <time>2022-08-07T07:33:33.143Z</time>
      </trkpt>
      <trkpt lat="44.1966" lon="0.71177">
        <ele>90</ele>
        <time>2022-08-07T07:33:34.143Z</time>
      </trkpt>
      <trkpt lat="44.19659" lon="0.71178">
        <ele>90</ele>
        <time>2022-08-07T07:33:35.143Z</time>
      </trkpt>
      <trkpt lat="44.19659" lon="0.71178">
        <ele>90</ele>
        <time>2022-08-07T07:33:36.143Z</time>
      </trkpt>
      <trkpt lat="44.19659" lon="0.71179">
        <ele>91</ele>
        <time>2022-08-07T07:33:37.143Z</time>
      </trkpt>
      <trkpt lat="44.19659" lon="0.7118">
        <ele>91</ele>
        <time>2022-08-07T07:33:38.143Z</time>
      </trkpt>
      <trkpt lat="44.19659" lon="0.7118">
        <ele>91</ele>
        <time>2022-08-07T07:33:39.143Z</time>
      </trkpt>
      <trkpt lat="44.19658" lon="0.7118">
        <ele>92</ele>
        <time>2022-08-07T07:33:40.143Z</time>
      </trkpt>
      <trkpt lat="44.19658" lon="0.71181">
        <ele>92</ele>
        <time>2022-08-07T07:33:41.143Z</time>
      </trkpt>
      <trkpt lat="44.19658" lon="0.71181">
        <ele>93</ele>
        <time>2022-08-07T07:33:42.143Z</time>
      </trkpt>
      <trkpt lat="44.19658" lon="0.71181">
        <ele>93</ele>
        <time>2022-08-07T07:33:43.143Z</time>
      </trkpt>
      <trkpt lat="44.19654" lon="0.71187">
        <ele>95</ele>
        <time>2022-08-07T07:34:02.154Z</time>
      </trkpt>
      <trkpt lat="44.19654" lon="0.71188">
        <ele>95</ele>
        <time>2022-08-07T07:34:03.154Z</time>
      </trkpt>
      <trkpt lat="44.19653" lon="0.71189">
        <ele>95</ele>
        <time>2022-08-07T07:34:04.154Z</time>
      </trkpt>
      <trkpt lat="44.19652" lon="0.7119">
        <ele>94</ele>
        <time>2022-08-07T07:34:05.154Z</time>
      </trkpt>
      <trkpt lat="44.19651" lon="0.71191">
        <ele>94</ele>
        <time>2022-08-07T07:34:06.154Z</time>
      </trkpt>
      <trkpt lat="44.19651" lon="0.71192">
        <ele>94</ele>
        <time>2022-08-07T07:34:07.154Z</time>
      </trkpt>
      <trkpt lat="44.1965" lon="0.71193">
        <ele>94</ele>
        <time>2022-08-07T07:34:08.154Z</time>
      </trkpt>
      <trkpt lat="44.19649" lon="0.71194">
        <ele>94</ele>
        <time>2022-08-07T07:34:09.154Z</time>
      </trkpt>
      <trkpt lat="44.19648" lon="0.71195">
        <ele>94</ele>
        <time>2022-08-07T07:34:10.154Z</time>
      </trkpt>
      <trkpt lat="44.19647" lon="0.71196">
        <ele>94</ele>
        <time>2022-08-07T07:34:11.154Z</time>
      </trkpt>
      <trkpt lat="44.19646" lon="0.71197">
        <ele>93</ele>
        <time>2022-08-07T07:34:12.154Z</time>
      </trkpt>
      <trkpt lat="44.19645" lon="0.71198">
        <ele>93</ele>
        <time>2022-08-07T07:34:13.154Z</time>
      </trkpt>
      <trkpt lat="44.19643" lon="0.712">
        <ele>93</ele>
        <time>2022-08-07T07:34:14.154Z</time>
      </trkpt>
      <trkpt lat="44.19643" lon="0.71201">
        <ele>95</ele>
        <time>2022-08-07T07:34:15.154Z</time>
      </trkpt>
      <trkpt lat="44.19642" lon="0.71203">
        <ele>94</ele>
        <time>2022-08-07T07:34:16.154Z</time>
      </trkpt>
      <trkpt lat="44.1964" lon="0.71205">
        <ele>95</ele>
        <time>2022-08-07T07:34:17.154Z</time>
      </trkpt>
      <trkpt lat="44.19639" lon="0.71206">
        <ele>95</ele>
        <time>2022-08-07T07:34:18.154Z</time>
      </trkpt>
      <trkpt lat="44.19638" lon="0.71207">
        <ele>96</ele>
        <time>2022-08-07T07:34:19.154Z</time>
      </trkpt>
      <trkpt lat="44.19637" lon="0.71208">
        <ele>95</ele>
        <time>2022-08-07T07:34:20.154Z</time>
      </trkpt>
      <trkpt lat="44.19636" lon="0.71208">
        <ele>94</ele>
        <time>2022-08-07T07:34:21.154Z</time>
      </trkpt>
      <trkpt lat="44.19635" lon="0.71209">
        <ele>94</ele>
        <time>2022-08-07T07:34:22.154Z</time>
      </trkpt>
      <trkpt lat="44.19634" lon="0.71211">
        <ele>94</ele>
        <time>2022-08-07T07:34:23.154Z</time>
      </trkpt>
      <trkpt lat="44.19633" lon="0.71212">
        <ele>93</ele>
        <time>2022-08-07T07:34:24.154Z</time>
      </trkpt>
      <trkpt lat="44.19632" lon="0.71213">
        <ele>93</ele>
        <time>2022-08-07T07:34:25.154Z</time>
      </trkpt>
      <trkpt lat="44.19631" lon="0.71215">
        <ele>93</ele>
        <time>2022-08-07T07:34:26.154Z</time>
      </trkpt>
      <trkpt lat="44.1963" lon="0.71216">
        <ele>94</ele>
        <time>2022-08-07T07:34:27.154Z</time>
      </trkpt>
      <trkpt lat="44.19629" lon="0.71217">
        <ele>94</ele>
        <time>2022-08-07T07:34:28.154Z</time>
      </trkpt>
      <trkpt lat="44.19628" lon="0.71218">
        <ele>93</ele>
        <time>2022-08-07T07:34:29.154Z</time>
      </trkpt>
      <trkpt lat="44.19627" lon="0.71219">
        <ele>93</ele>
        <time>2022-08-07T07:34:30.154Z</time>
      </trkpt>
      <trkpt lat="44.19627" lon="0.71221">
        <ele>94</ele>
        <time>2022-08-07T07:34:31.154Z</time>
      </trkpt>
      <trkpt lat="44.19626" lon="0.71223">
        <ele>94</ele>
        <time>2022-08-07T07:34:32.154Z</time>
      </trkpt>
      <trkpt lat="44.19625" lon="0.71224">
        <ele>95</ele>
        <time>2022-08-07T07:34:33.154Z</time>
      </trkpt>
      <trkpt lat="44.19623" lon="0.71225">
        <ele>95</ele>
        <time>2022-08-07T07:34:34.154Z</time>
      </trkpt>
      <trkpt lat="44.19622" lon="0.71226">
        <ele>95</ele>
        <time>2022-08-07T07:34:35.154Z</time>
      </trkpt>
      <trkpt lat="44.19621" lon="0.71228">
        <ele>94</ele>
        <time>2022-08-07T07:34:36.154Z</time>
      </trkpt>
      <trkpt lat="44.19619" lon="0.71229">
        <ele>94</ele>
        <time>2022-08-07T07:34:37.154Z</time>
      </trkpt>
      <trkpt lat="44.19618" lon="0.7123">
        <ele>93</ele>
        <time>2022-08-07T07:34:38.154Z</time>
      </trkpt>
      <trkpt lat="44.19617" lon="0.71231">
        <ele>93</ele>
        <time>2022-08-07T07:34:39.154Z</time>
      </trkpt>
      <trkpt lat="44.19616" lon="0.71232">
        <ele>93</ele>
        <time>2022-08-07T07:34:40.154Z</time>
      </trkpt>
      <trkpt lat="44.19615" lon="0.71233">
        <ele>92</ele>
        <time>2022-08-07T07:34:41.154Z</time>
      </trkpt>
      <trkpt lat="44.19613" lon="0.71234">
        <ele>91</ele>
        <time>2022-08-07T07:34:42.154Z</time>
      </trkpt>
      <trkpt lat="44.19612" lon="0.71235">
        <ele>90</ele>
        <time>2022-08-07T07:34:43.154Z</time>
      </trkpt>
      <trkpt lat="44.19611" lon="0.71236">
        <ele>90</ele>
        <time>2022-08-07T07:34:44.154Z</time>
      </trkpt>
      <trkpt lat="44.1961" lon="0.71237">
        <ele>90</ele>
        <time>2022-08-07T07:34:45.154Z</time>
      </trkpt>
      <trkpt lat="44.19609" lon="0.71239">
        <ele>90</ele>
        <time>2022-08-07T07:34:46.154Z</time>
      </trkpt>
      <trkpt lat="44.19608" lon="0.71241">
        <ele>91</ele>
        <time>2022-08-07T07:34:47.154Z</time>
      </trkpt>
      <trkpt lat="44.19607" lon="0.71243">
        <ele>90</ele>
        <time>2022-08-07T07:34:48.154Z</time>
      </trkpt>
      <trkpt lat="44.19606" lon="0.71245">
        <ele>90</ele>
        <time>2022-08-07T07:34:49.154Z</time>
      </trkpt>
      <trkpt lat="44.19605" lon="0.71246">
        <ele>90</ele>
        <time>2022-08-07T07:34:50.154Z</time>
      </trkpt>
      <trkpt lat="44.19604" lon="0.71248">
        <ele>90</ele>
        <time>2022-08-07T07:34:51.154Z</time>
      </trkpt>
      <trkpt lat="44.19604" lon="0.71249">
        <ele>91</ele>
        <time>2022-08-07T07:34:52.154Z</time>
      </trkpt>
      <trkpt lat="44.19603" lon="0.71251">
        <ele>90</ele>
        <time>2022-08-07T07:34:53.154Z</time>
      </trkpt>
      <trkpt lat="44.19602" lon="0.71252">
        <ele>90</ele>
        <time>2022-08-07T07:34:54.154Z</time>
      </trkpt>
      <trkpt lat="44.19602" lon="0.71253">
        <ele>89</ele>
        <time>2022-08-07T07:34:55.154Z</time>
      </trkpt>
      <trkpt lat="44.19601" lon="0.71255">
        <ele>89</ele>
        <time>2022-08-07T07:34:56.154Z</time>
      </trkpt>
      <trkpt lat="44.19599" lon="0.71256">
        <ele>90</ele>
        <time>2022-08-07T07:34:57.154Z</time>
      </trkpt>
      <trkpt lat="44.19598" lon="0.71258">
        <ele>91</ele>
        <time>2022-08-07T07:34:58.154Z</time>
      </trkpt>
      <trkpt lat="44.19597" lon="0.71259">
        <ele>90</ele>
        <time>2022-08-07T07:34:59.154Z</time>
      </trkpt>
      <trkpt lat="44.19596" lon="0.71261">
        <ele>91</ele>
        <time>2022-08-07T07:35:00.154Z</time>
      </trkpt>
      <trkpt lat="44.19595" lon="0.71262">
        <ele>92</ele>
        <time>2022-08-07T07:35:01.154Z</time>
      </trkpt>
      <trkpt lat="44.19594" lon="0.71264">
        <ele>92</ele>
        <time>2022-08-07T07:35:02.154Z</time>
      </trkpt>
      <trkpt lat="44.19593" lon="0.71265">
        <ele>92</ele>
        <time>2022-08-07T07:35:03.154Z</time>
      </trkpt>
      <trkpt lat="44.19592" lon="0.71267">
        <ele>93</ele>
        <time>2022-08-07T07:35:04.154Z</time>
      </trkpt>
      <trkpt lat="44.19591" lon="0.71268">
        <ele>93</ele>
        <time>2022-08-07T07:35:05.154Z</time>
      </trkpt>
      <trkpt lat="44.1959" lon="0.7127">
        <ele>93</ele>
        <time>2022-08-07T07:35:06.154Z</time>
      </trkpt>
      <trkpt lat="44.19589" lon="0.71271">
        <ele>93</ele>
        <time>2022-08-07T07:35:07.154Z</time>
      </trkpt>
      <trkpt lat="44.19588" lon="0.71273">
        <ele>94</ele>
        <time>2022-08-07T07:35:08.154Z</time>
      </trkpt>
      <trkpt lat="44.19587" lon="0.71274">
        <ele>94</ele>
        <time>2022-08-07T07:35:09.154Z</time>
      </trkpt>
      <trkpt lat="44.19585" lon="0.71276">
        <ele>94</ele>
        <time>2022-08-07T07:35:10.154Z</time>
      </trkpt>
      <trkpt lat="44.19584" lon="0.71277">
        <ele>94</ele>
        <time>2022-08-07T07:35:11.154Z</time>
      </trkpt>
      <trkpt lat="44.19583" lon="0.71278">
        <ele>94</ele>
        <time>2022-08-07T07:35:12.154Z</time>
      </trkpt>
      <trkpt lat="44.19581" lon="0.71279">
        <ele>94</ele>
        <time>2022-08-07T07:35:13.154Z</time>
      </trkpt>
      <trkpt lat="44.1958" lon="0.7128">
        <ele>93</ele>
        <time>2022-08-07T07:35:14.154Z</time>
      </trkpt>
      <trkpt lat="44.19579" lon="0.71281">
        <ele>94</ele>
        <time>2022-08-07T07:35:15.154Z</time>
      </trkpt>
      <trkpt lat="44.19578" lon="0.71283">
        <ele>94</ele>
        <time>2022-08-07T07:35:16.154Z</time>
      </trkpt>
      <trkpt lat="44.19577" lon="0.71284">
        <ele>94</ele>
        <time>2022-08-07T07:35:17.154Z</time>
      </trkpt>
      <trkpt lat="44.19575" lon="0.71285">
        <ele>94</ele>
        <time>2022-08-07T07:35:18.154Z</time>
      </trkpt>
      <trkpt lat="44.19574" lon="0.71286">
        <ele>94</ele>
        <time>2022-08-07T07:35:19.154Z</time>
      </trkpt>
      <trkpt lat="44.19573" lon="0.71288">
        <ele>95</ele>
        <time>2022-08-07T07:35:20.154Z</time>
      </trkpt>
      <trkpt lat="44.19572" lon="0.71289">
        <ele>96</ele>
        <time>2022-08-07T07:35:21.154Z</time>
      </trkpt>
      <trkpt lat="44.19572" lon="0.71291">
        <ele>96</ele>
        <time>2022-08-07T07:35:22.154Z</time>
      </trkpt>
      <trkpt lat="44.19571" lon="0.71292">
        <ele>97</ele>
        <time>2022-08-07T07:35:23.154Z</time>
      </trkpt>
      <trkpt lat="44.1957" lon="0.71294">
        <ele>98</ele>
        <time>2022-08-07T07:35:24.154Z</time>
      </trkpt>
      <trkpt lat="44.19569" lon="0.71295">
        <ele>98</ele>
        <time>2022-08-07T07:35:25.154Z</time>
      </trkpt>
      <trkpt lat="44.19568" lon="0.71297">
        <ele>98</ele>
        <time>2022-08-07T07:35:26.154Z</time>
      </trkpt>
      <trkpt lat="44.19567" lon="0.71298">
        <ele>99</ele>
        <time>2022-08-07T07:35:27.154Z</time>
      </trkpt>
      <trkpt lat="44.19566" lon="0.71299">
        <ele>99</ele>
        <time>2022-08-07T07:35:28.154Z</time>
      </trkpt>
      <trkpt lat="44.19564" lon="0.713">
        <ele>99</ele>
        <time>2022-08-07T07:35:29.154Z</time>
      </trkpt>
      <trkpt lat="44.19563" lon="0.71301">
        <ele>100</ele>
        <time>2022-08-07T07:35:30.154Z</time>
      </trkpt>
      <trkpt lat="44.19562" lon="0.71302">
        <ele>100</ele>
        <time>2022-08-07T07:35:31.154Z</time>
      </trkpt>
      <trkpt lat="44.19561" lon="0.71303">
        <ele>100</ele>
        <time>2022-08-07T07:35:32.154Z</time>
      </trkpt>
      <trkpt lat="44.1956" lon="0.71304">
        <ele>99</ele>
        <time>2022-08-07T07:35:33.154Z</time>
      </trkpt>
      <trkpt lat="44.19559" lon="0.71306">
        <ele>99</ele>
        <time>2022-08-07T07:35:34.154Z</time>
      </trkpt>
      <trkpt lat="44.19558" lon="0.71308">
        <ele>99</ele>
        <time>2022-08-07T07:35:35.154Z</time>
      </trkpt>
      <trkpt lat="44.19558" lon="0.7131">
        <ele>99</ele>
        <time>2022-08-07T07:35:36.154Z</time>
      </trkpt>
      <trkpt lat="44.19557" lon="0.71311">
        <ele>98</ele>
        <time>2022-08-07T07:35:37.154Z</time>
      </trkpt>
      <trkpt lat="44.19556" lon="0.71313">
        <ele>99</ele>
        <time>2022-08-07T07:35:38.154Z</time>
      </trkpt>
      <trkpt lat="44.19555" lon="0.71315">
        <ele>99</ele>
        <time>2022-08-07T07:35:39.154Z</time>
      </trkpt>
      <trkpt lat="44.19554" lon="0.71316">
        <ele>99</ele>
        <time>2022-08-07T07:35:40.154Z</time>
      </trkpt>
      <trkpt lat="44.19553" lon="0.71317">
        <ele>98</ele>
        <time>2022-08-07T07:35:41.154Z</time>
      </trkpt>
      <trkpt lat="44.19552" lon="0.71318">
        <ele>98</ele>
        <time>2022-08-07T07:35:42.154Z</time>
      </trkpt>
      <trkpt lat="44.19551" lon="0.71319">
        <ele>99</ele>
        <time>2022-08-07T07:35:43.154Z</time>
      </trkpt>
      <trkpt lat="44.1955" lon="0.71321">
        <ele>99</ele>
        <time>2022-08-07T07:35:44.154Z</time>
      </trkpt>
      <trkpt lat="44.19549" lon="0.71323">
        <ele>99</ele>
        <time>2022-08-07T07:35:45.154Z</time>
      </trkpt>
      <trkpt lat="44.19548" lon="0.71324">
        <ele>100</ele>
        <time>2022-08-07T07:35:46.154Z</time>
      </trkpt>
      <trkpt lat="44.19547" lon="0.71326">
        <ele>100</ele>
        <time>2022-08-07T07:35:47.154Z</time>
      </trkpt>
      <trkpt lat="44.19546" lon="0.71327">
        <ele>101</ele>
        <time>2022-08-07T07:35:48.154Z</time>
      </trkpt>
      <trkpt lat="44.19546" lon="0.71328">
        <ele>102</ele>
        <time>2022-08-07T07:35:49.154Z</time>
      </trkpt>
      <trkpt lat="44.19545" lon="0.71328">
        <ele>101</ele>
        <time>2022-08-07T07:35:50.154Z</time>
      </trkpt>
      <trkpt lat="44.19543" lon="0.71329">
        <ele>100</ele>
        <time>2022-08-07T07:35:51.154Z</time>
      </trkpt>
      <trkpt lat="44.19542" lon="0.71329">
        <ele>100</ele>
        <time>2022-08-07T07:35:52.154Z</time>
      </trkpt>
      <trkpt lat="44.19541" lon="0.7133">
        <ele>100</ele>
        <time>2022-08-07T07:35:53.154Z</time>
      </trkpt>
      <trkpt lat="44.1954" lon="0.7133">
        <ele>100</ele>
        <time>2022-08-07T07:35:54.154Z</time>
      </trkpt>
      <trkpt lat="44.19539" lon="0.71332">
        <ele>100</ele>
        <time>2022-08-07T07:35:55.154Z</time>
      </trkpt>
      <trkpt lat="44.19538" lon="0.71333">
        <ele>100</ele>
        <time>2022-08-07T07:35:56.154Z</time>
      </trkpt>
      <trkpt lat="44.19537" lon="0.71334">
        <ele>98</ele>
        <time>2022-08-07T07:35:57.154Z</time>
      </trkpt>
      <trkpt lat="44.19535" lon="0.71335">
        <ele>97</ele>
        <time>2022-08-07T07:35:58.154Z</time>
      </trkpt>
      <trkpt lat="44.19533" lon="0.71335">
        <ele>96</ele>
        <time>2022-08-07T07:35:59.154Z</time>
      </trkpt>
      <trkpt lat="44.19531" lon="0.71337">
        <ele>96</ele>
        <time>2022-08-07T07:36:00.154Z</time>
      </trkpt>
      <trkpt lat="44.1953" lon="0.71338">
        <ele>97</ele>
        <time>2022-08-07T07:36:01.154Z</time>
      </trkpt>
      <trkpt lat="44.19529" lon="0.71339">
        <ele>97</ele>
        <time>2022-08-07T07:36:02.154Z</time>
      </trkpt>
      <trkpt lat="44.19528" lon="0.71341">
        <ele>97</ele>
        <time>2022-08-07T07:36:03.154Z</time>
      </trkpt>
      <trkpt lat="44.19527" lon="0.71342">
        <ele>98</ele>
        <time>2022-08-07T07:36:04.154Z</time>
      </trkpt>
      <trkpt lat="44.19526" lon="0.71342">
        <ele>98</ele>
        <time>2022-08-07T07:36:05.154Z</time>
      </trkpt>
      <trkpt lat="44.19525" lon="0.71343">
        <ele>98</ele>
        <time>2022-08-07T07:36:06.154Z</time>
      </trkpt>
      <trkpt lat="44.19524" lon="0.71343">
        <ele>98</ele>
        <time>2022-08-07T07:36:07.154Z</time>
      </trkpt>
      <trkpt lat="44.19523" lon="0.71344">
        <ele>98</ele>
        <time>2022-08-07T07:36:08.154Z</time>
      </trkpt>
      <trkpt lat="44.19522" lon="0.71345">
        <ele>98</ele>
        <time>2022-08-07T07:36:09.154Z</time>
      </trkpt>
      <trkpt lat="44.19522" lon="0.71346">
        <ele>98</ele>
        <time>2022-08-07T07:36:10.154Z</time>
      </trkpt>
      <trkpt lat="44.19521" lon="0.71347">
        <ele>98</ele>
        <time>2022-08-07T07:36:11.154Z</time>
      </trkpt>
      <trkpt lat="44.19519" lon="0.71348">
        <ele>98</ele>
        <time>2022-08-07T07:36:12.154Z</time>
      </trkpt>
      <trkpt lat="44.19519" lon="0.71349">
        <ele>98</ele>
        <time>2022-08-07T07:36:13.154Z</time>
      </trkpt>
      <trkpt lat="44.19518" lon="0.7135">
        <ele>98</ele>
        <time>2022-08-07T07:36:14.154Z</time>
      </trkpt>
      <trkpt lat="44.19517" lon="0.71351">
        <ele>99</ele>
        <time>2022-08-07T07:36:15.154Z</time>
      </trkpt>
      <trkpt lat="44.19516" lon="0.71352">
        <ele>98</ele>
        <time>2022-08-07T07:36:16.154Z</time>
      </trkpt>
      <trkpt lat="44.19514" lon="0.71353">
        <ele>97</ele>
        <time>2022-08-07T07:36:17.154Z</time>
      </trkpt>
      <trkpt lat="44.19513" lon="0.71355">
        <ele>95</ele>
        <time>2022-08-07T07:36:18.154Z</time>
      </trkpt>
      <trkpt lat="44.19511" lon="0.71356">
        <ele>95</ele>
        <time>2022-08-07T07:36:19.154Z</time>
      </trkpt>
      <trkpt lat="44.1951" lon="0.71357">
        <ele>94</ele>
        <time>2022-08-07T07:36:20.154Z</time>
      </trkpt>
      <trkpt lat="44.19509" lon="0.71358">
        <ele>95</ele>
        <time>2022-08-07T07:36:21.154Z</time>
      </trkpt>
      <trkpt lat="44.19508" lon="0.71358">
        <ele>94</ele>
        <time>2022-08-07T07:36:22.154Z</time>
      </trkpt>
      <trkpt lat="44.19507" lon="0.71359">
        <ele>93</ele>
        <time>2022-08-07T07:36:23.154Z</time>
      </trkpt>
      <trkpt lat="44.19506" lon="0.7136">
        <ele>93</ele>
        <time>2022-08-07T07:36:24.154Z</time>
      </trkpt>
      <trkpt lat="44.19505" lon="0.7136">
        <ele>91</ele>
        <time>2022-08-07T07:36:25.154Z</time>
      </trkpt>
      <trkpt lat="44.19504" lon="0.71361">
        <ele>91</ele>
        <time>2022-08-07T07:36:26.154Z</time>
      </trkpt>
      <trkpt lat="44.19502" lon="0.71363">
        <ele>91</ele>
        <time>2022-08-07T07:36:27.154Z</time>
      </trkpt>
      <trkpt lat="44.19501" lon="0.71364">
        <ele>91</ele>
        <time>2022-08-07T07:36:28.154Z</time>
      </trkpt>
      <trkpt lat="44.195" lon="0.71365">
        <ele>91</ele>
        <time>2022-08-07T07:36:29.154Z</time>
      </trkpt>
      <trkpt lat="44.19499" lon="0.71365">
        <ele>91</ele>
        <time>2022-08-07T07:36:30.154Z</time>
      </trkpt>
      <trkpt lat="44.19498" lon="0.71366">
        <ele>91</ele>
        <time>2022-08-07T07:36:31.154Z</time>
      </trkpt>
      <trkpt lat="44.19497" lon="0.71367">
        <ele>91</ele>
        <time>2022-08-07T07:36:32.154Z</time>
      </trkpt>
      <trkpt lat="44.19496" lon="0.71367">
        <ele>92</ele>
        <time>2022-08-07T07:36:33.154Z</time>
      </trkpt>
      <trkpt lat="44.19496" lon="0.71368">
        <ele>92</ele>
        <time>2022-08-07T07:36:34.154Z</time>
      </trkpt>
      <trkpt lat="44.19495" lon="0.71369">
        <ele>91</ele>
        <time>2022-08-07T07:36:35.154Z</time>
      </trkpt>
      <trkpt lat="44.19493" lon="0.7137">
        <ele>92</ele>
        <time>2022-08-07T07:36:36.154Z</time>
      </trkpt>
      <trkpt lat="44.19492" lon="0.7137">
        <ele>92</ele>
        <time>2022-08-07T07:36:37.154Z</time>
      </trkpt>
      <trkpt lat="44.19492" lon="0.71371">
        <ele>93</ele>
        <time>2022-08-07T07:36:38.154Z</time>
      </trkpt>
      <trkpt lat="44.19491" lon="0.71372">
        <ele>93</ele>
        <time>2022-08-07T07:36:39.154Z</time>
      </trkpt>
      <trkpt lat="44.19491" lon="0.71373">
        <ele>92</ele>
        <time>2022-08-07T07:36:40.154Z</time>
      </trkpt>
      <trkpt lat="44.1949" lon="0.71374">
        <ele>91</ele>
        <time>2022-08-07T07:36:41.154Z</time>
      </trkpt>
      <trkpt lat="44.19488" lon="0.71375">
        <ele>91</ele>
        <time>2022-08-07T07:36:42.154Z</time>
      </trkpt>
      <trkpt lat="44.19487" lon="0.71375">
        <ele>91</ele>
        <time>2022-08-07T07:36:43.154Z</time>
      </trkpt>
      <trkpt lat="44.19486" lon="0.71377">
        <ele>92</ele>
        <time>2022-08-07T07:36:44.154Z</time>
      </trkpt>
      <trkpt lat="44.19486" lon="0.71379">
        <ele>93</ele>
        <time>2022-08-07T07:36:45.154Z</time>
      </trkpt>
      <trkpt lat="44.19485" lon="0.7138">
        <ele>93</ele>
        <time>2022-08-07T07:36:46.154Z</time>
      </trkpt>
      <trkpt lat="44.19484" lon="0.71382">
        <ele>93</ele>
        <time>2022-08-07T07:36:47.154Z</time>
      </trkpt>
      <trkpt lat="44.19483" lon="0.71384">
        <ele>93</ele>
        <time>2022-08-07T07:36:48.154Z</time>
      </trkpt>
      <trkpt lat="44.19482" lon="0.71385">
        <ele>94</ele>
        <time>2022-08-07T07:36:49.154Z</time>
      </trkpt>
      <trkpt lat="44.19481" lon="0.71386">
        <ele>92</ele>
        <time>2022-08-07T07:36:50.154Z</time>
      </trkpt>
      <trkpt lat="44.19479" lon="0.71387">
        <ele>93</ele>
        <time>2022-08-07T07:36:51.154Z</time>
      </trkpt>
      <trkpt lat="44.19478" lon="0.71388">
        <ele>93</ele>
        <time>2022-08-07T07:36:52.154Z</time>
      </trkpt>
      <trkpt lat="44.19477" lon="0.71389">
        <ele>92</ele>
        <time>2022-08-07T07:36:53.154Z</time>
      </trkpt>
      <trkpt lat="44.19476" lon="0.7139">
        <ele>93</ele>
        <time>2022-08-07T07:36:54.154Z</time>
      </trkpt>
      <trkpt lat="44.19475" lon="0.71391">
        <ele>93</ele>
        <time>2022-08-07T07:36:55.154Z</time>
      </trkpt>
      <trkpt lat="44.19474" lon="0.71392">
        <ele>94</ele>
        <time>2022-08-07T07:36:56.154Z</time>
      </trkpt>
      <trkpt lat="44.19474" lon="0.71393">
        <ele>95</ele>
        <time>2022-08-07T07:36:57.154Z</time>
      </trkpt>
      <trkpt lat="44.19473" lon="0.71394">
        <ele>95</ele>
        <time>2022-08-07T07:36:58.154Z</time>
      </trkpt>
      <trkpt lat="44.19472" lon="0.71395">
        <ele>96</ele>
        <time>2022-08-07T07:36:59.154Z</time>
      </trkpt>
      <trkpt lat="44.19471" lon="0.71395">
        <ele>97</ele>
        <time>2022-08-07T07:37:00.154Z</time>
      </trkpt>
      <trkpt lat="44.1947" lon="0.71396">
        <ele>97</ele>
        <time>2022-08-07T07:37:01.154Z</time>
      </trkpt>
      <trkpt lat="44.1947" lon="0.71398">
        <ele>97</ele>
        <time>2022-08-07T07:37:02.154Z</time>
      </trkpt>
      <trkpt lat="44.19469" lon="0.71399">
        <ele>99</ele>
        <time>2022-08-07T07:37:03.154Z</time>
      </trkpt>
      <trkpt lat="44.19468" lon="0.71401">
        <ele>100</ele>
        <time>2022-08-07T07:37:04.154Z</time>
      </trkpt>
      <trkpt lat="44.19466" lon="0.71402">
        <ele>100</ele>
        <time>2022-08-07T07:37:05.154Z</time>
      </trkpt>
      <trkpt lat="44.19466" lon="0.71403">
        <ele>101</ele>
        <time>2022-08-07T07:37:06.154Z</time>
      </trkpt>
      <trkpt lat="44.19465" lon="0.71404">
        <ele>101</ele>
        <time>2022-08-07T07:37:07.154Z</time>
      </trkpt>
      <trkpt lat="44.19464" lon="0.71406">
        <ele>101</ele>
        <time>2022-08-07T07:37:08.154Z</time>
      </trkpt>
      <trkpt lat="44.19464" lon="0.71407">
        <ele>101</ele>
        <time>2022-08-07T07:37:09.154Z</time>
      </trkpt>
      <trkpt lat="44.19463" lon="0.71408">
        <ele>102</ele>
        <time>2022-08-07T07:37:10.154Z</time>
      </trkpt>
      <trkpt lat="44.19462" lon="0.71409">
        <ele>101</ele>
        <time>2022-08-07T07:37:11.154Z</time>
      </trkpt>
      <trkpt lat="44.19461" lon="0.7141">
        <ele>101</ele>
        <time>2022-08-07T07:37:12.154Z</time>
      </trkpt>
      <trkpt lat="44.19461" lon="0.71411">
        <ele>101</ele>
        <time>2022-08-07T07:37:13.154Z</time>
      </trkpt>
      <trkpt lat="44.1946" lon="0.71412">
        <ele>101</ele>
        <time>2022-08-07T07:37:14.154Z</time>
      </trkpt>
      <trkpt lat="44.19459" lon="0.71413">
        <ele>102</ele>
        <time>2022-08-07T07:37:15.154Z</time>
      </trkpt>
      <trkpt lat="44.19459" lon="0.71415">
        <ele>102</ele>
        <time>2022-08-07T07:37:16.154Z</time>
      </trkpt>
      <trkpt lat="44.19458" lon="0.71416">
        <ele>102</ele>
        <time>2022-08-07T07:37:17.154Z</time>
      </trkpt>
      <trkpt lat="44.19457" lon="0.71417">
        <ele>103</ele>
        <time>2022-08-07T07:37:18.154Z</time>
      </trkpt>
      <trkpt lat="44.19456" lon="0.71417">
        <ele>102</ele>
        <time>2022-08-07T07:37:19.154Z</time>
      </trkpt>
      <trkpt lat="44.19455" lon="0.71418">
        <ele>103</ele>
        <time>2022-08-07T07:37:20.154Z</time>
      </trkpt>
      <trkpt lat="44.19454" lon="0.71419">
        <ele>103</ele>
        <time>2022-08-07T07:37:21.154Z</time>
      </trkpt>
      <trkpt lat="44.19453" lon="0.7142">
        <ele>103</ele>
        <time>2022-08-07T07:37:22.154Z</time>
      </trkpt>
      <trkpt lat="44.19452" lon="0.71421">
        <ele>103</ele>
        <time>2022-08-07T07:37:23.154Z</time>
      </trkpt>
      <trkpt lat="44.19452" lon="0.71423">
        <ele>102</ele>
        <time>2022-08-07T07:37:24.154Z</time>
      </trkpt>
      <trkpt lat="44.19451" lon="0.71424">
        <ele>102</ele>
        <time>2022-08-07T07:37:25.154Z</time>
      </trkpt>
      <trkpt lat="44.1945" lon="0.71425">
        <ele>101</ele>
        <time>2022-08-07T07:37:26.154Z</time>
      </trkpt>
      <trkpt lat="44.1945" lon="0.71425">
        <ele>101</ele>
        <time>2022-08-07T07:37:27.154Z</time>
      </trkpt>
      <trkpt lat="44.19449" lon="0.71426">
        <ele>99</ele>
        <time>2022-08-07T07:37:28.154Z</time>
      </trkpt>
      <trkpt lat="44.19447" lon="0.71426">
        <ele>98</ele>
        <time>2022-08-07T07:37:29.154Z</time>
      </trkpt>
      <trkpt lat="44.19446" lon="0.71427">
        <ele>98</ele>
        <time>2022-08-07T07:37:30.154Z</time>
      </trkpt>
      <trkpt lat="44.19445" lon="0.71428">
        <ele>98</ele>
        <time>2022-08-07T07:37:31.154Z</time>
      </trkpt>
      <trkpt lat="44.19444" lon="0.71429">
        <ele>96</ele>
        <time>2022-08-07T07:37:32.154Z</time>
      </trkpt>
      <trkpt lat="44.19443" lon="0.7143">
        <ele>97</ele>
        <time>2022-08-07T07:37:33.154Z</time>
      </trkpt>
      <trkpt lat="44.19442" lon="0.71431">
        <ele>97</ele>
        <time>2022-08-07T07:37:34.154Z</time>
      </trkpt>
      <trkpt lat="44.19441" lon="0.71432">
        <ele>97</ele>
        <time>2022-08-07T07:37:35.154Z</time>
      </trkpt>
      <trkpt lat="44.19441" lon="0.71433">
        <ele>98</ele>
        <time>2022-08-07T07:37:36.154Z</time>
      </trkpt>
      <trkpt lat="44.1944" lon="0.71434">
        <ele>98</ele>
        <time>2022-08-07T07:37:37.154Z</time>
      </trkpt>
      <trkpt lat="44.1944" lon="0.71435">
        <ele>98</ele>
        <time>2022-08-07T07:37:38.154Z</time>
      </trkpt>
      <trkpt lat="44.19439" lon="0.71436">
        <ele>100</ele>
        <time>2022-08-07T07:37:39.154Z</time>
      </trkpt>
      <trkpt lat="44.19438" lon="0.71438">
        <ele>101</ele>
        <time>2022-08-07T07:37:40.154Z</time>
      </trkpt>
      <trkpt lat="44.19437" lon="0.71439">
        <ele>101</ele>
        <time>2022-08-07T07:37:41.154Z</time>
      </trkpt>
      <trkpt lat="44.19437" lon="0.7144">
        <ele>101</ele>
        <time>2022-08-07T07:37:42.154Z</time>
      </trkpt>
      <trkpt lat="44.19436" lon="0.71441">
        <ele>102</ele>
        <time>2022-08-07T07:37:43.154Z</time>
      </trkpt>
      <trkpt lat="44.19436" lon="0.71442">
        <ele>102</ele>
        <time>2022-08-07T07:37:44.154Z</time>
      </trkpt>
      <trkpt lat="44.19435" lon="0.71443">
        <ele>101</ele>
        <time>2022-08-07T07:37:45.154Z</time>
      </trkpt>
      <trkpt lat="44.19434" lon="0.71445">
        <ele>102</ele>
        <time>2022-08-07T07:37:46.154Z</time>
      </trkpt>
      <trkpt lat="44.19433" lon="0.71446">
        <ele>102</ele>
        <time>2022-08-07T07:37:47.154Z</time>
      </trkpt>
      <trkpt lat="44.19432" lon="0.71447">
        <ele>102</ele>
        <time>2022-08-07T07:37:48.154Z</time>
      </trkpt>
      <trkpt lat="44.19431" lon="0.71448">
        <ele>101</ele>
        <time>2022-08-07T07:37:49.154Z</time>
      </trkpt>
      <trkpt lat="44.1943" lon="0.71449">
        <ele>100</ele>
        <time>2022-08-07T07:37:50.154Z</time>
      </trkpt>
      <trkpt lat="44.19429" lon="0.7145">
        <ele>100</ele>
        <time>2022-08-07T07:37:51.154Z</time>
      </trkpt>
      <trkpt lat="44.19428" lon="0.71451">
        <ele>100</ele>
        <time>2022-08-07T07:37:52.154Z</time>
      </trkpt>
      <trkpt lat="44.19426" lon="0.71452">
        <ele>99</ele>
        <time>2022-08-07T07:37:53.154Z</time>
      </trkpt>
      <trkpt lat="44.19425" lon="0.71453">
        <ele>98</ele>
        <time>2022-08-07T07:37:54.154Z</time>
      </trkpt>
      <trkpt lat="44.19423" lon="0.71455">
        <ele>99</ele>
        <time>2022-08-07T07:37:55.154Z</time>
      </trkpt>
      <trkpt lat="44.19422" lon="0.71456">
        <ele>99</ele>
        <time>2022-08-07T07:37:56.154Z</time>
      </trkpt>
      <trkpt lat="44.19421" lon="0.71457">
        <ele>98</ele>
        <time>2022-08-07T07:37:57.154Z</time>
      </trkpt>
      <trkpt lat="44.19421" lon="0.71458">
        <ele>99</ele>
        <time>2022-08-07T07:37:58.154Z</time>
      </trkpt>
      <trkpt lat="44.1942" lon="0.7146">
        <ele>98</ele>
        <time>2022-08-07T07:37:59.154Z</time>
      </trkpt>
      <trkpt lat="44.19419" lon="0.71461">
        <ele>98</ele>
        <time>2022-08-07T07:38:00.154Z</time>
      </trkpt>
      <trkpt lat="44.19418" lon="0.71462">
        <ele>97</ele>
        <time>2022-08-07T07:38:01.154Z</time>
      </trkpt>
      <trkpt lat="44.19417" lon="0.71463">
        <ele>97</ele>
        <time>2022-08-07T07:38:02.154Z</time>
      </trkpt>
      <trkpt lat="44.19416" lon="0.71464">
        <ele>96</ele>
        <time>2022-08-07T07:38:03.154Z</time>
      </trkpt>
      <trkpt lat="44.19415" lon="0.71465">
        <ele>97</ele>
        <time>2022-08-07T07:38:04.154Z</time>
      </trkpt>
      <trkpt lat="44.19414" lon="0.71466">
        <ele>95</ele>
        <time>2022-08-07T07:38:05.154Z</time>
      </trkpt>
      <trkpt lat="44.19412" lon="0.71467">
        <ele>93</ele>
        <time>2022-08-07T07:38:06.154Z</time>
      </trkpt>
      <trkpt lat="44.1941" lon="0.71468">
        <ele>92</ele>
        <time>2022-08-07T07:38:07.154Z</time>
      </trkpt>
      <trkpt lat="44.19408" lon="0.71469">
        <ele>92</ele>
        <time>2022-08-07T07:38:08.154Z</time>
      </trkpt>
      <trkpt lat="44.19407" lon="0.71469">
        <ele>91</ele>
        <time>2022-08-07T07:38:09.154Z</time>
      </trkpt>
      <trkpt lat="44.19406" lon="0.7147">
        <ele>91</ele>
        <time>2022-08-07T07:38:10.154Z</time>
      </trkpt>
      <trkpt lat="44.19405" lon="0.71471">
        <ele>91</ele>
        <time>2022-08-07T07:38:11.154Z</time>
      </trkpt>
      <trkpt lat="44.19404" lon="0.71472">
        <ele>90</ele>
        <time>2022-08-07T07:38:12.154Z</time>
      </trkpt>
      <trkpt lat="44.19403" lon="0.71473">
        <ele>90</ele>
        <time>2022-08-07T07:38:13.154Z</time>
      </trkpt>
      <trkpt lat="44.19402" lon="0.71474">
        <ele>89</ele>
        <time>2022-08-07T07:38:14.154Z</time>
      </trkpt>
      <trkpt lat="44.194" lon="0.71475">
        <ele>90</ele>
        <time>2022-08-07T07:38:15.154Z</time>
      </trkpt>
      <trkpt lat="44.194" lon="0.71476">
        <ele>91</ele>
        <time>2022-08-07T07:38:16.154Z</time>
      </trkpt>
      <trkpt lat="44.19399" lon="0.71478">
        <ele>90</ele>
        <time>2022-08-07T07:38:17.154Z</time>
      </trkpt>
      <trkpt lat="44.19398" lon="0.71479">
        <ele>91</ele>
        <time>2022-08-07T07:38:18.154Z</time>
      </trkpt>
      <trkpt lat="44.19397" lon="0.7148">
        <ele>90</ele>
        <time>2022-08-07T07:38:19.154Z</time>
      </trkpt>
      <trkpt lat="44.19396" lon="0.7148">
        <ele>90</ele>
        <time>2022-08-07T07:38:20.154Z</time>
      </trkpt>
      <trkpt lat="44.19395" lon="0.71481">
        <ele>90</ele>
        <time>2022-08-07T07:38:21.154Z</time>
      </trkpt>
      <trkpt lat="44.19394" lon="0.71482">
        <ele>90</ele>
        <time>2022-08-07T07:38:22.154Z</time>
      </trkpt>
      <trkpt lat="44.19393" lon="0.71483">
        <ele>90</ele>
        <time>2022-08-07T07:38:23.154Z</time>
      </trkpt>
      <trkpt lat="44.19392" lon="0.71484">
        <ele>89</ele>
        <time>2022-08-07T07:38:24.154Z</time>
      </trkpt>
      <trkpt lat="44.19392" lon="0.71485">
        <ele>89</ele>
        <time>2022-08-07T07:38:25.154Z</time>
      </trkpt>
      <trkpt lat="44.19391" lon="0.71486">
        <ele>89</ele>
        <time>2022-08-07T07:38:26.154Z</time>
      </trkpt>
      <trkpt lat="44.1939" lon="0.71487">
        <ele>89</ele>
        <time>2022-08-07T07:38:27.154Z</time>
      </trkpt>
      <trkpt lat="44.19389" lon="0.71489">
        <ele>89</ele>
        <time>2022-08-07T07:38:28.154Z</time>
      </trkpt>
      <trkpt lat="44.19389" lon="0.7149">
        <ele>89</ele>
        <time>2022-08-07T07:38:29.154Z</time>
      </trkpt>
      <trkpt lat="44.19388" lon="0.71491">
        <ele>88</ele>
        <time>2022-08-07T07:38:30.154Z</time>
      </trkpt>
      <trkpt lat="44.19387" lon="0.71493">
        <ele>88</ele>
        <time>2022-08-07T07:38:31.154Z</time>
      </trkpt>
      <trkpt lat="44.19386" lon="0.71494">
        <ele>88</ele>
        <time>2022-08-07T07:38:32.154Z</time>
      </trkpt>
      <trkpt lat="44.19385" lon="0.71495">
        <ele>88</ele>
        <time>2022-08-07T07:38:33.154Z</time>
      </trkpt>
      <trkpt lat="44.19384" lon="0.71496">
        <ele>87</ele>
        <time>2022-08-07T07:38:34.154Z</time>
      </trkpt>
      <trkpt lat="44.19383" lon="0.71497">
        <ele>87</ele>
        <time>2022-08-07T07:38:35.154Z</time>
      </trkpt>
      <trkpt lat="44.19382" lon="0.71498">
        <ele>87</ele>
        <time>2022-08-07T07:38:36.154Z</time>
      </trkpt>
      <trkpt lat="44.19381" lon="0.715">
        <ele>87</ele>
        <time>2022-08-07T07:38:37.154Z</time>
      </trkpt>
      <trkpt lat="44.1938" lon="0.71501">
        <ele>87</ele>
        <time>2022-08-07T07:38:38.154Z</time>
      </trkpt>
      <trkpt lat="44.19379" lon="0.71502">
        <ele>86</ele>
        <time>2022-08-07T07:38:39.154Z</time>
      </trkpt>
      <trkpt lat="44.19378" lon="0.71503">
        <ele>86</ele>
        <time>2022-08-07T07:38:40.154Z</time>
      </trkpt>
      <trkpt lat="44.19377" lon="0.71504">
        <ele>86</ele>
        <time>2022-08-07T07:38:41.154Z</time>
      </trkpt>
      <trkpt lat="44.19376" lon="0.71505">
        <ele>85</ele>
        <time>2022-08-07T07:38:42.154Z</time>
      </trkpt>
      <trkpt lat="44.19375" lon="0.71506">
        <ele>85</ele>
        <time>2022-08-07T07:38:43.154Z</time>
      </trkpt>
      <trkpt lat="44.19375" lon="0.71507">
        <ele>85</ele>
        <time>2022-08-07T07:38:44.154Z</time>
      </trkpt>
      <trkpt lat="44.19374" lon="0.71508">
        <ele>85</ele>
        <time>2022-08-07T07:38:45.154Z</time>
      </trkpt>
      <trkpt lat="44.19373" lon="0.7151">
        <ele>86</ele>
        <time>2022-08-07T07:38:46.154Z</time>
      </trkpt>
      <trkpt lat="44.19372" lon="0.71511">
        <ele>87</ele>
        <time>2022-08-07T07:38:47.154Z</time>
      </trkpt>
      <trkpt lat="44.19372" lon="0.71513">
        <ele>87</ele>
        <time>2022-08-07T07:38:48.154Z</time>
      </trkpt>
      <trkpt lat="44.19371" lon="0.71514">
        <ele>88</ele>
        <time>2022-08-07T07:38:49.154Z</time>
      </trkpt>
      <trkpt lat="44.19371" lon="0.71516">
        <ele>88</ele>
        <time>2022-08-07T07:38:50.154Z</time>
      </trkpt>
      <trkpt lat="44.1937" lon="0.71517">
        <ele>88</ele>
        <time>2022-08-07T07:38:51.154Z</time>
      </trkpt>
      <trkpt lat="44.1937" lon="0.71518">
        <ele>88</ele>
        <time>2022-08-07T07:38:52.154Z</time>
      </trkpt>
      <trkpt lat="44.19369" lon="0.7152">
        <ele>88</ele>
        <time>2022-08-07T07:38:53.154Z</time>
      </trkpt>
      <trkpt lat="44.19368" lon="0.71521">
        <ele>88</ele>
        <time>2022-08-07T07:38:54.154Z</time>
      </trkpt>
      <trkpt lat="44.19368" lon="0.71522">
        <ele>88</ele>
        <time>2022-08-07T07:38:55.154Z</time>
      </trkpt>
      <trkpt lat="44.19367" lon="0.71523">
        <ele>88</ele>
        <time>2022-08-07T07:38:56.154Z</time>
      </trkpt>
      <trkpt lat="44.19366" lon="0.71524">
        <ele>87</ele>
        <time>2022-08-07T07:38:57.154Z</time>
      </trkpt>
      <trkpt lat="44.19365" lon="0.71525">
        <ele>86</ele>
        <time>2022-08-07T07:38:58.154Z</time>
      </trkpt>
      <trkpt lat="44.19364" lon="0.71526">
        <ele>85</ele>
        <time>2022-08-07T07:38:59.154Z</time>
      </trkpt>
      <trkpt lat="44.19363" lon="0.71526">
        <ele>84</ele>
        <time>2022-08-07T07:39:00.154Z</time>
      </trkpt>
      <trkpt lat="44.19362" lon="0.71527">
        <ele>84</ele>
        <time>2022-08-07T07:39:01.154Z</time>
      </trkpt>
      <trkpt lat="44.19361" lon="0.71528">
        <ele>83</ele>
        <time>2022-08-07T07:39:02.154Z</time>
      </trkpt>
      <trkpt lat="44.1936" lon="0.7153">
        <ele>83</ele>
        <time>2022-08-07T07:39:03.154Z</time>
      </trkpt>
      <trkpt lat="44.19359" lon="0.71531">
        <ele>83</ele>
        <time>2022-08-07T07:39:04.154Z</time>
      </trkpt>
      <trkpt lat="44.19359" lon="0.71532">
        <ele>83</ele>
        <time>2022-08-07T07:39:05.154Z</time>
      </trkpt>
      <trkpt lat="44.19358" lon="0.71533">
        <ele>83</ele>
        <time>2022-08-07T07:39:06.154Z</time>
      </trkpt>
      <trkpt lat="44.19357" lon="0.71535">
        <ele>83</ele>
        <time>2022-08-07T07:39:07.154Z</time>
      </trkpt>
      <trkpt lat="44.19357" lon="0.71536">
        <ele>84</ele>
        <time>2022-08-07T07:39:08.154Z</time>
      </trkpt>
      <trkpt lat="44.19356" lon="0.71538">
        <ele>84</ele>
        <time>2022-08-07T07:39:09.154Z</time>
      </trkpt>
      <trkpt lat="44.19355" lon="0.71539">
        <ele>83</ele>
        <time>2022-08-07T07:39:10.154Z</time>
      </trkpt>
      <trkpt lat="44.19355" lon="0.71541">
        <ele>82</ele>
        <time>2022-08-07T07:39:11.154Z</time>
      </trkpt>
      <trkpt lat="44.19354" lon="0.71542">
        <ele>82</ele>
        <time>2022-08-07T07:39:12.154Z</time>
      </trkpt>
      <trkpt lat="44.19353" lon="0.71543">
        <ele>82</ele>
        <time>2022-08-07T07:39:13.154Z</time>
      </trkpt>
      <trkpt lat="44.19352" lon="0.71545">
        <ele>82</ele>
        <time>2022-08-07T07:39:14.154Z</time>
      </trkpt>
      <trkpt lat="44.19352" lon="0.71546">
        <ele>83</ele>
        <time>2022-08-07T07:39:15.154Z</time>
      </trkpt>
      <trkpt lat="44.19351" lon="0.71548">
        <ele>83</ele>
        <time>2022-08-07T07:39:16.154Z</time>
      </trkpt>
      <trkpt lat="44.1935" lon="0.71549">
        <ele>83</ele>
        <time>2022-08-07T07:39:17.154Z</time>
      </trkpt>
      <trkpt lat="44.1935" lon="0.71551">
        <ele>83</ele>
        <time>2022-08-07T07:39:18.154Z</time>
      </trkpt>
      <trkpt lat="44.19349" lon="0.71553">
        <ele>83</ele>
        <time>2022-08-07T07:39:19.154Z</time>
      </trkpt>
      <trkpt lat="44.19348" lon="0.71555">
        <ele>83</ele>
        <time>2022-08-07T07:39:20.154Z</time>
      </trkpt>
      <trkpt lat="44.19348" lon="0.71556">
        <ele>83</ele>
        <time>2022-08-07T07:39:21.154Z</time>
      </trkpt>
      <trkpt lat="44.19347" lon="0.71558">
        <ele>83</ele>
        <time>2022-08-07T07:39:22.154Z</time>
      </trkpt>
      <trkpt lat="44.19346" lon="0.71559">
        <ele>83</ele>
        <time>2022-08-07T07:39:23.154Z</time>
      </trkpt>
      <trkpt lat="44.19346" lon="0.71561">
        <ele>83</ele>
        <time>2022-08-07T07:39:24.154Z</time>
      </trkpt>
      <trkpt lat="44.19345" lon="0.71562">
        <ele>83</ele>
        <time>2022-08-07T07:39:25.154Z</time>
      </trkpt>
      <trkpt lat="44.19344" lon="0.71563">
        <ele>83</ele>
        <time>2022-08-07T07:39:26.154Z</time>
      </trkpt>
      <trkpt lat="44.19344" lon="0.71565">
        <ele>82</ele>
        <time>2022-08-07T07:39:27.154Z</time>
      </trkpt>
      <trkpt lat="44.19343" lon="0.71566">
        <ele>82</ele>
        <time>2022-08-07T07:39:28.154Z</time>
      </trkpt>
      <trkpt lat="44.19343" lon="0.71568">
        <ele>82</ele>
        <time>2022-08-07T07:39:29.154Z</time>
      </trkpt>
      <trkpt lat="44.19342" lon="0.71569">
        <ele>82</ele>
        <time>2022-08-07T07:39:30.154Z</time>
      </trkpt>
      <trkpt lat="44.19342" lon="0.71571">
        <ele>83</ele>
        <time>2022-08-07T07:39:31.154Z</time>
      </trkpt>
      <trkpt lat="44.19341" lon="0.71572">
        <ele>83</ele>
        <time>2022-08-07T07:39:32.154Z</time>
      </trkpt>
      <trkpt lat="44.1934" lon="0.71574">
        <ele>83</ele>
        <time>2022-08-07T07:39:33.154Z</time>
      </trkpt>
      <trkpt lat="44.19339" lon="0.71576">
        <ele>83</ele>
        <time>2022-08-07T07:39:34.154Z</time>
      </trkpt>
      <trkpt lat="44.19339" lon="0.71577">
        <ele>83</ele>
        <time>2022-08-07T07:39:35.154Z</time>
      </trkpt>
      <trkpt lat="44.19338" lon="0.71578">
        <ele>83</ele>
        <time>2022-08-07T07:39:36.154Z</time>
      </trkpt>
      <trkpt lat="44.19337" lon="0.7158">
        <ele>84</ele>
        <time>2022-08-07T07:39:37.154Z</time>
      </trkpt>
      <trkpt lat="44.19337" lon="0.71582">
        <ele>84</ele>
        <time>2022-08-07T07:39:38.154Z</time>
      </trkpt>
      <trkpt lat="44.19336" lon="0.71584">
        <ele>84</ele>
        <time>2022-08-07T07:39:39.154Z</time>
      </trkpt>
      <trkpt lat="44.19335" lon="0.71585">
        <ele>84</ele>
        <time>2022-08-07T07:39:40.154Z</time>
      </trkpt>
      <trkpt lat="44.19334" lon="0.71587">
        <ele>84</ele>
        <time>2022-08-07T07:39:41.154Z</time>
      </trkpt>
      <trkpt lat="44.19334" lon="0.71588">
        <ele>84</ele>
        <time>2022-08-07T07:39:42.154Z</time>
      </trkpt>
      <trkpt lat="44.19333" lon="0.71589">
        <ele>84</ele>
        <time>2022-08-07T07:39:43.154Z</time>
      </trkpt>
      <trkpt lat="44.19333" lon="0.71591">
        <ele>84</ele>
        <time>2022-08-07T07:39:44.154Z</time>
      </trkpt>
      <trkpt lat="44.19332" lon="0.71593">
        <ele>84</ele>
        <time>2022-08-07T07:39:45.154Z</time>
      </trkpt>
      <trkpt lat="44.19332" lon="0.71594">
        <ele>84</ele>
        <time>2022-08-07T07:39:46.154Z</time>
      </trkpt>
      <trkpt lat="44.19331" lon="0.71595">
        <ele>85</ele>
        <time>2022-08-07T07:39:47.154Z</time>
      </trkpt>
      <trkpt lat="44.1933" lon="0.71597">
        <ele>85</ele>
        <time>2022-08-07T07:39:48.154Z</time>
      </trkpt>
      <trkpt lat="44.1933" lon="0.71598">
        <ele>84</ele>
        <time>2022-08-07T07:39:49.154Z</time>
      </trkpt>
      <trkpt lat="44.19329" lon="0.716">
        <ele>85</ele>
        <time>2022-08-07T07:39:50.154Z</time>
      </trkpt>
      <trkpt lat="44.19328" lon="0.71601">
        <ele>84</ele>
        <time>2022-08-07T07:39:51.154Z</time>
      </trkpt>
      <trkpt lat="44.19328" lon="0.71603">
        <ele>84</ele>
        <time>2022-08-07T07:39:52.154Z</time>
      </trkpt>
      <trkpt lat="44.19327" lon="0.71604">
        <ele>84</ele>
        <time>2022-08-07T07:39:53.154Z</time>
      </trkpt>
      <trkpt lat="44.19326" lon="0.71606">
        <ele>83</ele>
        <time>2022-08-07T07:39:54.154Z</time>
      </trkpt>
      <trkpt lat="44.19325" lon="0.71607">
        <ele>83</ele>
        <time>2022-08-07T07:39:55.154Z</time>
      </trkpt>
      <trkpt lat="44.19325" lon="0.71608">
        <ele>83</ele>
        <time>2022-08-07T07:39:56.154Z</time>
      </trkpt>
      <trkpt lat="44.19324" lon="0.7161">
        <ele>83</ele>
        <time>2022-08-07T07:39:57.154Z</time>
      </trkpt>
      <trkpt lat="44.19323" lon="0.71611">
        <ele>83</ele>
        <time>2022-08-07T07:39:58.154Z</time>
      </trkpt>
      <trkpt lat="44.19322" lon="0.71612">
        <ele>82</ele>
        <time>2022-08-07T07:39:59.154Z</time>
      </trkpt>
      <trkpt lat="44.19322" lon="0.71614">
        <ele>82</ele>
        <time>2022-08-07T07:40:00.154Z</time>
      </trkpt>
      <trkpt lat="44.19321" lon="0.71615">
        <ele>82</ele>
        <time>2022-08-07T07:40:01.154Z</time>
      </trkpt>
      <trkpt lat="44.1932" lon="0.71617">
        <ele>82</ele>
        <time>2022-08-07T07:40:02.154Z</time>
      </trkpt>
      <trkpt lat="44.19319" lon="0.71618">
        <ele>81</ele>
        <time>2022-08-07T07:40:03.154Z</time>
      </trkpt>
      <trkpt lat="44.19319" lon="0.71619">
        <ele>81</ele>
        <time>2022-08-07T07:40:04.154Z</time>
      </trkpt>
      <trkpt lat="44.19318" lon="0.71621">
        <ele>81</ele>
        <time>2022-08-07T07:40:05.154Z</time>
      </trkpt>
      <trkpt lat="44.19317" lon="0.71622">
        <ele>81</ele>
        <time>2022-08-07T07:40:06.154Z</time>
      </trkpt>
      <trkpt lat="44.19317" lon="0.71623">
        <ele>81</ele>
        <time>2022-08-07T07:40:07.154Z</time>
      </trkpt>
      <trkpt lat="44.19316" lon="0.71624">
        <ele>81</ele>
        <time>2022-08-07T07:40:08.154Z</time>
      </trkpt>
      <trkpt lat="44.19315" lon="0.71626">
        <ele>80</ele>
        <time>2022-08-07T07:40:09.154Z</time>
      </trkpt>
      <trkpt lat="44.19315" lon="0.71627">
        <ele>80</ele>
        <time>2022-08-07T07:40:10.154Z</time>
      </trkpt>
      <trkpt lat="44.19314" lon="0.71628">
        <ele>80</ele>
        <time>2022-08-07T07:40:11.154Z</time>
      </trkpt>
      <trkpt lat="44.19314" lon="0.71629">
        <ele>80</ele>
        <time>2022-08-07T07:40:12.154Z</time>
      </trkpt>
      <trkpt lat="44.19313" lon="0.7163">
        <ele>80</ele>
        <time>2022-08-07T07:40:13.154Z</time>
      </trkpt>
      <trkpt lat="44.19313" lon="0.71632">
        <ele>79</ele>
        <time>2022-08-07T07:40:14.154Z</time>
      </trkpt>
      <trkpt lat="44.19312" lon="0.71633">
        <ele>80</ele>
        <time>2022-08-07T07:40:15.154Z</time>
      </trkpt>
      <trkpt lat="44.19311" lon="0.71634">
        <ele>80</ele>
        <time>2022-08-07T07:40:16.154Z</time>
      </trkpt>
      <trkpt lat="44.19311" lon="0.71635">
        <ele>79</ele>
        <time>2022-08-07T07:40:17.154Z</time>
      </trkpt>
      <trkpt lat="44.1931" lon="0.71637">
        <ele>79</ele>
        <time>2022-08-07T07:40:18.154Z</time>
      </trkpt>
      <trkpt lat="44.19309" lon="0.71638">
        <ele>79</ele>
        <time>2022-08-07T07:40:19.154Z</time>
      </trkpt>
      <trkpt lat="44.19309" lon="0.7164">
        <ele>80</ele>
        <time>2022-08-07T07:40:20.154Z</time>
      </trkpt>
      <trkpt lat="44.19308" lon="0.71642">
        <ele>80</ele>
        <time>2022-08-07T07:40:21.154Z</time>
      </trkpt>
      <trkpt lat="44.19307" lon="0.71643">
        <ele>80</ele>
        <time>2022-08-07T07:40:22.154Z</time>
      </trkpt>
      <trkpt lat="44.19307" lon="0.71644">
        <ele>80</ele>
        <time>2022-08-07T07:40:23.154Z</time>
      </trkpt>
      <trkpt lat="44.19306" lon="0.71646">
        <ele>79</ele>
        <time>2022-08-07T07:40:24.154Z</time>
      </trkpt>
      <trkpt lat="44.19305" lon="0.71647">
        <ele>79</ele>
        <time>2022-08-07T07:40:25.154Z</time>
      </trkpt>
      <trkpt lat="44.19305" lon="0.71648">
        <ele>79</ele>
        <time>2022-08-07T07:40:26.154Z</time>
      </trkpt>
      <trkpt lat="44.19304" lon="0.7165">
        <ele>79</ele>
        <time>2022-08-07T07:40:27.154Z</time>
      </trkpt>
      <trkpt lat="44.19304" lon="0.71651">
        <ele>79</ele>
        <time>2022-08-07T07:40:28.154Z</time>
      </trkpt>
      <trkpt lat="44.19303" lon="0.71653">
        <ele>79</ele>
        <time>2022-08-07T07:40:29.154Z</time>
      </trkpt>
      <trkpt lat="44.19303" lon="0.71654">
        <ele>80</ele>
        <time>2022-08-07T07:40:30.154Z</time>
      </trkpt>
      <trkpt lat="44.19302" lon="0.71655">
        <ele>80</ele>
        <time>2022-08-07T07:40:31.154Z</time>
      </trkpt>
      <trkpt lat="44.19302" lon="0.71657">
        <ele>80</ele>
        <time>2022-08-07T07:40:32.154Z</time>
      </trkpt>
      <trkpt lat="44.19301" lon="0.71658">
        <ele>80</ele>
        <time>2022-08-07T07:40:33.154Z</time>
      </trkpt>
      <trkpt lat="44.193" lon="0.71659">
        <ele>80</ele>
        <time>2022-08-07T07:40:34.154Z</time>
      </trkpt>
      <trkpt lat="44.193" lon="0.71661">
        <ele>80</ele>
        <time>2022-08-07T07:40:35.154Z</time>
      </trkpt>
      <trkpt lat="44.19299" lon="0.71662">
        <ele>79</ele>
        <time>2022-08-07T07:40:36.154Z</time>
      </trkpt>
      <trkpt lat="44.19298" lon="0.71664">
        <ele>80</ele>
        <time>2022-08-07T07:40:37.154Z</time>
      </trkpt>
      <trkpt lat="44.19298" lon="0.71665">
        <ele>80</ele>
        <time>2022-08-07T07:40:38.154Z</time>
      </trkpt>
      <trkpt lat="44.19297" lon="0.71666">
        <ele>80</ele>
        <time>2022-08-07T07:40:39.154Z</time>
      </trkpt>
      <trkpt lat="44.19296" lon="0.71667">
        <ele>79</ele>
        <time>2022-08-07T07:40:40.154Z</time>
      </trkpt>
      <trkpt lat="44.19296" lon="0.71669">
        <ele>79</ele>
        <time>2022-08-07T07:40:41.154Z</time>
      </trkpt>
      <trkpt lat="44.19295" lon="0.7167">
        <ele>79</ele>
        <time>2022-08-07T07:40:42.154Z</time>
      </trkpt>
      <trkpt lat="44.19294" lon="0.71672">
        <ele>78</ele>
        <time>2022-08-07T07:40:43.154Z</time>
      </trkpt>
      <trkpt lat="44.19294" lon="0.71673">
        <ele>78</ele>
        <time>2022-08-07T07:40:44.154Z</time>
      </trkpt>
      <trkpt lat="44.19293" lon="0.71674">
        <ele>78</ele>
        <time>2022-08-07T07:40:45.154Z</time>
      </trkpt>
      <trkpt lat="44.19292" lon="0.71675">
        <ele>78</ele>
        <time>2022-08-07T07:40:46.154Z</time>
      </trkpt>
      <trkpt lat="44.19292" lon="0.71677">
        <ele>78</ele>
        <time>2022-08-07T07:40:47.154Z</time>
      </trkpt>
      <trkpt lat="44.19291" lon="0.71678">
        <ele>78</ele>
        <time>2022-08-07T07:40:48.154Z</time>
      </trkpt>
      <trkpt lat="44.1929" lon="0.71679">
        <ele>78</ele>
        <time>2022-08-07T07:40:49.154Z</time>
      </trkpt>
      <trkpt lat="44.19289" lon="0.71681">
        <ele>78</ele>
        <time>2022-08-07T07:40:50.154Z</time>
      </trkpt>
      <trkpt lat="44.19289" lon="0.71682">
        <ele>78</ele>
        <time>2022-08-07T07:40:51.154Z</time>
      </trkpt>
      <trkpt lat="44.19288" lon="0.71682">
        <ele>78</ele>
        <time>2022-08-07T07:40:52.154Z</time>
      </trkpt>
      <trkpt lat="44.19287" lon="0.71683">
        <ele>77</ele>
        <time>2022-08-07T07:40:53.154Z</time>
      </trkpt>
      <trkpt lat="44.19286" lon="0.71683">
        <ele>77</ele>
        <time>2022-08-07T07:40:54.154Z</time>
      </trkpt>
      <trkpt lat="44.19284" lon="0.71684">
        <ele>77</ele>
        <time>2022-08-07T07:40:55.154Z</time>
      </trkpt>
      <trkpt lat="44.19283" lon="0.71684">
        <ele>77</ele>
        <time>2022-08-07T07:40:56.154Z</time>
      </trkpt>
      <trkpt lat="44.19283" lon="0.71684">
        <ele>78</ele>
        <time>2022-08-07T07:40:57.154Z</time>
      </trkpt>
      <trkpt lat="44.19282" lon="0.71684">
        <ele>78</ele>
        <time>2022-08-07T07:40:58.154Z</time>
      </trkpt>
      <trkpt lat="44.19282" lon="0.71684">
        <ele>79</ele>
        <time>2022-08-07T07:40:59.154Z</time>
      </trkpt>
      <trkpt lat="44.19282" lon="0.71683">
        <ele>80</ele>
        <time>2022-08-07T07:41:00.154Z</time>
      </trkpt>
      <trkpt lat="44.19282" lon="0.71682">
        <ele>81</ele>
        <time>2022-08-07T07:41:01.154Z</time>
      </trkpt>
      <trkpt lat="44.19282" lon="0.71681">
        <ele>81</ele>
        <time>2022-08-07T07:41:02.154Z</time>
      </trkpt>
      <trkpt lat="44.19282" lon="0.71679">
        <ele>82</ele>
        <time>2022-08-07T07:41:03.154Z</time>
      </trkpt>
      <trkpt lat="44.19281" lon="0.71678">
        <ele>82</ele>
        <time>2022-08-07T07:41:04.154Z</time>
      </trkpt>
      <trkpt lat="44.19281" lon="0.71677">
        <ele>83</ele>
        <time>2022-08-07T07:41:05.154Z</time>
      </trkpt>
      <trkpt lat="44.1928" lon="0.71676">
        <ele>83</ele>
        <time>2022-08-07T07:41:06.154Z</time>
      </trkpt>
      <trkpt lat="44.1928" lon="0.71675">
        <ele>84</ele>
        <time>2022-08-07T07:41:07.154Z</time>
      </trkpt>
      <trkpt lat="44.19279" lon="0.71673">
        <ele>84</ele>
        <time>2022-08-07T07:41:08.154Z</time>
      </trkpt>
      <trkpt lat="44.19279" lon="0.71672">
        <ele>84</ele>
        <time>2022-08-07T07:41:09.154Z</time>
      </trkpt>
      <trkpt lat="44.19278" lon="0.71671">
        <ele>84</ele>
        <time>2022-08-07T07:41:10.154Z</time>
      </trkpt>
      <trkpt lat="44.19277" lon="0.71669">
        <ele>85</ele>
        <time>2022-08-07T07:41:11.154Z</time>
      </trkpt>
      <trkpt lat="44.19277" lon="0.71668">
        <ele>85</ele>
        <time>2022-08-07T07:41:12.154Z</time>
      </trkpt>
      <trkpt lat="44.19277" lon="0.71666">
        <ele>85</ele>
        <time>2022-08-07T07:41:13.154Z</time>
      </trkpt>
      <trkpt lat="44.19276" lon="0.71665">
        <ele>86</ele>
        <time>2022-08-07T07:41:14.154Z</time>
      </trkpt>
      <trkpt lat="44.19276" lon="0.71663">
        <ele>86</ele>
        <time>2022-08-07T07:41:15.154Z</time>
      </trkpt>
      <trkpt lat="44.19275" lon="0.71662">
        <ele>86</ele>
        <time>2022-08-07T07:41:16.154Z</time>
      </trkpt>
      <trkpt lat="44.19275" lon="0.71661">
        <ele>86</ele>
        <time>2022-08-07T07:41:17.154Z</time>
      </trkpt>
      <trkpt lat="44.19275" lon="0.71659">
        <ele>86</ele>
        <time>2022-08-07T07:41:18.154Z</time>
      </trkpt>
      <trkpt lat="44.19274" lon="0.71658">
        <ele>86</ele>
        <time>2022-08-07T07:41:19.154Z</time>
      </trkpt>
      <trkpt lat="44.19274" lon="0.71657">
        <ele>86</ele>
        <time>2022-08-07T07:41:20.154Z</time>
      </trkpt>
      <trkpt lat="44.19273" lon="0.71655">
        <ele>87</ele>
        <time>2022-08-07T07:41:21.154Z</time>
      </trkpt>
      <trkpt lat="44.19273" lon="0.71654">
        <ele>87</ele>
        <time>2022-08-07T07:41:22.154Z</time>
      </trkpt>
      <trkpt lat="44.19272" lon="0.71653">
        <ele>87</ele>
        <time>2022-08-07T07:41:23.154Z</time>
      </trkpt>
      <trkpt lat="44.19272" lon="0.71651">
        <ele>87</ele>
        <time>2022-08-07T07:41:24.154Z</time>
      </trkpt>
      <trkpt lat="44.19271" lon="0.7165">
        <ele>88</ele>
        <time>2022-08-07T07:41:25.154Z</time>
      </trkpt>
      <trkpt lat="44.19271" lon="0.71649">
        <ele>87</ele>
        <time>2022-08-07T07:41:26.154Z</time>
      </trkpt>
      <trkpt lat="44.1927" lon="0.71647">
        <ele>86</ele>
        <time>2022-08-07T07:41:27.154Z</time>
      </trkpt>
      <trkpt lat="44.19269" lon="0.71645">
        <ele>85</ele>
        <time>2022-08-07T07:41:28.154Z</time>
      </trkpt>
      <trkpt lat="44.19269" lon="0.71644">
        <ele>84</ele>
        <time>2022-08-07T07:41:29.154Z</time>
      </trkpt>
      <trkpt lat="44.19268" lon="0.71642">
        <ele>84</ele>
        <time>2022-08-07T07:41:30.154Z</time>
      </trkpt>
      <trkpt lat="44.19267" lon="0.7164">
        <ele>84</ele>
        <time>2022-08-07T07:41:31.154Z</time>
      </trkpt>
      <trkpt lat="44.19267" lon="0.71638">
        <ele>85</ele>
        <time>2022-08-07T07:41:32.154Z</time>
      </trkpt>
      <trkpt lat="44.19266" lon="0.71636">
        <ele>85</ele>
        <time>2022-08-07T07:41:33.154Z</time>
      </trkpt>
      <trkpt lat="44.19266" lon="0.71634">
        <ele>85</ele>
        <time>2022-08-07T07:41:34.154Z</time>
      </trkpt>
      <trkpt lat="44.19265" lon="0.71633">
        <ele>85</ele>
        <time>2022-08-07T07:41:35.154Z</time>
      </trkpt>
      <trkpt lat="44.19264" lon="0.71632">
        <ele>85</ele>
        <time>2022-08-07T07:41:36.154Z</time>
      </trkpt>
      <trkpt lat="44.19264" lon="0.7163">
        <ele>86</ele>
        <time>2022-08-07T07:41:37.154Z</time>
      </trkpt>
      <trkpt lat="44.19263" lon="0.71629">
        <ele>85</ele>
        <time>2022-08-07T07:41:38.154Z</time>
      </trkpt>
      <trkpt lat="44.19262" lon="0.71627">
        <ele>86</ele>
        <time>2022-08-07T07:41:39.154Z</time>
      </trkpt>
      <trkpt lat="44.19261" lon="0.71625">
        <ele>85</ele>
        <time>2022-08-07T07:41:40.154Z</time>
      </trkpt>
      <trkpt lat="44.19261" lon="0.71623">
        <ele>85</ele>
        <time>2022-08-07T07:41:41.154Z</time>
      </trkpt>
      <trkpt lat="44.1926" lon="0.71622">
        <ele>84</ele>
        <time>2022-08-07T07:41:42.154Z</time>
      </trkpt>
      <trkpt lat="44.19259" lon="0.7162">
        <ele>84</ele>
        <time>2022-08-07T07:41:43.154Z</time>
      </trkpt>
      <trkpt lat="44.19259" lon="0.71619">
        <ele>84</ele>
        <time>2022-08-07T07:41:44.154Z</time>
      </trkpt>
      <trkpt lat="44.19258" lon="0.71617">
        <ele>84</ele>
        <time>2022-08-07T07:41:45.154Z</time>
      </trkpt>
      <trkpt lat="44.19257" lon="0.71616">
        <ele>84</ele>
        <time>2022-08-07T07:41:46.154Z</time>
      </trkpt>
      <trkpt lat="44.19255" lon="0.71615">
        <ele>83</ele>
        <time>2022-08-07T07:41:47.154Z</time>
      </trkpt>
      <trkpt lat="44.19254" lon="0.71614">
        <ele>82</ele>
        <time>2022-08-07T07:41:48.154Z</time>
      </trkpt>
      <trkpt lat="44.19253" lon="0.71613">
        <ele>82</ele>
        <time>2022-08-07T07:41:49.154Z</time>
      </trkpt>
      <trkpt lat="44.19253" lon="0.71612">
        <ele>82</ele>
        <time>2022-08-07T07:41:50.154Z</time>
      </trkpt>
      <trkpt lat="44.19252" lon="0.7161">
        <ele>82</ele>
        <time>2022-08-07T07:41:51.154Z</time>
      </trkpt>
      <trkpt lat="44.19251" lon="0.71609">
        <ele>81</ele>
        <time>2022-08-07T07:41:52.154Z</time>
      </trkpt>
      <trkpt lat="44.1925" lon="0.71608">
        <ele>82</ele>
        <time>2022-08-07T07:41:53.154Z</time>
      </trkpt>
      <trkpt lat="44.1925" lon="0.71607">
        <ele>81</ele>
        <time>2022-08-07T07:41:54.154Z</time>
      </trkpt>
      <trkpt lat="44.19248" lon="0.71606">
        <ele>81</ele>
        <time>2022-08-07T07:41:55.154Z</time>
      </trkpt>
      <trkpt lat="44.19247" lon="0.71605">
        <ele>81</ele>
        <time>2022-08-07T07:41:56.154Z</time>
      </trkpt>
      <trkpt lat="44.19246" lon="0.71605">
        <ele>81</ele>
        <time>2022-08-07T07:41:57.154Z</time>
      </trkpt>
      <trkpt lat="44.19246" lon="0.71604">
        <ele>81</ele>
        <time>2022-08-07T07:41:58.154Z</time>
      </trkpt>
      <trkpt lat="44.19245" lon="0.71604">
        <ele>80</ele>
        <time>2022-08-07T07:41:59.154Z</time>
      </trkpt>
      <trkpt lat="44.19244" lon="0.71604">
        <ele>80</ele>
        <time>2022-08-07T07:42:00.154Z</time>
      </trkpt>
      <trkpt lat="44.19243" lon="0.71605">
        <ele>80</ele>
        <time>2022-08-07T07:42:01.154Z</time>
      </trkpt>
      <trkpt lat="44.19241" lon="0.71605">
        <ele>79</ele>
        <time>2022-08-07T07:42:02.154Z</time>
      </trkpt>
      <trkpt lat="44.1924" lon="0.71606">
        <ele>79</ele>
        <time>2022-08-07T07:42:03.154Z</time>
      </trkpt>
      <trkpt lat="44.1924" lon="0.71606">
        <ele>79</ele>
        <time>2022-08-07T07:42:04.154Z</time>
      </trkpt>
      <trkpt lat="44.19239" lon="0.71607">
        <ele>78</ele>
        <time>2022-08-07T07:42:05.154Z</time>
      </trkpt>
      <trkpt lat="44.19238" lon="0.71608">
        <ele>78</ele>
        <time>2022-08-07T07:42:06.154Z</time>
      </trkpt>
      <trkpt lat="44.19237" lon="0.71609">
        <ele>78</ele>
        <time>2022-08-07T07:42:07.154Z</time>
      </trkpt>
      <trkpt lat="44.19236" lon="0.7161">
        <ele>78</ele>
        <time>2022-08-07T07:42:08.154Z</time>
      </trkpt>
      <trkpt lat="44.19235" lon="0.71611">
        <ele>77</ele>
        <time>2022-08-07T07:42:09.154Z</time>
      </trkpt>
      <trkpt lat="44.19235" lon="0.71613">
        <ele>77</ele>
        <time>2022-08-07T07:42:10.154Z</time>
      </trkpt>
      <trkpt lat="44.19234" lon="0.71614">
        <ele>77</ele>
        <time>2022-08-07T07:42:11.154Z</time>
      </trkpt>
      <trkpt lat="44.19233" lon="0.71615">
        <ele>77</ele>
        <time>2022-08-07T07:42:12.154Z</time>
      </trkpt>
      <trkpt lat="44.19233" lon="0.71616">
        <ele>76</ele>
        <time>2022-08-07T07:42:13.154Z</time>
      </trkpt>
      <trkpt lat="44.19232" lon="0.71618">
        <ele>76</ele>
        <time>2022-08-07T07:42:14.154Z</time>
      </trkpt>
      <trkpt lat="44.19231" lon="0.71619">
        <ele>76</ele>
        <time>2022-08-07T07:42:15.154Z</time>
      </trkpt>
      <trkpt lat="44.19231" lon="0.7162">
        <ele>76</ele>
        <time>2022-08-07T07:42:16.154Z</time>
      </trkpt>
      <trkpt lat="44.1923" lon="0.71621">
        <ele>76</ele>
        <time>2022-08-07T07:42:17.154Z</time>
      </trkpt>
      <trkpt lat="44.19229" lon="0.71623">
        <ele>76</ele>
        <time>2022-08-07T07:42:18.154Z</time>
      </trkpt>
      <trkpt lat="44.19228" lon="0.71624">
        <ele>75</ele>
        <time>2022-08-07T07:42:19.154Z</time>
      </trkpt>
      <trkpt lat="44.19228" lon="0.71625">
        <ele>75</ele>
        <time>2022-08-07T07:42:20.154Z</time>
      </trkpt>
      <trkpt lat="44.19227" lon="0.71626">
        <ele>75</ele>
        <time>2022-08-07T07:42:21.154Z</time>
      </trkpt>
      <trkpt lat="44.19226" lon="0.71627">
        <ele>75</ele>
        <time>2022-08-07T07:42:22.154Z</time>
      </trkpt>
      <trkpt lat="44.19226" lon="0.71628">
        <ele>75</ele>
        <time>2022-08-07T07:42:23.154Z</time>
      </trkpt>
      <trkpt lat="44.19225" lon="0.71629">
        <ele>74</ele>
        <time>2022-08-07T07:42:24.154Z</time>
      </trkpt>
      <trkpt lat="44.19224" lon="0.7163">
        <ele>74</ele>
        <time>2022-08-07T07:42:25.154Z</time>
      </trkpt>
      <trkpt lat="44.19223" lon="0.71631">
        <ele>74</ele>
        <time>2022-08-07T07:42:26.154Z</time>
      </trkpt>
      <trkpt lat="44.19223" lon="0.71633">
        <ele>74</ele>
        <time>2022-08-07T07:42:27.154Z</time>
      </trkpt>
      <trkpt lat="44.19222" lon="0.71634">
        <ele>74</ele>
        <time>2022-08-07T07:42:28.154Z</time>
      </trkpt>
      <trkpt lat="44.19222" lon="0.71635">
        <ele>74</ele>
        <time>2022-08-07T07:42:29.154Z</time>
      </trkpt>
      <trkpt lat="44.19221" lon="0.71636">
        <ele>74</ele>
        <time>2022-08-07T07:42:30.154Z</time>
      </trkpt>
      <trkpt lat="44.19221" lon="0.71638">
        <ele>74</ele>
        <time>2022-08-07T07:42:31.154Z</time>
      </trkpt>
      <trkpt lat="44.1922" lon="0.71639">
        <ele>74</ele>
        <time>2022-08-07T07:42:32.154Z</time>
      </trkpt>
      <trkpt lat="44.1922" lon="0.71641">
        <ele>74</ele>
        <time>2022-08-07T07:42:33.154Z</time>
      </trkpt>
      <trkpt lat="44.19219" lon="0.71642">
        <ele>74</ele>
        <time>2022-08-07T07:42:34.154Z</time>
      </trkpt>
      <trkpt lat="44.19219" lon="0.71644">
        <ele>74</ele>
        <time>2022-08-07T07:42:35.154Z</time>
      </trkpt>
      <trkpt lat="44.19219" lon="0.71645">
        <ele>75</ele>
        <time>2022-08-07T07:42:36.154Z</time>
      </trkpt>
      <trkpt lat="44.19218" lon="0.71646">
        <ele>75</ele>
        <time>2022-08-07T07:42:37.154Z</time>
      </trkpt>
      <trkpt lat="44.19217" lon="0.71648">
        <ele>75</ele>
        <time>2022-08-07T07:42:38.154Z</time>
      </trkpt>
      <trkpt lat="44.19216" lon="0.71649">
        <ele>74</ele>
        <time>2022-08-07T07:42:39.154Z</time>
      </trkpt>
      <trkpt lat="44.19216" lon="0.71651">
        <ele>74</ele>
        <time>2022-08-07T07:42:40.154Z</time>
      </trkpt>
      <trkpt lat="44.19215" lon="0.71652">
        <ele>73</ele>
        <time>2022-08-07T07:42:41.154Z</time>
      </trkpt>
      <trkpt lat="44.19214" lon="0.71653">
        <ele>74</ele>
        <time>2022-08-07T07:42:42.154Z</time>
      </trkpt>
      <trkpt lat="44.19214" lon="0.71654">
        <ele>74</ele>
        <time>2022-08-07T07:42:43.154Z</time>
      </trkpt>
      <trkpt lat="44.19213" lon="0.71655">
        <ele>74</ele>
        <time>2022-08-07T07:42:44.154Z</time>
      </trkpt>
      <trkpt lat="44.19213" lon="0.71656">
        <ele>74</ele>
        <time>2022-08-07T07:42:45.154Z</time>
      </trkpt>
      <trkpt lat="44.19212" lon="0.71657">
        <ele>73</ele>
        <time>2022-08-07T07:42:46.154Z</time>
      </trkpt>
      <trkpt lat="44.19211" lon="0.71658">
        <ele>73</ele>
        <time>2022-08-07T07:42:47.154Z</time>
      </trkpt>
      <trkpt lat="44.19211" lon="0.71659">
        <ele>74</ele>
        <time>2022-08-07T07:42:48.154Z</time>
      </trkpt>
      <trkpt lat="44.1921" lon="0.7166">
        <ele>74</ele>
        <time>2022-08-07T07:42:49.154Z</time>
      </trkpt>
      <trkpt lat="44.1921" lon="0.7166">
        <ele>74</ele>
        <time>2022-08-07T07:42:50.154Z</time>
      </trkpt>
      <trkpt lat="44.1921" lon="0.71661">
        <ele>74</ele>
        <time>2022-08-07T07:42:51.154Z</time>
      </trkpt>
      <trkpt lat="44.19209" lon="0.71661">
        <ele>74</ele>
        <time>2022-08-07T07:42:52.154Z</time>
      </trkpt>
      <trkpt lat="44.19209" lon="0.71661">
        <ele>74</ele>
        <time>2022-08-07T07:42:53.154Z</time>
      </trkpt>
      <trkpt lat="44.19209" lon="0.71661">
        <ele>73</ele>
        <time>2022-08-07T07:42:54.154Z</time>
      </trkpt>
      <trkpt lat="44.19209" lon="0.71661">
        <ele>73</ele>
        <time>2022-08-07T07:42:55.154Z</time>
      </trkpt>
      <trkpt lat="44.19209" lon="0.71661">
        <ele>74</ele>
        <time>2022-08-07T07:42:56.154Z</time>
      </trkpt>
      <trkpt lat="44.19209" lon="0.71661">
        <ele>73</ele>
        <time>2022-08-07T07:42:57.154Z</time>
      </trkpt>
      <trkpt lat="44.19209" lon="0.71662">
        <ele>73</ele>
        <time>2022-08-07T07:42:58.154Z</time>
      </trkpt>
      <trkpt lat="44.19209" lon="0.71662">
        <ele>73</ele>
        <time>2022-08-07T07:42:59.154Z</time>
      </trkpt>
      <trkpt lat="44.19208" lon="0.71659">
        <ele>74</ele>
        <time>2022-08-07T07:43:23.176Z</time>
      </trkpt>
      <trkpt lat="44.19208" lon="0.71659">
        <ele>74</ele>
        <time>2022-08-07T07:43:24.176Z</time>
      </trkpt>
      <trkpt lat="44.19209" lon="0.71659">
        <ele>74</ele>
        <time>2022-08-07T07:43:25.176Z</time>
      </trkpt>
      <trkpt lat="44.19209" lon="0.7166">
        <ele>74</ele>
        <time>2022-08-07T07:43:26.176Z</time>
      </trkpt>
      <trkpt lat="44.19209" lon="0.71661">
        <ele>73</ele>
        <time>2022-08-07T07:43:27.176Z</time>
      </trkpt>
      <trkpt lat="44.19209" lon="0.71661">
        <ele>73</ele>
        <time>2022-08-07T07:43:28.176Z</time>
      </trkpt>
      <trkpt lat="44.19209" lon="0.71662">
        <ele>73</ele>
        <time>2022-08-07T07:43:29.176Z</time>
      </trkpt>
      <trkpt lat="44.19208" lon="0.71662">
        <ele>73</ele>
        <time>2022-08-07T07:43:30.176Z</time>
      </trkpt>
      <trkpt lat="44.19208" lon="0.71662">
        <ele>73</ele>
        <time>2022-08-07T07:43:31.176Z</time>
      </trkpt>
      <trkpt lat="44.19208" lon="0.71661">
        <ele>73</ele>
        <time>2022-08-07T07:43:32.176Z</time>
      </trkpt>
      <trkpt lat="44.19208" lon="0.71661">
        <ele>74</ele>
        <time>2022-08-07T07:43:33.176Z</time>
      </trkpt>
      <trkpt lat="44.19209" lon="0.71661">
        <ele>74</ele>
        <time>2022-08-07T07:43:34.176Z</time>
      </trkpt>
      <trkpt lat="44.19207" lon="0.71661">
        <ele>74</ele>
        <time>2022-08-07T07:43:40.198Z</time>
      </trkpt>
      <trkpt lat="44.19207" lon="0.71661">
        <ele>74</ele>
        <time>2022-08-07T07:43:41.198Z</time>
      </trkpt>
      <trkpt lat="44.19207" lon="0.71661">
        <ele>74</ele>
        <time>2022-08-07T07:43:42.198Z</time>
      </trkpt>
      <trkpt lat="44.19207" lon="0.71661">
        <ele>74</ele>
        <time>2022-08-07T07:43:43.198Z</time>
      </trkpt>
      <trkpt lat="44.19207" lon="0.71661">
        <ele>74</ele>
        <time>2022-08-07T07:43:44.198Z</time>
      </trkpt>
      <trkpt lat="44.19206" lon="0.71667">
        <ele>73</ele>
        <time>2022-08-07T07:44:01.209Z</time>
      </trkpt>
      <trkpt lat="44.19206" lon="0.71668">
        <ele>73</ele>
        <time>2022-08-07T07:44:02.209Z</time>
      </trkpt>
      <trkpt lat="44.19205" lon="0.71669">
        <ele>73</ele>
        <time>2022-08-07T07:44:03.209Z</time>
      </trkpt>
      <trkpt lat="44.19205" lon="0.7167">
        <ele>72</ele>
        <time>2022-08-07T07:44:04.209Z</time>
      </trkpt>
      <trkpt lat="44.19204" lon="0.71671">
        <ele>72</ele>
        <time>2022-08-07T07:44:05.209Z</time>
      </trkpt>
      <trkpt lat="44.19203" lon="0.71672">
        <ele>73</ele>
        <time>2022-08-07T07:44:06.209Z</time>
      </trkpt>
      <trkpt lat="44.19202" lon="0.71673">
        <ele>73</ele>
        <time>2022-08-07T07:44:07.209Z</time>
      </trkpt>
      <trkpt lat="44.19202" lon="0.71674">
        <ele>73</ele>
        <time>2022-08-07T07:44:08.209Z</time>
      </trkpt>
      <trkpt lat="44.19202" lon="0.71675">
        <ele>73</ele>
        <time>2022-08-07T07:44:09.209Z</time>
      </trkpt>
      <trkpt lat="44.19201" lon="0.71675">
        <ele>73</ele>
        <time>2022-08-07T07:44:10.209Z</time>
      </trkpt>
      <trkpt lat="44.19201" lon="0.71676">
        <ele>73</ele>
        <time>2022-08-07T07:44:11.209Z</time>
      </trkpt>
      <trkpt lat="44.19201" lon="0.71677">
        <ele>73</ele>
        <time>2022-08-07T07:44:12.209Z</time>
      </trkpt>
      <trkpt lat="44.19201" lon="0.71678">
        <ele>73</ele>
        <time>2022-08-07T07:44:13.209Z</time>
      </trkpt>
      <trkpt lat="44.192" lon="0.71679">
        <ele>74</ele>
        <time>2022-08-07T07:44:14.209Z</time>
      </trkpt>
      <trkpt lat="44.19199" lon="0.71679">
        <ele>74</ele>
        <time>2022-08-07T07:44:15.209Z</time>
      </trkpt>
      <trkpt lat="44.19199" lon="0.71679">
        <ele>74</ele>
        <time>2022-08-07T07:44:16.209Z</time>
      </trkpt>
      <trkpt lat="44.19199" lon="0.71679">
        <ele>74</ele>
        <time>2022-08-07T07:44:17.209Z</time>
      </trkpt>
      <trkpt lat="44.19198" lon="0.71678">
        <ele>73</ele>
        <time>2022-08-07T07:44:18.209Z</time>
      </trkpt>
      <trkpt lat="44.19198" lon="0.71678">
        <ele>73</ele>
        <time>2022-08-07T07:44:19.209Z</time>
      </trkpt>
      <trkpt lat="44.19198" lon="0.71678">
        <ele>73</ele>
        <time>2022-08-07T07:44:20.209Z</time>
      </trkpt>
      <trkpt lat="44.19198" lon="0.71678">
        <ele>73</ele>
        <time>2022-08-07T07:44:21.209Z</time>
      </trkpt>
      <trkpt lat="44.19198" lon="0.71678">
        <ele>73</ele>
        <time>2022-08-07T07:44:22.209Z</time>
      </trkpt>
      <trkpt lat="44.19198" lon="0.71677">
        <ele>74</ele>
        <time>2022-08-07T07:44:23.209Z</time>
      </trkpt>
      <trkpt lat="44.19198" lon="0.71677">
        <ele>74</ele>
        <time>2022-08-07T07:44:24.209Z</time>
      </trkpt>
      <trkpt lat="44.19198" lon="0.71677">
        <ele>74</ele>
        <time>2022-08-07T07:44:25.209Z</time>
      </trkpt>
      <trkpt lat="44.19198" lon="0.71677">
        <ele>75</ele>
        <time>2022-08-07T07:44:26.209Z</time>
      </trkpt>
      <trkpt lat="44.19199" lon="0.7168">
        <ele>75</ele>
        <time>2022-08-07T07:44:43.227Z</time>
      </trkpt>
      <trkpt lat="44.19199" lon="0.71681">
        <ele>75</ele>
        <time>2022-08-07T07:44:44.227Z</time>
      </trkpt>
      <trkpt lat="44.19199" lon="0.71683">
        <ele>75</ele>
        <time>2022-08-07T07:44:45.227Z</time>
      </trkpt>
      <trkpt lat="44.19199" lon="0.71684">
        <ele>74</ele>
        <time>2022-08-07T07:44:46.227Z</time>
      </trkpt>
      <trkpt lat="44.19198" lon="0.71686">
        <ele>74</ele>
        <time>2022-08-07T07:44:47.227Z</time>
      </trkpt>
      <trkpt lat="44.19198" lon="0.71688">
        <ele>74</ele>
        <time>2022-08-07T07:44:48.227Z</time>
      </trkpt>
      <trkpt lat="44.19197" lon="0.71689">
        <ele>74</ele>
        <time>2022-08-07T07:44:49.227Z</time>
      </trkpt>
      <trkpt lat="44.19196" lon="0.7169">
        <ele>74</ele>
        <time>2022-08-07T07:44:50.227Z</time>
      </trkpt>
      <trkpt lat="44.19196" lon="0.71692">
        <ele>74</ele>
        <time>2022-08-07T07:44:51.227Z</time>
      </trkpt>
      <trkpt lat="44.19195" lon="0.71693">
        <ele>74</ele>
        <time>2022-08-07T07:44:52.227Z</time>
      </trkpt>
      <trkpt lat="44.19195" lon="0.71694">
        <ele>74</ele>
        <time>2022-08-07T07:44:53.227Z</time>
      </trkpt>
      <trkpt lat="44.19194" lon="0.71695">
        <ele>74</ele>
        <time>2022-08-07T07:44:54.227Z</time>
      </trkpt>
      <trkpt lat="44.19193" lon="0.71696">
        <ele>74</ele>
        <time>2022-08-07T07:44:55.227Z</time>
      </trkpt>
      <trkpt lat="44.19193" lon="0.71697">
        <ele>74</ele>
        <time>2022-08-07T07:44:56.227Z</time>
      </trkpt>
      <trkpt lat="44.19192" lon="0.71698">
        <ele>74</ele>
        <time>2022-08-07T07:44:57.227Z</time>
      </trkpt>
      <trkpt lat="44.19191" lon="0.717">
        <ele>73</ele>
        <time>2022-08-07T07:44:58.227Z</time>
      </trkpt>
      <trkpt lat="44.19191" lon="0.71701">
        <ele>73</ele>
        <time>2022-08-07T07:44:59.227Z</time>
      </trkpt>
      <trkpt lat="44.1919" lon="0.71703">
        <ele>73</ele>
        <time>2022-08-07T07:45:00.227Z</time>
      </trkpt>
      <trkpt lat="44.19189" lon="0.71704">
        <ele>72</ele>
        <time>2022-08-07T07:45:01.227Z</time>
      </trkpt>
      <trkpt lat="44.19188" lon="0.71706">
        <ele>72</ele>
        <time>2022-08-07T07:45:02.227Z</time>
      </trkpt>
      <trkpt lat="44.19187" lon="0.71708">
        <ele>72</ele>
        <time>2022-08-07T07:45:03.227Z</time>
      </trkpt>
      <trkpt lat="44.19186" lon="0.7171">
        <ele>72</ele>
        <time>2022-08-07T07:45:04.227Z</time>
      </trkpt>
      <trkpt lat="44.19186" lon="0.71712">
        <ele>72</ele>
        <time>2022-08-07T07:45:05.227Z</time>
      </trkpt>
      <trkpt lat="44.19185" lon="0.71714">
        <ele>72</ele>
        <time>2022-08-07T07:45:06.227Z</time>
      </trkpt>
      <trkpt lat="44.19184" lon="0.71716">
        <ele>73</ele>
        <time>2022-08-07T07:45:07.227Z</time>
      </trkpt>
      <trkpt lat="44.19183" lon="0.71718">
        <ele>72</ele>
        <time>2022-08-07T07:45:08.227Z</time>
      </trkpt>
      <trkpt lat="44.19182" lon="0.71719">
        <ele>72</ele>
        <time>2022-08-07T07:45:09.227Z</time>
      </trkpt>
      <trkpt lat="44.19181" lon="0.7172">
        <ele>72</ele>
        <time>2022-08-07T07:45:10.227Z</time>
      </trkpt>
      <trkpt lat="44.1918" lon="0.71721">
        <ele>72</ele>
        <time>2022-08-07T07:45:11.227Z</time>
      </trkpt>
      <trkpt lat="44.19179" lon="0.71723">
        <ele>72</ele>
        <time>2022-08-07T07:45:12.227Z</time>
      </trkpt>
      <trkpt lat="44.19178" lon="0.71724">
        <ele>72</ele>
        <time>2022-08-07T07:45:13.227Z</time>
      </trkpt>
      <trkpt lat="44.19178" lon="0.71726">
        <ele>72</ele>
        <time>2022-08-07T07:45:14.227Z</time>
      </trkpt>
      <trkpt lat="44.19177" lon="0.71728">
        <ele>72</ele>
        <time>2022-08-07T07:45:15.227Z</time>
      </trkpt>
      <trkpt lat="44.19176" lon="0.71729">
        <ele>72</ele>
        <time>2022-08-07T07:45:16.227Z</time>
      </trkpt>
      <trkpt lat="44.19176" lon="0.71731">
        <ele>72</ele>
        <time>2022-08-07T07:45:17.227Z</time>
      </trkpt>
      <trkpt lat="44.19175" lon="0.71732">
        <ele>72</ele>
        <time>2022-08-07T07:45:18.227Z</time>
      </trkpt>
      <trkpt lat="44.19174" lon="0.71734">
        <ele>71</ele>
        <time>2022-08-07T07:45:19.227Z</time>
      </trkpt>
      <trkpt lat="44.19173" lon="0.71736">
        <ele>70</ele>
        <time>2022-08-07T07:45:20.227Z</time>
      </trkpt>
      <trkpt lat="44.19172" lon="0.71738">
        <ele>70</ele>
        <time>2022-08-07T07:45:21.227Z</time>
      </trkpt>
      <trkpt lat="44.19171" lon="0.7174">
        <ele>70</ele>
        <time>2022-08-07T07:45:22.227Z</time>
      </trkpt>
      <trkpt lat="44.1917" lon="0.71742">
        <ele>70</ele>
        <time>2022-08-07T07:45:23.227Z</time>
      </trkpt>
      <trkpt lat="44.19169" lon="0.71744">
        <ele>70</ele>
        <time>2022-08-07T07:45:24.227Z</time>
      </trkpt>
      <trkpt lat="44.19169" lon="0.71746">
        <ele>70</ele>
        <time>2022-08-07T07:45:25.227Z</time>
      </trkpt>
      <trkpt lat="44.19168" lon="0.71748">
        <ele>70</ele>
        <time>2022-08-07T07:45:26.227Z</time>
      </trkpt>
      <trkpt lat="44.19167" lon="0.7175">
        <ele>70</ele>
        <time>2022-08-07T07:45:27.227Z</time>
      </trkpt>
      <trkpt lat="44.19166" lon="0.71752">
        <ele>70</ele>
        <time>2022-08-07T07:45:28.227Z</time>
      </trkpt>
      <trkpt lat="44.19165" lon="0.71754">
        <ele>71</ele>
        <time>2022-08-07T07:45:29.227Z</time>
      </trkpt>
      <trkpt lat="44.19165" lon="0.71756">
        <ele>70</ele>
        <time>2022-08-07T07:45:30.227Z</time>
      </trkpt>
      <trkpt lat="44.19164" lon="0.71757">
        <ele>70</ele>
        <time>2022-08-07T07:45:31.227Z</time>
      </trkpt>
      <trkpt lat="44.19163" lon="0.71759">
        <ele>69</ele>
        <time>2022-08-07T07:45:32.227Z</time>
      </trkpt>
      <trkpt lat="44.19162" lon="0.7176">
        <ele>69</ele>
        <time>2022-08-07T07:45:33.227Z</time>
      </trkpt>
      <trkpt lat="44.19161" lon="0.71762">
        <ele>70</ele>
        <time>2022-08-07T07:45:34.227Z</time>
      </trkpt>
      <trkpt lat="44.1916" lon="0.71764">
        <ele>69</ele>
        <time>2022-08-07T07:45:35.227Z</time>
      </trkpt>
      <trkpt lat="44.1916" lon="0.71766">
        <ele>70</ele>
        <time>2022-08-07T07:45:36.227Z</time>
      </trkpt>
      <trkpt lat="44.19159" lon="0.71767">
        <ele>69</ele>
        <time>2022-08-07T07:45:37.227Z</time>
      </trkpt>
      <trkpt lat="44.19158" lon="0.71769">
        <ele>69</ele>
        <time>2022-08-07T07:45:38.227Z</time>
      </trkpt>
      <trkpt lat="44.19156" lon="0.7177">
        <ele>69</ele>
        <time>2022-08-07T07:45:39.227Z</time>
      </trkpt>
      <trkpt lat="44.19156" lon="0.71772">
        <ele>70</ele>
        <time>2022-08-07T07:45:40.227Z</time>
      </trkpt>
      <trkpt lat="44.19155" lon="0.71774">
        <ele>70</ele>
        <time>2022-08-07T07:45:41.227Z</time>
      </trkpt>
      <trkpt lat="44.19154" lon="0.71776">
        <ele>70</ele>
        <time>2022-08-07T07:45:42.227Z</time>
      </trkpt>
      <trkpt lat="44.19153" lon="0.71777">
        <ele>70</ele>
        <time>2022-08-07T07:45:43.227Z</time>
      </trkpt>
      <trkpt lat="44.19152" lon="0.71778">
        <ele>69</ele>
        <time>2022-08-07T07:45:44.227Z</time>
      </trkpt>
      <trkpt lat="44.19151" lon="0.7178">
        <ele>69</ele>
        <time>2022-08-07T07:45:45.227Z</time>
      </trkpt>
      <trkpt lat="44.19151" lon="0.71781">
        <ele>68</ele>
        <time>2022-08-07T07:45:46.227Z</time>
      </trkpt>
      <trkpt lat="44.1915" lon="0.71782">
        <ele>68</ele>
        <time>2022-08-07T07:45:47.227Z</time>
      </trkpt>
      <trkpt lat="44.19149" lon="0.71783">
        <ele>68</ele>
        <time>2022-08-07T07:45:48.227Z</time>
      </trkpt>
      <trkpt lat="44.19148" lon="0.71785">
        <ele>67</ele>
        <time>2022-08-07T07:45:49.227Z</time>
      </trkpt>
      <trkpt lat="44.19147" lon="0.71786">
        <ele>68</ele>
        <time>2022-08-07T07:45:50.227Z</time>
      </trkpt>
      <trkpt lat="44.19146" lon="0.71788">
        <ele>68</ele>
        <time>2022-08-07T07:45:51.227Z</time>
      </trkpt>
      <trkpt lat="44.19145" lon="0.7179">
        <ele>68</ele>
        <time>2022-08-07T07:45:52.227Z</time>
      </trkpt>
      <trkpt lat="44.19144" lon="0.71791">
        <ele>68</ele>
        <time>2022-08-07T07:45:53.227Z</time>
      </trkpt>
      <trkpt lat="44.19143" lon="0.71793">
        <ele>68</ele>
        <time>2022-08-07T07:45:54.227Z</time>
      </trkpt>
      <trkpt lat="44.19142" lon="0.71794">
        <ele>68</ele>
        <time>2022-08-07T07:45:55.227Z</time>
      </trkpt>
      <trkpt lat="44.19142" lon="0.71796">
        <ele>69</ele>
        <time>2022-08-07T07:45:56.227Z</time>
      </trkpt>
      <trkpt lat="44.19141" lon="0.71798">
        <ele>69</ele>
        <time>2022-08-07T07:45:57.227Z</time>
      </trkpt>
      <trkpt lat="44.1914" lon="0.71799">
        <ele>69</ele>
        <time>2022-08-07T07:45:58.227Z</time>
      </trkpt>
      <trkpt lat="44.19139" lon="0.71801">
        <ele>69</ele>
        <time>2022-08-07T07:45:59.227Z</time>
      </trkpt>
      <trkpt lat="44.19138" lon="0.71802">
        <ele>69</ele>
        <time>2022-08-07T07:46:00.227Z</time>
      </trkpt>
      <trkpt lat="44.19137" lon="0.71804">
        <ele>69</ele>
        <time>2022-08-07T07:46:01.227Z</time>
      </trkpt>
      <trkpt lat="44.19136" lon="0.71805">
        <ele>69</ele>
        <time>2022-08-07T07:46:02.227Z</time>
      </trkpt>
      <trkpt lat="44.19135" lon="0.71807">
        <ele>69</ele>
        <time>2022-08-07T07:46:03.227Z</time>
      </trkpt>
      <trkpt lat="44.19133" lon="0.71808">
        <ele>69</ele>
        <time>2022-08-07T07:46:04.227Z</time>
      </trkpt>
      <trkpt lat="44.19132" lon="0.7181">
        <ele>69</ele>
        <time>2022-08-07T07:46:05.227Z</time>
      </trkpt>
      <trkpt lat="44.19131" lon="0.71811">
        <ele>70</ele>
        <time>2022-08-07T07:46:06.227Z</time>
      </trkpt>
      <trkpt lat="44.1913" lon="0.71813">
        <ele>70</ele>
        <time>2022-08-07T07:46:07.227Z</time>
      </trkpt>
      <trkpt lat="44.19128" lon="0.71814">
        <ele>70</ele>
        <time>2022-08-07T07:46:08.227Z</time>
      </trkpt>
      <trkpt lat="44.19127" lon="0.71815">
        <ele>70</ele>
        <time>2022-08-07T07:46:09.227Z</time>
      </trkpt>
      <trkpt lat="44.19126" lon="0.71817">
        <ele>70</ele>
        <time>2022-08-07T07:46:10.227Z</time>
      </trkpt>
      <trkpt lat="44.19125" lon="0.71818">
        <ele>70</ele>
        <time>2022-08-07T07:46:11.227Z</time>
      </trkpt>
      <trkpt lat="44.19123" lon="0.7182">
        <ele>70</ele>
        <time>2022-08-07T07:46:12.227Z</time>
      </trkpt>
      <trkpt lat="44.19122" lon="0.71821">
        <ele>70</ele>
        <time>2022-08-07T07:46:13.227Z</time>
      </trkpt>
      <trkpt lat="44.19121" lon="0.71823">
        <ele>71</ele>
        <time>2022-08-07T07:46:14.227Z</time>
      </trkpt>
      <trkpt lat="44.19119" lon="0.71824">
        <ele>70</ele>
        <time>2022-08-07T07:46:15.227Z</time>
      </trkpt>
      <trkpt lat="44.19118" lon="0.71825">
        <ele>71</ele>
        <time>2022-08-07T07:46:16.227Z</time>
      </trkpt>
      <trkpt lat="44.19116" lon="0.71826">
        <ele>71</ele>
        <time>2022-08-07T07:46:17.227Z</time>
      </trkpt>
      <trkpt lat="44.19115" lon="0.71828">
        <ele>71</ele>
        <time>2022-08-07T07:46:18.227Z</time>
      </trkpt>
      <trkpt lat="44.19114" lon="0.71828">
        <ele>72</ele>
        <time>2022-08-07T07:46:19.227Z</time>
      </trkpt>
      <trkpt lat="44.19113" lon="0.71829">
        <ele>72</ele>
        <time>2022-08-07T07:46:20.227Z</time>
      </trkpt>
      <trkpt lat="44.19111" lon="0.7183">
        <ele>72</ele>
        <time>2022-08-07T07:46:21.227Z</time>
      </trkpt>
      <trkpt lat="44.1911" lon="0.71831">
        <ele>72</ele>
        <time>2022-08-07T07:46:22.227Z</time>
      </trkpt>
      <trkpt lat="44.19108" lon="0.71831">
        <ele>72</ele>
        <time>2022-08-07T07:46:23.227Z</time>
      </trkpt>
      <trkpt lat="44.19107" lon="0.71832">
        <ele>72</ele>
        <time>2022-08-07T07:46:24.227Z</time>
      </trkpt>
      <trkpt lat="44.19106" lon="0.71833">
        <ele>72</ele>
        <time>2022-08-07T07:46:25.227Z</time>
      </trkpt>
      <trkpt lat="44.19105" lon="0.71833">
        <ele>73</ele>
        <time>2022-08-07T07:46:26.227Z</time>
      </trkpt>
      <trkpt lat="44.19103" lon="0.71834">
        <ele>73</ele>
        <time>2022-08-07T07:46:27.227Z</time>
      </trkpt>
      <trkpt lat="44.19102" lon="0.71835">
        <ele>73</ele>
        <time>2022-08-07T07:46:28.227Z</time>
      </trkpt>
      <trkpt lat="44.19101" lon="0.71836">
        <ele>73</ele>
        <time>2022-08-07T07:46:29.227Z</time>
      </trkpt>
      <trkpt lat="44.19099" lon="0.71836">
        <ele>73</ele>
        <time>2022-08-07T07:46:30.227Z</time>
      </trkpt>
      <trkpt lat="44.19098" lon="0.71837">
        <ele>73</ele>
        <time>2022-08-07T07:46:31.227Z</time>
      </trkpt>
      <trkpt lat="44.19097" lon="0.71837">
        <ele>73</ele>
        <time>2022-08-07T07:46:32.227Z</time>
      </trkpt>
      <trkpt lat="44.19095" lon="0.71837">
        <ele>73</ele>
        <time>2022-08-07T07:46:33.227Z</time>
      </trkpt>
      <trkpt lat="44.19094" lon="0.71838">
        <ele>74</ele>
        <time>2022-08-07T07:46:34.227Z</time>
      </trkpt>
      <trkpt lat="44.19092" lon="0.71838">
        <ele>73</ele>
        <time>2022-08-07T07:46:35.227Z</time>
      </trkpt>
      <trkpt lat="44.19091" lon="0.71839">
        <ele>73</ele>
        <time>2022-08-07T07:46:36.227Z</time>
      </trkpt>
      <trkpt lat="44.1909" lon="0.71839">
        <ele>73</ele>
        <time>2022-08-07T07:46:37.227Z</time>
      </trkpt>
      <trkpt lat="44.19088" lon="0.7184">
        <ele>72</ele>
        <time>2022-08-07T07:46:38.227Z</time>
      </trkpt>
      <trkpt lat="44.19087" lon="0.7184">
        <ele>72</ele>
        <time>2022-08-07T07:46:39.227Z</time>
      </trkpt>
      <trkpt lat="44.19086" lon="0.7184">
        <ele>72</ele>
        <time>2022-08-07T07:46:40.227Z</time>
      </trkpt>
      <trkpt lat="44.19084" lon="0.7184">
        <ele>72</ele>
        <time>2022-08-07T07:46:41.227Z</time>
      </trkpt>
      <trkpt lat="44.19083" lon="0.7184">
        <ele>72</ele>
        <time>2022-08-07T07:46:42.227Z</time>
      </trkpt>
      <trkpt lat="44.19082" lon="0.71841">
        <ele>72</ele>
        <time>2022-08-07T07:46:43.227Z</time>
      </trkpt>
      <trkpt lat="44.1908" lon="0.71841">
        <ele>71</ele>
        <time>2022-08-07T07:46:44.227Z</time>
      </trkpt>
      <trkpt lat="44.19079" lon="0.71841">
        <ele>71</ele>
        <time>2022-08-07T07:46:45.227Z</time>
      </trkpt>
      <trkpt lat="44.19077" lon="0.71841">
        <ele>71</ele>
        <time>2022-08-07T07:46:46.227Z</time>
      </trkpt>
      <trkpt lat="44.19076" lon="0.71841">
        <ele>72</ele>
        <time>2022-08-07T07:46:47.227Z</time>
      </trkpt>
      <trkpt lat="44.19074" lon="0.71841">
        <ele>72</ele>
        <time>2022-08-07T07:46:48.227Z</time>
      </trkpt>
      <trkpt lat="44.19073" lon="0.71841">
        <ele>71</ele>
        <time>2022-08-07T07:46:49.227Z</time>
      </trkpt>
      <trkpt lat="44.19071" lon="0.7184">
        <ele>71</ele>
        <time>2022-08-07T07:46:50.227Z</time>
      </trkpt>
      <trkpt lat="44.1907" lon="0.7184">
        <ele>71</ele>
        <time>2022-08-07T07:46:51.227Z</time>
      </trkpt>
      <trkpt lat="44.19069" lon="0.7184">
        <ele>71</ele>
        <time>2022-08-07T07:46:52.227Z</time>
      </trkpt>
      <trkpt lat="44.19067" lon="0.7184">
        <ele>71</ele>
        <time>2022-08-07T07:46:53.227Z</time>
      </trkpt>
      <trkpt lat="44.19066" lon="0.7184">
        <ele>71</ele>
        <time>2022-08-07T07:46:54.227Z</time>
      </trkpt>
      <trkpt lat="44.19065" lon="0.7184">
        <ele>71</ele>
        <time>2022-08-07T07:46:55.227Z</time>
      </trkpt>
      <trkpt lat="44.19063" lon="0.7184">
        <ele>71</ele>
        <time>2022-08-07T07:46:56.227Z</time>
      </trkpt>
      <trkpt lat="44.19062" lon="0.7184">
        <ele>71</ele>
        <time>2022-08-07T07:46:57.227Z</time>
      </trkpt>
      <trkpt lat="44.19061" lon="0.71839">
        <ele>71</ele>
        <time>2022-08-07T07:46:58.227Z</time>
      </trkpt>
      <trkpt lat="44.1906" lon="0.71838">
        <ele>71</ele>
        <time>2022-08-07T07:46:59.227Z</time>
      </trkpt>
      <trkpt lat="44.19059" lon="0.71837">
        <ele>70</ele>
        <time>2022-08-07T07:47:00.227Z</time>
      </trkpt>
      <trkpt lat="44.19059" lon="0.71836">
        <ele>69</ele>
        <time>2022-08-07T07:47:01.227Z</time>
      </trkpt>
      <trkpt lat="44.19059" lon="0.71836">
        <ele>68</ele>
        <time>2022-08-07T07:47:02.227Z</time>
      </trkpt>
      <trkpt lat="44.19059" lon="0.71835">
        <ele>68</ele>
        <time>2022-08-07T07:47:03.227Z</time>
      </trkpt>
      <trkpt lat="44.19059" lon="0.71835">
        <ele>68</ele>
        <time>2022-08-07T07:47:04.227Z</time>
      </trkpt>
      <trkpt lat="44.19059" lon="0.71835">
        <ele>68</ele>
        <time>2022-08-07T07:47:05.227Z</time>
      </trkpt>
      <trkpt lat="44.19059" lon="0.71835">
        <ele>69</ele>
        <time>2022-08-07T07:47:06.227Z</time>
      </trkpt>
      <trkpt lat="44.19059" lon="0.71835">
        <ele>69</ele>
        <time>2022-08-07T07:47:07.227Z</time>
      </trkpt>
      <trkpt lat="44.19059" lon="0.71834">
        <ele>69</ele>
        <time>2022-08-07T07:47:08.227Z</time>
      </trkpt>
      <trkpt lat="44.19059" lon="0.71834">
        <ele>70</ele>
        <time>2022-08-07T07:47:09.227Z</time>
      </trkpt>
      <trkpt lat="44.19059" lon="0.71834">
        <ele>70</ele>
        <time>2022-08-07T07:47:10.227Z</time>
      </trkpt>
      <trkpt lat="44.19059" lon="0.71834">
        <ele>70</ele>
        <time>2022-08-07T07:47:11.227Z</time>
      </trkpt>
      <trkpt lat="44.19059" lon="0.71834">
        <ele>70</ele>
        <time>2022-08-07T07:47:12.227Z</time>
      </trkpt>
      <trkpt lat="44.1906" lon="0.7183">
        <ele>71</ele>
        <time>2022-08-07T07:47:20.241Z</time>
      </trkpt>
      <trkpt lat="44.1906" lon="0.71829">
        <ele>71</ele>
        <time>2022-08-07T07:47:21.241Z</time>
      </trkpt>
      <trkpt lat="44.1906" lon="0.71828">
        <ele>71</ele>
        <time>2022-08-07T07:47:22.241Z</time>
      </trkpt>
      <trkpt lat="44.1906" lon="0.71827">
        <ele>71</ele>
        <time>2022-08-07T07:47:23.241Z</time>
      </trkpt>
      <trkpt lat="44.1906" lon="0.71826">
        <ele>71</ele>
        <time>2022-08-07T07:47:24.241Z</time>
      </trkpt>
      <trkpt lat="44.1906" lon="0.71824">
        <ele>71</ele>
        <time>2022-08-07T07:47:25.241Z</time>
      </trkpt>
      <trkpt lat="44.1906" lon="0.71823">
        <ele>70</ele>
        <time>2022-08-07T07:47:26.241Z</time>
      </trkpt>
      <trkpt lat="44.1906" lon="0.71821">
        <ele>70</ele>
        <time>2022-08-07T07:47:27.241Z</time>
      </trkpt>
      <trkpt lat="44.1906" lon="0.7182">
        <ele>70</ele>
        <time>2022-08-07T07:47:28.241Z</time>
      </trkpt>
      <trkpt lat="44.1906" lon="0.71819">
        <ele>71</ele>
        <time>2022-08-07T07:47:29.241Z</time>
      </trkpt>
      <trkpt lat="44.19059" lon="0.71817">
        <ele>70</ele>
        <time>2022-08-07T07:47:30.241Z</time>
      </trkpt>
      <trkpt lat="44.19059" lon="0.71816">
        <ele>71</ele>
        <time>2022-08-07T07:47:31.241Z</time>
      </trkpt>
      <trkpt lat="44.19059" lon="0.71814">
        <ele>71</ele>
        <time>2022-08-07T07:47:32.241Z</time>
      </trkpt>
      <trkpt lat="44.19058" lon="0.71813">
        <ele>71</ele>
        <time>2022-08-07T07:47:33.241Z</time>
      </trkpt>
      <trkpt lat="44.19058" lon="0.71812">
        <ele>71</ele>
        <time>2022-08-07T07:47:34.241Z</time>
      </trkpt>
      <trkpt lat="44.19058" lon="0.71811">
        <ele>72</ele>
        <time>2022-08-07T07:47:35.241Z</time>
      </trkpt>
      <trkpt lat="44.19058" lon="0.7181">
        <ele>72</ele>
        <time>2022-08-07T07:47:36.241Z</time>
      </trkpt>
      <trkpt lat="44.19058" lon="0.71809">
        <ele>72</ele>
        <time>2022-08-07T07:47:37.241Z</time>
      </trkpt>
      <trkpt lat="44.19057" lon="0.71808">
        <ele>72</ele>
        <time>2022-08-07T07:47:38.241Z</time>
      </trkpt>
      <trkpt lat="44.19058" lon="0.71807">
        <ele>73</ele>
        <time>2022-08-07T07:47:39.241Z</time>
      </trkpt>
      <trkpt lat="44.19058" lon="0.71805">
        <ele>73</ele>
        <time>2022-08-07T07:47:40.241Z</time>
      </trkpt>
      <trkpt lat="44.19058" lon="0.71804">
        <ele>73</ele>
        <time>2022-08-07T07:47:41.241Z</time>
      </trkpt>
      <trkpt lat="44.19058" lon="0.71803">
        <ele>74</ele>
        <time>2022-08-07T07:47:42.241Z</time>
      </trkpt>
      <trkpt lat="44.19058" lon="0.71802">
        <ele>74</ele>
        <time>2022-08-07T07:47:43.241Z</time>
      </trkpt>
      <trkpt lat="44.19058" lon="0.71801">
        <ele>74</ele>
        <time>2022-08-07T07:47:44.241Z</time>
      </trkpt>
      <trkpt lat="44.19057" lon="0.718">
        <ele>74</ele>
        <time>2022-08-07T07:47:45.241Z</time>
      </trkpt>
      <trkpt lat="44.19057" lon="0.71799">
        <ele>75</ele>
        <time>2022-08-07T07:47:46.241Z</time>
      </trkpt>
      <trkpt lat="44.19057" lon="0.71798">
        <ele>75</ele>
        <time>2022-08-07T07:47:47.241Z</time>
      </trkpt>
      <trkpt lat="44.19057" lon="0.71797">
        <ele>75</ele>
        <time>2022-08-07T07:47:48.241Z</time>
      </trkpt>
      <trkpt lat="44.19058" lon="0.71797">
        <ele>74</ele>
        <time>2022-08-07T07:47:49.241Z</time>
      </trkpt>
      <trkpt lat="44.19058" lon="0.71797">
        <ele>73</ele>
        <time>2022-08-07T07:47:50.241Z</time>
      </trkpt>
      <trkpt lat="44.19058" lon="0.71796">
        <ele>73</ele>
        <time>2022-08-07T07:47:51.241Z</time>
      </trkpt>
      <trkpt lat="44.19057" lon="0.71795">
        <ele>73</ele>
        <time>2022-08-07T07:47:52.241Z</time>
      </trkpt>
      <trkpt lat="44.19057" lon="0.71794">
        <ele>73</ele>
        <time>2022-08-07T07:47:53.241Z</time>
      </trkpt>
      <trkpt lat="44.19057" lon="0.71794">
        <ele>73</ele>
        <time>2022-08-07T07:47:54.241Z</time>
      </trkpt>
      <trkpt lat="44.19057" lon="0.71794">
        <ele>73</ele>
        <time>2022-08-07T07:47:55.241Z</time>
      </trkpt>
      <trkpt lat="44.19057" lon="0.71794">
        <ele>73</ele>
        <time>2022-08-07T07:47:56.241Z</time>
      </trkpt>
      <trkpt lat="44.19057" lon="0.71793">
        <ele>73</ele>
        <time>2022-08-07T07:47:57.241Z</time>
      </trkpt>
      <trkpt lat="44.19057" lon="0.71793">
        <ele>73</ele>
        <time>2022-08-07T07:47:58.241Z</time>
      </trkpt>
      <trkpt lat="44.19057" lon="0.71793">
        <ele>74</ele>
        <time>2022-08-07T07:47:59.241Z</time>
      </trkpt>
      <trkpt lat="44.19057" lon="0.71793">
        <ele>74</ele>
        <time>2022-08-07T07:48:00.241Z</time>
      </trkpt>
      <trkpt lat="44.19056" lon="0.71785">
        <ele>74</ele>
        <time>2022-08-07T07:48:11.251Z</time>
      </trkpt>
      <trkpt lat="44.19056" lon="0.71784">
        <ele>74</ele>
        <time>2022-08-07T07:48:12.251Z</time>
      </trkpt>
      <trkpt lat="44.19055" lon="0.71782">
        <ele>74</ele>
        <time>2022-08-07T07:48:13.251Z</time>
      </trkpt>
      <trkpt lat="44.19055" lon="0.71781">
        <ele>74</ele>
        <time>2022-08-07T07:48:14.251Z</time>
      </trkpt>
      <trkpt lat="44.19055" lon="0.7178">
        <ele>75</ele>
        <time>2022-08-07T07:48:15.251Z</time>
      </trkpt>
      <trkpt lat="44.19055" lon="0.71779">
        <ele>75</ele>
        <time>2022-08-07T07:48:16.251Z</time>
      </trkpt>
      <trkpt lat="44.19055" lon="0.71777">
        <ele>75</ele>
        <time>2022-08-07T07:48:17.251Z</time>
      </trkpt>
      <trkpt lat="44.19054" lon="0.71776">
        <ele>75</ele>
        <time>2022-08-07T07:48:18.251Z</time>
      </trkpt>
      <trkpt lat="44.19054" lon="0.71774">
        <ele>75</ele>
        <time>2022-08-07T07:48:19.251Z</time>
      </trkpt>
      <trkpt lat="44.19054" lon="0.71773">
        <ele>76</ele>
        <time>2022-08-07T07:48:20.251Z</time>
      </trkpt>
      <trkpt lat="44.19054" lon="0.71772">
        <ele>76</ele>
        <time>2022-08-07T07:48:21.251Z</time>
      </trkpt>
      <trkpt lat="44.19053" lon="0.71771">
        <ele>76</ele>
        <time>2022-08-07T07:48:22.251Z</time>
      </trkpt>
      <trkpt lat="44.19053" lon="0.71769">
        <ele>76</ele>
        <time>2022-08-07T07:48:23.251Z</time>
      </trkpt>
      <trkpt lat="44.19053" lon="0.71767">
        <ele>75</ele>
        <time>2022-08-07T07:48:24.251Z</time>
      </trkpt>
      <trkpt lat="44.19052" lon="0.71765">
        <ele>75</ele>
        <time>2022-08-07T07:48:25.251Z</time>
      </trkpt>
      <trkpt lat="44.19052" lon="0.71764">
        <ele>76</ele>
        <time>2022-08-07T07:48:26.251Z</time>
      </trkpt>
      <trkpt lat="44.19052" lon="0.71762">
        <ele>76</ele>
        <time>2022-08-07T07:48:27.251Z</time>
      </trkpt>
      <trkpt lat="44.19052" lon="0.71761">
        <ele>76</ele>
        <time>2022-08-07T07:48:28.251Z</time>
      </trkpt>
      <trkpt lat="44.19051" lon="0.7176">
        <ele>77</ele>
        <time>2022-08-07T07:48:29.251Z</time>
      </trkpt>
      <trkpt lat="44.19051" lon="0.71758">
        <ele>77</ele>
        <time>2022-08-07T07:48:30.251Z</time>
      </trkpt>
      <trkpt lat="44.1905" lon="0.71757">
        <ele>76</ele>
        <time>2022-08-07T07:48:31.251Z</time>
      </trkpt>
      <trkpt lat="44.19049" lon="0.71755">
        <ele>74</ele>
        <time>2022-08-07T07:48:32.251Z</time>
      </trkpt>
      <trkpt lat="44.19048" lon="0.71754">
        <ele>73</ele>
        <time>2022-08-07T07:48:33.251Z</time>
      </trkpt>
      <trkpt lat="44.19047" lon="0.71751">
        <ele>73</ele>
        <time>2022-08-07T07:48:34.251Z</time>
      </trkpt>
      <trkpt lat="44.19046" lon="0.71749">
        <ele>73</ele>
        <time>2022-08-07T07:48:35.251Z</time>
      </trkpt>
      <trkpt lat="44.19045" lon="0.71747">
        <ele>73</ele>
        <time>2022-08-07T07:48:36.251Z</time>
      </trkpt>
      <trkpt lat="44.19043" lon="0.71745">
        <ele>73</ele>
        <time>2022-08-07T07:48:37.251Z</time>
      </trkpt>
      <trkpt lat="44.19042" lon="0.71743">
        <ele>74</ele>
        <time>2022-08-07T07:48:38.251Z</time>
      </trkpt>
      <trkpt lat="44.19041" lon="0.71742">
        <ele>74</ele>
        <time>2022-08-07T07:48:39.251Z</time>
      </trkpt>
      <trkpt lat="44.19039" lon="0.7174">
        <ele>74</ele>
        <time>2022-08-07T07:48:40.251Z</time>
      </trkpt>
      <trkpt lat="44.19038" lon="0.71739">
        <ele>75</ele>
        <time>2022-08-07T07:48:41.251Z</time>
      </trkpt>
      <trkpt lat="44.19038" lon="0.71738">
        <ele>75</ele>
        <time>2022-08-07T07:48:42.251Z</time>
      </trkpt>
      <trkpt lat="44.19039" lon="0.71737">
        <ele>75</ele>
        <time>2022-08-07T07:48:43.251Z</time>
      </trkpt>
      <trkpt lat="44.19039" lon="0.71736">
        <ele>75</ele>
        <time>2022-08-07T07:48:44.251Z</time>
      </trkpt>
      <trkpt lat="44.19039" lon="0.71736">
        <ele>76</ele>
        <time>2022-08-07T07:48:45.251Z</time>
      </trkpt>
      <trkpt lat="44.19039" lon="0.71735">
        <ele>76</ele>
        <time>2022-08-07T07:48:46.251Z</time>
      </trkpt>
      <trkpt lat="44.1904" lon="0.71735">
        <ele>75</ele>
        <time>2022-08-07T07:48:47.251Z</time>
      </trkpt>
      <trkpt lat="44.1904" lon="0.71735">
        <ele>75</ele>
        <time>2022-08-07T07:48:48.251Z</time>
      </trkpt>
      <trkpt lat="44.1904" lon="0.71735">
        <ele>75</ele>
        <time>2022-08-07T07:48:49.251Z</time>
      </trkpt>
      <trkpt lat="44.19041" lon="0.71735">
        <ele>75</ele>
        <time>2022-08-07T07:48:50.251Z</time>
      </trkpt>
      <trkpt lat="44.19041" lon="0.71735">
        <ele>75</ele>
        <time>2022-08-07T07:48:51.251Z</time>
      </trkpt>
      <trkpt lat="44.19041" lon="0.71735">
        <ele>75</ele>
        <time>2022-08-07T07:48:52.251Z</time>
      </trkpt>
      <trkpt lat="44.19042" lon="0.71736">
        <ele>74</ele>
        <time>2022-08-07T07:48:53.251Z</time>
      </trkpt>
      <trkpt lat="44.19042" lon="0.71736">
        <ele>74</ele>
        <time>2022-08-07T07:48:54.251Z</time>
      </trkpt>
      <trkpt lat="44.19043" lon="0.71737">
        <ele>75</ele>
        <time>2022-08-07T07:48:55.251Z</time>
      </trkpt>
      <trkpt lat="44.19043" lon="0.71737">
        <ele>75</ele>
        <time>2022-08-07T07:48:56.251Z</time>
      </trkpt>
      <trkpt lat="44.19044" lon="0.71737">
        <ele>74</ele>
        <time>2022-08-07T07:48:57.251Z</time>
      </trkpt>
      <trkpt lat="44.19044" lon="0.71737">
        <ele>74</ele>
        <time>2022-08-07T07:48:58.251Z</time>
      </trkpt>
      <trkpt lat="44.19045" lon="0.71738">
        <ele>74</ele>
        <time>2022-08-07T07:48:59.251Z</time>
      </trkpt>
      <trkpt lat="44.19045" lon="0.71738">
        <ele>74</ele>
        <time>2022-08-07T07:49:00.251Z</time>
      </trkpt>
      <trkpt lat="44.19046" lon="0.71739">
        <ele>74</ele>
        <time>2022-08-07T07:49:01.251Z</time>
      </trkpt>
      <trkpt lat="44.19046" lon="0.71739">
        <ele>74</ele>
        <time>2022-08-07T07:49:02.251Z</time>
      </trkpt>
      <trkpt lat="44.19047" lon="0.71739">
        <ele>74</ele>
        <time>2022-08-07T07:49:03.251Z</time>
      </trkpt>
      <trkpt lat="44.19047" lon="0.7174">
        <ele>74</ele>
        <time>2022-08-07T07:49:04.251Z</time>
      </trkpt>
      <trkpt lat="44.19043" lon="0.71736">
        <ele>72</ele>
        <time>2022-08-07T07:49:12.269Z</time>
      </trkpt>
      <trkpt lat="44.19042" lon="0.71735">
        <ele>71</ele>
        <time>2022-08-07T07:49:13.269Z</time>
      </trkpt>
      <trkpt lat="44.19041" lon="0.71734">
        <ele>72</ele>
        <time>2022-08-07T07:49:14.269Z</time>
      </trkpt>
      <trkpt lat="44.1904" lon="0.71733">
        <ele>72</ele>
        <time>2022-08-07T07:49:15.269Z</time>
      </trkpt>
      <trkpt lat="44.19039" lon="0.71732">
        <ele>72</ele>
        <time>2022-08-07T07:49:16.269Z</time>
      </trkpt>
      <trkpt lat="44.19039" lon="0.71731">
        <ele>73</ele>
        <time>2022-08-07T07:49:17.269Z</time>
      </trkpt>
      <trkpt lat="44.19038" lon="0.71731">
        <ele>72</ele>
        <time>2022-08-07T07:49:18.269Z</time>
      </trkpt>
      <trkpt lat="44.19038" lon="0.71731">
        <ele>72</ele>
        <time>2022-08-07T07:49:19.269Z</time>
      </trkpt>
      <trkpt lat="44.19037" lon="0.71732">
        <ele>72</ele>
        <time>2022-08-07T07:49:20.269Z</time>
      </trkpt>
      <trkpt lat="44.19037" lon="0.71732">
        <ele>73</ele>
        <time>2022-08-07T07:49:21.269Z</time>
      </trkpt>
      <trkpt lat="44.19037" lon="0.71732">
        <ele>73</ele>
        <time>2022-08-07T07:49:22.269Z</time>
      </trkpt>
      <trkpt lat="44.19037" lon="0.71732">
        <ele>73</ele>
        <time>2022-08-07T07:49:23.269Z</time>
      </trkpt>
      <trkpt lat="44.19038" lon="0.71732">
        <ele>73</ele>
        <time>2022-08-07T07:49:24.269Z</time>
      </trkpt>
      <trkpt lat="44.19038" lon="0.71732">
        <ele>73</ele>
        <time>2022-08-07T07:49:25.269Z</time>
      </trkpt>
      <trkpt lat="44.19038" lon="0.71732">
        <ele>73</ele>
        <time>2022-08-07T07:49:26.269Z</time>
      </trkpt>
      <trkpt lat="44.19036" lon="0.71727">
        <ele>76</ele>
        <time>2022-08-07T07:49:40.283Z</time>
      </trkpt>
      <trkpt lat="44.19035" lon="0.71726">
        <ele>76</ele>
        <time>2022-08-07T07:49:41.283Z</time>
      </trkpt>
      <trkpt lat="44.19035" lon="0.71725">
        <ele>77</ele>
        <time>2022-08-07T07:49:42.283Z</time>
      </trkpt>
      <trkpt lat="44.19034" lon="0.71724">
        <ele>76</ele>
        <time>2022-08-07T07:49:43.283Z</time>
      </trkpt>
      <trkpt lat="44.19033" lon="0.71724">
        <ele>77</ele>
        <time>2022-08-07T07:49:44.283Z</time>
      </trkpt>
      <trkpt lat="44.19033" lon="0.71723">
        <ele>76</ele>
        <time>2022-08-07T07:49:45.283Z</time>
      </trkpt>
      <trkpt lat="44.19032" lon="0.71722">
        <ele>77</ele>
        <time>2022-08-07T07:49:46.283Z</time>
      </trkpt>
      <trkpt lat="44.19032" lon="0.71722">
        <ele>77</ele>
        <time>2022-08-07T07:49:47.283Z</time>
      </trkpt>
      <trkpt lat="44.19031" lon="0.71722">
        <ele>77</ele>
        <time>2022-08-07T07:49:48.283Z</time>
      </trkpt>
      <trkpt lat="44.19031" lon="0.71721">
        <ele>78</ele>
        <time>2022-08-07T07:49:49.283Z</time>
      </trkpt>
      <trkpt lat="44.1903" lon="0.71721">
        <ele>79</ele>
        <time>2022-08-07T07:49:50.283Z</time>
      </trkpt>
      <trkpt lat="44.19029" lon="0.71721">
        <ele>78</ele>
        <time>2022-08-07T07:49:51.283Z</time>
      </trkpt>
      <trkpt lat="44.19029" lon="0.7172">
        <ele>79</ele>
        <time>2022-08-07T07:49:52.283Z</time>
      </trkpt>
      <trkpt lat="44.19028" lon="0.7172">
        <ele>79</ele>
        <time>2022-08-07T07:49:53.283Z</time>
      </trkpt>
      <trkpt lat="44.19028" lon="0.7172">
        <ele>79</ele>
        <time>2022-08-07T07:49:54.283Z</time>
      </trkpt>
      <trkpt lat="44.19027" lon="0.71719">
        <ele>79</ele>
        <time>2022-08-07T07:49:55.283Z</time>
      </trkpt>
      <trkpt lat="44.19027" lon="0.71719">
        <ele>79</ele>
        <time>2022-08-07T07:49:56.283Z</time>
      </trkpt>
      <trkpt lat="44.19026" lon="0.71718">
        <ele>79</ele>
        <time>2022-08-07T07:49:57.283Z</time>
      </trkpt>
      <trkpt lat="44.19025" lon="0.71718">
        <ele>80</ele>
        <time>2022-08-07T07:49:58.283Z</time>
      </trkpt>
      <trkpt lat="44.19024" lon="0.71718">
        <ele>78</ele>
        <time>2022-08-07T07:49:59.283Z</time>
      </trkpt>
      <trkpt lat="44.19023" lon="0.71718">
        <ele>79</ele>
        <time>2022-08-07T07:50:00.283Z</time>
      </trkpt>
      <trkpt lat="44.19023" lon="0.71717">
        <ele>79</ele>
        <time>2022-08-07T07:50:01.283Z</time>
      </trkpt>
      <trkpt lat="44.19022" lon="0.71717">
        <ele>79</ele>
        <time>2022-08-07T07:50:02.283Z</time>
      </trkpt>
      <trkpt lat="44.19021" lon="0.71717">
        <ele>79</ele>
        <time>2022-08-07T07:50:03.283Z</time>
      </trkpt>
      <trkpt lat="44.19021" lon="0.71716">
        <ele>79</ele>
        <time>2022-08-07T07:50:04.283Z</time>
      </trkpt>
      <trkpt lat="44.1902" lon="0.71716">
        <ele>79</ele>
        <time>2022-08-07T07:50:05.283Z</time>
      </trkpt>
      <trkpt lat="44.1902" lon="0.71715">
        <ele>79</ele>
        <time>2022-08-07T07:50:06.283Z</time>
      </trkpt>
      <trkpt lat="44.19019" lon="0.71715">
        <ele>79</ele>
        <time>2022-08-07T07:50:07.283Z</time>
      </trkpt>
      <trkpt lat="44.19019" lon="0.71715">
        <ele>79</ele>
        <time>2022-08-07T07:50:08.283Z</time>
      </trkpt>
      <trkpt lat="44.19018" lon="0.71714">
        <ele>79</ele>
        <time>2022-08-07T07:50:09.283Z</time>
      </trkpt>
      <trkpt lat="44.19018" lon="0.71714">
        <ele>79</ele>
        <time>2022-08-07T07:50:10.283Z</time>
      </trkpt>
      <trkpt lat="44.19017" lon="0.71714">
        <ele>80</ele>
        <time>2022-08-07T07:50:11.283Z</time>
      </trkpt>
      <trkpt lat="44.19017" lon="0.71714">
        <ele>80</ele>
        <time>2022-08-07T07:50:12.283Z</time>
      </trkpt>
      <trkpt lat="44.19016" lon="0.71714">
        <ele>80</ele>
        <time>2022-08-07T07:50:13.283Z</time>
      </trkpt>
      <trkpt lat="44.19016" lon="0.71714">
        <ele>80</ele>
        <time>2022-08-07T07:50:14.283Z</time>
      </trkpt>
      <trkpt lat="44.19015" lon="0.71713">
        <ele>80</ele>
        <time>2022-08-07T07:50:15.283Z</time>
      </trkpt>
      <trkpt lat="44.19014" lon="0.71713">
        <ele>80</ele>
        <time>2022-08-07T07:50:16.283Z</time>
      </trkpt>
      <trkpt lat="44.19013" lon="0.71712">
        <ele>79</ele>
        <time>2022-08-07T07:50:17.283Z</time>
      </trkpt>
      <trkpt lat="44.19012" lon="0.71712">
        <ele>78</ele>
        <time>2022-08-07T07:50:18.283Z</time>
      </trkpt>
      <trkpt lat="44.19011" lon="0.71712">
        <ele>78</ele>
        <time>2022-08-07T07:50:19.283Z</time>
      </trkpt>
      <trkpt lat="44.1901" lon="0.71711">
        <ele>78</ele>
        <time>2022-08-07T07:50:20.283Z</time>
      </trkpt>
      <trkpt lat="44.1901" lon="0.7171">
        <ele>79</ele>
        <time>2022-08-07T07:50:21.283Z</time>
      </trkpt>
      <trkpt lat="44.19009" lon="0.7171">
        <ele>79</ele>
        <time>2022-08-07T07:50:22.283Z</time>
      </trkpt>
      <trkpt lat="44.19008" lon="0.71709">
        <ele>79</ele>
        <time>2022-08-07T07:50:23.283Z</time>
      </trkpt>
      <trkpt lat="44.19007" lon="0.71709">
        <ele>80</ele>
        <time>2022-08-07T07:50:24.283Z</time>
      </trkpt>
      <trkpt lat="44.19007" lon="0.71708">
        <ele>80</ele>
        <time>2022-08-07T07:50:25.283Z</time>
      </trkpt>
      <trkpt lat="44.19006" lon="0.71708">
        <ele>80</ele>
        <time>2022-08-07T07:50:26.283Z</time>
      </trkpt>
      <trkpt lat="44.19005" lon="0.71708">
        <ele>81</ele>
        <time>2022-08-07T07:50:27.283Z</time>
      </trkpt>
      <trkpt lat="44.19005" lon="0.71708">
        <ele>80</ele>
        <time>2022-08-07T07:50:28.283Z</time>
      </trkpt>
      <trkpt lat="44.19004" lon="0.71707">
        <ele>80</ele>
        <time>2022-08-07T07:50:29.283Z</time>
      </trkpt>
      <trkpt lat="44.19003" lon="0.71707">
        <ele>81</ele>
        <time>2022-08-07T07:50:30.283Z</time>
      </trkpt>
      <trkpt lat="44.19003" lon="0.71708">
        <ele>81</ele>
        <time>2022-08-07T07:50:31.283Z</time>
      </trkpt>
      <trkpt lat="44.19002" lon="0.71708">
        <ele>80</ele>
        <time>2022-08-07T07:50:32.283Z</time>
      </trkpt>
      <trkpt lat="44.19002" lon="0.71707">
        <ele>81</ele>
        <time>2022-08-07T07:50:33.283Z</time>
      </trkpt>
      <trkpt lat="44.19001" lon="0.71707">
        <ele>81</ele>
        <time>2022-08-07T07:50:34.283Z</time>
      </trkpt>
      <trkpt lat="44.19001" lon="0.71707">
        <ele>81</ele>
        <time>2022-08-07T07:50:35.283Z</time>
      </trkpt>
      <trkpt lat="44.19" lon="0.71706">
        <ele>81</ele>
        <time>2022-08-07T07:50:36.283Z</time>
      </trkpt>
      <trkpt lat="44.18999" lon="0.71706">
        <ele>81</ele>
        <time>2022-08-07T07:50:37.283Z</time>
      </trkpt>
      <trkpt lat="44.18999" lon="0.71706">
        <ele>82</ele>
        <time>2022-08-07T07:50:38.283Z</time>
      </trkpt>
      <trkpt lat="44.18998" lon="0.71706">
        <ele>82</ele>
        <time>2022-08-07T07:50:39.283Z</time>
      </trkpt>
      <trkpt lat="44.18998" lon="0.71705">
        <ele>82</ele>
        <time>2022-08-07T07:50:40.283Z</time>
      </trkpt>
      <trkpt lat="44.18997" lon="0.71705">
        <ele>82</ele>
        <time>2022-08-07T07:50:41.283Z</time>
      </trkpt>
      <trkpt lat="44.18996" lon="0.71705">
        <ele>82</ele>
        <time>2022-08-07T07:50:42.283Z</time>
      </trkpt>
      <trkpt lat="44.18996" lon="0.71704">
        <ele>82</ele>
        <time>2022-08-07T07:50:43.283Z</time>
      </trkpt>
      <trkpt lat="44.18995" lon="0.71704">
        <ele>82</ele>
        <time>2022-08-07T07:50:44.283Z</time>
      </trkpt>
      <trkpt lat="44.18994" lon="0.71704">
        <ele>82</ele>
        <time>2022-08-07T07:50:45.283Z</time>
      </trkpt>
      <trkpt lat="44.18993" lon="0.71703">
        <ele>81</ele>
        <time>2022-08-07T07:50:46.283Z</time>
      </trkpt>
      <trkpt lat="44.18992" lon="0.71703">
        <ele>82</ele>
        <time>2022-08-07T07:50:47.283Z</time>
      </trkpt>
      <trkpt lat="44.18991" lon="0.71703">
        <ele>82</ele>
        <time>2022-08-07T07:50:48.283Z</time>
      </trkpt>
      <trkpt lat="44.18991" lon="0.71703">
        <ele>83</ele>
        <time>2022-08-07T07:50:49.283Z</time>
      </trkpt>
      <trkpt lat="44.1899" lon="0.71702">
        <ele>84</ele>
        <time>2022-08-07T07:50:50.283Z</time>
      </trkpt>
      <trkpt lat="44.1899" lon="0.71702">
        <ele>84</ele>
        <time>2022-08-07T07:50:51.283Z</time>
      </trkpt>
      <trkpt lat="44.18989" lon="0.71701">
        <ele>84</ele>
        <time>2022-08-07T07:50:52.283Z</time>
      </trkpt>
      <trkpt lat="44.18989" lon="0.71701">
        <ele>84</ele>
        <time>2022-08-07T07:50:53.283Z</time>
      </trkpt>
      <trkpt lat="44.18988" lon="0.71701">
        <ele>84</ele>
        <time>2022-08-07T07:50:54.283Z</time>
      </trkpt>
      <trkpt lat="44.18987" lon="0.71701">
        <ele>84</ele>
        <time>2022-08-07T07:50:55.283Z</time>
      </trkpt>
      <trkpt lat="44.18986" lon="0.71701">
        <ele>84</ele>
        <time>2022-08-07T07:50:56.283Z</time>
      </trkpt>
      <trkpt lat="44.18986" lon="0.717">
        <ele>84</ele>
        <time>2022-08-07T07:50:57.283Z</time>
      </trkpt>
      <trkpt lat="44.18985" lon="0.717">
        <ele>84</ele>
        <time>2022-08-07T07:50:58.283Z</time>
      </trkpt>
      <trkpt lat="44.18984" lon="0.717">
        <ele>84</ele>
        <time>2022-08-07T07:50:59.283Z</time>
      </trkpt>
      <trkpt lat="44.18984" lon="0.717">
        <ele>85</ele>
        <time>2022-08-07T07:51:00.283Z</time>
      </trkpt>
      <trkpt lat="44.18983" lon="0.717">
        <ele>84</ele>
        <time>2022-08-07T07:51:01.283Z</time>
      </trkpt>
      <trkpt lat="44.18982" lon="0.717">
        <ele>84</ele>
        <time>2022-08-07T07:51:02.283Z</time>
      </trkpt>
      <trkpt lat="44.18981" lon="0.717">
        <ele>84</ele>
        <time>2022-08-07T07:51:03.283Z</time>
      </trkpt>
      <trkpt lat="44.1898" lon="0.717">
        <ele>84</ele>
        <time>2022-08-07T07:51:04.283Z</time>
      </trkpt>
      <trkpt lat="44.1898" lon="0.717">
        <ele>84</ele>
        <time>2022-08-07T07:51:05.283Z</time>
      </trkpt>
      <trkpt lat="44.18979" lon="0.717">
        <ele>85</ele>
        <time>2022-08-07T07:51:06.283Z</time>
      </trkpt>
      <trkpt lat="44.18978" lon="0.717">
        <ele>85</ele>
        <time>2022-08-07T07:51:07.283Z</time>
      </trkpt>
      <trkpt lat="44.18978" lon="0.71699">
        <ele>86</ele>
        <time>2022-08-07T07:51:08.283Z</time>
      </trkpt>
      <trkpt lat="44.18977" lon="0.71699">
        <ele>86</ele>
        <time>2022-08-07T07:51:09.283Z</time>
      </trkpt>
      <trkpt lat="44.18976" lon="0.71699">
        <ele>86</ele>
        <time>2022-08-07T07:51:10.283Z</time>
      </trkpt>
      <trkpt lat="44.18975" lon="0.71699">
        <ele>85</ele>
        <time>2022-08-07T07:51:11.283Z</time>
      </trkpt>
      <trkpt lat="44.18974" lon="0.71699">
        <ele>86</ele>
        <time>2022-08-07T07:51:12.283Z</time>
      </trkpt>
      <trkpt lat="44.18974" lon="0.71698">
        <ele>86</ele>
        <time>2022-08-07T07:51:13.283Z</time>
      </trkpt>
      <trkpt lat="44.18973" lon="0.71698">
        <ele>87</ele>
        <time>2022-08-07T07:51:14.283Z</time>
      </trkpt>
      <trkpt lat="44.18972" lon="0.71697">
        <ele>87</ele>
        <time>2022-08-07T07:51:15.283Z</time>
      </trkpt>
      <trkpt lat="44.18971" lon="0.71697">
        <ele>86</ele>
        <time>2022-08-07T07:51:16.283Z</time>
      </trkpt>
      <trkpt lat="44.1897" lon="0.71697">
        <ele>86</ele>
        <time>2022-08-07T07:51:17.283Z</time>
      </trkpt>
      <trkpt lat="44.18969" lon="0.71696">
        <ele>87</ele>
        <time>2022-08-07T07:51:18.283Z</time>
      </trkpt>
      <trkpt lat="44.18968" lon="0.71695">
        <ele>89</ele>
        <time>2022-08-07T07:51:19.283Z</time>
      </trkpt>
      <trkpt lat="44.18967" lon="0.71695">
        <ele>89</ele>
        <time>2022-08-07T07:51:20.283Z</time>
      </trkpt>
      <trkpt lat="44.18966" lon="0.71694">
        <ele>89</ele>
        <time>2022-08-07T07:51:21.283Z</time>
      </trkpt>
      <trkpt lat="44.18965" lon="0.71694">
        <ele>89</ele>
        <time>2022-08-07T07:51:22.283Z</time>
      </trkpt>
      <trkpt lat="44.18965" lon="0.71694">
        <ele>89</ele>
        <time>2022-08-07T07:51:23.283Z</time>
      </trkpt>
      <trkpt lat="44.18964" lon="0.71694">
        <ele>90</ele>
        <time>2022-08-07T07:51:24.283Z</time>
      </trkpt>
      <trkpt lat="44.18963" lon="0.71693">
        <ele>91</ele>
        <time>2022-08-07T07:51:25.283Z</time>
      </trkpt>
      <trkpt lat="44.18962" lon="0.71693">
        <ele>91</ele>
        <time>2022-08-07T07:51:26.283Z</time>
      </trkpt>
      <trkpt lat="44.18962" lon="0.71692">
        <ele>91</ele>
        <time>2022-08-07T07:51:27.283Z</time>
      </trkpt>
      <trkpt lat="44.18961" lon="0.71692">
        <ele>91</ele>
        <time>2022-08-07T07:51:28.283Z</time>
      </trkpt>
      <trkpt lat="44.1896" lon="0.71691">
        <ele>92</ele>
        <time>2022-08-07T07:51:29.283Z</time>
      </trkpt>
      <trkpt lat="44.18959" lon="0.71691">
        <ele>92</ele>
        <time>2022-08-07T07:51:30.283Z</time>
      </trkpt>
      <trkpt lat="44.18959" lon="0.7169">
        <ele>92</ele>
        <time>2022-08-07T07:51:31.283Z</time>
      </trkpt>
      <trkpt lat="44.18958" lon="0.71689">
        <ele>94</ele>
        <time>2022-08-07T07:51:32.283Z</time>
      </trkpt>
      <trkpt lat="44.18957" lon="0.71689">
        <ele>94</ele>
        <time>2022-08-07T07:51:33.283Z</time>
      </trkpt>
      <trkpt lat="44.18956" lon="0.71688">
        <ele>94</ele>
        <time>2022-08-07T07:51:34.283Z</time>
      </trkpt>
      <trkpt lat="44.18955" lon="0.71688">
        <ele>94</ele>
        <time>2022-08-07T07:51:35.283Z</time>
      </trkpt>
      <trkpt lat="44.18955" lon="0.71687">
        <ele>93</ele>
        <time>2022-08-07T07:51:36.283Z</time>
      </trkpt>
      <trkpt lat="44.18954" lon="0.71687">
        <ele>94</ele>
        <time>2022-08-07T07:51:37.283Z</time>
      </trkpt>
      <trkpt lat="44.18954" lon="0.71686">
        <ele>94</ele>
        <time>2022-08-07T07:51:38.283Z</time>
      </trkpt>
      <trkpt lat="44.18953" lon="0.71685">
        <ele>94</ele>
        <time>2022-08-07T07:51:39.283Z</time>
      </trkpt>
      <trkpt lat="44.18952" lon="0.71684">
        <ele>95</ele>
        <time>2022-08-07T07:51:40.283Z</time>
      </trkpt>
      <trkpt lat="44.18951" lon="0.71684">
        <ele>95</ele>
        <time>2022-08-07T07:51:41.283Z</time>
      </trkpt>
      <trkpt lat="44.18951" lon="0.71683">
        <ele>94</ele>
        <time>2022-08-07T07:51:42.283Z</time>
      </trkpt>
      <trkpt lat="44.1895" lon="0.71682">
        <ele>94</ele>
        <time>2022-08-07T07:51:43.283Z</time>
      </trkpt>
      <trkpt lat="44.1895" lon="0.71681">
        <ele>94</ele>
        <time>2022-08-07T07:51:44.283Z</time>
      </trkpt>
      <trkpt lat="44.18949" lon="0.7168">
        <ele>95</ele>
        <time>2022-08-07T07:51:45.283Z</time>
      </trkpt>
      <trkpt lat="44.18948" lon="0.71679">
        <ele>95</ele>
        <time>2022-08-07T07:51:46.283Z</time>
      </trkpt>
      <trkpt lat="44.18948" lon="0.71679">
        <ele>95</ele>
        <time>2022-08-07T07:51:47.283Z</time>
      </trkpt>
      <trkpt lat="44.18947" lon="0.71678">
        <ele>95</ele>
        <time>2022-08-07T07:51:48.283Z</time>
      </trkpt>
      <trkpt lat="44.18946" lon="0.71677">
        <ele>95</ele>
        <time>2022-08-07T07:51:49.283Z</time>
      </trkpt>
      <trkpt lat="44.18945" lon="0.71676">
        <ele>95</ele>
        <time>2022-08-07T07:51:50.283Z</time>
      </trkpt>
      <trkpt lat="44.18944" lon="0.71675">
        <ele>95</ele>
        <time>2022-08-07T07:51:51.283Z</time>
      </trkpt>
      <trkpt lat="44.18944" lon="0.71675">
        <ele>95</ele>
        <time>2022-08-07T07:51:52.283Z</time>
      </trkpt>
      <trkpt lat="44.18943" lon="0.71674">
        <ele>95</ele>
        <time>2022-08-07T07:51:53.283Z</time>
      </trkpt>
      <trkpt lat="44.18943" lon="0.71673">
        <ele>95</ele>
        <time>2022-08-07T07:51:54.283Z</time>
      </trkpt>
      <trkpt lat="44.18942" lon="0.71672">
        <ele>95</ele>
        <time>2022-08-07T07:51:55.283Z</time>
      </trkpt>
      <trkpt lat="44.18941" lon="0.71671">
        <ele>95</ele>
        <time>2022-08-07T07:51:56.283Z</time>
      </trkpt>
      <trkpt lat="44.1894" lon="0.71671">
        <ele>94</ele>
        <time>2022-08-07T07:51:57.283Z</time>
      </trkpt>
      <trkpt lat="44.1894" lon="0.7167">
        <ele>93</ele>
        <time>2022-08-07T07:51:58.283Z</time>
      </trkpt>
      <trkpt lat="44.18939" lon="0.71669">
        <ele>93</ele>
        <time>2022-08-07T07:51:59.283Z</time>
      </trkpt>
      <trkpt lat="44.18938" lon="0.71668">
        <ele>93</ele>
        <time>2022-08-07T07:52:00.283Z</time>
      </trkpt>
      <trkpt lat="44.18937" lon="0.71667">
        <ele>93</ele>
        <time>2022-08-07T07:52:01.283Z</time>
      </trkpt>
      <trkpt lat="44.18937" lon="0.71666">
        <ele>93</ele>
        <time>2022-08-07T07:52:02.283Z</time>
      </trkpt>
      <trkpt lat="44.18936" lon="0.71665">
        <ele>93</ele>
        <time>2022-08-07T07:52:03.283Z</time>
      </trkpt>
      <trkpt lat="44.18936" lon="0.71664">
        <ele>94</ele>
        <time>2022-08-07T07:52:04.283Z</time>
      </trkpt>
      <trkpt lat="44.18935" lon="0.71662">
        <ele>94</ele>
        <time>2022-08-07T07:52:05.283Z</time>
      </trkpt>
      <trkpt lat="44.18935" lon="0.71661">
        <ele>95</ele>
        <time>2022-08-07T07:52:06.283Z</time>
      </trkpt>
      <trkpt lat="44.18934" lon="0.7166">
        <ele>96</ele>
        <time>2022-08-07T07:52:07.283Z</time>
      </trkpt>
      <trkpt lat="44.18934" lon="0.71658">
        <ele>96</ele>
        <time>2022-08-07T07:52:08.283Z</time>
      </trkpt>
      <trkpt lat="44.18933" lon="0.71657">
        <ele>96</ele>
        <time>2022-08-07T07:52:09.283Z</time>
      </trkpt>
      <trkpt lat="44.18933" lon="0.71656">
        <ele>96</ele>
        <time>2022-08-07T07:52:10.283Z</time>
      </trkpt>
      <trkpt lat="44.18933" lon="0.71655">
        <ele>96</ele>
        <time>2022-08-07T07:52:11.283Z</time>
      </trkpt>
      <trkpt lat="44.18932" lon="0.71653">
        <ele>95</ele>
        <time>2022-08-07T07:52:12.283Z</time>
      </trkpt>
      <trkpt lat="44.18932" lon="0.71652">
        <ele>95</ele>
        <time>2022-08-07T07:52:13.283Z</time>
      </trkpt>
      <trkpt lat="44.18932" lon="0.71651">
        <ele>95</ele>
        <time>2022-08-07T07:52:14.283Z</time>
      </trkpt>
      <trkpt lat="44.18932" lon="0.7165">
        <ele>94</ele>
        <time>2022-08-07T07:52:15.283Z</time>
      </trkpt>
      <trkpt lat="44.18931" lon="0.71649">
        <ele>94</ele>
        <time>2022-08-07T07:52:16.283Z</time>
      </trkpt>
      <trkpt lat="44.18931" lon="0.71647">
        <ele>94</ele>
        <time>2022-08-07T07:52:17.283Z</time>
      </trkpt>
      <trkpt lat="44.18931" lon="0.71646">
        <ele>94</ele>
        <time>2022-08-07T07:52:18.283Z</time>
      </trkpt>
      <trkpt lat="44.1893" lon="0.71645">
        <ele>94</ele>
        <time>2022-08-07T07:52:19.283Z</time>
      </trkpt>
      <trkpt lat="44.1893" lon="0.71643">
        <ele>93</ele>
        <time>2022-08-07T07:52:20.283Z</time>
      </trkpt>
      <trkpt lat="44.18929" lon="0.71642">
        <ele>94</ele>
        <time>2022-08-07T07:52:21.283Z</time>
      </trkpt>
      <trkpt lat="44.18929" lon="0.71641">
        <ele>94</ele>
        <time>2022-08-07T07:52:22.283Z</time>
      </trkpt>
      <trkpt lat="44.18929" lon="0.71639">
        <ele>92</ele>
        <time>2022-08-07T07:52:23.283Z</time>
      </trkpt>
      <trkpt lat="44.18928" lon="0.71638">
        <ele>92</ele>
        <time>2022-08-07T07:52:24.283Z</time>
      </trkpt>
      <trkpt lat="44.18928" lon="0.71637">
        <ele>92</ele>
        <time>2022-08-07T07:52:25.283Z</time>
      </trkpt>
      <trkpt lat="44.18928" lon="0.71636">
        <ele>92</ele>
        <time>2022-08-07T07:52:26.283Z</time>
      </trkpt>
      <trkpt lat="44.18927" lon="0.71634">
        <ele>92</ele>
        <time>2022-08-07T07:52:27.283Z</time>
      </trkpt>
      <trkpt lat="44.18927" lon="0.71633">
        <ele>92</ele>
        <time>2022-08-07T07:52:28.283Z</time>
      </trkpt>
      <trkpt lat="44.18926" lon="0.71632">
        <ele>92</ele>
        <time>2022-08-07T07:52:29.283Z</time>
      </trkpt>
      <trkpt lat="44.18926" lon="0.71631">
        <ele>92</ele>
        <time>2022-08-07T07:52:30.283Z</time>
      </trkpt>
      <trkpt lat="44.18925" lon="0.71629">
        <ele>93</ele>
        <time>2022-08-07T07:52:31.283Z</time>
      </trkpt>
      <trkpt lat="44.18925" lon="0.71628">
        <ele>93</ele>
        <time>2022-08-07T07:52:32.283Z</time>
      </trkpt>
      <trkpt lat="44.18924" lon="0.71626">
        <ele>94</ele>
        <time>2022-08-07T07:52:33.283Z</time>
      </trkpt>
      <trkpt lat="44.18924" lon="0.71625">
        <ele>94</ele>
        <time>2022-08-07T07:52:34.283Z</time>
      </trkpt>
      <trkpt lat="44.18924" lon="0.71623">
        <ele>96</ele>
        <time>2022-08-07T07:52:35.283Z</time>
      </trkpt>
      <trkpt lat="44.18923" lon="0.71622">
        <ele>97</ele>
        <time>2022-08-07T07:52:36.283Z</time>
      </trkpt>
      <trkpt lat="44.18923" lon="0.71621">
        <ele>97</ele>
        <time>2022-08-07T07:52:37.283Z</time>
      </trkpt>
      <trkpt lat="44.18923" lon="0.7162">
        <ele>97</ele>
        <time>2022-08-07T07:52:38.283Z</time>
      </trkpt>
      <trkpt lat="44.18923" lon="0.7162">
        <ele>97</ele>
        <time>2022-08-07T07:52:39.283Z</time>
      </trkpt>
      <trkpt lat="44.18923" lon="0.71619">
        <ele>97</ele>
        <time>2022-08-07T07:52:40.283Z</time>
      </trkpt>
      <trkpt lat="44.18923" lon="0.71619">
        <ele>97</ele>
        <time>2022-08-07T07:52:41.283Z</time>
      </trkpt>
      <trkpt lat="44.18923" lon="0.71618">
        <ele>97</ele>
        <time>2022-08-07T07:52:42.283Z</time>
      </trkpt>
      <trkpt lat="44.18923" lon="0.71618">
        <ele>97</ele>
        <time>2022-08-07T07:52:43.283Z</time>
      </trkpt>
      <trkpt lat="44.18923" lon="0.71618">
        <ele>98</ele>
        <time>2022-08-07T07:52:44.283Z</time>
      </trkpt>
      <trkpt lat="44.18923" lon="0.71613">
        <ele>97</ele>
        <time>2022-08-07T07:52:57.293Z</time>
      </trkpt>
      <trkpt lat="44.18923" lon="0.71612">
        <ele>97</ele>
        <time>2022-08-07T07:52:58.293Z</time>
      </trkpt>
      <trkpt lat="44.18923" lon="0.71611">
        <ele>98</ele>
        <time>2022-08-07T07:52:59.293Z</time>
      </trkpt>
      <trkpt lat="44.18923" lon="0.7161">
        <ele>97</ele>
        <time>2022-08-07T07:53:00.293Z</time>
      </trkpt>
      <trkpt lat="44.18923" lon="0.71609">
        <ele>97</ele>
        <time>2022-08-07T07:53:01.293Z</time>
      </trkpt>
      <trkpt lat="44.18923" lon="0.71608">
        <ele>97</ele>
        <time>2022-08-07T07:53:02.293Z</time>
      </trkpt>
      <trkpt lat="44.18923" lon="0.71607">
        <ele>98</ele>
        <time>2022-08-07T07:53:03.293Z</time>
      </trkpt>
      <trkpt lat="44.18922" lon="0.71606">
        <ele>99</ele>
        <time>2022-08-07T07:53:04.293Z</time>
      </trkpt>
      <trkpt lat="44.18922" lon="0.71605">
        <ele>99</ele>
        <time>2022-08-07T07:53:05.293Z</time>
      </trkpt>
      <trkpt lat="44.18922" lon="0.71604">
        <ele>99</ele>
        <time>2022-08-07T07:53:06.293Z</time>
      </trkpt>
      <trkpt lat="44.18922" lon="0.71603">
        <ele>99</ele>
        <time>2022-08-07T07:53:07.293Z</time>
      </trkpt>
      <trkpt lat="44.18921" lon="0.71601">
        <ele>99</ele>
        <time>2022-08-07T07:53:08.293Z</time>
      </trkpt>
      <trkpt lat="44.18921" lon="0.716">
        <ele>100</ele>
        <time>2022-08-07T07:53:09.293Z</time>
      </trkpt>
      <trkpt lat="44.18921" lon="0.71599">
        <ele>99</ele>
        <time>2022-08-07T07:53:10.293Z</time>
      </trkpt>
      <trkpt lat="44.1892" lon="0.71598">
        <ele>98</ele>
        <time>2022-08-07T07:53:11.293Z</time>
      </trkpt>
      <trkpt lat="44.1892" lon="0.71596">
        <ele>98</ele>
        <time>2022-08-07T07:53:12.293Z</time>
      </trkpt>
      <trkpt lat="44.18919" lon="0.71595">
        <ele>98</ele>
        <time>2022-08-07T07:53:13.293Z</time>
      </trkpt>
      <trkpt lat="44.18919" lon="0.71594">
        <ele>98</ele>
        <time>2022-08-07T07:53:14.293Z</time>
      </trkpt>
      <trkpt lat="44.18918" lon="0.71592">
        <ele>99</ele>
        <time>2022-08-07T07:53:15.293Z</time>
      </trkpt>
      <trkpt lat="44.18918" lon="0.71591">
        <ele>99</ele>
        <time>2022-08-07T07:53:16.293Z</time>
      </trkpt>
      <trkpt lat="44.18917" lon="0.7159">
        <ele>99</ele>
        <time>2022-08-07T07:53:17.293Z</time>
      </trkpt>
      <trkpt lat="44.18917" lon="0.71589">
        <ele>100</ele>
        <time>2022-08-07T07:53:18.293Z</time>
      </trkpt>
      <trkpt lat="44.18917" lon="0.71589">
        <ele>100</ele>
        <time>2022-08-07T07:53:19.293Z</time>
      </trkpt>
      <trkpt lat="44.18916" lon="0.71588">
        <ele>100</ele>
        <time>2022-08-07T07:53:20.293Z</time>
      </trkpt>
      <trkpt lat="44.18916" lon="0.71587">
        <ele>100</ele>
        <time>2022-08-07T07:53:21.293Z</time>
      </trkpt>
      <trkpt lat="44.18915" lon="0.71586">
        <ele>100</ele>
        <time>2022-08-07T07:53:22.293Z</time>
      </trkpt>
      <trkpt lat="44.18915" lon="0.71585">
        <ele>101</ele>
        <time>2022-08-07T07:53:23.293Z</time>
      </trkpt>
      <trkpt lat="44.18915" lon="0.71585">
        <ele>101</ele>
        <time>2022-08-07T07:53:24.293Z</time>
      </trkpt>
      <trkpt lat="44.18914" lon="0.71584">
        <ele>101</ele>
        <time>2022-08-07T07:53:25.293Z</time>
      </trkpt>
      <trkpt lat="44.18914" lon="0.71583">
        <ele>102</ele>
        <time>2022-08-07T07:53:26.293Z</time>
      </trkpt>
      <trkpt lat="44.18914" lon="0.71582">
        <ele>102</ele>
        <time>2022-08-07T07:53:27.293Z</time>
      </trkpt>
      <trkpt lat="44.18913" lon="0.71581">
        <ele>103</ele>
        <time>2022-08-07T07:53:28.293Z</time>
      </trkpt>
      <trkpt lat="44.18913" lon="0.7158">
        <ele>104</ele>
        <time>2022-08-07T07:53:29.293Z</time>
      </trkpt>
      <trkpt lat="44.18913" lon="0.71579">
        <ele>105</ele>
        <time>2022-08-07T07:53:30.293Z</time>
      </trkpt>
      <trkpt lat="44.18913" lon="0.71578">
        <ele>105</ele>
        <time>2022-08-07T07:53:31.293Z</time>
      </trkpt>
      <trkpt lat="44.18913" lon="0.71576">
        <ele>105</ele>
        <time>2022-08-07T07:53:32.293Z</time>
      </trkpt>
      <trkpt lat="44.18912" lon="0.71576">
        <ele>105</ele>
        <time>2022-08-07T07:53:33.293Z</time>
      </trkpt>
      <trkpt lat="44.18912" lon="0.71575">
        <ele>105</ele>
        <time>2022-08-07T07:53:34.293Z</time>
      </trkpt>
      <trkpt lat="44.18911" lon="0.71574">
        <ele>105</ele>
        <time>2022-08-07T07:53:35.293Z</time>
      </trkpt>
      <trkpt lat="44.18911" lon="0.71573">
        <ele>106</ele>
        <time>2022-08-07T07:53:36.293Z</time>
      </trkpt>
      <trkpt lat="44.18911" lon="0.71572">
        <ele>106</ele>
        <time>2022-08-07T07:53:37.293Z</time>
      </trkpt>
      <trkpt lat="44.1891" lon="0.71571">
        <ele>106</ele>
        <time>2022-08-07T07:53:38.293Z</time>
      </trkpt>
      <trkpt lat="44.1891" lon="0.71571">
        <ele>106</ele>
        <time>2022-08-07T07:53:39.293Z</time>
      </trkpt>
      <trkpt lat="44.1891" lon="0.7157">
        <ele>107</ele>
        <time>2022-08-07T07:53:40.293Z</time>
      </trkpt>
      <trkpt lat="44.1891" lon="0.71569">
        <ele>107</ele>
        <time>2022-08-07T07:53:41.293Z</time>
      </trkpt>
      <trkpt lat="44.18909" lon="0.71568">
        <ele>107</ele>
        <time>2022-08-07T07:53:42.293Z</time>
      </trkpt>
      <trkpt lat="44.18909" lon="0.71567">
        <ele>108</ele>
        <time>2022-08-07T07:53:43.293Z</time>
      </trkpt>
      <trkpt lat="44.18909" lon="0.71566">
        <ele>107</ele>
        <time>2022-08-07T07:53:44.293Z</time>
      </trkpt>
      <trkpt lat="44.18909" lon="0.71565">
        <ele>107</ele>
        <time>2022-08-07T07:53:45.293Z</time>
      </trkpt>
      <trkpt lat="44.18908" lon="0.71564">
        <ele>108</ele>
        <time>2022-08-07T07:53:46.293Z</time>
      </trkpt>
      <trkpt lat="44.18907" lon="0.71563">
        <ele>108</ele>
        <time>2022-08-07T07:53:47.293Z</time>
      </trkpt>
      <trkpt lat="44.18907" lon="0.71562">
        <ele>108</ele>
        <time>2022-08-07T07:53:48.293Z</time>
      </trkpt>
      <trkpt lat="44.18907" lon="0.71561">
        <ele>108</ele>
        <time>2022-08-07T07:53:49.293Z</time>
      </trkpt>
      <trkpt lat="44.18906" lon="0.7156">
        <ele>109</ele>
        <time>2022-08-07T07:53:50.293Z</time>
      </trkpt>
      <trkpt lat="44.18906" lon="0.71559">
        <ele>109</ele>
        <time>2022-08-07T07:53:51.293Z</time>
      </trkpt>
      <trkpt lat="44.18905" lon="0.71558">
        <ele>109</ele>
        <time>2022-08-07T07:53:52.293Z</time>
      </trkpt>
      <trkpt lat="44.18905" lon="0.71556">
        <ele>110</ele>
        <time>2022-08-07T07:53:53.293Z</time>
      </trkpt>
      <trkpt lat="44.18904" lon="0.71555">
        <ele>110</ele>
        <time>2022-08-07T07:53:54.293Z</time>
      </trkpt>
      <trkpt lat="44.18904" lon="0.71554">
        <ele>110</ele>
        <time>2022-08-07T07:53:55.293Z</time>
      </trkpt>
      <trkpt lat="44.18903" lon="0.71553">
        <ele>110</ele>
        <time>2022-08-07T07:53:56.293Z</time>
      </trkpt>
      <trkpt lat="44.18903" lon="0.71551">
        <ele>112</ele>
        <time>2022-08-07T07:53:57.293Z</time>
      </trkpt>
      <trkpt lat="44.18902" lon="0.7155">
        <ele>112</ele>
        <time>2022-08-07T07:53:58.293Z</time>
      </trkpt>
      <trkpt lat="44.18902" lon="0.71549">
        <ele>112</ele>
        <time>2022-08-07T07:53:59.293Z</time>
      </trkpt>
      <trkpt lat="44.18901" lon="0.71548">
        <ele>112</ele>
        <time>2022-08-07T07:54:00.293Z</time>
      </trkpt>
      <trkpt lat="44.18901" lon="0.71547">
        <ele>113</ele>
        <time>2022-08-07T07:54:01.293Z</time>
      </trkpt>
      <trkpt lat="44.18901" lon="0.71546">
        <ele>113</ele>
        <time>2022-08-07T07:54:02.293Z</time>
      </trkpt>
      <trkpt lat="44.18901" lon="0.71545">
        <ele>112</ele>
        <time>2022-08-07T07:54:03.293Z</time>
      </trkpt>
      <trkpt lat="44.18901" lon="0.71544">
        <ele>113</ele>
        <time>2022-08-07T07:54:04.293Z</time>
      </trkpt>
      <trkpt lat="44.18901" lon="0.71542">
        <ele>113</ele>
        <time>2022-08-07T07:54:05.293Z</time>
      </trkpt>
      <trkpt lat="44.189" lon="0.71541">
        <ele>113</ele>
        <time>2022-08-07T07:54:06.293Z</time>
      </trkpt>
      <trkpt lat="44.189" lon="0.71539">
        <ele>113</ele>
        <time>2022-08-07T07:54:07.293Z</time>
      </trkpt>
      <trkpt lat="44.18899" lon="0.71538">
        <ele>113</ele>
        <time>2022-08-07T07:54:08.293Z</time>
      </trkpt>
      <trkpt lat="44.18898" lon="0.71536">
        <ele>112</ele>
        <time>2022-08-07T07:54:09.293Z</time>
      </trkpt>
      <trkpt lat="44.18898" lon="0.71534">
        <ele>113</ele>
        <time>2022-08-07T07:54:10.293Z</time>
      </trkpt>
      <trkpt lat="44.18897" lon="0.71533">
        <ele>114</ele>
        <time>2022-08-07T07:54:11.293Z</time>
      </trkpt>
      <trkpt lat="44.18897" lon="0.71532">
        <ele>115</ele>
        <time>2022-08-07T07:54:12.293Z</time>
      </trkpt>
      <trkpt lat="44.18896" lon="0.71531">
        <ele>115</ele>
        <time>2022-08-07T07:54:13.293Z</time>
      </trkpt>
      <trkpt lat="44.18896" lon="0.7153">
        <ele>116</ele>
        <time>2022-08-07T07:54:14.293Z</time>
      </trkpt>
      <trkpt lat="44.18896" lon="0.71529">
        <ele>116</ele>
        <time>2022-08-07T07:54:15.293Z</time>
      </trkpt>
      <trkpt lat="44.18896" lon="0.71528">
        <ele>116</ele>
        <time>2022-08-07T07:54:16.293Z</time>
      </trkpt>
      <trkpt lat="44.18895" lon="0.71527">
        <ele>116</ele>
        <time>2022-08-07T07:54:17.293Z</time>
      </trkpt>
      <trkpt lat="44.18895" lon="0.71526">
        <ele>115</ele>
        <time>2022-08-07T07:54:18.293Z</time>
      </trkpt>
      <trkpt lat="44.18895" lon="0.71524">
        <ele>115</ele>
        <time>2022-08-07T07:54:19.293Z</time>
      </trkpt>
      <trkpt lat="44.18895" lon="0.71523">
        <ele>116</ele>
        <time>2022-08-07T07:54:20.293Z</time>
      </trkpt>
      <trkpt lat="44.18895" lon="0.71522">
        <ele>116</ele>
        <time>2022-08-07T07:54:21.293Z</time>
      </trkpt>
      <trkpt lat="44.18895" lon="0.71521">
        <ele>117</ele>
        <time>2022-08-07T07:54:22.293Z</time>
      </trkpt>
      <trkpt lat="44.18895" lon="0.71521">
        <ele>117</ele>
        <time>2022-08-07T07:54:23.293Z</time>
      </trkpt>
      <trkpt lat="44.18895" lon="0.71519">
        <ele>118</ele>
        <time>2022-08-07T07:54:24.293Z</time>
      </trkpt>
      <trkpt lat="44.18894" lon="0.71518">
        <ele>117</ele>
        <time>2022-08-07T07:54:25.293Z</time>
      </trkpt>
      <trkpt lat="44.18894" lon="0.71516">
        <ele>117</ele>
        <time>2022-08-07T07:54:26.293Z</time>
      </trkpt>
      <trkpt lat="44.18893" lon="0.71515">
        <ele>116</ele>
        <time>2022-08-07T07:54:27.293Z</time>
      </trkpt>
      <trkpt lat="44.18893" lon="0.71514">
        <ele>116</ele>
        <time>2022-08-07T07:54:28.293Z</time>
      </trkpt>
      <trkpt lat="44.18892" lon="0.71513">
        <ele>116</ele>
        <time>2022-08-07T07:54:29.293Z</time>
      </trkpt>
      <trkpt lat="44.18892" lon="0.71512">
        <ele>116</ele>
        <time>2022-08-07T07:54:30.293Z</time>
      </trkpt>
      <trkpt lat="44.18891" lon="0.71511">
        <ele>116</ele>
        <time>2022-08-07T07:54:31.293Z</time>
      </trkpt>
      <trkpt lat="44.18891" lon="0.7151">
        <ele>116</ele>
        <time>2022-08-07T07:54:32.293Z</time>
      </trkpt>
      <trkpt lat="44.18891" lon="0.71509">
        <ele>116</ele>
        <time>2022-08-07T07:54:33.293Z</time>
      </trkpt>
      <trkpt lat="44.1889" lon="0.71508">
        <ele>116</ele>
        <time>2022-08-07T07:54:34.293Z</time>
      </trkpt>
      <trkpt lat="44.1889" lon="0.71507">
        <ele>116</ele>
        <time>2022-08-07T07:54:35.293Z</time>
      </trkpt>
      <trkpt lat="44.18889" lon="0.71506">
        <ele>115</ele>
        <time>2022-08-07T07:54:36.293Z</time>
      </trkpt>
      <trkpt lat="44.18888" lon="0.71505">
        <ele>115</ele>
        <time>2022-08-07T07:54:37.293Z</time>
      </trkpt>
      <trkpt lat="44.18888" lon="0.71503">
        <ele>115</ele>
        <time>2022-08-07T07:54:38.293Z</time>
      </trkpt>
      <trkpt lat="44.18887" lon="0.71502">
        <ele>114</ele>
        <time>2022-08-07T07:54:39.293Z</time>
      </trkpt>
      <trkpt lat="44.18887" lon="0.71501">
        <ele>114</ele>
        <time>2022-08-07T07:54:40.293Z</time>
      </trkpt>
      <trkpt lat="44.18886" lon="0.715">
        <ele>114</ele>
        <time>2022-08-07T07:54:41.293Z</time>
      </trkpt>
      <trkpt lat="44.18886" lon="0.71499">
        <ele>114</ele>
        <time>2022-08-07T07:54:42.293Z</time>
      </trkpt>
      <trkpt lat="44.18886" lon="0.71497">
        <ele>114</ele>
        <time>2022-08-07T07:54:43.293Z</time>
      </trkpt>
      <trkpt lat="44.18885" lon="0.71496">
        <ele>114</ele>
        <time>2022-08-07T07:54:44.293Z</time>
      </trkpt>
      <trkpt lat="44.18885" lon="0.71495">
        <ele>114</ele>
        <time>2022-08-07T07:54:45.293Z</time>
      </trkpt>
      <trkpt lat="44.18885" lon="0.71494">
        <ele>114</ele>
        <time>2022-08-07T07:54:46.293Z</time>
      </trkpt>
      <trkpt lat="44.18884" lon="0.71492">
        <ele>114</ele>
        <time>2022-08-07T07:54:47.293Z</time>
      </trkpt>
      <trkpt lat="44.18884" lon="0.71491">
        <ele>114</ele>
        <time>2022-08-07T07:54:48.293Z</time>
      </trkpt>
      <trkpt lat="44.18883" lon="0.7149">
        <ele>114</ele>
        <time>2022-08-07T07:54:49.293Z</time>
      </trkpt>
      <trkpt lat="44.18883" lon="0.71488">
        <ele>114</ele>
        <time>2022-08-07T07:54:50.293Z</time>
      </trkpt>
      <trkpt lat="44.18882" lon="0.71487">
        <ele>114</ele>
        <time>2022-08-07T07:54:51.293Z</time>
      </trkpt>
      <trkpt lat="44.18881" lon="0.71485">
        <ele>114</ele>
        <time>2022-08-07T07:54:52.293Z</time>
      </trkpt>
      <trkpt lat="44.1888" lon="0.71483">
        <ele>114</ele>
        <time>2022-08-07T07:54:53.293Z</time>
      </trkpt>
      <trkpt lat="44.1888" lon="0.71482">
        <ele>113</ele>
        <time>2022-08-07T07:54:54.293Z</time>
      </trkpt>
      <trkpt lat="44.18879" lon="0.71481">
        <ele>113</ele>
        <time>2022-08-07T07:54:55.293Z</time>
      </trkpt>
      <trkpt lat="44.18878" lon="0.7148">
        <ele>113</ele>
        <time>2022-08-07T07:54:56.293Z</time>
      </trkpt>
      <trkpt lat="44.18878" lon="0.71479">
        <ele>112</ele>
        <time>2022-08-07T07:54:57.293Z</time>
      </trkpt>
      <trkpt lat="44.18877" lon="0.71478">
        <ele>112</ele>
        <time>2022-08-07T07:54:58.293Z</time>
      </trkpt>
      <trkpt lat="44.18877" lon="0.71476">
        <ele>112</ele>
        <time>2022-08-07T07:54:59.293Z</time>
      </trkpt>
      <trkpt lat="44.18876" lon="0.71475">
        <ele>112</ele>
        <time>2022-08-07T07:55:00.293Z</time>
      </trkpt>
      <trkpt lat="44.18876" lon="0.71474">
        <ele>112</ele>
        <time>2022-08-07T07:55:01.293Z</time>
      </trkpt>
      <trkpt lat="44.18876" lon="0.71473">
        <ele>112</ele>
        <time>2022-08-07T07:55:02.293Z</time>
      </trkpt>
      <trkpt lat="44.18875" lon="0.71472">
        <ele>112</ele>
        <time>2022-08-07T07:55:03.293Z</time>
      </trkpt>
      <trkpt lat="44.18875" lon="0.7147">
        <ele>112</ele>
        <time>2022-08-07T07:55:04.293Z</time>
      </trkpt>
      <trkpt lat="44.18875" lon="0.7147">
        <ele>112</ele>
        <time>2022-08-07T07:55:05.293Z</time>
      </trkpt>
      <trkpt lat="44.18875" lon="0.71469">
        <ele>112</ele>
        <time>2022-08-07T07:55:06.293Z</time>
      </trkpt>
      <trkpt lat="44.18875" lon="0.71468">
        <ele>112</ele>
        <time>2022-08-07T07:55:07.293Z</time>
      </trkpt>
      <trkpt lat="44.18875" lon="0.71467">
        <ele>112</ele>
        <time>2022-08-07T07:55:08.293Z</time>
      </trkpt>
      <trkpt lat="44.18875" lon="0.71465">
        <ele>112</ele>
        <time>2022-08-07T07:55:09.293Z</time>
      </trkpt>
      <trkpt lat="44.18875" lon="0.71464">
        <ele>112</ele>
        <time>2022-08-07T07:55:10.293Z</time>
      </trkpt>
      <trkpt lat="44.18874" lon="0.71463">
        <ele>113</ele>
        <time>2022-08-07T07:55:11.293Z</time>
      </trkpt>
      <trkpt lat="44.18874" lon="0.71462">
        <ele>113</ele>
        <time>2022-08-07T07:55:12.293Z</time>
      </trkpt>
      <trkpt lat="44.18874" lon="0.71461">
        <ele>113</ele>
        <time>2022-08-07T07:55:13.293Z</time>
      </trkpt>
      <trkpt lat="44.18873" lon="0.7146">
        <ele>113</ele>
        <time>2022-08-07T07:55:14.293Z</time>
      </trkpt>
      <trkpt lat="44.18873" lon="0.71458">
        <ele>114</ele>
        <time>2022-08-07T07:55:15.293Z</time>
      </trkpt>
      <trkpt lat="44.18873" lon="0.71457">
        <ele>114</ele>
        <time>2022-08-07T07:55:16.293Z</time>
      </trkpt>
      <trkpt lat="44.18873" lon="0.71456">
        <ele>113</ele>
        <time>2022-08-07T07:55:17.293Z</time>
      </trkpt>
      <trkpt lat="44.18873" lon="0.71455">
        <ele>114</ele>
        <time>2022-08-07T07:55:18.293Z</time>
      </trkpt>
      <trkpt lat="44.18872" lon="0.71454">
        <ele>114</ele>
        <time>2022-08-07T07:55:19.293Z</time>
      </trkpt>
      <trkpt lat="44.18872" lon="0.71453">
        <ele>114</ele>
        <time>2022-08-07T07:55:20.293Z</time>
      </trkpt>
      <trkpt lat="44.18871" lon="0.71452">
        <ele>115</ele>
        <time>2022-08-07T07:55:21.293Z</time>
      </trkpt>
      <trkpt lat="44.18871" lon="0.7145">
        <ele>115</ele>
        <time>2022-08-07T07:55:22.293Z</time>
      </trkpt>
      <trkpt lat="44.1887" lon="0.71449">
        <ele>114</ele>
        <time>2022-08-07T07:55:23.293Z</time>
      </trkpt>
      <trkpt lat="44.1887" lon="0.71448">
        <ele>114</ele>
        <time>2022-08-07T07:55:24.293Z</time>
      </trkpt>
      <trkpt lat="44.18869" lon="0.71447">
        <ele>114</ele>
        <time>2022-08-07T07:55:25.293Z</time>
      </trkpt>
      <trkpt lat="44.18869" lon="0.71446">
        <ele>114</ele>
        <time>2022-08-07T07:55:26.293Z</time>
      </trkpt>
      <trkpt lat="44.18868" lon="0.71445">
        <ele>115</ele>
        <time>2022-08-07T07:55:27.293Z</time>
      </trkpt>
      <trkpt lat="44.18868" lon="0.71444">
        <ele>116</ele>
        <time>2022-08-07T07:55:28.293Z</time>
      </trkpt>
      <trkpt lat="44.18868" lon="0.71443">
        <ele>115</ele>
        <time>2022-08-07T07:55:29.293Z</time>
      </trkpt>
      <trkpt lat="44.18867" lon="0.71442">
        <ele>114</ele>
        <time>2022-08-07T07:55:30.293Z</time>
      </trkpt>
      <trkpt lat="44.18866" lon="0.7144">
        <ele>114</ele>
        <time>2022-08-07T07:55:31.293Z</time>
      </trkpt>
      <trkpt lat="44.18865" lon="0.71439">
        <ele>114</ele>
        <time>2022-08-07T07:55:32.293Z</time>
      </trkpt>
      <trkpt lat="44.18864" lon="0.71438">
        <ele>114</ele>
        <time>2022-08-07T07:55:33.293Z</time>
      </trkpt>
      <trkpt lat="44.18863" lon="0.71437">
        <ele>114</ele>
        <time>2022-08-07T07:55:34.293Z</time>
      </trkpt>
      <trkpt lat="44.18863" lon="0.71436">
        <ele>114</ele>
        <time>2022-08-07T07:55:35.293Z</time>
      </trkpt>
      <trkpt lat="44.18862" lon="0.71435">
        <ele>114</ele>
        <time>2022-08-07T07:55:36.293Z</time>
      </trkpt>
      <trkpt lat="44.18861" lon="0.71434">
        <ele>115</ele>
        <time>2022-08-07T07:55:37.293Z</time>
      </trkpt>
      <trkpt lat="44.18861" lon="0.71433">
        <ele>115</ele>
        <time>2022-08-07T07:55:38.293Z</time>
      </trkpt>
      <trkpt lat="44.1886" lon="0.71433">
        <ele>115</ele>
        <time>2022-08-07T07:55:39.293Z</time>
      </trkpt>
      <trkpt lat="44.18859" lon="0.71432">
        <ele>115</ele>
        <time>2022-08-07T07:55:40.293Z</time>
      </trkpt>
      <trkpt lat="44.18858" lon="0.71432">
        <ele>115</ele>
        <time>2022-08-07T07:55:41.293Z</time>
      </trkpt>
      <trkpt lat="44.18857" lon="0.71431">
        <ele>115</ele>
        <time>2022-08-07T07:55:42.293Z</time>
      </trkpt>
      <trkpt lat="44.18856" lon="0.7143">
        <ele>116</ele>
        <time>2022-08-07T07:55:43.293Z</time>
      </trkpt>
      <trkpt lat="44.18855" lon="0.7143">
        <ele>116</ele>
        <time>2022-08-07T07:55:44.293Z</time>
      </trkpt>
      <trkpt lat="44.18854" lon="0.71429">
        <ele>115</ele>
        <time>2022-08-07T07:55:45.293Z</time>
      </trkpt>
      <trkpt lat="44.18853" lon="0.71429">
        <ele>115</ele>
        <time>2022-08-07T07:55:46.293Z</time>
      </trkpt>
      <trkpt lat="44.18851" lon="0.71428">
        <ele>116</ele>
        <time>2022-08-07T07:55:47.293Z</time>
      </trkpt>
      <trkpt lat="44.1885" lon="0.71428">
        <ele>116</ele>
        <time>2022-08-07T07:55:48.293Z</time>
      </trkpt>
      <trkpt lat="44.18849" lon="0.71428">
        <ele>115</ele>
        <time>2022-08-07T07:55:49.293Z</time>
      </trkpt>
      <trkpt lat="44.18849" lon="0.71428">
        <ele>115</ele>
        <time>2022-08-07T07:55:50.293Z</time>
      </trkpt>
      <trkpt lat="44.18848" lon="0.71427">
        <ele>116</ele>
        <time>2022-08-07T07:55:51.293Z</time>
      </trkpt>
      <trkpt lat="44.18846" lon="0.71427">
        <ele>116</ele>
        <time>2022-08-07T07:55:52.293Z</time>
      </trkpt>
      <trkpt lat="44.18845" lon="0.71426">
        <ele>116</ele>
        <time>2022-08-07T07:55:53.293Z</time>
      </trkpt>
      <trkpt lat="44.18844" lon="0.71425">
        <ele>116</ele>
        <time>2022-08-07T07:55:54.293Z</time>
      </trkpt>
      <trkpt lat="44.18843" lon="0.71425">
        <ele>118</ele>
        <time>2022-08-07T07:55:55.293Z</time>
      </trkpt>
      <trkpt lat="44.18842" lon="0.71424">
        <ele>118</ele>
        <time>2022-08-07T07:55:56.293Z</time>
      </trkpt>
      <trkpt lat="44.18842" lon="0.71423">
        <ele>118</ele>
        <time>2022-08-07T07:55:57.293Z</time>
      </trkpt>
      <trkpt lat="44.18841" lon="0.71422">
        <ele>118</ele>
        <time>2022-08-07T07:55:58.293Z</time>
      </trkpt>
      <trkpt lat="44.1884" lon="0.71422">
        <ele>119</ele>
        <time>2022-08-07T07:55:59.293Z</time>
      </trkpt>
      <trkpt lat="44.1884" lon="0.71421">
        <ele>119</ele>
        <time>2022-08-07T07:56:00.293Z</time>
      </trkpt>
      <trkpt lat="44.18839" lon="0.71421">
        <ele>119</ele>
        <time>2022-08-07T07:56:01.293Z</time>
      </trkpt>
      <trkpt lat="44.18838" lon="0.7142">
        <ele>119</ele>
        <time>2022-08-07T07:56:02.293Z</time>
      </trkpt>
      <trkpt lat="44.18838" lon="0.71419">
        <ele>119</ele>
        <time>2022-08-07T07:56:03.293Z</time>
      </trkpt>
      <trkpt lat="44.18837" lon="0.71419">
        <ele>119</ele>
        <time>2022-08-07T07:56:04.293Z</time>
      </trkpt>
      <trkpt lat="44.18836" lon="0.71418">
        <ele>119</ele>
        <time>2022-08-07T07:56:05.293Z</time>
      </trkpt>
      <trkpt lat="44.18835" lon="0.71417">
        <ele>119</ele>
        <time>2022-08-07T07:56:06.293Z</time>
      </trkpt>
      <trkpt lat="44.18834" lon="0.71416">
        <ele>118</ele>
        <time>2022-08-07T07:56:07.293Z</time>
      </trkpt>
      <trkpt lat="44.18833" lon="0.71415">
        <ele>118</ele>
        <time>2022-08-07T07:56:08.293Z</time>
      </trkpt>
      <trkpt lat="44.18832" lon="0.71414">
        <ele>118</ele>
        <time>2022-08-07T07:56:09.293Z</time>
      </trkpt>
      <trkpt lat="44.18831" lon="0.71413">
        <ele>117</ele>
        <time>2022-08-07T07:56:10.293Z</time>
      </trkpt>
      <trkpt lat="44.1883" lon="0.71412">
        <ele>117</ele>
        <time>2022-08-07T07:56:11.293Z</time>
      </trkpt>
      <trkpt lat="44.18829" lon="0.71411">
        <ele>117</ele>
        <time>2022-08-07T07:56:12.293Z</time>
      </trkpt>
      <trkpt lat="44.18828" lon="0.7141">
        <ele>118</ele>
        <time>2022-08-07T07:56:13.293Z</time>
      </trkpt>
      <trkpt lat="44.18827" lon="0.71409">
        <ele>118</ele>
        <time>2022-08-07T07:56:14.293Z</time>
      </trkpt>
      <trkpt lat="44.18826" lon="0.71408">
        <ele>118</ele>
        <time>2022-08-07T07:56:15.293Z</time>
      </trkpt>
      <trkpt lat="44.18825" lon="0.71407">
        <ele>119</ele>
        <time>2022-08-07T07:56:16.293Z</time>
      </trkpt>
      <trkpt lat="44.18824" lon="0.71407">
        <ele>119</ele>
        <time>2022-08-07T07:56:17.293Z</time>
      </trkpt>
      <trkpt lat="44.18823" lon="0.71406">
        <ele>119</ele>
        <time>2022-08-07T07:56:18.293Z</time>
      </trkpt>
      <trkpt lat="44.18822" lon="0.71405">
        <ele>120</ele>
        <time>2022-08-07T07:56:19.293Z</time>
      </trkpt>
      <trkpt lat="44.18821" lon="0.71404">
        <ele>121</ele>
        <time>2022-08-07T07:56:20.293Z</time>
      </trkpt>
      <trkpt lat="44.1882" lon="0.71403">
        <ele>122</ele>
        <time>2022-08-07T07:56:21.293Z</time>
      </trkpt>
      <trkpt lat="44.18819" lon="0.71402">
        <ele>122</ele>
        <time>2022-08-07T07:56:22.293Z</time>
      </trkpt>
      <trkpt lat="44.18818" lon="0.71401">
        <ele>123</ele>
        <time>2022-08-07T07:56:23.293Z</time>
      </trkpt>
      <trkpt lat="44.18817" lon="0.71401">
        <ele>122</ele>
        <time>2022-08-07T07:56:24.293Z</time>
      </trkpt>
      <trkpt lat="44.18816" lon="0.714">
        <ele>123</ele>
        <time>2022-08-07T07:56:25.293Z</time>
      </trkpt>
      <trkpt lat="44.18815" lon="0.714">
        <ele>123</ele>
        <time>2022-08-07T07:56:26.293Z</time>
      </trkpt>
      <trkpt lat="44.18814" lon="0.71399">
        <ele>124</ele>
        <time>2022-08-07T07:56:27.293Z</time>
      </trkpt>
      <trkpt lat="44.18814" lon="0.71398">
        <ele>124</ele>
        <time>2022-08-07T07:56:28.293Z</time>
      </trkpt>
      <trkpt lat="44.18813" lon="0.71397">
        <ele>125</ele>
        <time>2022-08-07T07:56:29.293Z</time>
      </trkpt>
      <trkpt lat="44.18812" lon="0.71396">
        <ele>125</ele>
        <time>2022-08-07T07:56:30.293Z</time>
      </trkpt>
      <trkpt lat="44.18811" lon="0.71395">
        <ele>126</ele>
        <time>2022-08-07T07:56:31.293Z</time>
      </trkpt>
      <trkpt lat="44.1881" lon="0.71394">
        <ele>127</ele>
        <time>2022-08-07T07:56:32.293Z</time>
      </trkpt>
      <trkpt lat="44.18809" lon="0.71393">
        <ele>127</ele>
        <time>2022-08-07T07:56:33.293Z</time>
      </trkpt>
      <trkpt lat="44.18808" lon="0.71393">
        <ele>128</ele>
        <time>2022-08-07T07:56:34.293Z</time>
      </trkpt>
      <trkpt lat="44.18808" lon="0.71392">
        <ele>128</ele>
        <time>2022-08-07T07:56:35.293Z</time>
      </trkpt>
      <trkpt lat="44.18807" lon="0.71391">
        <ele>127</ele>
        <time>2022-08-07T07:56:36.293Z</time>
      </trkpt>
      <trkpt lat="44.18806" lon="0.7139">
        <ele>128</ele>
        <time>2022-08-07T07:56:37.293Z</time>
      </trkpt>
      <trkpt lat="44.18805" lon="0.71389">
        <ele>128</ele>
        <time>2022-08-07T07:56:38.293Z</time>
      </trkpt>
      <trkpt lat="44.18805" lon="0.71389">
        <ele>128</ele>
        <time>2022-08-07T07:56:39.293Z</time>
      </trkpt>
      <trkpt lat="44.18804" lon="0.71388">
        <ele>128</ele>
        <time>2022-08-07T07:56:40.293Z</time>
      </trkpt>
      <trkpt lat="44.18804" lon="0.71387">
        <ele>126</ele>
        <time>2022-08-07T07:56:41.293Z</time>
      </trkpt>
      <trkpt lat="44.18803" lon="0.71386">
        <ele>123</ele>
        <time>2022-08-07T07:56:42.293Z</time>
      </trkpt>
      <trkpt lat="44.18804" lon="0.71385">
        <ele>121</ele>
        <time>2022-08-07T07:56:43.293Z</time>
      </trkpt>
      <trkpt lat="44.18804" lon="0.71385">
        <ele>120</ele>
        <time>2022-08-07T07:56:44.293Z</time>
      </trkpt>
      <trkpt lat="44.18805" lon="0.71385">
        <ele>120</ele>
        <time>2022-08-07T07:56:45.293Z</time>
      </trkpt>
      <trkpt lat="44.18805" lon="0.71385">
        <ele>120</ele>
        <time>2022-08-07T07:56:46.293Z</time>
      </trkpt>
      <trkpt lat="44.18804" lon="0.71385">
        <ele>120</ele>
        <time>2022-08-07T07:56:47.293Z</time>
      </trkpt>
      <trkpt lat="44.18804" lon="0.71385">
        <ele>120</ele>
        <time>2022-08-07T07:56:48.293Z</time>
      </trkpt>
      <trkpt lat="44.18803" lon="0.71384">
        <ele>120</ele>
        <time>2022-08-07T07:56:49.293Z</time>
      </trkpt>
      <trkpt lat="44.18803" lon="0.71384">
        <ele>121</ele>
        <time>2022-08-07T07:56:50.293Z</time>
      </trkpt>
      <trkpt lat="44.18802" lon="0.71383">
        <ele>121</ele>
        <time>2022-08-07T07:56:51.293Z</time>
      </trkpt>
      <trkpt lat="44.18802" lon="0.71383">
        <ele>121</ele>
        <time>2022-08-07T07:56:52.293Z</time>
      </trkpt>
      <trkpt lat="44.18802" lon="0.71382">
        <ele>121</ele>
        <time>2022-08-07T07:56:53.293Z</time>
      </trkpt>
      <trkpt lat="44.18802" lon="0.71382">
        <ele>121</ele>
        <time>2022-08-07T07:56:54.293Z</time>
      </trkpt>
      <trkpt lat="44.18801" lon="0.71382">
        <ele>121</ele>
        <time>2022-08-07T07:56:55.293Z</time>
      </trkpt>
      <trkpt lat="44.18801" lon="0.71382">
        <ele>122</ele>
        <time>2022-08-07T07:56:56.293Z</time>
      </trkpt>
      <trkpt lat="44.18801" lon="0.71381">
        <ele>122</ele>
        <time>2022-08-07T07:56:57.293Z</time>
      </trkpt>
      <trkpt lat="44.188" lon="0.7138">
        <ele>123</ele>
        <time>2022-08-07T07:56:58.293Z</time>
      </trkpt>
      <trkpt lat="44.188" lon="0.71379">
        <ele>123</ele>
        <time>2022-08-07T07:56:59.293Z</time>
      </trkpt>
      <trkpt lat="44.18799" lon="0.71378">
        <ele>123</ele>
        <time>2022-08-07T07:57:00.293Z</time>
      </trkpt>
      <trkpt lat="44.18798" lon="0.71377">
        <ele>123</ele>
        <time>2022-08-07T07:57:01.293Z</time>
      </trkpt>
      <trkpt lat="44.18797" lon="0.71376">
        <ele>123</ele>
        <time>2022-08-07T07:57:02.293Z</time>
      </trkpt>
      <trkpt lat="44.18796" lon="0.71375">
        <ele>123</ele>
        <time>2022-08-07T07:57:03.293Z</time>
      </trkpt>
      <trkpt lat="44.18795" lon="0.71374">
        <ele>123</ele>
        <time>2022-08-07T07:57:04.293Z</time>
      </trkpt>
      <trkpt lat="44.18795" lon="0.71373">
        <ele>123</ele>
        <time>2022-08-07T07:57:05.293Z</time>
      </trkpt>
      <trkpt lat="44.18794" lon="0.71371">
        <ele>123</ele>
        <time>2022-08-07T07:57:06.293Z</time>
      </trkpt>
      <trkpt lat="44.18793" lon="0.7137">
        <ele>123</ele>
        <time>2022-08-07T07:57:07.293Z</time>
      </trkpt>
      <trkpt lat="44.18792" lon="0.71369">
        <ele>123</ele>
        <time>2022-08-07T07:57:08.293Z</time>
      </trkpt>
      <trkpt lat="44.18791" lon="0.71368">
        <ele>123</ele>
        <time>2022-08-07T07:57:09.293Z</time>
      </trkpt>
      <trkpt lat="44.18791" lon="0.71367">
        <ele>122</ele>
        <time>2022-08-07T07:57:10.293Z</time>
      </trkpt>
      <trkpt lat="44.1879" lon="0.71366">
        <ele>122</ele>
        <time>2022-08-07T07:57:11.293Z</time>
      </trkpt>
      <trkpt lat="44.18789" lon="0.71364">
        <ele>123</ele>
        <time>2022-08-07T07:57:12.293Z</time>
      </trkpt>
      <trkpt lat="44.18788" lon="0.71363">
        <ele>123</ele>
        <time>2022-08-07T07:57:13.293Z</time>
      </trkpt>
      <trkpt lat="44.18788" lon="0.71361">
        <ele>122</ele>
        <time>2022-08-07T07:57:14.293Z</time>
      </trkpt>
      <trkpt lat="44.18787" lon="0.7136">
        <ele>122</ele>
        <time>2022-08-07T07:57:15.293Z</time>
      </trkpt>
      <trkpt lat="44.18786" lon="0.71359">
        <ele>122</ele>
        <time>2022-08-07T07:57:16.293Z</time>
      </trkpt>
      <trkpt lat="44.18786" lon="0.71358">
        <ele>123</ele>
        <time>2022-08-07T07:57:17.293Z</time>
      </trkpt>
      <trkpt lat="44.18785" lon="0.71357">
        <ele>122</ele>
        <time>2022-08-07T07:57:18.293Z</time>
      </trkpt>
      <trkpt lat="44.18783" lon="0.71356">
        <ele>123</ele>
        <time>2022-08-07T07:57:19.293Z</time>
      </trkpt>
      <trkpt lat="44.18782" lon="0.71355">
        <ele>123</ele>
        <time>2022-08-07T07:57:20.293Z</time>
      </trkpt>
      <trkpt lat="44.18781" lon="0.71353">
        <ele>123</ele>
        <time>2022-08-07T07:57:21.293Z</time>
      </trkpt>
      <trkpt lat="44.1878" lon="0.71352">
        <ele>123</ele>
        <time>2022-08-07T07:57:22.293Z</time>
      </trkpt>
      <trkpt lat="44.1878" lon="0.71351">
        <ele>123</ele>
        <time>2022-08-07T07:57:23.293Z</time>
      </trkpt>
      <trkpt lat="44.18779" lon="0.7135">
        <ele>124</ele>
        <time>2022-08-07T07:57:24.293Z</time>
      </trkpt>
      <trkpt lat="44.18779" lon="0.71349">
        <ele>125</ele>
        <time>2022-08-07T07:57:25.293Z</time>
      </trkpt>
      <trkpt lat="44.18778" lon="0.71348">
        <ele>126</ele>
        <time>2022-08-07T07:57:26.293Z</time>
      </trkpt>
      <trkpt lat="44.18778" lon="0.71348">
        <ele>127</ele>
        <time>2022-08-07T07:57:27.293Z</time>
      </trkpt>
      <trkpt lat="44.18778" lon="0.71348">
        <ele>126</ele>
        <time>2022-08-07T07:57:28.293Z</time>
      </trkpt>
      <trkpt lat="44.18777" lon="0.71347">
        <ele>127</ele>
        <time>2022-08-07T07:57:29.293Z</time>
      </trkpt>
      <trkpt lat="44.18777" lon="0.71346">
        <ele>127</ele>
        <time>2022-08-07T07:57:30.293Z</time>
      </trkpt>
      <trkpt lat="44.18777" lon="0.71346">
        <ele>127</ele>
        <time>2022-08-07T07:57:31.293Z</time>
      </trkpt>
      <trkpt lat="44.18776" lon="0.71345">
        <ele>127</ele>
        <time>2022-08-07T07:57:32.293Z</time>
      </trkpt>
      <trkpt lat="44.18776" lon="0.71344">
        <ele>127</ele>
        <time>2022-08-07T07:57:33.293Z</time>
      </trkpt>
      <trkpt lat="44.18775" lon="0.71343">
        <ele>128</ele>
        <time>2022-08-07T07:57:34.293Z</time>
      </trkpt>
      <trkpt lat="44.18774" lon="0.71342">
        <ele>128</ele>
        <time>2022-08-07T07:57:35.293Z</time>
      </trkpt>
      <trkpt lat="44.18773" lon="0.71341">
        <ele>128</ele>
        <time>2022-08-07T07:57:36.293Z</time>
      </trkpt>
      <trkpt lat="44.18773" lon="0.71339">
        <ele>128</ele>
        <time>2022-08-07T07:57:37.293Z</time>
      </trkpt>
      <trkpt lat="44.18772" lon="0.71337">
        <ele>129</ele>
        <time>2022-08-07T07:57:38.293Z</time>
      </trkpt>
      <trkpt lat="44.18771" lon="0.71335">
        <ele>129</ele>
        <time>2022-08-07T07:57:39.293Z</time>
      </trkpt>
      <trkpt lat="44.1877" lon="0.71334">
        <ele>129</ele>
        <time>2022-08-07T07:57:40.293Z</time>
      </trkpt>
      <trkpt lat="44.18769" lon="0.71332">
        <ele>129</ele>
        <time>2022-08-07T07:57:41.293Z</time>
      </trkpt>
      <trkpt lat="44.18769" lon="0.71331">
        <ele>129</ele>
        <time>2022-08-07T07:57:42.293Z</time>
      </trkpt>
      <trkpt lat="44.18768" lon="0.71329">
        <ele>129</ele>
        <time>2022-08-07T07:57:43.293Z</time>
      </trkpt>
      <trkpt lat="44.18768" lon="0.71328">
        <ele>129</ele>
        <time>2022-08-07T07:57:44.293Z</time>
      </trkpt>
      <trkpt lat="44.18767" lon="0.71326">
        <ele>129</ele>
        <time>2022-08-07T07:57:45.293Z</time>
      </trkpt>
      <trkpt lat="44.18767" lon="0.71325">
        <ele>129</ele>
        <time>2022-08-07T07:57:46.293Z</time>
      </trkpt>
      <trkpt lat="44.18766" lon="0.71324">
        <ele>129</ele>
        <time>2022-08-07T07:57:47.293Z</time>
      </trkpt>
      <trkpt lat="44.18766" lon="0.71323">
        <ele>128</ele>
        <time>2022-08-07T07:57:48.293Z</time>
      </trkpt>
      <trkpt lat="44.18765" lon="0.71321">
        <ele>127</ele>
        <time>2022-08-07T07:57:49.293Z</time>
      </trkpt>
      <trkpt lat="44.18765" lon="0.7132">
        <ele>128</ele>
        <time>2022-08-07T07:57:50.293Z</time>
      </trkpt>
      <trkpt lat="44.18764" lon="0.71319">
        <ele>128</ele>
        <time>2022-08-07T07:57:51.293Z</time>
      </trkpt>
      <trkpt lat="44.18764" lon="0.71318">
        <ele>127</ele>
        <time>2022-08-07T07:57:52.293Z</time>
      </trkpt>
      <trkpt lat="44.18763" lon="0.71317">
        <ele>128</ele>
        <time>2022-08-07T07:57:53.293Z</time>
      </trkpt>
      <trkpt lat="44.18763" lon="0.71316">
        <ele>127</ele>
        <time>2022-08-07T07:57:54.293Z</time>
      </trkpt>
      <trkpt lat="44.18763" lon="0.71315">
        <ele>127</ele>
        <time>2022-08-07T07:57:55.293Z</time>
      </trkpt>
      <trkpt lat="44.18762" lon="0.71313">
        <ele>127</ele>
        <time>2022-08-07T07:57:56.293Z</time>
      </trkpt>
      <trkpt lat="44.18762" lon="0.71312">
        <ele>127</ele>
        <time>2022-08-07T07:57:57.293Z</time>
      </trkpt>
      <trkpt lat="44.18761" lon="0.7131">
        <ele>127</ele>
        <time>2022-08-07T07:57:58.293Z</time>
      </trkpt>
      <trkpt lat="44.18761" lon="0.71309">
        <ele>127</ele>
        <time>2022-08-07T07:57:59.293Z</time>
      </trkpt>
      <trkpt lat="44.1876" lon="0.71307">
        <ele>127</ele>
        <time>2022-08-07T07:58:00.293Z</time>
      </trkpt>
      <trkpt lat="44.1876" lon="0.71305">
        <ele>127</ele>
        <time>2022-08-07T07:58:01.293Z</time>
      </trkpt>
      <trkpt lat="44.1876" lon="0.71304">
        <ele>127</ele>
        <time>2022-08-07T07:58:02.293Z</time>
      </trkpt>
      <trkpt lat="44.18759" lon="0.71303">
        <ele>127</ele>
        <time>2022-08-07T07:58:03.293Z</time>
      </trkpt>
      <trkpt lat="44.18759" lon="0.71301">
        <ele>127</ele>
        <time>2022-08-07T07:58:04.293Z</time>
      </trkpt>
      <trkpt lat="44.18758" lon="0.713">
        <ele>127</ele>
        <time>2022-08-07T07:58:05.293Z</time>
      </trkpt>
      <trkpt lat="44.18758" lon="0.71298">
        <ele>127</ele>
        <time>2022-08-07T07:58:06.293Z</time>
      </trkpt>
      <trkpt lat="44.18757" lon="0.71297">
        <ele>128</ele>
        <time>2022-08-07T07:58:07.293Z</time>
      </trkpt>
      <trkpt lat="44.18756" lon="0.71296">
        <ele>128</ele>
        <time>2022-08-07T07:58:08.293Z</time>
      </trkpt>
      <trkpt lat="44.18756" lon="0.71295">
        <ele>128</ele>
        <time>2022-08-07T07:58:09.293Z</time>
      </trkpt>
      <trkpt lat="44.18756" lon="0.71293">
        <ele>128</ele>
        <time>2022-08-07T07:58:10.293Z</time>
      </trkpt>
      <trkpt lat="44.18755" lon="0.71292">
        <ele>128</ele>
        <time>2022-08-07T07:58:11.293Z</time>
      </trkpt>
      <trkpt lat="44.18755" lon="0.71291">
        <ele>128</ele>
        <time>2022-08-07T07:58:12.293Z</time>
      </trkpt>
      <trkpt lat="44.18754" lon="0.7129">
        <ele>128</ele>
        <time>2022-08-07T07:58:13.293Z</time>
      </trkpt>
      <trkpt lat="44.18754" lon="0.71289">
        <ele>127</ele>
        <time>2022-08-07T07:58:14.293Z</time>
      </trkpt>
      <trkpt lat="44.18753" lon="0.71288">
        <ele>127</ele>
        <time>2022-08-07T07:58:15.293Z</time>
      </trkpt>
      <trkpt lat="44.18753" lon="0.71286">
        <ele>127</ele>
        <time>2022-08-07T07:58:16.293Z</time>
      </trkpt>
      <trkpt lat="44.18753" lon="0.71285">
        <ele>127</ele>
        <time>2022-08-07T07:58:17.293Z</time>
      </trkpt>
      <trkpt lat="44.18752" lon="0.71284">
        <ele>126</ele>
        <time>2022-08-07T07:58:18.293Z</time>
      </trkpt>
      <trkpt lat="44.18752" lon="0.71283">
        <ele>127</ele>
        <time>2022-08-07T07:58:19.293Z</time>
      </trkpt>
      <trkpt lat="44.18751" lon="0.71282">
        <ele>127</ele>
        <time>2022-08-07T07:58:20.293Z</time>
      </trkpt>
      <trkpt lat="44.18751" lon="0.71281">
        <ele>127</ele>
        <time>2022-08-07T07:58:21.293Z</time>
      </trkpt>
      <trkpt lat="44.1875" lon="0.7128">
        <ele>127</ele>
        <time>2022-08-07T07:58:22.293Z</time>
      </trkpt>
      <trkpt lat="44.18749" lon="0.71279">
        <ele>127</ele>
        <time>2022-08-07T07:58:23.293Z</time>
      </trkpt>
      <trkpt lat="44.18749" lon="0.71278">
        <ele>127</ele>
        <time>2022-08-07T07:58:24.293Z</time>
      </trkpt>
      <trkpt lat="44.18748" lon="0.71277">
        <ele>127</ele>
        <time>2022-08-07T07:58:25.293Z</time>
      </trkpt>
      <trkpt lat="44.18747" lon="0.71276">
        <ele>127</ele>
        <time>2022-08-07T07:58:26.293Z</time>
      </trkpt>
      <trkpt lat="44.18746" lon="0.71275">
        <ele>127</ele>
        <time>2022-08-07T07:58:27.293Z</time>
      </trkpt>
      <trkpt lat="44.18745" lon="0.71274">
        <ele>128</ele>
        <time>2022-08-07T07:58:28.293Z</time>
      </trkpt>
      <trkpt lat="44.18744" lon="0.71273">
        <ele>128</ele>
        <time>2022-08-07T07:58:29.293Z</time>
      </trkpt>
      <trkpt lat="44.18743" lon="0.71272">
        <ele>127</ele>
        <time>2022-08-07T07:58:30.293Z</time>
      </trkpt>
      <trkpt lat="44.18743" lon="0.71271">
        <ele>126</ele>
        <time>2022-08-07T07:58:31.293Z</time>
      </trkpt>
      <trkpt lat="44.18742" lon="0.7127">
        <ele>126</ele>
        <time>2022-08-07T07:58:32.293Z</time>
      </trkpt>
      <trkpt lat="44.18741" lon="0.7127">
        <ele>126</ele>
        <time>2022-08-07T07:58:33.293Z</time>
      </trkpt>
      <trkpt lat="44.1874" lon="0.71269">
        <ele>126</ele>
        <time>2022-08-07T07:58:34.293Z</time>
      </trkpt>
      <trkpt lat="44.18739" lon="0.71268">
        <ele>126</ele>
        <time>2022-08-07T07:58:35.293Z</time>
      </trkpt>
      <trkpt lat="44.18738" lon="0.71267">
        <ele>126</ele>
        <time>2022-08-07T07:58:36.293Z</time>
      </trkpt>
      <trkpt lat="44.18738" lon="0.71267">
        <ele>127</ele>
        <time>2022-08-07T07:58:37.293Z</time>
      </trkpt>
      <trkpt lat="44.18737" lon="0.71266">
        <ele>127</ele>
        <time>2022-08-07T07:58:38.293Z</time>
      </trkpt>
      <trkpt lat="44.18736" lon="0.71266">
        <ele>127</ele>
        <time>2022-08-07T07:58:39.293Z</time>
      </trkpt>
      <trkpt lat="44.18735" lon="0.71265">
        <ele>127</ele>
        <time>2022-08-07T07:58:40.293Z</time>
      </trkpt>
      <trkpt lat="44.18734" lon="0.71265">
        <ele>126</ele>
        <time>2022-08-07T07:58:41.293Z</time>
      </trkpt>
      <trkpt lat="44.18732" lon="0.71264">
        <ele>126</ele>
        <time>2022-08-07T07:58:42.293Z</time>
      </trkpt>
      <trkpt lat="44.18731" lon="0.71263">
        <ele>127</ele>
        <time>2022-08-07T07:58:43.293Z</time>
      </trkpt>
      <trkpt lat="44.18729" lon="0.71262">
        <ele>127</ele>
        <time>2022-08-07T07:58:44.293Z</time>
      </trkpt>
      <trkpt lat="44.18728" lon="0.71261">
        <ele>128</ele>
        <time>2022-08-07T07:58:45.293Z</time>
      </trkpt>
      <trkpt lat="44.18726" lon="0.71261">
        <ele>127</ele>
        <time>2022-08-07T07:58:46.293Z</time>
      </trkpt>
      <trkpt lat="44.18725" lon="0.7126">
        <ele>128</ele>
        <time>2022-08-07T07:58:47.293Z</time>
      </trkpt>
      <trkpt lat="44.18724" lon="0.7126">
        <ele>129</ele>
        <time>2022-08-07T07:58:48.293Z</time>
      </trkpt>
      <trkpt lat="44.18723" lon="0.71259">
        <ele>129</ele>
        <time>2022-08-07T07:58:49.293Z</time>
      </trkpt>
      <trkpt lat="44.18722" lon="0.71259">
        <ele>129</ele>
        <time>2022-08-07T07:58:50.293Z</time>
      </trkpt>
      <trkpt lat="44.1872" lon="0.71258">
        <ele>129</ele>
        <time>2022-08-07T07:58:51.293Z</time>
      </trkpt>
      <trkpt lat="44.18719" lon="0.71258">
        <ele>129</ele>
        <time>2022-08-07T07:58:52.293Z</time>
      </trkpt>
      <trkpt lat="44.18717" lon="0.71258">
        <ele>130</ele>
        <time>2022-08-07T07:58:53.293Z</time>
      </trkpt>
      <trkpt lat="44.18716" lon="0.71257">
        <ele>131</ele>
        <time>2022-08-07T07:58:54.293Z</time>
      </trkpt>
      <trkpt lat="44.18714" lon="0.71256">
        <ele>131</ele>
        <time>2022-08-07T07:58:55.293Z</time>
      </trkpt>
      <trkpt lat="44.18713" lon="0.71255">
        <ele>132</ele>
        <time>2022-08-07T07:58:56.293Z</time>
      </trkpt>
      <trkpt lat="44.18712" lon="0.71255">
        <ele>132</ele>
        <time>2022-08-07T07:58:57.293Z</time>
      </trkpt>
      <trkpt lat="44.18711" lon="0.71255">
        <ele>133</ele>
        <time>2022-08-07T07:58:58.293Z</time>
      </trkpt>
      <trkpt lat="44.1871" lon="0.71254">
        <ele>134</ele>
        <time>2022-08-07T07:58:59.293Z</time>
      </trkpt>
      <trkpt lat="44.18708" lon="0.71253">
        <ele>133</ele>
        <time>2022-08-07T07:59:00.293Z</time>
      </trkpt>
      <trkpt lat="44.18707" lon="0.71253">
        <ele>133</ele>
        <time>2022-08-07T07:59:01.293Z</time>
      </trkpt>
      <trkpt lat="44.18707" lon="0.71253">
        <ele>133</ele>
        <time>2022-08-07T07:59:02.293Z</time>
      </trkpt>
      <trkpt lat="44.18706" lon="0.71252">
        <ele>133</ele>
        <time>2022-08-07T07:59:03.293Z</time>
      </trkpt>
      <trkpt lat="44.18705" lon="0.71252">
        <ele>134</ele>
        <time>2022-08-07T07:59:04.293Z</time>
      </trkpt>
      <trkpt lat="44.18704" lon="0.71251">
        <ele>134</ele>
        <time>2022-08-07T07:59:05.293Z</time>
      </trkpt>
      <trkpt lat="44.18703" lon="0.71251">
        <ele>134</ele>
        <time>2022-08-07T07:59:06.293Z</time>
      </trkpt>
      <trkpt lat="44.18702" lon="0.71251">
        <ele>134</ele>
        <time>2022-08-07T07:59:07.293Z</time>
      </trkpt>
      <trkpt lat="44.18701" lon="0.71251">
        <ele>134</ele>
        <time>2022-08-07T07:59:08.293Z</time>
      </trkpt>
      <trkpt lat="44.187" lon="0.71251">
        <ele>134</ele>
        <time>2022-08-07T07:59:09.293Z</time>
      </trkpt>
      <trkpt lat="44.18699" lon="0.71251">
        <ele>134</ele>
        <time>2022-08-07T07:59:10.293Z</time>
      </trkpt>
      <trkpt lat="44.18699" lon="0.7125">
        <ele>134</ele>
        <time>2022-08-07T07:59:11.293Z</time>
      </trkpt>
      <trkpt lat="44.18697" lon="0.7125">
        <ele>136</ele>
        <time>2022-08-07T07:59:12.293Z</time>
      </trkpt>
      <trkpt lat="44.18696" lon="0.71249">
        <ele>136</ele>
        <time>2022-08-07T07:59:13.293Z</time>
      </trkpt>
      <trkpt lat="44.18695" lon="0.71249">
        <ele>137</ele>
        <time>2022-08-07T07:59:14.293Z</time>
      </trkpt>
      <trkpt lat="44.18693" lon="0.71249">
        <ele>139</ele>
        <time>2022-08-07T07:59:15.293Z</time>
      </trkpt>
      <trkpt lat="44.18692" lon="0.71248">
        <ele>139</ele>
        <time>2022-08-07T07:59:16.293Z</time>
      </trkpt>
      <trkpt lat="44.1869" lon="0.71248">
        <ele>139</ele>
        <time>2022-08-07T07:59:17.293Z</time>
      </trkpt>
      <trkpt lat="44.18689" lon="0.71248">
        <ele>137</ele>
        <time>2022-08-07T07:59:18.293Z</time>
      </trkpt>
      <trkpt lat="44.18688" lon="0.71248">
        <ele>137</ele>
        <time>2022-08-07T07:59:19.293Z</time>
      </trkpt>
      <trkpt lat="44.18686" lon="0.71248">
        <ele>137</ele>
        <time>2022-08-07T07:59:20.293Z</time>
      </trkpt>
      <trkpt lat="44.18685" lon="0.71247">
        <ele>136</ele>
        <time>2022-08-07T07:59:21.293Z</time>
      </trkpt>
      <trkpt lat="44.18683" lon="0.71247">
        <ele>136</ele>
        <time>2022-08-07T07:59:22.293Z</time>
      </trkpt>
      <trkpt lat="44.18682" lon="0.71247">
        <ele>136</ele>
        <time>2022-08-07T07:59:23.293Z</time>
      </trkpt>
      <trkpt lat="44.1868" lon="0.71247">
        <ele>135</ele>
        <time>2022-08-07T07:59:24.293Z</time>
      </trkpt>
      <trkpt lat="44.18678" lon="0.71247">
        <ele>135</ele>
        <time>2022-08-07T07:59:25.293Z</time>
      </trkpt>
      <trkpt lat="44.18677" lon="0.71248">
        <ele>135</ele>
        <time>2022-08-07T07:59:26.293Z</time>
      </trkpt>
      <trkpt lat="44.18675" lon="0.71248">
        <ele>135</ele>
        <time>2022-08-07T07:59:27.293Z</time>
      </trkpt>
      <trkpt lat="44.18674" lon="0.71249">
        <ele>135</ele>
        <time>2022-08-07T07:59:28.293Z</time>
      </trkpt>
      <trkpt lat="44.18674" lon="0.7125">
        <ele>135</ele>
        <time>2022-08-07T07:59:29.293Z</time>
      </trkpt>
      <trkpt lat="44.18673" lon="0.7125">
        <ele>135</ele>
        <time>2022-08-07T07:59:30.293Z</time>
      </trkpt>
      <trkpt lat="44.18672" lon="0.71251">
        <ele>134</ele>
        <time>2022-08-07T07:59:31.293Z</time>
      </trkpt>
      <trkpt lat="44.18671" lon="0.71251">
        <ele>134</ele>
        <time>2022-08-07T07:59:32.293Z</time>
      </trkpt>
      <trkpt lat="44.1867" lon="0.71252">
        <ele>134</ele>
        <time>2022-08-07T07:59:33.293Z</time>
      </trkpt>
      <trkpt lat="44.1867" lon="0.71252">
        <ele>134</ele>
        <time>2022-08-07T07:59:34.293Z</time>
      </trkpt>
      <trkpt lat="44.18669" lon="0.71253">
        <ele>134</ele>
        <time>2022-08-07T07:59:35.293Z</time>
      </trkpt>
      <trkpt lat="44.18669" lon="0.71253">
        <ele>134</ele>
        <time>2022-08-07T07:59:36.293Z</time>
      </trkpt>
      <trkpt lat="44.18668" lon="0.71254">
        <ele>133</ele>
        <time>2022-08-07T07:59:37.293Z</time>
      </trkpt>
      <trkpt lat="44.18668" lon="0.71254">
        <ele>133</ele>
        <time>2022-08-07T07:59:38.293Z</time>
      </trkpt>
      <trkpt lat="44.18667" lon="0.71255">
        <ele>132</ele>
        <time>2022-08-07T07:59:39.293Z</time>
      </trkpt>
      <trkpt lat="44.18667" lon="0.71255">
        <ele>132</ele>
        <time>2022-08-07T07:59:40.293Z</time>
      </trkpt>
      <trkpt lat="44.18667" lon="0.71256">
        <ele>132</ele>
        <time>2022-08-07T07:59:41.293Z</time>
      </trkpt>
      <trkpt lat="44.18666" lon="0.71256">
        <ele>131</ele>
        <time>2022-08-07T07:59:42.293Z</time>
      </trkpt>
      <trkpt lat="44.18666" lon="0.71256">
        <ele>131</ele>
        <time>2022-08-07T07:59:43.293Z</time>
      </trkpt>
      <trkpt lat="44.18666" lon="0.71252">
        <ele>132</ele>
        <time>2022-08-07T08:01:01.292Z</time>
      </trkpt>
      <trkpt lat="44.18666" lon="0.71252">
        <ele>132</ele>
        <time>2022-08-07T08:01:02.292Z</time>
      </trkpt>
      <trkpt lat="44.18667" lon="0.71251">
        <ele>131</ele>
        <time>2022-08-07T08:01:03.292Z</time>
      </trkpt>
      <trkpt lat="44.18667" lon="0.71251">
        <ele>131</ele>
        <time>2022-08-07T08:01:04.292Z</time>
      </trkpt>
      <trkpt lat="44.18667" lon="0.71251">
        <ele>131</ele>
        <time>2022-08-07T08:01:05.292Z</time>
      </trkpt>
      <trkpt lat="44.18668" lon="0.71251">
        <ele>131</ele>
        <time>2022-08-07T08:01:06.292Z</time>
      </trkpt>
      <trkpt lat="44.18668" lon="0.71252">
        <ele>131</ele>
        <time>2022-08-07T08:01:07.292Z</time>
      </trkpt>
      <trkpt lat="44.18668" lon="0.71252">
        <ele>130</ele>
        <time>2022-08-07T08:01:08.292Z</time>
      </trkpt>
      <trkpt lat="44.18668" lon="0.71252">
        <ele>130</ele>
        <time>2022-08-07T08:01:09.292Z</time>
      </trkpt>
      <trkpt lat="44.18664" lon="0.71255">
        <ele>132</ele>
        <time>2022-08-07T08:01:34.183Z</time>
      </trkpt>
      <trkpt lat="44.18664" lon="0.71254">
        <ele>132</ele>
        <time>2022-08-07T08:01:35.183Z</time>
      </trkpt>
      <trkpt lat="44.18663" lon="0.71254">
        <ele>131</ele>
        <time>2022-08-07T08:01:36.183Z</time>
      </trkpt>
      <trkpt lat="44.18663" lon="0.71253">
        <ele>132</ele>
        <time>2022-08-07T08:01:37.183Z</time>
      </trkpt>
      <trkpt lat="44.18663" lon="0.71253">
        <ele>131</ele>
        <time>2022-08-07T08:01:38.183Z</time>
      </trkpt>
      <trkpt lat="44.18663" lon="0.71253">
        <ele>131</ele>
        <time>2022-08-07T08:01:39.183Z</time>
      </trkpt>
      <trkpt lat="44.18663" lon="0.71253">
        <ele>132</ele>
        <time>2022-08-07T08:01:40.183Z</time>
      </trkpt>
      <trkpt lat="44.18663" lon="0.71253">
        <ele>132</ele>
        <time>2022-08-07T08:01:41.183Z</time>
      </trkpt>
      <trkpt lat="44.18664" lon="0.71253">
        <ele>132</ele>
        <time>2022-08-07T08:01:42.183Z</time>
      </trkpt>
      <trkpt lat="44.18664" lon="0.71252">
        <ele>132</ele>
        <time>2022-08-07T08:01:43.183Z</time>
      </trkpt>
      <trkpt lat="44.18661" lon="0.7125">
        <ele>131</ele>
        <time>2022-08-07T08:02:37.186Z</time>
      </trkpt>
      <trkpt lat="44.1866" lon="0.7125">
        <ele>130</ele>
        <time>2022-08-07T08:02:38.186Z</time>
      </trkpt>
      <trkpt lat="44.1866" lon="0.71249">
        <ele>131</ele>
        <time>2022-08-07T08:02:39.186Z</time>
      </trkpt>
      <trkpt lat="44.1866" lon="0.71249">
        <ele>131</ele>
        <time>2022-08-07T08:02:40.186Z</time>
      </trkpt>
      <trkpt lat="44.18659" lon="0.71249">
        <ele>132</ele>
        <time>2022-08-07T08:02:41.186Z</time>
      </trkpt>
      <trkpt lat="44.18659" lon="0.71249">
        <ele>131</ele>
        <time>2022-08-07T08:02:42.186Z</time>
      </trkpt>
      <trkpt lat="44.18658" lon="0.71249">
        <ele>132</ele>
        <time>2022-08-07T08:02:43.186Z</time>
      </trkpt>
      <trkpt lat="44.18658" lon="0.71249">
        <ele>132</ele>
        <time>2022-08-07T08:02:44.186Z</time>
      </trkpt>
      <trkpt lat="44.18658" lon="0.71249">
        <ele>132</ele>
        <time>2022-08-07T08:02:45.186Z</time>
      </trkpt>
      <trkpt lat="44.18658" lon="0.71249">
        <ele>132</ele>
        <time>2022-08-07T08:02:46.186Z</time>
      </trkpt>
      <trkpt lat="44.18658" lon="0.71249">
        <ele>131</ele>
        <time>2022-08-07T08:02:47.186Z</time>
      </trkpt>
      <trkpt lat="44.18658" lon="0.71249">
        <ele>131</ele>
        <time>2022-08-07T08:02:48.186Z</time>
      </trkpt>
      <trkpt lat="44.18657" lon="0.71249">
        <ele>131</ele>
        <time>2022-08-07T08:02:49.186Z</time>
      </trkpt>
      <trkpt lat="44.18657" lon="0.71249">
        <ele>130</ele>
        <time>2022-08-07T08:02:50.186Z</time>
      </trkpt>
      <trkpt lat="44.18657" lon="0.7125">
        <ele>130</ele>
        <time>2022-08-07T08:02:51.186Z</time>
      </trkpt>
      <trkpt lat="44.18656" lon="0.7125">
        <ele>130</ele>
        <time>2022-08-07T08:02:52.186Z</time>
      </trkpt>
      <trkpt lat="44.18655" lon="0.71251">
        <ele>129</ele>
        <time>2022-08-07T08:02:53.186Z</time>
      </trkpt>
      <trkpt lat="44.18655" lon="0.71252">
        <ele>129</ele>
        <time>2022-08-07T08:02:54.186Z</time>
      </trkpt>
      <trkpt lat="44.18654" lon="0.71252">
        <ele>129</ele>
        <time>2022-08-07T08:02:55.186Z</time>
      </trkpt>
      <trkpt lat="44.18653" lon="0.71253">
        <ele>128</ele>
        <time>2022-08-07T08:02:56.186Z</time>
      </trkpt>
      <trkpt lat="44.18653" lon="0.71254">
        <ele>128</ele>
        <time>2022-08-07T08:02:57.186Z</time>
      </trkpt>
      <trkpt lat="44.18652" lon="0.71255">
        <ele>127</ele>
        <time>2022-08-07T08:02:58.186Z</time>
      </trkpt>
      <trkpt lat="44.18652" lon="0.71256">
        <ele>127</ele>
        <time>2022-08-07T08:02:59.186Z</time>
      </trkpt>
      <trkpt lat="44.18651" lon="0.71256">
        <ele>128</ele>
        <time>2022-08-07T08:03:00.186Z</time>
      </trkpt>
      <trkpt lat="44.1865" lon="0.71257">
        <ele>127</ele>
        <time>2022-08-07T08:03:01.186Z</time>
      </trkpt>
      <trkpt lat="44.1865" lon="0.71258">
        <ele>127</ele>
        <time>2022-08-07T08:03:02.186Z</time>
      </trkpt>
      <trkpt lat="44.1865" lon="0.71259">
        <ele>126</ele>
        <time>2022-08-07T08:03:03.186Z</time>
      </trkpt>
      <trkpt lat="44.18649" lon="0.7126">
        <ele>126</ele>
        <time>2022-08-07T08:03:04.186Z</time>
      </trkpt>
      <trkpt lat="44.18648" lon="0.71262">
        <ele>126</ele>
        <time>2022-08-07T08:03:05.186Z</time>
      </trkpt>
      <trkpt lat="44.18647" lon="0.71263">
        <ele>126</ele>
        <time>2022-08-07T08:03:06.186Z</time>
      </trkpt>
      <trkpt lat="44.18647" lon="0.71264">
        <ele>126</ele>
        <time>2022-08-07T08:03:07.186Z</time>
      </trkpt>
      <trkpt lat="44.18646" lon="0.71265">
        <ele>127</ele>
        <time>2022-08-07T08:03:08.186Z</time>
      </trkpt>
      <trkpt lat="44.18646" lon="0.71266">
        <ele>126</ele>
        <time>2022-08-07T08:03:09.186Z</time>
      </trkpt>
      <trkpt lat="44.18645" lon="0.71267">
        <ele>126</ele>
        <time>2022-08-07T08:03:10.186Z</time>
      </trkpt>
      <trkpt lat="44.18645" lon="0.71269">
        <ele>126</ele>
        <time>2022-08-07T08:03:11.186Z</time>
      </trkpt>
      <trkpt lat="44.18644" lon="0.7127">
        <ele>126</ele>
        <time>2022-08-07T08:03:12.186Z</time>
      </trkpt>
      <trkpt lat="44.18644" lon="0.71271">
        <ele>126</ele>
        <time>2022-08-07T08:03:13.186Z</time>
      </trkpt>
      <trkpt lat="44.18643" lon="0.71272">
        <ele>125</ele>
        <time>2022-08-07T08:03:14.186Z</time>
      </trkpt>
      <trkpt lat="44.18642" lon="0.71273">
        <ele>126</ele>
        <time>2022-08-07T08:03:15.186Z</time>
      </trkpt>
      <trkpt lat="44.18642" lon="0.71275">
        <ele>126</ele>
        <time>2022-08-07T08:03:16.186Z</time>
      </trkpt>
      <trkpt lat="44.18641" lon="0.71276">
        <ele>126</ele>
        <time>2022-08-07T08:03:17.186Z</time>
      </trkpt>
      <trkpt lat="44.18641" lon="0.71277">
        <ele>126</ele>
        <time>2022-08-07T08:03:18.186Z</time>
      </trkpt>
      <trkpt lat="44.18641" lon="0.71278">
        <ele>126</ele>
        <time>2022-08-07T08:03:19.186Z</time>
      </trkpt>
      <trkpt lat="44.1864" lon="0.71279">
        <ele>126</ele>
        <time>2022-08-07T08:03:20.186Z</time>
      </trkpt>
      <trkpt lat="44.1864" lon="0.7128">
        <ele>126</ele>
        <time>2022-08-07T08:03:21.186Z</time>
      </trkpt>
      <trkpt lat="44.18639" lon="0.71281">
        <ele>127</ele>
        <time>2022-08-07T08:03:22.186Z</time>
      </trkpt>
      <trkpt lat="44.18639" lon="0.71283">
        <ele>127</ele>
        <time>2022-08-07T08:03:23.186Z</time>
      </trkpt>
      <trkpt lat="44.18638" lon="0.71284">
        <ele>127</ele>
        <time>2022-08-07T08:03:24.186Z</time>
      </trkpt>
      <trkpt lat="44.18638" lon="0.71285">
        <ele>127</ele>
        <time>2022-08-07T08:03:25.186Z</time>
      </trkpt>
      <trkpt lat="44.18637" lon="0.71286">
        <ele>127</ele>
        <time>2022-08-07T08:03:26.186Z</time>
      </trkpt>
      <trkpt lat="44.18637" lon="0.71287">
        <ele>126</ele>
        <time>2022-08-07T08:03:27.186Z</time>
      </trkpt>
      <trkpt lat="44.18636" lon="0.71288">
        <ele>126</ele>
        <time>2022-08-07T08:03:28.186Z</time>
      </trkpt>
      <trkpt lat="44.18636" lon="0.7129">
        <ele>124</ele>
        <time>2022-08-07T08:03:29.186Z</time>
      </trkpt>
      <trkpt lat="44.18635" lon="0.71291">
        <ele>124</ele>
        <time>2022-08-07T08:03:30.186Z</time>
      </trkpt>
      <trkpt lat="44.18634" lon="0.71292">
        <ele>124</ele>
        <time>2022-08-07T08:03:31.186Z</time>
      </trkpt>
      <trkpt lat="44.18633" lon="0.71292">
        <ele>124</ele>
        <time>2022-08-07T08:03:32.186Z</time>
      </trkpt>
      <trkpt lat="44.18633" lon="0.71293">
        <ele>124</ele>
        <time>2022-08-07T08:03:33.186Z</time>
      </trkpt>
      <trkpt lat="44.18632" lon="0.71293">
        <ele>124</ele>
        <time>2022-08-07T08:03:34.186Z</time>
      </trkpt>
      <trkpt lat="44.18631" lon="0.71293">
        <ele>124</ele>
        <time>2022-08-07T08:03:35.186Z</time>
      </trkpt>
      <trkpt lat="44.1863" lon="0.71294">
        <ele>125</ele>
        <time>2022-08-07T08:03:36.186Z</time>
      </trkpt>
      <trkpt lat="44.18629" lon="0.71293">
        <ele>122</ele>
        <time>2022-08-07T08:03:37.186Z</time>
      </trkpt>
      <trkpt lat="44.18628" lon="0.71292">
        <ele>122</ele>
        <time>2022-08-07T08:03:38.186Z</time>
      </trkpt>
      <trkpt lat="44.18627" lon="0.71291">
        <ele>121</ele>
        <time>2022-08-07T08:03:39.186Z</time>
      </trkpt>
      <trkpt lat="44.18627" lon="0.7129">
        <ele>122</ele>
        <time>2022-08-07T08:03:40.186Z</time>
      </trkpt>
      <trkpt lat="44.18626" lon="0.71289">
        <ele>122</ele>
        <time>2022-08-07T08:03:41.186Z</time>
      </trkpt>
      <trkpt lat="44.18626" lon="0.71287">
        <ele>121</ele>
        <time>2022-08-07T08:03:42.186Z</time>
      </trkpt>
      <trkpt lat="44.18626" lon="0.71286">
        <ele>120</ele>
        <time>2022-08-07T08:03:43.186Z</time>
      </trkpt>
      <trkpt lat="44.18626" lon="0.71285">
        <ele>120</ele>
        <time>2022-08-07T08:03:44.186Z</time>
      </trkpt>
      <trkpt lat="44.18626" lon="0.71284">
        <ele>120</ele>
        <time>2022-08-07T08:03:45.186Z</time>
      </trkpt>
      <trkpt lat="44.18627" lon="0.71283">
        <ele>121</ele>
        <time>2022-08-07T08:03:46.186Z</time>
      </trkpt>
      <trkpt lat="44.18627" lon="0.71281">
        <ele>120</ele>
        <time>2022-08-07T08:03:47.186Z</time>
      </trkpt>
      <trkpt lat="44.18627" lon="0.7128">
        <ele>120</ele>
        <time>2022-08-07T08:03:48.186Z</time>
      </trkpt>
      <trkpt lat="44.18627" lon="0.71279">
        <ele>120</ele>
        <time>2022-08-07T08:03:49.186Z</time>
      </trkpt>
      <trkpt lat="44.18627" lon="0.71278">
        <ele>120</ele>
        <time>2022-08-07T08:03:50.186Z</time>
      </trkpt>
      <trkpt lat="44.18627" lon="0.71277">
        <ele>120</ele>
        <time>2022-08-07T08:03:51.186Z</time>
      </trkpt>
      <trkpt lat="44.18627" lon="0.71275">
        <ele>120</ele>
        <time>2022-08-07T08:03:52.186Z</time>
      </trkpt>
      <trkpt lat="44.18628" lon="0.71274">
        <ele>120</ele>
        <time>2022-08-07T08:03:53.186Z</time>
      </trkpt>
      <trkpt lat="44.18628" lon="0.71273">
        <ele>119</ele>
        <time>2022-08-07T08:03:54.186Z</time>
      </trkpt>
      <trkpt lat="44.18628" lon="0.71272">
        <ele>119</ele>
        <time>2022-08-07T08:03:55.186Z</time>
      </trkpt>
      <trkpt lat="44.18628" lon="0.71271">
        <ele>118</ele>
        <time>2022-08-07T08:03:56.186Z</time>
      </trkpt>
      <trkpt lat="44.18628" lon="0.7127">
        <ele>118</ele>
        <time>2022-08-07T08:03:57.186Z</time>
      </trkpt>
      <trkpt lat="44.18628" lon="0.71269">
        <ele>118</ele>
        <time>2022-08-07T08:03:58.186Z</time>
      </trkpt>
      <trkpt lat="44.18628" lon="0.71268">
        <ele>118</ele>
        <time>2022-08-07T08:03:59.186Z</time>
      </trkpt>
      <trkpt lat="44.18628" lon="0.71267">
        <ele>118</ele>
        <time>2022-08-07T08:04:00.186Z</time>
      </trkpt>
      <trkpt lat="44.18628" lon="0.71266">
        <ele>118</ele>
        <time>2022-08-07T08:04:01.186Z</time>
      </trkpt>
      <trkpt lat="44.18628" lon="0.71265">
        <ele>118</ele>
        <time>2022-08-07T08:04:02.186Z</time>
      </trkpt>
      <trkpt lat="44.18628" lon="0.71264">
        <ele>117</ele>
        <time>2022-08-07T08:04:03.186Z</time>
      </trkpt>
      <trkpt lat="44.18628" lon="0.71263">
        <ele>118</ele>
        <time>2022-08-07T08:04:04.186Z</time>
      </trkpt>
      <trkpt lat="44.18628" lon="0.71261">
        <ele>118</ele>
        <time>2022-08-07T08:04:05.186Z</time>
      </trkpt>
      <trkpt lat="44.18627" lon="0.7126">
        <ele>118</ele>
        <time>2022-08-07T08:04:06.186Z</time>
      </trkpt>
      <trkpt lat="44.18627" lon="0.71258">
        <ele>119</ele>
        <time>2022-08-07T08:04:07.186Z</time>
      </trkpt>
      <trkpt lat="44.18627" lon="0.71257">
        <ele>118</ele>
        <time>2022-08-07T08:04:08.186Z</time>
      </trkpt>
      <trkpt lat="44.18627" lon="0.71256">
        <ele>118</ele>
        <time>2022-08-07T08:04:09.186Z</time>
      </trkpt>
      <trkpt lat="44.18627" lon="0.71255">
        <ele>117</ele>
        <time>2022-08-07T08:04:10.186Z</time>
      </trkpt>
      <trkpt lat="44.18627" lon="0.71254">
        <ele>117</ele>
        <time>2022-08-07T08:04:11.186Z</time>
      </trkpt>
      <trkpt lat="44.18627" lon="0.71253">
        <ele>117</ele>
        <time>2022-08-07T08:04:12.186Z</time>
      </trkpt>
      <trkpt lat="44.18627" lon="0.71251">
        <ele>117</ele>
        <time>2022-08-07T08:04:13.186Z</time>
      </trkpt>
      <trkpt lat="44.18627" lon="0.7125">
        <ele>117</ele>
        <time>2022-08-07T08:04:14.186Z</time>
      </trkpt>
      <trkpt lat="44.18627" lon="0.71249">
        <ele>117</ele>
        <time>2022-08-07T08:04:15.186Z</time>
      </trkpt>
      <trkpt lat="44.18627" lon="0.71248">
        <ele>117</ele>
        <time>2022-08-07T08:04:16.186Z</time>
      </trkpt>
      <trkpt lat="44.18627" lon="0.71247">
        <ele>117</ele>
        <time>2022-08-07T08:04:17.186Z</time>
      </trkpt>
      <trkpt lat="44.18627" lon="0.71245">
        <ele>117</ele>
        <time>2022-08-07T08:04:18.186Z</time>
      </trkpt>
      <trkpt lat="44.18627" lon="0.71244">
        <ele>116</ele>
        <time>2022-08-07T08:04:19.186Z</time>
      </trkpt>
      <trkpt lat="44.18627" lon="0.71242">
        <ele>116</ele>
        <time>2022-08-07T08:04:20.186Z</time>
      </trkpt>
      <trkpt lat="44.18627" lon="0.71241">
        <ele>116</ele>
        <time>2022-08-07T08:04:21.186Z</time>
      </trkpt>
      <trkpt lat="44.18627" lon="0.71239">
        <ele>116</ele>
        <time>2022-08-07T08:04:22.186Z</time>
      </trkpt>
      <trkpt lat="44.18627" lon="0.71238">
        <ele>116</ele>
        <time>2022-08-07T08:04:23.186Z</time>
      </trkpt>
      <trkpt lat="44.18627" lon="0.71237">
        <ele>116</ele>
        <time>2022-08-07T08:04:24.186Z</time>
      </trkpt>
      <trkpt lat="44.18627" lon="0.71235">
        <ele>115</ele>
        <time>2022-08-07T08:04:25.186Z</time>
      </trkpt>
      <trkpt lat="44.18628" lon="0.71234">
        <ele>114</ele>
        <time>2022-08-07T08:04:26.186Z</time>
      </trkpt>
      <trkpt lat="44.18628" lon="0.71233">
        <ele>114</ele>
        <time>2022-08-07T08:04:27.186Z</time>
      </trkpt>
      <trkpt lat="44.18628" lon="0.71232">
        <ele>113</ele>
        <time>2022-08-07T08:04:28.186Z</time>
      </trkpt>
      <trkpt lat="44.18628" lon="0.7123">
        <ele>113</ele>
        <time>2022-08-07T08:04:29.186Z</time>
      </trkpt>
      <trkpt lat="44.18628" lon="0.71229">
        <ele>113</ele>
        <time>2022-08-07T08:04:30.186Z</time>
      </trkpt>
      <trkpt lat="44.18628" lon="0.71228">
        <ele>113</ele>
        <time>2022-08-07T08:04:31.186Z</time>
      </trkpt>
      <trkpt lat="44.18628" lon="0.71226">
        <ele>113</ele>
        <time>2022-08-07T08:04:32.186Z</time>
      </trkpt>
      <trkpt lat="44.18628" lon="0.71226">
        <ele>112</ele>
        <time>2022-08-07T08:04:33.186Z</time>
      </trkpt>
      <trkpt lat="44.18628" lon="0.71225">
        <ele>112</ele>
        <time>2022-08-07T08:04:34.186Z</time>
      </trkpt>
      <trkpt lat="44.18628" lon="0.71224">
        <ele>112</ele>
        <time>2022-08-07T08:04:35.186Z</time>
      </trkpt>
      <trkpt lat="44.18628" lon="0.71222">
        <ele>112</ele>
        <time>2022-08-07T08:04:36.186Z</time>
      </trkpt>
      <trkpt lat="44.18627" lon="0.71221">
        <ele>112</ele>
        <time>2022-08-07T08:04:37.186Z</time>
      </trkpt>
      <trkpt lat="44.18627" lon="0.71219">
        <ele>112</ele>
        <time>2022-08-07T08:04:38.186Z</time>
      </trkpt>
      <trkpt lat="44.18627" lon="0.71218">
        <ele>111</ele>
        <time>2022-08-07T08:04:39.186Z</time>
      </trkpt>
      <trkpt lat="44.18627" lon="0.71217">
        <ele>111</ele>
        <time>2022-08-07T08:04:40.186Z</time>
      </trkpt>
      <trkpt lat="44.18627" lon="0.71216">
        <ele>110</ele>
        <time>2022-08-07T08:04:41.186Z</time>
      </trkpt>
      <trkpt lat="44.18627" lon="0.71214">
        <ele>109</ele>
        <time>2022-08-07T08:04:42.186Z</time>
      </trkpt>
      <trkpt lat="44.18628" lon="0.71213">
        <ele>109</ele>
        <time>2022-08-07T08:04:43.186Z</time>
      </trkpt>
      <trkpt lat="44.18628" lon="0.71212">
        <ele>109</ele>
        <time>2022-08-07T08:04:44.186Z</time>
      </trkpt>
      <trkpt lat="44.18628" lon="0.7121">
        <ele>109</ele>
        <time>2022-08-07T08:04:45.186Z</time>
      </trkpt>
      <trkpt lat="44.18628" lon="0.71209">
        <ele>108</ele>
        <time>2022-08-07T08:04:46.186Z</time>
      </trkpt>
      <trkpt lat="44.18628" lon="0.71208">
        <ele>108</ele>
        <time>2022-08-07T08:04:47.186Z</time>
      </trkpt>
      <trkpt lat="44.18629" lon="0.71207">
        <ele>107</ele>
        <time>2022-08-07T08:04:48.186Z</time>
      </trkpt>
      <trkpt lat="44.18629" lon="0.71205">
        <ele>108</ele>
        <time>2022-08-07T08:04:49.186Z</time>
      </trkpt>
      <trkpt lat="44.18629" lon="0.71204">
        <ele>108</ele>
        <time>2022-08-07T08:04:50.186Z</time>
      </trkpt>
      <trkpt lat="44.1863" lon="0.71202">
        <ele>106</ele>
        <time>2022-08-07T08:04:51.186Z</time>
      </trkpt>
      <trkpt lat="44.1863" lon="0.71201">
        <ele>107</ele>
        <time>2022-08-07T08:04:52.186Z</time>
      </trkpt>
      <trkpt lat="44.1863" lon="0.71201">
        <ele>107</ele>
        <time>2022-08-07T08:04:53.186Z</time>
      </trkpt>
      <trkpt lat="44.1863" lon="0.712">
        <ele>107</ele>
        <time>2022-08-07T08:04:54.186Z</time>
      </trkpt>
      <trkpt lat="44.18631" lon="0.71199">
        <ele>106</ele>
        <time>2022-08-07T08:04:55.186Z</time>
      </trkpt>
      <trkpt lat="44.18631" lon="0.71198">
        <ele>106</ele>
        <time>2022-08-07T08:04:56.186Z</time>
      </trkpt>
      <trkpt lat="44.18631" lon="0.71197">
        <ele>105</ele>
        <time>2022-08-07T08:04:57.186Z</time>
      </trkpt>
      <trkpt lat="44.18631" lon="0.71195">
        <ele>105</ele>
        <time>2022-08-07T08:04:58.186Z</time>
      </trkpt>
      <trkpt lat="44.18631" lon="0.71193">
        <ele>105</ele>
        <time>2022-08-07T08:04:59.186Z</time>
      </trkpt>
      <trkpt lat="44.18631" lon="0.71192">
        <ele>105</ele>
        <time>2022-08-07T08:05:00.186Z</time>
      </trkpt>
      <trkpt lat="44.18631" lon="0.71191">
        <ele>105</ele>
        <time>2022-08-07T08:05:01.186Z</time>
      </trkpt>
      <trkpt lat="44.18631" lon="0.71189">
        <ele>105</ele>
        <time>2022-08-07T08:05:02.186Z</time>
      </trkpt>
      <trkpt lat="44.18631" lon="0.71187">
        <ele>105</ele>
        <time>2022-08-07T08:05:03.186Z</time>
      </trkpt>
      <trkpt lat="44.18632" lon="0.71186">
        <ele>105</ele>
        <time>2022-08-07T08:05:04.186Z</time>
      </trkpt>
      <trkpt lat="44.18632" lon="0.71185">
        <ele>105</ele>
        <time>2022-08-07T08:05:05.186Z</time>
      </trkpt>
      <trkpt lat="44.18632" lon="0.71184">
        <ele>104</ele>
        <time>2022-08-07T08:05:06.186Z</time>
      </trkpt>
      <trkpt lat="44.18632" lon="0.71182">
        <ele>104</ele>
        <time>2022-08-07T08:05:07.186Z</time>
      </trkpt>
      <trkpt lat="44.18632" lon="0.71181">
        <ele>104</ele>
        <time>2022-08-07T08:05:08.186Z</time>
      </trkpt>
      <trkpt lat="44.18632" lon="0.71179">
        <ele>104</ele>
        <time>2022-08-07T08:05:09.186Z</time>
      </trkpt>
      <trkpt lat="44.18632" lon="0.71178">
        <ele>104</ele>
        <time>2022-08-07T08:05:10.186Z</time>
      </trkpt>
      <trkpt lat="44.18632" lon="0.71177">
        <ele>103</ele>
        <time>2022-08-07T08:05:11.186Z</time>
      </trkpt>
      <trkpt lat="44.18632" lon="0.71176">
        <ele>103</ele>
        <time>2022-08-07T08:05:12.186Z</time>
      </trkpt>
      <trkpt lat="44.18633" lon="0.71174">
        <ele>103</ele>
        <time>2022-08-07T08:05:13.186Z</time>
      </trkpt>
      <trkpt lat="44.18633" lon="0.71173">
        <ele>103</ele>
        <time>2022-08-07T08:05:14.186Z</time>
      </trkpt>
      <trkpt lat="44.18633" lon="0.71172">
        <ele>104</ele>
        <time>2022-08-07T08:05:15.186Z</time>
      </trkpt>
      <trkpt lat="44.18633" lon="0.71171">
        <ele>103</ele>
        <time>2022-08-07T08:05:16.186Z</time>
      </trkpt>
      <trkpt lat="44.18634" lon="0.7117">
        <ele>103</ele>
        <time>2022-08-07T08:05:17.186Z</time>
      </trkpt>
      <trkpt lat="44.18634" lon="0.71169">
        <ele>103</ele>
        <time>2022-08-07T08:05:18.186Z</time>
      </trkpt>
      <trkpt lat="44.18634" lon="0.71168">
        <ele>103</ele>
        <time>2022-08-07T08:05:19.186Z</time>
      </trkpt>
      <trkpt lat="44.18634" lon="0.71167">
        <ele>103</ele>
        <time>2022-08-07T08:05:20.186Z</time>
      </trkpt>
      <trkpt lat="44.18635" lon="0.71166">
        <ele>103</ele>
        <time>2022-08-07T08:05:21.186Z</time>
      </trkpt>
      <trkpt lat="44.18635" lon="0.71164">
        <ele>103</ele>
        <time>2022-08-07T08:05:22.186Z</time>
      </trkpt>
      <trkpt lat="44.18636" lon="0.71162">
        <ele>103</ele>
        <time>2022-08-07T08:05:23.186Z</time>
      </trkpt>
      <trkpt lat="44.18636" lon="0.71161">
        <ele>105</ele>
        <time>2022-08-07T08:05:24.186Z</time>
      </trkpt>
      <trkpt lat="44.18636" lon="0.71159">
        <ele>105</ele>
        <time>2022-08-07T08:05:25.186Z</time>
      </trkpt>
      <trkpt lat="44.18637" lon="0.71158">
        <ele>105</ele>
        <time>2022-08-07T08:05:26.186Z</time>
      </trkpt>
      <trkpt lat="44.18637" lon="0.71156">
        <ele>104</ele>
        <time>2022-08-07T08:05:27.186Z</time>
      </trkpt>
      <trkpt lat="44.18638" lon="0.71155">
        <ele>103</ele>
        <time>2022-08-07T08:05:28.186Z</time>
      </trkpt>
      <trkpt lat="44.18639" lon="0.71154">
        <ele>103</ele>
        <time>2022-08-07T08:05:29.186Z</time>
      </trkpt>
      <trkpt lat="44.18639" lon="0.71153">
        <ele>103</ele>
        <time>2022-08-07T08:05:30.186Z</time>
      </trkpt>
      <trkpt lat="44.1864" lon="0.71152">
        <ele>102</ele>
        <time>2022-08-07T08:05:31.186Z</time>
      </trkpt>
      <trkpt lat="44.1864" lon="0.7115">
        <ele>102</ele>
        <time>2022-08-07T08:05:32.186Z</time>
      </trkpt>
      <trkpt lat="44.18641" lon="0.71149">
        <ele>102</ele>
        <time>2022-08-07T08:05:33.186Z</time>
      </trkpt>
      <trkpt lat="44.18641" lon="0.71147">
        <ele>102</ele>
        <time>2022-08-07T08:05:34.186Z</time>
      </trkpt>
      <trkpt lat="44.18642" lon="0.71145">
        <ele>103</ele>
        <time>2022-08-07T08:05:35.186Z</time>
      </trkpt>
      <trkpt lat="44.18642" lon="0.71143">
        <ele>103</ele>
        <time>2022-08-07T08:05:36.186Z</time>
      </trkpt>
      <trkpt lat="44.18643" lon="0.71142">
        <ele>102</ele>
        <time>2022-08-07T08:05:37.186Z</time>
      </trkpt>
      <trkpt lat="44.18643" lon="0.71141">
        <ele>102</ele>
        <time>2022-08-07T08:05:38.186Z</time>
      </trkpt>
      <trkpt lat="44.18644" lon="0.71139">
        <ele>101</ele>
        <time>2022-08-07T08:05:39.186Z</time>
      </trkpt>
      <trkpt lat="44.18644" lon="0.71138">
        <ele>101</ele>
        <time>2022-08-07T08:05:40.186Z</time>
      </trkpt>
      <trkpt lat="44.18644" lon="0.71137">
        <ele>101</ele>
        <time>2022-08-07T08:05:41.186Z</time>
      </trkpt>
      <trkpt lat="44.18645" lon="0.71136">
        <ele>100</ele>
        <time>2022-08-07T08:05:42.186Z</time>
      </trkpt>
      <trkpt lat="44.18645" lon="0.71134">
        <ele>100</ele>
        <time>2022-08-07T08:05:43.186Z</time>
      </trkpt>
      <trkpt lat="44.18645" lon="0.71133">
        <ele>99</ele>
        <time>2022-08-07T08:05:44.186Z</time>
      </trkpt>
      <trkpt lat="44.18646" lon="0.71132">
        <ele>99</ele>
        <time>2022-08-07T08:05:45.186Z</time>
      </trkpt>
      <trkpt lat="44.18646" lon="0.71131">
        <ele>100</ele>
        <time>2022-08-07T08:05:46.186Z</time>
      </trkpt>
      <trkpt lat="44.18646" lon="0.71129">
        <ele>99</ele>
        <time>2022-08-07T08:05:47.186Z</time>
      </trkpt>
      <trkpt lat="44.18647" lon="0.71128">
        <ele>99</ele>
        <time>2022-08-07T08:05:48.186Z</time>
      </trkpt>
      <trkpt lat="44.18647" lon="0.71126">
        <ele>99</ele>
        <time>2022-08-07T08:05:49.186Z</time>
      </trkpt>
      <trkpt lat="44.18647" lon="0.71125">
        <ele>97</ele>
        <time>2022-08-07T08:05:50.186Z</time>
      </trkpt>
      <trkpt lat="44.18648" lon="0.71124">
        <ele>97</ele>
        <time>2022-08-07T08:05:51.186Z</time>
      </trkpt>
      <trkpt lat="44.18649" lon="0.71123">
        <ele>96</ele>
        <time>2022-08-07T08:05:52.186Z</time>
      </trkpt>
      <trkpt lat="44.18649" lon="0.71121">
        <ele>97</ele>
        <time>2022-08-07T08:05:53.186Z</time>
      </trkpt>
      <trkpt lat="44.18649" lon="0.7112">
        <ele>97</ele>
        <time>2022-08-07T08:05:54.186Z</time>
      </trkpt>
      <trkpt lat="44.1865" lon="0.71118">
        <ele>97</ele>
        <time>2022-08-07T08:05:55.186Z</time>
      </trkpt>
      <trkpt lat="44.1865" lon="0.71117">
        <ele>96</ele>
        <time>2022-08-07T08:05:56.186Z</time>
      </trkpt>
      <trkpt lat="44.1865" lon="0.71115">
        <ele>96</ele>
        <time>2022-08-07T08:05:57.186Z</time>
      </trkpt>
      <trkpt lat="44.18651" lon="0.71114">
        <ele>96</ele>
        <time>2022-08-07T08:05:58.186Z</time>
      </trkpt>
      <trkpt lat="44.18651" lon="0.71113">
        <ele>96</ele>
        <time>2022-08-07T08:05:59.186Z</time>
      </trkpt>
      <trkpt lat="44.18651" lon="0.71111">
        <ele>96</ele>
        <time>2022-08-07T08:06:00.186Z</time>
      </trkpt>
      <trkpt lat="44.18652" lon="0.7111">
        <ele>96</ele>
        <time>2022-08-07T08:06:01.186Z</time>
      </trkpt>
      <trkpt lat="44.18652" lon="0.71108">
        <ele>96</ele>
        <time>2022-08-07T08:06:02.186Z</time>
      </trkpt>
      <trkpt lat="44.18652" lon="0.71107">
        <ele>96</ele>
        <time>2022-08-07T08:06:03.186Z</time>
      </trkpt>
      <trkpt lat="44.18653" lon="0.71105">
        <ele>95</ele>
        <time>2022-08-07T08:06:04.186Z</time>
      </trkpt>
      <trkpt lat="44.18653" lon="0.71104">
        <ele>95</ele>
        <time>2022-08-07T08:06:05.186Z</time>
      </trkpt>
      <trkpt lat="44.18653" lon="0.71103">
        <ele>94</ele>
        <time>2022-08-07T08:06:06.186Z</time>
      </trkpt>
      <trkpt lat="44.18653" lon="0.71102">
        <ele>94</ele>
        <time>2022-08-07T08:06:07.186Z</time>
      </trkpt>
      <trkpt lat="44.18653" lon="0.71102">
        <ele>93</ele>
        <time>2022-08-07T08:06:08.186Z</time>
      </trkpt>
      <trkpt lat="44.18654" lon="0.711">
        <ele>93</ele>
        <time>2022-08-07T08:06:09.186Z</time>
      </trkpt>
      <trkpt lat="44.18654" lon="0.71099">
        <ele>92</ele>
        <time>2022-08-07T08:06:10.186Z</time>
      </trkpt>
      <trkpt lat="44.18654" lon="0.71098">
        <ele>92</ele>
        <time>2022-08-07T08:06:11.186Z</time>
      </trkpt>
      <trkpt lat="44.18655" lon="0.71097">
        <ele>91</ele>
        <time>2022-08-07T08:06:12.186Z</time>
      </trkpt>
      <trkpt lat="44.18655" lon="0.71096">
        <ele>91</ele>
        <time>2022-08-07T08:06:13.186Z</time>
      </trkpt>
      <trkpt lat="44.18655" lon="0.71095">
        <ele>91</ele>
        <time>2022-08-07T08:06:14.186Z</time>
      </trkpt>
      <trkpt lat="44.18655" lon="0.71093">
        <ele>91</ele>
        <time>2022-08-07T08:06:15.186Z</time>
      </trkpt>
      <trkpt lat="44.18654" lon="0.71092">
        <ele>90</ele>
        <time>2022-08-07T08:06:16.186Z</time>
      </trkpt>
      <trkpt lat="44.18654" lon="0.71091">
        <ele>90</ele>
        <time>2022-08-07T08:06:17.186Z</time>
      </trkpt>
      <trkpt lat="44.18654" lon="0.7109">
        <ele>90</ele>
        <time>2022-08-07T08:06:18.186Z</time>
      </trkpt>
      <trkpt lat="44.18654" lon="0.71089">
        <ele>89</ele>
        <time>2022-08-07T08:06:19.186Z</time>
      </trkpt>
      <trkpt lat="44.18654" lon="0.71087">
        <ele>89</ele>
        <time>2022-08-07T08:06:20.186Z</time>
      </trkpt>
      <trkpt lat="44.18654" lon="0.71086">
        <ele>89</ele>
        <time>2022-08-07T08:06:21.186Z</time>
      </trkpt>
      <trkpt lat="44.18654" lon="0.71085">
        <ele>89</ele>
        <time>2022-08-07T08:06:22.186Z</time>
      </trkpt>
      <trkpt lat="44.18654" lon="0.71083">
        <ele>89</ele>
        <time>2022-08-07T08:06:23.186Z</time>
      </trkpt>
      <trkpt lat="44.18654" lon="0.71081">
        <ele>89</ele>
        <time>2022-08-07T08:06:24.186Z</time>
      </trkpt>
      <trkpt lat="44.18654" lon="0.7108">
        <ele>89</ele>
        <time>2022-08-07T08:06:25.186Z</time>
      </trkpt>
      <trkpt lat="44.18654" lon="0.71078">
        <ele>89</ele>
        <time>2022-08-07T08:06:26.186Z</time>
      </trkpt>
      <trkpt lat="44.18654" lon="0.71077">
        <ele>89</ele>
        <time>2022-08-07T08:06:27.186Z</time>
      </trkpt>
      <trkpt lat="44.18653" lon="0.71076">
        <ele>89</ele>
        <time>2022-08-07T08:06:28.186Z</time>
      </trkpt>
      <trkpt lat="44.18653" lon="0.71075">
        <ele>89</ele>
        <time>2022-08-07T08:06:29.186Z</time>
      </trkpt>
      <trkpt lat="44.18653" lon="0.71073">
        <ele>89</ele>
        <time>2022-08-07T08:06:30.186Z</time>
      </trkpt>
      <trkpt lat="44.18653" lon="0.71071">
        <ele>89</ele>
        <time>2022-08-07T08:06:31.186Z</time>
      </trkpt>
      <trkpt lat="44.18653" lon="0.7107">
        <ele>90</ele>
        <time>2022-08-07T08:06:32.186Z</time>
      </trkpt>
      <trkpt lat="44.18653" lon="0.71068">
        <ele>90</ele>
        <time>2022-08-07T08:06:33.186Z</time>
      </trkpt>
      <trkpt lat="44.18653" lon="0.71066">
        <ele>90</ele>
        <time>2022-08-07T08:06:34.186Z</time>
      </trkpt>
      <trkpt lat="44.18653" lon="0.71064">
        <ele>90</ele>
        <time>2022-08-07T08:06:35.186Z</time>
      </trkpt>
      <trkpt lat="44.18653" lon="0.71061">
        <ele>91</ele>
        <time>2022-08-07T08:06:36.186Z</time>
      </trkpt>
      <trkpt lat="44.18653" lon="0.7106">
        <ele>91</ele>
        <time>2022-08-07T08:06:37.186Z</time>
      </trkpt>
      <trkpt lat="44.18653" lon="0.71058">
        <ele>91</ele>
        <time>2022-08-07T08:06:38.186Z</time>
      </trkpt>
      <trkpt lat="44.18653" lon="0.71056">
        <ele>91</ele>
        <time>2022-08-07T08:06:39.186Z</time>
      </trkpt>
      <trkpt lat="44.18653" lon="0.71055">
        <ele>90</ele>
        <time>2022-08-07T08:06:40.186Z</time>
      </trkpt>
      <trkpt lat="44.18653" lon="0.71053">
        <ele>90</ele>
        <time>2022-08-07T08:06:41.186Z</time>
      </trkpt>
      <trkpt lat="44.18652" lon="0.71052">
        <ele>90</ele>
        <time>2022-08-07T08:06:42.186Z</time>
      </trkpt>
      <trkpt lat="44.18653" lon="0.7105">
        <ele>89</ele>
        <time>2022-08-07T08:06:43.186Z</time>
      </trkpt>
      <trkpt lat="44.18652" lon="0.71049">
        <ele>89</ele>
        <time>2022-08-07T08:06:44.186Z</time>
      </trkpt>
      <trkpt lat="44.18652" lon="0.71048">
        <ele>89</ele>
        <time>2022-08-07T08:06:45.186Z</time>
      </trkpt>
      <trkpt lat="44.18652" lon="0.71047">
        <ele>88</ele>
        <time>2022-08-07T08:06:46.186Z</time>
      </trkpt>
      <trkpt lat="44.18652" lon="0.71046">
        <ele>88</ele>
        <time>2022-08-07T08:06:47.186Z</time>
      </trkpt>
      <trkpt lat="44.18652" lon="0.71044">
        <ele>89</ele>
        <time>2022-08-07T08:06:48.186Z</time>
      </trkpt>
      <trkpt lat="44.18652" lon="0.71043">
        <ele>89</ele>
        <time>2022-08-07T08:06:49.186Z</time>
      </trkpt>
      <trkpt lat="44.18652" lon="0.71042">
        <ele>89</ele>
        <time>2022-08-07T08:06:50.186Z</time>
      </trkpt>
      <trkpt lat="44.18652" lon="0.7104">
        <ele>88</ele>
        <time>2022-08-07T08:06:51.186Z</time>
      </trkpt>
      <trkpt lat="44.18651" lon="0.71039">
        <ele>87</ele>
        <time>2022-08-07T08:06:52.186Z</time>
      </trkpt>
      <trkpt lat="44.18651" lon="0.71038">
        <ele>87</ele>
        <time>2022-08-07T08:06:53.186Z</time>
      </trkpt>
      <trkpt lat="44.18651" lon="0.71037">
        <ele>87</ele>
        <time>2022-08-07T08:06:54.186Z</time>
      </trkpt>
      <trkpt lat="44.1865" lon="0.71035">
        <ele>87</ele>
        <time>2022-08-07T08:06:55.186Z</time>
      </trkpt>
      <trkpt lat="44.1865" lon="0.71034">
        <ele>87</ele>
        <time>2022-08-07T08:06:56.186Z</time>
      </trkpt>
      <trkpt lat="44.18649" lon="0.71033">
        <ele>87</ele>
        <time>2022-08-07T08:06:57.186Z</time>
      </trkpt>
      <trkpt lat="44.18649" lon="0.71031">
        <ele>87</ele>
        <time>2022-08-07T08:06:58.186Z</time>
      </trkpt>
      <trkpt lat="44.18648" lon="0.7103">
        <ele>86</ele>
        <time>2022-08-07T08:06:59.186Z</time>
      </trkpt>
      <trkpt lat="44.18648" lon="0.71029">
        <ele>86</ele>
        <time>2022-08-07T08:07:00.186Z</time>
      </trkpt>
      <trkpt lat="44.18648" lon="0.71027">
        <ele>86</ele>
        <time>2022-08-07T08:07:01.186Z</time>
      </trkpt>
      <trkpt lat="44.18647" lon="0.71026">
        <ele>86</ele>
        <time>2022-08-07T08:07:02.186Z</time>
      </trkpt>
      <trkpt lat="44.18647" lon="0.71025">
        <ele>86</ele>
        <time>2022-08-07T08:07:03.186Z</time>
      </trkpt>
      <trkpt lat="44.18647" lon="0.71024">
        <ele>86</ele>
        <time>2022-08-07T08:07:04.186Z</time>
      </trkpt>
      <trkpt lat="44.18646" lon="0.71023">
        <ele>85</ele>
        <time>2022-08-07T08:07:05.186Z</time>
      </trkpt>
      <trkpt lat="44.18646" lon="0.71021">
        <ele>85</ele>
        <time>2022-08-07T08:07:06.186Z</time>
      </trkpt>
      <trkpt lat="44.18645" lon="0.7102">
        <ele>85</ele>
        <time>2022-08-07T08:07:07.186Z</time>
      </trkpt>
      <trkpt lat="44.18645" lon="0.71018">
        <ele>85</ele>
        <time>2022-08-07T08:07:08.186Z</time>
      </trkpt>
      <trkpt lat="44.18645" lon="0.71017">
        <ele>84</ele>
        <time>2022-08-07T08:07:09.186Z</time>
      </trkpt>
      <trkpt lat="44.18644" lon="0.71015">
        <ele>84</ele>
        <time>2022-08-07T08:07:10.186Z</time>
      </trkpt>
      <trkpt lat="44.18644" lon="0.71013">
        <ele>84</ele>
        <time>2022-08-07T08:07:11.186Z</time>
      </trkpt>
      <trkpt lat="44.18643" lon="0.71012">
        <ele>83</ele>
        <time>2022-08-07T08:07:12.186Z</time>
      </trkpt>
      <trkpt lat="44.18643" lon="0.71011">
        <ele>83</ele>
        <time>2022-08-07T08:07:13.186Z</time>
      </trkpt>
      <trkpt lat="44.18643" lon="0.71009">
        <ele>83</ele>
        <time>2022-08-07T08:07:14.186Z</time>
      </trkpt>
      <trkpt lat="44.18643" lon="0.71008">
        <ele>83</ele>
        <time>2022-08-07T08:07:15.186Z</time>
      </trkpt>
      <trkpt lat="44.18643" lon="0.71007">
        <ele>83</ele>
        <time>2022-08-07T08:07:16.186Z</time>
      </trkpt>
      <trkpt lat="44.18643" lon="0.71005">
        <ele>83</ele>
        <time>2022-08-07T08:07:17.186Z</time>
      </trkpt>
      <trkpt lat="44.18642" lon="0.71004">
        <ele>83</ele>
        <time>2022-08-07T08:07:18.186Z</time>
      </trkpt>
      <trkpt lat="44.18642" lon="0.71003">
        <ele>83</ele>
        <time>2022-08-07T08:07:19.186Z</time>
      </trkpt>
      <trkpt lat="44.18641" lon="0.71002">
        <ele>83</ele>
        <time>2022-08-07T08:07:20.186Z</time>
      </trkpt>
      <trkpt lat="44.18641" lon="0.71001">
        <ele>83</ele>
        <time>2022-08-07T08:07:21.186Z</time>
      </trkpt>
      <trkpt lat="44.18641" lon="0.71">
        <ele>82</ele>
        <time>2022-08-07T08:07:22.186Z</time>
      </trkpt>
      <trkpt lat="44.18641" lon="0.70999">
        <ele>82</ele>
        <time>2022-08-07T08:07:23.186Z</time>
      </trkpt>
      <trkpt lat="44.1864" lon="0.70997">
        <ele>82</ele>
        <time>2022-08-07T08:07:24.186Z</time>
      </trkpt>
      <trkpt lat="44.1864" lon="0.70996">
        <ele>83</ele>
        <time>2022-08-07T08:07:25.186Z</time>
      </trkpt>
      <trkpt lat="44.1864" lon="0.70996">
        <ele>83</ele>
        <time>2022-08-07T08:07:26.186Z</time>
      </trkpt>
      <trkpt lat="44.18639" lon="0.70994">
        <ele>83</ele>
        <time>2022-08-07T08:07:27.186Z</time>
      </trkpt>
      <trkpt lat="44.18639" lon="0.70993">
        <ele>83</ele>
        <time>2022-08-07T08:07:28.186Z</time>
      </trkpt>
      <trkpt lat="44.18638" lon="0.70992">
        <ele>83</ele>
        <time>2022-08-07T08:07:29.186Z</time>
      </trkpt>
      <trkpt lat="44.18638" lon="0.70991">
        <ele>82</ele>
        <time>2022-08-07T08:07:30.186Z</time>
      </trkpt>
      <trkpt lat="44.18637" lon="0.7099">
        <ele>82</ele>
        <time>2022-08-07T08:07:31.186Z</time>
      </trkpt>
      <trkpt lat="44.18637" lon="0.70988">
        <ele>81</ele>
        <time>2022-08-07T08:07:32.186Z</time>
      </trkpt>
      <trkpt lat="44.18636" lon="0.70987">
        <ele>81</ele>
        <time>2022-08-07T08:07:33.186Z</time>
      </trkpt>
      <trkpt lat="44.18635" lon="0.70987">
        <ele>81</ele>
        <time>2022-08-07T08:07:34.186Z</time>
      </trkpt>
      <trkpt lat="44.18635" lon="0.70986">
        <ele>81</ele>
        <time>2022-08-07T08:07:35.186Z</time>
      </trkpt>
      <trkpt lat="44.18634" lon="0.70986">
        <ele>81</ele>
        <time>2022-08-07T08:07:36.186Z</time>
      </trkpt>
      <trkpt lat="44.18633" lon="0.70985">
        <ele>81</ele>
        <time>2022-08-07T08:07:37.186Z</time>
      </trkpt>
      <trkpt lat="44.18632" lon="0.70985">
        <ele>81</ele>
        <time>2022-08-07T08:07:38.186Z</time>
      </trkpt>
      <trkpt lat="44.18632" lon="0.70984">
        <ele>80</ele>
        <time>2022-08-07T08:07:39.186Z</time>
      </trkpt>
      <trkpt lat="44.18631" lon="0.70984">
        <ele>79</ele>
        <time>2022-08-07T08:07:40.186Z</time>
      </trkpt>
      <trkpt lat="44.1863" lon="0.70983">
        <ele>79</ele>
        <time>2022-08-07T08:07:41.186Z</time>
      </trkpt>
      <trkpt lat="44.18629" lon="0.70983">
        <ele>79</ele>
        <time>2022-08-07T08:07:42.186Z</time>
      </trkpt>
      <trkpt lat="44.18628" lon="0.70982">
        <ele>79</ele>
        <time>2022-08-07T08:07:43.186Z</time>
      </trkpt>
      <trkpt lat="44.18627" lon="0.70982">
        <ele>79</ele>
        <time>2022-08-07T08:07:44.186Z</time>
      </trkpt>
      <trkpt lat="44.18626" lon="0.70982">
        <ele>78</ele>
        <time>2022-08-07T08:07:45.186Z</time>
      </trkpt>
      <trkpt lat="44.18626" lon="0.70981">
        <ele>78</ele>
        <time>2022-08-07T08:07:46.186Z</time>
      </trkpt>
      <trkpt lat="44.18625" lon="0.70981">
        <ele>77</ele>
        <time>2022-08-07T08:07:47.186Z</time>
      </trkpt>
      <trkpt lat="44.18624" lon="0.7098">
        <ele>76</ele>
        <time>2022-08-07T08:07:48.186Z</time>
      </trkpt>
      <trkpt lat="44.18624" lon="0.70979">
        <ele>76</ele>
        <time>2022-08-07T08:07:49.186Z</time>
      </trkpt>
      <trkpt lat="44.18623" lon="0.70979">
        <ele>75</ele>
        <time>2022-08-07T08:07:50.186Z</time>
      </trkpt>
      <trkpt lat="44.18622" lon="0.70978">
        <ele>75</ele>
        <time>2022-08-07T08:07:51.186Z</time>
      </trkpt>
      <trkpt lat="44.18621" lon="0.70978">
        <ele>74</ele>
        <time>2022-08-07T08:07:52.186Z</time>
      </trkpt>
      <trkpt lat="44.18621" lon="0.70977">
        <ele>74</ele>
        <time>2022-08-07T08:07:53.186Z</time>
      </trkpt>
      <trkpt lat="44.1862" lon="0.70977">
        <ele>74</ele>
        <time>2022-08-07T08:07:54.186Z</time>
      </trkpt>
      <trkpt lat="44.1862" lon="0.70976">
        <ele>73</ele>
        <time>2022-08-07T08:07:55.186Z</time>
      </trkpt>
      <trkpt lat="44.1862" lon="0.70976">
        <ele>74</ele>
        <time>2022-08-07T08:07:56.186Z</time>
      </trkpt>
      <trkpt lat="44.18619" lon="0.70976">
        <ele>73</ele>
        <time>2022-08-07T08:07:57.186Z</time>
      </trkpt>
      <trkpt lat="44.18619" lon="0.70976">
        <ele>74</ele>
        <time>2022-08-07T08:07:58.186Z</time>
      </trkpt>
      <trkpt lat="44.18617" lon="0.7097">
        <ele>76</ele>
        <time>2022-08-07T08:10:15.194Z</time>
      </trkpt>
      <trkpt lat="44.18616" lon="0.70969">
        <ele>76</ele>
        <time>2022-08-07T08:10:16.194Z</time>
      </trkpt>
      <trkpt lat="44.18616" lon="0.70967">
        <ele>76</ele>
        <time>2022-08-07T08:10:17.194Z</time>
      </trkpt>
      <trkpt lat="44.18616" lon="0.70965">
        <ele>76</ele>
        <time>2022-08-07T08:10:18.194Z</time>
      </trkpt>
      <trkpt lat="44.18617" lon="0.70963">
        <ele>75</ele>
        <time>2022-08-07T08:10:19.194Z</time>
      </trkpt>
      <trkpt lat="44.18617" lon="0.70962">
        <ele>76</ele>
        <time>2022-08-07T08:10:20.194Z</time>
      </trkpt>
      <trkpt lat="44.18618" lon="0.70961">
        <ele>76</ele>
        <time>2022-08-07T08:10:21.194Z</time>
      </trkpt>
      <trkpt lat="44.18619" lon="0.7096">
        <ele>76</ele>
        <time>2022-08-07T08:10:22.194Z</time>
      </trkpt>
      <trkpt lat="44.1862" lon="0.70959">
        <ele>77</ele>
        <time>2022-08-07T08:10:23.194Z</time>
      </trkpt>
      <trkpt lat="44.18621" lon="0.70958">
        <ele>76</ele>
        <time>2022-08-07T08:10:24.194Z</time>
      </trkpt>
      <trkpt lat="44.18621" lon="0.70957">
        <ele>76</ele>
        <time>2022-08-07T08:10:25.194Z</time>
      </trkpt>
      <trkpt lat="44.18622" lon="0.70956">
        <ele>76</ele>
        <time>2022-08-07T08:10:26.194Z</time>
      </trkpt>
      <trkpt lat="44.18623" lon="0.70955">
        <ele>76</ele>
        <time>2022-08-07T08:10:27.194Z</time>
      </trkpt>
      <trkpt lat="44.18624" lon="0.70954">
        <ele>76</ele>
        <time>2022-08-07T08:10:28.194Z</time>
      </trkpt>
      <trkpt lat="44.18624" lon="0.70953">
        <ele>76</ele>
        <time>2022-08-07T08:10:29.194Z</time>
      </trkpt>
      <trkpt lat="44.18625" lon="0.70951">
        <ele>76</ele>
        <time>2022-08-07T08:10:30.194Z</time>
      </trkpt>
      <trkpt lat="44.18626" lon="0.7095">
        <ele>76</ele>
        <time>2022-08-07T08:10:31.194Z</time>
      </trkpt>
      <trkpt lat="44.18626" lon="0.70948">
        <ele>75</ele>
        <time>2022-08-07T08:10:32.194Z</time>
      </trkpt>
      <trkpt lat="44.18626" lon="0.70947">
        <ele>75</ele>
        <time>2022-08-07T08:10:33.194Z</time>
      </trkpt>
      <trkpt lat="44.18626" lon="0.70945">
        <ele>75</ele>
        <time>2022-08-07T08:10:34.194Z</time>
      </trkpt>
      <trkpt lat="44.18627" lon="0.70944">
        <ele>74</ele>
        <time>2022-08-07T08:10:35.194Z</time>
      </trkpt>
      <trkpt lat="44.18627" lon="0.70943">
        <ele>73</ele>
        <time>2022-08-07T08:10:36.194Z</time>
      </trkpt>
      <trkpt lat="44.18627" lon="0.70941">
        <ele>73</ele>
        <time>2022-08-07T08:10:37.194Z</time>
      </trkpt>
      <trkpt lat="44.18627" lon="0.7094">
        <ele>73</ele>
        <time>2022-08-07T08:10:38.194Z</time>
      </trkpt>
      <trkpt lat="44.18626" lon="0.70938">
        <ele>73</ele>
        <time>2022-08-07T08:10:39.194Z</time>
      </trkpt>
      <trkpt lat="44.18626" lon="0.70937">
        <ele>73</ele>
        <time>2022-08-07T08:10:40.194Z</time>
      </trkpt>
      <trkpt lat="44.18625" lon="0.70935">
        <ele>73</ele>
        <time>2022-08-07T08:10:41.194Z</time>
      </trkpt>
      <trkpt lat="44.18625" lon="0.70933">
        <ele>73</ele>
        <time>2022-08-07T08:10:42.194Z</time>
      </trkpt>
      <trkpt lat="44.18625" lon="0.70932">
        <ele>73</ele>
        <time>2022-08-07T08:10:43.194Z</time>
      </trkpt>
      <trkpt lat="44.18624" lon="0.70931">
        <ele>73</ele>
        <time>2022-08-07T08:10:44.194Z</time>
      </trkpt>
      <trkpt lat="44.18623" lon="0.7093">
        <ele>72</ele>
        <time>2022-08-07T08:10:45.194Z</time>
      </trkpt>
      <trkpt lat="44.18623" lon="0.70929">
        <ele>72</ele>
        <time>2022-08-07T08:10:46.194Z</time>
      </trkpt>
      <trkpt lat="44.18622" lon="0.70928">
        <ele>73</ele>
        <time>2022-08-07T08:10:47.194Z</time>
      </trkpt>
      <trkpt lat="44.18621" lon="0.70927">
        <ele>72</ele>
        <time>2022-08-07T08:10:48.194Z</time>
      </trkpt>
      <trkpt lat="44.1862" lon="0.70926">
        <ele>72</ele>
        <time>2022-08-07T08:10:49.194Z</time>
      </trkpt>
      <trkpt lat="44.1862" lon="0.70925">
        <ele>72</ele>
        <time>2022-08-07T08:10:50.194Z</time>
      </trkpt>
      <trkpt lat="44.18619" lon="0.70924">
        <ele>72</ele>
        <time>2022-08-07T08:10:51.194Z</time>
      </trkpt>
      <trkpt lat="44.18617" lon="0.70923">
        <ele>72</ele>
        <time>2022-08-07T08:10:52.194Z</time>
      </trkpt>
      <trkpt lat="44.18616" lon="0.70922">
        <ele>72</ele>
        <time>2022-08-07T08:10:53.194Z</time>
      </trkpt>
      <trkpt lat="44.18615" lon="0.70922">
        <ele>72</ele>
        <time>2022-08-07T08:10:54.194Z</time>
      </trkpt>
      <trkpt lat="44.18614" lon="0.70921">
        <ele>72</ele>
        <time>2022-08-07T08:10:55.194Z</time>
      </trkpt>
      <trkpt lat="44.18613" lon="0.7092">
        <ele>72</ele>
        <time>2022-08-07T08:10:56.194Z</time>
      </trkpt>
      <trkpt lat="44.18612" lon="0.7092">
        <ele>72</ele>
        <time>2022-08-07T08:10:57.194Z</time>
      </trkpt>
      <trkpt lat="44.18612" lon="0.70919">
        <ele>72</ele>
        <time>2022-08-07T08:10:58.194Z</time>
      </trkpt>
      <trkpt lat="44.18611" lon="0.70918">
        <ele>72</ele>
        <time>2022-08-07T08:10:59.194Z</time>
      </trkpt>
      <trkpt lat="44.1861" lon="0.70917">
        <ele>72</ele>
        <time>2022-08-07T08:11:00.194Z</time>
      </trkpt>
      <trkpt lat="44.18609" lon="0.70916">
        <ele>72</ele>
        <time>2022-08-07T08:11:01.194Z</time>
      </trkpt>
      <trkpt lat="44.18608" lon="0.70915">
        <ele>71</ele>
        <time>2022-08-07T08:11:02.194Z</time>
      </trkpt>
      <trkpt lat="44.18607" lon="0.70914">
        <ele>71</ele>
        <time>2022-08-07T08:11:03.194Z</time>
      </trkpt>
      <trkpt lat="44.18606" lon="0.70913">
        <ele>71</ele>
        <time>2022-08-07T08:11:04.194Z</time>
      </trkpt>
      <trkpt lat="44.18605" lon="0.70912">
        <ele>71</ele>
        <time>2022-08-07T08:11:05.194Z</time>
      </trkpt>
      <trkpt lat="44.18604" lon="0.70911">
        <ele>71</ele>
        <time>2022-08-07T08:11:06.194Z</time>
      </trkpt>
      <trkpt lat="44.18603" lon="0.7091">
        <ele>71</ele>
        <time>2022-08-07T08:11:07.194Z</time>
      </trkpt>
      <trkpt lat="44.18602" lon="0.70909">
        <ele>70</ele>
        <time>2022-08-07T08:11:08.194Z</time>
      </trkpt>
      <trkpt lat="44.18601" lon="0.70909">
        <ele>71</ele>
        <time>2022-08-07T08:11:09.194Z</time>
      </trkpt>
      <trkpt lat="44.186" lon="0.70908">
        <ele>71</ele>
        <time>2022-08-07T08:11:10.194Z</time>
      </trkpt>
      <trkpt lat="44.18599" lon="0.70907">
        <ele>71</ele>
        <time>2022-08-07T08:11:11.194Z</time>
      </trkpt>
      <trkpt lat="44.18598" lon="0.70906">
        <ele>70</ele>
        <time>2022-08-07T08:11:12.194Z</time>
      </trkpt>
      <trkpt lat="44.18598" lon="0.70905">
        <ele>70</ele>
        <time>2022-08-07T08:11:13.194Z</time>
      </trkpt>
      <trkpt lat="44.18597" lon="0.70904">
        <ele>70</ele>
        <time>2022-08-07T08:11:14.194Z</time>
      </trkpt>
      <trkpt lat="44.18596" lon="0.70903">
        <ele>70</ele>
        <time>2022-08-07T08:11:15.194Z</time>
      </trkpt>
      <trkpt lat="44.18595" lon="0.70902">
        <ele>70</ele>
        <time>2022-08-07T08:11:16.194Z</time>
      </trkpt>
      <trkpt lat="44.18594" lon="0.70901">
        <ele>70</ele>
        <time>2022-08-07T08:11:17.194Z</time>
      </trkpt>
      <trkpt lat="44.18594" lon="0.709">
        <ele>70</ele>
        <time>2022-08-07T08:11:18.194Z</time>
      </trkpt>
      <trkpt lat="44.18593" lon="0.70899">
        <ele>70</ele>
        <time>2022-08-07T08:11:19.194Z</time>
      </trkpt>
      <trkpt lat="44.18592" lon="0.70897">
        <ele>70</ele>
        <time>2022-08-07T08:11:20.194Z</time>
      </trkpt>
      <trkpt lat="44.18591" lon="0.70896">
        <ele>70</ele>
        <time>2022-08-07T08:11:21.194Z</time>
      </trkpt>
      <trkpt lat="44.1859" lon="0.70895">
        <ele>69</ele>
        <time>2022-08-07T08:11:22.194Z</time>
      </trkpt>
      <trkpt lat="44.1859" lon="0.70894">
        <ele>69</ele>
        <time>2022-08-07T08:11:23.194Z</time>
      </trkpt>
      <trkpt lat="44.18589" lon="0.70893">
        <ele>68</ele>
        <time>2022-08-07T08:11:24.194Z</time>
      </trkpt>
      <trkpt lat="44.18588" lon="0.70891">
        <ele>68</ele>
        <time>2022-08-07T08:11:25.194Z</time>
      </trkpt>
      <trkpt lat="44.18588" lon="0.7089">
        <ele>68</ele>
        <time>2022-08-07T08:11:26.194Z</time>
      </trkpt>
      <trkpt lat="44.18587" lon="0.70888">
        <ele>68</ele>
        <time>2022-08-07T08:11:27.194Z</time>
      </trkpt>
      <trkpt lat="44.18586" lon="0.70887">
        <ele>68</ele>
        <time>2022-08-07T08:11:28.194Z</time>
      </trkpt>
      <trkpt lat="44.18586" lon="0.70885">
        <ele>68</ele>
        <time>2022-08-07T08:11:29.194Z</time>
      </trkpt>
      <trkpt lat="44.18585" lon="0.70883">
        <ele>68</ele>
        <time>2022-08-07T08:11:30.194Z</time>
      </trkpt>
      <trkpt lat="44.18585" lon="0.70881">
        <ele>68</ele>
        <time>2022-08-07T08:11:31.194Z</time>
      </trkpt>
      <trkpt lat="44.18585" lon="0.7088">
        <ele>68</ele>
        <time>2022-08-07T08:11:32.194Z</time>
      </trkpt>
      <trkpt lat="44.18584" lon="0.70878">
        <ele>67</ele>
        <time>2022-08-07T08:11:33.194Z</time>
      </trkpt>
      <trkpt lat="44.18584" lon="0.70876">
        <ele>67</ele>
        <time>2022-08-07T08:11:34.194Z</time>
      </trkpt>
      <trkpt lat="44.18584" lon="0.70875">
        <ele>67</ele>
        <time>2022-08-07T08:11:35.194Z</time>
      </trkpt>
      <trkpt lat="44.18583" lon="0.70873">
        <ele>67</ele>
        <time>2022-08-07T08:11:36.194Z</time>
      </trkpt>
      <trkpt lat="44.18583" lon="0.70871">
        <ele>66</ele>
        <time>2022-08-07T08:11:37.194Z</time>
      </trkpt>
      <trkpt lat="44.18583" lon="0.70869">
        <ele>66</ele>
        <time>2022-08-07T08:11:38.194Z</time>
      </trkpt>
      <trkpt lat="44.18583" lon="0.70868">
        <ele>66</ele>
        <time>2022-08-07T08:11:39.194Z</time>
      </trkpt>
      <trkpt lat="44.18582" lon="0.70866">
        <ele>66</ele>
        <time>2022-08-07T08:11:40.194Z</time>
      </trkpt>
      <trkpt lat="44.18582" lon="0.70864">
        <ele>66</ele>
        <time>2022-08-07T08:11:41.194Z</time>
      </trkpt>
      <trkpt lat="44.18582" lon="0.70862">
        <ele>66</ele>
        <time>2022-08-07T08:11:42.194Z</time>
      </trkpt>
      <trkpt lat="44.18582" lon="0.7086">
        <ele>66</ele>
        <time>2022-08-07T08:11:43.194Z</time>
      </trkpt>
      <trkpt lat="44.18582" lon="0.70858">
        <ele>66</ele>
        <time>2022-08-07T08:11:44.194Z</time>
      </trkpt>
      <trkpt lat="44.18582" lon="0.70856">
        <ele>66</ele>
        <time>2022-08-07T08:11:45.194Z</time>
      </trkpt>
      <trkpt lat="44.18582" lon="0.70855">
        <ele>65</ele>
        <time>2022-08-07T08:11:46.194Z</time>
      </trkpt>
      <trkpt lat="44.18582" lon="0.70853">
        <ele>65</ele>
        <time>2022-08-07T08:11:47.194Z</time>
      </trkpt>
      <trkpt lat="44.18582" lon="0.70851">
        <ele>65</ele>
        <time>2022-08-07T08:11:48.194Z</time>
      </trkpt>
      <trkpt lat="44.18582" lon="0.70849">
        <ele>65</ele>
        <time>2022-08-07T08:11:49.194Z</time>
      </trkpt>
      <trkpt lat="44.18582" lon="0.70847">
        <ele>65</ele>
        <time>2022-08-07T08:11:50.194Z</time>
      </trkpt>
      <trkpt lat="44.18582" lon="0.70845">
        <ele>65</ele>
        <time>2022-08-07T08:11:51.194Z</time>
      </trkpt>
      <trkpt lat="44.18582" lon="0.70843">
        <ele>64</ele>
        <time>2022-08-07T08:11:52.194Z</time>
      </trkpt>
      <trkpt lat="44.18582" lon="0.70841">
        <ele>64</ele>
        <time>2022-08-07T08:11:53.194Z</time>
      </trkpt>
      <trkpt lat="44.18582" lon="0.7084">
        <ele>64</ele>
        <time>2022-08-07T08:11:54.194Z</time>
      </trkpt>
      <trkpt lat="44.18582" lon="0.70838">
        <ele>64</ele>
        <time>2022-08-07T08:11:55.194Z</time>
      </trkpt>
      <trkpt lat="44.18582" lon="0.70836">
        <ele>64</ele>
        <time>2022-08-07T08:11:56.194Z</time>
      </trkpt>
      <trkpt lat="44.18583" lon="0.70834">
        <ele>64</ele>
        <time>2022-08-07T08:11:57.194Z</time>
      </trkpt>
      <trkpt lat="44.18583" lon="0.70832">
        <ele>63</ele>
        <time>2022-08-07T08:11:58.194Z</time>
      </trkpt>
      <trkpt lat="44.18583" lon="0.7083">
        <ele>64</ele>
        <time>2022-08-07T08:11:59.194Z</time>
      </trkpt>
      <trkpt lat="44.18583" lon="0.70828">
        <ele>64</ele>
        <time>2022-08-07T08:12:00.194Z</time>
      </trkpt>
      <trkpt lat="44.18583" lon="0.70827">
        <ele>64</ele>
        <time>2022-08-07T08:12:01.194Z</time>
      </trkpt>
      <trkpt lat="44.18583" lon="0.70825">
        <ele>64</ele>
        <time>2022-08-07T08:12:02.194Z</time>
      </trkpt>
      <trkpt lat="44.18583" lon="0.70823">
        <ele>64</ele>
        <time>2022-08-07T08:12:03.194Z</time>
      </trkpt>
      <trkpt lat="44.18584" lon="0.70821">
        <ele>64</ele>
        <time>2022-08-07T08:12:04.194Z</time>
      </trkpt>
      <trkpt lat="44.18584" lon="0.7082">
        <ele>64</ele>
        <time>2022-08-07T08:12:05.194Z</time>
      </trkpt>
      <trkpt lat="44.18584" lon="0.70818">
        <ele>64</ele>
        <time>2022-08-07T08:12:06.194Z</time>
      </trkpt>
      <trkpt lat="44.18584" lon="0.70816">
        <ele>64</ele>
        <time>2022-08-07T08:12:07.194Z</time>
      </trkpt>
      <trkpt lat="44.18584" lon="0.70814">
        <ele>64</ele>
        <time>2022-08-07T08:12:08.194Z</time>
      </trkpt>
      <trkpt lat="44.18584" lon="0.70812">
        <ele>64</ele>
        <time>2022-08-07T08:12:09.194Z</time>
      </trkpt>
      <trkpt lat="44.18585" lon="0.70811">
        <ele>64</ele>
        <time>2022-08-07T08:12:10.194Z</time>
      </trkpt>
      <trkpt lat="44.18585" lon="0.70809">
        <ele>64</ele>
        <time>2022-08-07T08:12:11.194Z</time>
      </trkpt>
      <trkpt lat="44.18585" lon="0.70807">
        <ele>64</ele>
        <time>2022-08-07T08:12:12.194Z</time>
      </trkpt>
      <trkpt lat="44.18585" lon="0.70805">
        <ele>63</ele>
        <time>2022-08-07T08:12:13.194Z</time>
      </trkpt>
      <trkpt lat="44.18585" lon="0.70803">
        <ele>64</ele>
        <time>2022-08-07T08:12:14.194Z</time>
      </trkpt>
      <trkpt lat="44.18585" lon="0.70801">
        <ele>64</ele>
        <time>2022-08-07T08:12:15.194Z</time>
      </trkpt>
      <trkpt lat="44.18585" lon="0.70799">
        <ele>64</ele>
        <time>2022-08-07T08:12:16.194Z</time>
      </trkpt>
      <trkpt lat="44.18586" lon="0.70798">
        <ele>64</ele>
        <time>2022-08-07T08:12:17.194Z</time>
      </trkpt>
      <trkpt lat="44.18586" lon="0.70796">
        <ele>64</ele>
        <time>2022-08-07T08:12:18.194Z</time>
      </trkpt>
      <trkpt lat="44.18586" lon="0.70794">
        <ele>63</ele>
        <time>2022-08-07T08:12:19.194Z</time>
      </trkpt>
      <trkpt lat="44.18586" lon="0.70793">
        <ele>63</ele>
        <time>2022-08-07T08:12:20.194Z</time>
      </trkpt>
      <trkpt lat="44.18586" lon="0.70791">
        <ele>64</ele>
        <time>2022-08-07T08:12:21.194Z</time>
      </trkpt>
      <trkpt lat="44.18586" lon="0.70789">
        <ele>64</ele>
        <time>2022-08-07T08:12:22.194Z</time>
      </trkpt>
      <trkpt lat="44.18586" lon="0.70787">
        <ele>64</ele>
        <time>2022-08-07T08:12:23.194Z</time>
      </trkpt>
      <trkpt lat="44.18586" lon="0.70785">
        <ele>63</ele>
        <time>2022-08-07T08:12:24.194Z</time>
      </trkpt>
      <trkpt lat="44.18586" lon="0.70783">
        <ele>64</ele>
        <time>2022-08-07T08:12:25.194Z</time>
      </trkpt>
      <trkpt lat="44.18587" lon="0.70781">
        <ele>64</ele>
        <time>2022-08-07T08:12:26.194Z</time>
      </trkpt>
      <trkpt lat="44.18587" lon="0.70779">
        <ele>64</ele>
        <time>2022-08-07T08:12:27.194Z</time>
      </trkpt>
      <trkpt lat="44.18587" lon="0.70777">
        <ele>64</ele>
        <time>2022-08-07T08:12:28.194Z</time>
      </trkpt>
      <trkpt lat="44.18587" lon="0.70776">
        <ele>64</ele>
        <time>2022-08-07T08:12:29.194Z</time>
      </trkpt>
      <trkpt lat="44.18587" lon="0.70774">
        <ele>63</ele>
        <time>2022-08-07T08:12:30.194Z</time>
      </trkpt>
      <trkpt lat="44.18588" lon="0.70772">
        <ele>63</ele>
        <time>2022-08-07T08:12:31.194Z</time>
      </trkpt>
      <trkpt lat="44.18588" lon="0.70771">
        <ele>63</ele>
        <time>2022-08-07T08:12:32.194Z</time>
      </trkpt>
      <trkpt lat="44.18588" lon="0.70769">
        <ele>63</ele>
        <time>2022-08-07T08:12:33.194Z</time>
      </trkpt>
      <trkpt lat="44.18588" lon="0.70767">
        <ele>62</ele>
        <time>2022-08-07T08:12:34.194Z</time>
      </trkpt>
      <trkpt lat="44.18588" lon="0.70765">
        <ele>61</ele>
        <time>2022-08-07T08:12:35.194Z</time>
      </trkpt>
      <trkpt lat="44.18588" lon="0.70763">
        <ele>61</ele>
        <time>2022-08-07T08:12:36.194Z</time>
      </trkpt>
      <trkpt lat="44.18588" lon="0.70762">
        <ele>61</ele>
        <time>2022-08-07T08:12:37.194Z</time>
      </trkpt>
      <trkpt lat="44.18588" lon="0.7076">
        <ele>61</ele>
        <time>2022-08-07T08:12:38.194Z</time>
      </trkpt>
      <trkpt lat="44.18588" lon="0.70758">
        <ele>61</ele>
        <time>2022-08-07T08:12:39.194Z</time>
      </trkpt>
      <trkpt lat="44.18588" lon="0.70756">
        <ele>61</ele>
        <time>2022-08-07T08:12:40.194Z</time>
      </trkpt>
      <trkpt lat="44.18589" lon="0.70755">
        <ele>61</ele>
        <time>2022-08-07T08:12:41.194Z</time>
      </trkpt>
      <trkpt lat="44.18589" lon="0.70753">
        <ele>61</ele>
        <time>2022-08-07T08:12:42.194Z</time>
      </trkpt>
      <trkpt lat="44.18589" lon="0.70751">
        <ele>61</ele>
        <time>2022-08-07T08:12:43.194Z</time>
      </trkpt>
      <trkpt lat="44.18589" lon="0.70749">
        <ele>62</ele>
        <time>2022-08-07T08:12:44.194Z</time>
      </trkpt>
      <trkpt lat="44.18589" lon="0.70747">
        <ele>61</ele>
        <time>2022-08-07T08:12:45.194Z</time>
      </trkpt>
      <trkpt lat="44.18589" lon="0.70746">
        <ele>61</ele>
        <time>2022-08-07T08:12:46.194Z</time>
      </trkpt>
      <trkpt lat="44.1859" lon="0.70744">
        <ele>61</ele>
        <time>2022-08-07T08:12:47.194Z</time>
      </trkpt>
      <trkpt lat="44.1859" lon="0.70743">
        <ele>61</ele>
        <time>2022-08-07T08:12:48.194Z</time>
      </trkpt>
      <trkpt lat="44.1859" lon="0.70741">
        <ele>61</ele>
        <time>2022-08-07T08:12:49.194Z</time>
      </trkpt>
      <trkpt lat="44.1859" lon="0.7074">
        <ele>61</ele>
        <time>2022-08-07T08:12:50.194Z</time>
      </trkpt>
      <trkpt lat="44.1859" lon="0.70738">
        <ele>61</ele>
        <time>2022-08-07T08:12:51.194Z</time>
      </trkpt>
      <trkpt lat="44.18591" lon="0.70737">
        <ele>61</ele>
        <time>2022-08-07T08:12:52.194Z</time>
      </trkpt>
      <trkpt lat="44.18591" lon="0.70735">
        <ele>60</ele>
        <time>2022-08-07T08:12:53.194Z</time>
      </trkpt>
      <trkpt lat="44.18591" lon="0.70733">
        <ele>60</ele>
        <time>2022-08-07T08:12:54.194Z</time>
      </trkpt>
      <trkpt lat="44.18591" lon="0.70732">
        <ele>60</ele>
        <time>2022-08-07T08:12:55.194Z</time>
      </trkpt>
      <trkpt lat="44.18591" lon="0.7073">
        <ele>60</ele>
        <time>2022-08-07T08:12:56.194Z</time>
      </trkpt>
      <trkpt lat="44.18591" lon="0.70729">
        <ele>60</ele>
        <time>2022-08-07T08:12:57.194Z</time>
      </trkpt>
      <trkpt lat="44.18591" lon="0.70727">
        <ele>60</ele>
        <time>2022-08-07T08:12:58.194Z</time>
      </trkpt>
      <trkpt lat="44.18591" lon="0.70725">
        <ele>59</ele>
        <time>2022-08-07T08:12:59.194Z</time>
      </trkpt>
      <trkpt lat="44.18591" lon="0.70723">
        <ele>59</ele>
        <time>2022-08-07T08:13:00.194Z</time>
      </trkpt>
      <trkpt lat="44.18592" lon="0.70722">
        <ele>59</ele>
        <time>2022-08-07T08:13:01.194Z</time>
      </trkpt>
      <trkpt lat="44.18592" lon="0.7072">
        <ele>60</ele>
        <time>2022-08-07T08:13:02.194Z</time>
      </trkpt>
      <trkpt lat="44.18592" lon="0.70718">
        <ele>60</ele>
        <time>2022-08-07T08:13:03.194Z</time>
      </trkpt>
      <trkpt lat="44.18592" lon="0.70716">
        <ele>60</ele>
        <time>2022-08-07T08:13:04.194Z</time>
      </trkpt>
      <trkpt lat="44.18592" lon="0.70714">
        <ele>59</ele>
        <time>2022-08-07T08:13:05.194Z</time>
      </trkpt>
      <trkpt lat="44.18592" lon="0.70713">
        <ele>59</ele>
        <time>2022-08-07T08:13:06.194Z</time>
      </trkpt>
      <trkpt lat="44.18592" lon="0.70711">
        <ele>59</ele>
        <time>2022-08-07T08:13:07.194Z</time>
      </trkpt>
      <trkpt lat="44.18592" lon="0.70709">
        <ele>59</ele>
        <time>2022-08-07T08:13:08.194Z</time>
      </trkpt>
      <trkpt lat="44.18592" lon="0.70708">
        <ele>59</ele>
        <time>2022-08-07T08:13:09.194Z</time>
      </trkpt>
      <trkpt lat="44.18592" lon="0.70706">
        <ele>59</ele>
        <time>2022-08-07T08:13:10.194Z</time>
      </trkpt>
      <trkpt lat="44.18593" lon="0.70704">
        <ele>59</ele>
        <time>2022-08-07T08:13:11.194Z</time>
      </trkpt>
      <trkpt lat="44.18593" lon="0.70702">
        <ele>59</ele>
        <time>2022-08-07T08:13:12.194Z</time>
      </trkpt>
      <trkpt lat="44.18593" lon="0.707">
        <ele>59</ele>
        <time>2022-08-07T08:13:13.194Z</time>
      </trkpt>
      <trkpt lat="44.18593" lon="0.70698">
        <ele>59</ele>
        <time>2022-08-07T08:13:14.194Z</time>
      </trkpt>
      <trkpt lat="44.18593" lon="0.70696">
        <ele>59</ele>
        <time>2022-08-07T08:13:15.194Z</time>
      </trkpt>
      <trkpt lat="44.18594" lon="0.70694">
        <ele>59</ele>
        <time>2022-08-07T08:13:16.194Z</time>
      </trkpt>
      <trkpt lat="44.18594" lon="0.70692">
        <ele>59</ele>
        <time>2022-08-07T08:13:17.194Z</time>
      </trkpt>
      <trkpt lat="44.18594" lon="0.7069">
        <ele>59</ele>
        <time>2022-08-07T08:13:18.194Z</time>
      </trkpt>
      <trkpt lat="44.18594" lon="0.70688">
        <ele>59</ele>
        <time>2022-08-07T08:13:19.194Z</time>
      </trkpt>
      <trkpt lat="44.18594" lon="0.70686">
        <ele>58</ele>
        <time>2022-08-07T08:13:20.194Z</time>
      </trkpt>
      <trkpt lat="44.18595" lon="0.70684">
        <ele>58</ele>
        <time>2022-08-07T08:13:21.194Z</time>
      </trkpt>
      <trkpt lat="44.18595" lon="0.70683">
        <ele>58</ele>
        <time>2022-08-07T08:13:22.194Z</time>
      </trkpt>
      <trkpt lat="44.18595" lon="0.70681">
        <ele>58</ele>
        <time>2022-08-07T08:13:23.194Z</time>
      </trkpt>
      <trkpt lat="44.18596" lon="0.70679">
        <ele>59</ele>
        <time>2022-08-07T08:13:24.194Z</time>
      </trkpt>
      <trkpt lat="44.18596" lon="0.70678">
        <ele>59</ele>
        <time>2022-08-07T08:13:25.194Z</time>
      </trkpt>
      <trkpt lat="44.18596" lon="0.70676">
        <ele>59</ele>
        <time>2022-08-07T08:13:26.194Z</time>
      </trkpt>
      <trkpt lat="44.18597" lon="0.70674">
        <ele>59</ele>
        <time>2022-08-07T08:13:27.194Z</time>
      </trkpt>
      <trkpt lat="44.18597" lon="0.70672">
        <ele>59</ele>
        <time>2022-08-07T08:13:28.194Z</time>
      </trkpt>
      <trkpt lat="44.18598" lon="0.7067">
        <ele>59</ele>
        <time>2022-08-07T08:13:29.194Z</time>
      </trkpt>
      <trkpt lat="44.18598" lon="0.70668">
        <ele>59</ele>
        <time>2022-08-07T08:13:30.194Z</time>
      </trkpt>
      <trkpt lat="44.18599" lon="0.70666">
        <ele>59</ele>
        <time>2022-08-07T08:13:31.194Z</time>
      </trkpt>
      <trkpt lat="44.18599" lon="0.70665">
        <ele>59</ele>
        <time>2022-08-07T08:13:32.194Z</time>
      </trkpt>
      <trkpt lat="44.186" lon="0.70663">
        <ele>59</ele>
        <time>2022-08-07T08:13:33.194Z</time>
      </trkpt>
      <trkpt lat="44.186" lon="0.70661">
        <ele>59</ele>
        <time>2022-08-07T08:13:34.194Z</time>
      </trkpt>
      <trkpt lat="44.18601" lon="0.70659">
        <ele>59</ele>
        <time>2022-08-07T08:13:35.194Z</time>
      </trkpt>
      <trkpt lat="44.18601" lon="0.70658">
        <ele>59</ele>
        <time>2022-08-07T08:13:36.194Z</time>
      </trkpt>
      <trkpt lat="44.18602" lon="0.70656">
        <ele>60</ele>
        <time>2022-08-07T08:13:37.194Z</time>
      </trkpt>
      <trkpt lat="44.18603" lon="0.70655">
        <ele>60</ele>
        <time>2022-08-07T08:13:38.194Z</time>
      </trkpt>
      <trkpt lat="44.18603" lon="0.70654">
        <ele>59</ele>
        <time>2022-08-07T08:13:39.194Z</time>
      </trkpt>
      <trkpt lat="44.18604" lon="0.70652">
        <ele>60</ele>
        <time>2022-08-07T08:13:40.194Z</time>
      </trkpt>
      <trkpt lat="44.18604" lon="0.70651">
        <ele>60</ele>
        <time>2022-08-07T08:13:41.194Z</time>
      </trkpt>
      <trkpt lat="44.18605" lon="0.70649">
        <ele>60</ele>
        <time>2022-08-07T08:13:42.194Z</time>
      </trkpt>
      <trkpt lat="44.18605" lon="0.70647">
        <ele>60</ele>
        <time>2022-08-07T08:13:43.194Z</time>
      </trkpt>
      <trkpt lat="44.18606" lon="0.70646">
        <ele>60</ele>
        <time>2022-08-07T08:13:44.194Z</time>
      </trkpt>
      <trkpt lat="44.18607" lon="0.70644">
        <ele>60</ele>
        <time>2022-08-07T08:13:45.194Z</time>
      </trkpt>
      <trkpt lat="44.18607" lon="0.70642">
        <ele>59</ele>
        <time>2022-08-07T08:13:46.194Z</time>
      </trkpt>
      <trkpt lat="44.18608" lon="0.70641">
        <ele>59</ele>
        <time>2022-08-07T08:13:47.194Z</time>
      </trkpt>
      <trkpt lat="44.18608" lon="0.70639">
        <ele>59</ele>
        <time>2022-08-07T08:13:48.194Z</time>
      </trkpt>
      <trkpt lat="44.18609" lon="0.70637">
        <ele>59</ele>
        <time>2022-08-07T08:13:49.194Z</time>
      </trkpt>
      <trkpt lat="44.18609" lon="0.70636">
        <ele>59</ele>
        <time>2022-08-07T08:13:50.194Z</time>
      </trkpt>
      <trkpt lat="44.1861" lon="0.70635">
        <ele>58</ele>
        <time>2022-08-07T08:13:51.194Z</time>
      </trkpt>
      <trkpt lat="44.1861" lon="0.70633">
        <ele>58</ele>
        <time>2022-08-07T08:13:52.194Z</time>
      </trkpt>
      <trkpt lat="44.18611" lon="0.70632">
        <ele>59</ele>
        <time>2022-08-07T08:13:53.194Z</time>
      </trkpt>
      <trkpt lat="44.18612" lon="0.7063">
        <ele>59</ele>
        <time>2022-08-07T08:13:54.194Z</time>
      </trkpt>
      <trkpt lat="44.18612" lon="0.70628">
        <ele>59</ele>
        <time>2022-08-07T08:13:55.194Z</time>
      </trkpt>
      <trkpt lat="44.18612" lon="0.70626">
        <ele>59</ele>
        <time>2022-08-07T08:13:56.194Z</time>
      </trkpt>
      <trkpt lat="44.18613" lon="0.70624">
        <ele>59</ele>
        <time>2022-08-07T08:13:57.194Z</time>
      </trkpt>
      <trkpt lat="44.18613" lon="0.70623">
        <ele>59</ele>
        <time>2022-08-07T08:13:58.194Z</time>
      </trkpt>
      <trkpt lat="44.18613" lon="0.70621">
        <ele>59</ele>
        <time>2022-08-07T08:13:59.194Z</time>
      </trkpt>
      <trkpt lat="44.18614" lon="0.70619">
        <ele>59</ele>
        <time>2022-08-07T08:14:00.194Z</time>
      </trkpt>
      <trkpt lat="44.18614" lon="0.70617">
        <ele>58</ele>
        <time>2022-08-07T08:14:01.194Z</time>
      </trkpt>
      <trkpt lat="44.18614" lon="0.70615">
        <ele>58</ele>
        <time>2022-08-07T08:14:02.194Z</time>
      </trkpt>
      <trkpt lat="44.18614" lon="0.70613">
        <ele>58</ele>
        <time>2022-08-07T08:14:03.194Z</time>
      </trkpt>
      <trkpt lat="44.18614" lon="0.70611">
        <ele>58</ele>
        <time>2022-08-07T08:14:04.194Z</time>
      </trkpt>
      <trkpt lat="44.18614" lon="0.7061">
        <ele>58</ele>
        <time>2022-08-07T08:14:05.194Z</time>
      </trkpt>
      <trkpt lat="44.18615" lon="0.70608">
        <ele>58</ele>
        <time>2022-08-07T08:14:06.194Z</time>
      </trkpt>
      <trkpt lat="44.18615" lon="0.70606">
        <ele>59</ele>
        <time>2022-08-07T08:14:07.194Z</time>
      </trkpt>
      <trkpt lat="44.18615" lon="0.70605">
        <ele>59</ele>
        <time>2022-08-07T08:14:08.194Z</time>
      </trkpt>
      <trkpt lat="44.18615" lon="0.70603">
        <ele>59</ele>
        <time>2022-08-07T08:14:09.194Z</time>
      </trkpt>
      <trkpt lat="44.18615" lon="0.70601">
        <ele>60</ele>
        <time>2022-08-07T08:14:10.194Z</time>
      </trkpt>
      <trkpt lat="44.18615" lon="0.70599">
        <ele>60</ele>
        <time>2022-08-07T08:14:11.194Z</time>
      </trkpt>
      <trkpt lat="44.18615" lon="0.70597">
        <ele>60</ele>
        <time>2022-08-07T08:14:12.194Z</time>
      </trkpt>
      <trkpt lat="44.18615" lon="0.70595">
        <ele>60</ele>
        <time>2022-08-07T08:14:13.194Z</time>
      </trkpt>
      <trkpt lat="44.18615" lon="0.70593">
        <ele>59</ele>
        <time>2022-08-07T08:14:14.194Z</time>
      </trkpt>
      <trkpt lat="44.18615" lon="0.70591">
        <ele>59</ele>
        <time>2022-08-07T08:14:15.194Z</time>
      </trkpt>
      <trkpt lat="44.18615" lon="0.7059">
        <ele>59</ele>
        <time>2022-08-07T08:14:16.194Z</time>
      </trkpt>
      <trkpt lat="44.18615" lon="0.70588">
        <ele>59</ele>
        <time>2022-08-07T08:14:17.194Z</time>
      </trkpt>
      <trkpt lat="44.18615" lon="0.70587">
        <ele>59</ele>
        <time>2022-08-07T08:14:18.194Z</time>
      </trkpt>
      <trkpt lat="44.18615" lon="0.70585">
        <ele>59</ele>
        <time>2022-08-07T08:14:19.194Z</time>
      </trkpt>
      <trkpt lat="44.18615" lon="0.70583">
        <ele>59</ele>
        <time>2022-08-07T08:14:20.194Z</time>
      </trkpt>
      <trkpt lat="44.18615" lon="0.70582">
        <ele>59</ele>
        <time>2022-08-07T08:14:21.194Z</time>
      </trkpt>
      <trkpt lat="44.18615" lon="0.7058">
        <ele>60</ele>
        <time>2022-08-07T08:14:22.194Z</time>
      </trkpt>
      <trkpt lat="44.18615" lon="0.70578">
        <ele>60</ele>
        <time>2022-08-07T08:14:23.194Z</time>
      </trkpt>
      <trkpt lat="44.18615" lon="0.70577">
        <ele>59</ele>
        <time>2022-08-07T08:14:24.194Z</time>
      </trkpt>
      <trkpt lat="44.18616" lon="0.70575">
        <ele>59</ele>
        <time>2022-08-07T08:14:25.194Z</time>
      </trkpt>
      <trkpt lat="44.18616" lon="0.70573">
        <ele>59</ele>
        <time>2022-08-07T08:14:26.194Z</time>
      </trkpt>
      <trkpt lat="44.18616" lon="0.70571">
        <ele>59</ele>
        <time>2022-08-07T08:14:27.194Z</time>
      </trkpt>
      <trkpt lat="44.18615" lon="0.70569">
        <ele>59</ele>
        <time>2022-08-07T08:14:28.194Z</time>
      </trkpt>
      <trkpt lat="44.18615" lon="0.70567">
        <ele>60</ele>
        <time>2022-08-07T08:14:29.194Z</time>
      </trkpt>
      <trkpt lat="44.18615" lon="0.70566">
        <ele>60</ele>
        <time>2022-08-07T08:14:30.194Z</time>
      </trkpt>
      <trkpt lat="44.18615" lon="0.70564">
        <ele>60</ele>
        <time>2022-08-07T08:14:31.194Z</time>
      </trkpt>
      <trkpt lat="44.18615" lon="0.70562">
        <ele>60</ele>
        <time>2022-08-07T08:14:32.194Z</time>
      </trkpt>
      <trkpt lat="44.18615" lon="0.70561">
        <ele>60</ele>
        <time>2022-08-07T08:14:33.194Z</time>
      </trkpt>
      <trkpt lat="44.18615" lon="0.70559">
        <ele>60</ele>
        <time>2022-08-07T08:14:34.194Z</time>
      </trkpt>
      <trkpt lat="44.18615" lon="0.70557">
        <ele>60</ele>
        <time>2022-08-07T08:14:35.194Z</time>
      </trkpt>
      <trkpt lat="44.18615" lon="0.70555">
        <ele>59</ele>
        <time>2022-08-07T08:14:36.194Z</time>
      </trkpt>
      <trkpt lat="44.18615" lon="0.70554">
        <ele>60</ele>
        <time>2022-08-07T08:14:37.194Z</time>
      </trkpt>
      <trkpt lat="44.18615" lon="0.70552">
        <ele>60</ele>
        <time>2022-08-07T08:14:38.194Z</time>
      </trkpt>
      <trkpt lat="44.18615" lon="0.7055">
        <ele>60</ele>
        <time>2022-08-07T08:14:39.194Z</time>
      </trkpt>
      <trkpt lat="44.18615" lon="0.70548">
        <ele>59</ele>
        <time>2022-08-07T08:14:40.194Z</time>
      </trkpt>
      <trkpt lat="44.18615" lon="0.70547">
        <ele>59</ele>
        <time>2022-08-07T08:14:41.194Z</time>
      </trkpt>
      <trkpt lat="44.18615" lon="0.70545">
        <ele>59</ele>
        <time>2022-08-07T08:14:42.194Z</time>
      </trkpt>
      <trkpt lat="44.18615" lon="0.70543">
        <ele>58</ele>
        <time>2022-08-07T08:14:43.194Z</time>
      </trkpt>
      <trkpt lat="44.18614" lon="0.70542">
        <ele>58</ele>
        <time>2022-08-07T08:14:44.194Z</time>
      </trkpt>
      <trkpt lat="44.18614" lon="0.7054">
        <ele>58</ele>
        <time>2022-08-07T08:14:45.194Z</time>
      </trkpt>
      <trkpt lat="44.18614" lon="0.70538">
        <ele>58</ele>
        <time>2022-08-07T08:14:46.194Z</time>
      </trkpt>
      <trkpt lat="44.18614" lon="0.70536">
        <ele>58</ele>
        <time>2022-08-07T08:14:47.194Z</time>
      </trkpt>
      <trkpt lat="44.18614" lon="0.70535">
        <ele>57</ele>
        <time>2022-08-07T08:14:48.194Z</time>
      </trkpt>
      <trkpt lat="44.18614" lon="0.70533">
        <ele>57</ele>
        <time>2022-08-07T08:14:49.194Z</time>
      </trkpt>
      <trkpt lat="44.18614" lon="0.70531">
        <ele>57</ele>
        <time>2022-08-07T08:14:50.194Z</time>
      </trkpt>
      <trkpt lat="44.18614" lon="0.70529">
        <ele>57</ele>
        <time>2022-08-07T08:14:51.194Z</time>
      </trkpt>
      <trkpt lat="44.18614" lon="0.70528">
        <ele>57</ele>
        <time>2022-08-07T08:14:52.194Z</time>
      </trkpt>
      <trkpt lat="44.18614" lon="0.70526">
        <ele>57</ele>
        <time>2022-08-07T08:14:53.194Z</time>
      </trkpt>
      <trkpt lat="44.18614" lon="0.70524">
        <ele>57</ele>
        <time>2022-08-07T08:14:54.194Z</time>
      </trkpt>
      <trkpt lat="44.18614" lon="0.70523">
        <ele>56</ele>
        <time>2022-08-07T08:14:55.194Z</time>
      </trkpt>
      <trkpt lat="44.18614" lon="0.70521">
        <ele>57</ele>
        <time>2022-08-07T08:14:56.194Z</time>
      </trkpt>
      <trkpt lat="44.18614" lon="0.70519">
        <ele>56</ele>
        <time>2022-08-07T08:14:57.194Z</time>
      </trkpt>
      <trkpt lat="44.18614" lon="0.70518">
        <ele>57</ele>
        <time>2022-08-07T08:14:58.194Z</time>
      </trkpt>
      <trkpt lat="44.18614" lon="0.70516">
        <ele>57</ele>
        <time>2022-08-07T08:14:59.194Z</time>
      </trkpt>
      <trkpt lat="44.18614" lon="0.70514">
        <ele>57</ele>
        <time>2022-08-07T08:15:00.194Z</time>
      </trkpt>
      <trkpt lat="44.18614" lon="0.70512">
        <ele>57</ele>
        <time>2022-08-07T08:15:01.194Z</time>
      </trkpt>
      <trkpt lat="44.18614" lon="0.7051">
        <ele>57</ele>
        <time>2022-08-07T08:15:02.194Z</time>
      </trkpt>
      <trkpt lat="44.18615" lon="0.70508">
        <ele>59</ele>
        <time>2022-08-07T08:15:03.194Z</time>
      </trkpt>
      <trkpt lat="44.18615" lon="0.70506">
        <ele>59</ele>
        <time>2022-08-07T08:15:04.194Z</time>
      </trkpt>
      <trkpt lat="44.18615" lon="0.70505">
        <ele>59</ele>
        <time>2022-08-07T08:15:05.194Z</time>
      </trkpt>
      <trkpt lat="44.18614" lon="0.70503">
        <ele>59</ele>
        <time>2022-08-07T08:15:06.194Z</time>
      </trkpt>
      <trkpt lat="44.18615" lon="0.70501">
        <ele>60</ele>
        <time>2022-08-07T08:15:07.194Z</time>
      </trkpt>
      <trkpt lat="44.18615" lon="0.70499">
        <ele>61</ele>
        <time>2022-08-07T08:15:08.194Z</time>
      </trkpt>
      <trkpt lat="44.18615" lon="0.70498">
        <ele>61</ele>
        <time>2022-08-07T08:15:09.194Z</time>
      </trkpt>
      <trkpt lat="44.18614" lon="0.70496">
        <ele>61</ele>
        <time>2022-08-07T08:15:10.194Z</time>
      </trkpt>
      <trkpt lat="44.18614" lon="0.70494">
        <ele>62</ele>
        <time>2022-08-07T08:15:11.194Z</time>
      </trkpt>
      <trkpt lat="44.18614" lon="0.70493">
        <ele>62</ele>
        <time>2022-08-07T08:15:12.194Z</time>
      </trkpt>
      <trkpt lat="44.18614" lon="0.70492">
        <ele>61</ele>
        <time>2022-08-07T08:15:13.194Z</time>
      </trkpt>
      <trkpt lat="44.18614" lon="0.7049">
        <ele>61</ele>
        <time>2022-08-07T08:15:14.194Z</time>
      </trkpt>
      <trkpt lat="44.18614" lon="0.70489">
        <ele>62</ele>
        <time>2022-08-07T08:15:15.194Z</time>
      </trkpt>
      <trkpt lat="44.18614" lon="0.70488">
        <ele>62</ele>
        <time>2022-08-07T08:15:16.194Z</time>
      </trkpt>
      <trkpt lat="44.18614" lon="0.70487">
        <ele>62</ele>
        <time>2022-08-07T08:15:17.194Z</time>
      </trkpt>
      <trkpt lat="44.18614" lon="0.70487">
        <ele>62</ele>
        <time>2022-08-07T08:15:18.194Z</time>
      </trkpt>
      <trkpt lat="44.18614" lon="0.70486">
        <ele>63</ele>
        <time>2022-08-07T08:15:19.194Z</time>
      </trkpt>
      <trkpt lat="44.18614" lon="0.70486">
        <ele>64</ele>
        <time>2022-08-07T08:15:20.194Z</time>
      </trkpt>
      <trkpt lat="44.18614" lon="0.70486">
        <ele>64</ele>
        <time>2022-08-07T08:15:21.194Z</time>
      </trkpt>
      <trkpt lat="44.18614" lon="0.70486">
        <ele>64</ele>
        <time>2022-08-07T08:15:22.194Z</time>
      </trkpt>
      <trkpt lat="44.18614" lon="0.70486">
        <ele>64</ele>
        <time>2022-08-07T08:15:23.194Z</time>
      </trkpt>
      <trkpt lat="44.18614" lon="0.70486">
        <ele>64</ele>
        <time>2022-08-07T08:15:24.194Z</time>
      </trkpt>
      <trkpt lat="44.18614" lon="0.70485">
        <ele>64</ele>
        <time>2022-08-07T08:15:25.194Z</time>
      </trkpt>
      <trkpt lat="44.18613" lon="0.70483">
        <ele>64</ele>
        <time>2022-08-07T08:15:26.194Z</time>
      </trkpt>
      <trkpt lat="44.18613" lon="0.70482">
        <ele>64</ele>
        <time>2022-08-07T08:15:27.194Z</time>
      </trkpt>
      <trkpt lat="44.18613" lon="0.7048">
        <ele>64</ele>
        <time>2022-08-07T08:15:28.194Z</time>
      </trkpt>
      <trkpt lat="44.18613" lon="0.70479">
        <ele>64</ele>
        <time>2022-08-07T08:15:29.194Z</time>
      </trkpt>
      <trkpt lat="44.18613" lon="0.70477">
        <ele>63</ele>
        <time>2022-08-07T08:15:30.194Z</time>
      </trkpt>
      <trkpt lat="44.18613" lon="0.70476">
        <ele>63</ele>
        <time>2022-08-07T08:15:31.194Z</time>
      </trkpt>
      <trkpt lat="44.18613" lon="0.70475">
        <ele>63</ele>
        <time>2022-08-07T08:15:32.194Z</time>
      </trkpt>
      <trkpt lat="44.18612" lon="0.70474">
        <ele>63</ele>
        <time>2022-08-07T08:15:33.194Z</time>
      </trkpt>
      <trkpt lat="44.18612" lon="0.70472">
        <ele>63</ele>
        <time>2022-08-07T08:15:34.194Z</time>
      </trkpt>
      <trkpt lat="44.18612" lon="0.70471">
        <ele>63</ele>
        <time>2022-08-07T08:15:35.194Z</time>
      </trkpt>
      <trkpt lat="44.18612" lon="0.7047">
        <ele>63</ele>
        <time>2022-08-07T08:15:36.194Z</time>
      </trkpt>
      <trkpt lat="44.18612" lon="0.70468">
        <ele>63</ele>
        <time>2022-08-07T08:15:37.194Z</time>
      </trkpt>
      <trkpt lat="44.18612" lon="0.70466">
        <ele>63</ele>
        <time>2022-08-07T08:15:38.194Z</time>
      </trkpt>
      <trkpt lat="44.18612" lon="0.70465">
        <ele>63</ele>
        <time>2022-08-07T08:15:39.194Z</time>
      </trkpt>
      <trkpt lat="44.18612" lon="0.70463">
        <ele>63</ele>
        <time>2022-08-07T08:15:40.194Z</time>
      </trkpt>
      <trkpt lat="44.18612" lon="0.70461">
        <ele>63</ele>
        <time>2022-08-07T08:15:41.194Z</time>
      </trkpt>
      <trkpt lat="44.18612" lon="0.70459">
        <ele>63</ele>
        <time>2022-08-07T08:15:42.194Z</time>
      </trkpt>
      <trkpt lat="44.18612" lon="0.70458">
        <ele>63</ele>
        <time>2022-08-07T08:15:43.194Z</time>
      </trkpt>
      <trkpt lat="44.18612" lon="0.70456">
        <ele>62</ele>
        <time>2022-08-07T08:15:44.194Z</time>
      </trkpt>
      <trkpt lat="44.18611" lon="0.70454">
        <ele>62</ele>
        <time>2022-08-07T08:15:45.194Z</time>
      </trkpt>
      <trkpt lat="44.18611" lon="0.70452">
        <ele>62</ele>
        <time>2022-08-07T08:15:46.194Z</time>
      </trkpt>
      <trkpt lat="44.18611" lon="0.70451">
        <ele>62</ele>
        <time>2022-08-07T08:15:47.194Z</time>
      </trkpt>
      <trkpt lat="44.18611" lon="0.70449">
        <ele>63</ele>
        <time>2022-08-07T08:15:48.194Z</time>
      </trkpt>
      <trkpt lat="44.18611" lon="0.70447">
        <ele>63</ele>
        <time>2022-08-07T08:15:49.194Z</time>
      </trkpt>
      <trkpt lat="44.18611" lon="0.70446">
        <ele>63</ele>
        <time>2022-08-07T08:15:50.194Z</time>
      </trkpt>
      <trkpt lat="44.18612" lon="0.70444">
        <ele>63</ele>
        <time>2022-08-07T08:15:51.194Z</time>
      </trkpt>
      <trkpt lat="44.18612" lon="0.70443">
        <ele>63</ele>
        <time>2022-08-07T08:15:52.194Z</time>
      </trkpt>
      <trkpt lat="44.18612" lon="0.70441">
        <ele>63</ele>
        <time>2022-08-07T08:15:53.194Z</time>
      </trkpt>
      <trkpt lat="44.18611" lon="0.70439">
        <ele>63</ele>
        <time>2022-08-07T08:15:54.194Z</time>
      </trkpt>
      <trkpt lat="44.18611" lon="0.70437">
        <ele>63</ele>
        <time>2022-08-07T08:15:55.194Z</time>
      </trkpt>
      <trkpt lat="44.18611" lon="0.70436">
        <ele>63</ele>
        <time>2022-08-07T08:15:56.194Z</time>
      </trkpt>
      <trkpt lat="44.18611" lon="0.70434">
        <ele>63</ele>
        <time>2022-08-07T08:15:57.194Z</time>
      </trkpt>
      <trkpt lat="44.18611" lon="0.70432">
        <ele>63</ele>
        <time>2022-08-07T08:15:58.194Z</time>
      </trkpt>
      <trkpt lat="44.18611" lon="0.7043">
        <ele>64</ele>
        <time>2022-08-07T08:15:59.194Z</time>
      </trkpt>
      <trkpt lat="44.18611" lon="0.70428">
        <ele>64</ele>
        <time>2022-08-07T08:16:00.194Z</time>
      </trkpt>
      <trkpt lat="44.18611" lon="0.70427">
        <ele>64</ele>
        <time>2022-08-07T08:16:01.194Z</time>
      </trkpt>
      <trkpt lat="44.18611" lon="0.70425">
        <ele>64</ele>
        <time>2022-08-07T08:16:02.194Z</time>
      </trkpt>
      <trkpt lat="44.1861" lon="0.70423">
        <ele>64</ele>
        <time>2022-08-07T08:16:03.194Z</time>
      </trkpt>
      <trkpt lat="44.1861" lon="0.70421">
        <ele>63</ele>
        <time>2022-08-07T08:16:04.194Z</time>
      </trkpt>
      <trkpt lat="44.1861" lon="0.7042">
        <ele>64</ele>
        <time>2022-08-07T08:16:05.194Z</time>
      </trkpt>
      <trkpt lat="44.1861" lon="0.70418">
        <ele>64</ele>
        <time>2022-08-07T08:16:06.194Z</time>
      </trkpt>
      <trkpt lat="44.18609" lon="0.70416">
        <ele>64</ele>
        <time>2022-08-07T08:16:07.194Z</time>
      </trkpt>
      <trkpt lat="44.18609" lon="0.70414">
        <ele>64</ele>
        <time>2022-08-07T08:16:08.194Z</time>
      </trkpt>
      <trkpt lat="44.18609" lon="0.70412">
        <ele>64</ele>
        <time>2022-08-07T08:16:09.194Z</time>
      </trkpt>
      <trkpt lat="44.18609" lon="0.7041">
        <ele>63</ele>
        <time>2022-08-07T08:16:10.194Z</time>
      </trkpt>
      <trkpt lat="44.18609" lon="0.70409">
        <ele>64</ele>
        <time>2022-08-07T08:16:11.194Z</time>
      </trkpt>
      <trkpt lat="44.18609" lon="0.70407">
        <ele>64</ele>
        <time>2022-08-07T08:16:12.194Z</time>
      </trkpt>
      <trkpt lat="44.18609" lon="0.70406">
        <ele>64</ele>
        <time>2022-08-07T08:16:13.194Z</time>
      </trkpt>
      <trkpt lat="44.18608" lon="0.70404">
        <ele>64</ele>
        <time>2022-08-07T08:16:14.194Z</time>
      </trkpt>
      <trkpt lat="44.18608" lon="0.70402">
        <ele>64</ele>
        <time>2022-08-07T08:16:15.194Z</time>
      </trkpt>
      <trkpt lat="44.18608" lon="0.704">
        <ele>64</ele>
        <time>2022-08-07T08:16:16.194Z</time>
      </trkpt>
      <trkpt lat="44.18608" lon="0.70399">
        <ele>64</ele>
        <time>2022-08-07T08:16:17.194Z</time>
      </trkpt>
      <trkpt lat="44.18608" lon="0.70397">
        <ele>64</ele>
        <time>2022-08-07T08:16:18.194Z</time>
      </trkpt>
      <trkpt lat="44.18608" lon="0.70395">
        <ele>64</ele>
        <time>2022-08-07T08:16:19.194Z</time>
      </trkpt>
      <trkpt lat="44.18608" lon="0.70394">
        <ele>64</ele>
        <time>2022-08-07T08:16:20.194Z</time>
      </trkpt>
      <trkpt lat="44.18608" lon="0.70392">
        <ele>64</ele>
        <time>2022-08-07T08:16:21.194Z</time>
      </trkpt>
      <trkpt lat="44.18608" lon="0.7039">
        <ele>64</ele>
        <time>2022-08-07T08:16:22.194Z</time>
      </trkpt>
      <trkpt lat="44.18608" lon="0.70389">
        <ele>64</ele>
        <time>2022-08-07T08:16:23.194Z</time>
      </trkpt>
      <trkpt lat="44.18608" lon="0.70387">
        <ele>64</ele>
        <time>2022-08-07T08:16:24.194Z</time>
      </trkpt>
      <trkpt lat="44.18608" lon="0.70385">
        <ele>64</ele>
        <time>2022-08-07T08:16:25.194Z</time>
      </trkpt>
      <trkpt lat="44.18608" lon="0.70383">
        <ele>64</ele>
        <time>2022-08-07T08:16:26.194Z</time>
      </trkpt>
      <trkpt lat="44.18608" lon="0.70381">
        <ele>64</ele>
        <time>2022-08-07T08:16:27.194Z</time>
      </trkpt>
      <trkpt lat="44.18607" lon="0.70379">
        <ele>64</ele>
        <time>2022-08-07T08:16:28.194Z</time>
      </trkpt>
      <trkpt lat="44.18607" lon="0.70377">
        <ele>64</ele>
        <time>2022-08-07T08:16:29.194Z</time>
      </trkpt>
      <trkpt lat="44.18607" lon="0.70376">
        <ele>64</ele>
        <time>2022-08-07T08:16:30.194Z</time>
      </trkpt>
      <trkpt lat="44.18607" lon="0.70374">
        <ele>64</ele>
        <time>2022-08-07T08:16:31.194Z</time>
      </trkpt>
      <trkpt lat="44.18607" lon="0.70373">
        <ele>64</ele>
        <time>2022-08-07T08:16:32.194Z</time>
      </trkpt>
      <trkpt lat="44.18607" lon="0.70371">
        <ele>64</ele>
        <time>2022-08-07T08:16:33.194Z</time>
      </trkpt>
      <trkpt lat="44.18607" lon="0.70369">
        <ele>64</ele>
        <time>2022-08-07T08:16:34.194Z</time>
      </trkpt>
      <trkpt lat="44.18607" lon="0.70367">
        <ele>64</ele>
        <time>2022-08-07T08:16:35.194Z</time>
      </trkpt>
      <trkpt lat="44.18607" lon="0.70366">
        <ele>64</ele>
        <time>2022-08-07T08:16:36.194Z</time>
      </trkpt>
      <trkpt lat="44.18607" lon="0.70364">
        <ele>64</ele>
        <time>2022-08-07T08:16:37.194Z</time>
      </trkpt>
      <trkpt lat="44.18607" lon="0.70362">
        <ele>64</ele>
        <time>2022-08-07T08:16:38.194Z</time>
      </trkpt>
      <trkpt lat="44.18606" lon="0.7036">
        <ele>63</ele>
        <time>2022-08-07T08:16:39.194Z</time>
      </trkpt>
      <trkpt lat="44.18606" lon="0.70358">
        <ele>63</ele>
        <time>2022-08-07T08:16:40.194Z</time>
      </trkpt>
      <trkpt lat="44.18606" lon="0.70357">
        <ele>62</ele>
        <time>2022-08-07T08:16:41.194Z</time>
      </trkpt>
      <trkpt lat="44.18606" lon="0.70355">
        <ele>62</ele>
        <time>2022-08-07T08:16:42.194Z</time>
      </trkpt>
      <trkpt lat="44.18606" lon="0.70354">
        <ele>62</ele>
        <time>2022-08-07T08:16:43.194Z</time>
      </trkpt>
      <trkpt lat="44.18606" lon="0.70352">
        <ele>62</ele>
        <time>2022-08-07T08:16:44.194Z</time>
      </trkpt>
      <trkpt lat="44.18605" lon="0.7035">
        <ele>62</ele>
        <time>2022-08-07T08:16:45.194Z</time>
      </trkpt>
      <trkpt lat="44.18605" lon="0.70349">
        <ele>62</ele>
        <time>2022-08-07T08:16:46.194Z</time>
      </trkpt>
      <trkpt lat="44.18605" lon="0.70347">
        <ele>62</ele>
        <time>2022-08-07T08:16:47.194Z</time>
      </trkpt>
      <trkpt lat="44.18605" lon="0.70345">
        <ele>62</ele>
        <time>2022-08-07T08:16:48.194Z</time>
      </trkpt>
      <trkpt lat="44.18605" lon="0.70343">
        <ele>62</ele>
        <time>2022-08-07T08:16:49.194Z</time>
      </trkpt>
      <trkpt lat="44.18604" lon="0.70341">
        <ele>62</ele>
        <time>2022-08-07T08:16:50.194Z</time>
      </trkpt>
      <trkpt lat="44.18604" lon="0.7034">
        <ele>62</ele>
        <time>2022-08-07T08:16:51.194Z</time>
      </trkpt>
      <trkpt lat="44.18604" lon="0.70338">
        <ele>62</ele>
        <time>2022-08-07T08:16:52.194Z</time>
      </trkpt>
      <trkpt lat="44.18604" lon="0.70337">
        <ele>62</ele>
        <time>2022-08-07T08:16:53.194Z</time>
      </trkpt>
      <trkpt lat="44.18604" lon="0.70335">
        <ele>61</ele>
        <time>2022-08-07T08:16:54.194Z</time>
      </trkpt>
      <trkpt lat="44.18604" lon="0.70333">
        <ele>61</ele>
        <time>2022-08-07T08:16:55.194Z</time>
      </trkpt>
      <trkpt lat="44.18604" lon="0.70331">
        <ele>61</ele>
        <time>2022-08-07T08:16:56.194Z</time>
      </trkpt>
      <trkpt lat="44.18604" lon="0.7033">
        <ele>61</ele>
        <time>2022-08-07T08:16:57.194Z</time>
      </trkpt>
      <trkpt lat="44.18604" lon="0.70328">
        <ele>61</ele>
        <time>2022-08-07T08:16:58.194Z</time>
      </trkpt>
      <trkpt lat="44.18603" lon="0.70326">
        <ele>60</ele>
        <time>2022-08-07T08:16:59.194Z</time>
      </trkpt>
      <trkpt lat="44.18603" lon="0.70324">
        <ele>61</ele>
        <time>2022-08-07T08:17:00.194Z</time>
      </trkpt>
      <trkpt lat="44.18603" lon="0.70322">
        <ele>61</ele>
        <time>2022-08-07T08:17:01.194Z</time>
      </trkpt>
      <trkpt lat="44.18603" lon="0.7032">
        <ele>61</ele>
        <time>2022-08-07T08:17:02.194Z</time>
      </trkpt>
      <trkpt lat="44.18603" lon="0.70318">
        <ele>60</ele>
        <time>2022-08-07T08:17:03.194Z</time>
      </trkpt>
      <trkpt lat="44.18603" lon="0.70317">
        <ele>61</ele>
        <time>2022-08-07T08:17:04.194Z</time>
      </trkpt>
      <trkpt lat="44.18603" lon="0.70315">
        <ele>61</ele>
        <time>2022-08-07T08:17:05.194Z</time>
      </trkpt>
      <trkpt lat="44.18603" lon="0.70313">
        <ele>61</ele>
        <time>2022-08-07T08:17:06.194Z</time>
      </trkpt>
      <trkpt lat="44.18603" lon="0.70311">
        <ele>61</ele>
        <time>2022-08-07T08:17:07.194Z</time>
      </trkpt>
      <trkpt lat="44.18603" lon="0.70309">
        <ele>61</ele>
        <time>2022-08-07T08:17:08.194Z</time>
      </trkpt>
      <trkpt lat="44.18602" lon="0.70308">
        <ele>61</ele>
        <time>2022-08-07T08:17:09.194Z</time>
      </trkpt>
      <trkpt lat="44.18602" lon="0.70306">
        <ele>61</ele>
        <time>2022-08-07T08:17:10.194Z</time>
      </trkpt>
      <trkpt lat="44.18602" lon="0.70304">
        <ele>61</ele>
        <time>2022-08-07T08:17:11.194Z</time>
      </trkpt>
      <trkpt lat="44.18602" lon="0.70303">
        <ele>61</ele>
        <time>2022-08-07T08:17:12.194Z</time>
      </trkpt>
      <trkpt lat="44.18602" lon="0.70301">
        <ele>61</ele>
        <time>2022-08-07T08:17:13.194Z</time>
      </trkpt>
      <trkpt lat="44.18602" lon="0.70299">
        <ele>61</ele>
        <time>2022-08-07T08:17:14.194Z</time>
      </trkpt>
      <trkpt lat="44.18602" lon="0.70297">
        <ele>61</ele>
        <time>2022-08-07T08:17:15.194Z</time>
      </trkpt>
      <trkpt lat="44.18602" lon="0.70296">
        <ele>61</ele>
        <time>2022-08-07T08:17:16.194Z</time>
      </trkpt>
      <trkpt lat="44.18602" lon="0.70294">
        <ele>61</ele>
        <time>2022-08-07T08:17:17.194Z</time>
      </trkpt>
      <trkpt lat="44.18602" lon="0.70292">
        <ele>61</ele>
        <time>2022-08-07T08:17:18.194Z</time>
      </trkpt>
      <trkpt lat="44.18602" lon="0.7029">
        <ele>61</ele>
        <time>2022-08-07T08:17:19.194Z</time>
      </trkpt>
      <trkpt lat="44.18602" lon="0.70288">
        <ele>61</ele>
        <time>2022-08-07T08:17:20.194Z</time>
      </trkpt>
      <trkpt lat="44.18602" lon="0.70286">
        <ele>61</ele>
        <time>2022-08-07T08:17:21.194Z</time>
      </trkpt>
      <trkpt lat="44.18602" lon="0.70284">
        <ele>61</ele>
        <time>2022-08-07T08:17:22.194Z</time>
      </trkpt>
      <trkpt lat="44.18602" lon="0.70282">
        <ele>61</ele>
        <time>2022-08-07T08:17:23.194Z</time>
      </trkpt>
      <trkpt lat="44.18602" lon="0.7028">
        <ele>61</ele>
        <time>2022-08-07T08:17:24.194Z</time>
      </trkpt>
      <trkpt lat="44.18602" lon="0.70279">
        <ele>61</ele>
        <time>2022-08-07T08:17:25.194Z</time>
      </trkpt>
      <trkpt lat="44.18602" lon="0.70277">
        <ele>61</ele>
        <time>2022-08-07T08:17:26.194Z</time>
      </trkpt>
      <trkpt lat="44.18602" lon="0.70274">
        <ele>61</ele>
        <time>2022-08-07T08:17:27.194Z</time>
      </trkpt>
      <trkpt lat="44.18601" lon="0.70273">
        <ele>61</ele>
        <time>2022-08-07T08:17:28.194Z</time>
      </trkpt>
      <trkpt lat="44.18601" lon="0.70271">
        <ele>61</ele>
        <time>2022-08-07T08:17:29.194Z</time>
      </trkpt>
      <trkpt lat="44.18601" lon="0.70269">
        <ele>61</ele>
        <time>2022-08-07T08:17:30.194Z</time>
      </trkpt>
      <trkpt lat="44.18601" lon="0.70267">
        <ele>60</ele>
        <time>2022-08-07T08:17:31.194Z</time>
      </trkpt>
      <trkpt lat="44.18601" lon="0.70265">
        <ele>60</ele>
        <time>2022-08-07T08:17:32.194Z</time>
      </trkpt>
      <trkpt lat="44.18601" lon="0.70263">
        <ele>61</ele>
        <time>2022-08-07T08:17:33.194Z</time>
      </trkpt>
      <trkpt lat="44.18601" lon="0.70262">
        <ele>61</ele>
        <time>2022-08-07T08:17:34.194Z</time>
      </trkpt>
      <trkpt lat="44.18601" lon="0.7026">
        <ele>61</ele>
        <time>2022-08-07T08:17:35.194Z</time>
      </trkpt>
      <trkpt lat="44.18601" lon="0.70259">
        <ele>61</ele>
        <time>2022-08-07T08:17:36.194Z</time>
      </trkpt>
      <trkpt lat="44.18601" lon="0.70257">
        <ele>62</ele>
        <time>2022-08-07T08:17:37.194Z</time>
      </trkpt>
      <trkpt lat="44.18601" lon="0.70255">
        <ele>62</ele>
        <time>2022-08-07T08:17:38.194Z</time>
      </trkpt>
      <trkpt lat="44.18601" lon="0.70253">
        <ele>62</ele>
        <time>2022-08-07T08:17:39.194Z</time>
      </trkpt>
      <trkpt lat="44.18601" lon="0.70252">
        <ele>62</ele>
        <time>2022-08-07T08:17:40.194Z</time>
      </trkpt>
      <trkpt lat="44.18601" lon="0.7025">
        <ele>63</ele>
        <time>2022-08-07T08:17:41.194Z</time>
      </trkpt>
      <trkpt lat="44.18601" lon="0.70247">
        <ele>63</ele>
        <time>2022-08-07T08:17:42.194Z</time>
      </trkpt>
      <trkpt lat="44.18601" lon="0.70246">
        <ele>62</ele>
        <time>2022-08-07T08:17:43.194Z</time>
      </trkpt>
      <trkpt lat="44.186" lon="0.70244">
        <ele>63</ele>
        <time>2022-08-07T08:17:44.194Z</time>
      </trkpt>
      <trkpt lat="44.186" lon="0.70242">
        <ele>62</ele>
        <time>2022-08-07T08:17:45.194Z</time>
      </trkpt>
      <trkpt lat="44.186" lon="0.7024">
        <ele>63</ele>
        <time>2022-08-07T08:17:46.194Z</time>
      </trkpt>
      <trkpt lat="44.186" lon="0.70238">
        <ele>63</ele>
        <time>2022-08-07T08:17:47.194Z</time>
      </trkpt>
      <trkpt lat="44.18601" lon="0.70237">
        <ele>62</ele>
        <time>2022-08-07T08:17:48.194Z</time>
      </trkpt>
      <trkpt lat="44.18601" lon="0.70235">
        <ele>62</ele>
        <time>2022-08-07T08:17:49.194Z</time>
      </trkpt>
      <trkpt lat="44.18601" lon="0.70233">
        <ele>62</ele>
        <time>2022-08-07T08:17:50.194Z</time>
      </trkpt>
      <trkpt lat="44.186" lon="0.70231">
        <ele>62</ele>
        <time>2022-08-07T08:17:51.194Z</time>
      </trkpt>
      <trkpt lat="44.186" lon="0.70229">
        <ele>62</ele>
        <time>2022-08-07T08:17:52.194Z</time>
      </trkpt>
      <trkpt lat="44.186" lon="0.70228">
        <ele>62</ele>
        <time>2022-08-07T08:17:53.194Z</time>
      </trkpt>
      <trkpt lat="44.186" lon="0.70226">
        <ele>62</ele>
        <time>2022-08-07T08:17:54.194Z</time>
      </trkpt>
      <trkpt lat="44.18601" lon="0.70225">
        <ele>62</ele>
        <time>2022-08-07T08:17:55.194Z</time>
      </trkpt>
      <trkpt lat="44.18601" lon="0.70223">
        <ele>62</ele>
        <time>2022-08-07T08:17:56.194Z</time>
      </trkpt>
      <trkpt lat="44.186" lon="0.70221">
        <ele>62</ele>
        <time>2022-08-07T08:17:57.194Z</time>
      </trkpt>
      <trkpt lat="44.186" lon="0.70219">
        <ele>62</ele>
        <time>2022-08-07T08:17:58.194Z</time>
      </trkpt>
      <trkpt lat="44.186" lon="0.70218">
        <ele>63</ele>
        <time>2022-08-07T08:17:59.194Z</time>
      </trkpt>
      <trkpt lat="44.18601" lon="0.70216">
        <ele>63</ele>
        <time>2022-08-07T08:18:00.194Z</time>
      </trkpt>
      <trkpt lat="44.18601" lon="0.70214">
        <ele>62</ele>
        <time>2022-08-07T08:18:01.194Z</time>
      </trkpt>
      <trkpt lat="44.18601" lon="0.70212">
        <ele>63</ele>
        <time>2022-08-07T08:18:02.194Z</time>
      </trkpt>
      <trkpt lat="44.18601" lon="0.70211">
        <ele>63</ele>
        <time>2022-08-07T08:18:03.194Z</time>
      </trkpt>
      <trkpt lat="44.18601" lon="0.70209">
        <ele>63</ele>
        <time>2022-08-07T08:18:04.194Z</time>
      </trkpt>
      <trkpt lat="44.18601" lon="0.70208">
        <ele>63</ele>
        <time>2022-08-07T08:18:05.194Z</time>
      </trkpt>
      <trkpt lat="44.18601" lon="0.70206">
        <ele>63</ele>
        <time>2022-08-07T08:18:06.194Z</time>
      </trkpt>
      <trkpt lat="44.18601" lon="0.70204">
        <ele>62</ele>
        <time>2022-08-07T08:18:07.194Z</time>
      </trkpt>
      <trkpt lat="44.18601" lon="0.70203">
        <ele>62</ele>
        <time>2022-08-07T08:18:08.194Z</time>
      </trkpt>
      <trkpt lat="44.18601" lon="0.70201">
        <ele>63</ele>
        <time>2022-08-07T08:18:09.194Z</time>
      </trkpt>
      <trkpt lat="44.18601" lon="0.70199">
        <ele>62</ele>
        <time>2022-08-07T08:18:10.194Z</time>
      </trkpt>
      <trkpt lat="44.18602" lon="0.70198">
        <ele>63</ele>
        <time>2022-08-07T08:18:11.194Z</time>
      </trkpt>
      <trkpt lat="44.18602" lon="0.70196">
        <ele>63</ele>
        <time>2022-08-07T08:18:12.194Z</time>
      </trkpt>
      <trkpt lat="44.18602" lon="0.70195">
        <ele>63</ele>
        <time>2022-08-07T08:18:13.194Z</time>
      </trkpt>
      <trkpt lat="44.18602" lon="0.70193">
        <ele>63</ele>
        <time>2022-08-07T08:18:14.194Z</time>
      </trkpt>
      <trkpt lat="44.18602" lon="0.70192">
        <ele>63</ele>
        <time>2022-08-07T08:18:15.194Z</time>
      </trkpt>
      <trkpt lat="44.18602" lon="0.7019">
        <ele>63</ele>
        <time>2022-08-07T08:18:16.194Z</time>
      </trkpt>
      <trkpt lat="44.18602" lon="0.70189">
        <ele>63</ele>
        <time>2022-08-07T08:18:17.194Z</time>
      </trkpt>
      <trkpt lat="44.18602" lon="0.70188">
        <ele>62</ele>
        <time>2022-08-07T08:18:18.194Z</time>
      </trkpt>
      <trkpt lat="44.18602" lon="0.70186">
        <ele>62</ele>
        <time>2022-08-07T08:18:19.194Z</time>
      </trkpt>
      <trkpt lat="44.18602" lon="0.70185">
        <ele>62</ele>
        <time>2022-08-07T08:18:20.194Z</time>
      </trkpt>
      <trkpt lat="44.18602" lon="0.70184">
        <ele>62</ele>
        <time>2022-08-07T08:18:21.194Z</time>
      </trkpt>
      <trkpt lat="44.18602" lon="0.70183">
        <ele>62</ele>
        <time>2022-08-07T08:18:22.194Z</time>
      </trkpt>
      <trkpt lat="44.18602" lon="0.70181">
        <ele>62</ele>
        <time>2022-08-07T08:18:23.194Z</time>
      </trkpt>
      <trkpt lat="44.18603" lon="0.70179">
        <ele>62</ele>
        <time>2022-08-07T08:18:24.194Z</time>
      </trkpt>
      <trkpt lat="44.18603" lon="0.70178">
        <ele>63</ele>
        <time>2022-08-07T08:18:25.194Z</time>
      </trkpt>
      <trkpt lat="44.18603" lon="0.70177">
        <ele>63</ele>
        <time>2022-08-07T08:18:26.194Z</time>
      </trkpt>
      <trkpt lat="44.18603" lon="0.70175">
        <ele>63</ele>
        <time>2022-08-07T08:18:27.194Z</time>
      </trkpt>
      <trkpt lat="44.18604" lon="0.70174">
        <ele>63</ele>
        <time>2022-08-07T08:18:28.194Z</time>
      </trkpt>
      <trkpt lat="44.18605" lon="0.70172">
        <ele>64</ele>
        <time>2022-08-07T08:18:29.194Z</time>
      </trkpt>
      <trkpt lat="44.18605" lon="0.70171">
        <ele>64</ele>
        <time>2022-08-07T08:18:30.194Z</time>
      </trkpt>
      <trkpt lat="44.18606" lon="0.70169">
        <ele>65</ele>
        <time>2022-08-07T08:18:31.194Z</time>
      </trkpt>
      <trkpt lat="44.18607" lon="0.70168">
        <ele>65</ele>
        <time>2022-08-07T08:18:32.194Z</time>
      </trkpt>
      <trkpt lat="44.18607" lon="0.70167">
        <ele>65</ele>
        <time>2022-08-07T08:18:33.194Z</time>
      </trkpt>
      <trkpt lat="44.18608" lon="0.70166">
        <ele>65</ele>
        <time>2022-08-07T08:18:34.194Z</time>
      </trkpt>
      <trkpt lat="44.18609" lon="0.70164">
        <ele>65</ele>
        <time>2022-08-07T08:18:35.194Z</time>
      </trkpt>
      <trkpt lat="44.18609" lon="0.70163">
        <ele>65</ele>
        <time>2022-08-07T08:18:36.194Z</time>
      </trkpt>
      <trkpt lat="44.1861" lon="0.70163">
        <ele>65</ele>
        <time>2022-08-07T08:18:37.194Z</time>
      </trkpt>
      <trkpt lat="44.1861" lon="0.70161">
        <ele>65</ele>
        <time>2022-08-07T08:18:38.194Z</time>
      </trkpt>
      <trkpt lat="44.1861" lon="0.7016">
        <ele>65</ele>
        <time>2022-08-07T08:18:39.194Z</time>
      </trkpt>
      <trkpt lat="44.18611" lon="0.70158">
        <ele>65</ele>
        <time>2022-08-07T08:18:40.194Z</time>
      </trkpt>
      <trkpt lat="44.18611" lon="0.70156">
        <ele>65</ele>
        <time>2022-08-07T08:18:41.194Z</time>
      </trkpt>
      <trkpt lat="44.18611" lon="0.70154">
        <ele>65</ele>
        <time>2022-08-07T08:18:42.194Z</time>
      </trkpt>
      <trkpt lat="44.18611" lon="0.70152">
        <ele>65</ele>
        <time>2022-08-07T08:18:43.194Z</time>
      </trkpt>
      <trkpt lat="44.1861" lon="0.70151">
        <ele>65</ele>
        <time>2022-08-07T08:18:44.194Z</time>
      </trkpt>
      <trkpt lat="44.1861" lon="0.70149">
        <ele>65</ele>
        <time>2022-08-07T08:18:45.194Z</time>
      </trkpt>
      <trkpt lat="44.1861" lon="0.70148">
        <ele>65</ele>
        <time>2022-08-07T08:18:46.194Z</time>
      </trkpt>
      <trkpt lat="44.1861" lon="0.70147">
        <ele>65</ele>
        <time>2022-08-07T08:18:47.194Z</time>
      </trkpt>
      <trkpt lat="44.18609" lon="0.70145">
        <ele>65</ele>
        <time>2022-08-07T08:18:48.194Z</time>
      </trkpt>
      <trkpt lat="44.18608" lon="0.70144">
        <ele>65</ele>
        <time>2022-08-07T08:18:49.194Z</time>
      </trkpt>
      <trkpt lat="44.18608" lon="0.70143">
        <ele>65</ele>
        <time>2022-08-07T08:18:50.194Z</time>
      </trkpt>
      <trkpt lat="44.18607" lon="0.70142">
        <ele>65</ele>
        <time>2022-08-07T08:18:51.194Z</time>
      </trkpt>
      <trkpt lat="44.18606" lon="0.70141">
        <ele>65</ele>
        <time>2022-08-07T08:18:52.194Z</time>
      </trkpt>
      <trkpt lat="44.18606" lon="0.7014">
        <ele>65</ele>
        <time>2022-08-07T08:18:53.194Z</time>
      </trkpt>
      <trkpt lat="44.18605" lon="0.70139">
        <ele>65</ele>
        <time>2022-08-07T08:18:54.194Z</time>
      </trkpt>
      <trkpt lat="44.18604" lon="0.70137">
        <ele>65</ele>
        <time>2022-08-07T08:18:55.194Z</time>
      </trkpt>
      <trkpt lat="44.18604" lon="0.70136">
        <ele>65</ele>
        <time>2022-08-07T08:18:56.194Z</time>
      </trkpt>
      <trkpt lat="44.18604" lon="0.70135">
        <ele>65</ele>
        <time>2022-08-07T08:18:57.194Z</time>
      </trkpt>
      <trkpt lat="44.18604" lon="0.70134">
        <ele>65</ele>
        <time>2022-08-07T08:18:58.194Z</time>
      </trkpt>
      <trkpt lat="44.18604" lon="0.70132">
        <ele>65</ele>
        <time>2022-08-07T08:18:59.194Z</time>
      </trkpt>
      <trkpt lat="44.18604" lon="0.70131">
        <ele>65</ele>
        <time>2022-08-07T08:19:00.194Z</time>
      </trkpt>
      <trkpt lat="44.18604" lon="0.7013">
        <ele>65</ele>
        <time>2022-08-07T08:19:01.194Z</time>
      </trkpt>
      <trkpt lat="44.18604" lon="0.7013">
        <ele>65</ele>
        <time>2022-08-07T08:19:02.194Z</time>
      </trkpt>
      <trkpt lat="44.18604" lon="0.70129">
        <ele>65</ele>
        <time>2022-08-07T08:19:03.194Z</time>
      </trkpt>
      <trkpt lat="44.18604" lon="0.70129">
        <ele>65</ele>
        <time>2022-08-07T08:19:04.194Z</time>
      </trkpt>
      <trkpt lat="44.18604" lon="0.70128">
        <ele>65</ele>
        <time>2022-08-07T08:19:05.194Z</time>
      </trkpt>
      <trkpt lat="44.18603" lon="0.70128">
        <ele>65</ele>
        <time>2022-08-07T08:19:06.194Z</time>
      </trkpt>
      <trkpt lat="44.18603" lon="0.70128">
        <ele>65</ele>
        <time>2022-08-07T08:19:07.194Z</time>
      </trkpt>
      <trkpt lat="44.18603" lon="0.70128">
        <ele>65</ele>
        <time>2022-08-07T08:19:08.194Z</time>
      </trkpt>
      <trkpt lat="44.18602" lon="0.70125">
        <ele>65</ele>
        <time>2022-08-07T08:19:23.206Z</time>
      </trkpt>
      <trkpt lat="44.18602" lon="0.70124">
        <ele>65</ele>
        <time>2022-08-07T08:19:24.206Z</time>
      </trkpt>
      <trkpt lat="44.18603" lon="0.70123">
        <ele>65</ele>
        <time>2022-08-07T08:19:25.206Z</time>
      </trkpt>
      <trkpt lat="44.18603" lon="0.70121">
        <ele>65</ele>
        <time>2022-08-07T08:19:26.206Z</time>
      </trkpt>
      <trkpt lat="44.18603" lon="0.7012">
        <ele>65</ele>
        <time>2022-08-07T08:19:27.206Z</time>
      </trkpt>
      <trkpt lat="44.18603" lon="0.70119">
        <ele>64</ele>
        <time>2022-08-07T08:19:28.206Z</time>
      </trkpt>
      <trkpt lat="44.18603" lon="0.70118">
        <ele>64</ele>
        <time>2022-08-07T08:19:29.206Z</time>
      </trkpt>
      <trkpt lat="44.18604" lon="0.70118">
        <ele>64</ele>
        <time>2022-08-07T08:19:30.206Z</time>
      </trkpt>
      <trkpt lat="44.18604" lon="0.70117">
        <ele>64</ele>
        <time>2022-08-07T08:19:31.206Z</time>
      </trkpt>
      <trkpt lat="44.18605" lon="0.70116">
        <ele>63</ele>
        <time>2022-08-07T08:19:32.206Z</time>
      </trkpt>
      <trkpt lat="44.18605" lon="0.70115">
        <ele>63</ele>
        <time>2022-08-07T08:19:33.206Z</time>
      </trkpt>
      <trkpt lat="44.18605" lon="0.70114">
        <ele>64</ele>
        <time>2022-08-07T08:19:34.206Z</time>
      </trkpt>
      <trkpt lat="44.18606" lon="0.70113">
        <ele>63</ele>
        <time>2022-08-07T08:19:35.206Z</time>
      </trkpt>
      <trkpt lat="44.18606" lon="0.70111">
        <ele>63</ele>
        <time>2022-08-07T08:19:36.206Z</time>
      </trkpt>
      <trkpt lat="44.18607" lon="0.70109">
        <ele>63</ele>
        <time>2022-08-07T08:19:37.206Z</time>
      </trkpt>
      <trkpt lat="44.18607" lon="0.70108">
        <ele>64</ele>
        <time>2022-08-07T08:19:38.206Z</time>
      </trkpt>
      <trkpt lat="44.18608" lon="0.70106">
        <ele>64</ele>
        <time>2022-08-07T08:19:39.206Z</time>
      </trkpt>
      <trkpt lat="44.18608" lon="0.70105">
        <ele>64</ele>
        <time>2022-08-07T08:19:40.206Z</time>
      </trkpt>
      <trkpt lat="44.18608" lon="0.70103">
        <ele>64</ele>
        <time>2022-08-07T08:19:41.206Z</time>
      </trkpt>
      <trkpt lat="44.18608" lon="0.70101">
        <ele>64</ele>
        <time>2022-08-07T08:19:42.206Z</time>
      </trkpt>
      <trkpt lat="44.18609" lon="0.701">
        <ele>64</ele>
        <time>2022-08-07T08:19:43.206Z</time>
      </trkpt>
      <trkpt lat="44.18609" lon="0.70098">
        <ele>64</ele>
        <time>2022-08-07T08:19:44.206Z</time>
      </trkpt>
      <trkpt lat="44.18609" lon="0.70096">
        <ele>65</ele>
        <time>2022-08-07T08:19:45.206Z</time>
      </trkpt>
      <trkpt lat="44.1861" lon="0.70094">
        <ele>65</ele>
        <time>2022-08-07T08:19:46.206Z</time>
      </trkpt>
      <trkpt lat="44.1861" lon="0.70092">
        <ele>65</ele>
        <time>2022-08-07T08:19:47.206Z</time>
      </trkpt>
      <trkpt lat="44.1861" lon="0.7009">
        <ele>64</ele>
        <time>2022-08-07T08:19:48.206Z</time>
      </trkpt>
      <trkpt lat="44.1861" lon="0.70089">
        <ele>65</ele>
        <time>2022-08-07T08:19:49.206Z</time>
      </trkpt>
      <trkpt lat="44.18611" lon="0.70087">
        <ele>64</ele>
        <time>2022-08-07T08:19:50.206Z</time>
      </trkpt>
      <trkpt lat="44.18611" lon="0.70085">
        <ele>64</ele>
        <time>2022-08-07T08:19:51.206Z</time>
      </trkpt>
      <trkpt lat="44.18611" lon="0.70084">
        <ele>64</ele>
        <time>2022-08-07T08:19:52.206Z</time>
      </trkpt>
      <trkpt lat="44.18612" lon="0.70082">
        <ele>65</ele>
        <time>2022-08-07T08:19:53.206Z</time>
      </trkpt>
      <trkpt lat="44.18612" lon="0.7008">
        <ele>64</ele>
        <time>2022-08-07T08:19:54.206Z</time>
      </trkpt>
      <trkpt lat="44.18613" lon="0.70078">
        <ele>64</ele>
        <time>2022-08-07T08:19:55.206Z</time>
      </trkpt>
      <trkpt lat="44.18613" lon="0.70077">
        <ele>64</ele>
        <time>2022-08-07T08:19:56.206Z</time>
      </trkpt>
      <trkpt lat="44.18613" lon="0.70075">
        <ele>65</ele>
        <time>2022-08-07T08:19:57.206Z</time>
      </trkpt>
      <trkpt lat="44.18614" lon="0.70073">
        <ele>65</ele>
        <time>2022-08-07T08:19:58.206Z</time>
      </trkpt>
      <trkpt lat="44.18614" lon="0.70071">
        <ele>65</ele>
        <time>2022-08-07T08:19:59.206Z</time>
      </trkpt>
      <trkpt lat="44.18614" lon="0.7007">
        <ele>65</ele>
        <time>2022-08-07T08:20:00.206Z</time>
      </trkpt>
      <trkpt lat="44.18615" lon="0.70068">
        <ele>65</ele>
        <time>2022-08-07T08:20:01.206Z</time>
      </trkpt>
      <trkpt lat="44.18615" lon="0.70066">
        <ele>66</ele>
        <time>2022-08-07T08:20:02.206Z</time>
      </trkpt>
      <trkpt lat="44.18616" lon="0.70064">
        <ele>66</ele>
        <time>2022-08-07T08:20:03.206Z</time>
      </trkpt>
      <trkpt lat="44.18616" lon="0.70062">
        <ele>66</ele>
        <time>2022-08-07T08:20:04.206Z</time>
      </trkpt>
      <trkpt lat="44.18616" lon="0.7006">
        <ele>66</ele>
        <time>2022-08-07T08:20:05.206Z</time>
      </trkpt>
      <trkpt lat="44.18617" lon="0.70059">
        <ele>66</ele>
        <time>2022-08-07T08:20:06.206Z</time>
      </trkpt>
      <trkpt lat="44.18617" lon="0.70057">
        <ele>66</ele>
        <time>2022-08-07T08:20:07.206Z</time>
      </trkpt>
      <trkpt lat="44.18618" lon="0.70055">
        <ele>66</ele>
        <time>2022-08-07T08:20:08.206Z</time>
      </trkpt>
      <trkpt lat="44.18618" lon="0.70054">
        <ele>66</ele>
        <time>2022-08-07T08:20:09.206Z</time>
      </trkpt>
      <trkpt lat="44.18618" lon="0.70052">
        <ele>66</ele>
        <time>2022-08-07T08:20:10.206Z</time>
      </trkpt>
      <trkpt lat="44.18618" lon="0.7005">
        <ele>67</ele>
        <time>2022-08-07T08:20:11.206Z</time>
      </trkpt>
      <trkpt lat="44.18619" lon="0.70049">
        <ele>67</ele>
        <time>2022-08-07T08:20:12.206Z</time>
      </trkpt>
      <trkpt lat="44.18619" lon="0.70047">
        <ele>67</ele>
        <time>2022-08-07T08:20:13.206Z</time>
      </trkpt>
      <trkpt lat="44.18619" lon="0.70045">
        <ele>67</ele>
        <time>2022-08-07T08:20:14.206Z</time>
      </trkpt>
      <trkpt lat="44.1862" lon="0.70044">
        <ele>67</ele>
        <time>2022-08-07T08:20:15.206Z</time>
      </trkpt>
      <trkpt lat="44.1862" lon="0.70042">
        <ele>67</ele>
        <time>2022-08-07T08:20:16.206Z</time>
      </trkpt>
      <trkpt lat="44.1862" lon="0.7004">
        <ele>67</ele>
        <time>2022-08-07T08:20:17.206Z</time>
      </trkpt>
      <trkpt lat="44.18621" lon="0.70039">
        <ele>67</ele>
        <time>2022-08-07T08:20:18.206Z</time>
      </trkpt>
      <trkpt lat="44.18621" lon="0.70037">
        <ele>67</ele>
        <time>2022-08-07T08:20:19.206Z</time>
      </trkpt>
      <trkpt lat="44.18621" lon="0.70036">
        <ele>67</ele>
        <time>2022-08-07T08:20:20.206Z</time>
      </trkpt>
      <trkpt lat="44.18622" lon="0.70034">
        <ele>67</ele>
        <time>2022-08-07T08:20:21.206Z</time>
      </trkpt>
      <trkpt lat="44.18622" lon="0.70032">
        <ele>67</ele>
        <time>2022-08-07T08:20:22.206Z</time>
      </trkpt>
      <trkpt lat="44.18622" lon="0.7003">
        <ele>67</ele>
        <time>2022-08-07T08:20:23.206Z</time>
      </trkpt>
      <trkpt lat="44.18623" lon="0.70029">
        <ele>67</ele>
        <time>2022-08-07T08:20:24.206Z</time>
      </trkpt>
      <trkpt lat="44.18623" lon="0.70027">
        <ele>67</ele>
        <time>2022-08-07T08:20:25.206Z</time>
      </trkpt>
      <trkpt lat="44.18623" lon="0.70026">
        <ele>66</ele>
        <time>2022-08-07T08:20:26.206Z</time>
      </trkpt>
      <trkpt lat="44.18624" lon="0.70025">
        <ele>66</ele>
        <time>2022-08-07T08:20:27.206Z</time>
      </trkpt>
      <trkpt lat="44.18624" lon="0.70024">
        <ele>67</ele>
        <time>2022-08-07T08:20:28.206Z</time>
      </trkpt>
      <trkpt lat="44.18624" lon="0.70023">
        <ele>66</ele>
        <time>2022-08-07T08:20:29.206Z</time>
      </trkpt>
      <trkpt lat="44.18624" lon="0.70023">
        <ele>66</ele>
        <time>2022-08-07T08:20:30.206Z</time>
      </trkpt>
      <trkpt lat="44.18624" lon="0.70022">
        <ele>66</ele>
        <time>2022-08-07T08:20:31.206Z</time>
      </trkpt>
      <trkpt lat="44.18623" lon="0.70022">
        <ele>66</ele>
        <time>2022-08-07T08:20:32.206Z</time>
      </trkpt>
      <trkpt lat="44.18623" lon="0.70022">
        <ele>66</ele>
        <time>2022-08-07T08:20:33.206Z</time>
      </trkpt>
      <trkpt lat="44.18622" lon="0.70022">
        <ele>66</ele>
        <time>2022-08-07T08:20:34.206Z</time>
      </trkpt>
      <trkpt lat="44.18622" lon="0.70022">
        <ele>66</ele>
        <time>2022-08-07T08:20:35.206Z</time>
      </trkpt>
      <trkpt lat="44.18622" lon="0.70022">
        <ele>66</ele>
        <time>2022-08-07T08:20:36.206Z</time>
      </trkpt>
      <trkpt lat="44.18623" lon="0.70022">
        <ele>66</ele>
        <time>2022-08-07T08:20:37.206Z</time>
      </trkpt>
      <trkpt lat="44.18623" lon="0.70022">
        <ele>66</ele>
        <time>2022-08-07T08:20:38.206Z</time>
      </trkpt>
      <trkpt lat="44.18623" lon="0.70022">
        <ele>65</ele>
        <time>2022-08-07T08:20:39.206Z</time>
      </trkpt>
      <trkpt lat="44.18623" lon="0.70021">
        <ele>65</ele>
        <time>2022-08-07T08:20:40.206Z</time>
      </trkpt>
      <trkpt lat="44.18624" lon="0.7002">
        <ele>66</ele>
        <time>2022-08-07T08:20:41.206Z</time>
      </trkpt>
      <trkpt lat="44.18625" lon="0.70019">
        <ele>66</ele>
        <time>2022-08-07T08:20:42.206Z</time>
      </trkpt>
      <trkpt lat="44.18625" lon="0.70018">
        <ele>66</ele>
        <time>2022-08-07T08:20:43.206Z</time>
      </trkpt>
      <trkpt lat="44.18626" lon="0.70017">
        <ele>66</ele>
        <time>2022-08-07T08:20:44.206Z</time>
      </trkpt>
      <trkpt lat="44.18627" lon="0.70016">
        <ele>66</ele>
        <time>2022-08-07T08:20:45.206Z</time>
      </trkpt>
      <trkpt lat="44.18627" lon="0.70014">
        <ele>66</ele>
        <time>2022-08-07T08:20:46.206Z</time>
      </trkpt>
      <trkpt lat="44.18628" lon="0.70013">
        <ele>66</ele>
        <time>2022-08-07T08:20:47.206Z</time>
      </trkpt>
      <trkpt lat="44.18628" lon="0.70011">
        <ele>66</ele>
        <time>2022-08-07T08:20:48.206Z</time>
      </trkpt>
      <trkpt lat="44.18629" lon="0.7001">
        <ele>66</ele>
        <time>2022-08-07T08:20:49.206Z</time>
      </trkpt>
      <trkpt lat="44.1863" lon="0.70008">
        <ele>65</ele>
        <time>2022-08-07T08:20:50.206Z</time>
      </trkpt>
      <trkpt lat="44.1863" lon="0.70007">
        <ele>65</ele>
        <time>2022-08-07T08:20:51.206Z</time>
      </trkpt>
      <trkpt lat="44.18631" lon="0.70006">
        <ele>65</ele>
        <time>2022-08-07T08:20:52.206Z</time>
      </trkpt>
      <trkpt lat="44.18632" lon="0.70004">
        <ele>66</ele>
        <time>2022-08-07T08:20:53.206Z</time>
      </trkpt>
      <trkpt lat="44.18633" lon="0.70003">
        <ele>65</ele>
        <time>2022-08-07T08:20:54.206Z</time>
      </trkpt>
      <trkpt lat="44.18634" lon="0.70002">
        <ele>65</ele>
        <time>2022-08-07T08:20:55.206Z</time>
      </trkpt>
      <trkpt lat="44.18635" lon="0.70001">
        <ele>64</ele>
        <time>2022-08-07T08:20:56.206Z</time>
      </trkpt>
      <trkpt lat="44.18636" lon="0.7">
        <ele>64</ele>
        <time>2022-08-07T08:20:57.206Z</time>
      </trkpt>
      <trkpt lat="44.18637" lon="0.69999">
        <ele>64</ele>
        <time>2022-08-07T08:20:58.206Z</time>
      </trkpt>
      <trkpt lat="44.18638" lon="0.69998">
        <ele>64</ele>
        <time>2022-08-07T08:20:59.206Z</time>
      </trkpt>
      <trkpt lat="44.1864" lon="0.69997">
        <ele>62</ele>
        <time>2022-08-07T08:21:00.206Z</time>
      </trkpt>
      <trkpt lat="44.18641" lon="0.69997">
        <ele>62</ele>
        <time>2022-08-07T08:21:01.206Z</time>
      </trkpt>
      <trkpt lat="44.18642" lon="0.69996">
        <ele>62</ele>
        <time>2022-08-07T08:21:02.206Z</time>
      </trkpt>
      <trkpt lat="44.18643" lon="0.69996">
        <ele>63</ele>
        <time>2022-08-07T08:21:03.206Z</time>
      </trkpt>
      <trkpt lat="44.18644" lon="0.69995">
        <ele>63</ele>
        <time>2022-08-07T08:21:04.206Z</time>
      </trkpt>
      <trkpt lat="44.18646" lon="0.69994">
        <ele>64</ele>
        <time>2022-08-07T08:21:05.206Z</time>
      </trkpt>
      <trkpt lat="44.18647" lon="0.69994">
        <ele>64</ele>
        <time>2022-08-07T08:21:06.206Z</time>
      </trkpt>
      <trkpt lat="44.18648" lon="0.69993">
        <ele>64</ele>
        <time>2022-08-07T08:21:07.206Z</time>
      </trkpt>
      <trkpt lat="44.18649" lon="0.69993">
        <ele>65</ele>
        <time>2022-08-07T08:21:08.206Z</time>
      </trkpt>
      <trkpt lat="44.1865" lon="0.69993">
        <ele>65</ele>
        <time>2022-08-07T08:21:09.206Z</time>
      </trkpt>
      <trkpt lat="44.18651" lon="0.69993">
        <ele>66</ele>
        <time>2022-08-07T08:21:10.206Z</time>
      </trkpt>
      <trkpt lat="44.18652" lon="0.69993">
        <ele>66</ele>
        <time>2022-08-07T08:21:11.206Z</time>
      </trkpt>
      <trkpt lat="44.18653" lon="0.69993">
        <ele>67</ele>
        <time>2022-08-07T08:21:12.206Z</time>
      </trkpt>
      <trkpt lat="44.18654" lon="0.69993">
        <ele>67</ele>
        <time>2022-08-07T08:21:13.206Z</time>
      </trkpt>
      <trkpt lat="44.18655" lon="0.69993">
        <ele>68</ele>
        <time>2022-08-07T08:21:14.206Z</time>
      </trkpt>
      <trkpt lat="44.18656" lon="0.69993">
        <ele>68</ele>
        <time>2022-08-07T08:21:15.206Z</time>
      </trkpt>
      <trkpt lat="44.18657" lon="0.69993">
        <ele>69</ele>
        <time>2022-08-07T08:21:16.206Z</time>
      </trkpt>
      <trkpt lat="44.18658" lon="0.69993">
        <ele>69</ele>
        <time>2022-08-07T08:21:17.206Z</time>
      </trkpt>
      <trkpt lat="44.18659" lon="0.69992">
        <ele>69</ele>
        <time>2022-08-07T08:21:18.206Z</time>
      </trkpt>
      <trkpt lat="44.1866" lon="0.69992">
        <ele>70</ele>
        <time>2022-08-07T08:21:19.206Z</time>
      </trkpt>
      <trkpt lat="44.18662" lon="0.69992">
        <ele>70</ele>
        <time>2022-08-07T08:21:20.206Z</time>
      </trkpt>
      <trkpt lat="44.18663" lon="0.69991">
        <ele>70</ele>
        <time>2022-08-07T08:21:21.206Z</time>
      </trkpt>
      <trkpt lat="44.18664" lon="0.69991">
        <ele>71</ele>
        <time>2022-08-07T08:21:22.206Z</time>
      </trkpt>
      <trkpt lat="44.18665" lon="0.6999">
        <ele>71</ele>
        <time>2022-08-07T08:21:23.206Z</time>
      </trkpt>
      <trkpt lat="44.18666" lon="0.69989">
        <ele>71</ele>
        <time>2022-08-07T08:21:24.206Z</time>
      </trkpt>
      <trkpt lat="44.18667" lon="0.69988">
        <ele>71</ele>
        <time>2022-08-07T08:21:25.206Z</time>
      </trkpt>
      <trkpt lat="44.18668" lon="0.69987">
        <ele>71</ele>
        <time>2022-08-07T08:21:26.206Z</time>
      </trkpt>
      <trkpt lat="44.18669" lon="0.69986">
        <ele>71</ele>
        <time>2022-08-07T08:21:27.206Z</time>
      </trkpt>
      <trkpt lat="44.18669" lon="0.69984">
        <ele>71</ele>
        <time>2022-08-07T08:21:28.206Z</time>
      </trkpt>
      <trkpt lat="44.1867" lon="0.69982">
        <ele>71</ele>
        <time>2022-08-07T08:21:29.206Z</time>
      </trkpt>
      <trkpt lat="44.1867" lon="0.69981">
        <ele>72</ele>
        <time>2022-08-07T08:21:30.206Z</time>
      </trkpt>
      <trkpt lat="44.1867" lon="0.69979">
        <ele>72</ele>
        <time>2022-08-07T08:21:31.206Z</time>
      </trkpt>
      <trkpt lat="44.1867" lon="0.69977">
        <ele>72</ele>
        <time>2022-08-07T08:21:32.206Z</time>
      </trkpt>
      <trkpt lat="44.1867" lon="0.69975">
        <ele>72</ele>
        <time>2022-08-07T08:21:33.206Z</time>
      </trkpt>
      <trkpt lat="44.1867" lon="0.69973">
        <ele>72</ele>
        <time>2022-08-07T08:21:34.206Z</time>
      </trkpt>
      <trkpt lat="44.1867" lon="0.69971">
        <ele>72</ele>
        <time>2022-08-07T08:21:35.206Z</time>
      </trkpt>
      <trkpt lat="44.1867" lon="0.6997">
        <ele>73</ele>
        <time>2022-08-07T08:21:36.206Z</time>
      </trkpt>
      <trkpt lat="44.1867" lon="0.69969">
        <ele>72</ele>
        <time>2022-08-07T08:21:37.206Z</time>
      </trkpt>
      <trkpt lat="44.1867" lon="0.69967">
        <ele>72</ele>
        <time>2022-08-07T08:21:38.206Z</time>
      </trkpt>
      <trkpt lat="44.1867" lon="0.69965">
        <ele>72</ele>
        <time>2022-08-07T08:21:39.206Z</time>
      </trkpt>
      <trkpt lat="44.1867" lon="0.69963">
        <ele>72</ele>
        <time>2022-08-07T08:21:40.206Z</time>
      </trkpt>
      <trkpt lat="44.1867" lon="0.69961">
        <ele>72</ele>
        <time>2022-08-07T08:21:41.206Z</time>
      </trkpt>
      <trkpt lat="44.1867" lon="0.69959">
        <ele>72</ele>
        <time>2022-08-07T08:21:42.206Z</time>
      </trkpt>
      <trkpt lat="44.1867" lon="0.69958">
        <ele>72</ele>
        <time>2022-08-07T08:21:43.206Z</time>
      </trkpt>
      <trkpt lat="44.1867" lon="0.69956">
        <ele>72</ele>
        <time>2022-08-07T08:21:44.206Z</time>
      </trkpt>
      <trkpt lat="44.1867" lon="0.69955">
        <ele>72</ele>
        <time>2022-08-07T08:21:45.206Z</time>
      </trkpt>
      <trkpt lat="44.1867" lon="0.69953">
        <ele>72</ele>
        <time>2022-08-07T08:21:46.206Z</time>
      </trkpt>
      <trkpt lat="44.18671" lon="0.69951">
        <ele>72</ele>
        <time>2022-08-07T08:21:47.206Z</time>
      </trkpt>
      <trkpt lat="44.18671" lon="0.6995">
        <ele>71</ele>
        <time>2022-08-07T08:21:48.206Z</time>
      </trkpt>
      <trkpt lat="44.18671" lon="0.69948">
        <ele>71</ele>
        <time>2022-08-07T08:21:49.206Z</time>
      </trkpt>
      <trkpt lat="44.1867" lon="0.69946">
        <ele>71</ele>
        <time>2022-08-07T08:21:50.206Z</time>
      </trkpt>
      <trkpt lat="44.1867" lon="0.69945">
        <ele>71</ele>
        <time>2022-08-07T08:21:51.206Z</time>
      </trkpt>
      <trkpt lat="44.1867" lon="0.69944">
        <ele>71</ele>
        <time>2022-08-07T08:21:52.206Z</time>
      </trkpt>
      <trkpt lat="44.1867" lon="0.69943">
        <ele>71</ele>
        <time>2022-08-07T08:21:53.206Z</time>
      </trkpt>
      <trkpt lat="44.18669" lon="0.69942">
        <ele>71</ele>
        <time>2022-08-07T08:21:54.206Z</time>
      </trkpt>
      <trkpt lat="44.18668" lon="0.69941">
        <ele>71</ele>
        <time>2022-08-07T08:21:55.206Z</time>
      </trkpt>
      <trkpt lat="44.18667" lon="0.69941">
        <ele>71</ele>
        <time>2022-08-07T08:21:56.206Z</time>
      </trkpt>
      <trkpt lat="44.18666" lon="0.6994">
        <ele>71</ele>
        <time>2022-08-07T08:21:57.206Z</time>
      </trkpt>
      <trkpt lat="44.18666" lon="0.6994">
        <ele>71</ele>
        <time>2022-08-07T08:21:58.206Z</time>
      </trkpt>
      <trkpt lat="44.18664" lon="0.6994">
        <ele>71</ele>
        <time>2022-08-07T08:21:59.206Z</time>
      </trkpt>
      <trkpt lat="44.18663" lon="0.6994">
        <ele>71</ele>
        <time>2022-08-07T08:22:00.206Z</time>
      </trkpt>
      <trkpt lat="44.18662" lon="0.69939">
        <ele>71</ele>
        <time>2022-08-07T08:22:01.206Z</time>
      </trkpt>
      <trkpt lat="44.18661" lon="0.69939">
        <ele>71</ele>
        <time>2022-08-07T08:22:02.206Z</time>
      </trkpt>
      <trkpt lat="44.1866" lon="0.69939">
        <ele>72</ele>
        <time>2022-08-07T08:22:03.206Z</time>
      </trkpt>
      <trkpt lat="44.18658" lon="0.69939">
        <ele>71</ele>
        <time>2022-08-07T08:22:04.206Z</time>
      </trkpt>
      <trkpt lat="44.18657" lon="0.69939">
        <ele>71</ele>
        <time>2022-08-07T08:22:05.206Z</time>
      </trkpt>
      <trkpt lat="44.18656" lon="0.69939">
        <ele>72</ele>
        <time>2022-08-07T08:22:06.206Z</time>
      </trkpt>
      <trkpt lat="44.18655" lon="0.69939">
        <ele>72</ele>
        <time>2022-08-07T08:22:07.206Z</time>
      </trkpt>
      <trkpt lat="44.18654" lon="0.69939">
        <ele>71</ele>
        <time>2022-08-07T08:22:08.206Z</time>
      </trkpt>
      <trkpt lat="44.18653" lon="0.69938">
        <ele>71</ele>
        <time>2022-08-07T08:22:09.206Z</time>
      </trkpt>
      <trkpt lat="44.18652" lon="0.69938">
        <ele>71</ele>
        <time>2022-08-07T08:22:10.206Z</time>
      </trkpt>
      <trkpt lat="44.18651" lon="0.69938">
        <ele>71</ele>
        <time>2022-08-07T08:22:11.206Z</time>
      </trkpt>
      <trkpt lat="44.1865" lon="0.69937">
        <ele>71</ele>
        <time>2022-08-07T08:22:12.206Z</time>
      </trkpt>
      <trkpt lat="44.18649" lon="0.69937">
        <ele>70</ele>
        <time>2022-08-07T08:22:13.206Z</time>
      </trkpt>
      <trkpt lat="44.18648" lon="0.69937">
        <ele>70</ele>
        <time>2022-08-07T08:22:14.206Z</time>
      </trkpt>
      <trkpt lat="44.18647" lon="0.69937">
        <ele>70</ele>
        <time>2022-08-07T08:22:15.206Z</time>
      </trkpt>
      <trkpt lat="44.18646" lon="0.69937">
        <ele>71</ele>
        <time>2022-08-07T08:22:16.206Z</time>
      </trkpt>
      <trkpt lat="44.18644" lon="0.69937">
        <ele>71</ele>
        <time>2022-08-07T08:22:17.206Z</time>
      </trkpt>
      <trkpt lat="44.18643" lon="0.69937">
        <ele>71</ele>
        <time>2022-08-07T08:22:18.206Z</time>
      </trkpt>
      <trkpt lat="44.18642" lon="0.69937">
        <ele>70</ele>
        <time>2022-08-07T08:22:19.206Z</time>
      </trkpt>
      <trkpt lat="44.18642" lon="0.69937">
        <ele>70</ele>
        <time>2022-08-07T08:22:20.206Z</time>
      </trkpt>
      <trkpt lat="44.18641" lon="0.69937">
        <ele>70</ele>
        <time>2022-08-07T08:22:21.206Z</time>
      </trkpt>
      <trkpt lat="44.1864" lon="0.69937">
        <ele>70</ele>
        <time>2022-08-07T08:22:22.206Z</time>
      </trkpt>
      <trkpt lat="44.18639" lon="0.69936">
        <ele>70</ele>
        <time>2022-08-07T08:22:23.206Z</time>
      </trkpt>
      <trkpt lat="44.18638" lon="0.69936">
        <ele>69</ele>
        <time>2022-08-07T08:22:24.206Z</time>
      </trkpt>
      <trkpt lat="44.18637" lon="0.69935">
        <ele>69</ele>
        <time>2022-08-07T08:22:25.206Z</time>
      </trkpt>
      <trkpt lat="44.18636" lon="0.69934">
        <ele>69</ele>
        <time>2022-08-07T08:22:26.206Z</time>
      </trkpt>
      <trkpt lat="44.18635" lon="0.69934">
        <ele>69</ele>
        <time>2022-08-07T08:22:27.206Z</time>
      </trkpt>
      <trkpt lat="44.18634" lon="0.69933">
        <ele>69</ele>
        <time>2022-08-07T08:22:28.206Z</time>
      </trkpt>
      <trkpt lat="44.18633" lon="0.69933">
        <ele>68</ele>
        <time>2022-08-07T08:22:29.206Z</time>
      </trkpt>
      <trkpt lat="44.18632" lon="0.69933">
        <ele>68</ele>
        <time>2022-08-07T08:22:30.206Z</time>
      </trkpt>
      <trkpt lat="44.18632" lon="0.69934">
        <ele>67</ele>
        <time>2022-08-07T08:22:31.206Z</time>
      </trkpt>
      <trkpt lat="44.18631" lon="0.69934">
        <ele>68</ele>
        <time>2022-08-07T08:22:32.206Z</time>
      </trkpt>
      <trkpt lat="44.18631" lon="0.69934">
        <ele>67</ele>
        <time>2022-08-07T08:22:33.206Z</time>
      </trkpt>
      <trkpt lat="44.1863" lon="0.69934">
        <ele>67</ele>
        <time>2022-08-07T08:22:34.206Z</time>
      </trkpt>
      <trkpt lat="44.1863" lon="0.69933">
        <ele>67</ele>
        <time>2022-08-07T08:22:35.206Z</time>
      </trkpt>
      <trkpt lat="44.1863" lon="0.69934">
        <ele>68</ele>
        <time>2022-08-07T08:22:36.206Z</time>
      </trkpt>
      <trkpt lat="44.1863" lon="0.69934">
        <ele>68</ele>
        <time>2022-08-07T08:22:37.206Z</time>
      </trkpt>
      <trkpt lat="44.1863" lon="0.69934">
        <ele>68</ele>
        <time>2022-08-07T08:22:38.206Z</time>
      </trkpt>
      <trkpt lat="44.1863" lon="0.69934">
        <ele>68</ele>
        <time>2022-08-07T08:22:39.206Z</time>
      </trkpt>
      <trkpt lat="44.18632" lon="0.69935">
        <ele>67</ele>
        <time>2022-08-07T08:22:51.230Z</time>
      </trkpt>
      <trkpt lat="44.18632" lon="0.69935">
        <ele>68</ele>
        <time>2022-08-07T08:22:52.230Z</time>
      </trkpt>
      <trkpt lat="44.18632" lon="0.69935">
        <ele>68</ele>
        <time>2022-08-07T08:22:53.230Z</time>
      </trkpt>
      <trkpt lat="44.18632" lon="0.69935">
        <ele>68</ele>
        <time>2022-08-07T08:22:54.230Z</time>
      </trkpt>
      <trkpt lat="44.18632" lon="0.69935">
        <ele>68</ele>
        <time>2022-08-07T08:22:55.230Z</time>
      </trkpt>
    </trkseg>
  </trk>
</gpx>